<?xml version="1.0" encoding="UTF-8" standalone="no" ?>
<gpx xmlns="http://www.topografix.com/GPX/1/1" xmlns:xsi="http://www.w3.org/2001/XMLSchema-instance" xsi:schemaLocation="http://www.topografix.com/GPX/1/1 http://www.topografix.com/GPX/1/1/gpx.xsd" version="1.1" creator="VisuGPX - https://www.visugpx.com">
  <metadata>
    <name>Boucle plateau de Coscione</name>
  </metadata>
  <trk>
    <name><![CDATA[Boucle plateau de Coscione]]></name>
    <trkseg>
      <trkpt lat="41.76572" lon="9.13758">
        <ele>798.2</ele>
        <time>2021-06-03T05:49:25Z</time>
      </trkpt>
      <trkpt lat="41.76572" lon="9.13758">
        <ele>798.2</ele>
        <time>2021-06-03T05:49:26Z</time>
      </trkpt>
      <trkpt lat="41.76572" lon="9.13758">
        <ele>798.4</ele>
        <time>2021-06-03T05:49:59Z</time>
      </trkpt>
      <trkpt lat="41.76572" lon="9.13755">
        <ele>798.8</ele>
        <time>2021-06-03T05:50:00Z</time>
      </trkpt>
      <trkpt lat="41.76572" lon="9.13752">
        <ele>798.8</ele>
        <time>2021-06-03T05:50:01Z</time>
      </trkpt>
      <trkpt lat="41.76573" lon="9.1375">
        <ele>798.8</ele>
        <time>2021-06-03T05:50:02Z</time>
      </trkpt>
      <trkpt lat="41.76572" lon="9.13747">
        <ele>799</ele>
        <time>2021-06-03T05:50:03Z</time>
      </trkpt>
      <trkpt lat="41.76573" lon="9.13745">
        <ele>799.4</ele>
        <time>2021-06-03T05:50:04Z</time>
      </trkpt>
      <trkpt lat="41.76572" lon="9.13743">
        <ele>799.4</ele>
        <time>2021-06-03T05:50:05Z</time>
      </trkpt>
      <trkpt lat="41.76572" lon="9.1374">
        <ele>799.4</ele>
        <time>2021-06-03T05:50:06Z</time>
      </trkpt>
      <trkpt lat="41.76572" lon="9.13738">
        <ele>799.4</ele>
        <time>2021-06-03T05:50:07Z</time>
      </trkpt>
      <trkpt lat="41.76572" lon="9.13735">
        <ele>800.2</ele>
        <time>2021-06-03T05:50:08Z</time>
      </trkpt>
      <trkpt lat="41.76572" lon="9.13733">
        <ele>800.2</ele>
        <time>2021-06-03T05:50:09Z</time>
      </trkpt>
      <trkpt lat="41.76572" lon="9.1373">
        <ele>800.2</ele>
        <time>2021-06-03T05:50:10Z</time>
      </trkpt>
      <trkpt lat="41.76571" lon="9.13728">
        <ele>800.2</ele>
        <time>2021-06-03T05:50:11Z</time>
      </trkpt>
      <trkpt lat="41.76571" lon="9.13725">
        <ele>800.2</ele>
        <time>2021-06-03T05:50:12Z</time>
      </trkpt>
      <trkpt lat="41.76571" lon="9.13723">
        <ele>800.2</ele>
        <time>2021-06-03T05:50:13Z</time>
      </trkpt>
      <trkpt lat="41.76571" lon="9.1372">
        <ele>800.2</ele>
        <time>2021-06-03T05:50:14Z</time>
      </trkpt>
      <trkpt lat="41.76571" lon="9.13717">
        <ele>800.2</ele>
        <time>2021-06-03T05:50:15Z</time>
      </trkpt>
      <trkpt lat="41.76571" lon="9.13715">
        <ele>800.8</ele>
        <time>2021-06-03T05:50:16Z</time>
      </trkpt>
      <trkpt lat="41.76571" lon="9.13712">
        <ele>800.8</ele>
        <time>2021-06-03T05:50:17Z</time>
      </trkpt>
      <trkpt lat="41.76572" lon="9.13709">
        <ele>800.8</ele>
        <time>2021-06-03T05:50:18Z</time>
      </trkpt>
      <trkpt lat="41.76572" lon="9.13707">
        <ele>800.8</ele>
        <time>2021-06-03T05:50:19Z</time>
      </trkpt>
      <trkpt lat="41.76571" lon="9.13705">
        <ele>801.2</ele>
        <time>2021-06-03T05:50:20Z</time>
      </trkpt>
      <trkpt lat="41.76571" lon="9.13702">
        <ele>801.2</ele>
        <time>2021-06-03T05:50:21Z</time>
      </trkpt>
      <trkpt lat="41.76571" lon="9.137">
        <ele>801.2</ele>
        <time>2021-06-03T05:50:22Z</time>
      </trkpt>
      <trkpt lat="41.76571" lon="9.13698">
        <ele>801.8</ele>
        <time>2021-06-03T05:50:23Z</time>
      </trkpt>
      <trkpt lat="41.76571" lon="9.13695">
        <ele>801.4</ele>
        <time>2021-06-03T05:50:24Z</time>
      </trkpt>
      <trkpt lat="41.76571" lon="9.13693">
        <ele>801.4</ele>
        <time>2021-06-03T05:50:25Z</time>
      </trkpt>
      <trkpt lat="41.7657" lon="9.1369">
        <ele>801.4</ele>
        <time>2021-06-03T05:50:26Z</time>
      </trkpt>
      <trkpt lat="41.7657" lon="9.13688">
        <ele>801.4</ele>
        <time>2021-06-03T05:50:27Z</time>
      </trkpt>
      <trkpt lat="41.76569" lon="9.13685">
        <ele>802.4</ele>
        <time>2021-06-03T05:50:28Z</time>
      </trkpt>
      <trkpt lat="41.76569" lon="9.13682">
        <ele>802.4</ele>
        <time>2021-06-03T05:50:29Z</time>
      </trkpt>
      <trkpt lat="41.76569" lon="9.13679">
        <ele>802.4</ele>
        <time>2021-06-03T05:50:30Z</time>
      </trkpt>
      <trkpt lat="41.76569" lon="9.13677">
        <ele>802.4</ele>
        <time>2021-06-03T05:50:31Z</time>
      </trkpt>
      <trkpt lat="41.76569" lon="9.13674">
        <ele>802.4</ele>
        <time>2021-06-03T05:50:32Z</time>
      </trkpt>
      <trkpt lat="41.76569" lon="9.13672">
        <ele>802.4</ele>
        <time>2021-06-03T05:50:33Z</time>
      </trkpt>
      <trkpt lat="41.76569" lon="9.13669">
        <ele>802.4</ele>
        <time>2021-06-03T05:50:34Z</time>
      </trkpt>
      <trkpt lat="41.76569" lon="9.13666">
        <ele>802.6</ele>
        <time>2021-06-03T05:50:35Z</time>
      </trkpt>
      <trkpt lat="41.76569" lon="9.13663">
        <ele>803.2</ele>
        <time>2021-06-03T05:50:36Z</time>
      </trkpt>
      <trkpt lat="41.76569" lon="9.13661">
        <ele>803.2</ele>
        <time>2021-06-03T05:50:37Z</time>
      </trkpt>
      <trkpt lat="41.76568" lon="9.13658">
        <ele>803.2</ele>
        <time>2021-06-03T05:50:38Z</time>
      </trkpt>
      <trkpt lat="41.76568" lon="9.13655">
        <ele>803.2</ele>
        <time>2021-06-03T05:50:39Z</time>
      </trkpt>
      <trkpt lat="41.76568" lon="9.13652">
        <ele>803.8</ele>
        <time>2021-06-03T05:50:40Z</time>
      </trkpt>
      <trkpt lat="41.76568" lon="9.1365">
        <ele>803.8</ele>
        <time>2021-06-03T05:50:41Z</time>
      </trkpt>
      <trkpt lat="41.76567" lon="9.13647">
        <ele>803.8</ele>
        <time>2021-06-03T05:50:42Z</time>
      </trkpt>
      <trkpt lat="41.76567" lon="9.13645">
        <ele>804.2</ele>
        <time>2021-06-03T05:50:43Z</time>
      </trkpt>
      <trkpt lat="41.76566" lon="9.13642">
        <ele>804.6</ele>
        <time>2021-06-03T05:50:44Z</time>
      </trkpt>
      <trkpt lat="41.76566" lon="9.1364">
        <ele>804.6</ele>
        <time>2021-06-03T05:50:45Z</time>
      </trkpt>
      <trkpt lat="41.76565" lon="9.13637">
        <ele>804.6</ele>
        <time>2021-06-03T05:50:46Z</time>
      </trkpt>
      <trkpt lat="41.76565" lon="9.13634">
        <ele>804.6</ele>
        <time>2021-06-03T05:50:47Z</time>
      </trkpt>
      <trkpt lat="41.76565" lon="9.13631">
        <ele>804.2</ele>
        <time>2021-06-03T05:50:48Z</time>
      </trkpt>
      <trkpt lat="41.76565" lon="9.13628">
        <ele>804.2</ele>
        <time>2021-06-03T05:50:49Z</time>
      </trkpt>
      <trkpt lat="41.76564" lon="9.13626">
        <ele>804.2</ele>
        <time>2021-06-03T05:50:50Z</time>
      </trkpt>
      <trkpt lat="41.76564" lon="9.13623">
        <ele>804.2</ele>
        <time>2021-06-03T05:50:51Z</time>
      </trkpt>
      <trkpt lat="41.76563" lon="9.1362">
        <ele>804.6</ele>
        <time>2021-06-03T05:50:52Z</time>
      </trkpt>
      <trkpt lat="41.76563" lon="9.13617">
        <ele>804.6</ele>
        <time>2021-06-03T05:50:53Z</time>
      </trkpt>
      <trkpt lat="41.76562" lon="9.13614">
        <ele>804.6</ele>
        <time>2021-06-03T05:50:54Z</time>
      </trkpt>
      <trkpt lat="41.76562" lon="9.13611">
        <ele>804.8</ele>
        <time>2021-06-03T05:50:55Z</time>
      </trkpt>
      <trkpt lat="41.76561" lon="9.13608">
        <ele>804.8</ele>
        <time>2021-06-03T05:50:56Z</time>
      </trkpt>
      <trkpt lat="41.76561" lon="9.13605">
        <ele>804.8</ele>
        <time>2021-06-03T05:50:57Z</time>
      </trkpt>
      <trkpt lat="41.76561" lon="9.13602">
        <ele>804.8</ele>
        <time>2021-06-03T05:50:58Z</time>
      </trkpt>
      <trkpt lat="41.7656" lon="9.13599">
        <ele>804.8</ele>
        <time>2021-06-03T05:50:59Z</time>
      </trkpt>
      <trkpt lat="41.7656" lon="9.13596">
        <ele>805.2</ele>
        <time>2021-06-03T05:51:00Z</time>
      </trkpt>
      <trkpt lat="41.76559" lon="9.13593">
        <ele>805.2</ele>
        <time>2021-06-03T05:51:01Z</time>
      </trkpt>
      <trkpt lat="41.76559" lon="9.1359">
        <ele>805.2</ele>
        <time>2021-06-03T05:51:02Z</time>
      </trkpt>
      <trkpt lat="41.76558" lon="9.13587">
        <ele>805.4</ele>
        <time>2021-06-03T05:51:03Z</time>
      </trkpt>
      <trkpt lat="41.76558" lon="9.13584">
        <ele>805.4</ele>
        <time>2021-06-03T05:51:04Z</time>
      </trkpt>
      <trkpt lat="41.76558" lon="9.13581">
        <ele>805.4</ele>
        <time>2021-06-03T05:51:05Z</time>
      </trkpt>
      <trkpt lat="41.76558" lon="9.13578">
        <ele>805.4</ele>
        <time>2021-06-03T05:51:06Z</time>
      </trkpt>
      <trkpt lat="41.76557" lon="9.13575">
        <ele>805.4</ele>
        <time>2021-06-03T05:51:07Z</time>
      </trkpt>
      <trkpt lat="41.76557" lon="9.13572">
        <ele>805.4</ele>
        <time>2021-06-03T05:51:08Z</time>
      </trkpt>
      <trkpt lat="41.76558" lon="9.1357">
        <ele>805.4</ele>
        <time>2021-06-03T05:51:09Z</time>
      </trkpt>
      <trkpt lat="41.76558" lon="9.13567">
        <ele>805.4</ele>
        <time>2021-06-03T05:51:10Z</time>
      </trkpt>
      <trkpt lat="41.76559" lon="9.13565">
        <ele>806</ele>
        <time>2021-06-03T05:51:11Z</time>
      </trkpt>
      <trkpt lat="41.76559" lon="9.13562">
        <ele>806</ele>
        <time>2021-06-03T05:51:12Z</time>
      </trkpt>
      <trkpt lat="41.7656" lon="9.1356">
        <ele>806</ele>
        <time>2021-06-03T05:51:13Z</time>
      </trkpt>
      <trkpt lat="41.76561" lon="9.13557">
        <ele>806</ele>
        <time>2021-06-03T05:51:14Z</time>
      </trkpt>
      <trkpt lat="41.76561" lon="9.13555">
        <ele>806.8</ele>
        <time>2021-06-03T05:51:15Z</time>
      </trkpt>
      <trkpt lat="41.76562" lon="9.13553">
        <ele>807</ele>
        <time>2021-06-03T05:51:16Z</time>
      </trkpt>
      <trkpt lat="41.76562" lon="9.13551">
        <ele>807</ele>
        <time>2021-06-03T05:51:17Z</time>
      </trkpt>
      <trkpt lat="41.76563" lon="9.13549">
        <ele>807</ele>
        <time>2021-06-03T05:51:18Z</time>
      </trkpt>
      <trkpt lat="41.76564" lon="9.13547">
        <ele>807</ele>
        <time>2021-06-03T05:51:19Z</time>
      </trkpt>
      <trkpt lat="41.76564" lon="9.13545">
        <ele>807</ele>
        <time>2021-06-03T05:51:20Z</time>
      </trkpt>
      <trkpt lat="41.76565" lon="9.13543">
        <ele>807</ele>
        <time>2021-06-03T05:51:21Z</time>
      </trkpt>
      <trkpt lat="41.76566" lon="9.13541">
        <ele>807</ele>
        <time>2021-06-03T05:51:22Z</time>
      </trkpt>
      <trkpt lat="41.76567" lon="9.1354">
        <ele>807.8</ele>
        <time>2021-06-03T05:51:23Z</time>
      </trkpt>
      <trkpt lat="41.76568" lon="9.13538">
        <ele>808</ele>
        <time>2021-06-03T05:51:24Z</time>
      </trkpt>
      <trkpt lat="41.76568" lon="9.13536">
        <ele>808</ele>
        <time>2021-06-03T05:51:25Z</time>
      </trkpt>
      <trkpt lat="41.76569" lon="9.13534">
        <ele>808</ele>
        <time>2021-06-03T05:51:26Z</time>
      </trkpt>
      <trkpt lat="41.7657" lon="9.13532">
        <ele>808</ele>
        <time>2021-06-03T05:51:27Z</time>
      </trkpt>
      <trkpt lat="41.7657" lon="9.1353">
        <ele>808.4</ele>
        <time>2021-06-03T05:51:28Z</time>
      </trkpt>
      <trkpt lat="41.76571" lon="9.13528">
        <ele>808.4</ele>
        <time>2021-06-03T05:51:29Z</time>
      </trkpt>
      <trkpt lat="41.76572" lon="9.13527">
        <ele>808.4</ele>
        <time>2021-06-03T05:51:30Z</time>
      </trkpt>
      <trkpt lat="41.76572" lon="9.13525">
        <ele>809</ele>
        <time>2021-06-03T05:51:31Z</time>
      </trkpt>
      <trkpt lat="41.76573" lon="9.13524">
        <ele>809.6</ele>
        <time>2021-06-03T05:51:32Z</time>
      </trkpt>
      <trkpt lat="41.76574" lon="9.13522">
        <ele>809.6</ele>
        <time>2021-06-03T05:51:33Z</time>
      </trkpt>
      <trkpt lat="41.76575" lon="9.1352">
        <ele>809.6</ele>
        <time>2021-06-03T05:51:34Z</time>
      </trkpt>
      <trkpt lat="41.76575" lon="9.13519">
        <ele>810.2</ele>
        <time>2021-06-03T05:51:35Z</time>
      </trkpt>
      <trkpt lat="41.76576" lon="9.13517">
        <ele>810.4</ele>
        <time>2021-06-03T05:51:36Z</time>
      </trkpt>
      <trkpt lat="41.76577" lon="9.13515">
        <ele>810.4</ele>
        <time>2021-06-03T05:51:37Z</time>
      </trkpt>
      <trkpt lat="41.76578" lon="9.13513">
        <ele>810.4</ele>
        <time>2021-06-03T05:51:38Z</time>
      </trkpt>
      <trkpt lat="41.76579" lon="9.13512">
        <ele>811.2</ele>
        <time>2021-06-03T05:51:39Z</time>
      </trkpt>
      <trkpt lat="41.7658" lon="9.13511">
        <ele>811.4</ele>
        <time>2021-06-03T05:51:40Z</time>
      </trkpt>
      <trkpt lat="41.76581" lon="9.1351">
        <ele>811.4</ele>
        <time>2021-06-03T05:51:41Z</time>
      </trkpt>
      <trkpt lat="41.76582" lon="9.13509">
        <ele>811.4</ele>
        <time>2021-06-03T05:51:42Z</time>
      </trkpt>
      <trkpt lat="41.76583" lon="9.13508">
        <ele>811.4</ele>
        <time>2021-06-03T05:51:43Z</time>
      </trkpt>
      <trkpt lat="41.76585" lon="9.13508">
        <ele>811.8</ele>
        <time>2021-06-03T05:51:44Z</time>
      </trkpt>
      <trkpt lat="41.76586" lon="9.13507">
        <ele>811.8</ele>
        <time>2021-06-03T05:51:45Z</time>
      </trkpt>
      <trkpt lat="41.76587" lon="9.13507">
        <ele>811.8</ele>
        <time>2021-06-03T05:51:46Z</time>
      </trkpt>
      <trkpt lat="41.76589" lon="9.13507">
        <ele>812.2</ele>
        <time>2021-06-03T05:51:47Z</time>
      </trkpt>
      <trkpt lat="41.76589" lon="9.13508">
        <ele>812.4</ele>
        <time>2021-06-03T05:51:48Z</time>
      </trkpt>
      <trkpt lat="41.7659" lon="9.13509">
        <ele>812.4</ele>
        <time>2021-06-03T05:51:49Z</time>
      </trkpt>
      <trkpt lat="41.76592" lon="9.1351">
        <ele>812.4</ele>
        <time>2021-06-03T05:51:50Z</time>
      </trkpt>
      <trkpt lat="41.76593" lon="9.13511">
        <ele>812.8</ele>
        <time>2021-06-03T05:51:51Z</time>
      </trkpt>
      <trkpt lat="41.76593" lon="9.13512">
        <ele>812.6</ele>
        <time>2021-06-03T05:51:52Z</time>
      </trkpt>
      <trkpt lat="41.76594" lon="9.13513">
        <ele>812.6</ele>
        <time>2021-06-03T05:51:53Z</time>
      </trkpt>
      <trkpt lat="41.76595" lon="9.13515">
        <ele>812.6</ele>
        <time>2021-06-03T05:51:54Z</time>
      </trkpt>
      <trkpt lat="41.76595" lon="9.13516">
        <ele>812.6</ele>
        <time>2021-06-03T05:51:55Z</time>
      </trkpt>
      <trkpt lat="41.76596" lon="9.13518">
        <ele>812.8</ele>
        <time>2021-06-03T05:51:56Z</time>
      </trkpt>
      <trkpt lat="41.76597" lon="9.13519">
        <ele>812.8</ele>
        <time>2021-06-03T05:51:57Z</time>
      </trkpt>
      <trkpt lat="41.76597" lon="9.13521">
        <ele>812.8</ele>
        <time>2021-06-03T05:51:58Z</time>
      </trkpt>
      <trkpt lat="41.76598" lon="9.13523">
        <ele>813.4</ele>
        <time>2021-06-03T05:51:59Z</time>
      </trkpt>
      <trkpt lat="41.76599" lon="9.13524">
        <ele>813.8</ele>
        <time>2021-06-03T05:52:00Z</time>
      </trkpt>
      <trkpt lat="41.766" lon="9.13525">
        <ele>813.8</ele>
        <time>2021-06-03T05:52:01Z</time>
      </trkpt>
      <trkpt lat="41.76601" lon="9.13527">
        <ele>813.8</ele>
        <time>2021-06-03T05:52:02Z</time>
      </trkpt>
      <trkpt lat="41.76602" lon="9.13529">
        <ele>813.8</ele>
        <time>2021-06-03T05:52:03Z</time>
      </trkpt>
      <trkpt lat="41.76602" lon="9.1353">
        <ele>814.6</ele>
        <time>2021-06-03T05:52:04Z</time>
      </trkpt>
      <trkpt lat="41.76603" lon="9.13531">
        <ele>814.6</ele>
        <time>2021-06-03T05:52:05Z</time>
      </trkpt>
      <trkpt lat="41.76604" lon="9.13532">
        <ele>814.6</ele>
        <time>2021-06-03T05:52:06Z</time>
      </trkpt>
      <trkpt lat="41.76605" lon="9.13534">
        <ele>814.6</ele>
        <time>2021-06-03T05:52:07Z</time>
      </trkpt>
      <trkpt lat="41.76605" lon="9.13535">
        <ele>814.8</ele>
        <time>2021-06-03T05:52:08Z</time>
      </trkpt>
      <trkpt lat="41.76606" lon="9.13537">
        <ele>814.8</ele>
        <time>2021-06-03T05:52:09Z</time>
      </trkpt>
      <trkpt lat="41.76607" lon="9.13538">
        <ele>814.8</ele>
        <time>2021-06-03T05:52:10Z</time>
      </trkpt>
      <trkpt lat="41.76608" lon="9.13539">
        <ele>815.6</ele>
        <time>2021-06-03T05:52:11Z</time>
      </trkpt>
      <trkpt lat="41.76609" lon="9.1354">
        <ele>815.4</ele>
        <time>2021-06-03T05:52:12Z</time>
      </trkpt>
      <trkpt lat="41.7661" lon="9.13542">
        <ele>815.4</ele>
        <time>2021-06-03T05:52:13Z</time>
      </trkpt>
      <trkpt lat="41.76611" lon="9.13543">
        <ele>815.4</ele>
        <time>2021-06-03T05:52:14Z</time>
      </trkpt>
      <trkpt lat="41.76611" lon="9.13545">
        <ele>815.4</ele>
        <time>2021-06-03T05:52:15Z</time>
      </trkpt>
      <trkpt lat="41.76612" lon="9.13546">
        <ele>815.4</ele>
        <time>2021-06-03T05:52:16Z</time>
      </trkpt>
      <trkpt lat="41.76613" lon="9.13548">
        <ele>815.6</ele>
        <time>2021-06-03T05:52:17Z</time>
      </trkpt>
      <trkpt lat="41.76614" lon="9.13549">
        <ele>815.6</ele>
        <time>2021-06-03T05:52:18Z</time>
      </trkpt>
      <trkpt lat="41.76616" lon="9.1355">
        <ele>816.4</ele>
        <time>2021-06-03T05:52:19Z</time>
      </trkpt>
      <trkpt lat="41.76617" lon="9.13552">
        <ele>816.6</ele>
        <time>2021-06-03T05:52:20Z</time>
      </trkpt>
      <trkpt lat="41.76618" lon="9.13553">
        <ele>816.6</ele>
        <time>2021-06-03T05:52:21Z</time>
      </trkpt>
      <trkpt lat="41.7662" lon="9.13554">
        <ele>816.6</ele>
        <time>2021-06-03T05:52:22Z</time>
      </trkpt>
      <trkpt lat="41.76622" lon="9.13556">
        <ele>816.6</ele>
        <time>2021-06-03T05:52:23Z</time>
      </trkpt>
      <trkpt lat="41.76623" lon="9.13557">
        <ele>816.8</ele>
        <time>2021-06-03T05:52:24Z</time>
      </trkpt>
      <trkpt lat="41.76625" lon="9.13558">
        <ele>816.8</ele>
        <time>2021-06-03T05:52:25Z</time>
      </trkpt>
      <trkpt lat="41.76626" lon="9.1356">
        <ele>816.8</ele>
        <time>2021-06-03T05:52:26Z</time>
      </trkpt>
      <trkpt lat="41.76628" lon="9.13561">
        <ele>816.8</ele>
        <time>2021-06-03T05:52:27Z</time>
      </trkpt>
      <trkpt lat="41.76629" lon="9.13562">
        <ele>817.2</ele>
        <time>2021-06-03T05:52:28Z</time>
      </trkpt>
      <trkpt lat="41.7663" lon="9.13564">
        <ele>817.2</ele>
        <time>2021-06-03T05:52:29Z</time>
      </trkpt>
      <trkpt lat="41.76631" lon="9.13565">
        <ele>817.2</ele>
        <time>2021-06-03T05:52:30Z</time>
      </trkpt>
      <trkpt lat="41.76633" lon="9.13567">
        <ele>817.2</ele>
        <time>2021-06-03T05:52:31Z</time>
      </trkpt>
      <trkpt lat="41.76634" lon="9.13568">
        <ele>817.2</ele>
        <time>2021-06-03T05:52:32Z</time>
      </trkpt>
      <trkpt lat="41.76635" lon="9.13569">
        <ele>817.2</ele>
        <time>2021-06-03T05:52:33Z</time>
      </trkpt>
      <trkpt lat="41.76637" lon="9.13571">
        <ele>817.2</ele>
        <time>2021-06-03T05:52:34Z</time>
      </trkpt>
      <trkpt lat="41.76638" lon="9.13572">
        <ele>817.2</ele>
        <time>2021-06-03T05:52:35Z</time>
      </trkpt>
      <trkpt lat="41.76639" lon="9.13574">
        <ele>817</ele>
        <time>2021-06-03T05:52:36Z</time>
      </trkpt>
      <trkpt lat="41.7664" lon="9.13576">
        <ele>817</ele>
        <time>2021-06-03T05:52:37Z</time>
      </trkpt>
      <trkpt lat="41.76641" lon="9.13578">
        <ele>817</ele>
        <time>2021-06-03T05:52:38Z</time>
      </trkpt>
      <trkpt lat="41.76643" lon="9.1358">
        <ele>817.6</ele>
        <time>2021-06-03T05:52:39Z</time>
      </trkpt>
      <trkpt lat="41.76644" lon="9.13581">
        <ele>817.4</ele>
        <time>2021-06-03T05:52:40Z</time>
      </trkpt>
      <trkpt lat="41.76645" lon="9.13583">
        <ele>817.4</ele>
        <time>2021-06-03T05:52:41Z</time>
      </trkpt>
      <trkpt lat="41.76646" lon="9.13585">
        <ele>817.4</ele>
        <time>2021-06-03T05:52:42Z</time>
      </trkpt>
      <trkpt lat="41.76647" lon="9.13587">
        <ele>818.4</ele>
        <time>2021-06-03T05:52:43Z</time>
      </trkpt>
      <trkpt lat="41.76648" lon="9.13588">
        <ele>818.2</ele>
        <time>2021-06-03T05:52:44Z</time>
      </trkpt>
      <trkpt lat="41.76649" lon="9.1359">
        <ele>818.2</ele>
        <time>2021-06-03T05:52:45Z</time>
      </trkpt>
      <trkpt lat="41.7665" lon="9.13592">
        <ele>818.2</ele>
        <time>2021-06-03T05:52:46Z</time>
      </trkpt>
      <trkpt lat="41.76651" lon="9.13594">
        <ele>818.2</ele>
        <time>2021-06-03T05:52:47Z</time>
      </trkpt>
      <trkpt lat="41.76652" lon="9.13596">
        <ele>819</ele>
        <time>2021-06-03T05:52:48Z</time>
      </trkpt>
      <trkpt lat="41.76653" lon="9.13598">
        <ele>819</ele>
        <time>2021-06-03T05:52:49Z</time>
      </trkpt>
      <trkpt lat="41.76654" lon="9.136">
        <ele>819</ele>
        <time>2021-06-03T05:52:50Z</time>
      </trkpt>
      <trkpt lat="41.76655" lon="9.13602">
        <ele>819</ele>
        <time>2021-06-03T05:52:51Z</time>
      </trkpt>
      <trkpt lat="41.76657" lon="9.13603">
        <ele>819.8</ele>
        <time>2021-06-03T05:52:52Z</time>
      </trkpt>
      <trkpt lat="41.76658" lon="9.13605">
        <ele>819.8</ele>
        <time>2021-06-03T05:52:53Z</time>
      </trkpt>
      <trkpt lat="41.76659" lon="9.13606">
        <ele>819.8</ele>
        <time>2021-06-03T05:52:54Z</time>
      </trkpt>
      <trkpt lat="41.76661" lon="9.13607">
        <ele>819.8</ele>
        <time>2021-06-03T05:52:55Z</time>
      </trkpt>
      <trkpt lat="41.76662" lon="9.13608">
        <ele>819.8</ele>
        <time>2021-06-03T05:52:56Z</time>
      </trkpt>
      <trkpt lat="41.76664" lon="9.13609">
        <ele>819.8</ele>
        <time>2021-06-03T05:52:57Z</time>
      </trkpt>
      <trkpt lat="41.76665" lon="9.13609">
        <ele>819.8</ele>
        <time>2021-06-03T05:52:58Z</time>
      </trkpt>
      <trkpt lat="41.76667" lon="9.1361">
        <ele>819.8</ele>
        <time>2021-06-03T05:52:59Z</time>
      </trkpt>
      <trkpt lat="41.76669" lon="9.13611">
        <ele>820</ele>
        <time>2021-06-03T05:53:00Z</time>
      </trkpt>
      <trkpt lat="41.76671" lon="9.13611">
        <ele>820</ele>
        <time>2021-06-03T05:53:01Z</time>
      </trkpt>
      <trkpt lat="41.76672" lon="9.13611">
        <ele>820</ele>
        <time>2021-06-03T05:53:02Z</time>
      </trkpt>
      <trkpt lat="41.76674" lon="9.13611">
        <ele>819.4</ele>
        <time>2021-06-03T05:53:03Z</time>
      </trkpt>
      <trkpt lat="41.76677" lon="9.13611">
        <ele>819.6</ele>
        <time>2021-06-03T05:53:04Z</time>
      </trkpt>
      <trkpt lat="41.76679" lon="9.13611">
        <ele>819.6</ele>
        <time>2021-06-03T05:53:05Z</time>
      </trkpt>
      <trkpt lat="41.76681" lon="9.13612">
        <ele>819.6</ele>
        <time>2021-06-03T05:53:06Z</time>
      </trkpt>
      <trkpt lat="41.76683" lon="9.13612">
        <ele>819.4</ele>
        <time>2021-06-03T05:53:07Z</time>
      </trkpt>
      <trkpt lat="41.76686" lon="9.13612">
        <ele>819.4</ele>
        <time>2021-06-03T05:53:08Z</time>
      </trkpt>
      <trkpt lat="41.76688" lon="9.13612">
        <ele>819.4</ele>
        <time>2021-06-03T05:53:09Z</time>
      </trkpt>
      <trkpt lat="41.7669" lon="9.13612">
        <ele>819.4</ele>
        <time>2021-06-03T05:53:10Z</time>
      </trkpt>
      <trkpt lat="41.76692" lon="9.13612">
        <ele>819.4</ele>
        <time>2021-06-03T05:53:11Z</time>
      </trkpt>
      <trkpt lat="41.76695" lon="9.13612">
        <ele>819.4</ele>
        <time>2021-06-03T05:53:12Z</time>
      </trkpt>
      <trkpt lat="41.76698" lon="9.13612">
        <ele>819.4</ele>
        <time>2021-06-03T05:53:13Z</time>
      </trkpt>
      <trkpt lat="41.76701" lon="9.13613">
        <ele>819.4</ele>
        <time>2021-06-03T05:53:14Z</time>
      </trkpt>
      <trkpt lat="41.76703" lon="9.13613">
        <ele>818.6</ele>
        <time>2021-06-03T05:53:15Z</time>
      </trkpt>
      <trkpt lat="41.76706" lon="9.13614">
        <ele>819</ele>
        <time>2021-06-03T05:53:16Z</time>
      </trkpt>
      <trkpt lat="41.76709" lon="9.13615">
        <ele>819</ele>
        <time>2021-06-03T05:53:17Z</time>
      </trkpt>
      <trkpt lat="41.76712" lon="9.13617">
        <ele>819</ele>
        <time>2021-06-03T05:53:18Z</time>
      </trkpt>
      <trkpt lat="41.76715" lon="9.13618">
        <ele>818</ele>
        <time>2021-06-03T05:53:19Z</time>
      </trkpt>
      <trkpt lat="41.76719" lon="9.1362">
        <ele>817.2</ele>
        <time>2021-06-03T05:53:20Z</time>
      </trkpt>
      <trkpt lat="41.76722" lon="9.13622">
        <ele>817.2</ele>
        <time>2021-06-03T05:53:21Z</time>
      </trkpt>
      <trkpt lat="41.76726" lon="9.13624">
        <ele>817.2</ele>
        <time>2021-06-03T05:53:22Z</time>
      </trkpt>
      <trkpt lat="41.76731" lon="9.13627">
        <ele>816.2</ele>
        <time>2021-06-03T05:53:23Z</time>
      </trkpt>
      <trkpt lat="41.76735" lon="9.1363">
        <ele>814.8</ele>
        <time>2021-06-03T05:53:24Z</time>
      </trkpt>
      <trkpt lat="41.76739" lon="9.13634">
        <ele>814.8</ele>
        <time>2021-06-03T05:53:25Z</time>
      </trkpt>
      <trkpt lat="41.76744" lon="9.13636">
        <ele>814.8</ele>
        <time>2021-06-03T05:53:26Z</time>
      </trkpt>
      <trkpt lat="41.76749" lon="9.13639">
        <ele>813.8</ele>
        <time>2021-06-03T05:53:27Z</time>
      </trkpt>
      <trkpt lat="41.76754" lon="9.1364">
        <ele>813.2</ele>
        <time>2021-06-03T05:53:28Z</time>
      </trkpt>
      <trkpt lat="41.76758" lon="9.13642">
        <ele>813.2</ele>
        <time>2021-06-03T05:53:29Z</time>
      </trkpt>
      <trkpt lat="41.76762" lon="9.13642">
        <ele>813.2</ele>
        <time>2021-06-03T05:53:30Z</time>
      </trkpt>
      <trkpt lat="41.76767" lon="9.13643">
        <ele>813.2</ele>
        <time>2021-06-03T05:53:31Z</time>
      </trkpt>
      <trkpt lat="41.76772" lon="9.13643">
        <ele>812.2</ele>
        <time>2021-06-03T05:53:32Z</time>
      </trkpt>
      <trkpt lat="41.76778" lon="9.13644">
        <ele>812.2</ele>
        <time>2021-06-03T05:53:33Z</time>
      </trkpt>
      <trkpt lat="41.76784" lon="9.13644">
        <ele>812.2</ele>
        <time>2021-06-03T05:53:34Z</time>
      </trkpt>
      <trkpt lat="41.76791" lon="9.13644">
        <ele>811.2</ele>
        <time>2021-06-03T05:53:35Z</time>
      </trkpt>
      <trkpt lat="41.76798" lon="9.13644">
        <ele>809</ele>
        <time>2021-06-03T05:53:36Z</time>
      </trkpt>
      <trkpt lat="41.76806" lon="9.13644">
        <ele>809</ele>
        <time>2021-06-03T05:53:37Z</time>
      </trkpt>
      <trkpt lat="41.76814" lon="9.13645">
        <ele>809</ele>
        <time>2021-06-03T05:53:38Z</time>
      </trkpt>
      <trkpt lat="41.76823" lon="9.13645">
        <ele>808</ele>
        <time>2021-06-03T05:53:39Z</time>
      </trkpt>
      <trkpt lat="41.76832" lon="9.13645">
        <ele>805.4</ele>
        <time>2021-06-03T05:53:40Z</time>
      </trkpt>
      <trkpt lat="41.76841" lon="9.13646">
        <ele>805.4</ele>
        <time>2021-06-03T05:53:41Z</time>
      </trkpt>
      <trkpt lat="41.76849" lon="9.13646">
        <ele>805.4</ele>
        <time>2021-06-03T05:53:42Z</time>
      </trkpt>
      <trkpt lat="41.76858" lon="9.13647">
        <ele>804.4</ele>
        <time>2021-06-03T05:53:43Z</time>
      </trkpt>
      <trkpt lat="41.76868" lon="9.13648">
        <ele>803</ele>
        <time>2021-06-03T05:53:44Z</time>
      </trkpt>
      <trkpt lat="41.76876" lon="9.13648">
        <ele>803</ele>
        <time>2021-06-03T05:53:45Z</time>
      </trkpt>
      <trkpt lat="41.76885" lon="9.13648">
        <ele>803</ele>
        <time>2021-06-03T05:53:46Z</time>
      </trkpt>
      <trkpt lat="41.76895" lon="9.13647">
        <ele>802</ele>
        <time>2021-06-03T05:53:47Z</time>
      </trkpt>
      <trkpt lat="41.76905" lon="9.13645">
        <ele>800.6</ele>
        <time>2021-06-03T05:53:48Z</time>
      </trkpt>
      <trkpt lat="41.76914" lon="9.13641">
        <ele>800.6</ele>
        <time>2021-06-03T05:53:49Z</time>
      </trkpt>
      <trkpt lat="41.76923" lon="9.13636">
        <ele>800.6</ele>
        <time>2021-06-03T05:53:50Z</time>
      </trkpt>
      <trkpt lat="41.7693" lon="9.1363">
        <ele>801.6</ele>
        <time>2021-06-03T05:53:51Z</time>
      </trkpt>
      <trkpt lat="41.76937" lon="9.13622">
        <ele>802.6</ele>
        <time>2021-06-03T05:53:52Z</time>
      </trkpt>
      <trkpt lat="41.76944" lon="9.13615">
        <ele>802.6</ele>
        <time>2021-06-03T05:53:53Z</time>
      </trkpt>
      <trkpt lat="41.7695" lon="9.13609">
        <ele>802.6</ele>
        <time>2021-06-03T05:53:54Z</time>
      </trkpt>
      <trkpt lat="41.76955" lon="9.13603">
        <ele>803.6</ele>
        <time>2021-06-03T05:53:55Z</time>
      </trkpt>
      <trkpt lat="41.7696" lon="9.13597">
        <ele>806</ele>
        <time>2021-06-03T05:53:56Z</time>
      </trkpt>
      <trkpt lat="41.76965" lon="9.13592">
        <ele>806</ele>
        <time>2021-06-03T05:53:57Z</time>
      </trkpt>
      <trkpt lat="41.76969" lon="9.13588">
        <ele>806</ele>
        <time>2021-06-03T05:53:58Z</time>
      </trkpt>
      <trkpt lat="41.76972" lon="9.13584">
        <ele>807</ele>
        <time>2021-06-03T05:53:59Z</time>
      </trkpt>
      <trkpt lat="41.76976" lon="9.13581">
        <ele>807.2</ele>
        <time>2021-06-03T05:54:00Z</time>
      </trkpt>
      <trkpt lat="41.76979" lon="9.13577">
        <ele>807.2</ele>
        <time>2021-06-03T05:54:01Z</time>
      </trkpt>
      <trkpt lat="41.76982" lon="9.13574">
        <ele>807.2</ele>
        <time>2021-06-03T05:54:02Z</time>
      </trkpt>
      <trkpt lat="41.76985" lon="9.13571">
        <ele>807.6</ele>
        <time>2021-06-03T05:54:03Z</time>
      </trkpt>
      <trkpt lat="41.76987" lon="9.13568">
        <ele>808.4</ele>
        <time>2021-06-03T05:54:04Z</time>
      </trkpt>
      <trkpt lat="41.7699" lon="9.13565">
        <ele>808.4</ele>
        <time>2021-06-03T05:54:05Z</time>
      </trkpt>
      <trkpt lat="41.76992" lon="9.13562">
        <ele>808.4</ele>
        <time>2021-06-03T05:54:06Z</time>
      </trkpt>
      <trkpt lat="41.76994" lon="9.1356">
        <ele>808.8</ele>
        <time>2021-06-03T05:54:07Z</time>
      </trkpt>
      <trkpt lat="41.76996" lon="9.13557">
        <ele>809.4</ele>
        <time>2021-06-03T05:54:08Z</time>
      </trkpt>
      <trkpt lat="41.76998" lon="9.13555">
        <ele>809.4</ele>
        <time>2021-06-03T05:54:09Z</time>
      </trkpt>
      <trkpt lat="41.77" lon="9.13552">
        <ele>809.4</ele>
        <time>2021-06-03T05:54:10Z</time>
      </trkpt>
      <trkpt lat="41.77002" lon="9.1355">
        <ele>809</ele>
        <time>2021-06-03T05:54:11Z</time>
      </trkpt>
      <trkpt lat="41.77004" lon="9.13548">
        <ele>809.2</ele>
        <time>2021-06-03T05:54:12Z</time>
      </trkpt>
      <trkpt lat="41.77006" lon="9.13546">
        <ele>809.2</ele>
        <time>2021-06-03T05:54:13Z</time>
      </trkpt>
      <trkpt lat="41.77007" lon="9.13544">
        <ele>809.2</ele>
        <time>2021-06-03T05:54:14Z</time>
      </trkpt>
      <trkpt lat="41.77009" lon="9.13543">
        <ele>809.6</ele>
        <time>2021-06-03T05:54:15Z</time>
      </trkpt>
      <trkpt lat="41.7701" lon="9.13541">
        <ele>810.4</ele>
        <time>2021-06-03T05:54:16Z</time>
      </trkpt>
      <trkpt lat="41.77012" lon="9.13539">
        <ele>810.4</ele>
        <time>2021-06-03T05:54:17Z</time>
      </trkpt>
      <trkpt lat="41.77013" lon="9.13538">
        <ele>810.4</ele>
        <time>2021-06-03T05:54:18Z</time>
      </trkpt>
      <trkpt lat="41.77014" lon="9.13536">
        <ele>810.4</ele>
        <time>2021-06-03T05:54:19Z</time>
      </trkpt>
      <trkpt lat="41.77016" lon="9.13534">
        <ele>811.6</ele>
        <time>2021-06-03T05:54:20Z</time>
      </trkpt>
      <trkpt lat="41.77017" lon="9.13533">
        <ele>811.6</ele>
        <time>2021-06-03T05:54:21Z</time>
      </trkpt>
      <trkpt lat="41.77018" lon="9.13531">
        <ele>811.6</ele>
        <time>2021-06-03T05:54:22Z</time>
      </trkpt>
      <trkpt lat="41.7702" lon="9.1353">
        <ele>811.6</ele>
        <time>2021-06-03T05:54:23Z</time>
      </trkpt>
      <trkpt lat="41.77021" lon="9.13528">
        <ele>811.4</ele>
        <time>2021-06-03T05:54:24Z</time>
      </trkpt>
      <trkpt lat="41.77022" lon="9.13527">
        <ele>811.4</ele>
        <time>2021-06-03T05:54:25Z</time>
      </trkpt>
      <trkpt lat="41.77023" lon="9.13525">
        <ele>811.4</ele>
        <time>2021-06-03T05:54:26Z</time>
      </trkpt>
      <trkpt lat="41.77025" lon="9.13524">
        <ele>812.4</ele>
        <time>2021-06-03T05:54:27Z</time>
      </trkpt>
      <trkpt lat="41.77026" lon="9.13522">
        <ele>812.2</ele>
        <time>2021-06-03T05:54:28Z</time>
      </trkpt>
      <trkpt lat="41.77027" lon="9.13521">
        <ele>812.2</ele>
        <time>2021-06-03T05:54:29Z</time>
      </trkpt>
      <trkpt lat="41.77028" lon="9.1352">
        <ele>812.2</ele>
        <time>2021-06-03T05:54:30Z</time>
      </trkpt>
      <trkpt lat="41.77029" lon="9.13518">
        <ele>813.2</ele>
        <time>2021-06-03T05:54:31Z</time>
      </trkpt>
      <trkpt lat="41.77031" lon="9.13517">
        <ele>813</ele>
        <time>2021-06-03T05:54:32Z</time>
      </trkpt>
      <trkpt lat="41.77032" lon="9.13515">
        <ele>813</ele>
        <time>2021-06-03T05:54:33Z</time>
      </trkpt>
      <trkpt lat="41.77033" lon="9.13514">
        <ele>813</ele>
        <time>2021-06-03T05:54:34Z</time>
      </trkpt>
      <trkpt lat="41.77034" lon="9.13512">
        <ele>814</ele>
        <time>2021-06-03T05:54:35Z</time>
      </trkpt>
      <trkpt lat="41.77036" lon="9.13511">
        <ele>814</ele>
        <time>2021-06-03T05:54:36Z</time>
      </trkpt>
      <trkpt lat="41.77037" lon="9.1351">
        <ele>814</ele>
        <time>2021-06-03T05:54:37Z</time>
      </trkpt>
      <trkpt lat="41.77038" lon="9.13508">
        <ele>814</ele>
        <time>2021-06-03T05:54:38Z</time>
      </trkpt>
      <trkpt lat="41.77039" lon="9.13507">
        <ele>814</ele>
        <time>2021-06-03T05:54:39Z</time>
      </trkpt>
      <trkpt lat="41.7704" lon="9.13506">
        <ele>815</ele>
        <time>2021-06-03T05:54:40Z</time>
      </trkpt>
      <trkpt lat="41.77042" lon="9.13504">
        <ele>815</ele>
        <time>2021-06-03T05:54:41Z</time>
      </trkpt>
      <trkpt lat="41.77043" lon="9.13503">
        <ele>815</ele>
        <time>2021-06-03T05:54:42Z</time>
      </trkpt>
      <trkpt lat="41.77044" lon="9.13501">
        <ele>815</ele>
        <time>2021-06-03T05:54:43Z</time>
      </trkpt>
      <trkpt lat="41.77045" lon="9.135">
        <ele>815.6</ele>
        <time>2021-06-03T05:54:44Z</time>
      </trkpt>
      <trkpt lat="41.77046" lon="9.13498">
        <ele>815.6</ele>
        <time>2021-06-03T05:54:45Z</time>
      </trkpt>
      <trkpt lat="41.77047" lon="9.13497">
        <ele>815.6</ele>
        <time>2021-06-03T05:54:46Z</time>
      </trkpt>
      <trkpt lat="41.77048" lon="9.13495">
        <ele>815.8</ele>
        <time>2021-06-03T05:54:47Z</time>
      </trkpt>
      <trkpt lat="41.77049" lon="9.13494">
        <ele>815.8</ele>
        <time>2021-06-03T05:54:48Z</time>
      </trkpt>
      <trkpt lat="41.77051" lon="9.13492">
        <ele>815.8</ele>
        <time>2021-06-03T05:54:49Z</time>
      </trkpt>
      <trkpt lat="41.77052" lon="9.1349">
        <ele>815.8</ele>
        <time>2021-06-03T05:54:50Z</time>
      </trkpt>
      <trkpt lat="41.77053" lon="9.13489">
        <ele>816</ele>
        <time>2021-06-03T05:54:51Z</time>
      </trkpt>
      <trkpt lat="41.77054" lon="9.13487">
        <ele>816.6</ele>
        <time>2021-06-03T05:54:52Z</time>
      </trkpt>
      <trkpt lat="41.77055" lon="9.13486">
        <ele>816.6</ele>
        <time>2021-06-03T05:54:53Z</time>
      </trkpt>
      <trkpt lat="41.77056" lon="9.13484">
        <ele>816.6</ele>
        <time>2021-06-03T05:54:54Z</time>
      </trkpt>
      <trkpt lat="41.77057" lon="9.13483">
        <ele>816.6</ele>
        <time>2021-06-03T05:54:55Z</time>
      </trkpt>
      <trkpt lat="41.77059" lon="9.13481">
        <ele>817</ele>
        <time>2021-06-03T05:54:56Z</time>
      </trkpt>
      <trkpt lat="41.7706" lon="9.13479">
        <ele>817</ele>
        <time>2021-06-03T05:54:57Z</time>
      </trkpt>
      <trkpt lat="41.77061" lon="9.13478">
        <ele>817</ele>
        <time>2021-06-03T05:54:58Z</time>
      </trkpt>
      <trkpt lat="41.77063" lon="9.13476">
        <ele>817</ele>
        <time>2021-06-03T05:54:59Z</time>
      </trkpt>
      <trkpt lat="41.77064" lon="9.13475">
        <ele>816.8</ele>
        <time>2021-06-03T05:55:00Z</time>
      </trkpt>
      <trkpt lat="41.77065" lon="9.13473">
        <ele>816.8</ele>
        <time>2021-06-03T05:55:01Z</time>
      </trkpt>
      <trkpt lat="41.77066" lon="9.13471">
        <ele>816.8</ele>
        <time>2021-06-03T05:55:02Z</time>
      </trkpt>
      <trkpt lat="41.77068" lon="9.1347">
        <ele>817.8</ele>
        <time>2021-06-03T05:55:03Z</time>
      </trkpt>
      <trkpt lat="41.77069" lon="9.13468">
        <ele>817.8</ele>
        <time>2021-06-03T05:55:04Z</time>
      </trkpt>
      <trkpt lat="41.7707" lon="9.13467">
        <ele>817.8</ele>
        <time>2021-06-03T05:55:05Z</time>
      </trkpt>
      <trkpt lat="41.77071" lon="9.13465">
        <ele>817.8</ele>
        <time>2021-06-03T05:55:06Z</time>
      </trkpt>
      <trkpt lat="41.77073" lon="9.13464">
        <ele>818</ele>
        <time>2021-06-03T05:55:07Z</time>
      </trkpt>
      <trkpt lat="41.77074" lon="9.13462">
        <ele>818</ele>
        <time>2021-06-03T05:55:08Z</time>
      </trkpt>
      <trkpt lat="41.77075" lon="9.13461">
        <ele>818</ele>
        <time>2021-06-03T05:55:09Z</time>
      </trkpt>
      <trkpt lat="41.77077" lon="9.13459">
        <ele>818</ele>
        <time>2021-06-03T05:55:10Z</time>
      </trkpt>
      <trkpt lat="41.77078" lon="9.13458">
        <ele>818</ele>
        <time>2021-06-03T05:55:11Z</time>
      </trkpt>
      <trkpt lat="41.7708" lon="9.13457">
        <ele>817.8</ele>
        <time>2021-06-03T05:55:12Z</time>
      </trkpt>
      <trkpt lat="41.77082" lon="9.13456">
        <ele>817.8</ele>
        <time>2021-06-03T05:55:13Z</time>
      </trkpt>
      <trkpt lat="41.77083" lon="9.13455">
        <ele>817.8</ele>
        <time>2021-06-03T05:55:14Z</time>
      </trkpt>
      <trkpt lat="41.77085" lon="9.13453">
        <ele>818.2</ele>
        <time>2021-06-03T05:55:15Z</time>
      </trkpt>
      <trkpt lat="41.77087" lon="9.13452">
        <ele>818</ele>
        <time>2021-06-03T05:55:16Z</time>
      </trkpt>
      <trkpt lat="41.77088" lon="9.13451">
        <ele>818</ele>
        <time>2021-06-03T05:55:17Z</time>
      </trkpt>
      <trkpt lat="41.7709" lon="9.13449">
        <ele>818</ele>
        <time>2021-06-03T05:55:18Z</time>
      </trkpt>
      <trkpt lat="41.77092" lon="9.13448">
        <ele>818.2</ele>
        <time>2021-06-03T05:55:19Z</time>
      </trkpt>
      <trkpt lat="41.77094" lon="9.13446">
        <ele>818.2</ele>
        <time>2021-06-03T05:55:20Z</time>
      </trkpt>
      <trkpt lat="41.77096" lon="9.13444">
        <ele>818.2</ele>
        <time>2021-06-03T05:55:21Z</time>
      </trkpt>
      <trkpt lat="41.77097" lon="9.13442">
        <ele>818.2</ele>
        <time>2021-06-03T05:55:22Z</time>
      </trkpt>
      <trkpt lat="41.771" lon="9.13441">
        <ele>818.2</ele>
        <time>2021-06-03T05:55:23Z</time>
      </trkpt>
      <trkpt lat="41.77102" lon="9.13439">
        <ele>817.8</ele>
        <time>2021-06-03T05:55:24Z</time>
      </trkpt>
      <trkpt lat="41.77105" lon="9.13438">
        <ele>817.8</ele>
        <time>2021-06-03T05:55:25Z</time>
      </trkpt>
      <trkpt lat="41.77107" lon="9.13436">
        <ele>817.8</ele>
        <time>2021-06-03T05:55:26Z</time>
      </trkpt>
      <trkpt lat="41.7711" lon="9.13435">
        <ele>817.4</ele>
        <time>2021-06-03T05:55:27Z</time>
      </trkpt>
      <trkpt lat="41.77113" lon="9.13434">
        <ele>817.4</ele>
        <time>2021-06-03T05:55:28Z</time>
      </trkpt>
      <trkpt lat="41.77116" lon="9.13433">
        <ele>817.4</ele>
        <time>2021-06-03T05:55:29Z</time>
      </trkpt>
      <trkpt lat="41.77119" lon="9.13431">
        <ele>817.4</ele>
        <time>2021-06-03T05:55:30Z</time>
      </trkpt>
      <trkpt lat="41.77122" lon="9.13429">
        <ele>817.2</ele>
        <time>2021-06-03T05:55:31Z</time>
      </trkpt>
      <trkpt lat="41.77125" lon="9.13428">
        <ele>817.4</ele>
        <time>2021-06-03T05:55:32Z</time>
      </trkpt>
      <trkpt lat="41.77128" lon="9.13426">
        <ele>817.4</ele>
        <time>2021-06-03T05:55:33Z</time>
      </trkpt>
      <trkpt lat="41.77131" lon="9.13424">
        <ele>817.4</ele>
        <time>2021-06-03T05:55:34Z</time>
      </trkpt>
      <trkpt lat="41.77133" lon="9.13423">
        <ele>817.4</ele>
        <time>2021-06-03T05:55:35Z</time>
      </trkpt>
      <trkpt lat="41.77135" lon="9.13422">
        <ele>818.2</ele>
        <time>2021-06-03T05:55:36Z</time>
      </trkpt>
      <trkpt lat="41.77137" lon="9.1342">
        <ele>818.2</ele>
        <time>2021-06-03T05:55:37Z</time>
      </trkpt>
      <trkpt lat="41.77139" lon="9.13419">
        <ele>818.2</ele>
        <time>2021-06-03T05:55:38Z</time>
      </trkpt>
      <trkpt lat="41.7714" lon="9.13419">
        <ele>818.4</ele>
        <time>2021-06-03T05:55:39Z</time>
      </trkpt>
      <trkpt lat="41.77142" lon="9.13418">
        <ele>818.8</ele>
        <time>2021-06-03T05:55:40Z</time>
      </trkpt>
      <trkpt lat="41.77143" lon="9.13417">
        <ele>818.8</ele>
        <time>2021-06-03T05:55:41Z</time>
      </trkpt>
      <trkpt lat="41.77144" lon="9.13417">
        <ele>818.8</ele>
        <time>2021-06-03T05:55:42Z</time>
      </trkpt>
      <trkpt lat="41.77146" lon="9.13417">
        <ele>818.8</ele>
        <time>2021-06-03T05:55:43Z</time>
      </trkpt>
      <trkpt lat="41.77147" lon="9.13417">
        <ele>819.4</ele>
        <time>2021-06-03T05:55:44Z</time>
      </trkpt>
      <trkpt lat="41.77149" lon="9.13417">
        <ele>819.4</ele>
        <time>2021-06-03T05:55:45Z</time>
      </trkpt>
      <trkpt lat="41.7715" lon="9.13417">
        <ele>819.4</ele>
        <time>2021-06-03T05:55:46Z</time>
      </trkpt>
      <trkpt lat="41.77152" lon="9.13417">
        <ele>819.4</ele>
        <time>2021-06-03T05:55:47Z</time>
      </trkpt>
      <trkpt lat="41.77153" lon="9.13417">
        <ele>819.8</ele>
        <time>2021-06-03T05:55:48Z</time>
      </trkpt>
      <trkpt lat="41.77155" lon="9.13417">
        <ele>819.8</ele>
        <time>2021-06-03T05:55:49Z</time>
      </trkpt>
      <trkpt lat="41.77156" lon="9.13417">
        <ele>819.8</ele>
        <time>2021-06-03T05:55:50Z</time>
      </trkpt>
      <trkpt lat="41.77157" lon="9.13417">
        <ele>820.2</ele>
        <time>2021-06-03T05:55:51Z</time>
      </trkpt>
      <trkpt lat="41.77159" lon="9.13416">
        <ele>820.6</ele>
        <time>2021-06-03T05:55:52Z</time>
      </trkpt>
      <trkpt lat="41.7716" lon="9.13416">
        <ele>820.6</ele>
        <time>2021-06-03T05:55:53Z</time>
      </trkpt>
      <trkpt lat="41.77161" lon="9.13416">
        <ele>820.6</ele>
        <time>2021-06-03T05:55:54Z</time>
      </trkpt>
      <trkpt lat="41.77162" lon="9.13415">
        <ele>820.6</ele>
        <time>2021-06-03T05:55:55Z</time>
      </trkpt>
      <trkpt lat="41.77164" lon="9.13415">
        <ele>821</ele>
        <time>2021-06-03T05:55:56Z</time>
      </trkpt>
      <trkpt lat="41.77165" lon="9.13414">
        <ele>821</ele>
        <time>2021-06-03T05:55:57Z</time>
      </trkpt>
      <trkpt lat="41.77167" lon="9.13414">
        <ele>821</ele>
        <time>2021-06-03T05:55:58Z</time>
      </trkpt>
      <trkpt lat="41.77168" lon="9.13414">
        <ele>821</ele>
        <time>2021-06-03T05:55:59Z</time>
      </trkpt>
      <trkpt lat="41.7717" lon="9.13414">
        <ele>821.4</ele>
        <time>2021-06-03T05:56:00Z</time>
      </trkpt>
      <trkpt lat="41.77171" lon="9.13414">
        <ele>821.4</ele>
        <time>2021-06-03T05:56:01Z</time>
      </trkpt>
      <trkpt lat="41.77172" lon="9.13414">
        <ele>821.4</ele>
        <time>2021-06-03T05:56:02Z</time>
      </trkpt>
      <trkpt lat="41.77174" lon="9.13413">
        <ele>821.4</ele>
        <time>2021-06-03T05:56:03Z</time>
      </trkpt>
      <trkpt lat="41.77175" lon="9.13412">
        <ele>822.2</ele>
        <time>2021-06-03T05:56:04Z</time>
      </trkpt>
      <trkpt lat="41.77176" lon="9.13412">
        <ele>822.2</ele>
        <time>2021-06-03T05:56:05Z</time>
      </trkpt>
      <trkpt lat="41.77178" lon="9.13411">
        <ele>822.2</ele>
        <time>2021-06-03T05:56:06Z</time>
      </trkpt>
      <trkpt lat="41.77179" lon="9.13411">
        <ele>822.2</ele>
        <time>2021-06-03T05:56:07Z</time>
      </trkpt>
      <trkpt lat="41.77181" lon="9.1341">
        <ele>822.6</ele>
        <time>2021-06-03T05:56:08Z</time>
      </trkpt>
      <trkpt lat="41.77182" lon="9.1341">
        <ele>822.6</ele>
        <time>2021-06-03T05:56:09Z</time>
      </trkpt>
      <trkpt lat="41.77184" lon="9.13409">
        <ele>822.6</ele>
        <time>2021-06-03T05:56:10Z</time>
      </trkpt>
      <trkpt lat="41.77185" lon="9.13409">
        <ele>823.4</ele>
        <time>2021-06-03T05:56:11Z</time>
      </trkpt>
      <trkpt lat="41.77186" lon="9.13408">
        <ele>823.4</ele>
        <time>2021-06-03T05:56:12Z</time>
      </trkpt>
      <trkpt lat="41.77188" lon="9.13408">
        <ele>823.4</ele>
        <time>2021-06-03T05:56:13Z</time>
      </trkpt>
      <trkpt lat="41.77189" lon="9.13407">
        <ele>823.4</ele>
        <time>2021-06-03T05:56:14Z</time>
      </trkpt>
      <trkpt lat="41.77191" lon="9.13407">
        <ele>823.4</ele>
        <time>2021-06-03T05:56:15Z</time>
      </trkpt>
      <trkpt lat="41.77193" lon="9.13406">
        <ele>823.8</ele>
        <time>2021-06-03T05:56:16Z</time>
      </trkpt>
      <trkpt lat="41.77195" lon="9.13406">
        <ele>823.8</ele>
        <time>2021-06-03T05:56:17Z</time>
      </trkpt>
      <trkpt lat="41.77196" lon="9.13405">
        <ele>823.8</ele>
        <time>2021-06-03T05:56:18Z</time>
      </trkpt>
      <trkpt lat="41.77197" lon="9.13405">
        <ele>824.6</ele>
        <time>2021-06-03T05:56:19Z</time>
      </trkpt>
      <trkpt lat="41.77199" lon="9.13405">
        <ele>824.6</ele>
        <time>2021-06-03T05:56:20Z</time>
      </trkpt>
      <trkpt lat="41.772" lon="9.13404">
        <ele>824.6</ele>
        <time>2021-06-03T05:56:21Z</time>
      </trkpt>
      <trkpt lat="41.77201" lon="9.13404">
        <ele>824.6</ele>
        <time>2021-06-03T05:56:22Z</time>
      </trkpt>
      <trkpt lat="41.77203" lon="9.13405">
        <ele>825.2</ele>
        <time>2021-06-03T05:56:23Z</time>
      </trkpt>
      <trkpt lat="41.77205" lon="9.13405">
        <ele>825</ele>
        <time>2021-06-03T05:56:24Z</time>
      </trkpt>
      <trkpt lat="41.77206" lon="9.13405">
        <ele>825</ele>
        <time>2021-06-03T05:56:25Z</time>
      </trkpt>
      <trkpt lat="41.77208" lon="9.13405">
        <ele>825</ele>
        <time>2021-06-03T05:56:26Z</time>
      </trkpt>
      <trkpt lat="41.77209" lon="9.13406">
        <ele>825.4</ele>
        <time>2021-06-03T05:56:27Z</time>
      </trkpt>
      <trkpt lat="41.7721" lon="9.13406">
        <ele>825.4</ele>
        <time>2021-06-03T05:56:28Z</time>
      </trkpt>
      <trkpt lat="41.77212" lon="9.13406">
        <ele>825.4</ele>
        <time>2021-06-03T05:56:29Z</time>
      </trkpt>
      <trkpt lat="41.77214" lon="9.13406">
        <ele>825.4</ele>
        <time>2021-06-03T05:56:30Z</time>
      </trkpt>
      <trkpt lat="41.77215" lon="9.13406">
        <ele>825.6</ele>
        <time>2021-06-03T05:56:31Z</time>
      </trkpt>
      <trkpt lat="41.77216" lon="9.13406">
        <ele>825.8</ele>
        <time>2021-06-03T05:56:32Z</time>
      </trkpt>
      <trkpt lat="41.77218" lon="9.13406">
        <ele>825.8</ele>
        <time>2021-06-03T05:56:33Z</time>
      </trkpt>
      <trkpt lat="41.7722" lon="9.13406">
        <ele>825.8</ele>
        <time>2021-06-03T05:56:34Z</time>
      </trkpt>
      <trkpt lat="41.77222" lon="9.13405">
        <ele>826.2</ele>
        <time>2021-06-03T05:56:35Z</time>
      </trkpt>
      <trkpt lat="41.77224" lon="9.13405">
        <ele>826.4</ele>
        <time>2021-06-03T05:56:36Z</time>
      </trkpt>
      <trkpt lat="41.77226" lon="9.13405">
        <ele>826.4</ele>
        <time>2021-06-03T05:56:37Z</time>
      </trkpt>
      <trkpt lat="41.77227" lon="9.13405">
        <ele>826.4</ele>
        <time>2021-06-03T05:56:38Z</time>
      </trkpt>
      <trkpt lat="41.77229" lon="9.13405">
        <ele>826.4</ele>
        <time>2021-06-03T05:56:39Z</time>
      </trkpt>
      <trkpt lat="41.7723" lon="9.13406">
        <ele>826.8</ele>
        <time>2021-06-03T05:56:40Z</time>
      </trkpt>
      <trkpt lat="41.77232" lon="9.13406">
        <ele>826.8</ele>
        <time>2021-06-03T05:56:41Z</time>
      </trkpt>
      <trkpt lat="41.77234" lon="9.13406">
        <ele>826.8</ele>
        <time>2021-06-03T05:56:42Z</time>
      </trkpt>
      <trkpt lat="41.77236" lon="9.13406">
        <ele>826.6</ele>
        <time>2021-06-03T05:56:43Z</time>
      </trkpt>
      <trkpt lat="41.77238" lon="9.13406">
        <ele>826.8</ele>
        <time>2021-06-03T05:56:44Z</time>
      </trkpt>
      <trkpt lat="41.77239" lon="9.13406">
        <ele>826.8</ele>
        <time>2021-06-03T05:56:45Z</time>
      </trkpt>
      <trkpt lat="41.77241" lon="9.13405">
        <ele>826.8</ele>
        <time>2021-06-03T05:56:46Z</time>
      </trkpt>
      <trkpt lat="41.77243" lon="9.13405">
        <ele>827</ele>
        <time>2021-06-03T05:56:47Z</time>
      </trkpt>
      <trkpt lat="41.77245" lon="9.13404">
        <ele>827.4</ele>
        <time>2021-06-03T05:56:48Z</time>
      </trkpt>
      <trkpt lat="41.77246" lon="9.13403">
        <ele>827.4</ele>
        <time>2021-06-03T05:56:49Z</time>
      </trkpt>
      <trkpt lat="41.77248" lon="9.13403">
        <ele>827.4</ele>
        <time>2021-06-03T05:56:50Z</time>
      </trkpt>
      <trkpt lat="41.77249" lon="9.13402">
        <ele>827.4</ele>
        <time>2021-06-03T05:56:51Z</time>
      </trkpt>
      <trkpt lat="41.77251" lon="9.13401">
        <ele>827.4</ele>
        <time>2021-06-03T05:56:52Z</time>
      </trkpt>
      <trkpt lat="41.77252" lon="9.13399">
        <ele>827.4</ele>
        <time>2021-06-03T05:56:53Z</time>
      </trkpt>
      <trkpt lat="41.77253" lon="9.13399">
        <ele>827.4</ele>
        <time>2021-06-03T05:56:54Z</time>
      </trkpt>
      <trkpt lat="41.77255" lon="9.13398">
        <ele>827.8</ele>
        <time>2021-06-03T05:56:55Z</time>
      </trkpt>
      <trkpt lat="41.77256" lon="9.13397">
        <ele>827.6</ele>
        <time>2021-06-03T05:56:56Z</time>
      </trkpt>
      <trkpt lat="41.77257" lon="9.13395">
        <ele>827.6</ele>
        <time>2021-06-03T05:56:57Z</time>
      </trkpt>
      <trkpt lat="41.77259" lon="9.13392">
        <ele>827.6</ele>
        <time>2021-06-03T05:56:58Z</time>
      </trkpt>
      <trkpt lat="41.7726" lon="9.1339">
        <ele>828</ele>
        <time>2021-06-03T05:56:59Z</time>
      </trkpt>
      <trkpt lat="41.77261" lon="9.13388">
        <ele>828.6</ele>
        <time>2021-06-03T05:57:00Z</time>
      </trkpt>
      <trkpt lat="41.77263" lon="9.13386">
        <ele>828.6</ele>
        <time>2021-06-03T05:57:01Z</time>
      </trkpt>
      <trkpt lat="41.77264" lon="9.13384">
        <ele>828.6</ele>
        <time>2021-06-03T05:57:02Z</time>
      </trkpt>
      <trkpt lat="41.77266" lon="9.13382">
        <ele>828.6</ele>
        <time>2021-06-03T05:57:03Z</time>
      </trkpt>
      <trkpt lat="41.77267" lon="9.1338">
        <ele>829</ele>
        <time>2021-06-03T05:57:04Z</time>
      </trkpt>
      <trkpt lat="41.77268" lon="9.13378">
        <ele>829</ele>
        <time>2021-06-03T05:57:05Z</time>
      </trkpt>
      <trkpt lat="41.7727" lon="9.13376">
        <ele>829</ele>
        <time>2021-06-03T05:57:06Z</time>
      </trkpt>
      <trkpt lat="41.77271" lon="9.13374">
        <ele>829.4</ele>
        <time>2021-06-03T05:57:07Z</time>
      </trkpt>
      <trkpt lat="41.77272" lon="9.13372">
        <ele>829.2</ele>
        <time>2021-06-03T05:57:08Z</time>
      </trkpt>
      <trkpt lat="41.77273" lon="9.13371">
        <ele>829.2</ele>
        <time>2021-06-03T05:57:09Z</time>
      </trkpt>
      <trkpt lat="41.77275" lon="9.1337">
        <ele>829.2</ele>
        <time>2021-06-03T05:57:10Z</time>
      </trkpt>
      <trkpt lat="41.77276" lon="9.13369">
        <ele>829.8</ele>
        <time>2021-06-03T05:57:11Z</time>
      </trkpt>
      <trkpt lat="41.77278" lon="9.13368">
        <ele>830</ele>
        <time>2021-06-03T05:57:12Z</time>
      </trkpt>
      <trkpt lat="41.77279" lon="9.13367">
        <ele>830</ele>
        <time>2021-06-03T05:57:13Z</time>
      </trkpt>
      <trkpt lat="41.77281" lon="9.13367">
        <ele>830</ele>
        <time>2021-06-03T05:57:14Z</time>
      </trkpt>
      <trkpt lat="41.77282" lon="9.13366">
        <ele>830</ele>
        <time>2021-06-03T05:57:15Z</time>
      </trkpt>
      <trkpt lat="41.77283" lon="9.13366">
        <ele>830.2</ele>
        <time>2021-06-03T05:57:16Z</time>
      </trkpt>
      <trkpt lat="41.77284" lon="9.13367">
        <ele>830.2</ele>
        <time>2021-06-03T05:57:17Z</time>
      </trkpt>
      <trkpt lat="41.77285" lon="9.13367">
        <ele>830.2</ele>
        <time>2021-06-03T05:57:18Z</time>
      </trkpt>
      <trkpt lat="41.77287" lon="9.13367">
        <ele>830.2</ele>
        <time>2021-06-03T05:57:19Z</time>
      </trkpt>
      <trkpt lat="41.77288" lon="9.13367">
        <ele>830.8</ele>
        <time>2021-06-03T05:57:20Z</time>
      </trkpt>
      <trkpt lat="41.77289" lon="9.13368">
        <ele>830.8</ele>
        <time>2021-06-03T05:57:21Z</time>
      </trkpt>
      <trkpt lat="41.77291" lon="9.13368">
        <ele>830.8</ele>
        <time>2021-06-03T05:57:22Z</time>
      </trkpt>
      <trkpt lat="41.77292" lon="9.13368">
        <ele>830.8</ele>
        <time>2021-06-03T05:57:23Z</time>
      </trkpt>
      <trkpt lat="41.77293" lon="9.13367">
        <ele>831.2</ele>
        <time>2021-06-03T05:57:24Z</time>
      </trkpt>
      <trkpt lat="41.77295" lon="9.13366">
        <ele>831.2</ele>
        <time>2021-06-03T05:57:25Z</time>
      </trkpt>
      <trkpt lat="41.77296" lon="9.13366">
        <ele>831.2</ele>
        <time>2021-06-03T05:57:26Z</time>
      </trkpt>
      <trkpt lat="41.77298" lon="9.13366">
        <ele>831.2</ele>
        <time>2021-06-03T05:57:27Z</time>
      </trkpt>
      <trkpt lat="41.77299" lon="9.13367">
        <ele>831</ele>
        <time>2021-06-03T05:57:28Z</time>
      </trkpt>
      <trkpt lat="41.773" lon="9.13368">
        <ele>831</ele>
        <time>2021-06-03T05:57:29Z</time>
      </trkpt>
      <trkpt lat="41.77303" lon="9.13367">
        <ele>831</ele>
        <time>2021-06-03T05:57:30Z</time>
      </trkpt>
      <trkpt lat="41.77304" lon="9.13367">
        <ele>831.6</ele>
        <time>2021-06-03T05:57:31Z</time>
      </trkpt>
      <trkpt lat="41.77306" lon="9.13367">
        <ele>831.4</ele>
        <time>2021-06-03T05:57:32Z</time>
      </trkpt>
      <trkpt lat="41.77307" lon="9.13369">
        <ele>831.4</ele>
        <time>2021-06-03T05:57:33Z</time>
      </trkpt>
      <trkpt lat="41.77308" lon="9.1337">
        <ele>831.4</ele>
        <time>2021-06-03T05:57:34Z</time>
      </trkpt>
      <trkpt lat="41.77309" lon="9.13372">
        <ele>832</ele>
        <time>2021-06-03T05:57:35Z</time>
      </trkpt>
      <trkpt lat="41.7731" lon="9.13374">
        <ele>831.6</ele>
        <time>2021-06-03T05:57:36Z</time>
      </trkpt>
      <trkpt lat="41.77311" lon="9.13376">
        <ele>831.6</ele>
        <time>2021-06-03T05:57:37Z</time>
      </trkpt>
      <trkpt lat="41.77312" lon="9.13378">
        <ele>831.6</ele>
        <time>2021-06-03T05:57:38Z</time>
      </trkpt>
      <trkpt lat="41.77313" lon="9.13379">
        <ele>832</ele>
        <time>2021-06-03T05:57:39Z</time>
      </trkpt>
      <trkpt lat="41.77313" lon="9.13381">
        <ele>831.8</ele>
        <time>2021-06-03T05:57:40Z</time>
      </trkpt>
      <trkpt lat="41.77315" lon="9.13382">
        <ele>831.8</ele>
        <time>2021-06-03T05:57:41Z</time>
      </trkpt>
      <trkpt lat="41.77315" lon="9.13383">
        <ele>831.8</ele>
        <time>2021-06-03T05:57:42Z</time>
      </trkpt>
      <trkpt lat="41.77316" lon="9.13384">
        <ele>832.6</ele>
        <time>2021-06-03T05:57:43Z</time>
      </trkpt>
      <trkpt lat="41.77317" lon="9.13384">
        <ele>832.6</ele>
        <time>2021-06-03T05:57:44Z</time>
      </trkpt>
      <trkpt lat="41.77318" lon="9.13385">
        <ele>832.6</ele>
        <time>2021-06-03T05:57:45Z</time>
      </trkpt>
      <trkpt lat="41.77319" lon="9.13386">
        <ele>832.6</ele>
        <time>2021-06-03T05:57:46Z</time>
      </trkpt>
      <trkpt lat="41.77321" lon="9.13386">
        <ele>833.4</ele>
        <time>2021-06-03T05:57:47Z</time>
      </trkpt>
      <trkpt lat="41.77322" lon="9.13386">
        <ele>833.6</ele>
        <time>2021-06-03T05:57:48Z</time>
      </trkpt>
      <trkpt lat="41.77324" lon="9.13387">
        <ele>833.6</ele>
        <time>2021-06-03T05:57:49Z</time>
      </trkpt>
      <trkpt lat="41.77325" lon="9.13388">
        <ele>833.6</ele>
        <time>2021-06-03T05:57:50Z</time>
      </trkpt>
      <trkpt lat="41.77327" lon="9.13389">
        <ele>833.6</ele>
        <time>2021-06-03T05:57:51Z</time>
      </trkpt>
      <trkpt lat="41.77328" lon="9.1339">
        <ele>833.8</ele>
        <time>2021-06-03T05:57:52Z</time>
      </trkpt>
      <trkpt lat="41.77329" lon="9.1339">
        <ele>833.8</ele>
        <time>2021-06-03T05:57:53Z</time>
      </trkpt>
      <trkpt lat="41.77331" lon="9.13391">
        <ele>833.8</ele>
        <time>2021-06-03T05:57:54Z</time>
      </trkpt>
      <trkpt lat="41.77332" lon="9.13391">
        <ele>834.4</ele>
        <time>2021-06-03T05:57:55Z</time>
      </trkpt>
      <trkpt lat="41.77334" lon="9.13392">
        <ele>834.8</ele>
        <time>2021-06-03T05:57:56Z</time>
      </trkpt>
      <trkpt lat="41.77336" lon="9.13393">
        <ele>834.8</ele>
        <time>2021-06-03T05:57:57Z</time>
      </trkpt>
      <trkpt lat="41.77337" lon="9.13393">
        <ele>834.8</ele>
        <time>2021-06-03T05:57:58Z</time>
      </trkpt>
      <trkpt lat="41.77339" lon="9.13394">
        <ele>834.8</ele>
        <time>2021-06-03T05:57:59Z</time>
      </trkpt>
      <trkpt lat="41.77341" lon="9.13395">
        <ele>835.2</ele>
        <time>2021-06-03T05:58:00Z</time>
      </trkpt>
      <trkpt lat="41.77343" lon="9.13395">
        <ele>835.2</ele>
        <time>2021-06-03T05:58:01Z</time>
      </trkpt>
      <trkpt lat="41.77345" lon="9.13395">
        <ele>835.2</ele>
        <time>2021-06-03T05:58:02Z</time>
      </trkpt>
      <trkpt lat="41.77347" lon="9.13395">
        <ele>835.2</ele>
        <time>2021-06-03T05:58:03Z</time>
      </trkpt>
      <trkpt lat="41.77349" lon="9.13395">
        <ele>835.4</ele>
        <time>2021-06-03T05:58:04Z</time>
      </trkpt>
      <trkpt lat="41.77351" lon="9.13395">
        <ele>835.4</ele>
        <time>2021-06-03T05:58:05Z</time>
      </trkpt>
      <trkpt lat="41.77353" lon="9.13396">
        <ele>835.4</ele>
        <time>2021-06-03T05:58:06Z</time>
      </trkpt>
      <trkpt lat="41.77356" lon="9.13396">
        <ele>835.4</ele>
        <time>2021-06-03T05:58:07Z</time>
      </trkpt>
      <trkpt lat="41.77358" lon="9.13397">
        <ele>835.4</ele>
        <time>2021-06-03T05:58:08Z</time>
      </trkpt>
      <trkpt lat="41.7736" lon="9.13397">
        <ele>835.4</ele>
        <time>2021-06-03T05:58:09Z</time>
      </trkpt>
      <trkpt lat="41.77362" lon="9.13398">
        <ele>835.4</ele>
        <time>2021-06-03T05:58:10Z</time>
      </trkpt>
      <trkpt lat="41.77364" lon="9.13399">
        <ele>835.4</ele>
        <time>2021-06-03T05:58:11Z</time>
      </trkpt>
      <trkpt lat="41.77365" lon="9.134">
        <ele>835.2</ele>
        <time>2021-06-03T05:58:12Z</time>
      </trkpt>
      <trkpt lat="41.77367" lon="9.134">
        <ele>835.2</ele>
        <time>2021-06-03T05:58:13Z</time>
      </trkpt>
      <trkpt lat="41.77369" lon="9.134">
        <ele>835.2</ele>
        <time>2021-06-03T05:58:14Z</time>
      </trkpt>
      <trkpt lat="41.77371" lon="9.134">
        <ele>835.4</ele>
        <time>2021-06-03T05:58:15Z</time>
      </trkpt>
      <trkpt lat="41.77373" lon="9.13401">
        <ele>835.6</ele>
        <time>2021-06-03T05:58:16Z</time>
      </trkpt>
      <trkpt lat="41.77374" lon="9.134">
        <ele>835.6</ele>
        <time>2021-06-03T05:58:17Z</time>
      </trkpt>
      <trkpt lat="41.77377" lon="9.134">
        <ele>835.6</ele>
        <time>2021-06-03T05:58:18Z</time>
      </trkpt>
      <trkpt lat="41.77379" lon="9.134">
        <ele>835.6</ele>
        <time>2021-06-03T05:58:19Z</time>
      </trkpt>
      <trkpt lat="41.77381" lon="9.134">
        <ele>835.6</ele>
        <time>2021-06-03T05:58:20Z</time>
      </trkpt>
      <trkpt lat="41.77383" lon="9.134">
        <ele>835.6</ele>
        <time>2021-06-03T05:58:21Z</time>
      </trkpt>
      <trkpt lat="41.77385" lon="9.134">
        <ele>835.6</ele>
        <time>2021-06-03T05:58:22Z</time>
      </trkpt>
      <trkpt lat="41.77387" lon="9.13401">
        <ele>835.6</ele>
        <time>2021-06-03T05:58:23Z</time>
      </trkpt>
      <trkpt lat="41.77388" lon="9.13402">
        <ele>835.8</ele>
        <time>2021-06-03T05:58:24Z</time>
      </trkpt>
      <trkpt lat="41.7739" lon="9.13403">
        <ele>835.8</ele>
        <time>2021-06-03T05:58:25Z</time>
      </trkpt>
      <trkpt lat="41.77392" lon="9.13404">
        <ele>835.8</ele>
        <time>2021-06-03T05:58:26Z</time>
      </trkpt>
      <trkpt lat="41.77395" lon="9.13404">
        <ele>835.8</ele>
        <time>2021-06-03T05:58:27Z</time>
      </trkpt>
      <trkpt lat="41.77396" lon="9.13405">
        <ele>836</ele>
        <time>2021-06-03T05:58:28Z</time>
      </trkpt>
      <trkpt lat="41.77399" lon="9.13405">
        <ele>836</ele>
        <time>2021-06-03T05:58:29Z</time>
      </trkpt>
      <trkpt lat="41.77401" lon="9.13406">
        <ele>836</ele>
        <time>2021-06-03T05:58:30Z</time>
      </trkpt>
      <trkpt lat="41.77403" lon="9.13407">
        <ele>836</ele>
        <time>2021-06-03T05:58:31Z</time>
      </trkpt>
      <trkpt lat="41.77404" lon="9.13408">
        <ele>835.6</ele>
        <time>2021-06-03T05:58:32Z</time>
      </trkpt>
      <trkpt lat="41.77406" lon="9.13409">
        <ele>835.6</ele>
        <time>2021-06-03T05:58:33Z</time>
      </trkpt>
      <trkpt lat="41.77407" lon="9.1341">
        <ele>835.6</ele>
        <time>2021-06-03T05:58:34Z</time>
      </trkpt>
      <trkpt lat="41.77408" lon="9.13411">
        <ele>835.6</ele>
        <time>2021-06-03T05:58:35Z</time>
      </trkpt>
      <trkpt lat="41.7741" lon="9.13412">
        <ele>835.8</ele>
        <time>2021-06-03T05:58:36Z</time>
      </trkpt>
      <trkpt lat="41.77413" lon="9.13413">
        <ele>835.8</ele>
        <time>2021-06-03T05:58:37Z</time>
      </trkpt>
      <trkpt lat="41.77415" lon="9.13414">
        <ele>835.8</ele>
        <time>2021-06-03T05:58:38Z</time>
      </trkpt>
      <trkpt lat="41.77418" lon="9.13415">
        <ele>836</ele>
        <time>2021-06-03T05:58:39Z</time>
      </trkpt>
      <trkpt lat="41.77421" lon="9.13416">
        <ele>836</ele>
        <time>2021-06-03T05:58:40Z</time>
      </trkpt>
      <trkpt lat="41.77423" lon="9.13417">
        <ele>836</ele>
        <time>2021-06-03T05:58:41Z</time>
      </trkpt>
      <trkpt lat="41.77425" lon="9.13418">
        <ele>836</ele>
        <time>2021-06-03T05:58:42Z</time>
      </trkpt>
      <trkpt lat="41.77426" lon="9.13419">
        <ele>836.4</ele>
        <time>2021-06-03T05:58:43Z</time>
      </trkpt>
      <trkpt lat="41.77428" lon="9.1342">
        <ele>836.8</ele>
        <time>2021-06-03T05:58:44Z</time>
      </trkpt>
      <trkpt lat="41.7743" lon="9.13421">
        <ele>836.8</ele>
        <time>2021-06-03T05:58:45Z</time>
      </trkpt>
      <trkpt lat="41.77431" lon="9.13422">
        <ele>836.8</ele>
        <time>2021-06-03T05:58:46Z</time>
      </trkpt>
      <trkpt lat="41.77434" lon="9.13423">
        <ele>836.8</ele>
        <time>2021-06-03T05:58:47Z</time>
      </trkpt>
      <trkpt lat="41.77435" lon="9.13424">
        <ele>837</ele>
        <time>2021-06-03T05:58:48Z</time>
      </trkpt>
      <trkpt lat="41.77437" lon="9.13424">
        <ele>837</ele>
        <time>2021-06-03T05:58:49Z</time>
      </trkpt>
      <trkpt lat="41.77438" lon="9.13424">
        <ele>837</ele>
        <time>2021-06-03T05:58:50Z</time>
      </trkpt>
      <trkpt lat="41.77441" lon="9.13424">
        <ele>837</ele>
        <time>2021-06-03T05:58:51Z</time>
      </trkpt>
      <trkpt lat="41.77444" lon="9.13425">
        <ele>837.4</ele>
        <time>2021-06-03T05:58:52Z</time>
      </trkpt>
      <trkpt lat="41.77446" lon="9.13426">
        <ele>837.4</ele>
        <time>2021-06-03T05:58:53Z</time>
      </trkpt>
      <trkpt lat="41.7745" lon="9.13427">
        <ele>837.4</ele>
        <time>2021-06-03T05:58:54Z</time>
      </trkpt>
      <trkpt lat="41.77454" lon="9.13427">
        <ele>838</ele>
        <time>2021-06-03T05:58:55Z</time>
      </trkpt>
      <trkpt lat="41.77457" lon="9.13429">
        <ele>837.8</ele>
        <time>2021-06-03T05:58:56Z</time>
      </trkpt>
      <trkpt lat="41.7746" lon="9.13432">
        <ele>837.8</ele>
        <time>2021-06-03T05:58:57Z</time>
      </trkpt>
      <trkpt lat="41.77461" lon="9.13434">
        <ele>837.8</ele>
        <time>2021-06-03T05:58:58Z</time>
      </trkpt>
      <trkpt lat="41.77463" lon="9.13436">
        <ele>838.6</ele>
        <time>2021-06-03T05:58:59Z</time>
      </trkpt>
      <trkpt lat="41.77464" lon="9.13439">
        <ele>839</ele>
        <time>2021-06-03T05:59:00Z</time>
      </trkpt>
      <trkpt lat="41.77464" lon="9.13441">
        <ele>839</ele>
        <time>2021-06-03T05:59:01Z</time>
      </trkpt>
      <trkpt lat="41.77465" lon="9.13443">
        <ele>839</ele>
        <time>2021-06-03T05:59:02Z</time>
      </trkpt>
      <trkpt lat="41.77465" lon="9.13445">
        <ele>839</ele>
        <time>2021-06-03T05:59:03Z</time>
      </trkpt>
      <trkpt lat="41.77465" lon="9.13447">
        <ele>839.8</ele>
        <time>2021-06-03T05:59:04Z</time>
      </trkpt>
      <trkpt lat="41.77465" lon="9.13449">
        <ele>839.8</ele>
        <time>2021-06-03T05:59:05Z</time>
      </trkpt>
      <trkpt lat="41.77465" lon="9.13451">
        <ele>839.8</ele>
        <time>2021-06-03T05:59:06Z</time>
      </trkpt>
      <trkpt lat="41.77466" lon="9.13453">
        <ele>839.8</ele>
        <time>2021-06-03T05:59:07Z</time>
      </trkpt>
      <trkpt lat="41.77466" lon="9.13455">
        <ele>840.6</ele>
        <time>2021-06-03T05:59:08Z</time>
      </trkpt>
      <trkpt lat="41.77466" lon="9.13457">
        <ele>840.6</ele>
        <time>2021-06-03T05:59:09Z</time>
      </trkpt>
      <trkpt lat="41.77467" lon="9.13459">
        <ele>840.6</ele>
        <time>2021-06-03T05:59:10Z</time>
      </trkpt>
      <trkpt lat="41.77467" lon="9.13461">
        <ele>841</ele>
        <time>2021-06-03T05:59:11Z</time>
      </trkpt>
      <trkpt lat="41.77468" lon="9.13463">
        <ele>841.2</ele>
        <time>2021-06-03T05:59:12Z</time>
      </trkpt>
      <trkpt lat="41.77468" lon="9.13465">
        <ele>841.2</ele>
        <time>2021-06-03T05:59:13Z</time>
      </trkpt>
      <trkpt lat="41.77468" lon="9.13467">
        <ele>841.2</ele>
        <time>2021-06-03T05:59:14Z</time>
      </trkpt>
      <trkpt lat="41.77468" lon="9.13468">
        <ele>841.2</ele>
        <time>2021-06-03T05:59:15Z</time>
      </trkpt>
      <trkpt lat="41.77469" lon="9.1347">
        <ele>841.8</ele>
        <time>2021-06-03T05:59:16Z</time>
      </trkpt>
      <trkpt lat="41.77469" lon="9.13472">
        <ele>841.8</ele>
        <time>2021-06-03T05:59:17Z</time>
      </trkpt>
      <trkpt lat="41.77469" lon="9.13474">
        <ele>841.8</ele>
        <time>2021-06-03T05:59:18Z</time>
      </trkpt>
      <trkpt lat="41.77469" lon="9.13476">
        <ele>842.6</ele>
        <time>2021-06-03T05:59:19Z</time>
      </trkpt>
      <trkpt lat="41.7747" lon="9.13478">
        <ele>842.6</ele>
        <time>2021-06-03T05:59:20Z</time>
      </trkpt>
      <trkpt lat="41.7747" lon="9.13479">
        <ele>842.6</ele>
        <time>2021-06-03T05:59:21Z</time>
      </trkpt>
      <trkpt lat="41.7747" lon="9.13481">
        <ele>842.6</ele>
        <time>2021-06-03T05:59:22Z</time>
      </trkpt>
      <trkpt lat="41.7747" lon="9.13483">
        <ele>843.2</ele>
        <time>2021-06-03T05:59:23Z</time>
      </trkpt>
      <trkpt lat="41.7747" lon="9.13485">
        <ele>843.4</ele>
        <time>2021-06-03T05:59:24Z</time>
      </trkpt>
      <trkpt lat="41.7747" lon="9.13486">
        <ele>843.4</ele>
        <time>2021-06-03T05:59:25Z</time>
      </trkpt>
      <trkpt lat="41.77471" lon="9.13488">
        <ele>843.4</ele>
        <time>2021-06-03T05:59:26Z</time>
      </trkpt>
      <trkpt lat="41.77471" lon="9.1349">
        <ele>844</ele>
        <time>2021-06-03T05:59:27Z</time>
      </trkpt>
      <trkpt lat="41.77472" lon="9.13492">
        <ele>844.2</ele>
        <time>2021-06-03T05:59:28Z</time>
      </trkpt>
      <trkpt lat="41.77472" lon="9.13494">
        <ele>844.2</ele>
        <time>2021-06-03T05:59:29Z</time>
      </trkpt>
      <trkpt lat="41.77473" lon="9.13496">
        <ele>844.2</ele>
        <time>2021-06-03T05:59:30Z</time>
      </trkpt>
      <trkpt lat="41.77474" lon="9.13498">
        <ele>844.2</ele>
        <time>2021-06-03T05:59:31Z</time>
      </trkpt>
      <trkpt lat="41.77475" lon="9.13499">
        <ele>844.8</ele>
        <time>2021-06-03T05:59:32Z</time>
      </trkpt>
      <trkpt lat="41.77476" lon="9.13501">
        <ele>844.8</ele>
        <time>2021-06-03T05:59:33Z</time>
      </trkpt>
      <trkpt lat="41.77476" lon="9.13503">
        <ele>844.8</ele>
        <time>2021-06-03T05:59:34Z</time>
      </trkpt>
      <trkpt lat="41.77477" lon="9.13505">
        <ele>845.4</ele>
        <time>2021-06-03T05:59:35Z</time>
      </trkpt>
      <trkpt lat="41.77477" lon="9.13506">
        <ele>845.2</ele>
        <time>2021-06-03T05:59:36Z</time>
      </trkpt>
      <trkpt lat="41.77478" lon="9.13508">
        <ele>845.2</ele>
        <time>2021-06-03T05:59:37Z</time>
      </trkpt>
      <trkpt lat="41.77478" lon="9.1351">
        <ele>845.2</ele>
        <time>2021-06-03T05:59:38Z</time>
      </trkpt>
      <trkpt lat="41.77479" lon="9.13511">
        <ele>845.8</ele>
        <time>2021-06-03T05:59:39Z</time>
      </trkpt>
      <trkpt lat="41.7748" lon="9.13513">
        <ele>845.8</ele>
        <time>2021-06-03T05:59:40Z</time>
      </trkpt>
      <trkpt lat="41.7748" lon="9.13515">
        <ele>845.8</ele>
        <time>2021-06-03T05:59:41Z</time>
      </trkpt>
      <trkpt lat="41.77481" lon="9.13516">
        <ele>845.8</ele>
        <time>2021-06-03T05:59:42Z</time>
      </trkpt>
      <trkpt lat="41.77481" lon="9.13518">
        <ele>846.4</ele>
        <time>2021-06-03T05:59:43Z</time>
      </trkpt>
      <trkpt lat="41.77483" lon="9.1352">
        <ele>846.2</ele>
        <time>2021-06-03T05:59:44Z</time>
      </trkpt>
      <trkpt lat="41.77485" lon="9.13522">
        <ele>846.2</ele>
        <time>2021-06-03T05:59:45Z</time>
      </trkpt>
      <trkpt lat="41.77485" lon="9.13524">
        <ele>846.2</ele>
        <time>2021-06-03T05:59:46Z</time>
      </trkpt>
      <trkpt lat="41.77486" lon="9.13526">
        <ele>846.2</ele>
        <time>2021-06-03T05:59:47Z</time>
      </trkpt>
      <trkpt lat="41.77487" lon="9.13529">
        <ele>846.8</ele>
        <time>2021-06-03T05:59:48Z</time>
      </trkpt>
      <trkpt lat="41.77489" lon="9.13531">
        <ele>846.8</ele>
        <time>2021-06-03T05:59:49Z</time>
      </trkpt>
      <trkpt lat="41.77489" lon="9.13533">
        <ele>846.8</ele>
        <time>2021-06-03T05:59:50Z</time>
      </trkpt>
      <trkpt lat="41.7749" lon="9.13535">
        <ele>847</ele>
        <time>2021-06-03T05:59:51Z</time>
      </trkpt>
      <trkpt lat="41.77491" lon="9.13537">
        <ele>847.2</ele>
        <time>2021-06-03T05:59:52Z</time>
      </trkpt>
      <trkpt lat="41.77491" lon="9.1354">
        <ele>847.2</ele>
        <time>2021-06-03T05:59:53Z</time>
      </trkpt>
      <trkpt lat="41.77492" lon="9.13542">
        <ele>847.2</ele>
        <time>2021-06-03T05:59:54Z</time>
      </trkpt>
      <trkpt lat="41.77491" lon="9.13544">
        <ele>847.4</ele>
        <time>2021-06-03T05:59:55Z</time>
      </trkpt>
      <trkpt lat="41.77491" lon="9.13546">
        <ele>847.4</ele>
        <time>2021-06-03T05:59:56Z</time>
      </trkpt>
      <trkpt lat="41.77492" lon="9.13548">
        <ele>847.4</ele>
        <time>2021-06-03T05:59:57Z</time>
      </trkpt>
      <trkpt lat="41.77492" lon="9.1355">
        <ele>847.4</ele>
        <time>2021-06-03T05:59:58Z</time>
      </trkpt>
      <trkpt lat="41.77492" lon="9.13552">
        <ele>847.4</ele>
        <time>2021-06-03T05:59:59Z</time>
      </trkpt>
      <trkpt lat="41.77493" lon="9.13555">
        <ele>847.6</ele>
        <time>2021-06-03T06:00:00Z</time>
      </trkpt>
      <trkpt lat="41.77493" lon="9.13556">
        <ele>847.6</ele>
        <time>2021-06-03T06:00:01Z</time>
      </trkpt>
      <trkpt lat="41.77494" lon="9.13559">
        <ele>847.6</ele>
        <time>2021-06-03T06:00:02Z</time>
      </trkpt>
      <trkpt lat="41.77495" lon="9.13562">
        <ele>847.6</ele>
        <time>2021-06-03T06:00:03Z</time>
      </trkpt>
      <trkpt lat="41.77496" lon="9.13564">
        <ele>847.6</ele>
        <time>2021-06-03T06:00:04Z</time>
      </trkpt>
      <trkpt lat="41.77497" lon="9.13566">
        <ele>847.6</ele>
        <time>2021-06-03T06:00:05Z</time>
      </trkpt>
      <trkpt lat="41.77498" lon="9.13568">
        <ele>847.6</ele>
        <time>2021-06-03T06:00:06Z</time>
      </trkpt>
      <trkpt lat="41.77499" lon="9.13571">
        <ele>847.6</ele>
        <time>2021-06-03T06:00:07Z</time>
      </trkpt>
      <trkpt lat="41.77501" lon="9.13573">
        <ele>847.8</ele>
        <time>2021-06-03T06:00:08Z</time>
      </trkpt>
      <trkpt lat="41.77504" lon="9.13576">
        <ele>847.8</ele>
        <time>2021-06-03T06:00:09Z</time>
      </trkpt>
      <trkpt lat="41.77507" lon="9.13579">
        <ele>847.8</ele>
        <time>2021-06-03T06:00:10Z</time>
      </trkpt>
      <trkpt lat="41.77508" lon="9.13581">
        <ele>847.8</ele>
        <time>2021-06-03T06:00:11Z</time>
      </trkpt>
      <trkpt lat="41.77509" lon="9.13584">
        <ele>847.6</ele>
        <time>2021-06-03T06:00:12Z</time>
      </trkpt>
      <trkpt lat="41.77511" lon="9.13586">
        <ele>847.6</ele>
        <time>2021-06-03T06:00:13Z</time>
      </trkpt>
      <trkpt lat="41.77512" lon="9.13589">
        <ele>847.6</ele>
        <time>2021-06-03T06:00:14Z</time>
      </trkpt>
      <trkpt lat="41.77513" lon="9.13592">
        <ele>847.4</ele>
        <time>2021-06-03T06:00:15Z</time>
      </trkpt>
      <trkpt lat="41.77516" lon="9.13595">
        <ele>847.4</ele>
        <time>2021-06-03T06:00:16Z</time>
      </trkpt>
      <trkpt lat="41.77517" lon="9.13598">
        <ele>847.4</ele>
        <time>2021-06-03T06:00:17Z</time>
      </trkpt>
      <trkpt lat="41.77517" lon="9.13601">
        <ele>847.4</ele>
        <time>2021-06-03T06:00:18Z</time>
      </trkpt>
      <trkpt lat="41.77518" lon="9.13602">
        <ele>847</ele>
        <time>2021-06-03T06:00:19Z</time>
      </trkpt>
      <trkpt lat="41.77521" lon="9.13604">
        <ele>846.6</ele>
        <time>2021-06-03T06:00:20Z</time>
      </trkpt>
      <trkpt lat="41.77524" lon="9.13607">
        <ele>846.6</ele>
        <time>2021-06-03T06:00:21Z</time>
      </trkpt>
      <trkpt lat="41.77526" lon="9.13609">
        <ele>846.6</ele>
        <time>2021-06-03T06:00:22Z</time>
      </trkpt>
      <trkpt lat="41.77527" lon="9.13612">
        <ele>846.6</ele>
        <time>2021-06-03T06:00:23Z</time>
      </trkpt>
      <trkpt lat="41.77529" lon="9.13615">
        <ele>846.2</ele>
        <time>2021-06-03T06:00:24Z</time>
      </trkpt>
      <trkpt lat="41.77531" lon="9.13619">
        <ele>846.2</ele>
        <time>2021-06-03T06:00:25Z</time>
      </trkpt>
      <trkpt lat="41.77532" lon="9.13624">
        <ele>846.2</ele>
        <time>2021-06-03T06:00:26Z</time>
      </trkpt>
      <trkpt lat="41.77534" lon="9.13628">
        <ele>845.2</ele>
        <time>2021-06-03T06:00:27Z</time>
      </trkpt>
      <trkpt lat="41.77535" lon="9.1363">
        <ele>844.2</ele>
        <time>2021-06-03T06:00:28Z</time>
      </trkpt>
      <trkpt lat="41.77538" lon="9.13633">
        <ele>844.2</ele>
        <time>2021-06-03T06:00:29Z</time>
      </trkpt>
      <trkpt lat="41.77541" lon="9.13638">
        <ele>844.2</ele>
        <time>2021-06-03T06:00:30Z</time>
      </trkpt>
      <trkpt lat="41.77543" lon="9.13643">
        <ele>843.2</ele>
        <time>2021-06-03T06:00:31Z</time>
      </trkpt>
      <trkpt lat="41.77545" lon="9.13648">
        <ele>841.6</ele>
        <time>2021-06-03T06:00:32Z</time>
      </trkpt>
      <trkpt lat="41.77546" lon="9.13654">
        <ele>841.6</ele>
        <time>2021-06-03T06:00:33Z</time>
      </trkpt>
      <trkpt lat="41.77548" lon="9.13661">
        <ele>841.6</ele>
        <time>2021-06-03T06:00:34Z</time>
      </trkpt>
      <trkpt lat="41.77551" lon="9.13667">
        <ele>842.6</ele>
        <time>2021-06-03T06:00:35Z</time>
      </trkpt>
      <trkpt lat="41.77555" lon="9.13672">
        <ele>842.4</ele>
        <time>2021-06-03T06:00:36Z</time>
      </trkpt>
      <trkpt lat="41.77559" lon="9.13678">
        <ele>842.4</ele>
        <time>2021-06-03T06:00:37Z</time>
      </trkpt>
      <trkpt lat="41.77561" lon="9.13682">
        <ele>842.4</ele>
        <time>2021-06-03T06:00:38Z</time>
      </trkpt>
      <trkpt lat="41.77566" lon="9.1369">
        <ele>843.4</ele>
        <time>2021-06-03T06:00:39Z</time>
      </trkpt>
      <trkpt lat="41.7757" lon="9.13692">
        <ele>843.6</ele>
        <time>2021-06-03T06:00:40Z</time>
      </trkpt>
      <trkpt lat="41.77578" lon="9.13698">
        <ele>843.6</ele>
        <time>2021-06-03T06:00:41Z</time>
      </trkpt>
      <trkpt lat="41.77583" lon="9.137">
        <ele>843.6</ele>
        <time>2021-06-03T06:00:42Z</time>
      </trkpt>
      <trkpt lat="41.77586" lon="9.13701">
        <ele>844.6</ele>
        <time>2021-06-03T06:00:43Z</time>
      </trkpt>
      <trkpt lat="41.77589" lon="9.13702">
        <ele>845.4</ele>
        <time>2021-06-03T06:00:44Z</time>
      </trkpt>
      <trkpt lat="41.77592" lon="9.13702">
        <ele>845.4</ele>
        <time>2021-06-03T06:00:45Z</time>
      </trkpt>
      <trkpt lat="41.77593" lon="9.13704">
        <ele>845.4</ele>
        <time>2021-06-03T06:00:46Z</time>
      </trkpt>
      <trkpt lat="41.77596" lon="9.13704">
        <ele>846.4</ele>
        <time>2021-06-03T06:00:47Z</time>
      </trkpt>
      <trkpt lat="41.77599" lon="9.13703">
        <ele>846.8</ele>
        <time>2021-06-03T06:00:48Z</time>
      </trkpt>
      <trkpt lat="41.776" lon="9.13704">
        <ele>846.8</ele>
        <time>2021-06-03T06:00:49Z</time>
      </trkpt>
      <trkpt lat="41.77602" lon="9.13704">
        <ele>846.8</ele>
        <time>2021-06-03T06:00:50Z</time>
      </trkpt>
      <trkpt lat="41.77604" lon="9.13703">
        <ele>847.8</ele>
        <time>2021-06-03T06:00:51Z</time>
      </trkpt>
      <trkpt lat="41.77605" lon="9.13703">
        <ele>848.2</ele>
        <time>2021-06-03T06:00:52Z</time>
      </trkpt>
      <trkpt lat="41.77606" lon="9.13702">
        <ele>848.2</ele>
        <time>2021-06-03T06:00:53Z</time>
      </trkpt>
      <trkpt lat="41.77608" lon="9.13701">
        <ele>848.2</ele>
        <time>2021-06-03T06:00:54Z</time>
      </trkpt>
      <trkpt lat="41.77609" lon="9.137">
        <ele>848.4</ele>
        <time>2021-06-03T06:00:55Z</time>
      </trkpt>
      <trkpt lat="41.77612" lon="9.13699">
        <ele>848.8</ele>
        <time>2021-06-03T06:00:56Z</time>
      </trkpt>
      <trkpt lat="41.77614" lon="9.13698">
        <ele>848.8</ele>
        <time>2021-06-03T06:00:57Z</time>
      </trkpt>
      <trkpt lat="41.77615" lon="9.13697">
        <ele>848.8</ele>
        <time>2021-06-03T06:00:58Z</time>
      </trkpt>
      <trkpt lat="41.77617" lon="9.13696">
        <ele>849</ele>
        <time>2021-06-03T06:00:59Z</time>
      </trkpt>
      <trkpt lat="41.77619" lon="9.13695">
        <ele>849.6</ele>
        <time>2021-06-03T06:01:00Z</time>
      </trkpt>
      <trkpt lat="41.7762" lon="9.13694">
        <ele>849.6</ele>
        <time>2021-06-03T06:01:01Z</time>
      </trkpt>
      <trkpt lat="41.77622" lon="9.13693">
        <ele>849.6</ele>
        <time>2021-06-03T06:01:02Z</time>
      </trkpt>
      <trkpt lat="41.77623" lon="9.13692">
        <ele>849.6</ele>
        <time>2021-06-03T06:01:03Z</time>
      </trkpt>
      <trkpt lat="41.77625" lon="9.13691">
        <ele>849.8</ele>
        <time>2021-06-03T06:01:04Z</time>
      </trkpt>
      <trkpt lat="41.77626" lon="9.1369">
        <ele>849.8</ele>
        <time>2021-06-03T06:01:05Z</time>
      </trkpt>
      <trkpt lat="41.77628" lon="9.13689">
        <ele>849.8</ele>
        <time>2021-06-03T06:01:06Z</time>
      </trkpt>
      <trkpt lat="41.77629" lon="9.13688">
        <ele>850.4</ele>
        <time>2021-06-03T06:01:07Z</time>
      </trkpt>
      <trkpt lat="41.7763" lon="9.13687">
        <ele>850.4</ele>
        <time>2021-06-03T06:01:08Z</time>
      </trkpt>
      <trkpt lat="41.77631" lon="9.13686">
        <ele>850.4</ele>
        <time>2021-06-03T06:01:09Z</time>
      </trkpt>
      <trkpt lat="41.77632" lon="9.13684">
        <ele>850.4</ele>
        <time>2021-06-03T06:01:10Z</time>
      </trkpt>
      <trkpt lat="41.77633" lon="9.13683">
        <ele>850.8</ele>
        <time>2021-06-03T06:01:11Z</time>
      </trkpt>
      <trkpt lat="41.77634" lon="9.13682">
        <ele>851.2</ele>
        <time>2021-06-03T06:01:12Z</time>
      </trkpt>
      <trkpt lat="41.77635" lon="9.13681">
        <ele>851.2</ele>
        <time>2021-06-03T06:01:13Z</time>
      </trkpt>
      <trkpt lat="41.77636" lon="9.1368">
        <ele>851.2</ele>
        <time>2021-06-03T06:01:14Z</time>
      </trkpt>
      <trkpt lat="41.77637" lon="9.13678">
        <ele>851.2</ele>
        <time>2021-06-03T06:01:15Z</time>
      </trkpt>
      <trkpt lat="41.77638" lon="9.13677">
        <ele>852</ele>
        <time>2021-06-03T06:01:16Z</time>
      </trkpt>
      <trkpt lat="41.7764" lon="9.13676">
        <ele>852</ele>
        <time>2021-06-03T06:01:17Z</time>
      </trkpt>
      <trkpt lat="41.77641" lon="9.13676">
        <ele>852</ele>
        <time>2021-06-03T06:01:18Z</time>
      </trkpt>
      <trkpt lat="41.77643" lon="9.13676">
        <ele>852</ele>
        <time>2021-06-03T06:01:19Z</time>
      </trkpt>
      <trkpt lat="41.77644" lon="9.13675">
        <ele>852</ele>
        <time>2021-06-03T06:01:20Z</time>
      </trkpt>
      <trkpt lat="41.77645" lon="9.13675">
        <ele>852</ele>
        <time>2021-06-03T06:01:21Z</time>
      </trkpt>
      <trkpt lat="41.77647" lon="9.13674">
        <ele>852</ele>
        <time>2021-06-03T06:01:22Z</time>
      </trkpt>
      <trkpt lat="41.77648" lon="9.13674">
        <ele>853</ele>
        <time>2021-06-03T06:01:23Z</time>
      </trkpt>
      <trkpt lat="41.77649" lon="9.13674">
        <ele>853.4</ele>
        <time>2021-06-03T06:01:24Z</time>
      </trkpt>
      <trkpt lat="41.77649" lon="9.13674">
        <ele>853.4</ele>
        <time>2021-06-03T06:01:25Z</time>
      </trkpt>
      <trkpt lat="41.7765" lon="9.13674">
        <ele>853.4</ele>
        <time>2021-06-03T06:01:26Z</time>
      </trkpt>
      <trkpt lat="41.77664" lon="9.13674">
        <ele>854.8</ele>
        <time>2021-06-03T06:01:36Z</time>
      </trkpt>
      <trkpt lat="41.77665" lon="9.13673">
        <ele>854.8</ele>
        <time>2021-06-03T06:01:37Z</time>
      </trkpt>
      <trkpt lat="41.77666" lon="9.13672">
        <ele>854.8</ele>
        <time>2021-06-03T06:01:38Z</time>
      </trkpt>
      <trkpt lat="41.77668" lon="9.13672">
        <ele>854.8</ele>
        <time>2021-06-03T06:01:39Z</time>
      </trkpt>
      <trkpt lat="41.7767" lon="9.1367">
        <ele>854.6</ele>
        <time>2021-06-03T06:01:40Z</time>
      </trkpt>
      <trkpt lat="41.77671" lon="9.13669">
        <ele>854.6</ele>
        <time>2021-06-03T06:01:41Z</time>
      </trkpt>
      <trkpt lat="41.77673" lon="9.13669">
        <ele>854.6</ele>
        <time>2021-06-03T06:01:42Z</time>
      </trkpt>
      <trkpt lat="41.77674" lon="9.13668">
        <ele>854.6</ele>
        <time>2021-06-03T06:01:43Z</time>
      </trkpt>
      <trkpt lat="41.77676" lon="9.13667">
        <ele>855</ele>
        <time>2021-06-03T06:01:44Z</time>
      </trkpt>
      <trkpt lat="41.77677" lon="9.13666">
        <ele>855</ele>
        <time>2021-06-03T06:01:45Z</time>
      </trkpt>
      <trkpt lat="41.77677" lon="9.13665">
        <ele>855</ele>
        <time>2021-06-03T06:01:46Z</time>
      </trkpt>
      <trkpt lat="41.77679" lon="9.13661">
        <ele>855</ele>
        <time>2021-06-03T06:01:47Z</time>
      </trkpt>
      <trkpt lat="41.7768" lon="9.13659">
        <ele>855</ele>
        <time>2021-06-03T06:01:48Z</time>
      </trkpt>
      <trkpt lat="41.77681" lon="9.13657">
        <ele>855</ele>
        <time>2021-06-03T06:01:49Z</time>
      </trkpt>
      <trkpt lat="41.77683" lon="9.13656">
        <ele>855</ele>
        <time>2021-06-03T06:01:50Z</time>
      </trkpt>
      <trkpt lat="41.77684" lon="9.13654">
        <ele>855</ele>
        <time>2021-06-03T06:01:51Z</time>
      </trkpt>
      <trkpt lat="41.77685" lon="9.13652">
        <ele>855.6</ele>
        <time>2021-06-03T06:01:52Z</time>
      </trkpt>
      <trkpt lat="41.77687" lon="9.1365">
        <ele>855.6</ele>
        <time>2021-06-03T06:01:53Z</time>
      </trkpt>
      <trkpt lat="41.77688" lon="9.13648">
        <ele>855.6</ele>
        <time>2021-06-03T06:01:54Z</time>
      </trkpt>
      <trkpt lat="41.77689" lon="9.13647">
        <ele>855.6</ele>
        <time>2021-06-03T06:01:55Z</time>
      </trkpt>
      <trkpt lat="41.77692" lon="9.13644">
        <ele>855.8</ele>
        <time>2021-06-03T06:01:56Z</time>
      </trkpt>
      <trkpt lat="41.77694" lon="9.13641">
        <ele>855.8</ele>
        <time>2021-06-03T06:01:57Z</time>
      </trkpt>
      <trkpt lat="41.77696" lon="9.1364">
        <ele>855.8</ele>
        <time>2021-06-03T06:01:58Z</time>
      </trkpt>
      <trkpt lat="41.77697" lon="9.13639">
        <ele>855.8</ele>
        <time>2021-06-03T06:01:59Z</time>
      </trkpt>
      <trkpt lat="41.77699" lon="9.13638">
        <ele>855.6</ele>
        <time>2021-06-03T06:02:00Z</time>
      </trkpt>
      <trkpt lat="41.777" lon="9.13637">
        <ele>855.6</ele>
        <time>2021-06-03T06:02:01Z</time>
      </trkpt>
      <trkpt lat="41.77702" lon="9.13637">
        <ele>855.6</ele>
        <time>2021-06-03T06:02:02Z</time>
      </trkpt>
      <trkpt lat="41.77704" lon="9.13636">
        <ele>855.2</ele>
        <time>2021-06-03T06:02:03Z</time>
      </trkpt>
      <trkpt lat="41.77706" lon="9.13636">
        <ele>855.2</ele>
        <time>2021-06-03T06:02:04Z</time>
      </trkpt>
      <trkpt lat="41.77708" lon="9.13636">
        <ele>855.2</ele>
        <time>2021-06-03T06:02:05Z</time>
      </trkpt>
      <trkpt lat="41.77711" lon="9.13636">
        <ele>855.2</ele>
        <time>2021-06-03T06:02:06Z</time>
      </trkpt>
      <trkpt lat="41.77713" lon="9.13635">
        <ele>855.2</ele>
        <time>2021-06-03T06:02:07Z</time>
      </trkpt>
      <trkpt lat="41.77715" lon="9.13636">
        <ele>854.8</ele>
        <time>2021-06-03T06:02:08Z</time>
      </trkpt>
      <trkpt lat="41.77717" lon="9.13636">
        <ele>854.8</ele>
        <time>2021-06-03T06:02:09Z</time>
      </trkpt>
      <trkpt lat="41.77719" lon="9.13635">
        <ele>854.8</ele>
        <time>2021-06-03T06:02:10Z</time>
      </trkpt>
      <trkpt lat="41.77723" lon="9.13631">
        <ele>855.6</ele>
        <time>2021-06-03T06:02:11Z</time>
      </trkpt>
      <trkpt lat="41.77725" lon="9.1363">
        <ele>855.8</ele>
        <time>2021-06-03T06:02:12Z</time>
      </trkpt>
      <trkpt lat="41.77728" lon="9.13627">
        <ele>855.8</ele>
        <time>2021-06-03T06:02:13Z</time>
      </trkpt>
      <trkpt lat="41.7773" lon="9.13627">
        <ele>855.8</ele>
        <time>2021-06-03T06:02:14Z</time>
      </trkpt>
      <trkpt lat="41.77731" lon="9.13628">
        <ele>856.2</ele>
        <time>2021-06-03T06:02:15Z</time>
      </trkpt>
      <trkpt lat="41.77731" lon="9.13628">
        <ele>856.6</ele>
        <time>2021-06-03T06:02:16Z</time>
      </trkpt>
      <trkpt lat="41.77732" lon="9.13629">
        <ele>856.6</ele>
        <time>2021-06-03T06:02:17Z</time>
      </trkpt>
      <trkpt lat="41.77735" lon="9.13629">
        <ele>856.6</ele>
        <time>2021-06-03T06:02:18Z</time>
      </trkpt>
      <trkpt lat="41.77737" lon="9.13629">
        <ele>856.6</ele>
        <time>2021-06-03T06:02:19Z</time>
      </trkpt>
      <trkpt lat="41.77738" lon="9.13628">
        <ele>857.2</ele>
        <time>2021-06-03T06:02:20Z</time>
      </trkpt>
      <trkpt lat="41.7774" lon="9.13628">
        <ele>857.2</ele>
        <time>2021-06-03T06:02:21Z</time>
      </trkpt>
      <trkpt lat="41.77741" lon="9.13629">
        <ele>857.2</ele>
        <time>2021-06-03T06:02:22Z</time>
      </trkpt>
      <trkpt lat="41.77743" lon="9.13629">
        <ele>857.2</ele>
        <time>2021-06-03T06:02:23Z</time>
      </trkpt>
      <trkpt lat="41.77745" lon="9.13629">
        <ele>857.8</ele>
        <time>2021-06-03T06:02:24Z</time>
      </trkpt>
      <trkpt lat="41.77747" lon="9.13629">
        <ele>857.8</ele>
        <time>2021-06-03T06:02:25Z</time>
      </trkpt>
      <trkpt lat="41.77747" lon="9.1363">
        <ele>857.8</ele>
        <time>2021-06-03T06:02:26Z</time>
      </trkpt>
      <trkpt lat="41.77749" lon="9.1363">
        <ele>857.8</ele>
        <time>2021-06-03T06:02:27Z</time>
      </trkpt>
      <trkpt lat="41.77751" lon="9.13629">
        <ele>858</ele>
        <time>2021-06-03T06:02:28Z</time>
      </trkpt>
      <trkpt lat="41.77752" lon="9.1363">
        <ele>858</ele>
        <time>2021-06-03T06:02:29Z</time>
      </trkpt>
      <trkpt lat="41.77753" lon="9.1363">
        <ele>858</ele>
        <time>2021-06-03T06:02:30Z</time>
      </trkpt>
      <trkpt lat="41.77756" lon="9.13629">
        <ele>858</ele>
        <time>2021-06-03T06:02:31Z</time>
      </trkpt>
      <trkpt lat="41.77757" lon="9.13629">
        <ele>857.8</ele>
        <time>2021-06-03T06:02:32Z</time>
      </trkpt>
      <trkpt lat="41.77759" lon="9.13629">
        <ele>857.8</ele>
        <time>2021-06-03T06:02:33Z</time>
      </trkpt>
      <trkpt lat="41.77761" lon="9.13629">
        <ele>857.8</ele>
        <time>2021-06-03T06:02:34Z</time>
      </trkpt>
      <trkpt lat="41.77763" lon="9.13629">
        <ele>858.8</ele>
        <time>2021-06-03T06:02:35Z</time>
      </trkpt>
      <trkpt lat="41.77766" lon="9.1363">
        <ele>858.8</ele>
        <time>2021-06-03T06:02:36Z</time>
      </trkpt>
      <trkpt lat="41.77768" lon="9.13629">
        <ele>858.8</ele>
        <time>2021-06-03T06:02:37Z</time>
      </trkpt>
      <trkpt lat="41.7777" lon="9.1363">
        <ele>858.8</ele>
        <time>2021-06-03T06:02:38Z</time>
      </trkpt>
      <trkpt lat="41.77772" lon="9.1363">
        <ele>858.8</ele>
        <time>2021-06-03T06:02:39Z</time>
      </trkpt>
      <trkpt lat="41.77774" lon="9.13629">
        <ele>859.4</ele>
        <time>2021-06-03T06:02:40Z</time>
      </trkpt>
      <trkpt lat="41.77775" lon="9.13629">
        <ele>859.4</ele>
        <time>2021-06-03T06:02:41Z</time>
      </trkpt>
      <trkpt lat="41.77777" lon="9.13629">
        <ele>859.4</ele>
        <time>2021-06-03T06:02:42Z</time>
      </trkpt>
      <trkpt lat="41.77779" lon="9.13629">
        <ele>859.4</ele>
        <time>2021-06-03T06:02:43Z</time>
      </trkpt>
      <trkpt lat="41.77781" lon="9.13628">
        <ele>859.2</ele>
        <time>2021-06-03T06:02:44Z</time>
      </trkpt>
      <trkpt lat="41.77782" lon="9.13628">
        <ele>859.2</ele>
        <time>2021-06-03T06:02:45Z</time>
      </trkpt>
      <trkpt lat="41.77785" lon="9.13626">
        <ele>859.2</ele>
        <time>2021-06-03T06:02:46Z</time>
      </trkpt>
      <trkpt lat="41.77787" lon="9.13624">
        <ele>859.6</ele>
        <time>2021-06-03T06:02:47Z</time>
      </trkpt>
      <trkpt lat="41.77789" lon="9.13622">
        <ele>859.8</ele>
        <time>2021-06-03T06:02:48Z</time>
      </trkpt>
      <trkpt lat="41.77791" lon="9.13621">
        <ele>859.8</ele>
        <time>2021-06-03T06:02:49Z</time>
      </trkpt>
      <trkpt lat="41.77793" lon="9.13621">
        <ele>859.8</ele>
        <time>2021-06-03T06:02:50Z</time>
      </trkpt>
      <trkpt lat="41.77794" lon="9.1362">
        <ele>859.8</ele>
        <time>2021-06-03T06:02:51Z</time>
      </trkpt>
      <trkpt lat="41.77796" lon="9.13619">
        <ele>859.8</ele>
        <time>2021-06-03T06:02:52Z</time>
      </trkpt>
      <trkpt lat="41.77797" lon="9.13619">
        <ele>859.8</ele>
        <time>2021-06-03T06:02:53Z</time>
      </trkpt>
      <trkpt lat="41.778" lon="9.13616">
        <ele>859.8</ele>
        <time>2021-06-03T06:02:54Z</time>
      </trkpt>
      <trkpt lat="41.77802" lon="9.13615">
        <ele>859.6</ele>
        <time>2021-06-03T06:02:55Z</time>
      </trkpt>
      <trkpt lat="41.77804" lon="9.13612">
        <ele>860</ele>
        <time>2021-06-03T06:02:56Z</time>
      </trkpt>
      <trkpt lat="41.77805" lon="9.13611">
        <ele>860</ele>
        <time>2021-06-03T06:02:57Z</time>
      </trkpt>
      <trkpt lat="41.77808" lon="9.1361">
        <ele>860</ele>
        <time>2021-06-03T06:02:58Z</time>
      </trkpt>
      <trkpt lat="41.77809" lon="9.13608">
        <ele>860</ele>
        <time>2021-06-03T06:02:59Z</time>
      </trkpt>
      <trkpt lat="41.77811" lon="9.13606">
        <ele>860.2</ele>
        <time>2021-06-03T06:03:00Z</time>
      </trkpt>
      <trkpt lat="41.77812" lon="9.13605">
        <ele>860.2</ele>
        <time>2021-06-03T06:03:01Z</time>
      </trkpt>
      <trkpt lat="41.77814" lon="9.13604">
        <ele>860.2</ele>
        <time>2021-06-03T06:03:02Z</time>
      </trkpt>
      <trkpt lat="41.77815" lon="9.13602">
        <ele>860.2</ele>
        <time>2021-06-03T06:03:03Z</time>
      </trkpt>
      <trkpt lat="41.77817" lon="9.13601">
        <ele>860</ele>
        <time>2021-06-03T06:03:04Z</time>
      </trkpt>
      <trkpt lat="41.77818" lon="9.13601">
        <ele>860</ele>
        <time>2021-06-03T06:03:05Z</time>
      </trkpt>
      <trkpt lat="41.7782" lon="9.136">
        <ele>860</ele>
        <time>2021-06-03T06:03:06Z</time>
      </trkpt>
      <trkpt lat="41.77821" lon="9.13598">
        <ele>860.4</ele>
        <time>2021-06-03T06:03:07Z</time>
      </trkpt>
      <trkpt lat="41.77822" lon="9.13597">
        <ele>860.6</ele>
        <time>2021-06-03T06:03:08Z</time>
      </trkpt>
      <trkpt lat="41.77823" lon="9.13595">
        <ele>860.6</ele>
        <time>2021-06-03T06:03:09Z</time>
      </trkpt>
      <trkpt lat="41.77824" lon="9.13593">
        <ele>860.6</ele>
        <time>2021-06-03T06:03:10Z</time>
      </trkpt>
      <trkpt lat="41.77825" lon="9.13591">
        <ele>860.6</ele>
        <time>2021-06-03T06:03:11Z</time>
      </trkpt>
      <trkpt lat="41.77827" lon="9.1359">
        <ele>860.8</ele>
        <time>2021-06-03T06:03:12Z</time>
      </trkpt>
      <trkpt lat="41.77828" lon="9.13589">
        <ele>860.8</ele>
        <time>2021-06-03T06:03:13Z</time>
      </trkpt>
      <trkpt lat="41.77831" lon="9.13586">
        <ele>860.8</ele>
        <time>2021-06-03T06:03:14Z</time>
      </trkpt>
      <trkpt lat="41.77833" lon="9.13584">
        <ele>860.2</ele>
        <time>2021-06-03T06:03:15Z</time>
      </trkpt>
      <trkpt lat="41.77835" lon="9.13583">
        <ele>860.4</ele>
        <time>2021-06-03T06:03:16Z</time>
      </trkpt>
      <trkpt lat="41.77837" lon="9.13582">
        <ele>860.4</ele>
        <time>2021-06-03T06:03:17Z</time>
      </trkpt>
      <trkpt lat="41.77838" lon="9.1358">
        <ele>860.4</ele>
        <time>2021-06-03T06:03:18Z</time>
      </trkpt>
      <trkpt lat="41.77841" lon="9.13577">
        <ele>860.2</ele>
        <time>2021-06-03T06:03:19Z</time>
      </trkpt>
      <trkpt lat="41.77843" lon="9.13576">
        <ele>860</ele>
        <time>2021-06-03T06:03:20Z</time>
      </trkpt>
      <trkpt lat="41.77845" lon="9.13574">
        <ele>860</ele>
        <time>2021-06-03T06:03:21Z</time>
      </trkpt>
      <trkpt lat="41.77848" lon="9.13572">
        <ele>860</ele>
        <time>2021-06-03T06:03:22Z</time>
      </trkpt>
      <trkpt lat="41.77849" lon="9.13571">
        <ele>860</ele>
        <time>2021-06-03T06:03:23Z</time>
      </trkpt>
      <trkpt lat="41.77852" lon="9.1357">
        <ele>859.2</ele>
        <time>2021-06-03T06:03:24Z</time>
      </trkpt>
      <trkpt lat="41.77855" lon="9.13569">
        <ele>859.2</ele>
        <time>2021-06-03T06:03:25Z</time>
      </trkpt>
      <trkpt lat="41.77858" lon="9.13568">
        <ele>859.2</ele>
        <time>2021-06-03T06:03:26Z</time>
      </trkpt>
      <trkpt lat="41.77861" lon="9.13567">
        <ele>858.6</ele>
        <time>2021-06-03T06:03:27Z</time>
      </trkpt>
      <trkpt lat="41.77864" lon="9.13566">
        <ele>858.2</ele>
        <time>2021-06-03T06:03:28Z</time>
      </trkpt>
      <trkpt lat="41.77867" lon="9.13565">
        <ele>858.2</ele>
        <time>2021-06-03T06:03:29Z</time>
      </trkpt>
      <trkpt lat="41.77869" lon="9.13564">
        <ele>858.2</ele>
        <time>2021-06-03T06:03:30Z</time>
      </trkpt>
      <trkpt lat="41.77872" lon="9.13563">
        <ele>858.2</ele>
        <time>2021-06-03T06:03:31Z</time>
      </trkpt>
      <trkpt lat="41.77875" lon="9.13562">
        <ele>858.6</ele>
        <time>2021-06-03T06:03:32Z</time>
      </trkpt>
      <trkpt lat="41.77879" lon="9.13561">
        <ele>858.6</ele>
        <time>2021-06-03T06:03:33Z</time>
      </trkpt>
      <trkpt lat="41.77882" lon="9.13559">
        <ele>858.6</ele>
        <time>2021-06-03T06:03:34Z</time>
      </trkpt>
      <trkpt lat="41.77884" lon="9.13558">
        <ele>858.2</ele>
        <time>2021-06-03T06:03:35Z</time>
      </trkpt>
      <trkpt lat="41.77886" lon="9.13557">
        <ele>858.6</ele>
        <time>2021-06-03T06:03:36Z</time>
      </trkpt>
      <trkpt lat="41.77889" lon="9.13554">
        <ele>858.6</ele>
        <time>2021-06-03T06:03:37Z</time>
      </trkpt>
      <trkpt lat="41.77892" lon="9.13553">
        <ele>858.6</ele>
        <time>2021-06-03T06:03:38Z</time>
      </trkpt>
      <trkpt lat="41.77895" lon="9.13552">
        <ele>858.4</ele>
        <time>2021-06-03T06:03:39Z</time>
      </trkpt>
      <trkpt lat="41.77898" lon="9.13551">
        <ele>858.2</ele>
        <time>2021-06-03T06:03:40Z</time>
      </trkpt>
      <trkpt lat="41.77901" lon="9.13551">
        <ele>858.2</ele>
        <time>2021-06-03T06:03:41Z</time>
      </trkpt>
      <trkpt lat="41.77905" lon="9.1355">
        <ele>858.2</ele>
        <time>2021-06-03T06:03:42Z</time>
      </trkpt>
      <trkpt lat="41.77908" lon="9.1355">
        <ele>857.6</ele>
        <time>2021-06-03T06:03:43Z</time>
      </trkpt>
      <trkpt lat="41.77912" lon="9.13551">
        <ele>857.4</ele>
        <time>2021-06-03T06:03:44Z</time>
      </trkpt>
      <trkpt lat="41.77915" lon="9.13552">
        <ele>857.4</ele>
        <time>2021-06-03T06:03:45Z</time>
      </trkpt>
      <trkpt lat="41.7792" lon="9.13553">
        <ele>857.4</ele>
        <time>2021-06-03T06:03:46Z</time>
      </trkpt>
      <trkpt lat="41.77926" lon="9.13554">
        <ele>856.4</ele>
        <time>2021-06-03T06:03:47Z</time>
      </trkpt>
      <trkpt lat="41.77928" lon="9.13555">
        <ele>855.2</ele>
        <time>2021-06-03T06:03:48Z</time>
      </trkpt>
      <trkpt lat="41.77931" lon="9.13556">
        <ele>855.2</ele>
        <time>2021-06-03T06:03:49Z</time>
      </trkpt>
      <trkpt lat="41.77935" lon="9.13555">
        <ele>855.2</ele>
        <time>2021-06-03T06:03:50Z</time>
      </trkpt>
      <trkpt lat="41.77939" lon="9.13551">
        <ele>854.2</ele>
        <time>2021-06-03T06:03:51Z</time>
      </trkpt>
      <trkpt lat="41.77941" lon="9.13551">
        <ele>853.8</ele>
        <time>2021-06-03T06:03:52Z</time>
      </trkpt>
      <trkpt lat="41.77944" lon="9.13546">
        <ele>853.8</ele>
        <time>2021-06-03T06:03:53Z</time>
      </trkpt>
      <trkpt lat="41.77945" lon="9.1354">
        <ele>853.8</ele>
        <time>2021-06-03T06:03:54Z</time>
      </trkpt>
      <trkpt lat="41.77947" lon="9.1353">
        <ele>853</ele>
        <time>2021-06-03T06:03:55Z</time>
      </trkpt>
      <trkpt lat="41.77948" lon="9.13523">
        <ele>853.6</ele>
        <time>2021-06-03T06:03:56Z</time>
      </trkpt>
      <trkpt lat="41.7795" lon="9.13514">
        <ele>853.6</ele>
        <time>2021-06-03T06:03:57Z</time>
      </trkpt>
      <trkpt lat="41.77951" lon="9.13506">
        <ele>853.6</ele>
        <time>2021-06-03T06:03:58Z</time>
      </trkpt>
      <trkpt lat="41.77951" lon="9.13498">
        <ele>853.6</ele>
        <time>2021-06-03T06:03:59Z</time>
      </trkpt>
      <trkpt lat="41.77953" lon="9.13494">
        <ele>855.8</ele>
        <time>2021-06-03T06:04:00Z</time>
      </trkpt>
      <trkpt lat="41.77953" lon="9.13489">
        <ele>855.8</ele>
        <time>2021-06-03T06:04:01Z</time>
      </trkpt>
      <trkpt lat="41.77953" lon="9.13485">
        <ele>855.8</ele>
        <time>2021-06-03T06:04:02Z</time>
      </trkpt>
      <trkpt lat="41.77953" lon="9.13482">
        <ele>855.8</ele>
        <time>2021-06-03T06:04:03Z</time>
      </trkpt>
      <trkpt lat="41.77953" lon="9.13479">
        <ele>856.6</ele>
        <time>2021-06-03T06:04:04Z</time>
      </trkpt>
      <trkpt lat="41.77953" lon="9.13477">
        <ele>856.6</ele>
        <time>2021-06-03T06:04:05Z</time>
      </trkpt>
      <trkpt lat="41.77952" lon="9.13475">
        <ele>856.6</ele>
        <time>2021-06-03T06:04:06Z</time>
      </trkpt>
      <trkpt lat="41.77951" lon="9.13474">
        <ele>857</ele>
        <time>2021-06-03T06:04:07Z</time>
      </trkpt>
      <trkpt lat="41.77949" lon="9.13472">
        <ele>857.6</ele>
        <time>2021-06-03T06:04:08Z</time>
      </trkpt>
      <trkpt lat="41.77948" lon="9.13471">
        <ele>857.6</ele>
        <time>2021-06-03T06:04:09Z</time>
      </trkpt>
      <trkpt lat="41.77946" lon="9.13471">
        <ele>857.6</ele>
        <time>2021-06-03T06:04:10Z</time>
      </trkpt>
      <trkpt lat="41.77945" lon="9.1347">
        <ele>857.6</ele>
        <time>2021-06-03T06:04:11Z</time>
      </trkpt>
      <trkpt lat="41.77944" lon="9.1347">
        <ele>858.4</ele>
        <time>2021-06-03T06:04:12Z</time>
      </trkpt>
      <trkpt lat="41.77943" lon="9.13469">
        <ele>858.4</ele>
        <time>2021-06-03T06:04:13Z</time>
      </trkpt>
      <trkpt lat="41.77942" lon="9.13468">
        <ele>858.4</ele>
        <time>2021-06-03T06:04:14Z</time>
      </trkpt>
      <trkpt lat="41.7794" lon="9.13468">
        <ele>858.4</ele>
        <time>2021-06-03T06:04:15Z</time>
      </trkpt>
      <trkpt lat="41.77939" lon="9.13467">
        <ele>859.2</ele>
        <time>2021-06-03T06:04:16Z</time>
      </trkpt>
      <trkpt lat="41.77938" lon="9.13467">
        <ele>859.2</ele>
        <time>2021-06-03T06:04:17Z</time>
      </trkpt>
      <trkpt lat="41.77937" lon="9.13466">
        <ele>859.2</ele>
        <time>2021-06-03T06:04:18Z</time>
      </trkpt>
      <trkpt lat="41.77935" lon="9.13465">
        <ele>859.8</ele>
        <time>2021-06-03T06:04:19Z</time>
      </trkpt>
      <trkpt lat="41.77934" lon="9.13465">
        <ele>859.8</ele>
        <time>2021-06-03T06:04:20Z</time>
      </trkpt>
      <trkpt lat="41.77933" lon="9.13464">
        <ele>859.8</ele>
        <time>2021-06-03T06:04:21Z</time>
      </trkpt>
      <trkpt lat="41.77932" lon="9.13464">
        <ele>859.8</ele>
        <time>2021-06-03T06:04:22Z</time>
      </trkpt>
      <trkpt lat="41.7793" lon="9.13464">
        <ele>860.6</ele>
        <time>2021-06-03T06:04:23Z</time>
      </trkpt>
      <trkpt lat="41.77929" lon="9.13463">
        <ele>860.8</ele>
        <time>2021-06-03T06:04:24Z</time>
      </trkpt>
      <trkpt lat="41.77928" lon="9.13463">
        <ele>860.8</ele>
        <time>2021-06-03T06:04:25Z</time>
      </trkpt>
      <trkpt lat="41.77927" lon="9.13463">
        <ele>860.8</ele>
        <time>2021-06-03T06:04:26Z</time>
      </trkpt>
      <trkpt lat="41.77925" lon="9.13463">
        <ele>860.8</ele>
        <time>2021-06-03T06:04:27Z</time>
      </trkpt>
      <trkpt lat="41.77924" lon="9.13463">
        <ele>861.6</ele>
        <time>2021-06-03T06:04:28Z</time>
      </trkpt>
      <trkpt lat="41.77923" lon="9.13463">
        <ele>861.6</ele>
        <time>2021-06-03T06:04:29Z</time>
      </trkpt>
      <trkpt lat="41.77922" lon="9.13462">
        <ele>861.6</ele>
        <time>2021-06-03T06:04:30Z</time>
      </trkpt>
      <trkpt lat="41.77921" lon="9.13462">
        <ele>861.6</ele>
        <time>2021-06-03T06:04:31Z</time>
      </trkpt>
      <trkpt lat="41.7792" lon="9.13461">
        <ele>862</ele>
        <time>2021-06-03T06:04:32Z</time>
      </trkpt>
      <trkpt lat="41.77919" lon="9.13461">
        <ele>862</ele>
        <time>2021-06-03T06:04:33Z</time>
      </trkpt>
      <trkpt lat="41.77918" lon="9.1346">
        <ele>862</ele>
        <time>2021-06-03T06:04:34Z</time>
      </trkpt>
      <trkpt lat="41.77916" lon="9.1346">
        <ele>862.6</ele>
        <time>2021-06-03T06:04:35Z</time>
      </trkpt>
      <trkpt lat="41.77915" lon="9.1346">
        <ele>863.2</ele>
        <time>2021-06-03T06:04:36Z</time>
      </trkpt>
      <trkpt lat="41.77914" lon="9.1346">
        <ele>863.2</ele>
        <time>2021-06-03T06:04:37Z</time>
      </trkpt>
      <trkpt lat="41.77913" lon="9.1346">
        <ele>863.2</ele>
        <time>2021-06-03T06:04:38Z</time>
      </trkpt>
      <trkpt lat="41.77912" lon="9.1346">
        <ele>863.2</ele>
        <time>2021-06-03T06:04:39Z</time>
      </trkpt>
      <trkpt lat="41.77912" lon="9.13461">
        <ele>864</ele>
        <time>2021-06-03T06:04:40Z</time>
      </trkpt>
      <trkpt lat="41.77911" lon="9.13461">
        <ele>864</ele>
        <time>2021-06-03T06:04:41Z</time>
      </trkpt>
      <trkpt lat="41.77911" lon="9.13461">
        <ele>864</ele>
        <time>2021-06-03T06:04:42Z</time>
      </trkpt>
      <trkpt lat="41.77911" lon="9.13461">
        <ele>864</ele>
        <time>2021-06-03T06:04:43Z</time>
      </trkpt>
      <trkpt lat="41.77884" lon="9.13461">
        <ele>867.6</ele>
        <time>2021-06-03T06:05:03Z</time>
      </trkpt>
      <trkpt lat="41.77883" lon="9.13461">
        <ele>867.8</ele>
        <time>2021-06-03T06:05:04Z</time>
      </trkpt>
      <trkpt lat="41.77882" lon="9.1346">
        <ele>867.8</ele>
        <time>2021-06-03T06:05:05Z</time>
      </trkpt>
      <trkpt lat="41.77881" lon="9.1346">
        <ele>867.8</ele>
        <time>2021-06-03T06:05:06Z</time>
      </trkpt>
      <trkpt lat="41.77878" lon="9.1346">
        <ele>868.2</ele>
        <time>2021-06-03T06:05:07Z</time>
      </trkpt>
      <trkpt lat="41.77877" lon="9.13459">
        <ele>868.6</ele>
        <time>2021-06-03T06:05:08Z</time>
      </trkpt>
      <trkpt lat="41.77875" lon="9.13459">
        <ele>868.6</ele>
        <time>2021-06-03T06:05:09Z</time>
      </trkpt>
      <trkpt lat="41.77873" lon="9.13459">
        <ele>868.6</ele>
        <time>2021-06-03T06:05:10Z</time>
      </trkpt>
      <trkpt lat="41.77871" lon="9.13459">
        <ele>869</ele>
        <time>2021-06-03T06:05:11Z</time>
      </trkpt>
      <trkpt lat="41.7787" lon="9.13459">
        <ele>869.2</ele>
        <time>2021-06-03T06:05:12Z</time>
      </trkpt>
      <trkpt lat="41.77869" lon="9.13459">
        <ele>869.2</ele>
        <time>2021-06-03T06:05:13Z</time>
      </trkpt>
      <trkpt lat="41.77868" lon="9.13459">
        <ele>869.2</ele>
        <time>2021-06-03T06:05:14Z</time>
      </trkpt>
      <trkpt lat="41.77866" lon="9.13459">
        <ele>869.6</ele>
        <time>2021-06-03T06:05:15Z</time>
      </trkpt>
      <trkpt lat="41.77865" lon="9.13459">
        <ele>870</ele>
        <time>2021-06-03T06:05:16Z</time>
      </trkpt>
      <trkpt lat="41.77863" lon="9.13459">
        <ele>870</ele>
        <time>2021-06-03T06:05:17Z</time>
      </trkpt>
      <trkpt lat="41.77862" lon="9.1346">
        <ele>870</ele>
        <time>2021-06-03T06:05:18Z</time>
      </trkpt>
      <trkpt lat="41.77861" lon="9.1346">
        <ele>870</ele>
        <time>2021-06-03T06:05:19Z</time>
      </trkpt>
      <trkpt lat="41.77859" lon="9.13459">
        <ele>870.4</ele>
        <time>2021-06-03T06:05:20Z</time>
      </trkpt>
      <trkpt lat="41.77858" lon="9.1346">
        <ele>870.4</ele>
        <time>2021-06-03T06:05:21Z</time>
      </trkpt>
      <trkpt lat="41.77857" lon="9.1346">
        <ele>870.4</ele>
        <time>2021-06-03T06:05:22Z</time>
      </trkpt>
      <trkpt lat="41.77855" lon="9.1346">
        <ele>871</ele>
        <time>2021-06-03T06:05:23Z</time>
      </trkpt>
      <trkpt lat="41.77853" lon="9.1346">
        <ele>871</ele>
        <time>2021-06-03T06:05:24Z</time>
      </trkpt>
      <trkpt lat="41.77852" lon="9.1346">
        <ele>871</ele>
        <time>2021-06-03T06:05:25Z</time>
      </trkpt>
      <trkpt lat="41.77851" lon="9.13459">
        <ele>871</ele>
        <time>2021-06-03T06:05:26Z</time>
      </trkpt>
      <trkpt lat="41.77849" lon="9.13459">
        <ele>871</ele>
        <time>2021-06-03T06:05:27Z</time>
      </trkpt>
      <trkpt lat="41.77847" lon="9.13458">
        <ele>871</ele>
        <time>2021-06-03T06:05:28Z</time>
      </trkpt>
      <trkpt lat="41.77845" lon="9.13457">
        <ele>871</ele>
        <time>2021-06-03T06:05:29Z</time>
      </trkpt>
      <trkpt lat="41.77844" lon="9.13457">
        <ele>871</ele>
        <time>2021-06-03T06:05:30Z</time>
      </trkpt>
      <trkpt lat="41.77842" lon="9.13457">
        <ele>871.6</ele>
        <time>2021-06-03T06:05:31Z</time>
      </trkpt>
      <trkpt lat="41.77841" lon="9.13456">
        <ele>871.6</ele>
        <time>2021-06-03T06:05:32Z</time>
      </trkpt>
      <trkpt lat="41.77839" lon="9.13456">
        <ele>871.6</ele>
        <time>2021-06-03T06:05:33Z</time>
      </trkpt>
      <trkpt lat="41.77838" lon="9.13456">
        <ele>871.6</ele>
        <time>2021-06-03T06:05:34Z</time>
      </trkpt>
      <trkpt lat="41.77836" lon="9.13456">
        <ele>871.8</ele>
        <time>2021-06-03T06:05:35Z</time>
      </trkpt>
      <trkpt lat="41.77835" lon="9.13455">
        <ele>872.2</ele>
        <time>2021-06-03T06:05:36Z</time>
      </trkpt>
      <trkpt lat="41.77834" lon="9.13455">
        <ele>872.2</ele>
        <time>2021-06-03T06:05:37Z</time>
      </trkpt>
      <trkpt lat="41.77833" lon="9.13455">
        <ele>872.2</ele>
        <time>2021-06-03T06:05:38Z</time>
      </trkpt>
      <trkpt lat="41.77832" lon="9.13455">
        <ele>872.2</ele>
        <time>2021-06-03T06:05:39Z</time>
      </trkpt>
      <trkpt lat="41.7783" lon="9.13455">
        <ele>872.4</ele>
        <time>2021-06-03T06:05:40Z</time>
      </trkpt>
      <trkpt lat="41.77829" lon="9.13455">
        <ele>872.4</ele>
        <time>2021-06-03T06:05:41Z</time>
      </trkpt>
      <trkpt lat="41.77827" lon="9.13455">
        <ele>872.4</ele>
        <time>2021-06-03T06:05:42Z</time>
      </trkpt>
      <trkpt lat="41.77826" lon="9.13456">
        <ele>872.4</ele>
        <time>2021-06-03T06:05:43Z</time>
      </trkpt>
      <trkpt lat="41.77824" lon="9.13456">
        <ele>872.4</ele>
        <time>2021-06-03T06:05:44Z</time>
      </trkpt>
      <trkpt lat="41.77822" lon="9.13456">
        <ele>872.4</ele>
        <time>2021-06-03T06:05:45Z</time>
      </trkpt>
      <trkpt lat="41.77821" lon="9.13457">
        <ele>872.4</ele>
        <time>2021-06-03T06:05:46Z</time>
      </trkpt>
      <trkpt lat="41.77819" lon="9.13457">
        <ele>872.4</ele>
        <time>2021-06-03T06:05:47Z</time>
      </trkpt>
      <trkpt lat="41.77817" lon="9.13457">
        <ele>872.6</ele>
        <time>2021-06-03T06:05:48Z</time>
      </trkpt>
      <trkpt lat="41.77816" lon="9.13457">
        <ele>872.6</ele>
        <time>2021-06-03T06:05:49Z</time>
      </trkpt>
      <trkpt lat="41.77815" lon="9.13458">
        <ele>872.6</ele>
        <time>2021-06-03T06:05:50Z</time>
      </trkpt>
      <trkpt lat="41.77813" lon="9.13458">
        <ele>873.4</ele>
        <time>2021-06-03T06:05:51Z</time>
      </trkpt>
      <trkpt lat="41.77812" lon="9.13458">
        <ele>873.2</ele>
        <time>2021-06-03T06:05:52Z</time>
      </trkpt>
      <trkpt lat="41.7781" lon="9.13458">
        <ele>873.2</ele>
        <time>2021-06-03T06:05:53Z</time>
      </trkpt>
      <trkpt lat="41.77809" lon="9.13459">
        <ele>873.2</ele>
        <time>2021-06-03T06:05:54Z</time>
      </trkpt>
      <trkpt lat="41.77808" lon="9.13459">
        <ele>873.2</ele>
        <time>2021-06-03T06:05:55Z</time>
      </trkpt>
      <trkpt lat="41.77806" lon="9.13459">
        <ele>873.4</ele>
        <time>2021-06-03T06:05:56Z</time>
      </trkpt>
      <trkpt lat="41.77805" lon="9.13459">
        <ele>873.4</ele>
        <time>2021-06-03T06:05:57Z</time>
      </trkpt>
      <trkpt lat="41.77803" lon="9.13458">
        <ele>873.4</ele>
        <time>2021-06-03T06:05:58Z</time>
      </trkpt>
      <trkpt lat="41.77801" lon="9.13457">
        <ele>873.4</ele>
        <time>2021-06-03T06:05:59Z</time>
      </trkpt>
      <trkpt lat="41.778" lon="9.13456">
        <ele>873.2</ele>
        <time>2021-06-03T06:06:00Z</time>
      </trkpt>
      <trkpt lat="41.77798" lon="9.13455">
        <ele>873.2</ele>
        <time>2021-06-03T06:06:01Z</time>
      </trkpt>
      <trkpt lat="41.77796" lon="9.13453">
        <ele>873.2</ele>
        <time>2021-06-03T06:06:02Z</time>
      </trkpt>
      <trkpt lat="41.77794" lon="9.13452">
        <ele>872.6</ele>
        <time>2021-06-03T06:06:03Z</time>
      </trkpt>
      <trkpt lat="41.77792" lon="9.13451">
        <ele>872.4</ele>
        <time>2021-06-03T06:06:04Z</time>
      </trkpt>
      <trkpt lat="41.77789" lon="9.13449">
        <ele>872.4</ele>
        <time>2021-06-03T06:06:05Z</time>
      </trkpt>
      <trkpt lat="41.77786" lon="9.13446">
        <ele>872.4</ele>
        <time>2021-06-03T06:06:06Z</time>
      </trkpt>
      <trkpt lat="41.77783" lon="9.13443">
        <ele>871.4</ele>
        <time>2021-06-03T06:06:07Z</time>
      </trkpt>
      <trkpt lat="41.7778" lon="9.13439">
        <ele>869.6</ele>
        <time>2021-06-03T06:06:08Z</time>
      </trkpt>
      <trkpt lat="41.77777" lon="9.13435">
        <ele>869.6</ele>
        <time>2021-06-03T06:06:09Z</time>
      </trkpt>
      <trkpt lat="41.77774" lon="9.13429">
        <ele>869.6</ele>
        <time>2021-06-03T06:06:10Z</time>
      </trkpt>
      <trkpt lat="41.77772" lon="9.13424">
        <ele>868.6</ele>
        <time>2021-06-03T06:06:11Z</time>
      </trkpt>
      <trkpt lat="41.77768" lon="9.13418">
        <ele>868.4</ele>
        <time>2021-06-03T06:06:12Z</time>
      </trkpt>
      <trkpt lat="41.77767" lon="9.13413">
        <ele>868.4</ele>
        <time>2021-06-03T06:06:13Z</time>
      </trkpt>
      <trkpt lat="41.77766" lon="9.13409">
        <ele>868.4</ele>
        <time>2021-06-03T06:06:14Z</time>
      </trkpt>
      <trkpt lat="41.77765" lon="9.13403">
        <ele>869.4</ele>
        <time>2021-06-03T06:06:15Z</time>
      </trkpt>
      <trkpt lat="41.77765" lon="9.13398">
        <ele>870.4</ele>
        <time>2021-06-03T06:06:16Z</time>
      </trkpt>
      <trkpt lat="41.77764" lon="9.13396">
        <ele>870.4</ele>
        <time>2021-06-03T06:06:17Z</time>
      </trkpt>
      <trkpt lat="41.77763" lon="9.13392">
        <ele>870.4</ele>
        <time>2021-06-03T06:06:18Z</time>
      </trkpt>
      <trkpt lat="41.77763" lon="9.13389">
        <ele>871.2</ele>
        <time>2021-06-03T06:06:19Z</time>
      </trkpt>
      <trkpt lat="41.77762" lon="9.13387">
        <ele>871</ele>
        <time>2021-06-03T06:06:20Z</time>
      </trkpt>
      <trkpt lat="41.77761" lon="9.13384">
        <ele>871</ele>
        <time>2021-06-03T06:06:21Z</time>
      </trkpt>
      <trkpt lat="41.7776" lon="9.13381">
        <ele>871</ele>
        <time>2021-06-03T06:06:22Z</time>
      </trkpt>
      <trkpt lat="41.77759" lon="9.13378">
        <ele>871.6</ele>
        <time>2021-06-03T06:06:23Z</time>
      </trkpt>
      <trkpt lat="41.77758" lon="9.13375">
        <ele>871.6</ele>
        <time>2021-06-03T06:06:24Z</time>
      </trkpt>
      <trkpt lat="41.77757" lon="9.13371">
        <ele>871.6</ele>
        <time>2021-06-03T06:06:25Z</time>
      </trkpt>
      <trkpt lat="41.77757" lon="9.13369">
        <ele>871.6</ele>
        <time>2021-06-03T06:06:26Z</time>
      </trkpt>
      <trkpt lat="41.77756" lon="9.13366">
        <ele>871.6</ele>
        <time>2021-06-03T06:06:27Z</time>
      </trkpt>
      <trkpt lat="41.77756" lon="9.13363">
        <ele>871.6</ele>
        <time>2021-06-03T06:06:28Z</time>
      </trkpt>
      <trkpt lat="41.77756" lon="9.1336">
        <ele>871.6</ele>
        <time>2021-06-03T06:06:29Z</time>
      </trkpt>
      <trkpt lat="41.77756" lon="9.13356">
        <ele>871.6</ele>
        <time>2021-06-03T06:06:30Z</time>
      </trkpt>
      <trkpt lat="41.77754" lon="9.13352">
        <ele>872</ele>
        <time>2021-06-03T06:06:31Z</time>
      </trkpt>
      <trkpt lat="41.77752" lon="9.13348">
        <ele>872</ele>
        <time>2021-06-03T06:06:32Z</time>
      </trkpt>
      <trkpt lat="41.77753" lon="9.13345">
        <ele>872</ele>
        <time>2021-06-03T06:06:33Z</time>
      </trkpt>
      <trkpt lat="41.77752" lon="9.13341">
        <ele>872</ele>
        <time>2021-06-03T06:06:34Z</time>
      </trkpt>
      <trkpt lat="41.77751" lon="9.13339">
        <ele>872</ele>
        <time>2021-06-03T06:06:35Z</time>
      </trkpt>
      <trkpt lat="41.7775" lon="9.13335">
        <ele>872.4</ele>
        <time>2021-06-03T06:06:36Z</time>
      </trkpt>
      <trkpt lat="41.77751" lon="9.13332">
        <ele>872.4</ele>
        <time>2021-06-03T06:06:37Z</time>
      </trkpt>
      <trkpt lat="41.77751" lon="9.13328">
        <ele>872.4</ele>
        <time>2021-06-03T06:06:38Z</time>
      </trkpt>
      <trkpt lat="41.77749" lon="9.13326">
        <ele>872.4</ele>
        <time>2021-06-03T06:06:39Z</time>
      </trkpt>
      <trkpt lat="41.7775" lon="9.13322">
        <ele>872.6</ele>
        <time>2021-06-03T06:06:40Z</time>
      </trkpt>
      <trkpt lat="41.7775" lon="9.13318">
        <ele>872.6</ele>
        <time>2021-06-03T06:06:41Z</time>
      </trkpt>
      <trkpt lat="41.7775" lon="9.13315">
        <ele>872.6</ele>
        <time>2021-06-03T06:06:42Z</time>
      </trkpt>
      <trkpt lat="41.77751" lon="9.13312">
        <ele>873</ele>
        <time>2021-06-03T06:06:43Z</time>
      </trkpt>
      <trkpt lat="41.77751" lon="9.13309">
        <ele>873.2</ele>
        <time>2021-06-03T06:06:44Z</time>
      </trkpt>
      <trkpt lat="41.77753" lon="9.13306">
        <ele>873.2</ele>
        <time>2021-06-03T06:06:45Z</time>
      </trkpt>
      <trkpt lat="41.77753" lon="9.13303">
        <ele>873.2</ele>
        <time>2021-06-03T06:06:46Z</time>
      </trkpt>
      <trkpt lat="41.77752" lon="9.13299">
        <ele>873.2</ele>
        <time>2021-06-03T06:06:47Z</time>
      </trkpt>
      <trkpt lat="41.77752" lon="9.13296">
        <ele>873.2</ele>
        <time>2021-06-03T06:06:48Z</time>
      </trkpt>
      <trkpt lat="41.77752" lon="9.13292">
        <ele>873.2</ele>
        <time>2021-06-03T06:06:49Z</time>
      </trkpt>
      <trkpt lat="41.77753" lon="9.1329">
        <ele>873.2</ele>
        <time>2021-06-03T06:06:50Z</time>
      </trkpt>
      <trkpt lat="41.77753" lon="9.13289">
        <ele>873.8</ele>
        <time>2021-06-03T06:06:51Z</time>
      </trkpt>
      <trkpt lat="41.77753" lon="9.13286">
        <ele>873.6</ele>
        <time>2021-06-03T06:06:52Z</time>
      </trkpt>
      <trkpt lat="41.77752" lon="9.13283">
        <ele>873.6</ele>
        <time>2021-06-03T06:06:53Z</time>
      </trkpt>
      <trkpt lat="41.77751" lon="9.1328">
        <ele>873.6</ele>
        <time>2021-06-03T06:06:54Z</time>
      </trkpt>
      <trkpt lat="41.7775" lon="9.13278">
        <ele>874</ele>
        <time>2021-06-03T06:06:55Z</time>
      </trkpt>
      <trkpt lat="41.77749" lon="9.13276">
        <ele>874.2</ele>
        <time>2021-06-03T06:06:56Z</time>
      </trkpt>
      <trkpt lat="41.77747" lon="9.13273">
        <ele>874.2</ele>
        <time>2021-06-03T06:06:57Z</time>
      </trkpt>
      <trkpt lat="41.77745" lon="9.13271">
        <ele>874.2</ele>
        <time>2021-06-03T06:06:58Z</time>
      </trkpt>
      <trkpt lat="41.77742" lon="9.13268">
        <ele>874.2</ele>
        <time>2021-06-03T06:06:59Z</time>
      </trkpt>
      <trkpt lat="41.7774" lon="9.13265">
        <ele>874.8</ele>
        <time>2021-06-03T06:07:00Z</time>
      </trkpt>
      <trkpt lat="41.77738" lon="9.13262">
        <ele>874.8</ele>
        <time>2021-06-03T06:07:01Z</time>
      </trkpt>
      <trkpt lat="41.77737" lon="9.13261">
        <ele>874.8</ele>
        <time>2021-06-03T06:07:02Z</time>
      </trkpt>
      <trkpt lat="41.77736" lon="9.13259">
        <ele>874.8</ele>
        <time>2021-06-03T06:07:03Z</time>
      </trkpt>
      <trkpt lat="41.77735" lon="9.13257">
        <ele>875.6</ele>
        <time>2021-06-03T06:07:04Z</time>
      </trkpt>
      <trkpt lat="41.77734" lon="9.13255">
        <ele>875.6</ele>
        <time>2021-06-03T06:07:05Z</time>
      </trkpt>
      <trkpt lat="41.77732" lon="9.13252">
        <ele>875.6</ele>
        <time>2021-06-03T06:07:06Z</time>
      </trkpt>
      <trkpt lat="41.77731" lon="9.1325">
        <ele>875.4</ele>
        <time>2021-06-03T06:07:07Z</time>
      </trkpt>
      <trkpt lat="41.77731" lon="9.13249">
        <ele>875.4</ele>
        <time>2021-06-03T06:07:08Z</time>
      </trkpt>
      <trkpt lat="41.77731" lon="9.13247">
        <ele>875.4</ele>
        <time>2021-06-03T06:07:09Z</time>
      </trkpt>
      <trkpt lat="41.77731" lon="9.13243">
        <ele>875.4</ele>
        <time>2021-06-03T06:07:10Z</time>
      </trkpt>
      <trkpt lat="41.7773" lon="9.1324">
        <ele>875.8</ele>
        <time>2021-06-03T06:07:11Z</time>
      </trkpt>
      <trkpt lat="41.77728" lon="9.13236">
        <ele>875.8</ele>
        <time>2021-06-03T06:07:12Z</time>
      </trkpt>
      <trkpt lat="41.77726" lon="9.13232">
        <ele>875.8</ele>
        <time>2021-06-03T06:07:13Z</time>
      </trkpt>
      <trkpt lat="41.77725" lon="9.13228">
        <ele>875.8</ele>
        <time>2021-06-03T06:07:14Z</time>
      </trkpt>
      <trkpt lat="41.77723" lon="9.13225">
        <ele>875.8</ele>
        <time>2021-06-03T06:07:15Z</time>
      </trkpt>
      <trkpt lat="41.77723" lon="9.13222">
        <ele>876</ele>
        <time>2021-06-03T06:07:16Z</time>
      </trkpt>
      <trkpt lat="41.77722" lon="9.13219">
        <ele>876</ele>
        <time>2021-06-03T06:07:17Z</time>
      </trkpt>
      <trkpt lat="41.7772" lon="9.13215">
        <ele>876</ele>
        <time>2021-06-03T06:07:18Z</time>
      </trkpt>
      <trkpt lat="41.7772" lon="9.13213">
        <ele>876.4</ele>
        <time>2021-06-03T06:07:19Z</time>
      </trkpt>
      <trkpt lat="41.77719" lon="9.1321">
        <ele>876.6</ele>
        <time>2021-06-03T06:07:20Z</time>
      </trkpt>
      <trkpt lat="41.77719" lon="9.13208">
        <ele>876.6</ele>
        <time>2021-06-03T06:07:21Z</time>
      </trkpt>
      <trkpt lat="41.77719" lon="9.13206">
        <ele>876.6</ele>
        <time>2021-06-03T06:07:22Z</time>
      </trkpt>
      <trkpt lat="41.77718" lon="9.13204">
        <ele>877</ele>
        <time>2021-06-03T06:07:23Z</time>
      </trkpt>
      <trkpt lat="41.77716" lon="9.132">
        <ele>877.4</ele>
        <time>2021-06-03T06:07:24Z</time>
      </trkpt>
      <trkpt lat="41.77715" lon="9.13198">
        <ele>877.4</ele>
        <time>2021-06-03T06:07:25Z</time>
      </trkpt>
      <trkpt lat="41.77713" lon="9.13196">
        <ele>877.4</ele>
        <time>2021-06-03T06:07:26Z</time>
      </trkpt>
      <trkpt lat="41.77712" lon="9.13193">
        <ele>877</ele>
        <time>2021-06-03T06:07:27Z</time>
      </trkpt>
      <trkpt lat="41.77711" lon="9.13191">
        <ele>877.4</ele>
        <time>2021-06-03T06:07:28Z</time>
      </trkpt>
      <trkpt lat="41.77708" lon="9.13188">
        <ele>877.4</ele>
        <time>2021-06-03T06:07:29Z</time>
      </trkpt>
      <trkpt lat="41.77705" lon="9.13185">
        <ele>877.4</ele>
        <time>2021-06-03T06:07:30Z</time>
      </trkpt>
      <trkpt lat="41.77704" lon="9.13183">
        <ele>877.4</ele>
        <time>2021-06-03T06:07:31Z</time>
      </trkpt>
      <trkpt lat="41.77702" lon="9.13181">
        <ele>878</ele>
        <time>2021-06-03T06:07:32Z</time>
      </trkpt>
      <trkpt lat="41.77701" lon="9.13179">
        <ele>878</ele>
        <time>2021-06-03T06:07:33Z</time>
      </trkpt>
      <trkpt lat="41.777" lon="9.13178">
        <ele>878</ele>
        <time>2021-06-03T06:07:34Z</time>
      </trkpt>
      <trkpt lat="41.77699" lon="9.13176">
        <ele>878</ele>
        <time>2021-06-03T06:07:35Z</time>
      </trkpt>
      <trkpt lat="41.77698" lon="9.13174">
        <ele>878</ele>
        <time>2021-06-03T06:07:36Z</time>
      </trkpt>
      <trkpt lat="41.77697" lon="9.13173">
        <ele>878</ele>
        <time>2021-06-03T06:07:37Z</time>
      </trkpt>
      <trkpt lat="41.77696" lon="9.13172">
        <ele>878</ele>
        <time>2021-06-03T06:07:38Z</time>
      </trkpt>
      <trkpt lat="41.77695" lon="9.13171">
        <ele>878.4</ele>
        <time>2021-06-03T06:07:39Z</time>
      </trkpt>
      <trkpt lat="41.77695" lon="9.13169">
        <ele>878.6</ele>
        <time>2021-06-03T06:07:40Z</time>
      </trkpt>
      <trkpt lat="41.77694" lon="9.13167">
        <ele>878.6</ele>
        <time>2021-06-03T06:07:41Z</time>
      </trkpt>
      <trkpt lat="41.77694" lon="9.13165">
        <ele>878.6</ele>
        <time>2021-06-03T06:07:42Z</time>
      </trkpt>
      <trkpt lat="41.77693" lon="9.13164">
        <ele>878.6</ele>
        <time>2021-06-03T06:07:43Z</time>
      </trkpt>
      <trkpt lat="41.77692" lon="9.13162">
        <ele>879.2</ele>
        <time>2021-06-03T06:07:44Z</time>
      </trkpt>
      <trkpt lat="41.77691" lon="9.13161">
        <ele>879.2</ele>
        <time>2021-06-03T06:07:45Z</time>
      </trkpt>
      <trkpt lat="41.7769" lon="9.13159">
        <ele>879.2</ele>
        <time>2021-06-03T06:07:46Z</time>
      </trkpt>
      <trkpt lat="41.77689" lon="9.13158">
        <ele>879.2</ele>
        <time>2021-06-03T06:07:47Z</time>
      </trkpt>
      <trkpt lat="41.77689" lon="9.13158">
        <ele>880</ele>
        <time>2021-06-03T06:07:48Z</time>
      </trkpt>
      <trkpt lat="41.7768" lon="9.13135">
        <ele>880.4</ele>
        <time>2021-06-03T06:07:56Z</time>
      </trkpt>
      <trkpt lat="41.77679" lon="9.13133">
        <ele>880.4</ele>
        <time>2021-06-03T06:07:57Z</time>
      </trkpt>
      <trkpt lat="41.77677" lon="9.1313">
        <ele>880.4</ele>
        <time>2021-06-03T06:07:58Z</time>
      </trkpt>
      <trkpt lat="41.77677" lon="9.13129">
        <ele>880.4</ele>
        <time>2021-06-03T06:07:59Z</time>
      </trkpt>
      <trkpt lat="41.77677" lon="9.13127">
        <ele>881.4</ele>
        <time>2021-06-03T06:08:00Z</time>
      </trkpt>
      <trkpt lat="41.77676" lon="9.13125">
        <ele>881.4</ele>
        <time>2021-06-03T06:08:01Z</time>
      </trkpt>
      <trkpt lat="41.77676" lon="9.13124">
        <ele>881.4</ele>
        <time>2021-06-03T06:08:02Z</time>
      </trkpt>
      <trkpt lat="41.77676" lon="9.13122">
        <ele>881</ele>
        <time>2021-06-03T06:08:03Z</time>
      </trkpt>
      <trkpt lat="41.77676" lon="9.13121">
        <ele>881.2</ele>
        <time>2021-06-03T06:08:04Z</time>
      </trkpt>
      <trkpt lat="41.77675" lon="9.1312">
        <ele>881.2</ele>
        <time>2021-06-03T06:08:05Z</time>
      </trkpt>
      <trkpt lat="41.77674" lon="9.13118">
        <ele>881.2</ele>
        <time>2021-06-03T06:08:06Z</time>
      </trkpt>
      <trkpt lat="41.77673" lon="9.13117">
        <ele>881.6</ele>
        <time>2021-06-03T06:08:07Z</time>
      </trkpt>
      <trkpt lat="41.77672" lon="9.13115">
        <ele>881.8</ele>
        <time>2021-06-03T06:08:08Z</time>
      </trkpt>
      <trkpt lat="41.77671" lon="9.13114">
        <ele>881.8</ele>
        <time>2021-06-03T06:08:09Z</time>
      </trkpt>
      <trkpt lat="41.77671" lon="9.13112">
        <ele>881.8</ele>
        <time>2021-06-03T06:08:10Z</time>
      </trkpt>
      <trkpt lat="41.7767" lon="9.1311">
        <ele>882</ele>
        <time>2021-06-03T06:08:11Z</time>
      </trkpt>
      <trkpt lat="41.77669" lon="9.13108">
        <ele>882.6</ele>
        <time>2021-06-03T06:08:12Z</time>
      </trkpt>
      <trkpt lat="41.77669" lon="9.13106">
        <ele>882.6</ele>
        <time>2021-06-03T06:08:13Z</time>
      </trkpt>
      <trkpt lat="41.77667" lon="9.13105">
        <ele>882.6</ele>
        <time>2021-06-03T06:08:14Z</time>
      </trkpt>
      <trkpt lat="41.77666" lon="9.13103">
        <ele>882.6</ele>
        <time>2021-06-03T06:08:15Z</time>
      </trkpt>
      <trkpt lat="41.77665" lon="9.13101">
        <ele>882.8</ele>
        <time>2021-06-03T06:08:16Z</time>
      </trkpt>
      <trkpt lat="41.77664" lon="9.131">
        <ele>882.8</ele>
        <time>2021-06-03T06:08:17Z</time>
      </trkpt>
      <trkpt lat="41.77662" lon="9.13098">
        <ele>882.8</ele>
        <time>2021-06-03T06:08:18Z</time>
      </trkpt>
      <trkpt lat="41.77662" lon="9.13097">
        <ele>882.8</ele>
        <time>2021-06-03T06:08:19Z</time>
      </trkpt>
      <trkpt lat="41.7766" lon="9.13095">
        <ele>883.2</ele>
        <time>2021-06-03T06:08:20Z</time>
      </trkpt>
      <trkpt lat="41.77659" lon="9.13093">
        <ele>883.2</ele>
        <time>2021-06-03T06:08:21Z</time>
      </trkpt>
      <trkpt lat="41.77658" lon="9.13091">
        <ele>883.2</ele>
        <time>2021-06-03T06:08:22Z</time>
      </trkpt>
      <trkpt lat="41.77657" lon="9.1309">
        <ele>883.2</ele>
        <time>2021-06-03T06:08:23Z</time>
      </trkpt>
      <trkpt lat="41.77656" lon="9.13089">
        <ele>883</ele>
        <time>2021-06-03T06:08:24Z</time>
      </trkpt>
      <trkpt lat="41.77655" lon="9.13088">
        <ele>883</ele>
        <time>2021-06-03T06:08:25Z</time>
      </trkpt>
      <trkpt lat="41.77654" lon="9.13086">
        <ele>883</ele>
        <time>2021-06-03T06:08:26Z</time>
      </trkpt>
      <trkpt lat="41.77654" lon="9.13084">
        <ele>883.4</ele>
        <time>2021-06-03T06:08:27Z</time>
      </trkpt>
      <trkpt lat="41.77652" lon="9.13083">
        <ele>883.4</ele>
        <time>2021-06-03T06:08:28Z</time>
      </trkpt>
      <trkpt lat="41.77652" lon="9.1308">
        <ele>883.4</ele>
        <time>2021-06-03T06:08:29Z</time>
      </trkpt>
      <trkpt lat="41.77651" lon="9.13077">
        <ele>883.4</ele>
        <time>2021-06-03T06:08:30Z</time>
      </trkpt>
      <trkpt lat="41.7765" lon="9.13075">
        <ele>883.4</ele>
        <time>2021-06-03T06:08:31Z</time>
      </trkpt>
      <trkpt lat="41.77648" lon="9.13072">
        <ele>883.6</ele>
        <time>2021-06-03T06:08:32Z</time>
      </trkpt>
      <trkpt lat="41.77647" lon="9.13069">
        <ele>883.6</ele>
        <time>2021-06-03T06:08:33Z</time>
      </trkpt>
      <trkpt lat="41.77645" lon="9.13066">
        <ele>883.6</ele>
        <time>2021-06-03T06:08:34Z</time>
      </trkpt>
      <trkpt lat="41.77644" lon="9.13064">
        <ele>883.6</ele>
        <time>2021-06-03T06:08:35Z</time>
      </trkpt>
      <trkpt lat="41.77643" lon="9.13061">
        <ele>883.8</ele>
        <time>2021-06-03T06:08:36Z</time>
      </trkpt>
      <trkpt lat="41.77641" lon="9.13059">
        <ele>883.8</ele>
        <time>2021-06-03T06:08:37Z</time>
      </trkpt>
      <trkpt lat="41.7764" lon="9.13057">
        <ele>883.8</ele>
        <time>2021-06-03T06:08:38Z</time>
      </trkpt>
      <trkpt lat="41.77639" lon="9.13054">
        <ele>883.8</ele>
        <time>2021-06-03T06:08:39Z</time>
      </trkpt>
      <trkpt lat="41.77638" lon="9.13052">
        <ele>884</ele>
        <time>2021-06-03T06:08:40Z</time>
      </trkpt>
      <trkpt lat="41.77636" lon="9.1305">
        <ele>884</ele>
        <time>2021-06-03T06:08:41Z</time>
      </trkpt>
      <trkpt lat="41.77635" lon="9.13048">
        <ele>884</ele>
        <time>2021-06-03T06:08:42Z</time>
      </trkpt>
      <trkpt lat="41.77634" lon="9.13046">
        <ele>884</ele>
        <time>2021-06-03T06:08:43Z</time>
      </trkpt>
      <trkpt lat="41.77633" lon="9.13044">
        <ele>884.6</ele>
        <time>2021-06-03T06:08:44Z</time>
      </trkpt>
      <trkpt lat="41.77632" lon="9.13043">
        <ele>884.6</ele>
        <time>2021-06-03T06:08:45Z</time>
      </trkpt>
      <trkpt lat="41.77631" lon="9.13041">
        <ele>884.6</ele>
        <time>2021-06-03T06:08:46Z</time>
      </trkpt>
      <trkpt lat="41.7763" lon="9.13039">
        <ele>885.2</ele>
        <time>2021-06-03T06:08:47Z</time>
      </trkpt>
      <trkpt lat="41.77629" lon="9.13037">
        <ele>885.6</ele>
        <time>2021-06-03T06:08:48Z</time>
      </trkpt>
      <trkpt lat="41.77628" lon="9.13036">
        <ele>885.6</ele>
        <time>2021-06-03T06:08:49Z</time>
      </trkpt>
      <trkpt lat="41.77627" lon="9.13034">
        <ele>885.6</ele>
        <time>2021-06-03T06:08:50Z</time>
      </trkpt>
      <trkpt lat="41.77626" lon="9.13032">
        <ele>886.6</ele>
        <time>2021-06-03T06:08:51Z</time>
      </trkpt>
      <trkpt lat="41.77625" lon="9.1303">
        <ele>886.6</ele>
        <time>2021-06-03T06:08:52Z</time>
      </trkpt>
      <trkpt lat="41.77623" lon="9.13029">
        <ele>886.6</ele>
        <time>2021-06-03T06:08:53Z</time>
      </trkpt>
      <trkpt lat="41.77622" lon="9.13027">
        <ele>886.6</ele>
        <time>2021-06-03T06:08:54Z</time>
      </trkpt>
      <trkpt lat="41.77621" lon="9.13025">
        <ele>887.6</ele>
        <time>2021-06-03T06:08:55Z</time>
      </trkpt>
      <trkpt lat="41.77619" lon="9.13024">
        <ele>887.6</ele>
        <time>2021-06-03T06:08:56Z</time>
      </trkpt>
      <trkpt lat="41.77618" lon="9.13022">
        <ele>887.6</ele>
        <time>2021-06-03T06:08:57Z</time>
      </trkpt>
      <trkpt lat="41.77617" lon="9.1302">
        <ele>887.6</ele>
        <time>2021-06-03T06:08:58Z</time>
      </trkpt>
      <trkpt lat="41.77616" lon="9.13019">
        <ele>887.6</ele>
        <time>2021-06-03T06:08:59Z</time>
      </trkpt>
      <trkpt lat="41.77616" lon="9.13017">
        <ele>888.4</ele>
        <time>2021-06-03T06:09:00Z</time>
      </trkpt>
      <trkpt lat="41.77615" lon="9.13016">
        <ele>888.4</ele>
        <time>2021-06-03T06:09:01Z</time>
      </trkpt>
      <trkpt lat="41.77614" lon="9.13014">
        <ele>888.4</ele>
        <time>2021-06-03T06:09:02Z</time>
      </trkpt>
      <trkpt lat="41.77613" lon="9.13013">
        <ele>888.4</ele>
        <time>2021-06-03T06:09:03Z</time>
      </trkpt>
      <trkpt lat="41.77613" lon="9.13012">
        <ele>889.2</ele>
        <time>2021-06-03T06:09:04Z</time>
      </trkpt>
      <trkpt lat="41.77612" lon="9.13011">
        <ele>889.2</ele>
        <time>2021-06-03T06:09:05Z</time>
      </trkpt>
      <trkpt lat="41.77611" lon="9.1301">
        <ele>889.2</ele>
        <time>2021-06-03T06:09:06Z</time>
      </trkpt>
      <trkpt lat="41.7761" lon="9.13009">
        <ele>889.8</ele>
        <time>2021-06-03T06:09:07Z</time>
      </trkpt>
      <trkpt lat="41.7761" lon="9.13008">
        <ele>889.4</ele>
        <time>2021-06-03T06:09:08Z</time>
      </trkpt>
      <trkpt lat="41.77609" lon="9.13007">
        <ele>889.4</ele>
        <time>2021-06-03T06:09:09Z</time>
      </trkpt>
      <trkpt lat="41.77608" lon="9.13005">
        <ele>889.4</ele>
        <time>2021-06-03T06:09:10Z</time>
      </trkpt>
      <trkpt lat="41.77608" lon="9.13003">
        <ele>889.8</ele>
        <time>2021-06-03T06:09:11Z</time>
      </trkpt>
      <trkpt lat="41.77607" lon="9.13001">
        <ele>890.2</ele>
        <time>2021-06-03T06:09:12Z</time>
      </trkpt>
      <trkpt lat="41.77607" lon="9.13">
        <ele>890.2</ele>
        <time>2021-06-03T06:09:13Z</time>
      </trkpt>
      <trkpt lat="41.77607" lon="9.12998">
        <ele>890.2</ele>
        <time>2021-06-03T06:09:14Z</time>
      </trkpt>
      <trkpt lat="41.77607" lon="9.12998">
        <ele>890.4</ele>
        <time>2021-06-03T06:09:15Z</time>
      </trkpt>
      <trkpt lat="41.77607" lon="9.12998">
        <ele>890.8</ele>
        <time>2021-06-03T06:09:16Z</time>
      </trkpt>
      <trkpt lat="41.77545" lon="9.12862">
        <ele>905.6</ele>
        <time>2021-06-03T06:10:38Z</time>
      </trkpt>
      <trkpt lat="41.77545" lon="9.1286">
        <ele>905.6</ele>
        <time>2021-06-03T06:10:39Z</time>
      </trkpt>
      <trkpt lat="41.77544" lon="9.12857">
        <ele>906.4</ele>
        <time>2021-06-03T06:10:40Z</time>
      </trkpt>
      <trkpt lat="41.77544" lon="9.12855">
        <ele>906.4</ele>
        <time>2021-06-03T06:10:41Z</time>
      </trkpt>
      <trkpt lat="41.77543" lon="9.12853">
        <ele>906.4</ele>
        <time>2021-06-03T06:10:42Z</time>
      </trkpt>
      <trkpt lat="41.77543" lon="9.12851">
        <ele>907.2</ele>
        <time>2021-06-03T06:10:43Z</time>
      </trkpt>
      <trkpt lat="41.77542" lon="9.12849">
        <ele>907.4</ele>
        <time>2021-06-03T06:10:44Z</time>
      </trkpt>
      <trkpt lat="41.77542" lon="9.12847">
        <ele>907.4</ele>
        <time>2021-06-03T06:10:45Z</time>
      </trkpt>
      <trkpt lat="41.77541" lon="9.12845">
        <ele>907.4</ele>
        <time>2021-06-03T06:10:46Z</time>
      </trkpt>
      <trkpt lat="41.77541" lon="9.12844">
        <ele>907.4</ele>
        <time>2021-06-03T06:10:47Z</time>
      </trkpt>
      <trkpt lat="41.7754" lon="9.12842">
        <ele>907.8</ele>
        <time>2021-06-03T06:10:48Z</time>
      </trkpt>
      <trkpt lat="41.7754" lon="9.1284">
        <ele>907.8</ele>
        <time>2021-06-03T06:10:49Z</time>
      </trkpt>
      <trkpt lat="41.7754" lon="9.12838">
        <ele>907.8</ele>
        <time>2021-06-03T06:10:50Z</time>
      </trkpt>
      <trkpt lat="41.77539" lon="9.12836">
        <ele>908.2</ele>
        <time>2021-06-03T06:10:51Z</time>
      </trkpt>
      <trkpt lat="41.77539" lon="9.12834">
        <ele>908.2</ele>
        <time>2021-06-03T06:10:52Z</time>
      </trkpt>
      <trkpt lat="41.77538" lon="9.12832">
        <ele>908.2</ele>
        <time>2021-06-03T06:10:53Z</time>
      </trkpt>
      <trkpt lat="41.77538" lon="9.1283">
        <ele>908.2</ele>
        <time>2021-06-03T06:10:54Z</time>
      </trkpt>
      <trkpt lat="41.77537" lon="9.12828">
        <ele>908.4</ele>
        <time>2021-06-03T06:10:55Z</time>
      </trkpt>
      <trkpt lat="41.77537" lon="9.12826">
        <ele>908.4</ele>
        <time>2021-06-03T06:10:56Z</time>
      </trkpt>
      <trkpt lat="41.77537" lon="9.12824">
        <ele>908.4</ele>
        <time>2021-06-03T06:10:57Z</time>
      </trkpt>
      <trkpt lat="41.77536" lon="9.12822">
        <ele>908.4</ele>
        <time>2021-06-03T06:10:58Z</time>
      </trkpt>
      <trkpt lat="41.77536" lon="9.1282">
        <ele>908.6</ele>
        <time>2021-06-03T06:10:59Z</time>
      </trkpt>
      <trkpt lat="41.77536" lon="9.12818">
        <ele>907.4</ele>
        <time>2021-06-03T06:11:00Z</time>
      </trkpt>
      <trkpt lat="41.77536" lon="9.12816">
        <ele>907.4</ele>
        <time>2021-06-03T06:11:01Z</time>
      </trkpt>
      <trkpt lat="41.77536" lon="9.12814">
        <ele>907.4</ele>
        <time>2021-06-03T06:11:02Z</time>
      </trkpt>
      <trkpt lat="41.77536" lon="9.12811">
        <ele>908.4</ele>
        <time>2021-06-03T06:11:03Z</time>
      </trkpt>
      <trkpt lat="41.77536" lon="9.12809">
        <ele>908.2</ele>
        <time>2021-06-03T06:11:04Z</time>
      </trkpt>
      <trkpt lat="41.77537" lon="9.12806">
        <ele>908.2</ele>
        <time>2021-06-03T06:11:05Z</time>
      </trkpt>
      <trkpt lat="41.77537" lon="9.12802">
        <ele>908.2</ele>
        <time>2021-06-03T06:11:06Z</time>
      </trkpt>
      <trkpt lat="41.77537" lon="9.12798">
        <ele>907.2</ele>
        <time>2021-06-03T06:11:07Z</time>
      </trkpt>
      <trkpt lat="41.77538" lon="9.12793">
        <ele>906.4</ele>
        <time>2021-06-03T06:11:08Z</time>
      </trkpt>
      <trkpt lat="41.77539" lon="9.12789">
        <ele>906.4</ele>
        <time>2021-06-03T06:11:09Z</time>
      </trkpt>
      <trkpt lat="41.77541" lon="9.12783">
        <ele>906.4</ele>
        <time>2021-06-03T06:11:10Z</time>
      </trkpt>
      <trkpt lat="41.77542" lon="9.12778">
        <ele>905.4</ele>
        <time>2021-06-03T06:11:11Z</time>
      </trkpt>
      <trkpt lat="41.77545" lon="9.12773">
        <ele>903</ele>
        <time>2021-06-03T06:11:12Z</time>
      </trkpt>
      <trkpt lat="41.77548" lon="9.12767">
        <ele>903</ele>
        <time>2021-06-03T06:11:13Z</time>
      </trkpt>
      <trkpt lat="41.77551" lon="9.12761">
        <ele>903</ele>
        <time>2021-06-03T06:11:14Z</time>
      </trkpt>
      <trkpt lat="41.77555" lon="9.12754">
        <ele>902</ele>
        <time>2021-06-03T06:11:15Z</time>
      </trkpt>
      <trkpt lat="41.77559" lon="9.12746">
        <ele>901</ele>
        <time>2021-06-03T06:11:16Z</time>
      </trkpt>
      <trkpt lat="41.77563" lon="9.12738">
        <ele>901</ele>
        <time>2021-06-03T06:11:17Z</time>
      </trkpt>
      <trkpt lat="41.77567" lon="9.1273">
        <ele>901</ele>
        <time>2021-06-03T06:11:18Z</time>
      </trkpt>
      <trkpt lat="41.77569" lon="9.12721">
        <ele>900</ele>
        <time>2021-06-03T06:11:19Z</time>
      </trkpt>
      <trkpt lat="41.7757" lon="9.12712">
        <ele>900.6</ele>
        <time>2021-06-03T06:11:20Z</time>
      </trkpt>
      <trkpt lat="41.77571" lon="9.12703">
        <ele>900.6</ele>
        <time>2021-06-03T06:11:21Z</time>
      </trkpt>
      <trkpt lat="41.77573" lon="9.12695">
        <ele>900.6</ele>
        <time>2021-06-03T06:11:22Z</time>
      </trkpt>
      <trkpt lat="41.77575" lon="9.12688">
        <ele>901.6</ele>
        <time>2021-06-03T06:11:23Z</time>
      </trkpt>
      <trkpt lat="41.77577" lon="9.12682">
        <ele>902.4</ele>
        <time>2021-06-03T06:11:24Z</time>
      </trkpt>
      <trkpt lat="41.77581" lon="9.12677">
        <ele>902.4</ele>
        <time>2021-06-03T06:11:25Z</time>
      </trkpt>
      <trkpt lat="41.77585" lon="9.12673">
        <ele>902.4</ele>
        <time>2021-06-03T06:11:26Z</time>
      </trkpt>
      <trkpt lat="41.77589" lon="9.12671">
        <ele>903.4</ele>
        <time>2021-06-03T06:11:27Z</time>
      </trkpt>
      <trkpt lat="41.77591" lon="9.12671">
        <ele>904.6</ele>
        <time>2021-06-03T06:11:28Z</time>
      </trkpt>
      <trkpt lat="41.77593" lon="9.12671">
        <ele>904.6</ele>
        <time>2021-06-03T06:11:29Z</time>
      </trkpt>
      <trkpt lat="41.77595" lon="9.12672">
        <ele>904.6</ele>
        <time>2021-06-03T06:11:30Z</time>
      </trkpt>
      <trkpt lat="41.77597" lon="9.12672">
        <ele>905.4</ele>
        <time>2021-06-03T06:11:31Z</time>
      </trkpt>
      <trkpt lat="41.77599" lon="9.12673">
        <ele>905.2</ele>
        <time>2021-06-03T06:11:32Z</time>
      </trkpt>
      <trkpt lat="41.77601" lon="9.12672">
        <ele>905.2</ele>
        <time>2021-06-03T06:11:33Z</time>
      </trkpt>
      <trkpt lat="41.77603" lon="9.12672">
        <ele>905.2</ele>
        <time>2021-06-03T06:11:34Z</time>
      </trkpt>
      <trkpt lat="41.77605" lon="9.12672">
        <ele>906.2</ele>
        <time>2021-06-03T06:11:35Z</time>
      </trkpt>
      <trkpt lat="41.77607" lon="9.12672">
        <ele>905.8</ele>
        <time>2021-06-03T06:11:36Z</time>
      </trkpt>
      <trkpt lat="41.77609" lon="9.12672">
        <ele>905.8</ele>
        <time>2021-06-03T06:11:37Z</time>
      </trkpt>
      <trkpt lat="41.7761" lon="9.12671">
        <ele>905.8</ele>
        <time>2021-06-03T06:11:38Z</time>
      </trkpt>
      <trkpt lat="41.77612" lon="9.1267">
        <ele>906.6</ele>
        <time>2021-06-03T06:11:39Z</time>
      </trkpt>
      <trkpt lat="41.77614" lon="9.12669">
        <ele>906.8</ele>
        <time>2021-06-03T06:11:40Z</time>
      </trkpt>
      <trkpt lat="41.77616" lon="9.12668">
        <ele>906.8</ele>
        <time>2021-06-03T06:11:41Z</time>
      </trkpt>
      <trkpt lat="41.77618" lon="9.12667">
        <ele>906.8</ele>
        <time>2021-06-03T06:11:42Z</time>
      </trkpt>
      <trkpt lat="41.77619" lon="9.12665">
        <ele>906.8</ele>
        <time>2021-06-03T06:11:43Z</time>
      </trkpt>
      <trkpt lat="41.77621" lon="9.12665">
        <ele>907.4</ele>
        <time>2021-06-03T06:11:44Z</time>
      </trkpt>
      <trkpt lat="41.77623" lon="9.12663">
        <ele>907.4</ele>
        <time>2021-06-03T06:11:45Z</time>
      </trkpt>
      <trkpt lat="41.77625" lon="9.12662">
        <ele>907.4</ele>
        <time>2021-06-03T06:11:46Z</time>
      </trkpt>
      <trkpt lat="41.77627" lon="9.12661">
        <ele>907.8</ele>
        <time>2021-06-03T06:11:47Z</time>
      </trkpt>
      <trkpt lat="41.77629" lon="9.1266">
        <ele>907.8</ele>
        <time>2021-06-03T06:11:48Z</time>
      </trkpt>
      <trkpt lat="41.77632" lon="9.1266">
        <ele>907.8</ele>
        <time>2021-06-03T06:11:49Z</time>
      </trkpt>
      <trkpt lat="41.77634" lon="9.12659">
        <ele>907.8</ele>
        <time>2021-06-03T06:11:50Z</time>
      </trkpt>
      <trkpt lat="41.77636" lon="9.12658">
        <ele>907.8</ele>
        <time>2021-06-03T06:11:51Z</time>
      </trkpt>
      <trkpt lat="41.77638" lon="9.12657">
        <ele>908.2</ele>
        <time>2021-06-03T06:11:52Z</time>
      </trkpt>
      <trkpt lat="41.77639" lon="9.12657">
        <ele>908.2</ele>
        <time>2021-06-03T06:11:53Z</time>
      </trkpt>
      <trkpt lat="41.77641" lon="9.12656">
        <ele>908.2</ele>
        <time>2021-06-03T06:11:54Z</time>
      </trkpt>
      <trkpt lat="41.77643" lon="9.12655">
        <ele>908.2</ele>
        <time>2021-06-03T06:11:55Z</time>
      </trkpt>
      <trkpt lat="41.77645" lon="9.12655">
        <ele>908.6</ele>
        <time>2021-06-03T06:11:56Z</time>
      </trkpt>
      <trkpt lat="41.77646" lon="9.12654">
        <ele>908.6</ele>
        <time>2021-06-03T06:11:57Z</time>
      </trkpt>
      <trkpt lat="41.77648" lon="9.12653">
        <ele>908.6</ele>
        <time>2021-06-03T06:11:58Z</time>
      </trkpt>
      <trkpt lat="41.7765" lon="9.12653">
        <ele>908.6</ele>
        <time>2021-06-03T06:11:59Z</time>
      </trkpt>
      <trkpt lat="41.77652" lon="9.12653">
        <ele>908.4</ele>
        <time>2021-06-03T06:12:00Z</time>
      </trkpt>
      <trkpt lat="41.77654" lon="9.12652">
        <ele>908.4</ele>
        <time>2021-06-03T06:12:01Z</time>
      </trkpt>
      <trkpt lat="41.77656" lon="9.12652">
        <ele>908.4</ele>
        <time>2021-06-03T06:12:02Z</time>
      </trkpt>
      <trkpt lat="41.77657" lon="9.12652">
        <ele>908.6</ele>
        <time>2021-06-03T06:12:03Z</time>
      </trkpt>
      <trkpt lat="41.7766" lon="9.12651">
        <ele>908</ele>
        <time>2021-06-03T06:12:04Z</time>
      </trkpt>
      <trkpt lat="41.77661" lon="9.12651">
        <ele>908</ele>
        <time>2021-06-03T06:12:05Z</time>
      </trkpt>
      <trkpt lat="41.77663" lon="9.1265">
        <ele>908</ele>
        <time>2021-06-03T06:12:06Z</time>
      </trkpt>
      <trkpt lat="41.77665" lon="9.1265">
        <ele>908.8</ele>
        <time>2021-06-03T06:12:07Z</time>
      </trkpt>
      <trkpt lat="41.77667" lon="9.1265">
        <ele>908.6</ele>
        <time>2021-06-03T06:12:08Z</time>
      </trkpt>
      <trkpt lat="41.77669" lon="9.1265">
        <ele>908.6</ele>
        <time>2021-06-03T06:12:09Z</time>
      </trkpt>
      <trkpt lat="41.7767" lon="9.12651">
        <ele>908.6</ele>
        <time>2021-06-03T06:12:10Z</time>
      </trkpt>
      <trkpt lat="41.77672" lon="9.12651">
        <ele>909.4</ele>
        <time>2021-06-03T06:12:11Z</time>
      </trkpt>
      <trkpt lat="41.77674" lon="9.12651">
        <ele>909.4</ele>
        <time>2021-06-03T06:12:12Z</time>
      </trkpt>
      <trkpt lat="41.77676" lon="9.12651">
        <ele>909.4</ele>
        <time>2021-06-03T06:12:13Z</time>
      </trkpt>
      <trkpt lat="41.77676" lon="9.12651">
        <ele>909.4</ele>
        <time>2021-06-03T06:12:14Z</time>
      </trkpt>
      <trkpt lat="41.77678" lon="9.12651">
        <ele>909.4</ele>
        <time>2021-06-03T06:12:15Z</time>
      </trkpt>
      <trkpt lat="41.7768" lon="9.12651">
        <ele>909.8</ele>
        <time>2021-06-03T06:12:16Z</time>
      </trkpt>
      <trkpt lat="41.77682" lon="9.1265">
        <ele>909.8</ele>
        <time>2021-06-03T06:12:17Z</time>
      </trkpt>
      <trkpt lat="41.77683" lon="9.1265">
        <ele>909.8</ele>
        <time>2021-06-03T06:12:18Z</time>
      </trkpt>
      <trkpt lat="41.77684" lon="9.12651">
        <ele>909.8</ele>
        <time>2021-06-03T06:12:19Z</time>
      </trkpt>
      <trkpt lat="41.77685" lon="9.12651">
        <ele>910.2</ele>
        <time>2021-06-03T06:12:20Z</time>
      </trkpt>
      <trkpt lat="41.77686" lon="9.12651">
        <ele>910.2</ele>
        <time>2021-06-03T06:12:21Z</time>
      </trkpt>
      <trkpt lat="41.77688" lon="9.12651">
        <ele>910.2</ele>
        <time>2021-06-03T06:12:22Z</time>
      </trkpt>
      <trkpt lat="41.7769" lon="9.1265">
        <ele>910.6</ele>
        <time>2021-06-03T06:12:23Z</time>
      </trkpt>
      <trkpt lat="41.77693" lon="9.12648">
        <ele>910.8</ele>
        <time>2021-06-03T06:12:24Z</time>
      </trkpt>
      <trkpt lat="41.77694" lon="9.12647">
        <ele>910.8</ele>
        <time>2021-06-03T06:12:25Z</time>
      </trkpt>
      <trkpt lat="41.77696" lon="9.12648">
        <ele>910.8</ele>
        <time>2021-06-03T06:12:26Z</time>
      </trkpt>
      <trkpt lat="41.77697" lon="9.12648">
        <ele>911.4</ele>
        <time>2021-06-03T06:12:27Z</time>
      </trkpt>
      <trkpt lat="41.77699" lon="9.12648">
        <ele>911.4</ele>
        <time>2021-06-03T06:12:28Z</time>
      </trkpt>
      <trkpt lat="41.777" lon="9.12647">
        <ele>911.4</ele>
        <time>2021-06-03T06:12:29Z</time>
      </trkpt>
      <trkpt lat="41.77701" lon="9.12647">
        <ele>911.4</ele>
        <time>2021-06-03T06:12:30Z</time>
      </trkpt>
      <trkpt lat="41.77704" lon="9.12647">
        <ele>912</ele>
        <time>2021-06-03T06:12:31Z</time>
      </trkpt>
      <trkpt lat="41.77705" lon="9.12647">
        <ele>912.2</ele>
        <time>2021-06-03T06:12:32Z</time>
      </trkpt>
      <trkpt lat="41.77707" lon="9.12647">
        <ele>912.2</ele>
        <time>2021-06-03T06:12:33Z</time>
      </trkpt>
      <trkpt lat="41.77708" lon="9.12647">
        <ele>912.2</ele>
        <time>2021-06-03T06:12:34Z</time>
      </trkpt>
      <trkpt lat="41.7771" lon="9.12647">
        <ele>912.2</ele>
        <time>2021-06-03T06:12:35Z</time>
      </trkpt>
      <trkpt lat="41.77711" lon="9.12647">
        <ele>912.6</ele>
        <time>2021-06-03T06:12:36Z</time>
      </trkpt>
      <trkpt lat="41.77713" lon="9.12647">
        <ele>912.6</ele>
        <time>2021-06-03T06:12:37Z</time>
      </trkpt>
      <trkpt lat="41.77715" lon="9.12648">
        <ele>912.6</ele>
        <time>2021-06-03T06:12:38Z</time>
      </trkpt>
      <trkpt lat="41.77717" lon="9.12649">
        <ele>912.6</ele>
        <time>2021-06-03T06:12:39Z</time>
      </trkpt>
      <trkpt lat="41.77719" lon="9.12649">
        <ele>912.8</ele>
        <time>2021-06-03T06:12:40Z</time>
      </trkpt>
      <trkpt lat="41.7772" lon="9.12649">
        <ele>912.8</ele>
        <time>2021-06-03T06:12:41Z</time>
      </trkpt>
      <trkpt lat="41.77722" lon="9.12649">
        <ele>912.8</ele>
        <time>2021-06-03T06:12:42Z</time>
      </trkpt>
      <trkpt lat="41.77724" lon="9.12649">
        <ele>913.8</ele>
        <time>2021-06-03T06:12:43Z</time>
      </trkpt>
      <trkpt lat="41.77725" lon="9.1265">
        <ele>913.6</ele>
        <time>2021-06-03T06:12:44Z</time>
      </trkpt>
      <trkpt lat="41.77727" lon="9.12651">
        <ele>913.6</ele>
        <time>2021-06-03T06:12:45Z</time>
      </trkpt>
      <trkpt lat="41.7773" lon="9.12652">
        <ele>913.6</ele>
        <time>2021-06-03T06:12:46Z</time>
      </trkpt>
      <trkpt lat="41.77732" lon="9.12653">
        <ele>914.4</ele>
        <time>2021-06-03T06:12:47Z</time>
      </trkpt>
      <trkpt lat="41.77734" lon="9.12654">
        <ele>914.6</ele>
        <time>2021-06-03T06:12:48Z</time>
      </trkpt>
      <trkpt lat="41.77736" lon="9.12655">
        <ele>914.6</ele>
        <time>2021-06-03T06:12:49Z</time>
      </trkpt>
      <trkpt lat="41.77737" lon="9.12656">
        <ele>914.6</ele>
        <time>2021-06-03T06:12:50Z</time>
      </trkpt>
      <trkpt lat="41.77739" lon="9.12657">
        <ele>914.6</ele>
        <time>2021-06-03T06:12:51Z</time>
      </trkpt>
      <trkpt lat="41.77741" lon="9.12657">
        <ele>915.2</ele>
        <time>2021-06-03T06:12:52Z</time>
      </trkpt>
      <trkpt lat="41.77742" lon="9.12658">
        <ele>915.2</ele>
        <time>2021-06-03T06:12:53Z</time>
      </trkpt>
      <trkpt lat="41.77744" lon="9.12659">
        <ele>915.2</ele>
        <time>2021-06-03T06:12:54Z</time>
      </trkpt>
      <trkpt lat="41.77745" lon="9.12659">
        <ele>916</ele>
        <time>2021-06-03T06:12:55Z</time>
      </trkpt>
      <trkpt lat="41.77747" lon="9.1266">
        <ele>915.6</ele>
        <time>2021-06-03T06:12:56Z</time>
      </trkpt>
      <trkpt lat="41.77749" lon="9.1266">
        <ele>915.6</ele>
        <time>2021-06-03T06:12:57Z</time>
      </trkpt>
      <trkpt lat="41.7775" lon="9.1266">
        <ele>915.6</ele>
        <time>2021-06-03T06:12:58Z</time>
      </trkpt>
      <trkpt lat="41.77752" lon="9.12659">
        <ele>916.6</ele>
        <time>2021-06-03T06:12:59Z</time>
      </trkpt>
      <trkpt lat="41.77753" lon="9.12659">
        <ele>917</ele>
        <time>2021-06-03T06:13:00Z</time>
      </trkpt>
      <trkpt lat="41.77755" lon="9.1266">
        <ele>917</ele>
        <time>2021-06-03T06:13:01Z</time>
      </trkpt>
      <trkpt lat="41.77755" lon="9.12661">
        <ele>917</ele>
        <time>2021-06-03T06:13:02Z</time>
      </trkpt>
      <trkpt lat="41.77756" lon="9.12661">
        <ele>917.6</ele>
        <time>2021-06-03T06:13:03Z</time>
      </trkpt>
      <trkpt lat="41.77758" lon="9.12662">
        <ele>918</ele>
        <time>2021-06-03T06:13:04Z</time>
      </trkpt>
      <trkpt lat="41.77759" lon="9.12662">
        <ele>918</ele>
        <time>2021-06-03T06:13:05Z</time>
      </trkpt>
      <trkpt lat="41.7776" lon="9.12662">
        <ele>918</ele>
        <time>2021-06-03T06:13:06Z</time>
      </trkpt>
      <trkpt lat="41.77762" lon="9.12663">
        <ele>918</ele>
        <time>2021-06-03T06:13:07Z</time>
      </trkpt>
      <trkpt lat="41.77763" lon="9.12663">
        <ele>918.6</ele>
        <time>2021-06-03T06:13:08Z</time>
      </trkpt>
      <trkpt lat="41.77764" lon="9.12664">
        <ele>918.6</ele>
        <time>2021-06-03T06:13:09Z</time>
      </trkpt>
      <trkpt lat="41.77765" lon="9.12664">
        <ele>918.6</ele>
        <time>2021-06-03T06:13:10Z</time>
      </trkpt>
      <trkpt lat="41.77766" lon="9.12665">
        <ele>918.6</ele>
        <time>2021-06-03T06:13:11Z</time>
      </trkpt>
      <trkpt lat="41.77766" lon="9.12665">
        <ele>919.4</ele>
        <time>2021-06-03T06:13:12Z</time>
      </trkpt>
      <trkpt lat="41.77879" lon="9.12749">
        <ele>935.6</ele>
        <time>2021-06-03T06:14:55Z</time>
      </trkpt>
      <trkpt lat="41.7788" lon="9.1275">
        <ele>936.2</ele>
        <time>2021-06-03T06:14:56Z</time>
      </trkpt>
      <trkpt lat="41.77881" lon="9.12751">
        <ele>936.2</ele>
        <time>2021-06-03T06:14:57Z</time>
      </trkpt>
      <trkpt lat="41.77882" lon="9.12752">
        <ele>936.2</ele>
        <time>2021-06-03T06:14:58Z</time>
      </trkpt>
      <trkpt lat="41.77883" lon="9.12753">
        <ele>936.8</ele>
        <time>2021-06-03T06:14:59Z</time>
      </trkpt>
      <trkpt lat="41.77884" lon="9.12754">
        <ele>936.8</ele>
        <time>2021-06-03T06:15:00Z</time>
      </trkpt>
      <trkpt lat="41.77886" lon="9.12754">
        <ele>936.8</ele>
        <time>2021-06-03T06:15:01Z</time>
      </trkpt>
      <trkpt lat="41.77887" lon="9.12754">
        <ele>936.8</ele>
        <time>2021-06-03T06:15:02Z</time>
      </trkpt>
      <trkpt lat="41.77889" lon="9.12754">
        <ele>936.8</ele>
        <time>2021-06-03T06:15:03Z</time>
      </trkpt>
      <trkpt lat="41.7789" lon="9.12755">
        <ele>937.4</ele>
        <time>2021-06-03T06:15:04Z</time>
      </trkpt>
      <trkpt lat="41.77891" lon="9.12755">
        <ele>937.4</ele>
        <time>2021-06-03T06:15:05Z</time>
      </trkpt>
      <trkpt lat="41.77893" lon="9.12754">
        <ele>937.4</ele>
        <time>2021-06-03T06:15:06Z</time>
      </trkpt>
      <trkpt lat="41.77894" lon="9.12754">
        <ele>938</ele>
        <time>2021-06-03T06:15:07Z</time>
      </trkpt>
      <trkpt lat="41.77895" lon="9.12754">
        <ele>938</ele>
        <time>2021-06-03T06:15:08Z</time>
      </trkpt>
      <trkpt lat="41.77897" lon="9.12754">
        <ele>938</ele>
        <time>2021-06-03T06:15:09Z</time>
      </trkpt>
      <trkpt lat="41.77898" lon="9.12754">
        <ele>938</ele>
        <time>2021-06-03T06:15:10Z</time>
      </trkpt>
      <trkpt lat="41.77899" lon="9.12753">
        <ele>938</ele>
        <time>2021-06-03T06:15:11Z</time>
      </trkpt>
      <trkpt lat="41.779" lon="9.12752">
        <ele>938.4</ele>
        <time>2021-06-03T06:15:12Z</time>
      </trkpt>
      <trkpt lat="41.77901" lon="9.12751">
        <ele>938.4</ele>
        <time>2021-06-03T06:15:13Z</time>
      </trkpt>
      <trkpt lat="41.77902" lon="9.1275">
        <ele>938.4</ele>
        <time>2021-06-03T06:15:14Z</time>
      </trkpt>
      <trkpt lat="41.77903" lon="9.12748">
        <ele>938.4</ele>
        <time>2021-06-03T06:15:15Z</time>
      </trkpt>
      <trkpt lat="41.77904" lon="9.12747">
        <ele>939</ele>
        <time>2021-06-03T06:15:16Z</time>
      </trkpt>
      <trkpt lat="41.77905" lon="9.12746">
        <ele>939</ele>
        <time>2021-06-03T06:15:17Z</time>
      </trkpt>
      <trkpt lat="41.77906" lon="9.12745">
        <ele>939</ele>
        <time>2021-06-03T06:15:18Z</time>
      </trkpt>
      <trkpt lat="41.77907" lon="9.12743">
        <ele>939</ele>
        <time>2021-06-03T06:15:19Z</time>
      </trkpt>
      <trkpt lat="41.77908" lon="9.12741">
        <ele>939.4</ele>
        <time>2021-06-03T06:15:20Z</time>
      </trkpt>
      <trkpt lat="41.77909" lon="9.1274">
        <ele>939.4</ele>
        <time>2021-06-03T06:15:21Z</time>
      </trkpt>
      <trkpt lat="41.7791" lon="9.12739">
        <ele>939.4</ele>
        <time>2021-06-03T06:15:22Z</time>
      </trkpt>
      <trkpt lat="41.77911" lon="9.12738">
        <ele>939.4</ele>
        <time>2021-06-03T06:15:23Z</time>
      </trkpt>
      <trkpt lat="41.77912" lon="9.12737">
        <ele>939.8</ele>
        <time>2021-06-03T06:15:24Z</time>
      </trkpt>
      <trkpt lat="41.77913" lon="9.12737">
        <ele>939.8</ele>
        <time>2021-06-03T06:15:25Z</time>
      </trkpt>
      <trkpt lat="41.77914" lon="9.12736">
        <ele>939.8</ele>
        <time>2021-06-03T06:15:26Z</time>
      </trkpt>
      <trkpt lat="41.77915" lon="9.12735">
        <ele>939.8</ele>
        <time>2021-06-03T06:15:27Z</time>
      </trkpt>
      <trkpt lat="41.77916" lon="9.12734">
        <ele>940.2</ele>
        <time>2021-06-03T06:15:28Z</time>
      </trkpt>
      <trkpt lat="41.77917" lon="9.12733">
        <ele>940.2</ele>
        <time>2021-06-03T06:15:29Z</time>
      </trkpt>
      <trkpt lat="41.77918" lon="9.12732">
        <ele>940.2</ele>
        <time>2021-06-03T06:15:30Z</time>
      </trkpt>
      <trkpt lat="41.77919" lon="9.12732">
        <ele>940.2</ele>
        <time>2021-06-03T06:15:31Z</time>
      </trkpt>
      <trkpt lat="41.77921" lon="9.12731">
        <ele>940.2</ele>
        <time>2021-06-03T06:15:32Z</time>
      </trkpt>
      <trkpt lat="41.77922" lon="9.12731">
        <ele>940.2</ele>
        <time>2021-06-03T06:15:33Z</time>
      </trkpt>
      <trkpt lat="41.77923" lon="9.1273">
        <ele>940.2</ele>
        <time>2021-06-03T06:15:34Z</time>
      </trkpt>
      <trkpt lat="41.77924" lon="9.1273">
        <ele>940.8</ele>
        <time>2021-06-03T06:15:35Z</time>
      </trkpt>
      <trkpt lat="41.77925" lon="9.12729">
        <ele>941.2</ele>
        <time>2021-06-03T06:15:36Z</time>
      </trkpt>
      <trkpt lat="41.77926" lon="9.12728">
        <ele>941.2</ele>
        <time>2021-06-03T06:15:37Z</time>
      </trkpt>
      <trkpt lat="41.77927" lon="9.12727">
        <ele>941.2</ele>
        <time>2021-06-03T06:15:38Z</time>
      </trkpt>
      <trkpt lat="41.77928" lon="9.12726">
        <ele>941</ele>
        <time>2021-06-03T06:15:39Z</time>
      </trkpt>
      <trkpt lat="41.77929" lon="9.12726">
        <ele>941.2</ele>
        <time>2021-06-03T06:15:40Z</time>
      </trkpt>
      <trkpt lat="41.7793" lon="9.12724">
        <ele>941.2</ele>
        <time>2021-06-03T06:15:41Z</time>
      </trkpt>
      <trkpt lat="41.77931" lon="9.12722">
        <ele>941.2</ele>
        <time>2021-06-03T06:15:42Z</time>
      </trkpt>
      <trkpt lat="41.77932" lon="9.12722">
        <ele>941.6</ele>
        <time>2021-06-03T06:15:43Z</time>
      </trkpt>
      <trkpt lat="41.77933" lon="9.12721">
        <ele>941.8</ele>
        <time>2021-06-03T06:15:44Z</time>
      </trkpt>
      <trkpt lat="41.77935" lon="9.1272">
        <ele>941.8</ele>
        <time>2021-06-03T06:15:45Z</time>
      </trkpt>
      <trkpt lat="41.77937" lon="9.12718">
        <ele>941.8</ele>
        <time>2021-06-03T06:15:46Z</time>
      </trkpt>
      <trkpt lat="41.77938" lon="9.12718">
        <ele>941.8</ele>
        <time>2021-06-03T06:15:47Z</time>
      </trkpt>
      <trkpt lat="41.77939" lon="9.12717">
        <ele>941.8</ele>
        <time>2021-06-03T06:15:48Z</time>
      </trkpt>
      <trkpt lat="41.77941" lon="9.12716">
        <ele>941.8</ele>
        <time>2021-06-03T06:15:49Z</time>
      </trkpt>
      <trkpt lat="41.77941" lon="9.12714">
        <ele>941.8</ele>
        <time>2021-06-03T06:15:50Z</time>
      </trkpt>
      <trkpt lat="41.77942" lon="9.12713">
        <ele>942.4</ele>
        <time>2021-06-03T06:15:51Z</time>
      </trkpt>
      <trkpt lat="41.77944" lon="9.12712">
        <ele>942.6</ele>
        <time>2021-06-03T06:15:52Z</time>
      </trkpt>
      <trkpt lat="41.77945" lon="9.12711">
        <ele>942.6</ele>
        <time>2021-06-03T06:15:53Z</time>
      </trkpt>
      <trkpt lat="41.77945" lon="9.12709">
        <ele>942.6</ele>
        <time>2021-06-03T06:15:54Z</time>
      </trkpt>
      <trkpt lat="41.77946" lon="9.12707">
        <ele>943</ele>
        <time>2021-06-03T06:15:55Z</time>
      </trkpt>
      <trkpt lat="41.77947" lon="9.12707">
        <ele>942.8</ele>
        <time>2021-06-03T06:15:56Z</time>
      </trkpt>
      <trkpt lat="41.77949" lon="9.12704">
        <ele>942.8</ele>
        <time>2021-06-03T06:15:57Z</time>
      </trkpt>
      <trkpt lat="41.77949" lon="9.12701">
        <ele>942.8</ele>
        <time>2021-06-03T06:15:58Z</time>
      </trkpt>
      <trkpt lat="41.7795" lon="9.12699">
        <ele>942.8</ele>
        <time>2021-06-03T06:15:59Z</time>
      </trkpt>
      <trkpt lat="41.77951" lon="9.12696">
        <ele>943.6</ele>
        <time>2021-06-03T06:16:00Z</time>
      </trkpt>
      <trkpt lat="41.77952" lon="9.12694">
        <ele>943.6</ele>
        <time>2021-06-03T06:16:01Z</time>
      </trkpt>
      <trkpt lat="41.77952" lon="9.12692">
        <ele>943.6</ele>
        <time>2021-06-03T06:16:02Z</time>
      </trkpt>
      <trkpt lat="41.77952" lon="9.1269">
        <ele>943.6</ele>
        <time>2021-06-03T06:16:03Z</time>
      </trkpt>
      <trkpt lat="41.77953" lon="9.12688">
        <ele>944.4</ele>
        <time>2021-06-03T06:16:04Z</time>
      </trkpt>
      <trkpt lat="41.77954" lon="9.12686">
        <ele>944.4</ele>
        <time>2021-06-03T06:16:05Z</time>
      </trkpt>
      <trkpt lat="41.77954" lon="9.12684">
        <ele>944.4</ele>
        <time>2021-06-03T06:16:06Z</time>
      </trkpt>
      <trkpt lat="41.77954" lon="9.12682">
        <ele>944.2</ele>
        <time>2021-06-03T06:16:07Z</time>
      </trkpt>
      <trkpt lat="41.77955" lon="9.12681">
        <ele>944.6</ele>
        <time>2021-06-03T06:16:08Z</time>
      </trkpt>
      <trkpt lat="41.77955" lon="9.12678">
        <ele>944.6</ele>
        <time>2021-06-03T06:16:09Z</time>
      </trkpt>
      <trkpt lat="41.77955" lon="9.12676">
        <ele>944.6</ele>
        <time>2021-06-03T06:16:10Z</time>
      </trkpt>
      <trkpt lat="41.77956" lon="9.12674">
        <ele>945.2</ele>
        <time>2021-06-03T06:16:11Z</time>
      </trkpt>
      <trkpt lat="41.77956" lon="9.12673">
        <ele>945.2</ele>
        <time>2021-06-03T06:16:12Z</time>
      </trkpt>
      <trkpt lat="41.77956" lon="9.12671">
        <ele>945.2</ele>
        <time>2021-06-03T06:16:13Z</time>
      </trkpt>
      <trkpt lat="41.77956" lon="9.12669">
        <ele>945.2</ele>
        <time>2021-06-03T06:16:14Z</time>
      </trkpt>
      <trkpt lat="41.77956" lon="9.12667">
        <ele>945.2</ele>
        <time>2021-06-03T06:16:15Z</time>
      </trkpt>
      <trkpt lat="41.77957" lon="9.12665">
        <ele>945.6</ele>
        <time>2021-06-03T06:16:16Z</time>
      </trkpt>
      <trkpt lat="41.77957" lon="9.12664">
        <ele>945.6</ele>
        <time>2021-06-03T06:16:17Z</time>
      </trkpt>
      <trkpt lat="41.77957" lon="9.12662">
        <ele>945.6</ele>
        <time>2021-06-03T06:16:18Z</time>
      </trkpt>
      <trkpt lat="41.77957" lon="9.1266">
        <ele>945.6</ele>
        <time>2021-06-03T06:16:19Z</time>
      </trkpt>
      <trkpt lat="41.77957" lon="9.12658">
        <ele>945.4</ele>
        <time>2021-06-03T06:16:20Z</time>
      </trkpt>
      <trkpt lat="41.77958" lon="9.12657">
        <ele>945.4</ele>
        <time>2021-06-03T06:16:21Z</time>
      </trkpt>
      <trkpt lat="41.77958" lon="9.12655">
        <ele>945.4</ele>
        <time>2021-06-03T06:16:22Z</time>
      </trkpt>
      <trkpt lat="41.77958" lon="9.12653">
        <ele>946.4</ele>
        <time>2021-06-03T06:16:23Z</time>
      </trkpt>
      <trkpt lat="41.77958" lon="9.12651">
        <ele>946.8</ele>
        <time>2021-06-03T06:16:24Z</time>
      </trkpt>
      <trkpt lat="41.77958" lon="9.12649">
        <ele>946.8</ele>
        <time>2021-06-03T06:16:25Z</time>
      </trkpt>
      <trkpt lat="41.77957" lon="9.12648">
        <ele>946.8</ele>
        <time>2021-06-03T06:16:26Z</time>
      </trkpt>
      <trkpt lat="41.77956" lon="9.12645">
        <ele>947.6</ele>
        <time>2021-06-03T06:16:27Z</time>
      </trkpt>
      <trkpt lat="41.77956" lon="9.12644">
        <ele>948</ele>
        <time>2021-06-03T06:16:28Z</time>
      </trkpt>
      <trkpt lat="41.77955" lon="9.12642">
        <ele>948</ele>
        <time>2021-06-03T06:16:29Z</time>
      </trkpt>
      <trkpt lat="41.77954" lon="9.1264">
        <ele>948</ele>
        <time>2021-06-03T06:16:30Z</time>
      </trkpt>
      <trkpt lat="41.77954" lon="9.12639">
        <ele>948</ele>
        <time>2021-06-03T06:16:31Z</time>
      </trkpt>
      <trkpt lat="41.77954" lon="9.12637">
        <ele>948.4</ele>
        <time>2021-06-03T06:16:32Z</time>
      </trkpt>
      <trkpt lat="41.77954" lon="9.12636">
        <ele>948.4</ele>
        <time>2021-06-03T06:16:33Z</time>
      </trkpt>
      <trkpt lat="41.77953" lon="9.12634">
        <ele>948.4</ele>
        <time>2021-06-03T06:16:34Z</time>
      </trkpt>
      <trkpt lat="41.77953" lon="9.12633">
        <ele>949.2</ele>
        <time>2021-06-03T06:16:35Z</time>
      </trkpt>
      <trkpt lat="41.77953" lon="9.12632">
        <ele>949.2</ele>
        <time>2021-06-03T06:16:36Z</time>
      </trkpt>
      <trkpt lat="41.77953" lon="9.1263">
        <ele>949.2</ele>
        <time>2021-06-03T06:16:37Z</time>
      </trkpt>
      <trkpt lat="41.77952" lon="9.12629">
        <ele>949.2</ele>
        <time>2021-06-03T06:16:38Z</time>
      </trkpt>
      <trkpt lat="41.77952" lon="9.12628">
        <ele>949.8</ele>
        <time>2021-06-03T06:16:39Z</time>
      </trkpt>
      <trkpt lat="41.77951" lon="9.12626">
        <ele>949.8</ele>
        <time>2021-06-03T06:16:40Z</time>
      </trkpt>
      <trkpt lat="41.77951" lon="9.12625">
        <ele>949.8</ele>
        <time>2021-06-03T06:16:41Z</time>
      </trkpt>
      <trkpt lat="41.7795" lon="9.12624">
        <ele>949.8</ele>
        <time>2021-06-03T06:16:42Z</time>
      </trkpt>
      <trkpt lat="41.77949" lon="9.12623">
        <ele>950.4</ele>
        <time>2021-06-03T06:16:43Z</time>
      </trkpt>
      <trkpt lat="41.77948" lon="9.12621">
        <ele>950.6</ele>
        <time>2021-06-03T06:16:44Z</time>
      </trkpt>
      <trkpt lat="41.77948" lon="9.1262">
        <ele>950.6</ele>
        <time>2021-06-03T06:16:45Z</time>
      </trkpt>
      <trkpt lat="41.77948" lon="9.12617">
        <ele>950.6</ele>
        <time>2021-06-03T06:16:46Z</time>
      </trkpt>
      <trkpt lat="41.77947" lon="9.12616">
        <ele>951.2</ele>
        <time>2021-06-03T06:16:47Z</time>
      </trkpt>
      <trkpt lat="41.77946" lon="9.12615">
        <ele>951.2</ele>
        <time>2021-06-03T06:16:48Z</time>
      </trkpt>
      <trkpt lat="41.77945" lon="9.12614">
        <ele>951.2</ele>
        <time>2021-06-03T06:16:49Z</time>
      </trkpt>
      <trkpt lat="41.77945" lon="9.12612">
        <ele>951.2</ele>
        <time>2021-06-03T06:16:50Z</time>
      </trkpt>
      <trkpt lat="41.77945" lon="9.1261">
        <ele>951.2</ele>
        <time>2021-06-03T06:16:51Z</time>
      </trkpt>
      <trkpt lat="41.77945" lon="9.12609">
        <ele>951.8</ele>
        <time>2021-06-03T06:16:52Z</time>
      </trkpt>
      <trkpt lat="41.77944" lon="9.12607">
        <ele>951.8</ele>
        <time>2021-06-03T06:16:53Z</time>
      </trkpt>
      <trkpt lat="41.77944" lon="9.12606">
        <ele>951.8</ele>
        <time>2021-06-03T06:16:54Z</time>
      </trkpt>
      <trkpt lat="41.77944" lon="9.12604">
        <ele>952.2</ele>
        <time>2021-06-03T06:16:55Z</time>
      </trkpt>
      <trkpt lat="41.77944" lon="9.12602">
        <ele>952.6</ele>
        <time>2021-06-03T06:16:56Z</time>
      </trkpt>
      <trkpt lat="41.77945" lon="9.12599">
        <ele>952.6</ele>
        <time>2021-06-03T06:16:57Z</time>
      </trkpt>
      <trkpt lat="41.77945" lon="9.12598">
        <ele>952.6</ele>
        <time>2021-06-03T06:16:58Z</time>
      </trkpt>
      <trkpt lat="41.77945" lon="9.12596">
        <ele>953</ele>
        <time>2021-06-03T06:16:59Z</time>
      </trkpt>
      <trkpt lat="41.77945" lon="9.12594">
        <ele>952.8</ele>
        <time>2021-06-03T06:17:00Z</time>
      </trkpt>
      <trkpt lat="41.77946" lon="9.12592">
        <ele>952.8</ele>
        <time>2021-06-03T06:17:01Z</time>
      </trkpt>
      <trkpt lat="41.77946" lon="9.12591">
        <ele>952.8</ele>
        <time>2021-06-03T06:17:02Z</time>
      </trkpt>
      <trkpt lat="41.77947" lon="9.12589">
        <ele>953</ele>
        <time>2021-06-03T06:17:03Z</time>
      </trkpt>
      <trkpt lat="41.77948" lon="9.12587">
        <ele>953.6</ele>
        <time>2021-06-03T06:17:04Z</time>
      </trkpt>
      <trkpt lat="41.77948" lon="9.12586">
        <ele>953.6</ele>
        <time>2021-06-03T06:17:05Z</time>
      </trkpt>
      <trkpt lat="41.77949" lon="9.12584">
        <ele>953.6</ele>
        <time>2021-06-03T06:17:06Z</time>
      </trkpt>
      <trkpt lat="41.7795" lon="9.12582">
        <ele>953.6</ele>
        <time>2021-06-03T06:17:07Z</time>
      </trkpt>
      <trkpt lat="41.77951" lon="9.1258">
        <ele>954.2</ele>
        <time>2021-06-03T06:17:08Z</time>
      </trkpt>
      <trkpt lat="41.77951" lon="9.12579">
        <ele>954.2</ele>
        <time>2021-06-03T06:17:09Z</time>
      </trkpt>
      <trkpt lat="41.77951" lon="9.12577">
        <ele>954.2</ele>
        <time>2021-06-03T06:17:10Z</time>
      </trkpt>
      <trkpt lat="41.77952" lon="9.12575">
        <ele>954.2</ele>
        <time>2021-06-03T06:17:11Z</time>
      </trkpt>
      <trkpt lat="41.77952" lon="9.12573">
        <ele>954.6</ele>
        <time>2021-06-03T06:17:12Z</time>
      </trkpt>
      <trkpt lat="41.77952" lon="9.12572">
        <ele>954.6</ele>
        <time>2021-06-03T06:17:13Z</time>
      </trkpt>
      <trkpt lat="41.77953" lon="9.1257">
        <ele>954.6</ele>
        <time>2021-06-03T06:17:14Z</time>
      </trkpt>
      <trkpt lat="41.77953" lon="9.12568">
        <ele>955.2</ele>
        <time>2021-06-03T06:17:15Z</time>
      </trkpt>
      <trkpt lat="41.77953" lon="9.12567">
        <ele>955.2</ele>
        <time>2021-06-03T06:17:16Z</time>
      </trkpt>
      <trkpt lat="41.77953" lon="9.12565">
        <ele>955.2</ele>
        <time>2021-06-03T06:17:17Z</time>
      </trkpt>
      <trkpt lat="41.77953" lon="9.12564">
        <ele>955.2</ele>
        <time>2021-06-03T06:17:18Z</time>
      </trkpt>
      <trkpt lat="41.77954" lon="9.12563">
        <ele>955.8</ele>
        <time>2021-06-03T06:17:19Z</time>
      </trkpt>
      <trkpt lat="41.77954" lon="9.12561">
        <ele>955.8</ele>
        <time>2021-06-03T06:17:20Z</time>
      </trkpt>
      <trkpt lat="41.77955" lon="9.1256">
        <ele>955.8</ele>
        <time>2021-06-03T06:17:21Z</time>
      </trkpt>
      <trkpt lat="41.77956" lon="9.12558">
        <ele>955.8</ele>
        <time>2021-06-03T06:17:22Z</time>
      </trkpt>
      <trkpt lat="41.77956" lon="9.12556">
        <ele>956.6</ele>
        <time>2021-06-03T06:17:23Z</time>
      </trkpt>
      <trkpt lat="41.77957" lon="9.12555">
        <ele>957</ele>
        <time>2021-06-03T06:17:24Z</time>
      </trkpt>
      <trkpt lat="41.77957" lon="9.12553">
        <ele>957</ele>
        <time>2021-06-03T06:17:25Z</time>
      </trkpt>
      <trkpt lat="41.77958" lon="9.12552">
        <ele>957</ele>
        <time>2021-06-03T06:17:26Z</time>
      </trkpt>
      <trkpt lat="41.77958" lon="9.1255">
        <ele>956.8</ele>
        <time>2021-06-03T06:17:27Z</time>
      </trkpt>
      <trkpt lat="41.77958" lon="9.12548">
        <ele>957.2</ele>
        <time>2021-06-03T06:17:28Z</time>
      </trkpt>
      <trkpt lat="41.77959" lon="9.12547">
        <ele>957.2</ele>
        <time>2021-06-03T06:17:29Z</time>
      </trkpt>
      <trkpt lat="41.77959" lon="9.12545">
        <ele>957.2</ele>
        <time>2021-06-03T06:17:30Z</time>
      </trkpt>
      <trkpt lat="41.77959" lon="9.12544">
        <ele>957.2</ele>
        <time>2021-06-03T06:17:31Z</time>
      </trkpt>
      <trkpt lat="41.7796" lon="9.12542">
        <ele>957.4</ele>
        <time>2021-06-03T06:17:32Z</time>
      </trkpt>
      <trkpt lat="41.7796" lon="9.12541">
        <ele>957.4</ele>
        <time>2021-06-03T06:17:33Z</time>
      </trkpt>
      <trkpt lat="41.7796" lon="9.12539">
        <ele>957.4</ele>
        <time>2021-06-03T06:17:34Z</time>
      </trkpt>
      <trkpt lat="41.77961" lon="9.12538">
        <ele>957.6</ele>
        <time>2021-06-03T06:17:35Z</time>
      </trkpt>
      <trkpt lat="41.77961" lon="9.12537">
        <ele>957.8</ele>
        <time>2021-06-03T06:17:36Z</time>
      </trkpt>
      <trkpt lat="41.77962" lon="9.12534">
        <ele>957.8</ele>
        <time>2021-06-03T06:17:37Z</time>
      </trkpt>
      <trkpt lat="41.77963" lon="9.12532">
        <ele>957.8</ele>
        <time>2021-06-03T06:17:38Z</time>
      </trkpt>
      <trkpt lat="41.77963" lon="9.1253">
        <ele>958.2</ele>
        <time>2021-06-03T06:17:39Z</time>
      </trkpt>
      <trkpt lat="41.77964" lon="9.12529">
        <ele>958.6</ele>
        <time>2021-06-03T06:17:40Z</time>
      </trkpt>
      <trkpt lat="41.77964" lon="9.12527">
        <ele>958.6</ele>
        <time>2021-06-03T06:17:41Z</time>
      </trkpt>
      <trkpt lat="41.77964" lon="9.12525">
        <ele>958.6</ele>
        <time>2021-06-03T06:17:42Z</time>
      </trkpt>
      <trkpt lat="41.77965" lon="9.12524">
        <ele>958.8</ele>
        <time>2021-06-03T06:17:43Z</time>
      </trkpt>
      <trkpt lat="41.77965" lon="9.12523">
        <ele>958.6</ele>
        <time>2021-06-03T06:17:44Z</time>
      </trkpt>
      <trkpt lat="41.77966" lon="9.12522">
        <ele>958.6</ele>
        <time>2021-06-03T06:17:45Z</time>
      </trkpt>
      <trkpt lat="41.77967" lon="9.1252">
        <ele>958.6</ele>
        <time>2021-06-03T06:17:46Z</time>
      </trkpt>
      <trkpt lat="41.77968" lon="9.12519">
        <ele>959.4</ele>
        <time>2021-06-03T06:17:47Z</time>
      </trkpt>
      <trkpt lat="41.77969" lon="9.12517">
        <ele>959.4</ele>
        <time>2021-06-03T06:17:48Z</time>
      </trkpt>
      <trkpt lat="41.77969" lon="9.12515">
        <ele>959.4</ele>
        <time>2021-06-03T06:17:49Z</time>
      </trkpt>
      <trkpt lat="41.77969" lon="9.12513">
        <ele>959.4</ele>
        <time>2021-06-03T06:17:50Z</time>
      </trkpt>
      <trkpt lat="41.7797" lon="9.12512">
        <ele>960</ele>
        <time>2021-06-03T06:17:51Z</time>
      </trkpt>
      <trkpt lat="41.7797" lon="9.1251">
        <ele>960.2</ele>
        <time>2021-06-03T06:17:52Z</time>
      </trkpt>
      <trkpt lat="41.7797" lon="9.12509">
        <ele>960.2</ele>
        <time>2021-06-03T06:17:53Z</time>
      </trkpt>
      <trkpt lat="41.77971" lon="9.12508">
        <ele>960.2</ele>
        <time>2021-06-03T06:17:54Z</time>
      </trkpt>
      <trkpt lat="41.77972" lon="9.12506">
        <ele>960.2</ele>
        <time>2021-06-03T06:17:55Z</time>
      </trkpt>
      <trkpt lat="41.77972" lon="9.12505">
        <ele>960.4</ele>
        <time>2021-06-03T06:17:56Z</time>
      </trkpt>
      <trkpt lat="41.77973" lon="9.12503">
        <ele>960.4</ele>
        <time>2021-06-03T06:17:57Z</time>
      </trkpt>
      <trkpt lat="41.77974" lon="9.12502">
        <ele>960.4</ele>
        <time>2021-06-03T06:17:58Z</time>
      </trkpt>
      <trkpt lat="41.77974" lon="9.125">
        <ele>961</ele>
        <time>2021-06-03T06:17:59Z</time>
      </trkpt>
      <trkpt lat="41.77975" lon="9.12499">
        <ele>961.2</ele>
        <time>2021-06-03T06:18:00Z</time>
      </trkpt>
      <trkpt lat="41.77975" lon="9.12498">
        <ele>961.2</ele>
        <time>2021-06-03T06:18:01Z</time>
      </trkpt>
      <trkpt lat="41.77975" lon="9.12496">
        <ele>961.2</ele>
        <time>2021-06-03T06:18:02Z</time>
      </trkpt>
      <trkpt lat="41.77976" lon="9.12495">
        <ele>961.2</ele>
        <time>2021-06-03T06:18:03Z</time>
      </trkpt>
      <trkpt lat="41.77976" lon="9.12493">
        <ele>961.6</ele>
        <time>2021-06-03T06:18:04Z</time>
      </trkpt>
      <trkpt lat="41.77977" lon="9.12492">
        <ele>961.6</ele>
        <time>2021-06-03T06:18:05Z</time>
      </trkpt>
      <trkpt lat="41.77977" lon="9.1249">
        <ele>961.6</ele>
        <time>2021-06-03T06:18:06Z</time>
      </trkpt>
      <trkpt lat="41.77977" lon="9.12489">
        <ele>962.2</ele>
        <time>2021-06-03T06:18:07Z</time>
      </trkpt>
      <trkpt lat="41.77977" lon="9.12487">
        <ele>962.2</ele>
        <time>2021-06-03T06:18:08Z</time>
      </trkpt>
      <trkpt lat="41.77977" lon="9.12486">
        <ele>962.2</ele>
        <time>2021-06-03T06:18:09Z</time>
      </trkpt>
      <trkpt lat="41.77977" lon="9.12486">
        <ele>962.2</ele>
        <time>2021-06-03T06:18:10Z</time>
      </trkpt>
      <trkpt lat="41.77977" lon="9.12486">
        <ele>962.6</ele>
        <time>2021-06-03T06:18:11Z</time>
      </trkpt>
      <trkpt lat="41.77984" lon="9.12318">
        <ele>976.8</ele>
        <time>2021-06-03T06:19:49Z</time>
      </trkpt>
      <trkpt lat="41.77983" lon="9.12316">
        <ele>976.8</ele>
        <time>2021-06-03T06:19:50Z</time>
      </trkpt>
      <trkpt lat="41.77982" lon="9.12315">
        <ele>977</ele>
        <time>2021-06-03T06:19:51Z</time>
      </trkpt>
      <trkpt lat="41.77981" lon="9.12313">
        <ele>977.6</ele>
        <time>2021-06-03T06:19:52Z</time>
      </trkpt>
      <trkpt lat="41.7798" lon="9.12312">
        <ele>977.6</ele>
        <time>2021-06-03T06:19:53Z</time>
      </trkpt>
      <trkpt lat="41.77979" lon="9.1231">
        <ele>977.6</ele>
        <time>2021-06-03T06:19:54Z</time>
      </trkpt>
      <trkpt lat="41.77978" lon="9.12309">
        <ele>977.6</ele>
        <time>2021-06-03T06:19:55Z</time>
      </trkpt>
      <trkpt lat="41.77977" lon="9.12307">
        <ele>977.8</ele>
        <time>2021-06-03T06:19:56Z</time>
      </trkpt>
      <trkpt lat="41.77976" lon="9.12306">
        <ele>977.8</ele>
        <time>2021-06-03T06:19:57Z</time>
      </trkpt>
      <trkpt lat="41.77975" lon="9.12305">
        <ele>977.8</ele>
        <time>2021-06-03T06:19:58Z</time>
      </trkpt>
      <trkpt lat="41.77974" lon="9.12303">
        <ele>977.8</ele>
        <time>2021-06-03T06:19:59Z</time>
      </trkpt>
      <trkpt lat="41.77974" lon="9.12301">
        <ele>978.4</ele>
        <time>2021-06-03T06:20:00Z</time>
      </trkpt>
      <trkpt lat="41.77973" lon="9.12299">
        <ele>978.4</ele>
        <time>2021-06-03T06:20:01Z</time>
      </trkpt>
      <trkpt lat="41.77973" lon="9.12297">
        <ele>978.4</ele>
        <time>2021-06-03T06:20:02Z</time>
      </trkpt>
      <trkpt lat="41.77973" lon="9.12296">
        <ele>978.4</ele>
        <time>2021-06-03T06:20:03Z</time>
      </trkpt>
      <trkpt lat="41.77974" lon="9.12294">
        <ele>978.8</ele>
        <time>2021-06-03T06:20:04Z</time>
      </trkpt>
      <trkpt lat="41.77974" lon="9.12292">
        <ele>978.8</ele>
        <time>2021-06-03T06:20:05Z</time>
      </trkpt>
      <trkpt lat="41.77975" lon="9.12291">
        <ele>978.8</ele>
        <time>2021-06-03T06:20:06Z</time>
      </trkpt>
      <trkpt lat="41.77976" lon="9.1229">
        <ele>978.8</ele>
        <time>2021-06-03T06:20:07Z</time>
      </trkpt>
      <trkpt lat="41.77977" lon="9.12289">
        <ele>979</ele>
        <time>2021-06-03T06:20:08Z</time>
      </trkpt>
      <trkpt lat="41.77978" lon="9.12288">
        <ele>979</ele>
        <time>2021-06-03T06:20:09Z</time>
      </trkpt>
      <trkpt lat="41.77979" lon="9.12287">
        <ele>979</ele>
        <time>2021-06-03T06:20:10Z</time>
      </trkpt>
      <trkpt lat="41.77979" lon="9.12286">
        <ele>979.2</ele>
        <time>2021-06-03T06:20:11Z</time>
      </trkpt>
      <trkpt lat="41.77979" lon="9.12285">
        <ele>979.8</ele>
        <time>2021-06-03T06:20:12Z</time>
      </trkpt>
      <trkpt lat="41.7798" lon="9.12284">
        <ele>979.8</ele>
        <time>2021-06-03T06:20:13Z</time>
      </trkpt>
      <trkpt lat="41.77981" lon="9.12283">
        <ele>979.8</ele>
        <time>2021-06-03T06:20:14Z</time>
      </trkpt>
      <trkpt lat="41.77982" lon="9.12282">
        <ele>979.8</ele>
        <time>2021-06-03T06:20:15Z</time>
      </trkpt>
      <trkpt lat="41.77983" lon="9.12281">
        <ele>980.2</ele>
        <time>2021-06-03T06:20:16Z</time>
      </trkpt>
      <trkpt lat="41.77983" lon="9.1228">
        <ele>980.2</ele>
        <time>2021-06-03T06:20:17Z</time>
      </trkpt>
      <trkpt lat="41.77984" lon="9.12279">
        <ele>980.2</ele>
        <time>2021-06-03T06:20:18Z</time>
      </trkpt>
      <trkpt lat="41.77985" lon="9.12279">
        <ele>980.2</ele>
        <time>2021-06-03T06:20:19Z</time>
      </trkpt>
      <trkpt lat="41.77986" lon="9.12278">
        <ele>980.6</ele>
        <time>2021-06-03T06:20:20Z</time>
      </trkpt>
      <trkpt lat="41.77987" lon="9.12277">
        <ele>980.6</ele>
        <time>2021-06-03T06:20:21Z</time>
      </trkpt>
      <trkpt lat="41.77988" lon="9.12276">
        <ele>980.6</ele>
        <time>2021-06-03T06:20:22Z</time>
      </trkpt>
      <trkpt lat="41.77989" lon="9.12275">
        <ele>981.2</ele>
        <time>2021-06-03T06:20:23Z</time>
      </trkpt>
      <trkpt lat="41.77989" lon="9.12273">
        <ele>981.2</ele>
        <time>2021-06-03T06:20:24Z</time>
      </trkpt>
      <trkpt lat="41.7799" lon="9.12272">
        <ele>981.2</ele>
        <time>2021-06-03T06:20:25Z</time>
      </trkpt>
      <trkpt lat="41.77991" lon="9.12272">
        <ele>981.2</ele>
        <time>2021-06-03T06:20:26Z</time>
      </trkpt>
      <trkpt lat="41.77992" lon="9.12271">
        <ele>981.2</ele>
        <time>2021-06-03T06:20:27Z</time>
      </trkpt>
      <trkpt lat="41.77992" lon="9.1227">
        <ele>982</ele>
        <time>2021-06-03T06:20:28Z</time>
      </trkpt>
      <trkpt lat="41.77993" lon="9.12269">
        <ele>982</ele>
        <time>2021-06-03T06:20:29Z</time>
      </trkpt>
      <trkpt lat="41.77993" lon="9.12269">
        <ele>982</ele>
        <time>2021-06-03T06:20:30Z</time>
      </trkpt>
      <trkpt lat="41.78137" lon="9.11886">
        <ele>1026.4</ele>
        <time>2021-06-03T06:25:31Z</time>
      </trkpt>
      <trkpt lat="41.78139" lon="9.11886">
        <ele>1026.4</ele>
        <time>2021-06-03T06:25:32Z</time>
      </trkpt>
      <trkpt lat="41.7814" lon="9.11886">
        <ele>1026.4</ele>
        <time>2021-06-03T06:25:33Z</time>
      </trkpt>
      <trkpt lat="41.78141" lon="9.11886">
        <ele>1026.4</ele>
        <time>2021-06-03T06:25:34Z</time>
      </trkpt>
      <trkpt lat="41.78143" lon="9.11886">
        <ele>1026.6</ele>
        <time>2021-06-03T06:25:35Z</time>
      </trkpt>
      <trkpt lat="41.78144" lon="9.11886">
        <ele>1026.4</ele>
        <time>2021-06-03T06:25:36Z</time>
      </trkpt>
      <trkpt lat="41.78145" lon="9.11886">
        <ele>1026.4</ele>
        <time>2021-06-03T06:25:37Z</time>
      </trkpt>
      <trkpt lat="41.78146" lon="9.11885">
        <ele>1026.4</ele>
        <time>2021-06-03T06:25:38Z</time>
      </trkpt>
      <trkpt lat="41.78147" lon="9.11884">
        <ele>1027</ele>
        <time>2021-06-03T06:25:39Z</time>
      </trkpt>
      <trkpt lat="41.78149" lon="9.11883">
        <ele>1027</ele>
        <time>2021-06-03T06:25:40Z</time>
      </trkpt>
      <trkpt lat="41.7815" lon="9.11882">
        <ele>1027</ele>
        <time>2021-06-03T06:25:41Z</time>
      </trkpt>
      <trkpt lat="41.78152" lon="9.11881">
        <ele>1027</ele>
        <time>2021-06-03T06:25:42Z</time>
      </trkpt>
      <trkpt lat="41.78153" lon="9.1188">
        <ele>1027.6</ele>
        <time>2021-06-03T06:25:43Z</time>
      </trkpt>
      <trkpt lat="41.78154" lon="9.1188">
        <ele>1027.8</ele>
        <time>2021-06-03T06:25:44Z</time>
      </trkpt>
      <trkpt lat="41.78156" lon="9.1188">
        <ele>1027.8</ele>
        <time>2021-06-03T06:25:45Z</time>
      </trkpt>
      <trkpt lat="41.78157" lon="9.11879">
        <ele>1027.8</ele>
        <time>2021-06-03T06:25:46Z</time>
      </trkpt>
      <trkpt lat="41.78158" lon="9.11879">
        <ele>1028.4</ele>
        <time>2021-06-03T06:25:47Z</time>
      </trkpt>
      <trkpt lat="41.78159" lon="9.11878">
        <ele>1028.2</ele>
        <time>2021-06-03T06:25:48Z</time>
      </trkpt>
      <trkpt lat="41.7816" lon="9.11878">
        <ele>1028.2</ele>
        <time>2021-06-03T06:25:49Z</time>
      </trkpt>
      <trkpt lat="41.7816" lon="9.11877">
        <ele>1028.2</ele>
        <time>2021-06-03T06:25:50Z</time>
      </trkpt>
      <trkpt lat="41.78162" lon="9.11876">
        <ele>1028.2</ele>
        <time>2021-06-03T06:25:51Z</time>
      </trkpt>
      <trkpt lat="41.78163" lon="9.11876">
        <ele>1028.8</ele>
        <time>2021-06-03T06:25:52Z</time>
      </trkpt>
      <trkpt lat="41.78163" lon="9.11875">
        <ele>1028.8</ele>
        <time>2021-06-03T06:25:53Z</time>
      </trkpt>
      <trkpt lat="41.78164" lon="9.11873">
        <ele>1028.8</ele>
        <time>2021-06-03T06:25:54Z</time>
      </trkpt>
      <trkpt lat="41.78165" lon="9.11872">
        <ele>1029.2</ele>
        <time>2021-06-03T06:25:55Z</time>
      </trkpt>
      <trkpt lat="41.78166" lon="9.11871">
        <ele>1029</ele>
        <time>2021-06-03T06:25:56Z</time>
      </trkpt>
      <trkpt lat="41.78167" lon="9.11871">
        <ele>1029</ele>
        <time>2021-06-03T06:25:57Z</time>
      </trkpt>
      <trkpt lat="41.78168" lon="9.1187">
        <ele>1029</ele>
        <time>2021-06-03T06:25:58Z</time>
      </trkpt>
      <trkpt lat="41.78169" lon="9.11869">
        <ele>1029.4</ele>
        <time>2021-06-03T06:25:59Z</time>
      </trkpt>
      <trkpt lat="41.7817" lon="9.11868">
        <ele>1029.6</ele>
        <time>2021-06-03T06:26:00Z</time>
      </trkpt>
      <trkpt lat="41.78171" lon="9.11867">
        <ele>1029.6</ele>
        <time>2021-06-03T06:26:01Z</time>
      </trkpt>
      <trkpt lat="41.78172" lon="9.11866">
        <ele>1029.6</ele>
        <time>2021-06-03T06:26:02Z</time>
      </trkpt>
      <trkpt lat="41.78172" lon="9.11865">
        <ele>1029.6</ele>
        <time>2021-06-03T06:26:03Z</time>
      </trkpt>
      <trkpt lat="41.78173" lon="9.11864">
        <ele>1030</ele>
        <time>2021-06-03T06:26:04Z</time>
      </trkpt>
      <trkpt lat="41.78175" lon="9.11863">
        <ele>1030</ele>
        <time>2021-06-03T06:26:05Z</time>
      </trkpt>
      <trkpt lat="41.78176" lon="9.11862">
        <ele>1030</ele>
        <time>2021-06-03T06:26:06Z</time>
      </trkpt>
      <trkpt lat="41.78177" lon="9.11861">
        <ele>1030.2</ele>
        <time>2021-06-03T06:26:07Z</time>
      </trkpt>
      <trkpt lat="41.78178" lon="9.11861">
        <ele>1030.6</ele>
        <time>2021-06-03T06:26:08Z</time>
      </trkpt>
      <trkpt lat="41.78178" lon="9.1186">
        <ele>1030.6</ele>
        <time>2021-06-03T06:26:09Z</time>
      </trkpt>
      <trkpt lat="41.7818" lon="9.11858">
        <ele>1030.6</ele>
        <time>2021-06-03T06:26:10Z</time>
      </trkpt>
      <trkpt lat="41.78181" lon="9.11857">
        <ele>1030.6</ele>
        <time>2021-06-03T06:26:11Z</time>
      </trkpt>
      <trkpt lat="41.78182" lon="9.11856">
        <ele>1031.2</ele>
        <time>2021-06-03T06:26:12Z</time>
      </trkpt>
      <trkpt lat="41.78184" lon="9.11855">
        <ele>1031.2</ele>
        <time>2021-06-03T06:26:13Z</time>
      </trkpt>
      <trkpt lat="41.78185" lon="9.11853">
        <ele>1031.2</ele>
        <time>2021-06-03T06:26:14Z</time>
      </trkpt>
      <trkpt lat="41.78186" lon="9.11852">
        <ele>1031.2</ele>
        <time>2021-06-03T06:26:15Z</time>
      </trkpt>
      <trkpt lat="41.78188" lon="9.11851">
        <ele>1031.6</ele>
        <time>2021-06-03T06:26:16Z</time>
      </trkpt>
      <trkpt lat="41.78189" lon="9.1185">
        <ele>1031.6</ele>
        <time>2021-06-03T06:26:17Z</time>
      </trkpt>
      <trkpt lat="41.7819" lon="9.11849">
        <ele>1031.6</ele>
        <time>2021-06-03T06:26:18Z</time>
      </trkpt>
      <trkpt lat="41.78191" lon="9.11847">
        <ele>1032</ele>
        <time>2021-06-03T06:26:19Z</time>
      </trkpt>
      <trkpt lat="41.78193" lon="9.11846">
        <ele>1032.4</ele>
        <time>2021-06-03T06:26:20Z</time>
      </trkpt>
      <trkpt lat="41.78194" lon="9.11845">
        <ele>1032.4</ele>
        <time>2021-06-03T06:26:21Z</time>
      </trkpt>
      <trkpt lat="41.78195" lon="9.11844">
        <ele>1032.4</ele>
        <time>2021-06-03T06:26:22Z</time>
      </trkpt>
      <trkpt lat="41.78196" lon="9.11843">
        <ele>1032.4</ele>
        <time>2021-06-03T06:26:23Z</time>
      </trkpt>
      <trkpt lat="41.78197" lon="9.11842">
        <ele>1033</ele>
        <time>2021-06-03T06:26:24Z</time>
      </trkpt>
      <trkpt lat="41.78198" lon="9.11842">
        <ele>1033</ele>
        <time>2021-06-03T06:26:25Z</time>
      </trkpt>
      <trkpt lat="41.78199" lon="9.11842">
        <ele>1033</ele>
        <time>2021-06-03T06:26:26Z</time>
      </trkpt>
      <trkpt lat="41.782" lon="9.11841">
        <ele>1033.2</ele>
        <time>2021-06-03T06:26:27Z</time>
      </trkpt>
      <trkpt lat="41.78202" lon="9.1184">
        <ele>1033.6</ele>
        <time>2021-06-03T06:26:28Z</time>
      </trkpt>
      <trkpt lat="41.78203" lon="9.11839">
        <ele>1033.6</ele>
        <time>2021-06-03T06:26:29Z</time>
      </trkpt>
      <trkpt lat="41.78204" lon="9.11839">
        <ele>1033.6</ele>
        <time>2021-06-03T06:26:30Z</time>
      </trkpt>
      <trkpt lat="41.78205" lon="9.11838">
        <ele>1033.6</ele>
        <time>2021-06-03T06:26:31Z</time>
      </trkpt>
      <trkpt lat="41.78206" lon="9.11838">
        <ele>1033.8</ele>
        <time>2021-06-03T06:26:32Z</time>
      </trkpt>
      <trkpt lat="41.78207" lon="9.11837">
        <ele>1033.8</ele>
        <time>2021-06-03T06:26:33Z</time>
      </trkpt>
      <trkpt lat="41.78208" lon="9.11837">
        <ele>1033.8</ele>
        <time>2021-06-03T06:26:34Z</time>
      </trkpt>
      <trkpt lat="41.78209" lon="9.11836">
        <ele>1034.4</ele>
        <time>2021-06-03T06:26:35Z</time>
      </trkpt>
      <trkpt lat="41.7821" lon="9.11836">
        <ele>1034.8</ele>
        <time>2021-06-03T06:26:36Z</time>
      </trkpt>
      <trkpt lat="41.78211" lon="9.11835">
        <ele>1034.8</ele>
        <time>2021-06-03T06:26:37Z</time>
      </trkpt>
      <trkpt lat="41.78212" lon="9.11835">
        <ele>1034.8</ele>
        <time>2021-06-03T06:26:38Z</time>
      </trkpt>
      <trkpt lat="41.78213" lon="9.11835">
        <ele>1034.8</ele>
        <time>2021-06-03T06:26:39Z</time>
      </trkpt>
      <trkpt lat="41.78214" lon="9.11834">
        <ele>1035.4</ele>
        <time>2021-06-03T06:26:40Z</time>
      </trkpt>
      <trkpt lat="41.78216" lon="9.11834">
        <ele>1035.4</ele>
        <time>2021-06-03T06:26:41Z</time>
      </trkpt>
      <trkpt lat="41.78216" lon="9.11833">
        <ele>1035.4</ele>
        <time>2021-06-03T06:26:42Z</time>
      </trkpt>
      <trkpt lat="41.78218" lon="9.11832">
        <ele>1035.4</ele>
        <time>2021-06-03T06:26:43Z</time>
      </trkpt>
      <trkpt lat="41.78218" lon="9.11831">
        <ele>1036.2</ele>
        <time>2021-06-03T06:26:44Z</time>
      </trkpt>
      <trkpt lat="41.78219" lon="9.11831">
        <ele>1036.2</ele>
        <time>2021-06-03T06:26:45Z</time>
      </trkpt>
      <trkpt lat="41.7822" lon="9.11831">
        <ele>1036.2</ele>
        <time>2021-06-03T06:26:46Z</time>
      </trkpt>
      <trkpt lat="41.78222" lon="9.1183">
        <ele>1036.2</ele>
        <time>2021-06-03T06:26:47Z</time>
      </trkpt>
      <trkpt lat="41.78223" lon="9.11829">
        <ele>1036.6</ele>
        <time>2021-06-03T06:26:48Z</time>
      </trkpt>
      <trkpt lat="41.78224" lon="9.11829">
        <ele>1036.6</ele>
        <time>2021-06-03T06:26:49Z</time>
      </trkpt>
      <trkpt lat="41.78225" lon="9.11829">
        <ele>1036.6</ele>
        <time>2021-06-03T06:26:50Z</time>
      </trkpt>
      <trkpt lat="41.78226" lon="9.11829">
        <ele>1036.6</ele>
        <time>2021-06-03T06:26:51Z</time>
      </trkpt>
      <trkpt lat="41.78227" lon="9.11828">
        <ele>1037.2</ele>
        <time>2021-06-03T06:26:52Z</time>
      </trkpt>
      <trkpt lat="41.78229" lon="9.11828">
        <ele>1037.2</ele>
        <time>2021-06-03T06:26:53Z</time>
      </trkpt>
      <trkpt lat="41.7823" lon="9.11828">
        <ele>1037.2</ele>
        <time>2021-06-03T06:26:54Z</time>
      </trkpt>
      <trkpt lat="41.78231" lon="9.11828">
        <ele>1037.6</ele>
        <time>2021-06-03T06:26:55Z</time>
      </trkpt>
      <trkpt lat="41.78232" lon="9.11828">
        <ele>1037.8</ele>
        <time>2021-06-03T06:26:56Z</time>
      </trkpt>
      <trkpt lat="41.78233" lon="9.11828">
        <ele>1037.8</ele>
        <time>2021-06-03T06:26:57Z</time>
      </trkpt>
      <trkpt lat="41.78234" lon="9.11828">
        <ele>1037.8</ele>
        <time>2021-06-03T06:26:58Z</time>
      </trkpt>
      <trkpt lat="41.78235" lon="9.11829">
        <ele>1037.8</ele>
        <time>2021-06-03T06:26:59Z</time>
      </trkpt>
      <trkpt lat="41.78236" lon="9.11828">
        <ele>1038</ele>
        <time>2021-06-03T06:27:00Z</time>
      </trkpt>
      <trkpt lat="41.78237" lon="9.11829">
        <ele>1038</ele>
        <time>2021-06-03T06:27:01Z</time>
      </trkpt>
      <trkpt lat="41.78238" lon="9.11829">
        <ele>1038</ele>
        <time>2021-06-03T06:27:02Z</time>
      </trkpt>
      <trkpt lat="41.78239" lon="9.11828">
        <ele>1038</ele>
        <time>2021-06-03T06:27:03Z</time>
      </trkpt>
      <trkpt lat="41.7824" lon="9.11829">
        <ele>1038.4</ele>
        <time>2021-06-03T06:27:04Z</time>
      </trkpt>
      <trkpt lat="41.78241" lon="9.11829">
        <ele>1038.4</ele>
        <time>2021-06-03T06:27:05Z</time>
      </trkpt>
      <trkpt lat="41.78242" lon="9.1183">
        <ele>1038.4</ele>
        <time>2021-06-03T06:27:06Z</time>
      </trkpt>
      <trkpt lat="41.78243" lon="9.1183">
        <ele>1038.4</ele>
        <time>2021-06-03T06:27:07Z</time>
      </trkpt>
      <trkpt lat="41.78244" lon="9.11831">
        <ele>1038.8</ele>
        <time>2021-06-03T06:27:08Z</time>
      </trkpt>
      <trkpt lat="41.78245" lon="9.11831">
        <ele>1038.8</ele>
        <time>2021-06-03T06:27:09Z</time>
      </trkpt>
      <trkpt lat="41.78246" lon="9.11831">
        <ele>1038.8</ele>
        <time>2021-06-03T06:27:10Z</time>
      </trkpt>
      <trkpt lat="41.78247" lon="9.11832">
        <ele>1039.8</ele>
        <time>2021-06-03T06:27:11Z</time>
      </trkpt>
      <trkpt lat="41.78248" lon="9.11833">
        <ele>1040.2</ele>
        <time>2021-06-03T06:27:12Z</time>
      </trkpt>
      <trkpt lat="41.78249" lon="9.11834">
        <ele>1040.2</ele>
        <time>2021-06-03T06:27:13Z</time>
      </trkpt>
      <trkpt lat="41.7825" lon="9.11835">
        <ele>1040.2</ele>
        <time>2021-06-03T06:27:14Z</time>
      </trkpt>
      <trkpt lat="41.78251" lon="9.11836">
        <ele>1040.2</ele>
        <time>2021-06-03T06:27:15Z</time>
      </trkpt>
      <trkpt lat="41.78252" lon="9.11837">
        <ele>1040.8</ele>
        <time>2021-06-03T06:27:16Z</time>
      </trkpt>
      <trkpt lat="41.78253" lon="9.11838">
        <ele>1040.8</ele>
        <time>2021-06-03T06:27:17Z</time>
      </trkpt>
      <trkpt lat="41.78254" lon="9.1184">
        <ele>1040.8</ele>
        <time>2021-06-03T06:27:18Z</time>
      </trkpt>
      <trkpt lat="41.78254" lon="9.11841">
        <ele>1040.8</ele>
        <time>2021-06-03T06:27:19Z</time>
      </trkpt>
      <trkpt lat="41.78255" lon="9.11842">
        <ele>1041</ele>
        <time>2021-06-03T06:27:20Z</time>
      </trkpt>
      <trkpt lat="41.78256" lon="9.11843">
        <ele>1041</ele>
        <time>2021-06-03T06:27:21Z</time>
      </trkpt>
      <trkpt lat="41.78256" lon="9.11845">
        <ele>1041</ele>
        <time>2021-06-03T06:27:22Z</time>
      </trkpt>
      <trkpt lat="41.78256" lon="9.11846">
        <ele>1041.6</ele>
        <time>2021-06-03T06:27:23Z</time>
      </trkpt>
      <trkpt lat="41.78257" lon="9.11848">
        <ele>1041.6</ele>
        <time>2021-06-03T06:27:24Z</time>
      </trkpt>
      <trkpt lat="41.78257" lon="9.11849">
        <ele>1041.6</ele>
        <time>2021-06-03T06:27:25Z</time>
      </trkpt>
      <trkpt lat="41.78257" lon="9.11851">
        <ele>1041.6</ele>
        <time>2021-06-03T06:27:26Z</time>
      </trkpt>
      <trkpt lat="41.78257" lon="9.11852">
        <ele>1041.6</ele>
        <time>2021-06-03T06:27:27Z</time>
      </trkpt>
      <trkpt lat="41.78257" lon="9.11854">
        <ele>1042</ele>
        <time>2021-06-03T06:27:28Z</time>
      </trkpt>
      <trkpt lat="41.78257" lon="9.11856">
        <ele>1042</ele>
        <time>2021-06-03T06:27:29Z</time>
      </trkpt>
      <trkpt lat="41.78258" lon="9.11857">
        <ele>1042</ele>
        <time>2021-06-03T06:27:30Z</time>
      </trkpt>
      <trkpt lat="41.78258" lon="9.11859">
        <ele>1042.2</ele>
        <time>2021-06-03T06:27:31Z</time>
      </trkpt>
      <trkpt lat="41.78258" lon="9.1186">
        <ele>1042.6</ele>
        <time>2021-06-03T06:27:32Z</time>
      </trkpt>
      <trkpt lat="41.78258" lon="9.11862">
        <ele>1042.6</ele>
        <time>2021-06-03T06:27:33Z</time>
      </trkpt>
      <trkpt lat="41.78258" lon="9.11863">
        <ele>1042.6</ele>
        <time>2021-06-03T06:27:34Z</time>
      </trkpt>
      <trkpt lat="41.78258" lon="9.11865">
        <ele>1042.8</ele>
        <time>2021-06-03T06:27:35Z</time>
      </trkpt>
      <trkpt lat="41.78258" lon="9.11867">
        <ele>1043.2</ele>
        <time>2021-06-03T06:27:36Z</time>
      </trkpt>
      <trkpt lat="41.78258" lon="9.11869">
        <ele>1043.2</ele>
        <time>2021-06-03T06:27:37Z</time>
      </trkpt>
      <trkpt lat="41.78259" lon="9.1187">
        <ele>1043.2</ele>
        <time>2021-06-03T06:27:38Z</time>
      </trkpt>
      <trkpt lat="41.78259" lon="9.11872">
        <ele>1043.6</ele>
        <time>2021-06-03T06:27:39Z</time>
      </trkpt>
      <trkpt lat="41.78259" lon="9.11873">
        <ele>1043.6</ele>
        <time>2021-06-03T06:27:40Z</time>
      </trkpt>
      <trkpt lat="41.78259" lon="9.11875">
        <ele>1043.6</ele>
        <time>2021-06-03T06:27:41Z</time>
      </trkpt>
      <trkpt lat="41.7826" lon="9.11876">
        <ele>1043.6</ele>
        <time>2021-06-03T06:27:42Z</time>
      </trkpt>
      <trkpt lat="41.7826" lon="9.11878">
        <ele>1043.8</ele>
        <time>2021-06-03T06:27:43Z</time>
      </trkpt>
      <trkpt lat="41.7826" lon="9.11879">
        <ele>1044.2</ele>
        <time>2021-06-03T06:27:44Z</time>
      </trkpt>
      <trkpt lat="41.7826" lon="9.11881">
        <ele>1044.2</ele>
        <time>2021-06-03T06:27:45Z</time>
      </trkpt>
      <trkpt lat="41.7826" lon="9.11882">
        <ele>1044.2</ele>
        <time>2021-06-03T06:27:46Z</time>
      </trkpt>
      <trkpt lat="41.78261" lon="9.11883">
        <ele>1044.8</ele>
        <time>2021-06-03T06:27:47Z</time>
      </trkpt>
      <trkpt lat="41.78261" lon="9.11885">
        <ele>1045</ele>
        <time>2021-06-03T06:27:48Z</time>
      </trkpt>
      <trkpt lat="41.78261" lon="9.11886">
        <ele>1045</ele>
        <time>2021-06-03T06:27:49Z</time>
      </trkpt>
      <trkpt lat="41.78261" lon="9.11888">
        <ele>1045</ele>
        <time>2021-06-03T06:27:50Z</time>
      </trkpt>
      <trkpt lat="41.78261" lon="9.11889">
        <ele>1045.4</ele>
        <time>2021-06-03T06:27:51Z</time>
      </trkpt>
      <trkpt lat="41.78261" lon="9.1189">
        <ele>1045.6</ele>
        <time>2021-06-03T06:27:52Z</time>
      </trkpt>
      <trkpt lat="41.78261" lon="9.11892">
        <ele>1045.6</ele>
        <time>2021-06-03T06:27:53Z</time>
      </trkpt>
      <trkpt lat="41.78261" lon="9.11892">
        <ele>1045.6</ele>
        <time>2021-06-03T06:27:54Z</time>
      </trkpt>
      <trkpt lat="41.78261" lon="9.11892">
        <ele>1046.2</ele>
        <time>2021-06-03T06:27:55Z</time>
      </trkpt>
      <trkpt lat="41.7825" lon="9.11964">
        <ele>1054.8</ele>
        <time>2021-06-03T06:29:01Z</time>
      </trkpt>
      <trkpt lat="41.78249" lon="9.11964">
        <ele>1054.8</ele>
        <time>2021-06-03T06:29:02Z</time>
      </trkpt>
      <trkpt lat="41.78247" lon="9.11964">
        <ele>1054.8</ele>
        <time>2021-06-03T06:29:03Z</time>
      </trkpt>
      <trkpt lat="41.78246" lon="9.11965">
        <ele>1055.4</ele>
        <time>2021-06-03T06:29:04Z</time>
      </trkpt>
      <trkpt lat="41.78245" lon="9.11965">
        <ele>1055.4</ele>
        <time>2021-06-03T06:29:05Z</time>
      </trkpt>
      <trkpt lat="41.78243" lon="9.11966">
        <ele>1055.4</ele>
        <time>2021-06-03T06:29:06Z</time>
      </trkpt>
      <trkpt lat="41.78242" lon="9.11967">
        <ele>1055.4</ele>
        <time>2021-06-03T06:29:07Z</time>
      </trkpt>
      <trkpt lat="41.7824" lon="9.11968">
        <ele>1055.6</ele>
        <time>2021-06-03T06:29:08Z</time>
      </trkpt>
      <trkpt lat="41.78239" lon="9.11969">
        <ele>1055.6</ele>
        <time>2021-06-03T06:29:09Z</time>
      </trkpt>
      <trkpt lat="41.78238" lon="9.11971">
        <ele>1055.6</ele>
        <time>2021-06-03T06:29:10Z</time>
      </trkpt>
      <trkpt lat="41.78237" lon="9.11972">
        <ele>1056</ele>
        <time>2021-06-03T06:29:11Z</time>
      </trkpt>
      <trkpt lat="41.78236" lon="9.11974">
        <ele>1055.6</ele>
        <time>2021-06-03T06:29:12Z</time>
      </trkpt>
      <trkpt lat="41.78235" lon="9.11976">
        <ele>1055.6</ele>
        <time>2021-06-03T06:29:13Z</time>
      </trkpt>
      <trkpt lat="41.78234" lon="9.11978">
        <ele>1055.6</ele>
        <time>2021-06-03T06:29:14Z</time>
      </trkpt>
      <trkpt lat="41.78234" lon="9.1198">
        <ele>1056.2</ele>
        <time>2021-06-03T06:29:15Z</time>
      </trkpt>
      <trkpt lat="41.78233" lon="9.11982">
        <ele>1055.8</ele>
        <time>2021-06-03T06:29:16Z</time>
      </trkpt>
      <trkpt lat="41.78233" lon="9.11985">
        <ele>1055.8</ele>
        <time>2021-06-03T06:29:17Z</time>
      </trkpt>
      <trkpt lat="41.78232" lon="9.11987">
        <ele>1055.8</ele>
        <time>2021-06-03T06:29:18Z</time>
      </trkpt>
      <trkpt lat="41.78232" lon="9.11989">
        <ele>1056.8</ele>
        <time>2021-06-03T06:29:19Z</time>
      </trkpt>
      <trkpt lat="41.78232" lon="9.11991">
        <ele>1056.6</ele>
        <time>2021-06-03T06:29:20Z</time>
      </trkpt>
      <trkpt lat="41.78232" lon="9.11993">
        <ele>1056.6</ele>
        <time>2021-06-03T06:29:21Z</time>
      </trkpt>
      <trkpt lat="41.78231" lon="9.11995">
        <ele>1056.6</ele>
        <time>2021-06-03T06:29:22Z</time>
      </trkpt>
      <trkpt lat="41.78231" lon="9.11997">
        <ele>1057</ele>
        <time>2021-06-03T06:29:23Z</time>
      </trkpt>
      <trkpt lat="41.78231" lon="9.11999">
        <ele>1057.2</ele>
        <time>2021-06-03T06:29:24Z</time>
      </trkpt>
      <trkpt lat="41.78231" lon="9.12001">
        <ele>1057.2</ele>
        <time>2021-06-03T06:29:25Z</time>
      </trkpt>
      <trkpt lat="41.78231" lon="9.12003">
        <ele>1057.2</ele>
        <time>2021-06-03T06:29:26Z</time>
      </trkpt>
      <trkpt lat="41.78231" lon="9.12005">
        <ele>1057.8</ele>
        <time>2021-06-03T06:29:27Z</time>
      </trkpt>
      <trkpt lat="41.78231" lon="9.12006">
        <ele>1058</ele>
        <time>2021-06-03T06:29:28Z</time>
      </trkpt>
      <trkpt lat="41.78231" lon="9.12008">
        <ele>1058</ele>
        <time>2021-06-03T06:29:29Z</time>
      </trkpt>
      <trkpt lat="41.78231" lon="9.1201">
        <ele>1058</ele>
        <time>2021-06-03T06:29:30Z</time>
      </trkpt>
      <trkpt lat="41.78232" lon="9.12012">
        <ele>1058</ele>
        <time>2021-06-03T06:29:31Z</time>
      </trkpt>
      <trkpt lat="41.78232" lon="9.12014">
        <ele>1058.6</ele>
        <time>2021-06-03T06:29:32Z</time>
      </trkpt>
      <trkpt lat="41.78232" lon="9.12015">
        <ele>1058.6</ele>
        <time>2021-06-03T06:29:33Z</time>
      </trkpt>
      <trkpt lat="41.78233" lon="9.12017">
        <ele>1058.6</ele>
        <time>2021-06-03T06:29:34Z</time>
      </trkpt>
      <trkpt lat="41.78233" lon="9.12019">
        <ele>1058.8</ele>
        <time>2021-06-03T06:29:35Z</time>
      </trkpt>
      <trkpt lat="41.78234" lon="9.12021">
        <ele>1058.8</ele>
        <time>2021-06-03T06:29:36Z</time>
      </trkpt>
      <trkpt lat="41.78234" lon="9.12022">
        <ele>1058.8</ele>
        <time>2021-06-03T06:29:37Z</time>
      </trkpt>
      <trkpt lat="41.78235" lon="9.12024">
        <ele>1058.8</ele>
        <time>2021-06-03T06:29:38Z</time>
      </trkpt>
      <trkpt lat="41.78236" lon="9.12026">
        <ele>1059.8</ele>
        <time>2021-06-03T06:29:39Z</time>
      </trkpt>
      <trkpt lat="41.78237" lon="9.12027">
        <ele>1059.8</ele>
        <time>2021-06-03T06:29:40Z</time>
      </trkpt>
      <trkpt lat="41.78237" lon="9.12029">
        <ele>1059.8</ele>
        <time>2021-06-03T06:29:41Z</time>
      </trkpt>
      <trkpt lat="41.78238" lon="9.1203">
        <ele>1059.8</ele>
        <time>2021-06-03T06:29:42Z</time>
      </trkpt>
      <trkpt lat="41.78239" lon="9.12032">
        <ele>1060</ele>
        <time>2021-06-03T06:29:43Z</time>
      </trkpt>
      <trkpt lat="41.7824" lon="9.12034">
        <ele>1060</ele>
        <time>2021-06-03T06:29:44Z</time>
      </trkpt>
      <trkpt lat="41.78241" lon="9.12035">
        <ele>1060</ele>
        <time>2021-06-03T06:29:45Z</time>
      </trkpt>
      <trkpt lat="41.78241" lon="9.12037">
        <ele>1060</ele>
        <time>2021-06-03T06:29:46Z</time>
      </trkpt>
      <trkpt lat="41.78242" lon="9.12039">
        <ele>1060.6</ele>
        <time>2021-06-03T06:29:47Z</time>
      </trkpt>
      <trkpt lat="41.78242" lon="9.1204">
        <ele>1060.6</ele>
        <time>2021-06-03T06:29:48Z</time>
      </trkpt>
      <trkpt lat="41.78243" lon="9.12042">
        <ele>1060.6</ele>
        <time>2021-06-03T06:29:49Z</time>
      </trkpt>
      <trkpt lat="41.78243" lon="9.12044">
        <ele>1060.6</ele>
        <time>2021-06-03T06:29:50Z</time>
      </trkpt>
      <trkpt lat="41.78244" lon="9.12046">
        <ele>1060.6</ele>
        <time>2021-06-03T06:29:51Z</time>
      </trkpt>
      <trkpt lat="41.78244" lon="9.12047">
        <ele>1060.8</ele>
        <time>2021-06-03T06:29:52Z</time>
      </trkpt>
      <trkpt lat="41.78245" lon="9.12049">
        <ele>1060.8</ele>
        <time>2021-06-03T06:29:53Z</time>
      </trkpt>
      <trkpt lat="41.78245" lon="9.12051">
        <ele>1060.8</ele>
        <time>2021-06-03T06:29:54Z</time>
      </trkpt>
      <trkpt lat="41.78245" lon="9.12053">
        <ele>1060.8</ele>
        <time>2021-06-03T06:29:55Z</time>
      </trkpt>
      <trkpt lat="41.78245" lon="9.12055">
        <ele>1061</ele>
        <time>2021-06-03T06:29:56Z</time>
      </trkpt>
      <trkpt lat="41.78246" lon="9.12057">
        <ele>1061</ele>
        <time>2021-06-03T06:29:57Z</time>
      </trkpt>
      <trkpt lat="41.78246" lon="9.12059">
        <ele>1061</ele>
        <time>2021-06-03T06:29:58Z</time>
      </trkpt>
      <trkpt lat="41.78246" lon="9.12061">
        <ele>1061</ele>
        <time>2021-06-03T06:29:59Z</time>
      </trkpt>
      <trkpt lat="41.78246" lon="9.12062">
        <ele>1061</ele>
        <time>2021-06-03T06:30:00Z</time>
      </trkpt>
      <trkpt lat="41.78246" lon="9.12064">
        <ele>1061</ele>
        <time>2021-06-03T06:30:01Z</time>
      </trkpt>
      <trkpt lat="41.78246" lon="9.12066">
        <ele>1061</ele>
        <time>2021-06-03T06:30:02Z</time>
      </trkpt>
      <trkpt lat="41.78246" lon="9.12068">
        <ele>1062</ele>
        <time>2021-06-03T06:30:03Z</time>
      </trkpt>
      <trkpt lat="41.78246" lon="9.1207">
        <ele>1061.8</ele>
        <time>2021-06-03T06:30:04Z</time>
      </trkpt>
      <trkpt lat="41.78247" lon="9.12071">
        <ele>1061.8</ele>
        <time>2021-06-03T06:30:05Z</time>
      </trkpt>
      <trkpt lat="41.78247" lon="9.12073">
        <ele>1061.8</ele>
        <time>2021-06-03T06:30:06Z</time>
      </trkpt>
      <trkpt lat="41.78248" lon="9.12074">
        <ele>1062.4</ele>
        <time>2021-06-03T06:30:07Z</time>
      </trkpt>
      <trkpt lat="41.78248" lon="9.12075">
        <ele>1062.6</ele>
        <time>2021-06-03T06:30:08Z</time>
      </trkpt>
      <trkpt lat="41.78248" lon="9.12077">
        <ele>1062.6</ele>
        <time>2021-06-03T06:30:09Z</time>
      </trkpt>
      <trkpt lat="41.78248" lon="9.12078">
        <ele>1062.6</ele>
        <time>2021-06-03T06:30:10Z</time>
      </trkpt>
      <trkpt lat="41.78248" lon="9.1208">
        <ele>1063.6</ele>
        <time>2021-06-03T06:30:11Z</time>
      </trkpt>
      <trkpt lat="41.78248" lon="9.12082">
        <ele>1063.6</ele>
        <time>2021-06-03T06:30:12Z</time>
      </trkpt>
      <trkpt lat="41.78249" lon="9.12084">
        <ele>1063.6</ele>
        <time>2021-06-03T06:30:13Z</time>
      </trkpt>
      <trkpt lat="41.78249" lon="9.12086">
        <ele>1063.6</ele>
        <time>2021-06-03T06:30:14Z</time>
      </trkpt>
      <trkpt lat="41.78249" lon="9.12088">
        <ele>1064</ele>
        <time>2021-06-03T06:30:15Z</time>
      </trkpt>
      <trkpt lat="41.78249" lon="9.1209">
        <ele>1064.4</ele>
        <time>2021-06-03T06:30:16Z</time>
      </trkpt>
      <trkpt lat="41.78249" lon="9.12091">
        <ele>1064.4</ele>
        <time>2021-06-03T06:30:17Z</time>
      </trkpt>
      <trkpt lat="41.7825" lon="9.12092">
        <ele>1064.4</ele>
        <time>2021-06-03T06:30:18Z</time>
      </trkpt>
      <trkpt lat="41.7825" lon="9.12094">
        <ele>1064.4</ele>
        <time>2021-06-03T06:30:19Z</time>
      </trkpt>
      <trkpt lat="41.7825" lon="9.12096">
        <ele>1065</ele>
        <time>2021-06-03T06:30:20Z</time>
      </trkpt>
      <trkpt lat="41.78251" lon="9.12097">
        <ele>1065</ele>
        <time>2021-06-03T06:30:21Z</time>
      </trkpt>
      <trkpt lat="41.78252" lon="9.12098">
        <ele>1065</ele>
        <time>2021-06-03T06:30:22Z</time>
      </trkpt>
      <trkpt lat="41.78252" lon="9.12099">
        <ele>1065.4</ele>
        <time>2021-06-03T06:30:23Z</time>
      </trkpt>
      <trkpt lat="41.78252" lon="9.12101">
        <ele>1066</ele>
        <time>2021-06-03T06:30:24Z</time>
      </trkpt>
      <trkpt lat="41.78252" lon="9.12102">
        <ele>1066</ele>
        <time>2021-06-03T06:30:25Z</time>
      </trkpt>
      <trkpt lat="41.78252" lon="9.12102">
        <ele>1066</ele>
        <time>2021-06-03T06:30:26Z</time>
      </trkpt>
      <trkpt lat="41.78252" lon="9.12102">
        <ele>1066.4</ele>
        <time>2021-06-03T06:30:27Z</time>
      </trkpt>
      <trkpt lat="41.78225" lon="9.12269">
        <ele>1082</ele>
        <time>2021-06-03T06:32:37Z</time>
      </trkpt>
      <trkpt lat="41.78226" lon="9.12271">
        <ele>1082</ele>
        <time>2021-06-03T06:32:38Z</time>
      </trkpt>
      <trkpt lat="41.78227" lon="9.12272">
        <ele>1082.6</ele>
        <time>2021-06-03T06:32:39Z</time>
      </trkpt>
      <trkpt lat="41.78228" lon="9.12274">
        <ele>1083</ele>
        <time>2021-06-03T06:32:40Z</time>
      </trkpt>
      <trkpt lat="41.78229" lon="9.12275">
        <ele>1083</ele>
        <time>2021-06-03T06:32:41Z</time>
      </trkpt>
      <trkpt lat="41.7823" lon="9.12276">
        <ele>1083</ele>
        <time>2021-06-03T06:32:42Z</time>
      </trkpt>
      <trkpt lat="41.78231" lon="9.12278">
        <ele>1083</ele>
        <time>2021-06-03T06:32:43Z</time>
      </trkpt>
      <trkpt lat="41.78232" lon="9.12279">
        <ele>1083.2</ele>
        <time>2021-06-03T06:32:44Z</time>
      </trkpt>
      <trkpt lat="41.78233" lon="9.12281">
        <ele>1083.2</ele>
        <time>2021-06-03T06:32:45Z</time>
      </trkpt>
      <trkpt lat="41.78234" lon="9.12282">
        <ele>1083.2</ele>
        <time>2021-06-03T06:32:46Z</time>
      </trkpt>
      <trkpt lat="41.78235" lon="9.12284">
        <ele>1083.2</ele>
        <time>2021-06-03T06:32:47Z</time>
      </trkpt>
      <trkpt lat="41.78236" lon="9.12285">
        <ele>1083.2</ele>
        <time>2021-06-03T06:32:48Z</time>
      </trkpt>
      <trkpt lat="41.78237" lon="9.12286">
        <ele>1083.2</ele>
        <time>2021-06-03T06:32:49Z</time>
      </trkpt>
      <trkpt lat="41.78238" lon="9.12288">
        <ele>1083.2</ele>
        <time>2021-06-03T06:32:50Z</time>
      </trkpt>
      <trkpt lat="41.78239" lon="9.12289">
        <ele>1083.2</ele>
        <time>2021-06-03T06:32:51Z</time>
      </trkpt>
      <trkpt lat="41.7824" lon="9.12291">
        <ele>1083.6</ele>
        <time>2021-06-03T06:32:52Z</time>
      </trkpt>
      <trkpt lat="41.78241" lon="9.12292">
        <ele>1083.6</ele>
        <time>2021-06-03T06:32:53Z</time>
      </trkpt>
      <trkpt lat="41.78242" lon="9.12294">
        <ele>1083.6</ele>
        <time>2021-06-03T06:32:54Z</time>
      </trkpt>
      <trkpt lat="41.78243" lon="9.12296">
        <ele>1083.6</ele>
        <time>2021-06-03T06:32:55Z</time>
      </trkpt>
      <trkpt lat="41.78244" lon="9.12297">
        <ele>1083.8</ele>
        <time>2021-06-03T06:32:56Z</time>
      </trkpt>
      <trkpt lat="41.78245" lon="9.12299">
        <ele>1083.8</ele>
        <time>2021-06-03T06:32:57Z</time>
      </trkpt>
      <trkpt lat="41.78246" lon="9.123">
        <ele>1083.8</ele>
        <time>2021-06-03T06:32:58Z</time>
      </trkpt>
      <trkpt lat="41.78247" lon="9.12302">
        <ele>1083.8</ele>
        <time>2021-06-03T06:32:59Z</time>
      </trkpt>
      <trkpt lat="41.78248" lon="9.12303">
        <ele>1083.8</ele>
        <time>2021-06-03T06:33:00Z</time>
      </trkpt>
      <trkpt lat="41.78249" lon="9.12305">
        <ele>1083.8</ele>
        <time>2021-06-03T06:33:01Z</time>
      </trkpt>
      <trkpt lat="41.78249" lon="9.12306">
        <ele>1083.8</ele>
        <time>2021-06-03T06:33:02Z</time>
      </trkpt>
      <trkpt lat="41.7825" lon="9.12308">
        <ele>1084.2</ele>
        <time>2021-06-03T06:33:03Z</time>
      </trkpt>
      <trkpt lat="41.78251" lon="9.12309">
        <ele>1084.4</ele>
        <time>2021-06-03T06:33:04Z</time>
      </trkpt>
      <trkpt lat="41.78252" lon="9.12311">
        <ele>1084.4</ele>
        <time>2021-06-03T06:33:05Z</time>
      </trkpt>
      <trkpt lat="41.78253" lon="9.12312">
        <ele>1084.4</ele>
        <time>2021-06-03T06:33:06Z</time>
      </trkpt>
      <trkpt lat="41.78254" lon="9.12314">
        <ele>1084.6</ele>
        <time>2021-06-03T06:33:07Z</time>
      </trkpt>
      <trkpt lat="41.78254" lon="9.12315">
        <ele>1085.4</ele>
        <time>2021-06-03T06:33:08Z</time>
      </trkpt>
      <trkpt lat="41.78255" lon="9.12316">
        <ele>1085.4</ele>
        <time>2021-06-03T06:33:09Z</time>
      </trkpt>
      <trkpt lat="41.78256" lon="9.12318">
        <ele>1085.4</ele>
        <time>2021-06-03T06:33:10Z</time>
      </trkpt>
      <trkpt lat="41.78257" lon="9.12319">
        <ele>1085.4</ele>
        <time>2021-06-03T06:33:11Z</time>
      </trkpt>
      <trkpt lat="41.78257" lon="9.1232">
        <ele>1085.6</ele>
        <time>2021-06-03T06:33:12Z</time>
      </trkpt>
      <trkpt lat="41.78258" lon="9.12322">
        <ele>1085.6</ele>
        <time>2021-06-03T06:33:13Z</time>
      </trkpt>
      <trkpt lat="41.78259" lon="9.12323">
        <ele>1085.6</ele>
        <time>2021-06-03T06:33:14Z</time>
      </trkpt>
      <trkpt lat="41.7826" lon="9.12325">
        <ele>1085.6</ele>
        <time>2021-06-03T06:33:15Z</time>
      </trkpt>
      <trkpt lat="41.78261" lon="9.12327">
        <ele>1086</ele>
        <time>2021-06-03T06:33:16Z</time>
      </trkpt>
      <trkpt lat="41.78262" lon="9.12329">
        <ele>1086</ele>
        <time>2021-06-03T06:33:17Z</time>
      </trkpt>
      <trkpt lat="41.78263" lon="9.1233">
        <ele>1086</ele>
        <time>2021-06-03T06:33:18Z</time>
      </trkpt>
      <trkpt lat="41.78264" lon="9.12331">
        <ele>1086</ele>
        <time>2021-06-03T06:33:19Z</time>
      </trkpt>
      <trkpt lat="41.78265" lon="9.12333">
        <ele>1086.4</ele>
        <time>2021-06-03T06:33:20Z</time>
      </trkpt>
      <trkpt lat="41.78266" lon="9.12333">
        <ele>1086.4</ele>
        <time>2021-06-03T06:33:21Z</time>
      </trkpt>
      <trkpt lat="41.78267" lon="9.12335">
        <ele>1086.4</ele>
        <time>2021-06-03T06:33:22Z</time>
      </trkpt>
      <trkpt lat="41.78268" lon="9.12336">
        <ele>1086.4</ele>
        <time>2021-06-03T06:33:23Z</time>
      </trkpt>
      <trkpt lat="41.78269" lon="9.12338">
        <ele>1086.8</ele>
        <time>2021-06-03T06:33:24Z</time>
      </trkpt>
      <trkpt lat="41.7827" lon="9.1234">
        <ele>1086.8</ele>
        <time>2021-06-03T06:33:25Z</time>
      </trkpt>
      <trkpt lat="41.78271" lon="9.12342">
        <ele>1086.8</ele>
        <time>2021-06-03T06:33:26Z</time>
      </trkpt>
      <trkpt lat="41.78272" lon="9.12344">
        <ele>1087.6</ele>
        <time>2021-06-03T06:33:27Z</time>
      </trkpt>
      <trkpt lat="41.78272" lon="9.12345">
        <ele>1087.2</ele>
        <time>2021-06-03T06:33:28Z</time>
      </trkpt>
      <trkpt lat="41.78274" lon="9.12347">
        <ele>1087.2</ele>
        <time>2021-06-03T06:33:29Z</time>
      </trkpt>
      <trkpt lat="41.78275" lon="9.12349">
        <ele>1087.2</ele>
        <time>2021-06-03T06:33:30Z</time>
      </trkpt>
      <trkpt lat="41.78275" lon="9.1235">
        <ele>1088.2</ele>
        <time>2021-06-03T06:33:31Z</time>
      </trkpt>
      <trkpt lat="41.78276" lon="9.12352">
        <ele>1087.8</ele>
        <time>2021-06-03T06:33:32Z</time>
      </trkpt>
      <trkpt lat="41.78277" lon="9.12354">
        <ele>1087.8</ele>
        <time>2021-06-03T06:33:33Z</time>
      </trkpt>
      <trkpt lat="41.78278" lon="9.12355">
        <ele>1087.8</ele>
        <time>2021-06-03T06:33:34Z</time>
      </trkpt>
      <trkpt lat="41.78279" lon="9.12357">
        <ele>1087.8</ele>
        <time>2021-06-03T06:33:35Z</time>
      </trkpt>
      <trkpt lat="41.7828" lon="9.12358">
        <ele>1088.4</ele>
        <time>2021-06-03T06:33:36Z</time>
      </trkpt>
      <trkpt lat="41.78281" lon="9.1236">
        <ele>1088.4</ele>
        <time>2021-06-03T06:33:37Z</time>
      </trkpt>
      <trkpt lat="41.78282" lon="9.12361">
        <ele>1088.4</ele>
        <time>2021-06-03T06:33:38Z</time>
      </trkpt>
      <trkpt lat="41.78283" lon="9.12363">
        <ele>1088.4</ele>
        <time>2021-06-03T06:33:39Z</time>
      </trkpt>
      <trkpt lat="41.78285" lon="9.12364">
        <ele>1088.6</ele>
        <time>2021-06-03T06:33:40Z</time>
      </trkpt>
      <trkpt lat="41.78286" lon="9.12365">
        <ele>1088.6</ele>
        <time>2021-06-03T06:33:41Z</time>
      </trkpt>
      <trkpt lat="41.78287" lon="9.12367">
        <ele>1088.6</ele>
        <time>2021-06-03T06:33:42Z</time>
      </trkpt>
      <trkpt lat="41.78288" lon="9.12368">
        <ele>1088.6</ele>
        <time>2021-06-03T06:33:43Z</time>
      </trkpt>
      <trkpt lat="41.78289" lon="9.1237">
        <ele>1088.8</ele>
        <time>2021-06-03T06:33:44Z</time>
      </trkpt>
      <trkpt lat="41.7829" lon="9.12371">
        <ele>1088.8</ele>
        <time>2021-06-03T06:33:45Z</time>
      </trkpt>
      <trkpt lat="41.78291" lon="9.12373">
        <ele>1088.8</ele>
        <time>2021-06-03T06:33:46Z</time>
      </trkpt>
      <trkpt lat="41.78292" lon="9.12375">
        <ele>1088.8</ele>
        <time>2021-06-03T06:33:47Z</time>
      </trkpt>
      <trkpt lat="41.78293" lon="9.12376">
        <ele>1088.8</ele>
        <time>2021-06-03T06:33:48Z</time>
      </trkpt>
      <trkpt lat="41.78294" lon="9.12378">
        <ele>1088.8</ele>
        <time>2021-06-03T06:33:49Z</time>
      </trkpt>
      <trkpt lat="41.78295" lon="9.1238">
        <ele>1088.8</ele>
        <time>2021-06-03T06:33:50Z</time>
      </trkpt>
      <trkpt lat="41.78296" lon="9.12382">
        <ele>1088.8</ele>
        <time>2021-06-03T06:33:51Z</time>
      </trkpt>
      <trkpt lat="41.78297" lon="9.12384">
        <ele>1089</ele>
        <time>2021-06-03T06:33:52Z</time>
      </trkpt>
      <trkpt lat="41.78298" lon="9.12386">
        <ele>1089</ele>
        <time>2021-06-03T06:33:53Z</time>
      </trkpt>
      <trkpt lat="41.78298" lon="9.12388">
        <ele>1089</ele>
        <time>2021-06-03T06:33:54Z</time>
      </trkpt>
      <trkpt lat="41.78299" lon="9.1239">
        <ele>1089</ele>
        <time>2021-06-03T06:33:55Z</time>
      </trkpt>
      <trkpt lat="41.783" lon="9.12392">
        <ele>1089.4</ele>
        <time>2021-06-03T06:33:56Z</time>
      </trkpt>
      <trkpt lat="41.78301" lon="9.12395">
        <ele>1089.4</ele>
        <time>2021-06-03T06:33:57Z</time>
      </trkpt>
      <trkpt lat="41.78301" lon="9.12397">
        <ele>1089.4</ele>
        <time>2021-06-03T06:33:58Z</time>
      </trkpt>
      <trkpt lat="41.78302" lon="9.12399">
        <ele>1089.4</ele>
        <time>2021-06-03T06:33:59Z</time>
      </trkpt>
      <trkpt lat="41.78303" lon="9.12402">
        <ele>1089</ele>
        <time>2021-06-03T06:34:00Z</time>
      </trkpt>
      <trkpt lat="41.78304" lon="9.12404">
        <ele>1089</ele>
        <time>2021-06-03T06:34:01Z</time>
      </trkpt>
      <trkpt lat="41.78305" lon="9.12406">
        <ele>1089</ele>
        <time>2021-06-03T06:34:02Z</time>
      </trkpt>
      <trkpt lat="41.78306" lon="9.12409">
        <ele>1089.6</ele>
        <time>2021-06-03T06:34:03Z</time>
      </trkpt>
      <trkpt lat="41.78307" lon="9.12411">
        <ele>1089.8</ele>
        <time>2021-06-03T06:34:04Z</time>
      </trkpt>
      <trkpt lat="41.78308" lon="9.12413">
        <ele>1089.8</ele>
        <time>2021-06-03T06:34:05Z</time>
      </trkpt>
      <trkpt lat="41.78309" lon="9.12416">
        <ele>1089.8</ele>
        <time>2021-06-03T06:34:06Z</time>
      </trkpt>
      <trkpt lat="41.7831" lon="9.12418">
        <ele>1089.6</ele>
        <time>2021-06-03T06:34:07Z</time>
      </trkpt>
      <trkpt lat="41.78311" lon="9.1242">
        <ele>1089.6</ele>
        <time>2021-06-03T06:34:08Z</time>
      </trkpt>
      <trkpt lat="41.78311" lon="9.12423">
        <ele>1089.6</ele>
        <time>2021-06-03T06:34:09Z</time>
      </trkpt>
      <trkpt lat="41.78312" lon="9.12425">
        <ele>1089.6</ele>
        <time>2021-06-03T06:34:10Z</time>
      </trkpt>
      <trkpt lat="41.78313" lon="9.12428">
        <ele>1089.6</ele>
        <time>2021-06-03T06:34:11Z</time>
      </trkpt>
      <trkpt lat="41.78314" lon="9.12431">
        <ele>1089.6</ele>
        <time>2021-06-03T06:34:12Z</time>
      </trkpt>
      <trkpt lat="41.78315" lon="9.12433">
        <ele>1089.6</ele>
        <time>2021-06-03T06:34:13Z</time>
      </trkpt>
      <trkpt lat="41.78316" lon="9.12436">
        <ele>1089.6</ele>
        <time>2021-06-03T06:34:14Z</time>
      </trkpt>
      <trkpt lat="41.78316" lon="9.12438">
        <ele>1090.4</ele>
        <time>2021-06-03T06:34:15Z</time>
      </trkpt>
      <trkpt lat="41.78318" lon="9.12441">
        <ele>1090.4</ele>
        <time>2021-06-03T06:34:16Z</time>
      </trkpt>
      <trkpt lat="41.78319" lon="9.12443">
        <ele>1090.4</ele>
        <time>2021-06-03T06:34:17Z</time>
      </trkpt>
      <trkpt lat="41.7832" lon="9.12446">
        <ele>1090.4</ele>
        <time>2021-06-03T06:34:18Z</time>
      </trkpt>
      <trkpt lat="41.78321" lon="9.12448">
        <ele>1090.4</ele>
        <time>2021-06-03T06:34:19Z</time>
      </trkpt>
      <trkpt lat="41.78322" lon="9.12451">
        <ele>1090</ele>
        <time>2021-06-03T06:34:20Z</time>
      </trkpt>
      <trkpt lat="41.78323" lon="9.12453">
        <ele>1090</ele>
        <time>2021-06-03T06:34:21Z</time>
      </trkpt>
      <trkpt lat="41.78325" lon="9.12456">
        <ele>1090</ele>
        <time>2021-06-03T06:34:22Z</time>
      </trkpt>
      <trkpt lat="41.78326" lon="9.12458">
        <ele>1090</ele>
        <time>2021-06-03T06:34:23Z</time>
      </trkpt>
      <trkpt lat="41.78327" lon="9.12461">
        <ele>1090.4</ele>
        <time>2021-06-03T06:34:24Z</time>
      </trkpt>
      <trkpt lat="41.78328" lon="9.12463">
        <ele>1090.4</ele>
        <time>2021-06-03T06:34:25Z</time>
      </trkpt>
      <trkpt lat="41.78329" lon="9.12465">
        <ele>1090.4</ele>
        <time>2021-06-03T06:34:26Z</time>
      </trkpt>
      <trkpt lat="41.78331" lon="9.12468">
        <ele>1091.4</ele>
        <time>2021-06-03T06:34:27Z</time>
      </trkpt>
      <trkpt lat="41.78331" lon="9.1247">
        <ele>1090.6</ele>
        <time>2021-06-03T06:34:28Z</time>
      </trkpt>
      <trkpt lat="41.78333" lon="9.12473">
        <ele>1090.6</ele>
        <time>2021-06-03T06:34:29Z</time>
      </trkpt>
      <trkpt lat="41.78334" lon="9.12475">
        <ele>1090.6</ele>
        <time>2021-06-03T06:34:30Z</time>
      </trkpt>
      <trkpt lat="41.78335" lon="9.12477">
        <ele>1090.6</ele>
        <time>2021-06-03T06:34:31Z</time>
      </trkpt>
      <trkpt lat="41.78336" lon="9.12479">
        <ele>1090.6</ele>
        <time>2021-06-03T06:34:32Z</time>
      </trkpt>
      <trkpt lat="41.78336" lon="9.12481">
        <ele>1090.6</ele>
        <time>2021-06-03T06:34:33Z</time>
      </trkpt>
      <trkpt lat="41.78337" lon="9.12483">
        <ele>1090.6</ele>
        <time>2021-06-03T06:34:34Z</time>
      </trkpt>
      <trkpt lat="41.78338" lon="9.12486">
        <ele>1091.2</ele>
        <time>2021-06-03T06:34:35Z</time>
      </trkpt>
      <trkpt lat="41.78339" lon="9.12488">
        <ele>1091.4</ele>
        <time>2021-06-03T06:34:36Z</time>
      </trkpt>
      <trkpt lat="41.7834" lon="9.1249">
        <ele>1091.4</ele>
        <time>2021-06-03T06:34:37Z</time>
      </trkpt>
      <trkpt lat="41.78341" lon="9.12492">
        <ele>1091.4</ele>
        <time>2021-06-03T06:34:38Z</time>
      </trkpt>
      <trkpt lat="41.78342" lon="9.12494">
        <ele>1092.2</ele>
        <time>2021-06-03T06:34:39Z</time>
      </trkpt>
      <trkpt lat="41.78343" lon="9.12496">
        <ele>1092.6</ele>
        <time>2021-06-03T06:34:40Z</time>
      </trkpt>
      <trkpt lat="41.78344" lon="9.12498">
        <ele>1092.6</ele>
        <time>2021-06-03T06:34:41Z</time>
      </trkpt>
      <trkpt lat="41.78345" lon="9.125">
        <ele>1092.6</ele>
        <time>2021-06-03T06:34:42Z</time>
      </trkpt>
      <trkpt lat="41.78345" lon="9.12502">
        <ele>1092.6</ele>
        <time>2021-06-03T06:34:43Z</time>
      </trkpt>
      <trkpt lat="41.78346" lon="9.12504">
        <ele>1092.2</ele>
        <time>2021-06-03T06:34:44Z</time>
      </trkpt>
      <trkpt lat="41.78347" lon="9.12506">
        <ele>1092.2</ele>
        <time>2021-06-03T06:34:45Z</time>
      </trkpt>
      <trkpt lat="41.78348" lon="9.12508">
        <ele>1092.2</ele>
        <time>2021-06-03T06:34:46Z</time>
      </trkpt>
      <trkpt lat="41.78349" lon="9.1251">
        <ele>1092.8</ele>
        <time>2021-06-03T06:34:47Z</time>
      </trkpt>
      <trkpt lat="41.78349" lon="9.12511">
        <ele>1093</ele>
        <time>2021-06-03T06:34:48Z</time>
      </trkpt>
      <trkpt lat="41.7835" lon="9.12513">
        <ele>1093</ele>
        <time>2021-06-03T06:34:49Z</time>
      </trkpt>
      <trkpt lat="41.78351" lon="9.12515">
        <ele>1093</ele>
        <time>2021-06-03T06:34:50Z</time>
      </trkpt>
      <trkpt lat="41.78352" lon="9.12516">
        <ele>1093</ele>
        <time>2021-06-03T06:34:51Z</time>
      </trkpt>
      <trkpt lat="41.78353" lon="9.12518">
        <ele>1092.8</ele>
        <time>2021-06-03T06:34:52Z</time>
      </trkpt>
      <trkpt lat="41.78354" lon="9.1252">
        <ele>1092.8</ele>
        <time>2021-06-03T06:34:53Z</time>
      </trkpt>
      <trkpt lat="41.78354" lon="9.12522">
        <ele>1092.8</ele>
        <time>2021-06-03T06:34:54Z</time>
      </trkpt>
      <trkpt lat="41.78355" lon="9.12524">
        <ele>1092.8</ele>
        <time>2021-06-03T06:34:55Z</time>
      </trkpt>
      <trkpt lat="41.78355" lon="9.12525">
        <ele>1093</ele>
        <time>2021-06-03T06:34:56Z</time>
      </trkpt>
      <trkpt lat="41.78356" lon="9.12527">
        <ele>1093</ele>
        <time>2021-06-03T06:34:57Z</time>
      </trkpt>
      <trkpt lat="41.78357" lon="9.12529">
        <ele>1093</ele>
        <time>2021-06-03T06:34:58Z</time>
      </trkpt>
      <trkpt lat="41.78358" lon="9.12531">
        <ele>1093</ele>
        <time>2021-06-03T06:34:59Z</time>
      </trkpt>
      <trkpt lat="41.78359" lon="9.12533">
        <ele>1093.4</ele>
        <time>2021-06-03T06:35:00Z</time>
      </trkpt>
      <trkpt lat="41.7836" lon="9.12534">
        <ele>1093.4</ele>
        <time>2021-06-03T06:35:01Z</time>
      </trkpt>
      <trkpt lat="41.78361" lon="9.12536">
        <ele>1093.4</ele>
        <time>2021-06-03T06:35:02Z</time>
      </trkpt>
      <trkpt lat="41.78362" lon="9.12538">
        <ele>1093.4</ele>
        <time>2021-06-03T06:35:03Z</time>
      </trkpt>
      <trkpt lat="41.78362" lon="9.12539">
        <ele>1093.6</ele>
        <time>2021-06-03T06:35:04Z</time>
      </trkpt>
      <trkpt lat="41.78363" lon="9.12541">
        <ele>1093.6</ele>
        <time>2021-06-03T06:35:05Z</time>
      </trkpt>
      <trkpt lat="41.78364" lon="9.12543">
        <ele>1093.6</ele>
        <time>2021-06-03T06:35:06Z</time>
      </trkpt>
      <trkpt lat="41.78364" lon="9.12545">
        <ele>1094.2</ele>
        <time>2021-06-03T06:35:07Z</time>
      </trkpt>
      <trkpt lat="41.78365" lon="9.12547">
        <ele>1094</ele>
        <time>2021-06-03T06:35:08Z</time>
      </trkpt>
      <trkpt lat="41.78366" lon="9.12549">
        <ele>1094</ele>
        <time>2021-06-03T06:35:09Z</time>
      </trkpt>
      <trkpt lat="41.78366" lon="9.12551">
        <ele>1094</ele>
        <time>2021-06-03T06:35:10Z</time>
      </trkpt>
      <trkpt lat="41.78367" lon="9.12552">
        <ele>1094.6</ele>
        <time>2021-06-03T06:35:11Z</time>
      </trkpt>
      <trkpt lat="41.78368" lon="9.12554">
        <ele>1094.6</ele>
        <time>2021-06-03T06:35:12Z</time>
      </trkpt>
      <trkpt lat="41.78369" lon="9.12556">
        <ele>1094.6</ele>
        <time>2021-06-03T06:35:13Z</time>
      </trkpt>
      <trkpt lat="41.7837" lon="9.12558">
        <ele>1094.6</ele>
        <time>2021-06-03T06:35:14Z</time>
      </trkpt>
      <trkpt lat="41.7837" lon="9.1256">
        <ele>1094.6</ele>
        <time>2021-06-03T06:35:15Z</time>
      </trkpt>
      <trkpt lat="41.78371" lon="9.12561">
        <ele>1094.4</ele>
        <time>2021-06-03T06:35:16Z</time>
      </trkpt>
      <trkpt lat="41.78372" lon="9.12563">
        <ele>1094.4</ele>
        <time>2021-06-03T06:35:17Z</time>
      </trkpt>
      <trkpt lat="41.78372" lon="9.12565">
        <ele>1094.4</ele>
        <time>2021-06-03T06:35:18Z</time>
      </trkpt>
      <trkpt lat="41.78373" lon="9.12567">
        <ele>1094.8</ele>
        <time>2021-06-03T06:35:19Z</time>
      </trkpt>
      <trkpt lat="41.78374" lon="9.12569">
        <ele>1094.8</ele>
        <time>2021-06-03T06:35:20Z</time>
      </trkpt>
      <trkpt lat="41.78374" lon="9.12572">
        <ele>1094.8</ele>
        <time>2021-06-03T06:35:21Z</time>
      </trkpt>
      <trkpt lat="41.78375" lon="9.12574">
        <ele>1094.8</ele>
        <time>2021-06-03T06:35:22Z</time>
      </trkpt>
      <trkpt lat="41.78376" lon="9.12576">
        <ele>1094.8</ele>
        <time>2021-06-03T06:35:23Z</time>
      </trkpt>
      <trkpt lat="41.78377" lon="9.12578">
        <ele>1094.6</ele>
        <time>2021-06-03T06:35:24Z</time>
      </trkpt>
      <trkpt lat="41.78378" lon="9.1258">
        <ele>1094.6</ele>
        <time>2021-06-03T06:35:25Z</time>
      </trkpt>
      <trkpt lat="41.78378" lon="9.12582">
        <ele>1094.6</ele>
        <time>2021-06-03T06:35:26Z</time>
      </trkpt>
      <trkpt lat="41.78379" lon="9.12584">
        <ele>1095.2</ele>
        <time>2021-06-03T06:35:27Z</time>
      </trkpt>
      <trkpt lat="41.7838" lon="9.12585">
        <ele>1095.2</ele>
        <time>2021-06-03T06:35:28Z</time>
      </trkpt>
      <trkpt lat="41.78381" lon="9.12587">
        <ele>1095.2</ele>
        <time>2021-06-03T06:35:29Z</time>
      </trkpt>
      <trkpt lat="41.78382" lon="9.12589">
        <ele>1095.2</ele>
        <time>2021-06-03T06:35:30Z</time>
      </trkpt>
      <trkpt lat="41.78383" lon="9.1259">
        <ele>1094.4</ele>
        <time>2021-06-03T06:35:31Z</time>
      </trkpt>
      <trkpt lat="41.78384" lon="9.12591">
        <ele>1094.8</ele>
        <time>2021-06-03T06:35:32Z</time>
      </trkpt>
      <trkpt lat="41.78384" lon="9.12593">
        <ele>1094.8</ele>
        <time>2021-06-03T06:35:33Z</time>
      </trkpt>
      <trkpt lat="41.78385" lon="9.12594">
        <ele>1094.8</ele>
        <time>2021-06-03T06:35:34Z</time>
      </trkpt>
      <trkpt lat="41.78386" lon="9.12596">
        <ele>1095.2</ele>
        <time>2021-06-03T06:35:35Z</time>
      </trkpt>
      <trkpt lat="41.78388" lon="9.12597">
        <ele>1095</ele>
        <time>2021-06-03T06:35:36Z</time>
      </trkpt>
      <trkpt lat="41.78389" lon="9.12598">
        <ele>1095</ele>
        <time>2021-06-03T06:35:37Z</time>
      </trkpt>
      <trkpt lat="41.7839" lon="9.126">
        <ele>1095</ele>
        <time>2021-06-03T06:35:38Z</time>
      </trkpt>
      <trkpt lat="41.78391" lon="9.12601">
        <ele>1095</ele>
        <time>2021-06-03T06:35:39Z</time>
      </trkpt>
      <trkpt lat="41.78392" lon="9.12603">
        <ele>1095</ele>
        <time>2021-06-03T06:35:40Z</time>
      </trkpt>
      <trkpt lat="41.78393" lon="9.12605">
        <ele>1095</ele>
        <time>2021-06-03T06:35:41Z</time>
      </trkpt>
      <trkpt lat="41.78394" lon="9.12607">
        <ele>1095</ele>
        <time>2021-06-03T06:35:42Z</time>
      </trkpt>
      <trkpt lat="41.78396" lon="9.12609">
        <ele>1094.6</ele>
        <time>2021-06-03T06:35:43Z</time>
      </trkpt>
      <trkpt lat="41.78397" lon="9.12611">
        <ele>1094.6</ele>
        <time>2021-06-03T06:35:44Z</time>
      </trkpt>
      <trkpt lat="41.78398" lon="9.12613">
        <ele>1094.6</ele>
        <time>2021-06-03T06:35:45Z</time>
      </trkpt>
      <trkpt lat="41.784" lon="9.12615">
        <ele>1094.6</ele>
        <time>2021-06-03T06:35:46Z</time>
      </trkpt>
      <trkpt lat="41.78401" lon="9.12617">
        <ele>1094.6</ele>
        <time>2021-06-03T06:35:47Z</time>
      </trkpt>
      <trkpt lat="41.78403" lon="9.12619">
        <ele>1094.2</ele>
        <time>2021-06-03T06:35:48Z</time>
      </trkpt>
      <trkpt lat="41.78405" lon="9.12621">
        <ele>1094.2</ele>
        <time>2021-06-03T06:35:49Z</time>
      </trkpt>
      <trkpt lat="41.78406" lon="9.12623">
        <ele>1094.2</ele>
        <time>2021-06-03T06:35:50Z</time>
      </trkpt>
      <trkpt lat="41.78408" lon="9.12625">
        <ele>1094.2</ele>
        <time>2021-06-03T06:35:51Z</time>
      </trkpt>
      <trkpt lat="41.7841" lon="9.12627">
        <ele>1093.6</ele>
        <time>2021-06-03T06:35:52Z</time>
      </trkpt>
      <trkpt lat="41.78411" lon="9.12629">
        <ele>1093.6</ele>
        <time>2021-06-03T06:35:53Z</time>
      </trkpt>
      <trkpt lat="41.78413" lon="9.12631">
        <ele>1093.6</ele>
        <time>2021-06-03T06:35:54Z</time>
      </trkpt>
      <trkpt lat="41.78414" lon="9.12633">
        <ele>1093.6</ele>
        <time>2021-06-03T06:35:55Z</time>
      </trkpt>
      <trkpt lat="41.78416" lon="9.12635">
        <ele>1094.2</ele>
        <time>2021-06-03T06:35:56Z</time>
      </trkpt>
      <trkpt lat="41.78417" lon="9.12637">
        <ele>1094.2</ele>
        <time>2021-06-03T06:35:57Z</time>
      </trkpt>
      <trkpt lat="41.78419" lon="9.12639">
        <ele>1094.2</ele>
        <time>2021-06-03T06:35:58Z</time>
      </trkpt>
      <trkpt lat="41.78421" lon="9.12641">
        <ele>1094.2</ele>
        <time>2021-06-03T06:35:59Z</time>
      </trkpt>
      <trkpt lat="41.78423" lon="9.12643">
        <ele>1094.4</ele>
        <time>2021-06-03T06:36:00Z</time>
      </trkpt>
      <trkpt lat="41.78425" lon="9.12645">
        <ele>1094.4</ele>
        <time>2021-06-03T06:36:01Z</time>
      </trkpt>
      <trkpt lat="41.78427" lon="9.12646">
        <ele>1094.4</ele>
        <time>2021-06-03T06:36:02Z</time>
      </trkpt>
      <trkpt lat="41.78429" lon="9.12648">
        <ele>1094.4</ele>
        <time>2021-06-03T06:36:03Z</time>
      </trkpt>
      <trkpt lat="41.7843" lon="9.1265">
        <ele>1094.4</ele>
        <time>2021-06-03T06:36:04Z</time>
      </trkpt>
      <trkpt lat="41.78432" lon="9.12651">
        <ele>1094.4</ele>
        <time>2021-06-03T06:36:05Z</time>
      </trkpt>
      <trkpt lat="41.78434" lon="9.12652">
        <ele>1094.4</ele>
        <time>2021-06-03T06:36:06Z</time>
      </trkpt>
      <trkpt lat="41.78435" lon="9.12653">
        <ele>1094.4</ele>
        <time>2021-06-03T06:36:07Z</time>
      </trkpt>
      <trkpt lat="41.78437" lon="9.12654">
        <ele>1094.6</ele>
        <time>2021-06-03T06:36:08Z</time>
      </trkpt>
      <trkpt lat="41.78439" lon="9.12656">
        <ele>1094.6</ele>
        <time>2021-06-03T06:36:09Z</time>
      </trkpt>
      <trkpt lat="41.7844" lon="9.12657">
        <ele>1094.6</ele>
        <time>2021-06-03T06:36:10Z</time>
      </trkpt>
      <trkpt lat="41.78441" lon="9.12658">
        <ele>1095</ele>
        <time>2021-06-03T06:36:11Z</time>
      </trkpt>
      <trkpt lat="41.78443" lon="9.1266">
        <ele>1095.4</ele>
        <time>2021-06-03T06:36:12Z</time>
      </trkpt>
      <trkpt lat="41.78445" lon="9.12661">
        <ele>1095.4</ele>
        <time>2021-06-03T06:36:13Z</time>
      </trkpt>
      <trkpt lat="41.78446" lon="9.12662">
        <ele>1095.4</ele>
        <time>2021-06-03T06:36:14Z</time>
      </trkpt>
      <trkpt lat="41.78448" lon="9.12663">
        <ele>1095.4</ele>
        <time>2021-06-03T06:36:15Z</time>
      </trkpt>
      <trkpt lat="41.7845" lon="9.12664">
        <ele>1095.6</ele>
        <time>2021-06-03T06:36:16Z</time>
      </trkpt>
      <trkpt lat="41.78452" lon="9.12666">
        <ele>1095.6</ele>
        <time>2021-06-03T06:36:17Z</time>
      </trkpt>
      <trkpt lat="41.78453" lon="9.12667">
        <ele>1095.6</ele>
        <time>2021-06-03T06:36:18Z</time>
      </trkpt>
      <trkpt lat="41.78455" lon="9.12669">
        <ele>1095.8</ele>
        <time>2021-06-03T06:36:19Z</time>
      </trkpt>
      <trkpt lat="41.78456" lon="9.1267">
        <ele>1096.2</ele>
        <time>2021-06-03T06:36:20Z</time>
      </trkpt>
      <trkpt lat="41.78458" lon="9.12671">
        <ele>1096.2</ele>
        <time>2021-06-03T06:36:21Z</time>
      </trkpt>
      <trkpt lat="41.78459" lon="9.12672">
        <ele>1096.2</ele>
        <time>2021-06-03T06:36:22Z</time>
      </trkpt>
      <trkpt lat="41.78461" lon="9.12674">
        <ele>1096.2</ele>
        <time>2021-06-03T06:36:23Z</time>
      </trkpt>
      <trkpt lat="41.78462" lon="9.12675">
        <ele>1096.4</ele>
        <time>2021-06-03T06:36:24Z</time>
      </trkpt>
      <trkpt lat="41.78464" lon="9.12676">
        <ele>1096.4</ele>
        <time>2021-06-03T06:36:25Z</time>
      </trkpt>
      <trkpt lat="41.78465" lon="9.12677">
        <ele>1096.4</ele>
        <time>2021-06-03T06:36:26Z</time>
      </trkpt>
      <trkpt lat="41.78466" lon="9.12679">
        <ele>1096.8</ele>
        <time>2021-06-03T06:36:27Z</time>
      </trkpt>
      <trkpt lat="41.78468" lon="9.1268">
        <ele>1096.8</ele>
        <time>2021-06-03T06:36:28Z</time>
      </trkpt>
      <trkpt lat="41.7847" lon="9.12681">
        <ele>1096.8</ele>
        <time>2021-06-03T06:36:29Z</time>
      </trkpt>
      <trkpt lat="41.78472" lon="9.12682">
        <ele>1096.8</ele>
        <time>2021-06-03T06:36:30Z</time>
      </trkpt>
      <trkpt lat="41.78473" lon="9.12683">
        <ele>1097.4</ele>
        <time>2021-06-03T06:36:31Z</time>
      </trkpt>
      <trkpt lat="41.78475" lon="9.12685">
        <ele>1097.4</ele>
        <time>2021-06-03T06:36:32Z</time>
      </trkpt>
      <trkpt lat="41.78476" lon="9.12686">
        <ele>1097.4</ele>
        <time>2021-06-03T06:36:33Z</time>
      </trkpt>
      <trkpt lat="41.78478" lon="9.12687">
        <ele>1097.4</ele>
        <time>2021-06-03T06:36:34Z</time>
      </trkpt>
      <trkpt lat="41.7848" lon="9.12688">
        <ele>1097.8</ele>
        <time>2021-06-03T06:36:35Z</time>
      </trkpt>
      <trkpt lat="41.78481" lon="9.12689">
        <ele>1098</ele>
        <time>2021-06-03T06:36:36Z</time>
      </trkpt>
      <trkpt lat="41.78482" lon="9.1269">
        <ele>1098</ele>
        <time>2021-06-03T06:36:37Z</time>
      </trkpt>
      <trkpt lat="41.78483" lon="9.12691">
        <ele>1098</ele>
        <time>2021-06-03T06:36:38Z</time>
      </trkpt>
      <trkpt lat="41.78485" lon="9.12691">
        <ele>1098</ele>
        <time>2021-06-03T06:36:39Z</time>
      </trkpt>
      <trkpt lat="41.78486" lon="9.12692">
        <ele>1098.2</ele>
        <time>2021-06-03T06:36:40Z</time>
      </trkpt>
      <trkpt lat="41.78488" lon="9.12692">
        <ele>1098.2</ele>
        <time>2021-06-03T06:36:41Z</time>
      </trkpt>
      <trkpt lat="41.78489" lon="9.12693">
        <ele>1098.2</ele>
        <time>2021-06-03T06:36:42Z</time>
      </trkpt>
      <trkpt lat="41.7849" lon="9.12693">
        <ele>1098.8</ele>
        <time>2021-06-03T06:36:43Z</time>
      </trkpt>
      <trkpt lat="41.78491" lon="9.12694">
        <ele>1098.8</ele>
        <time>2021-06-03T06:36:44Z</time>
      </trkpt>
      <trkpt lat="41.78493" lon="9.12694">
        <ele>1098.8</ele>
        <time>2021-06-03T06:36:45Z</time>
      </trkpt>
      <trkpt lat="41.78494" lon="9.12694">
        <ele>1098.8</ele>
        <time>2021-06-03T06:36:46Z</time>
      </trkpt>
      <trkpt lat="41.78496" lon="9.12694">
        <ele>1099.6</ele>
        <time>2021-06-03T06:36:47Z</time>
      </trkpt>
      <trkpt lat="41.78498" lon="9.12695">
        <ele>1099.4</ele>
        <time>2021-06-03T06:36:48Z</time>
      </trkpt>
      <trkpt lat="41.785" lon="9.12695">
        <ele>1099.4</ele>
        <time>2021-06-03T06:36:49Z</time>
      </trkpt>
      <trkpt lat="41.78502" lon="9.12695">
        <ele>1099.4</ele>
        <time>2021-06-03T06:36:50Z</time>
      </trkpt>
      <trkpt lat="41.78504" lon="9.12695">
        <ele>1100</ele>
        <time>2021-06-03T06:36:51Z</time>
      </trkpt>
      <trkpt lat="41.78505" lon="9.12695">
        <ele>1100</ele>
        <time>2021-06-03T06:36:52Z</time>
      </trkpt>
      <trkpt lat="41.78507" lon="9.12695">
        <ele>1100</ele>
        <time>2021-06-03T06:36:53Z</time>
      </trkpt>
      <trkpt lat="41.78508" lon="9.12695">
        <ele>1100</ele>
        <time>2021-06-03T06:36:54Z</time>
      </trkpt>
      <trkpt lat="41.7851" lon="9.12695">
        <ele>1100</ele>
        <time>2021-06-03T06:36:55Z</time>
      </trkpt>
      <trkpt lat="41.78511" lon="9.12695">
        <ele>1100</ele>
        <time>2021-06-03T06:36:56Z</time>
      </trkpt>
      <trkpt lat="41.78513" lon="9.12694">
        <ele>1100</ele>
        <time>2021-06-03T06:36:57Z</time>
      </trkpt>
      <trkpt lat="41.78514" lon="9.12694">
        <ele>1100</ele>
        <time>2021-06-03T06:36:58Z</time>
      </trkpt>
      <trkpt lat="41.78515" lon="9.12693">
        <ele>1100.6</ele>
        <time>2021-06-03T06:36:59Z</time>
      </trkpt>
      <trkpt lat="41.78517" lon="9.12693">
        <ele>1100.6</ele>
        <time>2021-06-03T06:37:00Z</time>
      </trkpt>
      <trkpt lat="41.78518" lon="9.12693">
        <ele>1100.6</ele>
        <time>2021-06-03T06:37:01Z</time>
      </trkpt>
      <trkpt lat="41.7852" lon="9.12692">
        <ele>1100.6</ele>
        <time>2021-06-03T06:37:02Z</time>
      </trkpt>
      <trkpt lat="41.78521" lon="9.12691">
        <ele>1100.8</ele>
        <time>2021-06-03T06:37:03Z</time>
      </trkpt>
      <trkpt lat="41.78522" lon="9.12691">
        <ele>1101</ele>
        <time>2021-06-03T06:37:04Z</time>
      </trkpt>
      <trkpt lat="41.78523" lon="9.1269">
        <ele>1101</ele>
        <time>2021-06-03T06:37:05Z</time>
      </trkpt>
      <trkpt lat="41.78525" lon="9.1269">
        <ele>1101</ele>
        <time>2021-06-03T06:37:06Z</time>
      </trkpt>
      <trkpt lat="41.78526" lon="9.12689">
        <ele>1101</ele>
        <time>2021-06-03T06:37:07Z</time>
      </trkpt>
      <trkpt lat="41.78527" lon="9.12689">
        <ele>1101.6</ele>
        <time>2021-06-03T06:37:08Z</time>
      </trkpt>
      <trkpt lat="41.78528" lon="9.12688">
        <ele>1101.6</ele>
        <time>2021-06-03T06:37:09Z</time>
      </trkpt>
      <trkpt lat="41.7853" lon="9.12688">
        <ele>1101.6</ele>
        <time>2021-06-03T06:37:10Z</time>
      </trkpt>
      <trkpt lat="41.78531" lon="9.12688">
        <ele>1101.8</ele>
        <time>2021-06-03T06:37:11Z</time>
      </trkpt>
      <trkpt lat="41.78532" lon="9.12688">
        <ele>1102.2</ele>
        <time>2021-06-03T06:37:12Z</time>
      </trkpt>
      <trkpt lat="41.78533" lon="9.12688">
        <ele>1102.2</ele>
        <time>2021-06-03T06:37:13Z</time>
      </trkpt>
      <trkpt lat="41.78535" lon="9.12687">
        <ele>1102.2</ele>
        <time>2021-06-03T06:37:14Z</time>
      </trkpt>
      <trkpt lat="41.78536" lon="9.12687">
        <ele>1102.6</ele>
        <time>2021-06-03T06:37:15Z</time>
      </trkpt>
      <trkpt lat="41.78537" lon="9.12687">
        <ele>1103</ele>
        <time>2021-06-03T06:37:16Z</time>
      </trkpt>
      <trkpt lat="41.78539" lon="9.12687">
        <ele>1103</ele>
        <time>2021-06-03T06:37:17Z</time>
      </trkpt>
      <trkpt lat="41.7854" lon="9.12687">
        <ele>1103</ele>
        <time>2021-06-03T06:37:18Z</time>
      </trkpt>
      <trkpt lat="41.78541" lon="9.12686">
        <ele>1103.2</ele>
        <time>2021-06-03T06:37:19Z</time>
      </trkpt>
      <trkpt lat="41.78542" lon="9.12686">
        <ele>1103.4</ele>
        <time>2021-06-03T06:37:20Z</time>
      </trkpt>
      <trkpt lat="41.78543" lon="9.12686">
        <ele>1103.4</ele>
        <time>2021-06-03T06:37:21Z</time>
      </trkpt>
      <trkpt lat="41.78545" lon="9.12685">
        <ele>1103.4</ele>
        <time>2021-06-03T06:37:22Z</time>
      </trkpt>
      <trkpt lat="41.78546" lon="9.12685">
        <ele>1104.2</ele>
        <time>2021-06-03T06:37:23Z</time>
      </trkpt>
      <trkpt lat="41.78547" lon="9.12685">
        <ele>1104.2</ele>
        <time>2021-06-03T06:37:24Z</time>
      </trkpt>
      <trkpt lat="41.78548" lon="9.12685">
        <ele>1104.2</ele>
        <time>2021-06-03T06:37:25Z</time>
      </trkpt>
      <trkpt lat="41.78549" lon="9.12685">
        <ele>1104.2</ele>
        <time>2021-06-03T06:37:26Z</time>
      </trkpt>
      <trkpt lat="41.7855" lon="9.12685">
        <ele>1104.2</ele>
        <time>2021-06-03T06:37:27Z</time>
      </trkpt>
      <trkpt lat="41.78551" lon="9.12685">
        <ele>1105</ele>
        <time>2021-06-03T06:37:28Z</time>
      </trkpt>
      <trkpt lat="41.78553" lon="9.12685">
        <ele>1105</ele>
        <time>2021-06-03T06:37:29Z</time>
      </trkpt>
      <trkpt lat="41.78554" lon="9.12685">
        <ele>1105</ele>
        <time>2021-06-03T06:37:30Z</time>
      </trkpt>
      <trkpt lat="41.78555" lon="9.12685">
        <ele>1105</ele>
        <time>2021-06-03T06:37:31Z</time>
      </trkpt>
      <trkpt lat="41.78556" lon="9.12685">
        <ele>1105.8</ele>
        <time>2021-06-03T06:37:32Z</time>
      </trkpt>
      <trkpt lat="41.78557" lon="9.12685">
        <ele>1105.8</ele>
        <time>2021-06-03T06:37:33Z</time>
      </trkpt>
      <trkpt lat="41.78558" lon="9.12686">
        <ele>1105.8</ele>
        <time>2021-06-03T06:37:34Z</time>
      </trkpt>
      <trkpt lat="41.78559" lon="9.12686">
        <ele>1105.8</ele>
        <time>2021-06-03T06:37:35Z</time>
      </trkpt>
      <trkpt lat="41.7856" lon="9.12686">
        <ele>1106.2</ele>
        <time>2021-06-03T06:37:36Z</time>
      </trkpt>
      <trkpt lat="41.78561" lon="9.12686">
        <ele>1106.2</ele>
        <time>2021-06-03T06:37:37Z</time>
      </trkpt>
      <trkpt lat="41.78563" lon="9.12686">
        <ele>1106.2</ele>
        <time>2021-06-03T06:37:38Z</time>
      </trkpt>
      <trkpt lat="41.78564" lon="9.12686">
        <ele>1106.2</ele>
        <time>2021-06-03T06:37:39Z</time>
      </trkpt>
      <trkpt lat="41.78565" lon="9.12686">
        <ele>1106.4</ele>
        <time>2021-06-03T06:37:40Z</time>
      </trkpt>
      <trkpt lat="41.78566" lon="9.12686">
        <ele>1106.4</ele>
        <time>2021-06-03T06:37:41Z</time>
      </trkpt>
      <trkpt lat="41.78568" lon="9.12686">
        <ele>1106.4</ele>
        <time>2021-06-03T06:37:42Z</time>
      </trkpt>
      <trkpt lat="41.78569" lon="9.12686">
        <ele>1106.4</ele>
        <time>2021-06-03T06:37:43Z</time>
      </trkpt>
      <trkpt lat="41.7857" lon="9.12686">
        <ele>1106.6</ele>
        <time>2021-06-03T06:37:44Z</time>
      </trkpt>
      <trkpt lat="41.78571" lon="9.12686">
        <ele>1106.6</ele>
        <time>2021-06-03T06:37:45Z</time>
      </trkpt>
      <trkpt lat="41.78573" lon="9.12686">
        <ele>1106.6</ele>
        <time>2021-06-03T06:37:46Z</time>
      </trkpt>
      <trkpt lat="41.78574" lon="9.12687">
        <ele>1106.8</ele>
        <time>2021-06-03T06:37:47Z</time>
      </trkpt>
      <trkpt lat="41.78575" lon="9.12687">
        <ele>1107.2</ele>
        <time>2021-06-03T06:37:48Z</time>
      </trkpt>
      <trkpt lat="41.78577" lon="9.12687">
        <ele>1107.2</ele>
        <time>2021-06-03T06:37:49Z</time>
      </trkpt>
      <trkpt lat="41.78578" lon="9.12688">
        <ele>1107.2</ele>
        <time>2021-06-03T06:37:50Z</time>
      </trkpt>
      <trkpt lat="41.78579" lon="9.12688">
        <ele>1107.6</ele>
        <time>2021-06-03T06:37:51Z</time>
      </trkpt>
      <trkpt lat="41.7858" lon="9.12689">
        <ele>1107.6</ele>
        <time>2021-06-03T06:37:52Z</time>
      </trkpt>
      <trkpt lat="41.78581" lon="9.12689">
        <ele>1107.6</ele>
        <time>2021-06-03T06:37:53Z</time>
      </trkpt>
      <trkpt lat="41.78582" lon="9.1269">
        <ele>1107.6</ele>
        <time>2021-06-03T06:37:54Z</time>
      </trkpt>
      <trkpt lat="41.78584" lon="9.12691">
        <ele>1107.6</ele>
        <time>2021-06-03T06:37:55Z</time>
      </trkpt>
      <trkpt lat="41.78585" lon="9.12691">
        <ele>1108</ele>
        <time>2021-06-03T06:37:56Z</time>
      </trkpt>
      <trkpt lat="41.78586" lon="9.12692">
        <ele>1108</ele>
        <time>2021-06-03T06:37:57Z</time>
      </trkpt>
      <trkpt lat="41.78587" lon="9.12692">
        <ele>1108</ele>
        <time>2021-06-03T06:37:58Z</time>
      </trkpt>
      <trkpt lat="41.78588" lon="9.12693">
        <ele>1108.2</ele>
        <time>2021-06-03T06:37:59Z</time>
      </trkpt>
      <trkpt lat="41.78589" lon="9.12694">
        <ele>1108</ele>
        <time>2021-06-03T06:38:00Z</time>
      </trkpt>
      <trkpt lat="41.78591" lon="9.12694">
        <ele>1108</ele>
        <time>2021-06-03T06:38:01Z</time>
      </trkpt>
      <trkpt lat="41.78592" lon="9.12695">
        <ele>1108</ele>
        <time>2021-06-03T06:38:02Z</time>
      </trkpt>
      <trkpt lat="41.78593" lon="9.12696">
        <ele>1108.6</ele>
        <time>2021-06-03T06:38:03Z</time>
      </trkpt>
      <trkpt lat="41.78594" lon="9.12696">
        <ele>1108.6</ele>
        <time>2021-06-03T06:38:04Z</time>
      </trkpt>
      <trkpt lat="41.78596" lon="9.12697">
        <ele>1108.6</ele>
        <time>2021-06-03T06:38:05Z</time>
      </trkpt>
      <trkpt lat="41.78597" lon="9.12698">
        <ele>1108.6</ele>
        <time>2021-06-03T06:38:06Z</time>
      </trkpt>
      <trkpt lat="41.78598" lon="9.12699">
        <ele>1108.6</ele>
        <time>2021-06-03T06:38:07Z</time>
      </trkpt>
      <trkpt lat="41.786" lon="9.127">
        <ele>1109.8</ele>
        <time>2021-06-03T06:38:08Z</time>
      </trkpt>
      <trkpt lat="41.78601" lon="9.127">
        <ele>1109.8</ele>
        <time>2021-06-03T06:38:09Z</time>
      </trkpt>
      <trkpt lat="41.78602" lon="9.12701">
        <ele>1109.8</ele>
        <time>2021-06-03T06:38:10Z</time>
      </trkpt>
      <trkpt lat="41.78603" lon="9.12702">
        <ele>1109.4</ele>
        <time>2021-06-03T06:38:11Z</time>
      </trkpt>
      <trkpt lat="41.78604" lon="9.12703">
        <ele>1109.6</ele>
        <time>2021-06-03T06:38:12Z</time>
      </trkpt>
      <trkpt lat="41.78605" lon="9.12703">
        <ele>1109.6</ele>
        <time>2021-06-03T06:38:13Z</time>
      </trkpt>
      <trkpt lat="41.78606" lon="9.12704">
        <ele>1109.6</ele>
        <time>2021-06-03T06:38:14Z</time>
      </trkpt>
      <trkpt lat="41.78607" lon="9.12705">
        <ele>1109.6</ele>
        <time>2021-06-03T06:38:15Z</time>
      </trkpt>
      <trkpt lat="41.78609" lon="9.12706">
        <ele>1110.4</ele>
        <time>2021-06-03T06:38:16Z</time>
      </trkpt>
      <trkpt lat="41.7861" lon="9.12707">
        <ele>1110.4</ele>
        <time>2021-06-03T06:38:17Z</time>
      </trkpt>
      <trkpt lat="41.78611" lon="9.12708">
        <ele>1110.4</ele>
        <time>2021-06-03T06:38:18Z</time>
      </trkpt>
      <trkpt lat="41.78612" lon="9.12708">
        <ele>1110.6</ele>
        <time>2021-06-03T06:38:19Z</time>
      </trkpt>
      <trkpt lat="41.78613" lon="9.12709">
        <ele>1111</ele>
        <time>2021-06-03T06:38:20Z</time>
      </trkpt>
      <trkpt lat="41.78614" lon="9.1271">
        <ele>1111</ele>
        <time>2021-06-03T06:38:21Z</time>
      </trkpt>
      <trkpt lat="41.78616" lon="9.12711">
        <ele>1111</ele>
        <time>2021-06-03T06:38:22Z</time>
      </trkpt>
      <trkpt lat="41.78617" lon="9.12711">
        <ele>1111</ele>
        <time>2021-06-03T06:38:23Z</time>
      </trkpt>
      <trkpt lat="41.78618" lon="9.12712">
        <ele>1111.2</ele>
        <time>2021-06-03T06:38:24Z</time>
      </trkpt>
      <trkpt lat="41.78619" lon="9.12713">
        <ele>1111.2</ele>
        <time>2021-06-03T06:38:25Z</time>
      </trkpt>
      <trkpt lat="41.7862" lon="9.12714">
        <ele>1111.2</ele>
        <time>2021-06-03T06:38:26Z</time>
      </trkpt>
      <trkpt lat="41.78621" lon="9.12714">
        <ele>1111.2</ele>
        <time>2021-06-03T06:38:27Z</time>
      </trkpt>
      <trkpt lat="41.78622" lon="9.12715">
        <ele>1111.6</ele>
        <time>2021-06-03T06:38:28Z</time>
      </trkpt>
      <trkpt lat="41.78624" lon="9.12716">
        <ele>1111.6</ele>
        <time>2021-06-03T06:38:29Z</time>
      </trkpt>
      <trkpt lat="41.78625" lon="9.12717">
        <ele>1111.6</ele>
        <time>2021-06-03T06:38:30Z</time>
      </trkpt>
      <trkpt lat="41.78626" lon="9.12718">
        <ele>1111.8</ele>
        <time>2021-06-03T06:38:31Z</time>
      </trkpt>
      <trkpt lat="41.78627" lon="9.12719">
        <ele>1111.6</ele>
        <time>2021-06-03T06:38:32Z</time>
      </trkpt>
      <trkpt lat="41.78628" lon="9.12719">
        <ele>1111.6</ele>
        <time>2021-06-03T06:38:33Z</time>
      </trkpt>
      <trkpt lat="41.78629" lon="9.1272">
        <ele>1111.6</ele>
        <time>2021-06-03T06:38:34Z</time>
      </trkpt>
      <trkpt lat="41.7863" lon="9.12721">
        <ele>1112.2</ele>
        <time>2021-06-03T06:38:35Z</time>
      </trkpt>
      <trkpt lat="41.78631" lon="9.12722">
        <ele>1112.6</ele>
        <time>2021-06-03T06:38:36Z</time>
      </trkpt>
      <trkpt lat="41.78632" lon="9.12723">
        <ele>1112.6</ele>
        <time>2021-06-03T06:38:37Z</time>
      </trkpt>
      <trkpt lat="41.78633" lon="9.12724">
        <ele>1112.6</ele>
        <time>2021-06-03T06:38:38Z</time>
      </trkpt>
      <trkpt lat="41.78634" lon="9.12725">
        <ele>1112.8</ele>
        <time>2021-06-03T06:38:39Z</time>
      </trkpt>
      <trkpt lat="41.78635" lon="9.12726">
        <ele>1112.8</ele>
        <time>2021-06-03T06:38:40Z</time>
      </trkpt>
      <trkpt lat="41.78636" lon="9.12727">
        <ele>1112.8</ele>
        <time>2021-06-03T06:38:41Z</time>
      </trkpt>
      <trkpt lat="41.78637" lon="9.12728">
        <ele>1112.8</ele>
        <time>2021-06-03T06:38:42Z</time>
      </trkpt>
      <trkpt lat="41.78638" lon="9.12729">
        <ele>1112.8</ele>
        <time>2021-06-03T06:38:43Z</time>
      </trkpt>
      <trkpt lat="41.7864" lon="9.1273">
        <ele>1113.4</ele>
        <time>2021-06-03T06:38:44Z</time>
      </trkpt>
      <trkpt lat="41.78641" lon="9.1273">
        <ele>1113.4</ele>
        <time>2021-06-03T06:38:45Z</time>
      </trkpt>
      <trkpt lat="41.78642" lon="9.12731">
        <ele>1113.4</ele>
        <time>2021-06-03T06:38:46Z</time>
      </trkpt>
      <trkpt lat="41.78643" lon="9.12732">
        <ele>1113.4</ele>
        <time>2021-06-03T06:38:47Z</time>
      </trkpt>
      <trkpt lat="41.78644" lon="9.12734">
        <ele>1113.4</ele>
        <time>2021-06-03T06:38:48Z</time>
      </trkpt>
      <trkpt lat="41.78646" lon="9.12734">
        <ele>1113.4</ele>
        <time>2021-06-03T06:38:49Z</time>
      </trkpt>
      <trkpt lat="41.78647" lon="9.12735">
        <ele>1113.4</ele>
        <time>2021-06-03T06:38:50Z</time>
      </trkpt>
      <trkpt lat="41.78648" lon="9.12736">
        <ele>1113.4</ele>
        <time>2021-06-03T06:38:51Z</time>
      </trkpt>
      <trkpt lat="41.7865" lon="9.12737">
        <ele>1113.8</ele>
        <time>2021-06-03T06:38:52Z</time>
      </trkpt>
      <trkpt lat="41.78651" lon="9.12738">
        <ele>1113.8</ele>
        <time>2021-06-03T06:38:53Z</time>
      </trkpt>
      <trkpt lat="41.78653" lon="9.12739">
        <ele>1113.8</ele>
        <time>2021-06-03T06:38:54Z</time>
      </trkpt>
      <trkpt lat="41.78654" lon="9.12739">
        <ele>1113.8</ele>
        <time>2021-06-03T06:38:55Z</time>
      </trkpt>
      <trkpt lat="41.78656" lon="9.1274">
        <ele>1113.6</ele>
        <time>2021-06-03T06:38:56Z</time>
      </trkpt>
      <trkpt lat="41.78658" lon="9.12741">
        <ele>1113.6</ele>
        <time>2021-06-03T06:38:57Z</time>
      </trkpt>
      <trkpt lat="41.78659" lon="9.12741">
        <ele>1113.6</ele>
        <time>2021-06-03T06:38:58Z</time>
      </trkpt>
      <trkpt lat="41.78662" lon="9.12741">
        <ele>1113.4</ele>
        <time>2021-06-03T06:38:59Z</time>
      </trkpt>
      <trkpt lat="41.78664" lon="9.12741">
        <ele>1113.4</ele>
        <time>2021-06-03T06:39:00Z</time>
      </trkpt>
      <trkpt lat="41.78666" lon="9.12741">
        <ele>1113.4</ele>
        <time>2021-06-03T06:39:01Z</time>
      </trkpt>
      <trkpt lat="41.78669" lon="9.12741">
        <ele>1113.4</ele>
        <time>2021-06-03T06:39:02Z</time>
      </trkpt>
      <trkpt lat="41.78672" lon="9.12741">
        <ele>1113.4</ele>
        <time>2021-06-03T06:39:03Z</time>
      </trkpt>
      <trkpt lat="41.78674" lon="9.12741">
        <ele>1113.2</ele>
        <time>2021-06-03T06:39:04Z</time>
      </trkpt>
      <trkpt lat="41.78678" lon="9.12741">
        <ele>1113.2</ele>
        <time>2021-06-03T06:39:05Z</time>
      </trkpt>
      <trkpt lat="41.7868" lon="9.12741">
        <ele>1113.2</ele>
        <time>2021-06-03T06:39:06Z</time>
      </trkpt>
      <trkpt lat="41.78683" lon="9.1274">
        <ele>1113</ele>
        <time>2021-06-03T06:39:07Z</time>
      </trkpt>
      <trkpt lat="41.78685" lon="9.1274">
        <ele>1113</ele>
        <time>2021-06-03T06:39:08Z</time>
      </trkpt>
      <trkpt lat="41.78687" lon="9.12739">
        <ele>1113</ele>
        <time>2021-06-03T06:39:09Z</time>
      </trkpt>
      <trkpt lat="41.7869" lon="9.12739">
        <ele>1113</ele>
        <time>2021-06-03T06:39:10Z</time>
      </trkpt>
      <trkpt lat="41.78692" lon="9.12739">
        <ele>1112.6</ele>
        <time>2021-06-03T06:39:11Z</time>
      </trkpt>
      <trkpt lat="41.78695" lon="9.12739">
        <ele>1112.8</ele>
        <time>2021-06-03T06:39:12Z</time>
      </trkpt>
      <trkpt lat="41.78698" lon="9.12739">
        <ele>1112.8</ele>
        <time>2021-06-03T06:39:13Z</time>
      </trkpt>
      <trkpt lat="41.787" lon="9.1274">
        <ele>1112.8</ele>
        <time>2021-06-03T06:39:14Z</time>
      </trkpt>
      <trkpt lat="41.78702" lon="9.1274">
        <ele>1112.8</ele>
        <time>2021-06-03T06:39:15Z</time>
      </trkpt>
      <trkpt lat="41.78703" lon="9.12741">
        <ele>1113.2</ele>
        <time>2021-06-03T06:39:16Z</time>
      </trkpt>
      <trkpt lat="41.78705" lon="9.12741">
        <ele>1113.2</ele>
        <time>2021-06-03T06:39:17Z</time>
      </trkpt>
      <trkpt lat="41.78707" lon="9.12742">
        <ele>1113.2</ele>
        <time>2021-06-03T06:39:18Z</time>
      </trkpt>
      <trkpt lat="41.78708" lon="9.12742">
        <ele>1114</ele>
        <time>2021-06-03T06:39:19Z</time>
      </trkpt>
      <trkpt lat="41.7871" lon="9.12743">
        <ele>1114.6</ele>
        <time>2021-06-03T06:39:20Z</time>
      </trkpt>
      <trkpt lat="41.78711" lon="9.12743">
        <ele>1114.6</ele>
        <time>2021-06-03T06:39:21Z</time>
      </trkpt>
      <trkpt lat="41.78712" lon="9.12743">
        <ele>1114.6</ele>
        <time>2021-06-03T06:39:22Z</time>
      </trkpt>
      <trkpt lat="41.78713" lon="9.12743">
        <ele>1114.6</ele>
        <time>2021-06-03T06:39:23Z</time>
      </trkpt>
      <trkpt lat="41.78714" lon="9.12743">
        <ele>1114.8</ele>
        <time>2021-06-03T06:39:24Z</time>
      </trkpt>
      <trkpt lat="41.78715" lon="9.12743">
        <ele>1114.8</ele>
        <time>2021-06-03T06:39:25Z</time>
      </trkpt>
      <trkpt lat="41.78717" lon="9.12744">
        <ele>1114.8</ele>
        <time>2021-06-03T06:39:26Z</time>
      </trkpt>
      <trkpt lat="41.78719" lon="9.12744">
        <ele>1115.2</ele>
        <time>2021-06-03T06:39:27Z</time>
      </trkpt>
      <trkpt lat="41.7872" lon="9.12744">
        <ele>1115.6</ele>
        <time>2021-06-03T06:39:28Z</time>
      </trkpt>
      <trkpt lat="41.78722" lon="9.12744">
        <ele>1115.6</ele>
        <time>2021-06-03T06:39:29Z</time>
      </trkpt>
      <trkpt lat="41.78724" lon="9.12744">
        <ele>1115.6</ele>
        <time>2021-06-03T06:39:30Z</time>
      </trkpt>
      <trkpt lat="41.78725" lon="9.12744">
        <ele>1115.6</ele>
        <time>2021-06-03T06:39:31Z</time>
      </trkpt>
      <trkpt lat="41.78727" lon="9.12743">
        <ele>1116.6</ele>
        <time>2021-06-03T06:39:32Z</time>
      </trkpt>
      <trkpt lat="41.78728" lon="9.12743">
        <ele>1116.6</ele>
        <time>2021-06-03T06:39:33Z</time>
      </trkpt>
      <trkpt lat="41.78729" lon="9.12743">
        <ele>1116.6</ele>
        <time>2021-06-03T06:39:34Z</time>
      </trkpt>
      <trkpt lat="41.78731" lon="9.12743">
        <ele>1116.8</ele>
        <time>2021-06-03T06:39:35Z</time>
      </trkpt>
      <trkpt lat="41.78732" lon="9.12743">
        <ele>1117</ele>
        <time>2021-06-03T06:39:36Z</time>
      </trkpt>
      <trkpt lat="41.78734" lon="9.12744">
        <ele>1117</ele>
        <time>2021-06-03T06:39:37Z</time>
      </trkpt>
      <trkpt lat="41.78735" lon="9.12744">
        <ele>1117</ele>
        <time>2021-06-03T06:39:38Z</time>
      </trkpt>
      <trkpt lat="41.78736" lon="9.12744">
        <ele>1117</ele>
        <time>2021-06-03T06:39:39Z</time>
      </trkpt>
      <trkpt lat="41.78738" lon="9.12744">
        <ele>1117.2</ele>
        <time>2021-06-03T06:39:40Z</time>
      </trkpt>
      <trkpt lat="41.7874" lon="9.12744">
        <ele>1117.2</ele>
        <time>2021-06-03T06:39:41Z</time>
      </trkpt>
      <trkpt lat="41.78741" lon="9.12744">
        <ele>1117.2</ele>
        <time>2021-06-03T06:39:42Z</time>
      </trkpt>
      <trkpt lat="41.78742" lon="9.12744">
        <ele>1117.8</ele>
        <time>2021-06-03T06:39:43Z</time>
      </trkpt>
      <trkpt lat="41.78744" lon="9.12745">
        <ele>1117.8</ele>
        <time>2021-06-03T06:39:44Z</time>
      </trkpt>
      <trkpt lat="41.78745" lon="9.12745">
        <ele>1117.8</ele>
        <time>2021-06-03T06:39:45Z</time>
      </trkpt>
      <trkpt lat="41.78747" lon="9.12745">
        <ele>1117.8</ele>
        <time>2021-06-03T06:39:46Z</time>
      </trkpt>
      <trkpt lat="41.78748" lon="9.12746">
        <ele>1117.8</ele>
        <time>2021-06-03T06:39:47Z</time>
      </trkpt>
      <trkpt lat="41.78749" lon="9.12746">
        <ele>1118.2</ele>
        <time>2021-06-03T06:39:48Z</time>
      </trkpt>
      <trkpt lat="41.78751" lon="9.12745">
        <ele>1118.2</ele>
        <time>2021-06-03T06:39:49Z</time>
      </trkpt>
      <trkpt lat="41.78753" lon="9.12746">
        <ele>1118.2</ele>
        <time>2021-06-03T06:39:50Z</time>
      </trkpt>
      <trkpt lat="41.78754" lon="9.12746">
        <ele>1118.8</ele>
        <time>2021-06-03T06:39:51Z</time>
      </trkpt>
      <trkpt lat="41.78755" lon="9.12746">
        <ele>1118.8</ele>
        <time>2021-06-03T06:39:52Z</time>
      </trkpt>
      <trkpt lat="41.78757" lon="9.12746">
        <ele>1118.8</ele>
        <time>2021-06-03T06:39:53Z</time>
      </trkpt>
      <trkpt lat="41.78758" lon="9.12746">
        <ele>1118.8</ele>
        <time>2021-06-03T06:39:54Z</time>
      </trkpt>
      <trkpt lat="41.78759" lon="9.12746">
        <ele>1119.2</ele>
        <time>2021-06-03T06:39:55Z</time>
      </trkpt>
      <trkpt lat="41.78761" lon="9.12746">
        <ele>1119.4</ele>
        <time>2021-06-03T06:39:56Z</time>
      </trkpt>
      <trkpt lat="41.78762" lon="9.12746">
        <ele>1119.4</ele>
        <time>2021-06-03T06:39:57Z</time>
      </trkpt>
      <trkpt lat="41.78763" lon="9.12746">
        <ele>1119.4</ele>
        <time>2021-06-03T06:39:58Z</time>
      </trkpt>
      <trkpt lat="41.78765" lon="9.12746">
        <ele>1120</ele>
        <time>2021-06-03T06:39:59Z</time>
      </trkpt>
      <trkpt lat="41.78766" lon="9.12746">
        <ele>1120</ele>
        <time>2021-06-03T06:40:00Z</time>
      </trkpt>
      <trkpt lat="41.78767" lon="9.12746">
        <ele>1120</ele>
        <time>2021-06-03T06:40:01Z</time>
      </trkpt>
      <trkpt lat="41.78769" lon="9.12746">
        <ele>1120</ele>
        <time>2021-06-03T06:40:02Z</time>
      </trkpt>
      <trkpt lat="41.7877" lon="9.12746">
        <ele>1120</ele>
        <time>2021-06-03T06:40:03Z</time>
      </trkpt>
      <trkpt lat="41.78771" lon="9.12746">
        <ele>1120.8</ele>
        <time>2021-06-03T06:40:04Z</time>
      </trkpt>
      <trkpt lat="41.78772" lon="9.12747">
        <ele>1120.8</ele>
        <time>2021-06-03T06:40:05Z</time>
      </trkpt>
      <trkpt lat="41.78773" lon="9.12747">
        <ele>1120.8</ele>
        <time>2021-06-03T06:40:06Z</time>
      </trkpt>
      <trkpt lat="41.78774" lon="9.12747">
        <ele>1121</ele>
        <time>2021-06-03T06:40:07Z</time>
      </trkpt>
      <trkpt lat="41.78776" lon="9.12747">
        <ele>1121.2</ele>
        <time>2021-06-03T06:40:08Z</time>
      </trkpt>
      <trkpt lat="41.78777" lon="9.12747">
        <ele>1121.2</ele>
        <time>2021-06-03T06:40:09Z</time>
      </trkpt>
      <trkpt lat="41.78778" lon="9.12748">
        <ele>1121.2</ele>
        <time>2021-06-03T06:40:10Z</time>
      </trkpt>
      <trkpt lat="41.7878" lon="9.12748">
        <ele>1121.6</ele>
        <time>2021-06-03T06:40:11Z</time>
      </trkpt>
      <trkpt lat="41.78781" lon="9.12748">
        <ele>1121.6</ele>
        <time>2021-06-03T06:40:12Z</time>
      </trkpt>
      <trkpt lat="41.78782" lon="9.12748">
        <ele>1121.6</ele>
        <time>2021-06-03T06:40:13Z</time>
      </trkpt>
      <trkpt lat="41.78783" lon="9.12748">
        <ele>1121.6</ele>
        <time>2021-06-03T06:40:14Z</time>
      </trkpt>
      <trkpt lat="41.78785" lon="9.12748">
        <ele>1121.8</ele>
        <time>2021-06-03T06:40:15Z</time>
      </trkpt>
      <trkpt lat="41.78786" lon="9.12749">
        <ele>1122</ele>
        <time>2021-06-03T06:40:16Z</time>
      </trkpt>
      <trkpt lat="41.78787" lon="9.12749">
        <ele>1122</ele>
        <time>2021-06-03T06:40:17Z</time>
      </trkpt>
      <trkpt lat="41.78788" lon="9.1275">
        <ele>1122</ele>
        <time>2021-06-03T06:40:18Z</time>
      </trkpt>
      <trkpt lat="41.78789" lon="9.1275">
        <ele>1122.8</ele>
        <time>2021-06-03T06:40:19Z</time>
      </trkpt>
      <trkpt lat="41.7879" lon="9.1275">
        <ele>1122.6</ele>
        <time>2021-06-03T06:40:20Z</time>
      </trkpt>
      <trkpt lat="41.78792" lon="9.12751">
        <ele>1122.6</ele>
        <time>2021-06-03T06:40:21Z</time>
      </trkpt>
      <trkpt lat="41.78793" lon="9.12751">
        <ele>1122.6</ele>
        <time>2021-06-03T06:40:22Z</time>
      </trkpt>
      <trkpt lat="41.78794" lon="9.12751">
        <ele>1122.6</ele>
        <time>2021-06-03T06:40:23Z</time>
      </trkpt>
      <trkpt lat="41.78795" lon="9.12752">
        <ele>1123.4</ele>
        <time>2021-06-03T06:40:24Z</time>
      </trkpt>
      <trkpt lat="41.78796" lon="9.12752">
        <ele>1123.4</ele>
        <time>2021-06-03T06:40:25Z</time>
      </trkpt>
      <trkpt lat="41.78797" lon="9.12753">
        <ele>1123.4</ele>
        <time>2021-06-03T06:40:26Z</time>
      </trkpt>
      <trkpt lat="41.78798" lon="9.12754">
        <ele>1123.4</ele>
        <time>2021-06-03T06:40:27Z</time>
      </trkpt>
      <trkpt lat="41.788" lon="9.12755">
        <ele>1124.2</ele>
        <time>2021-06-03T06:40:28Z</time>
      </trkpt>
      <trkpt lat="41.78801" lon="9.12756">
        <ele>1124.2</ele>
        <time>2021-06-03T06:40:29Z</time>
      </trkpt>
      <trkpt lat="41.78802" lon="9.12756">
        <ele>1124.2</ele>
        <time>2021-06-03T06:40:30Z</time>
      </trkpt>
      <trkpt lat="41.78803" lon="9.12757">
        <ele>1124.2</ele>
        <time>2021-06-03T06:40:31Z</time>
      </trkpt>
      <trkpt lat="41.78804" lon="9.12757">
        <ele>1124.4</ele>
        <time>2021-06-03T06:40:32Z</time>
      </trkpt>
      <trkpt lat="41.78805" lon="9.12758">
        <ele>1124.4</ele>
        <time>2021-06-03T06:40:33Z</time>
      </trkpt>
      <trkpt lat="41.78807" lon="9.12759">
        <ele>1124.4</ele>
        <time>2021-06-03T06:40:34Z</time>
      </trkpt>
      <trkpt lat="41.78808" lon="9.12759">
        <ele>1124.4</ele>
        <time>2021-06-03T06:40:35Z</time>
      </trkpt>
      <trkpt lat="41.78809" lon="9.12759">
        <ele>1125</ele>
        <time>2021-06-03T06:40:36Z</time>
      </trkpt>
      <trkpt lat="41.7881" lon="9.1276">
        <ele>1125</ele>
        <time>2021-06-03T06:40:37Z</time>
      </trkpt>
      <trkpt lat="41.78812" lon="9.1276">
        <ele>1125</ele>
        <time>2021-06-03T06:40:38Z</time>
      </trkpt>
      <trkpt lat="41.78813" lon="9.1276">
        <ele>1125</ele>
        <time>2021-06-03T06:40:39Z</time>
      </trkpt>
      <trkpt lat="41.78814" lon="9.12761">
        <ele>1125</ele>
        <time>2021-06-03T06:40:40Z</time>
      </trkpt>
      <trkpt lat="41.78816" lon="9.12761">
        <ele>1125</ele>
        <time>2021-06-03T06:40:41Z</time>
      </trkpt>
      <trkpt lat="41.78817" lon="9.12762">
        <ele>1125</ele>
        <time>2021-06-03T06:40:42Z</time>
      </trkpt>
      <trkpt lat="41.78818" lon="9.12762">
        <ele>1125</ele>
        <time>2021-06-03T06:40:43Z</time>
      </trkpt>
      <trkpt lat="41.7882" lon="9.12762">
        <ele>1125.2</ele>
        <time>2021-06-03T06:40:44Z</time>
      </trkpt>
      <trkpt lat="41.78821" lon="9.12762">
        <ele>1125.2</ele>
        <time>2021-06-03T06:40:45Z</time>
      </trkpt>
      <trkpt lat="41.78823" lon="9.12762">
        <ele>1125.2</ele>
        <time>2021-06-03T06:40:46Z</time>
      </trkpt>
      <trkpt lat="41.78824" lon="9.12763">
        <ele>1125.2</ele>
        <time>2021-06-03T06:40:47Z</time>
      </trkpt>
      <trkpt lat="41.78826" lon="9.12763">
        <ele>1125.4</ele>
        <time>2021-06-03T06:40:48Z</time>
      </trkpt>
      <trkpt lat="41.78827" lon="9.12763">
        <ele>1125.4</ele>
        <time>2021-06-03T06:40:49Z</time>
      </trkpt>
      <trkpt lat="41.78828" lon="9.12762">
        <ele>1125.4</ele>
        <time>2021-06-03T06:40:50Z</time>
      </trkpt>
      <trkpt lat="41.7883" lon="9.12763">
        <ele>1125.8</ele>
        <time>2021-06-03T06:40:51Z</time>
      </trkpt>
      <trkpt lat="41.78831" lon="9.12763">
        <ele>1125.8</ele>
        <time>2021-06-03T06:40:52Z</time>
      </trkpt>
      <trkpt lat="41.78833" lon="9.12763">
        <ele>1125.8</ele>
        <time>2021-06-03T06:40:53Z</time>
      </trkpt>
      <trkpt lat="41.78834" lon="9.12763">
        <ele>1125.8</ele>
        <time>2021-06-03T06:40:54Z</time>
      </trkpt>
      <trkpt lat="41.78836" lon="9.12763">
        <ele>1125.8</ele>
        <time>2021-06-03T06:40:55Z</time>
      </trkpt>
      <trkpt lat="41.78837" lon="9.12763">
        <ele>1126</ele>
        <time>2021-06-03T06:40:56Z</time>
      </trkpt>
      <trkpt lat="41.78839" lon="9.12764">
        <ele>1126</ele>
        <time>2021-06-03T06:40:57Z</time>
      </trkpt>
      <trkpt lat="41.78841" lon="9.12764">
        <ele>1126</ele>
        <time>2021-06-03T06:40:58Z</time>
      </trkpt>
      <trkpt lat="41.78842" lon="9.12764">
        <ele>1126</ele>
        <time>2021-06-03T06:40:59Z</time>
      </trkpt>
      <trkpt lat="41.78844" lon="9.12764">
        <ele>1126</ele>
        <time>2021-06-03T06:41:00Z</time>
      </trkpt>
      <trkpt lat="41.78846" lon="9.12764">
        <ele>1126</ele>
        <time>2021-06-03T06:41:01Z</time>
      </trkpt>
      <trkpt lat="41.78848" lon="9.12764">
        <ele>1126</ele>
        <time>2021-06-03T06:41:02Z</time>
      </trkpt>
      <trkpt lat="41.78849" lon="9.12764">
        <ele>1126</ele>
        <time>2021-06-03T06:41:03Z</time>
      </trkpt>
      <trkpt lat="41.78851" lon="9.12764">
        <ele>1126</ele>
        <time>2021-06-03T06:41:04Z</time>
      </trkpt>
      <trkpt lat="41.78852" lon="9.12764">
        <ele>1126</ele>
        <time>2021-06-03T06:41:05Z</time>
      </trkpt>
      <trkpt lat="41.78854" lon="9.12764">
        <ele>1126</ele>
        <time>2021-06-03T06:41:06Z</time>
      </trkpt>
      <trkpt lat="41.78856" lon="9.12764">
        <ele>1126.6</ele>
        <time>2021-06-03T06:41:07Z</time>
      </trkpt>
      <trkpt lat="41.78858" lon="9.12764">
        <ele>1126.6</ele>
        <time>2021-06-03T06:41:08Z</time>
      </trkpt>
      <trkpt lat="41.78859" lon="9.12765">
        <ele>1126.6</ele>
        <time>2021-06-03T06:41:09Z</time>
      </trkpt>
      <trkpt lat="41.78861" lon="9.12765">
        <ele>1126.6</ele>
        <time>2021-06-03T06:41:10Z</time>
      </trkpt>
      <trkpt lat="41.78863" lon="9.12765">
        <ele>1126.6</ele>
        <time>2021-06-03T06:41:11Z</time>
      </trkpt>
      <trkpt lat="41.78864" lon="9.12765">
        <ele>1126.8</ele>
        <time>2021-06-03T06:41:12Z</time>
      </trkpt>
      <trkpt lat="41.78866" lon="9.12765">
        <ele>1126.8</ele>
        <time>2021-06-03T06:41:13Z</time>
      </trkpt>
      <trkpt lat="41.78868" lon="9.12766">
        <ele>1126.8</ele>
        <time>2021-06-03T06:41:14Z</time>
      </trkpt>
      <trkpt lat="41.78869" lon="9.12766">
        <ele>1126.8</ele>
        <time>2021-06-03T06:41:15Z</time>
      </trkpt>
      <trkpt lat="41.78871" lon="9.12766">
        <ele>1126.8</ele>
        <time>2021-06-03T06:41:16Z</time>
      </trkpt>
      <trkpt lat="41.78873" lon="9.12766">
        <ele>1126.8</ele>
        <time>2021-06-03T06:41:17Z</time>
      </trkpt>
      <trkpt lat="41.78874" lon="9.12766">
        <ele>1126.8</ele>
        <time>2021-06-03T06:41:18Z</time>
      </trkpt>
      <trkpt lat="41.78876" lon="9.12766">
        <ele>1127.6</ele>
        <time>2021-06-03T06:41:19Z</time>
      </trkpt>
      <trkpt lat="41.78878" lon="9.12766">
        <ele>1127.2</ele>
        <time>2021-06-03T06:41:20Z</time>
      </trkpt>
      <trkpt lat="41.78879" lon="9.12766">
        <ele>1127.2</ele>
        <time>2021-06-03T06:41:21Z</time>
      </trkpt>
      <trkpt lat="41.78881" lon="9.12766">
        <ele>1127.2</ele>
        <time>2021-06-03T06:41:22Z</time>
      </trkpt>
      <trkpt lat="41.78882" lon="9.12765">
        <ele>1127.4</ele>
        <time>2021-06-03T06:41:23Z</time>
      </trkpt>
      <trkpt lat="41.78884" lon="9.12765">
        <ele>1128</ele>
        <time>2021-06-03T06:41:24Z</time>
      </trkpt>
      <trkpt lat="41.78886" lon="9.12765">
        <ele>1128</ele>
        <time>2021-06-03T06:41:25Z</time>
      </trkpt>
      <trkpt lat="41.78888" lon="9.12764">
        <ele>1128</ele>
        <time>2021-06-03T06:41:26Z</time>
      </trkpt>
      <trkpt lat="41.7889" lon="9.12763">
        <ele>1127.2</ele>
        <time>2021-06-03T06:41:27Z</time>
      </trkpt>
      <trkpt lat="41.78891" lon="9.12763">
        <ele>1127.8</ele>
        <time>2021-06-03T06:41:28Z</time>
      </trkpt>
      <trkpt lat="41.78893" lon="9.12761">
        <ele>1127.8</ele>
        <time>2021-06-03T06:41:29Z</time>
      </trkpt>
      <trkpt lat="41.78894" lon="9.1276">
        <ele>1127.8</ele>
        <time>2021-06-03T06:41:30Z</time>
      </trkpt>
      <trkpt lat="41.78896" lon="9.12759">
        <ele>1127.8</ele>
        <time>2021-06-03T06:41:31Z</time>
      </trkpt>
      <trkpt lat="41.78897" lon="9.12758">
        <ele>1127.8</ele>
        <time>2021-06-03T06:41:32Z</time>
      </trkpt>
      <trkpt lat="41.78899" lon="9.12757">
        <ele>1127.8</ele>
        <time>2021-06-03T06:41:33Z</time>
      </trkpt>
      <trkpt lat="41.789" lon="9.12755">
        <ele>1127.8</ele>
        <time>2021-06-03T06:41:34Z</time>
      </trkpt>
      <trkpt lat="41.78902" lon="9.12754">
        <ele>1127.8</ele>
        <time>2021-06-03T06:41:35Z</time>
      </trkpt>
      <trkpt lat="41.78904" lon="9.12752">
        <ele>1127.8</ele>
        <time>2021-06-03T06:41:36Z</time>
      </trkpt>
      <trkpt lat="41.78905" lon="9.12751">
        <ele>1127.8</ele>
        <time>2021-06-03T06:41:37Z</time>
      </trkpt>
      <trkpt lat="41.78907" lon="9.12749">
        <ele>1127.8</ele>
        <time>2021-06-03T06:41:38Z</time>
      </trkpt>
      <trkpt lat="41.78909" lon="9.12747">
        <ele>1128</ele>
        <time>2021-06-03T06:41:39Z</time>
      </trkpt>
      <trkpt lat="41.7891" lon="9.12745">
        <ele>1128.2</ele>
        <time>2021-06-03T06:41:40Z</time>
      </trkpt>
      <trkpt lat="41.78912" lon="9.12744">
        <ele>1128.2</ele>
        <time>2021-06-03T06:41:41Z</time>
      </trkpt>
      <trkpt lat="41.78914" lon="9.12743">
        <ele>1128.2</ele>
        <time>2021-06-03T06:41:42Z</time>
      </trkpt>
      <trkpt lat="41.78916" lon="9.12742">
        <ele>1128.2</ele>
        <time>2021-06-03T06:41:43Z</time>
      </trkpt>
      <trkpt lat="41.78918" lon="9.12741">
        <ele>1128.4</ele>
        <time>2021-06-03T06:41:44Z</time>
      </trkpt>
      <trkpt lat="41.7892" lon="9.12739">
        <ele>1128.4</ele>
        <time>2021-06-03T06:41:45Z</time>
      </trkpt>
      <trkpt lat="41.78922" lon="9.12738">
        <ele>1128.4</ele>
        <time>2021-06-03T06:41:46Z</time>
      </trkpt>
      <trkpt lat="41.78924" lon="9.12737">
        <ele>1128.8</ele>
        <time>2021-06-03T06:41:47Z</time>
      </trkpt>
      <trkpt lat="41.78926" lon="9.12736">
        <ele>1128.8</ele>
        <time>2021-06-03T06:41:48Z</time>
      </trkpt>
      <trkpt lat="41.78928" lon="9.12735">
        <ele>1128.8</ele>
        <time>2021-06-03T06:41:49Z</time>
      </trkpt>
      <trkpt lat="41.7893" lon="9.12734">
        <ele>1128.8</ele>
        <time>2021-06-03T06:41:50Z</time>
      </trkpt>
      <trkpt lat="41.78932" lon="9.12733">
        <ele>1128.8</ele>
        <time>2021-06-03T06:41:51Z</time>
      </trkpt>
      <trkpt lat="41.78934" lon="9.12732">
        <ele>1129</ele>
        <time>2021-06-03T06:41:52Z</time>
      </trkpt>
      <trkpt lat="41.78936" lon="9.12731">
        <ele>1129</ele>
        <time>2021-06-03T06:41:53Z</time>
      </trkpt>
      <trkpt lat="41.78937" lon="9.1273">
        <ele>1129</ele>
        <time>2021-06-03T06:41:54Z</time>
      </trkpt>
      <trkpt lat="41.78939" lon="9.12729">
        <ele>1129</ele>
        <time>2021-06-03T06:41:55Z</time>
      </trkpt>
      <trkpt lat="41.78941" lon="9.12729">
        <ele>1129.4</ele>
        <time>2021-06-03T06:41:56Z</time>
      </trkpt>
      <trkpt lat="41.78943" lon="9.12728">
        <ele>1129.4</ele>
        <time>2021-06-03T06:41:57Z</time>
      </trkpt>
      <trkpt lat="41.78945" lon="9.12728">
        <ele>1129.4</ele>
        <time>2021-06-03T06:41:58Z</time>
      </trkpt>
      <trkpt lat="41.78946" lon="9.12727">
        <ele>1129.4</ele>
        <time>2021-06-03T06:41:59Z</time>
      </trkpt>
      <trkpt lat="41.78948" lon="9.12727">
        <ele>1129.8</ele>
        <time>2021-06-03T06:42:00Z</time>
      </trkpt>
      <trkpt lat="41.7895" lon="9.12727">
        <ele>1129.8</ele>
        <time>2021-06-03T06:42:01Z</time>
      </trkpt>
      <trkpt lat="41.78952" lon="9.12727">
        <ele>1129.8</ele>
        <time>2021-06-03T06:42:02Z</time>
      </trkpt>
      <trkpt lat="41.78954" lon="9.12727">
        <ele>1130.4</ele>
        <time>2021-06-03T06:42:03Z</time>
      </trkpt>
      <trkpt lat="41.78956" lon="9.12726">
        <ele>1130.6</ele>
        <time>2021-06-03T06:42:04Z</time>
      </trkpt>
      <trkpt lat="41.78957" lon="9.12726">
        <ele>1130.6</ele>
        <time>2021-06-03T06:42:05Z</time>
      </trkpt>
      <trkpt lat="41.78959" lon="9.12727">
        <ele>1130.6</ele>
        <time>2021-06-03T06:42:06Z</time>
      </trkpt>
      <trkpt lat="41.78961" lon="9.12727">
        <ele>1130.6</ele>
        <time>2021-06-03T06:42:07Z</time>
      </trkpt>
      <trkpt lat="41.78964" lon="9.12727">
        <ele>1130.2</ele>
        <time>2021-06-03T06:42:08Z</time>
      </trkpt>
      <trkpt lat="41.78967" lon="9.12728">
        <ele>1130.2</ele>
        <time>2021-06-03T06:42:09Z</time>
      </trkpt>
      <trkpt lat="41.78969" lon="9.12728">
        <ele>1130.2</ele>
        <time>2021-06-03T06:42:10Z</time>
      </trkpt>
      <trkpt lat="41.78971" lon="9.12729">
        <ele>1131</ele>
        <time>2021-06-03T06:42:11Z</time>
      </trkpt>
      <trkpt lat="41.78973" lon="9.1273">
        <ele>1130.8</ele>
        <time>2021-06-03T06:42:12Z</time>
      </trkpt>
      <trkpt lat="41.78975" lon="9.1273">
        <ele>1130.8</ele>
        <time>2021-06-03T06:42:13Z</time>
      </trkpt>
      <trkpt lat="41.78978" lon="9.12731">
        <ele>1130.8</ele>
        <time>2021-06-03T06:42:14Z</time>
      </trkpt>
      <trkpt lat="41.7898" lon="9.12732">
        <ele>1130.8</ele>
        <time>2021-06-03T06:42:15Z</time>
      </trkpt>
      <trkpt lat="41.78982" lon="9.12733">
        <ele>1130.8</ele>
        <time>2021-06-03T06:42:16Z</time>
      </trkpt>
      <trkpt lat="41.78984" lon="9.12733">
        <ele>1130.8</ele>
        <time>2021-06-03T06:42:17Z</time>
      </trkpt>
      <trkpt lat="41.78987" lon="9.12734">
        <ele>1130.8</ele>
        <time>2021-06-03T06:42:18Z</time>
      </trkpt>
      <trkpt lat="41.7899" lon="9.12735">
        <ele>1130.8</ele>
        <time>2021-06-03T06:42:19Z</time>
      </trkpt>
      <trkpt lat="41.78992" lon="9.12736">
        <ele>1130.8</ele>
        <time>2021-06-03T06:42:20Z</time>
      </trkpt>
      <trkpt lat="41.78995" lon="9.12737">
        <ele>1130.8</ele>
        <time>2021-06-03T06:42:21Z</time>
      </trkpt>
      <trkpt lat="41.78998" lon="9.12737">
        <ele>1130.8</ele>
        <time>2021-06-03T06:42:22Z</time>
      </trkpt>
      <trkpt lat="41.79" lon="9.12738">
        <ele>1130.8</ele>
        <time>2021-06-03T06:42:23Z</time>
      </trkpt>
      <trkpt lat="41.79003" lon="9.12739">
        <ele>1130.8</ele>
        <time>2021-06-03T06:42:24Z</time>
      </trkpt>
      <trkpt lat="41.79006" lon="9.1274">
        <ele>1130.8</ele>
        <time>2021-06-03T06:42:25Z</time>
      </trkpt>
      <trkpt lat="41.79009" lon="9.12742">
        <ele>1130.8</ele>
        <time>2021-06-03T06:42:26Z</time>
      </trkpt>
      <trkpt lat="41.79011" lon="9.12743">
        <ele>1130.8</ele>
        <time>2021-06-03T06:42:27Z</time>
      </trkpt>
      <trkpt lat="41.79014" lon="9.12744">
        <ele>1130.8</ele>
        <time>2021-06-03T06:42:28Z</time>
      </trkpt>
      <trkpt lat="41.79017" lon="9.12746">
        <ele>1130.8</ele>
        <time>2021-06-03T06:42:29Z</time>
      </trkpt>
      <trkpt lat="41.7902" lon="9.12748">
        <ele>1130.8</ele>
        <time>2021-06-03T06:42:30Z</time>
      </trkpt>
      <trkpt lat="41.79023" lon="9.1275">
        <ele>1130.8</ele>
        <time>2021-06-03T06:42:31Z</time>
      </trkpt>
      <trkpt lat="41.79025" lon="9.12753">
        <ele>1130.4</ele>
        <time>2021-06-03T06:42:32Z</time>
      </trkpt>
      <trkpt lat="41.79027" lon="9.12756">
        <ele>1130.4</ele>
        <time>2021-06-03T06:42:33Z</time>
      </trkpt>
      <trkpt lat="41.79029" lon="9.12759">
        <ele>1130.4</ele>
        <time>2021-06-03T06:42:34Z</time>
      </trkpt>
      <trkpt lat="41.79031" lon="9.12761">
        <ele>1130.8</ele>
        <time>2021-06-03T06:42:35Z</time>
      </trkpt>
      <trkpt lat="41.79033" lon="9.12764">
        <ele>1130.4</ele>
        <time>2021-06-03T06:42:36Z</time>
      </trkpt>
      <trkpt lat="41.79034" lon="9.12767">
        <ele>1130.4</ele>
        <time>2021-06-03T06:42:37Z</time>
      </trkpt>
      <trkpt lat="41.79036" lon="9.1277">
        <ele>1130.4</ele>
        <time>2021-06-03T06:42:38Z</time>
      </trkpt>
      <trkpt lat="41.79038" lon="9.12772">
        <ele>1131</ele>
        <time>2021-06-03T06:42:39Z</time>
      </trkpt>
      <trkpt lat="41.7904" lon="9.12775">
        <ele>1131</ele>
        <time>2021-06-03T06:42:40Z</time>
      </trkpt>
      <trkpt lat="41.79042" lon="9.12777">
        <ele>1131</ele>
        <time>2021-06-03T06:42:41Z</time>
      </trkpt>
      <trkpt lat="41.79044" lon="9.1278">
        <ele>1131</ele>
        <time>2021-06-03T06:42:42Z</time>
      </trkpt>
      <trkpt lat="41.79046" lon="9.12782">
        <ele>1131</ele>
        <time>2021-06-03T06:42:43Z</time>
      </trkpt>
      <trkpt lat="41.79048" lon="9.12786">
        <ele>1131.2</ele>
        <time>2021-06-03T06:42:44Z</time>
      </trkpt>
      <trkpt lat="41.79051" lon="9.12788">
        <ele>1131.2</ele>
        <time>2021-06-03T06:42:45Z</time>
      </trkpt>
      <trkpt lat="41.79053" lon="9.12791">
        <ele>1131.2</ele>
        <time>2021-06-03T06:42:46Z</time>
      </trkpt>
      <trkpt lat="41.79055" lon="9.12793">
        <ele>1132</ele>
        <time>2021-06-03T06:42:47Z</time>
      </trkpt>
      <trkpt lat="41.79057" lon="9.12796">
        <ele>1132</ele>
        <time>2021-06-03T06:42:48Z</time>
      </trkpt>
      <trkpt lat="41.7906" lon="9.12798">
        <ele>1132</ele>
        <time>2021-06-03T06:42:49Z</time>
      </trkpt>
      <trkpt lat="41.79062" lon="9.128">
        <ele>1132</ele>
        <time>2021-06-03T06:42:50Z</time>
      </trkpt>
      <trkpt lat="41.79064" lon="9.12803">
        <ele>1131.6</ele>
        <time>2021-06-03T06:42:51Z</time>
      </trkpt>
      <trkpt lat="41.79066" lon="9.12805">
        <ele>1132</ele>
        <time>2021-06-03T06:42:52Z</time>
      </trkpt>
      <trkpt lat="41.79068" lon="9.12808">
        <ele>1132</ele>
        <time>2021-06-03T06:42:53Z</time>
      </trkpt>
      <trkpt lat="41.79069" lon="9.1281">
        <ele>1132</ele>
        <time>2021-06-03T06:42:54Z</time>
      </trkpt>
      <trkpt lat="41.79071" lon="9.12813">
        <ele>1132.6</ele>
        <time>2021-06-03T06:42:55Z</time>
      </trkpt>
      <trkpt lat="41.79073" lon="9.12815">
        <ele>1132.2</ele>
        <time>2021-06-03T06:42:56Z</time>
      </trkpt>
      <trkpt lat="41.79075" lon="9.12817">
        <ele>1132.2</ele>
        <time>2021-06-03T06:42:57Z</time>
      </trkpt>
      <trkpt lat="41.79077" lon="9.12819">
        <ele>1132.2</ele>
        <time>2021-06-03T06:42:58Z</time>
      </trkpt>
      <trkpt lat="41.79079" lon="9.12821">
        <ele>1133</ele>
        <time>2021-06-03T06:42:59Z</time>
      </trkpt>
      <trkpt lat="41.79081" lon="9.12823">
        <ele>1133.2</ele>
        <time>2021-06-03T06:43:00Z</time>
      </trkpt>
      <trkpt lat="41.79083" lon="9.12825">
        <ele>1133.2</ele>
        <time>2021-06-03T06:43:01Z</time>
      </trkpt>
      <trkpt lat="41.79085" lon="9.12828">
        <ele>1133.2</ele>
        <time>2021-06-03T06:43:02Z</time>
      </trkpt>
      <trkpt lat="41.79087" lon="9.1283">
        <ele>1133.2</ele>
        <time>2021-06-03T06:43:03Z</time>
      </trkpt>
      <trkpt lat="41.79089" lon="9.12832">
        <ele>1132.4</ele>
        <time>2021-06-03T06:43:04Z</time>
      </trkpt>
      <trkpt lat="41.79092" lon="9.12834">
        <ele>1132.4</ele>
        <time>2021-06-03T06:43:05Z</time>
      </trkpt>
      <trkpt lat="41.79094" lon="9.12836">
        <ele>1132.4</ele>
        <time>2021-06-03T06:43:06Z</time>
      </trkpt>
      <trkpt lat="41.79097" lon="9.12838">
        <ele>1132</ele>
        <time>2021-06-03T06:43:07Z</time>
      </trkpt>
      <trkpt lat="41.791" lon="9.1284">
        <ele>1132</ele>
        <time>2021-06-03T06:43:08Z</time>
      </trkpt>
      <trkpt lat="41.79103" lon="9.12843">
        <ele>1132</ele>
        <time>2021-06-03T06:43:09Z</time>
      </trkpt>
      <trkpt lat="41.79106" lon="9.12846">
        <ele>1132</ele>
        <time>2021-06-03T06:43:10Z</time>
      </trkpt>
      <trkpt lat="41.79109" lon="9.12849">
        <ele>1131</ele>
        <time>2021-06-03T06:43:11Z</time>
      </trkpt>
      <trkpt lat="41.79112" lon="9.12852">
        <ele>1130.8</ele>
        <time>2021-06-03T06:43:12Z</time>
      </trkpt>
      <trkpt lat="41.79115" lon="9.12856">
        <ele>1130.8</ele>
        <time>2021-06-03T06:43:13Z</time>
      </trkpt>
      <trkpt lat="41.79119" lon="9.1286">
        <ele>1130.8</ele>
        <time>2021-06-03T06:43:14Z</time>
      </trkpt>
      <trkpt lat="41.79123" lon="9.12864">
        <ele>1130.4</ele>
        <time>2021-06-03T06:43:15Z</time>
      </trkpt>
      <trkpt lat="41.79127" lon="9.12867">
        <ele>1129.8</ele>
        <time>2021-06-03T06:43:16Z</time>
      </trkpt>
      <trkpt lat="41.79131" lon="9.12871">
        <ele>1129.8</ele>
        <time>2021-06-03T06:43:17Z</time>
      </trkpt>
      <trkpt lat="41.79134" lon="9.12875">
        <ele>1129.8</ele>
        <time>2021-06-03T06:43:18Z</time>
      </trkpt>
      <trkpt lat="41.79138" lon="9.1288">
        <ele>1129.4</ele>
        <time>2021-06-03T06:43:19Z</time>
      </trkpt>
      <trkpt lat="41.79142" lon="9.12884">
        <ele>1129</ele>
        <time>2021-06-03T06:43:20Z</time>
      </trkpt>
      <trkpt lat="41.79145" lon="9.12889">
        <ele>1129</ele>
        <time>2021-06-03T06:43:21Z</time>
      </trkpt>
      <trkpt lat="41.79148" lon="9.12894">
        <ele>1129</ele>
        <time>2021-06-03T06:43:22Z</time>
      </trkpt>
      <trkpt lat="41.79152" lon="9.12899">
        <ele>1129</ele>
        <time>2021-06-03T06:43:23Z</time>
      </trkpt>
      <trkpt lat="41.79155" lon="9.12903">
        <ele>1129</ele>
        <time>2021-06-03T06:43:24Z</time>
      </trkpt>
      <trkpt lat="41.79158" lon="9.12907">
        <ele>1129</ele>
        <time>2021-06-03T06:43:25Z</time>
      </trkpt>
      <trkpt lat="41.79161" lon="9.12911">
        <ele>1129</ele>
        <time>2021-06-03T06:43:26Z</time>
      </trkpt>
      <trkpt lat="41.79164" lon="9.12916">
        <ele>1129</ele>
        <time>2021-06-03T06:43:27Z</time>
      </trkpt>
      <trkpt lat="41.79166" lon="9.1292">
        <ele>1129.4</ele>
        <time>2021-06-03T06:43:28Z</time>
      </trkpt>
      <trkpt lat="41.79167" lon="9.12924">
        <ele>1129.4</ele>
        <time>2021-06-03T06:43:29Z</time>
      </trkpt>
      <trkpt lat="41.79169" lon="9.12929">
        <ele>1129.4</ele>
        <time>2021-06-03T06:43:30Z</time>
      </trkpt>
      <trkpt lat="41.79172" lon="9.12933">
        <ele>1129.4</ele>
        <time>2021-06-03T06:43:31Z</time>
      </trkpt>
      <trkpt lat="41.79175" lon="9.12938">
        <ele>1129.2</ele>
        <time>2021-06-03T06:43:32Z</time>
      </trkpt>
      <trkpt lat="41.79178" lon="9.12942">
        <ele>1129.2</ele>
        <time>2021-06-03T06:43:33Z</time>
      </trkpt>
      <trkpt lat="41.79181" lon="9.12946">
        <ele>1129.2</ele>
        <time>2021-06-03T06:43:34Z</time>
      </trkpt>
      <trkpt lat="41.79184" lon="9.1295">
        <ele>1129.2</ele>
        <time>2021-06-03T06:43:35Z</time>
      </trkpt>
      <trkpt lat="41.79188" lon="9.12954">
        <ele>1129.2</ele>
        <time>2021-06-03T06:43:36Z</time>
      </trkpt>
      <trkpt lat="41.79191" lon="9.12956">
        <ele>1129.2</ele>
        <time>2021-06-03T06:43:37Z</time>
      </trkpt>
      <trkpt lat="41.79195" lon="9.12958">
        <ele>1129.2</ele>
        <time>2021-06-03T06:43:38Z</time>
      </trkpt>
      <trkpt lat="41.79199" lon="9.12959">
        <ele>1129.2</ele>
        <time>2021-06-03T06:43:39Z</time>
      </trkpt>
      <trkpt lat="41.79203" lon="9.12959">
        <ele>1129.2</ele>
        <time>2021-06-03T06:43:40Z</time>
      </trkpt>
      <trkpt lat="41.79207" lon="9.12959">
        <ele>1129.2</ele>
        <time>2021-06-03T06:43:41Z</time>
      </trkpt>
      <trkpt lat="41.79211" lon="9.12958">
        <ele>1129.2</ele>
        <time>2021-06-03T06:43:42Z</time>
      </trkpt>
      <trkpt lat="41.79215" lon="9.12957">
        <ele>1128.8</ele>
        <time>2021-06-03T06:43:43Z</time>
      </trkpt>
      <trkpt lat="41.79219" lon="9.12957">
        <ele>1128.6</ele>
        <time>2021-06-03T06:43:44Z</time>
      </trkpt>
      <trkpt lat="41.79223" lon="9.12957">
        <ele>1128.6</ele>
        <time>2021-06-03T06:43:45Z</time>
      </trkpt>
      <trkpt lat="41.79227" lon="9.12957">
        <ele>1128.6</ele>
        <time>2021-06-03T06:43:46Z</time>
      </trkpt>
      <trkpt lat="41.79231" lon="9.12959">
        <ele>1128.6</ele>
        <time>2021-06-03T06:43:47Z</time>
      </trkpt>
      <trkpt lat="41.79234" lon="9.12961">
        <ele>1128</ele>
        <time>2021-06-03T06:43:48Z</time>
      </trkpt>
      <trkpt lat="41.79237" lon="9.12963">
        <ele>1128</ele>
        <time>2021-06-03T06:43:49Z</time>
      </trkpt>
      <trkpt lat="41.79241" lon="9.12965">
        <ele>1128</ele>
        <time>2021-06-03T06:43:50Z</time>
      </trkpt>
      <trkpt lat="41.79245" lon="9.12968">
        <ele>1128</ele>
        <time>2021-06-03T06:43:51Z</time>
      </trkpt>
      <trkpt lat="41.79247" lon="9.12971">
        <ele>1127.4</ele>
        <time>2021-06-03T06:43:52Z</time>
      </trkpt>
      <trkpt lat="41.7925" lon="9.12974">
        <ele>1127.4</ele>
        <time>2021-06-03T06:43:53Z</time>
      </trkpt>
      <trkpt lat="41.79254" lon="9.12978">
        <ele>1127.4</ele>
        <time>2021-06-03T06:43:54Z</time>
      </trkpt>
      <trkpt lat="41.79259" lon="9.12983">
        <ele>1126.4</ele>
        <time>2021-06-03T06:43:55Z</time>
      </trkpt>
      <trkpt lat="41.79261" lon="9.1299">
        <ele>1125.6</ele>
        <time>2021-06-03T06:43:56Z</time>
      </trkpt>
      <trkpt lat="41.79264" lon="9.12996">
        <ele>1125.6</ele>
        <time>2021-06-03T06:43:57Z</time>
      </trkpt>
      <trkpt lat="41.79266" lon="9.13003">
        <ele>1125.6</ele>
        <time>2021-06-03T06:43:58Z</time>
      </trkpt>
      <trkpt lat="41.79268" lon="9.13009">
        <ele>1126.4</ele>
        <time>2021-06-03T06:43:59Z</time>
      </trkpt>
      <trkpt lat="41.7927" lon="9.13015">
        <ele>1126.2</ele>
        <time>2021-06-03T06:44:00Z</time>
      </trkpt>
      <trkpt lat="41.79273" lon="9.13022">
        <ele>1126.2</ele>
        <time>2021-06-03T06:44:01Z</time>
      </trkpt>
      <trkpt lat="41.79275" lon="9.13029">
        <ele>1126.2</ele>
        <time>2021-06-03T06:44:02Z</time>
      </trkpt>
      <trkpt lat="41.79278" lon="9.13036">
        <ele>1126.2</ele>
        <time>2021-06-03T06:44:03Z</time>
      </trkpt>
      <trkpt lat="41.7928" lon="9.13042">
        <ele>1125.4</ele>
        <time>2021-06-03T06:44:04Z</time>
      </trkpt>
      <trkpt lat="41.79283" lon="9.13049">
        <ele>1125.4</ele>
        <time>2021-06-03T06:44:05Z</time>
      </trkpt>
      <trkpt lat="41.79286" lon="9.13055">
        <ele>1125.4</ele>
        <time>2021-06-03T06:44:06Z</time>
      </trkpt>
      <trkpt lat="41.79289" lon="9.13061">
        <ele>1124.4</ele>
        <time>2021-06-03T06:44:07Z</time>
      </trkpt>
      <trkpt lat="41.79292" lon="9.13067">
        <ele>1124.2</ele>
        <time>2021-06-03T06:44:08Z</time>
      </trkpt>
      <trkpt lat="41.79295" lon="9.13074">
        <ele>1124.2</ele>
        <time>2021-06-03T06:44:09Z</time>
      </trkpt>
      <trkpt lat="41.79299" lon="9.13079">
        <ele>1124.2</ele>
        <time>2021-06-03T06:44:10Z</time>
      </trkpt>
      <trkpt lat="41.79303" lon="9.13085">
        <ele>1124.2</ele>
        <time>2021-06-03T06:44:11Z</time>
      </trkpt>
      <trkpt lat="41.79306" lon="9.13091">
        <ele>1124.2</ele>
        <time>2021-06-03T06:44:12Z</time>
      </trkpt>
      <trkpt lat="41.7931" lon="9.13097">
        <ele>1124.2</ele>
        <time>2021-06-03T06:44:13Z</time>
      </trkpt>
      <trkpt lat="41.79313" lon="9.13103">
        <ele>1124.2</ele>
        <time>2021-06-03T06:44:14Z</time>
      </trkpt>
      <trkpt lat="41.79317" lon="9.13109">
        <ele>1124.2</ele>
        <time>2021-06-03T06:44:15Z</time>
      </trkpt>
      <trkpt lat="41.7932" lon="9.13115">
        <ele>1124</ele>
        <time>2021-06-03T06:44:16Z</time>
      </trkpt>
      <trkpt lat="41.79323" lon="9.1312">
        <ele>1124</ele>
        <time>2021-06-03T06:44:17Z</time>
      </trkpt>
      <trkpt lat="41.79326" lon="9.13126">
        <ele>1124</ele>
        <time>2021-06-03T06:44:18Z</time>
      </trkpt>
      <trkpt lat="41.79329" lon="9.13131">
        <ele>1123.4</ele>
        <time>2021-06-03T06:44:19Z</time>
      </trkpt>
      <trkpt lat="41.79331" lon="9.13137">
        <ele>1123.2</ele>
        <time>2021-06-03T06:44:20Z</time>
      </trkpt>
      <trkpt lat="41.79334" lon="9.13143">
        <ele>1123.2</ele>
        <time>2021-06-03T06:44:21Z</time>
      </trkpt>
      <trkpt lat="41.79337" lon="9.13149">
        <ele>1123.2</ele>
        <time>2021-06-03T06:44:22Z</time>
      </trkpt>
      <trkpt lat="41.79341" lon="9.13155">
        <ele>1122.2</ele>
        <time>2021-06-03T06:44:23Z</time>
      </trkpt>
      <trkpt lat="41.79344" lon="9.13162">
        <ele>1121.4</ele>
        <time>2021-06-03T06:44:24Z</time>
      </trkpt>
      <trkpt lat="41.79347" lon="9.13169">
        <ele>1121.4</ele>
        <time>2021-06-03T06:44:25Z</time>
      </trkpt>
      <trkpt lat="41.7935" lon="9.13177">
        <ele>1121.4</ele>
        <time>2021-06-03T06:44:26Z</time>
      </trkpt>
      <trkpt lat="41.79354" lon="9.13184">
        <ele>1121</ele>
        <time>2021-06-03T06:44:27Z</time>
      </trkpt>
      <trkpt lat="41.79358" lon="9.1319">
        <ele>1121</ele>
        <time>2021-06-03T06:44:28Z</time>
      </trkpt>
      <trkpt lat="41.79362" lon="9.13196">
        <ele>1121</ele>
        <time>2021-06-03T06:44:29Z</time>
      </trkpt>
      <trkpt lat="41.79366" lon="9.13201">
        <ele>1121</ele>
        <time>2021-06-03T06:44:30Z</time>
      </trkpt>
      <trkpt lat="41.7937" lon="9.13206">
        <ele>1121</ele>
        <time>2021-06-03T06:44:31Z</time>
      </trkpt>
      <trkpt lat="41.79375" lon="9.1321">
        <ele>1120.2</ele>
        <time>2021-06-03T06:44:32Z</time>
      </trkpt>
      <trkpt lat="41.7938" lon="9.13214">
        <ele>1120.2</ele>
        <time>2021-06-03T06:44:33Z</time>
      </trkpt>
      <trkpt lat="41.79385" lon="9.13217">
        <ele>1120.2</ele>
        <time>2021-06-03T06:44:34Z</time>
      </trkpt>
      <trkpt lat="41.79391" lon="9.13219">
        <ele>1120.2</ele>
        <time>2021-06-03T06:44:35Z</time>
      </trkpt>
      <trkpt lat="41.79396" lon="9.13222">
        <ele>1120</ele>
        <time>2021-06-03T06:44:36Z</time>
      </trkpt>
      <trkpt lat="41.79401" lon="9.13225">
        <ele>1120</ele>
        <time>2021-06-03T06:44:37Z</time>
      </trkpt>
      <trkpt lat="41.79406" lon="9.13227">
        <ele>1120</ele>
        <time>2021-06-03T06:44:38Z</time>
      </trkpt>
      <trkpt lat="41.79412" lon="9.13228">
        <ele>1120</ele>
        <time>2021-06-03T06:44:39Z</time>
      </trkpt>
      <trkpt lat="41.79417" lon="9.1323">
        <ele>1119.8</ele>
        <time>2021-06-03T06:44:40Z</time>
      </trkpt>
      <trkpt lat="41.79422" lon="9.13233">
        <ele>1119.8</ele>
        <time>2021-06-03T06:44:41Z</time>
      </trkpt>
      <trkpt lat="41.79425" lon="9.13238">
        <ele>1119.8</ele>
        <time>2021-06-03T06:44:42Z</time>
      </trkpt>
      <trkpt lat="41.79428" lon="9.13244">
        <ele>1120.2</ele>
        <time>2021-06-03T06:44:43Z</time>
      </trkpt>
      <trkpt lat="41.7943" lon="9.13251">
        <ele>1120.8</ele>
        <time>2021-06-03T06:44:44Z</time>
      </trkpt>
      <trkpt lat="41.7943" lon="9.13257">
        <ele>1120.8</ele>
        <time>2021-06-03T06:44:45Z</time>
      </trkpt>
      <trkpt lat="41.79431" lon="9.13263">
        <ele>1120.8</ele>
        <time>2021-06-03T06:44:46Z</time>
      </trkpt>
      <trkpt lat="41.79431" lon="9.13269">
        <ele>1120.8</ele>
        <time>2021-06-03T06:44:47Z</time>
      </trkpt>
      <trkpt lat="41.79432" lon="9.13274">
        <ele>1121.6</ele>
        <time>2021-06-03T06:44:48Z</time>
      </trkpt>
      <trkpt lat="41.79432" lon="9.1328">
        <ele>1121.6</ele>
        <time>2021-06-03T06:44:49Z</time>
      </trkpt>
      <trkpt lat="41.79433" lon="9.13286">
        <ele>1121.6</ele>
        <time>2021-06-03T06:44:50Z</time>
      </trkpt>
      <trkpt lat="41.79433" lon="9.13291">
        <ele>1122.4</ele>
        <time>2021-06-03T06:44:51Z</time>
      </trkpt>
      <trkpt lat="41.79433" lon="9.13295">
        <ele>1122.6</ele>
        <time>2021-06-03T06:44:52Z</time>
      </trkpt>
      <trkpt lat="41.79433" lon="9.13299">
        <ele>1122.6</ele>
        <time>2021-06-03T06:44:53Z</time>
      </trkpt>
      <trkpt lat="41.79433" lon="9.13302">
        <ele>1122.6</ele>
        <time>2021-06-03T06:44:54Z</time>
      </trkpt>
      <trkpt lat="41.79433" lon="9.13305">
        <ele>1122.6</ele>
        <time>2021-06-03T06:44:55Z</time>
      </trkpt>
      <trkpt lat="41.79433" lon="9.13307">
        <ele>1123.6</ele>
        <time>2021-06-03T06:44:56Z</time>
      </trkpt>
      <trkpt lat="41.79433" lon="9.1331">
        <ele>1123.6</ele>
        <time>2021-06-03T06:44:57Z</time>
      </trkpt>
      <trkpt lat="41.79433" lon="9.13312">
        <ele>1123.6</ele>
        <time>2021-06-03T06:44:58Z</time>
      </trkpt>
      <trkpt lat="41.79433" lon="9.13314">
        <ele>1123.8</ele>
        <time>2021-06-03T06:44:59Z</time>
      </trkpt>
      <trkpt lat="41.79433" lon="9.13316">
        <ele>1124</ele>
        <time>2021-06-03T06:45:00Z</time>
      </trkpt>
      <trkpt lat="41.79433" lon="9.13318">
        <ele>1124</ele>
        <time>2021-06-03T06:45:01Z</time>
      </trkpt>
      <trkpt lat="41.79433" lon="9.1332">
        <ele>1124</ele>
        <time>2021-06-03T06:45:02Z</time>
      </trkpt>
      <trkpt lat="41.79433" lon="9.13321">
        <ele>1124.4</ele>
        <time>2021-06-03T06:45:03Z</time>
      </trkpt>
      <trkpt lat="41.79433" lon="9.13323">
        <ele>1124.6</ele>
        <time>2021-06-03T06:45:04Z</time>
      </trkpt>
      <trkpt lat="41.79433" lon="9.13325">
        <ele>1124.6</ele>
        <time>2021-06-03T06:45:05Z</time>
      </trkpt>
      <trkpt lat="41.79433" lon="9.13327">
        <ele>1124.6</ele>
        <time>2021-06-03T06:45:06Z</time>
      </trkpt>
      <trkpt lat="41.79433" lon="9.13329">
        <ele>1125</ele>
        <time>2021-06-03T06:45:07Z</time>
      </trkpt>
      <trkpt lat="41.79434" lon="9.13331">
        <ele>1125.2</ele>
        <time>2021-06-03T06:45:08Z</time>
      </trkpt>
      <trkpt lat="41.79434" lon="9.13333">
        <ele>1125.2</ele>
        <time>2021-06-03T06:45:09Z</time>
      </trkpt>
      <trkpt lat="41.79435" lon="9.13335">
        <ele>1125.2</ele>
        <time>2021-06-03T06:45:10Z</time>
      </trkpt>
      <trkpt lat="41.79435" lon="9.13337">
        <ele>1125.2</ele>
        <time>2021-06-03T06:45:11Z</time>
      </trkpt>
      <trkpt lat="41.79436" lon="9.13338">
        <ele>1125.8</ele>
        <time>2021-06-03T06:45:12Z</time>
      </trkpt>
      <trkpt lat="41.79437" lon="9.1334">
        <ele>1125.8</ele>
        <time>2021-06-03T06:45:13Z</time>
      </trkpt>
      <trkpt lat="41.79438" lon="9.13342">
        <ele>1125.8</ele>
        <time>2021-06-03T06:45:14Z</time>
      </trkpt>
      <trkpt lat="41.79439" lon="9.13344">
        <ele>1125.8</ele>
        <time>2021-06-03T06:45:15Z</time>
      </trkpt>
      <trkpt lat="41.79439" lon="9.13346">
        <ele>1126.6</ele>
        <time>2021-06-03T06:45:16Z</time>
      </trkpt>
      <trkpt lat="41.79441" lon="9.13347">
        <ele>1126.6</ele>
        <time>2021-06-03T06:45:17Z</time>
      </trkpt>
      <trkpt lat="41.79442" lon="9.13349">
        <ele>1126.6</ele>
        <time>2021-06-03T06:45:18Z</time>
      </trkpt>
      <trkpt lat="41.79443" lon="9.13351">
        <ele>1126.6</ele>
        <time>2021-06-03T06:45:19Z</time>
      </trkpt>
      <trkpt lat="41.79444" lon="9.13353">
        <ele>1126.8</ele>
        <time>2021-06-03T06:45:20Z</time>
      </trkpt>
      <trkpt lat="41.79445" lon="9.13355">
        <ele>1126.8</ele>
        <time>2021-06-03T06:45:21Z</time>
      </trkpt>
      <trkpt lat="41.79447" lon="9.13356">
        <ele>1126.8</ele>
        <time>2021-06-03T06:45:22Z</time>
      </trkpt>
      <trkpt lat="41.79448" lon="9.13358">
        <ele>1127.2</ele>
        <time>2021-06-03T06:45:23Z</time>
      </trkpt>
      <trkpt lat="41.79449" lon="9.1336">
        <ele>1127.2</ele>
        <time>2021-06-03T06:45:24Z</time>
      </trkpt>
      <trkpt lat="41.79451" lon="9.13362">
        <ele>1127.2</ele>
        <time>2021-06-03T06:45:25Z</time>
      </trkpt>
      <trkpt lat="41.79452" lon="9.13364">
        <ele>1127.2</ele>
        <time>2021-06-03T06:45:26Z</time>
      </trkpt>
      <trkpt lat="41.79454" lon="9.13366">
        <ele>1127.2</ele>
        <time>2021-06-03T06:45:27Z</time>
      </trkpt>
      <trkpt lat="41.79455" lon="9.13367">
        <ele>1128.2</ele>
        <time>2021-06-03T06:45:28Z</time>
      </trkpt>
      <trkpt lat="41.79456" lon="9.13369">
        <ele>1128.2</ele>
        <time>2021-06-03T06:45:29Z</time>
      </trkpt>
      <trkpt lat="41.79458" lon="9.13371">
        <ele>1128.2</ele>
        <time>2021-06-03T06:45:30Z</time>
      </trkpt>
      <trkpt lat="41.79459" lon="9.13373">
        <ele>1128.2</ele>
        <time>2021-06-03T06:45:31Z</time>
      </trkpt>
      <trkpt lat="41.7946" lon="9.13375">
        <ele>1128.6</ele>
        <time>2021-06-03T06:45:32Z</time>
      </trkpt>
      <trkpt lat="41.79462" lon="9.13377">
        <ele>1128.6</ele>
        <time>2021-06-03T06:45:33Z</time>
      </trkpt>
      <trkpt lat="41.79463" lon="9.13378">
        <ele>1128.6</ele>
        <time>2021-06-03T06:45:34Z</time>
      </trkpt>
      <trkpt lat="41.79464" lon="9.1338">
        <ele>1128.6</ele>
        <time>2021-06-03T06:45:35Z</time>
      </trkpt>
      <trkpt lat="41.79466" lon="9.13381">
        <ele>1129.4</ele>
        <time>2021-06-03T06:45:36Z</time>
      </trkpt>
      <trkpt lat="41.79467" lon="9.13382">
        <ele>1129.4</ele>
        <time>2021-06-03T06:45:37Z</time>
      </trkpt>
      <trkpt lat="41.79469" lon="9.13384">
        <ele>1129.4</ele>
        <time>2021-06-03T06:45:38Z</time>
      </trkpt>
      <trkpt lat="41.7947" lon="9.13385">
        <ele>1129.4</ele>
        <time>2021-06-03T06:45:39Z</time>
      </trkpt>
      <trkpt lat="41.79472" lon="9.13386">
        <ele>1129.8</ele>
        <time>2021-06-03T06:45:40Z</time>
      </trkpt>
      <trkpt lat="41.79473" lon="9.13387">
        <ele>1129.8</ele>
        <time>2021-06-03T06:45:41Z</time>
      </trkpt>
      <trkpt lat="41.79475" lon="9.13387">
        <ele>1129.8</ele>
        <time>2021-06-03T06:45:42Z</time>
      </trkpt>
      <trkpt lat="41.79476" lon="9.13388">
        <ele>1130.2</ele>
        <time>2021-06-03T06:45:43Z</time>
      </trkpt>
      <trkpt lat="41.79478" lon="9.13389">
        <ele>1130</ele>
        <time>2021-06-03T06:45:44Z</time>
      </trkpt>
      <trkpt lat="41.7948" lon="9.13389">
        <ele>1130</ele>
        <time>2021-06-03T06:45:45Z</time>
      </trkpt>
      <trkpt lat="41.79481" lon="9.1339">
        <ele>1130</ele>
        <time>2021-06-03T06:45:46Z</time>
      </trkpt>
      <trkpt lat="41.79482" lon="9.13391">
        <ele>1130.8</ele>
        <time>2021-06-03T06:45:47Z</time>
      </trkpt>
      <trkpt lat="41.79484" lon="9.13391">
        <ele>1130.6</ele>
        <time>2021-06-03T06:45:48Z</time>
      </trkpt>
      <trkpt lat="41.79485" lon="9.13392">
        <ele>1130.6</ele>
        <time>2021-06-03T06:45:49Z</time>
      </trkpt>
      <trkpt lat="41.79487" lon="9.13392">
        <ele>1130.6</ele>
        <time>2021-06-03T06:45:50Z</time>
      </trkpt>
      <trkpt lat="41.79488" lon="9.13393">
        <ele>1131</ele>
        <time>2021-06-03T06:45:51Z</time>
      </trkpt>
      <trkpt lat="41.79489" lon="9.13394">
        <ele>1131.4</ele>
        <time>2021-06-03T06:45:52Z</time>
      </trkpt>
      <trkpt lat="41.79491" lon="9.13395">
        <ele>1131.4</ele>
        <time>2021-06-03T06:45:53Z</time>
      </trkpt>
      <trkpt lat="41.79492" lon="9.13395">
        <ele>1131.4</ele>
        <time>2021-06-03T06:45:54Z</time>
      </trkpt>
      <trkpt lat="41.79493" lon="9.13396">
        <ele>1131.4</ele>
        <time>2021-06-03T06:45:55Z</time>
      </trkpt>
      <trkpt lat="41.79495" lon="9.13397">
        <ele>1131.8</ele>
        <time>2021-06-03T06:45:56Z</time>
      </trkpt>
      <trkpt lat="41.79496" lon="9.13397">
        <ele>1131.8</ele>
        <time>2021-06-03T06:45:57Z</time>
      </trkpt>
      <trkpt lat="41.79497" lon="9.13397">
        <ele>1131.8</ele>
        <time>2021-06-03T06:45:58Z</time>
      </trkpt>
      <trkpt lat="41.79499" lon="9.13397">
        <ele>1132.4</ele>
        <time>2021-06-03T06:45:59Z</time>
      </trkpt>
      <trkpt lat="41.795" lon="9.13398">
        <ele>1132.6</ele>
        <time>2021-06-03T06:46:00Z</time>
      </trkpt>
      <trkpt lat="41.79501" lon="9.13398">
        <ele>1132.6</ele>
        <time>2021-06-03T06:46:01Z</time>
      </trkpt>
      <trkpt lat="41.79503" lon="9.13398">
        <ele>1132.6</ele>
        <time>2021-06-03T06:46:02Z</time>
      </trkpt>
      <trkpt lat="41.79504" lon="9.13399">
        <ele>1133</ele>
        <time>2021-06-03T06:46:03Z</time>
      </trkpt>
      <trkpt lat="41.79505" lon="9.13399">
        <ele>1133.2</ele>
        <time>2021-06-03T06:46:04Z</time>
      </trkpt>
      <trkpt lat="41.79506" lon="9.134">
        <ele>1133.2</ele>
        <time>2021-06-03T06:46:05Z</time>
      </trkpt>
      <trkpt lat="41.79508" lon="9.134">
        <ele>1133.2</ele>
        <time>2021-06-03T06:46:06Z</time>
      </trkpt>
      <trkpt lat="41.79509" lon="9.134">
        <ele>1133.2</ele>
        <time>2021-06-03T06:46:07Z</time>
      </trkpt>
      <trkpt lat="41.7951" lon="9.134">
        <ele>1133.4</ele>
        <time>2021-06-03T06:46:08Z</time>
      </trkpt>
      <trkpt lat="41.79512" lon="9.13399">
        <ele>1133.4</ele>
        <time>2021-06-03T06:46:09Z</time>
      </trkpt>
      <trkpt lat="41.79513" lon="9.13399">
        <ele>1133.4</ele>
        <time>2021-06-03T06:46:10Z</time>
      </trkpt>
      <trkpt lat="41.79514" lon="9.13398">
        <ele>1133.4</ele>
        <time>2021-06-03T06:46:11Z</time>
      </trkpt>
      <trkpt lat="41.79515" lon="9.13397">
        <ele>1133.6</ele>
        <time>2021-06-03T06:46:12Z</time>
      </trkpt>
      <trkpt lat="41.79516" lon="9.13397">
        <ele>1133.6</ele>
        <time>2021-06-03T06:46:13Z</time>
      </trkpt>
      <trkpt lat="41.79517" lon="9.13396">
        <ele>1133.6</ele>
        <time>2021-06-03T06:46:14Z</time>
      </trkpt>
      <trkpt lat="41.79519" lon="9.13395">
        <ele>1133.8</ele>
        <time>2021-06-03T06:46:15Z</time>
      </trkpt>
      <trkpt lat="41.7952" lon="9.13394">
        <ele>1134</ele>
        <time>2021-06-03T06:46:16Z</time>
      </trkpt>
      <trkpt lat="41.79521" lon="9.13392">
        <ele>1134</ele>
        <time>2021-06-03T06:46:17Z</time>
      </trkpt>
      <trkpt lat="41.79522" lon="9.13391">
        <ele>1134</ele>
        <time>2021-06-03T06:46:18Z</time>
      </trkpt>
      <trkpt lat="41.79523" lon="9.1339">
        <ele>1134.6</ele>
        <time>2021-06-03T06:46:19Z</time>
      </trkpt>
      <trkpt lat="41.79524" lon="9.13389">
        <ele>1134.6</ele>
        <time>2021-06-03T06:46:20Z</time>
      </trkpt>
      <trkpt lat="41.79524" lon="9.13387">
        <ele>1134.6</ele>
        <time>2021-06-03T06:46:21Z</time>
      </trkpt>
      <trkpt lat="41.79525" lon="9.13386">
        <ele>1134.6</ele>
        <time>2021-06-03T06:46:22Z</time>
      </trkpt>
      <trkpt lat="41.79526" lon="9.13384">
        <ele>1134.6</ele>
        <time>2021-06-03T06:46:23Z</time>
      </trkpt>
      <trkpt lat="41.79527" lon="9.13383">
        <ele>1134.6</ele>
        <time>2021-06-03T06:46:24Z</time>
      </trkpt>
      <trkpt lat="41.79528" lon="9.13381">
        <ele>1134.6</ele>
        <time>2021-06-03T06:46:25Z</time>
      </trkpt>
      <trkpt lat="41.79529" lon="9.1338">
        <ele>1134.6</ele>
        <time>2021-06-03T06:46:26Z</time>
      </trkpt>
      <trkpt lat="41.7953" lon="9.13378">
        <ele>1134.8</ele>
        <time>2021-06-03T06:46:27Z</time>
      </trkpt>
      <trkpt lat="41.7953" lon="9.13377">
        <ele>1134.8</ele>
        <time>2021-06-03T06:46:28Z</time>
      </trkpt>
      <trkpt lat="41.79531" lon="9.13375">
        <ele>1134.8</ele>
        <time>2021-06-03T06:46:29Z</time>
      </trkpt>
      <trkpt lat="41.79532" lon="9.13374">
        <ele>1134.8</ele>
        <time>2021-06-03T06:46:30Z</time>
      </trkpt>
      <trkpt lat="41.79533" lon="9.13372">
        <ele>1135.8</ele>
        <time>2021-06-03T06:46:31Z</time>
      </trkpt>
      <trkpt lat="41.79534" lon="9.13371">
        <ele>1136</ele>
        <time>2021-06-03T06:46:32Z</time>
      </trkpt>
      <trkpt lat="41.79534" lon="9.13369">
        <ele>1136</ele>
        <time>2021-06-03T06:46:33Z</time>
      </trkpt>
      <trkpt lat="41.79535" lon="9.13368">
        <ele>1136</ele>
        <time>2021-06-03T06:46:34Z</time>
      </trkpt>
      <trkpt lat="41.79536" lon="9.13366">
        <ele>1136</ele>
        <time>2021-06-03T06:46:35Z</time>
      </trkpt>
      <trkpt lat="41.79536" lon="9.13365">
        <ele>1136</ele>
        <time>2021-06-03T06:46:36Z</time>
      </trkpt>
      <trkpt lat="41.79537" lon="9.13363">
        <ele>1136</ele>
        <time>2021-06-03T06:46:37Z</time>
      </trkpt>
      <trkpt lat="41.79538" lon="9.13361">
        <ele>1136</ele>
        <time>2021-06-03T06:46:38Z</time>
      </trkpt>
      <trkpt lat="41.79538" lon="9.1336">
        <ele>1136.4</ele>
        <time>2021-06-03T06:46:39Z</time>
      </trkpt>
      <trkpt lat="41.79539" lon="9.13359">
        <ele>1136.2</ele>
        <time>2021-06-03T06:46:40Z</time>
      </trkpt>
      <trkpt lat="41.7954" lon="9.13357">
        <ele>1136.2</ele>
        <time>2021-06-03T06:46:41Z</time>
      </trkpt>
      <trkpt lat="41.79541" lon="9.13356">
        <ele>1136.2</ele>
        <time>2021-06-03T06:46:42Z</time>
      </trkpt>
      <trkpt lat="41.79542" lon="9.13354">
        <ele>1136.6</ele>
        <time>2021-06-03T06:46:43Z</time>
      </trkpt>
      <trkpt lat="41.79543" lon="9.13353">
        <ele>1136.8</ele>
        <time>2021-06-03T06:46:44Z</time>
      </trkpt>
      <trkpt lat="41.79543" lon="9.13351">
        <ele>1136.8</ele>
        <time>2021-06-03T06:46:45Z</time>
      </trkpt>
      <trkpt lat="41.79544" lon="9.1335">
        <ele>1136.8</ele>
        <time>2021-06-03T06:46:46Z</time>
      </trkpt>
      <trkpt lat="41.79545" lon="9.13348">
        <ele>1136.8</ele>
        <time>2021-06-03T06:46:47Z</time>
      </trkpt>
      <trkpt lat="41.79546" lon="9.13347">
        <ele>1137.2</ele>
        <time>2021-06-03T06:46:48Z</time>
      </trkpt>
      <trkpt lat="41.79546" lon="9.13346">
        <ele>1137.2</ele>
        <time>2021-06-03T06:46:49Z</time>
      </trkpt>
      <trkpt lat="41.79547" lon="9.13344">
        <ele>1137.2</ele>
        <time>2021-06-03T06:46:50Z</time>
      </trkpt>
      <trkpt lat="41.79548" lon="9.13343">
        <ele>1137.2</ele>
        <time>2021-06-03T06:46:51Z</time>
      </trkpt>
      <trkpt lat="41.79549" lon="9.13342">
        <ele>1137.4</ele>
        <time>2021-06-03T06:46:52Z</time>
      </trkpt>
      <trkpt lat="41.7955" lon="9.13341">
        <ele>1137.4</ele>
        <time>2021-06-03T06:46:53Z</time>
      </trkpt>
      <trkpt lat="41.79551" lon="9.1334">
        <ele>1137.4</ele>
        <time>2021-06-03T06:46:54Z</time>
      </trkpt>
      <trkpt lat="41.79552" lon="9.13339">
        <ele>1138.4</ele>
        <time>2021-06-03T06:46:55Z</time>
      </trkpt>
      <trkpt lat="41.79553" lon="9.13338">
        <ele>1138.6</ele>
        <time>2021-06-03T06:46:56Z</time>
      </trkpt>
      <trkpt lat="41.79554" lon="9.13337">
        <ele>1138.6</ele>
        <time>2021-06-03T06:46:57Z</time>
      </trkpt>
      <trkpt lat="41.79555" lon="9.13337">
        <ele>1138.6</ele>
        <time>2021-06-03T06:46:58Z</time>
      </trkpt>
      <trkpt lat="41.79556" lon="9.13336">
        <ele>1139</ele>
        <time>2021-06-03T06:46:59Z</time>
      </trkpt>
      <trkpt lat="41.79557" lon="9.13336">
        <ele>1139</ele>
        <time>2021-06-03T06:47:00Z</time>
      </trkpt>
      <trkpt lat="41.79558" lon="9.13336">
        <ele>1139</ele>
        <time>2021-06-03T06:47:01Z</time>
      </trkpt>
      <trkpt lat="41.79559" lon="9.13336">
        <ele>1139</ele>
        <time>2021-06-03T06:47:02Z</time>
      </trkpt>
      <trkpt lat="41.79561" lon="9.13335">
        <ele>1139.6</ele>
        <time>2021-06-03T06:47:03Z</time>
      </trkpt>
      <trkpt lat="41.79562" lon="9.13335">
        <ele>1139.8</ele>
        <time>2021-06-03T06:47:04Z</time>
      </trkpt>
      <trkpt lat="41.79563" lon="9.13334">
        <ele>1139.8</ele>
        <time>2021-06-03T06:47:05Z</time>
      </trkpt>
      <trkpt lat="41.79565" lon="9.13334">
        <ele>1139.8</ele>
        <time>2021-06-03T06:47:06Z</time>
      </trkpt>
      <trkpt lat="41.79566" lon="9.13333">
        <ele>1139.8</ele>
        <time>2021-06-03T06:47:07Z</time>
      </trkpt>
      <trkpt lat="41.79567" lon="9.13333">
        <ele>1140.4</ele>
        <time>2021-06-03T06:47:08Z</time>
      </trkpt>
      <trkpt lat="41.79568" lon="9.13332">
        <ele>1140.4</ele>
        <time>2021-06-03T06:47:09Z</time>
      </trkpt>
      <trkpt lat="41.79569" lon="9.13332">
        <ele>1140.4</ele>
        <time>2021-06-03T06:47:10Z</time>
      </trkpt>
      <trkpt lat="41.79571" lon="9.13332">
        <ele>1140.4</ele>
        <time>2021-06-03T06:47:11Z</time>
      </trkpt>
      <trkpt lat="41.79572" lon="9.13332">
        <ele>1140.6</ele>
        <time>2021-06-03T06:47:12Z</time>
      </trkpt>
      <trkpt lat="41.79573" lon="9.13332">
        <ele>1140.6</ele>
        <time>2021-06-03T06:47:13Z</time>
      </trkpt>
      <trkpt lat="41.79574" lon="9.13332">
        <ele>1140.6</ele>
        <time>2021-06-03T06:47:14Z</time>
      </trkpt>
      <trkpt lat="41.79575" lon="9.13332">
        <ele>1141.2</ele>
        <time>2021-06-03T06:47:15Z</time>
      </trkpt>
      <trkpt lat="41.79576" lon="9.13332">
        <ele>1141</ele>
        <time>2021-06-03T06:47:16Z</time>
      </trkpt>
      <trkpt lat="41.79578" lon="9.13331">
        <ele>1141</ele>
        <time>2021-06-03T06:47:17Z</time>
      </trkpt>
      <trkpt lat="41.79579" lon="9.13331">
        <ele>1141</ele>
        <time>2021-06-03T06:47:18Z</time>
      </trkpt>
      <trkpt lat="41.7958" lon="9.13331">
        <ele>1141.8</ele>
        <time>2021-06-03T06:47:19Z</time>
      </trkpt>
      <trkpt lat="41.79581" lon="9.1333">
        <ele>1142</ele>
        <time>2021-06-03T06:47:20Z</time>
      </trkpt>
      <trkpt lat="41.79582" lon="9.1333">
        <ele>1142</ele>
        <time>2021-06-03T06:47:21Z</time>
      </trkpt>
      <trkpt lat="41.79583" lon="9.13329">
        <ele>1142</ele>
        <time>2021-06-03T06:47:22Z</time>
      </trkpt>
      <trkpt lat="41.79584" lon="9.13329">
        <ele>1142</ele>
        <time>2021-06-03T06:47:23Z</time>
      </trkpt>
      <trkpt lat="41.79585" lon="9.13329">
        <ele>1142.6</ele>
        <time>2021-06-03T06:47:24Z</time>
      </trkpt>
      <trkpt lat="41.79587" lon="9.13328">
        <ele>1142.6</ele>
        <time>2021-06-03T06:47:25Z</time>
      </trkpt>
      <trkpt lat="41.79588" lon="9.13328">
        <ele>1142.6</ele>
        <time>2021-06-03T06:47:26Z</time>
      </trkpt>
      <trkpt lat="41.7959" lon="9.13328">
        <ele>1142.6</ele>
        <time>2021-06-03T06:47:27Z</time>
      </trkpt>
      <trkpt lat="41.79591" lon="9.13328">
        <ele>1142.6</ele>
        <time>2021-06-03T06:47:28Z</time>
      </trkpt>
      <trkpt lat="41.79592" lon="9.13328">
        <ele>1142.6</ele>
        <time>2021-06-03T06:47:29Z</time>
      </trkpt>
      <trkpt lat="41.79593" lon="9.13328">
        <ele>1142.6</ele>
        <time>2021-06-03T06:47:30Z</time>
      </trkpt>
      <trkpt lat="41.79595" lon="9.13328">
        <ele>1143</ele>
        <time>2021-06-03T06:47:31Z</time>
      </trkpt>
      <trkpt lat="41.79596" lon="9.13329">
        <ele>1143</ele>
        <time>2021-06-03T06:47:32Z</time>
      </trkpt>
      <trkpt lat="41.79597" lon="9.13329">
        <ele>1143</ele>
        <time>2021-06-03T06:47:33Z</time>
      </trkpt>
      <trkpt lat="41.79598" lon="9.1333">
        <ele>1143</ele>
        <time>2021-06-03T06:47:34Z</time>
      </trkpt>
      <trkpt lat="41.79599" lon="9.1333">
        <ele>1143.2</ele>
        <time>2021-06-03T06:47:35Z</time>
      </trkpt>
      <trkpt lat="41.796" lon="9.13331">
        <ele>1143.4</ele>
        <time>2021-06-03T06:47:36Z</time>
      </trkpt>
      <trkpt lat="41.79601" lon="9.13332">
        <ele>1143.4</ele>
        <time>2021-06-03T06:47:37Z</time>
      </trkpt>
      <trkpt lat="41.79602" lon="9.13332">
        <ele>1143.4</ele>
        <time>2021-06-03T06:47:38Z</time>
      </trkpt>
      <trkpt lat="41.79603" lon="9.13333">
        <ele>1144.2</ele>
        <time>2021-06-03T06:47:39Z</time>
      </trkpt>
      <trkpt lat="41.79605" lon="9.13334">
        <ele>1144.6</ele>
        <time>2021-06-03T06:47:40Z</time>
      </trkpt>
      <trkpt lat="41.79606" lon="9.13334">
        <ele>1144.6</ele>
        <time>2021-06-03T06:47:41Z</time>
      </trkpt>
      <trkpt lat="41.79608" lon="9.13335">
        <ele>1144.6</ele>
        <time>2021-06-03T06:47:42Z</time>
      </trkpt>
      <trkpt lat="41.79609" lon="9.13336">
        <ele>1145.2</ele>
        <time>2021-06-03T06:47:43Z</time>
      </trkpt>
      <trkpt lat="41.7961" lon="9.13337">
        <ele>1145.2</ele>
        <time>2021-06-03T06:47:44Z</time>
      </trkpt>
      <trkpt lat="41.7961" lon="9.13338">
        <ele>1145.2</ele>
        <time>2021-06-03T06:47:45Z</time>
      </trkpt>
      <trkpt lat="41.79611" lon="9.1334">
        <ele>1145.2</ele>
        <time>2021-06-03T06:47:46Z</time>
      </trkpt>
      <trkpt lat="41.79612" lon="9.1334">
        <ele>1145.2</ele>
        <time>2021-06-03T06:47:47Z</time>
      </trkpt>
      <trkpt lat="41.79613" lon="9.13341">
        <ele>1145.6</ele>
        <time>2021-06-03T06:47:48Z</time>
      </trkpt>
      <trkpt lat="41.79614" lon="9.13342">
        <ele>1145.6</ele>
        <time>2021-06-03T06:47:49Z</time>
      </trkpt>
      <trkpt lat="41.79615" lon="9.13343">
        <ele>1145.6</ele>
        <time>2021-06-03T06:47:50Z</time>
      </trkpt>
      <trkpt lat="41.79616" lon="9.13344">
        <ele>1146.2</ele>
        <time>2021-06-03T06:47:51Z</time>
      </trkpt>
      <trkpt lat="41.79617" lon="9.13345">
        <ele>1146.2</ele>
        <time>2021-06-03T06:47:52Z</time>
      </trkpt>
      <trkpt lat="41.79618" lon="9.13346">
        <ele>1146.2</ele>
        <time>2021-06-03T06:47:53Z</time>
      </trkpt>
      <trkpt lat="41.79619" lon="9.13347">
        <ele>1146.2</ele>
        <time>2021-06-03T06:47:54Z</time>
      </trkpt>
      <trkpt lat="41.7962" lon="9.13348">
        <ele>1146.6</ele>
        <time>2021-06-03T06:47:55Z</time>
      </trkpt>
      <trkpt lat="41.79621" lon="9.13349">
        <ele>1146.6</ele>
        <time>2021-06-03T06:47:56Z</time>
      </trkpt>
      <trkpt lat="41.79622" lon="9.1335">
        <ele>1146.6</ele>
        <time>2021-06-03T06:47:57Z</time>
      </trkpt>
      <trkpt lat="41.79623" lon="9.13351">
        <ele>1146.6</ele>
        <time>2021-06-03T06:47:58Z</time>
      </trkpt>
      <trkpt lat="41.79624" lon="9.13352">
        <ele>1147.4</ele>
        <time>2021-06-03T06:47:59Z</time>
      </trkpt>
      <trkpt lat="41.79625" lon="9.13353">
        <ele>1147.2</ele>
        <time>2021-06-03T06:48:00Z</time>
      </trkpt>
      <trkpt lat="41.79626" lon="9.13354">
        <ele>1147.2</ele>
        <time>2021-06-03T06:48:01Z</time>
      </trkpt>
      <trkpt lat="41.79627" lon="9.13354">
        <ele>1147.2</ele>
        <time>2021-06-03T06:48:02Z</time>
      </trkpt>
      <trkpt lat="41.79629" lon="9.13355">
        <ele>1147.2</ele>
        <time>2021-06-03T06:48:03Z</time>
      </trkpt>
      <trkpt lat="41.7963" lon="9.13356">
        <ele>1147.6</ele>
        <time>2021-06-03T06:48:04Z</time>
      </trkpt>
      <trkpt lat="41.79631" lon="9.13357">
        <ele>1147.6</ele>
        <time>2021-06-03T06:48:05Z</time>
      </trkpt>
      <trkpt lat="41.79632" lon="9.13358">
        <ele>1147.6</ele>
        <time>2021-06-03T06:48:06Z</time>
      </trkpt>
      <trkpt lat="41.79633" lon="9.13359">
        <ele>1148.2</ele>
        <time>2021-06-03T06:48:07Z</time>
      </trkpt>
      <trkpt lat="41.79635" lon="9.13359">
        <ele>1147.8</ele>
        <time>2021-06-03T06:48:08Z</time>
      </trkpt>
      <trkpt lat="41.79636" lon="9.1336">
        <ele>1147.8</ele>
        <time>2021-06-03T06:48:09Z</time>
      </trkpt>
      <trkpt lat="41.79637" lon="9.13361">
        <ele>1147.8</ele>
        <time>2021-06-03T06:48:10Z</time>
      </trkpt>
      <trkpt lat="41.79638" lon="9.13361">
        <ele>1148.2</ele>
        <time>2021-06-03T06:48:11Z</time>
      </trkpt>
      <trkpt lat="41.79639" lon="9.13362">
        <ele>1148.4</ele>
        <time>2021-06-03T06:48:12Z</time>
      </trkpt>
      <trkpt lat="41.79641" lon="9.13362">
        <ele>1148.4</ele>
        <time>2021-06-03T06:48:13Z</time>
      </trkpt>
      <trkpt lat="41.79642" lon="9.13363">
        <ele>1148.4</ele>
        <time>2021-06-03T06:48:14Z</time>
      </trkpt>
      <trkpt lat="41.79643" lon="9.13364">
        <ele>1148.8</ele>
        <time>2021-06-03T06:48:15Z</time>
      </trkpt>
      <trkpt lat="41.79644" lon="9.13364">
        <ele>1148.6</ele>
        <time>2021-06-03T06:48:16Z</time>
      </trkpt>
      <trkpt lat="41.79645" lon="9.13365">
        <ele>1148.6</ele>
        <time>2021-06-03T06:48:17Z</time>
      </trkpt>
      <trkpt lat="41.79646" lon="9.13365">
        <ele>1148.6</ele>
        <time>2021-06-03T06:48:18Z</time>
      </trkpt>
      <trkpt lat="41.79647" lon="9.13366">
        <ele>1149.2</ele>
        <time>2021-06-03T06:48:19Z</time>
      </trkpt>
      <trkpt lat="41.79648" lon="9.13366">
        <ele>1149.4</ele>
        <time>2021-06-03T06:48:20Z</time>
      </trkpt>
      <trkpt lat="41.7965" lon="9.13367">
        <ele>1149.4</ele>
        <time>2021-06-03T06:48:21Z</time>
      </trkpt>
      <trkpt lat="41.79651" lon="9.13367">
        <ele>1149.4</ele>
        <time>2021-06-03T06:48:22Z</time>
      </trkpt>
      <trkpt lat="41.79652" lon="9.13368">
        <ele>1149.4</ele>
        <time>2021-06-03T06:48:23Z</time>
      </trkpt>
      <trkpt lat="41.79653" lon="9.13369">
        <ele>1149.4</ele>
        <time>2021-06-03T06:48:24Z</time>
      </trkpt>
      <trkpt lat="41.79654" lon="9.1337">
        <ele>1149.4</ele>
        <time>2021-06-03T06:48:25Z</time>
      </trkpt>
      <trkpt lat="41.79655" lon="9.1337">
        <ele>1149.4</ele>
        <time>2021-06-03T06:48:26Z</time>
      </trkpt>
      <trkpt lat="41.79657" lon="9.13371">
        <ele>1150.2</ele>
        <time>2021-06-03T06:48:27Z</time>
      </trkpt>
      <trkpt lat="41.79658" lon="9.13372">
        <ele>1150.2</ele>
        <time>2021-06-03T06:48:28Z</time>
      </trkpt>
      <trkpt lat="41.79659" lon="9.13372">
        <ele>1150.2</ele>
        <time>2021-06-03T06:48:29Z</time>
      </trkpt>
      <trkpt lat="41.7966" lon="9.13372">
        <ele>1150.2</ele>
        <time>2021-06-03T06:48:30Z</time>
      </trkpt>
      <trkpt lat="41.79661" lon="9.13373">
        <ele>1150.6</ele>
        <time>2021-06-03T06:48:31Z</time>
      </trkpt>
      <trkpt lat="41.79663" lon="9.13373">
        <ele>1150.6</ele>
        <time>2021-06-03T06:48:32Z</time>
      </trkpt>
      <trkpt lat="41.79664" lon="9.13373">
        <ele>1150.6</ele>
        <time>2021-06-03T06:48:33Z</time>
      </trkpt>
      <trkpt lat="41.79665" lon="9.13374">
        <ele>1150.6</ele>
        <time>2021-06-03T06:48:34Z</time>
      </trkpt>
      <trkpt lat="41.79666" lon="9.13374">
        <ele>1150.6</ele>
        <time>2021-06-03T06:48:35Z</time>
      </trkpt>
      <trkpt lat="41.79668" lon="9.13374">
        <ele>1151</ele>
        <time>2021-06-03T06:48:36Z</time>
      </trkpt>
      <trkpt lat="41.79669" lon="9.13374">
        <ele>1151</ele>
        <time>2021-06-03T06:48:37Z</time>
      </trkpt>
      <trkpt lat="41.7967" lon="9.13374">
        <ele>1151</ele>
        <time>2021-06-03T06:48:38Z</time>
      </trkpt>
      <trkpt lat="41.79671" lon="9.13375">
        <ele>1151</ele>
        <time>2021-06-03T06:48:39Z</time>
      </trkpt>
      <trkpt lat="41.79673" lon="9.13375">
        <ele>1151.4</ele>
        <time>2021-06-03T06:48:40Z</time>
      </trkpt>
      <trkpt lat="41.79674" lon="9.13375">
        <ele>1151.4</ele>
        <time>2021-06-03T06:48:41Z</time>
      </trkpt>
      <trkpt lat="41.79675" lon="9.13375">
        <ele>1151.4</ele>
        <time>2021-06-03T06:48:42Z</time>
      </trkpt>
      <trkpt lat="41.79676" lon="9.13374">
        <ele>1151.8</ele>
        <time>2021-06-03T06:48:43Z</time>
      </trkpt>
      <trkpt lat="41.79677" lon="9.13374">
        <ele>1151.8</ele>
        <time>2021-06-03T06:48:44Z</time>
      </trkpt>
      <trkpt lat="41.79678" lon="9.13373">
        <ele>1151.8</ele>
        <time>2021-06-03T06:48:45Z</time>
      </trkpt>
      <trkpt lat="41.79679" lon="9.13373">
        <ele>1151.8</ele>
        <time>2021-06-03T06:48:46Z</time>
      </trkpt>
      <trkpt lat="41.7968" lon="9.13372">
        <ele>1151.8</ele>
        <time>2021-06-03T06:48:47Z</time>
      </trkpt>
      <trkpt lat="41.79682" lon="9.13371">
        <ele>1152.2</ele>
        <time>2021-06-03T06:48:48Z</time>
      </trkpt>
      <trkpt lat="41.79683" lon="9.1337">
        <ele>1152.2</ele>
        <time>2021-06-03T06:48:49Z</time>
      </trkpt>
      <trkpt lat="41.79684" lon="9.13369">
        <ele>1152.2</ele>
        <time>2021-06-03T06:48:50Z</time>
      </trkpt>
      <trkpt lat="41.79685" lon="9.13368">
        <ele>1152.4</ele>
        <time>2021-06-03T06:48:51Z</time>
      </trkpt>
      <trkpt lat="41.79686" lon="9.13367">
        <ele>1152.4</ele>
        <time>2021-06-03T06:48:52Z</time>
      </trkpt>
      <trkpt lat="41.79687" lon="9.13366">
        <ele>1152.4</ele>
        <time>2021-06-03T06:48:53Z</time>
      </trkpt>
      <trkpt lat="41.79688" lon="9.13365">
        <ele>1152.4</ele>
        <time>2021-06-03T06:48:54Z</time>
      </trkpt>
      <trkpt lat="41.79689" lon="9.13364">
        <ele>1152.8</ele>
        <time>2021-06-03T06:48:55Z</time>
      </trkpt>
      <trkpt lat="41.79689" lon="9.13362">
        <ele>1152.8</ele>
        <time>2021-06-03T06:48:56Z</time>
      </trkpt>
      <trkpt lat="41.7969" lon="9.13361">
        <ele>1152.8</ele>
        <time>2021-06-03T06:48:57Z</time>
      </trkpt>
      <trkpt lat="41.79691" lon="9.1336">
        <ele>1152.8</ele>
        <time>2021-06-03T06:48:58Z</time>
      </trkpt>
      <trkpt lat="41.79692" lon="9.13358">
        <ele>1153.2</ele>
        <time>2021-06-03T06:48:59Z</time>
      </trkpt>
      <trkpt lat="41.79693" lon="9.13357">
        <ele>1153.6</ele>
        <time>2021-06-03T06:49:00Z</time>
      </trkpt>
      <trkpt lat="41.79694" lon="9.13356">
        <ele>1153.6</ele>
        <time>2021-06-03T06:49:01Z</time>
      </trkpt>
      <trkpt lat="41.79695" lon="9.13355">
        <ele>1153.6</ele>
        <time>2021-06-03T06:49:02Z</time>
      </trkpt>
      <trkpt lat="41.79696" lon="9.13353">
        <ele>1153.6</ele>
        <time>2021-06-03T06:49:03Z</time>
      </trkpt>
      <trkpt lat="41.79697" lon="9.13353">
        <ele>1153.8</ele>
        <time>2021-06-03T06:49:04Z</time>
      </trkpt>
      <trkpt lat="41.79698" lon="9.13352">
        <ele>1153.8</ele>
        <time>2021-06-03T06:49:05Z</time>
      </trkpt>
      <trkpt lat="41.79699" lon="9.13351">
        <ele>1153.8</ele>
        <time>2021-06-03T06:49:06Z</time>
      </trkpt>
      <trkpt lat="41.797" lon="9.1335">
        <ele>1153.8</ele>
        <time>2021-06-03T06:49:07Z</time>
      </trkpt>
      <trkpt lat="41.79702" lon="9.1335">
        <ele>1154.2</ele>
        <time>2021-06-03T06:49:08Z</time>
      </trkpt>
      <trkpt lat="41.79703" lon="9.13349">
        <ele>1154.2</ele>
        <time>2021-06-03T06:49:09Z</time>
      </trkpt>
      <trkpt lat="41.79705" lon="9.13349">
        <ele>1154.2</ele>
        <time>2021-06-03T06:49:10Z</time>
      </trkpt>
      <trkpt lat="41.79706" lon="9.13349">
        <ele>1154.2</ele>
        <time>2021-06-03T06:49:11Z</time>
      </trkpt>
      <trkpt lat="41.79708" lon="9.13349">
        <ele>1154.2</ele>
        <time>2021-06-03T06:49:12Z</time>
      </trkpt>
      <trkpt lat="41.79709" lon="9.1335">
        <ele>1154.2</ele>
        <time>2021-06-03T06:49:13Z</time>
      </trkpt>
      <trkpt lat="41.79711" lon="9.13351">
        <ele>1154.2</ele>
        <time>2021-06-03T06:49:14Z</time>
      </trkpt>
      <trkpt lat="41.79712" lon="9.13352">
        <ele>1154.4</ele>
        <time>2021-06-03T06:49:15Z</time>
      </trkpt>
      <trkpt lat="41.79714" lon="9.13354">
        <ele>1154.4</ele>
        <time>2021-06-03T06:49:16Z</time>
      </trkpt>
      <trkpt lat="41.79715" lon="9.13355">
        <ele>1154.4</ele>
        <time>2021-06-03T06:49:17Z</time>
      </trkpt>
      <trkpt lat="41.79716" lon="9.13357">
        <ele>1154.4</ele>
        <time>2021-06-03T06:49:18Z</time>
      </trkpt>
      <trkpt lat="41.79717" lon="9.13359">
        <ele>1154.2</ele>
        <time>2021-06-03T06:49:19Z</time>
      </trkpt>
      <trkpt lat="41.79717" lon="9.13361">
        <ele>1154.4</ele>
        <time>2021-06-03T06:49:20Z</time>
      </trkpt>
      <trkpt lat="41.79717" lon="9.13364">
        <ele>1154.4</ele>
        <time>2021-06-03T06:49:21Z</time>
      </trkpt>
      <trkpt lat="41.79718" lon="9.13366">
        <ele>1154.4</ele>
        <time>2021-06-03T06:49:22Z</time>
      </trkpt>
      <trkpt lat="41.79718" lon="9.13368">
        <ele>1154.4</ele>
        <time>2021-06-03T06:49:23Z</time>
      </trkpt>
      <trkpt lat="41.79718" lon="9.13371">
        <ele>1154.4</ele>
        <time>2021-06-03T06:49:24Z</time>
      </trkpt>
      <trkpt lat="41.79718" lon="9.13373">
        <ele>1154.4</ele>
        <time>2021-06-03T06:49:25Z</time>
      </trkpt>
      <trkpt lat="41.79718" lon="9.13375">
        <ele>1154.4</ele>
        <time>2021-06-03T06:49:26Z</time>
      </trkpt>
      <trkpt lat="41.79718" lon="9.13378">
        <ele>1155.4</ele>
        <time>2021-06-03T06:49:27Z</time>
      </trkpt>
      <trkpt lat="41.79718" lon="9.1338">
        <ele>1155.2</ele>
        <time>2021-06-03T06:49:28Z</time>
      </trkpt>
      <trkpt lat="41.79718" lon="9.13382">
        <ele>1155.2</ele>
        <time>2021-06-03T06:49:29Z</time>
      </trkpt>
      <trkpt lat="41.79719" lon="9.13384">
        <ele>1155.2</ele>
        <time>2021-06-03T06:49:30Z</time>
      </trkpt>
      <trkpt lat="41.79719" lon="9.13386">
        <ele>1155.6</ele>
        <time>2021-06-03T06:49:31Z</time>
      </trkpt>
      <trkpt lat="41.79719" lon="9.13388">
        <ele>1156.2</ele>
        <time>2021-06-03T06:49:32Z</time>
      </trkpt>
      <trkpt lat="41.79719" lon="9.1339">
        <ele>1156.2</ele>
        <time>2021-06-03T06:49:33Z</time>
      </trkpt>
      <trkpt lat="41.79719" lon="9.13392">
        <ele>1156.2</ele>
        <time>2021-06-03T06:49:34Z</time>
      </trkpt>
      <trkpt lat="41.79719" lon="9.13394">
        <ele>1156.2</ele>
        <time>2021-06-03T06:49:35Z</time>
      </trkpt>
      <trkpt lat="41.79719" lon="9.13396">
        <ele>1156.8</ele>
        <time>2021-06-03T06:49:36Z</time>
      </trkpt>
      <trkpt lat="41.79719" lon="9.13397">
        <ele>1156.8</ele>
        <time>2021-06-03T06:49:37Z</time>
      </trkpt>
      <trkpt lat="41.79719" lon="9.13399">
        <ele>1156.8</ele>
        <time>2021-06-03T06:49:38Z</time>
      </trkpt>
      <trkpt lat="41.79719" lon="9.13401">
        <ele>1156.8</ele>
        <time>2021-06-03T06:49:39Z</time>
      </trkpt>
      <trkpt lat="41.79719" lon="9.13403">
        <ele>1157.4</ele>
        <time>2021-06-03T06:49:40Z</time>
      </trkpt>
      <trkpt lat="41.79719" lon="9.13404">
        <ele>1157.4</ele>
        <time>2021-06-03T06:49:41Z</time>
      </trkpt>
      <trkpt lat="41.79719" lon="9.13406">
        <ele>1157.4</ele>
        <time>2021-06-03T06:49:42Z</time>
      </trkpt>
      <trkpt lat="41.79719" lon="9.13408">
        <ele>1157.4</ele>
        <time>2021-06-03T06:49:43Z</time>
      </trkpt>
      <trkpt lat="41.79719" lon="9.1341">
        <ele>1158</ele>
        <time>2021-06-03T06:49:44Z</time>
      </trkpt>
      <trkpt lat="41.79719" lon="9.13411">
        <ele>1158</ele>
        <time>2021-06-03T06:49:45Z</time>
      </trkpt>
      <trkpt lat="41.79719" lon="9.13413">
        <ele>1158</ele>
        <time>2021-06-03T06:49:46Z</time>
      </trkpt>
      <trkpt lat="41.79719" lon="9.13415">
        <ele>1158</ele>
        <time>2021-06-03T06:49:47Z</time>
      </trkpt>
      <trkpt lat="41.79719" lon="9.13416">
        <ele>1158.2</ele>
        <time>2021-06-03T06:49:48Z</time>
      </trkpt>
      <trkpt lat="41.79719" lon="9.13418">
        <ele>1158.2</ele>
        <time>2021-06-03T06:49:49Z</time>
      </trkpt>
      <trkpt lat="41.79719" lon="9.1342">
        <ele>1158.2</ele>
        <time>2021-06-03T06:49:50Z</time>
      </trkpt>
      <trkpt lat="41.79719" lon="9.13421">
        <ele>1158.2</ele>
        <time>2021-06-03T06:49:51Z</time>
      </trkpt>
      <trkpt lat="41.79719" lon="9.13423">
        <ele>1158.8</ele>
        <time>2021-06-03T06:49:52Z</time>
      </trkpt>
      <trkpt lat="41.7972" lon="9.13425">
        <ele>1158.8</ele>
        <time>2021-06-03T06:49:53Z</time>
      </trkpt>
      <trkpt lat="41.7972" lon="9.13426">
        <ele>1158.8</ele>
        <time>2021-06-03T06:49:54Z</time>
      </trkpt>
      <trkpt lat="41.7972" lon="9.13428">
        <ele>1159.4</ele>
        <time>2021-06-03T06:49:55Z</time>
      </trkpt>
      <trkpt lat="41.7972" lon="9.13429">
        <ele>1159.6</ele>
        <time>2021-06-03T06:49:56Z</time>
      </trkpt>
      <trkpt lat="41.7972" lon="9.13431">
        <ele>1159.6</ele>
        <time>2021-06-03T06:49:57Z</time>
      </trkpt>
      <trkpt lat="41.79721" lon="9.13432">
        <ele>1159.6</ele>
        <time>2021-06-03T06:49:58Z</time>
      </trkpt>
      <trkpt lat="41.79721" lon="9.13434">
        <ele>1159.6</ele>
        <time>2021-06-03T06:49:59Z</time>
      </trkpt>
      <trkpt lat="41.79722" lon="9.13436">
        <ele>1159.8</ele>
        <time>2021-06-03T06:50:00Z</time>
      </trkpt>
      <trkpt lat="41.79723" lon="9.13437">
        <ele>1159.8</ele>
        <time>2021-06-03T06:50:01Z</time>
      </trkpt>
      <trkpt lat="41.79723" lon="9.13438">
        <ele>1159.8</ele>
        <time>2021-06-03T06:50:02Z</time>
      </trkpt>
      <trkpt lat="41.79724" lon="9.1344">
        <ele>1160.6</ele>
        <time>2021-06-03T06:50:03Z</time>
      </trkpt>
      <trkpt lat="41.79724" lon="9.13441">
        <ele>1160.6</ele>
        <time>2021-06-03T06:50:04Z</time>
      </trkpt>
      <trkpt lat="41.79725" lon="9.13443">
        <ele>1160.6</ele>
        <time>2021-06-03T06:50:05Z</time>
      </trkpt>
      <trkpt lat="41.79725" lon="9.13445">
        <ele>1160.6</ele>
        <time>2021-06-03T06:50:06Z</time>
      </trkpt>
      <trkpt lat="41.79726" lon="9.13446">
        <ele>1160.6</ele>
        <time>2021-06-03T06:50:07Z</time>
      </trkpt>
      <trkpt lat="41.79726" lon="9.13447">
        <ele>1161</ele>
        <time>2021-06-03T06:50:08Z</time>
      </trkpt>
      <trkpt lat="41.79727" lon="9.13448">
        <ele>1161</ele>
        <time>2021-06-03T06:50:09Z</time>
      </trkpt>
      <trkpt lat="41.79728" lon="9.1345">
        <ele>1161</ele>
        <time>2021-06-03T06:50:10Z</time>
      </trkpt>
      <trkpt lat="41.79729" lon="9.13451">
        <ele>1161.4</ele>
        <time>2021-06-03T06:50:11Z</time>
      </trkpt>
      <trkpt lat="41.7973" lon="9.13452">
        <ele>1161.4</ele>
        <time>2021-06-03T06:50:12Z</time>
      </trkpt>
      <trkpt lat="41.7973" lon="9.13454">
        <ele>1161.4</ele>
        <time>2021-06-03T06:50:13Z</time>
      </trkpt>
      <trkpt lat="41.79731" lon="9.13455">
        <ele>1161.4</ele>
        <time>2021-06-03T06:50:14Z</time>
      </trkpt>
      <trkpt lat="41.79732" lon="9.13455">
        <ele>1161.4</ele>
        <time>2021-06-03T06:50:15Z</time>
      </trkpt>
      <trkpt lat="41.79733" lon="9.13457">
        <ele>1162</ele>
        <time>2021-06-03T06:50:16Z</time>
      </trkpt>
      <trkpt lat="41.79734" lon="9.13458">
        <ele>1162</ele>
        <time>2021-06-03T06:50:17Z</time>
      </trkpt>
      <trkpt lat="41.79735" lon="9.13459">
        <ele>1162</ele>
        <time>2021-06-03T06:50:18Z</time>
      </trkpt>
      <trkpt lat="41.79737" lon="9.13459">
        <ele>1162.2</ele>
        <time>2021-06-03T06:50:19Z</time>
      </trkpt>
      <trkpt lat="41.79738" lon="9.1346">
        <ele>1162.6</ele>
        <time>2021-06-03T06:50:20Z</time>
      </trkpt>
      <trkpt lat="41.79739" lon="9.1346">
        <ele>1162.6</ele>
        <time>2021-06-03T06:50:21Z</time>
      </trkpt>
      <trkpt lat="41.7974" lon="9.13461">
        <ele>1162.6</ele>
        <time>2021-06-03T06:50:22Z</time>
      </trkpt>
      <trkpt lat="41.79742" lon="9.13461">
        <ele>1162.6</ele>
        <time>2021-06-03T06:50:23Z</time>
      </trkpt>
      <trkpt lat="41.79743" lon="9.13461">
        <ele>1163.2</ele>
        <time>2021-06-03T06:50:24Z</time>
      </trkpt>
      <trkpt lat="41.79744" lon="9.13461">
        <ele>1163.2</ele>
        <time>2021-06-03T06:50:25Z</time>
      </trkpt>
      <trkpt lat="41.79745" lon="9.13461">
        <ele>1163.2</ele>
        <time>2021-06-03T06:50:26Z</time>
      </trkpt>
      <trkpt lat="41.79747" lon="9.13461">
        <ele>1163.2</ele>
        <time>2021-06-03T06:50:27Z</time>
      </trkpt>
      <trkpt lat="41.79748" lon="9.13461">
        <ele>1163.4</ele>
        <time>2021-06-03T06:50:28Z</time>
      </trkpt>
      <trkpt lat="41.79749" lon="9.13461">
        <ele>1163.4</ele>
        <time>2021-06-03T06:50:29Z</time>
      </trkpt>
      <trkpt lat="41.7975" lon="9.1346">
        <ele>1163.4</ele>
        <time>2021-06-03T06:50:30Z</time>
      </trkpt>
      <trkpt lat="41.79752" lon="9.1346">
        <ele>1163.4</ele>
        <time>2021-06-03T06:50:31Z</time>
      </trkpt>
      <trkpt lat="41.79753" lon="9.13459">
        <ele>1163.6</ele>
        <time>2021-06-03T06:50:32Z</time>
      </trkpt>
      <trkpt lat="41.79754" lon="9.13459">
        <ele>1163.6</ele>
        <time>2021-06-03T06:50:33Z</time>
      </trkpt>
      <trkpt lat="41.79755" lon="9.13458">
        <ele>1163.6</ele>
        <time>2021-06-03T06:50:34Z</time>
      </trkpt>
      <trkpt lat="41.79756" lon="9.13457">
        <ele>1164.4</ele>
        <time>2021-06-03T06:50:35Z</time>
      </trkpt>
      <trkpt lat="41.79757" lon="9.13457">
        <ele>1164.6</ele>
        <time>2021-06-03T06:50:36Z</time>
      </trkpt>
      <trkpt lat="41.79758" lon="9.13456">
        <ele>1164.6</ele>
        <time>2021-06-03T06:50:37Z</time>
      </trkpt>
      <trkpt lat="41.79759" lon="9.13455">
        <ele>1164.6</ele>
        <time>2021-06-03T06:50:38Z</time>
      </trkpt>
      <trkpt lat="41.7976" lon="9.13455">
        <ele>1165.2</ele>
        <time>2021-06-03T06:50:39Z</time>
      </trkpt>
      <trkpt lat="41.79761" lon="9.13454">
        <ele>1165.4</ele>
        <time>2021-06-03T06:50:40Z</time>
      </trkpt>
      <trkpt lat="41.79761" lon="9.13452">
        <ele>1165.4</ele>
        <time>2021-06-03T06:50:41Z</time>
      </trkpt>
      <trkpt lat="41.79762" lon="9.13451">
        <ele>1165.4</ele>
        <time>2021-06-03T06:50:42Z</time>
      </trkpt>
      <trkpt lat="41.79762" lon="9.13449">
        <ele>1166</ele>
        <time>2021-06-03T06:50:43Z</time>
      </trkpt>
      <trkpt lat="41.79763" lon="9.13448">
        <ele>1166</ele>
        <time>2021-06-03T06:50:44Z</time>
      </trkpt>
      <trkpt lat="41.79763" lon="9.13446">
        <ele>1166</ele>
        <time>2021-06-03T06:50:45Z</time>
      </trkpt>
      <trkpt lat="41.79764" lon="9.13445">
        <ele>1166</ele>
        <time>2021-06-03T06:50:46Z</time>
      </trkpt>
      <trkpt lat="41.79764" lon="9.13443">
        <ele>1166.2</ele>
        <time>2021-06-03T06:50:47Z</time>
      </trkpt>
      <trkpt lat="41.79764" lon="9.13442">
        <ele>1166.4</ele>
        <time>2021-06-03T06:50:48Z</time>
      </trkpt>
      <trkpt lat="41.79765" lon="9.1344">
        <ele>1166.4</ele>
        <time>2021-06-03T06:50:49Z</time>
      </trkpt>
      <trkpt lat="41.79765" lon="9.13439">
        <ele>1166.4</ele>
        <time>2021-06-03T06:50:50Z</time>
      </trkpt>
      <trkpt lat="41.79766" lon="9.13437">
        <ele>1166.4</ele>
        <time>2021-06-03T06:50:51Z</time>
      </trkpt>
      <trkpt lat="41.79766" lon="9.13436">
        <ele>1166.6</ele>
        <time>2021-06-03T06:50:52Z</time>
      </trkpt>
      <trkpt lat="41.79767" lon="9.13435">
        <ele>1166.6</ele>
        <time>2021-06-03T06:50:53Z</time>
      </trkpt>
      <trkpt lat="41.79767" lon="9.13433">
        <ele>1166.6</ele>
        <time>2021-06-03T06:50:54Z</time>
      </trkpt>
      <trkpt lat="41.79767" lon="9.13431">
        <ele>1167.2</ele>
        <time>2021-06-03T06:50:55Z</time>
      </trkpt>
      <trkpt lat="41.79767" lon="9.1343">
        <ele>1167</ele>
        <time>2021-06-03T06:50:56Z</time>
      </trkpt>
      <trkpt lat="41.79768" lon="9.13428">
        <ele>1167</ele>
        <time>2021-06-03T06:50:57Z</time>
      </trkpt>
      <trkpt lat="41.79768" lon="9.13427">
        <ele>1167</ele>
        <time>2021-06-03T06:50:58Z</time>
      </trkpt>
      <trkpt lat="41.79768" lon="9.13425">
        <ele>1167.6</ele>
        <time>2021-06-03T06:50:59Z</time>
      </trkpt>
      <trkpt lat="41.79768" lon="9.13424">
        <ele>1167.8</ele>
        <time>2021-06-03T06:51:00Z</time>
      </trkpt>
      <trkpt lat="41.79768" lon="9.13422">
        <ele>1167.8</ele>
        <time>2021-06-03T06:51:01Z</time>
      </trkpt>
      <trkpt lat="41.79768" lon="9.13421">
        <ele>1167.8</ele>
        <time>2021-06-03T06:51:02Z</time>
      </trkpt>
      <trkpt lat="41.79769" lon="9.13419">
        <ele>1168.2</ele>
        <time>2021-06-03T06:51:03Z</time>
      </trkpt>
      <trkpt lat="41.79769" lon="9.13418">
        <ele>1168.4</ele>
        <time>2021-06-03T06:51:04Z</time>
      </trkpt>
      <trkpt lat="41.7977" lon="9.13416">
        <ele>1168.4</ele>
        <time>2021-06-03T06:51:05Z</time>
      </trkpt>
      <trkpt lat="41.7977" lon="9.13414">
        <ele>1168.4</ele>
        <time>2021-06-03T06:51:06Z</time>
      </trkpt>
      <trkpt lat="41.7977" lon="9.13413">
        <ele>1169</ele>
        <time>2021-06-03T06:51:07Z</time>
      </trkpt>
      <trkpt lat="41.7977" lon="9.13411">
        <ele>1169.2</ele>
        <time>2021-06-03T06:51:08Z</time>
      </trkpt>
      <trkpt lat="41.79771" lon="9.1341">
        <ele>1169.2</ele>
        <time>2021-06-03T06:51:09Z</time>
      </trkpt>
      <trkpt lat="41.79771" lon="9.13408">
        <ele>1169.2</ele>
        <time>2021-06-03T06:51:10Z</time>
      </trkpt>
      <trkpt lat="41.79771" lon="9.13407">
        <ele>1170</ele>
        <time>2021-06-03T06:51:11Z</time>
      </trkpt>
      <trkpt lat="41.79772" lon="9.13405">
        <ele>1170</ele>
        <time>2021-06-03T06:51:12Z</time>
      </trkpt>
      <trkpt lat="41.79772" lon="9.13403">
        <ele>1170</ele>
        <time>2021-06-03T06:51:13Z</time>
      </trkpt>
      <trkpt lat="41.79772" lon="9.13402">
        <ele>1170</ele>
        <time>2021-06-03T06:51:14Z</time>
      </trkpt>
      <trkpt lat="41.79773" lon="9.134">
        <ele>1170.4</ele>
        <time>2021-06-03T06:51:15Z</time>
      </trkpt>
      <trkpt lat="41.79773" lon="9.13399">
        <ele>1170.6</ele>
        <time>2021-06-03T06:51:16Z</time>
      </trkpt>
      <trkpt lat="41.79773" lon="9.13397">
        <ele>1170.6</ele>
        <time>2021-06-03T06:51:17Z</time>
      </trkpt>
      <trkpt lat="41.79774" lon="9.13395">
        <ele>1170.6</ele>
        <time>2021-06-03T06:51:18Z</time>
      </trkpt>
      <trkpt lat="41.79774" lon="9.13394">
        <ele>1170.2</ele>
        <time>2021-06-03T06:51:19Z</time>
      </trkpt>
      <trkpt lat="41.79775" lon="9.13393">
        <ele>1170.6</ele>
        <time>2021-06-03T06:51:20Z</time>
      </trkpt>
      <trkpt lat="41.79777" lon="9.13393">
        <ele>1170.6</ele>
        <time>2021-06-03T06:51:21Z</time>
      </trkpt>
      <trkpt lat="41.79778" lon="9.13392">
        <ele>1170.6</ele>
        <time>2021-06-03T06:51:22Z</time>
      </trkpt>
      <trkpt lat="41.79779" lon="9.13392">
        <ele>1170.6</ele>
        <time>2021-06-03T06:51:23Z</time>
      </trkpt>
      <trkpt lat="41.7978" lon="9.13392">
        <ele>1170.6</ele>
        <time>2021-06-03T06:51:24Z</time>
      </trkpt>
      <trkpt lat="41.79782" lon="9.13392">
        <ele>1170.6</ele>
        <time>2021-06-03T06:51:25Z</time>
      </trkpt>
      <trkpt lat="41.79783" lon="9.13392">
        <ele>1170.6</ele>
        <time>2021-06-03T06:51:26Z</time>
      </trkpt>
      <trkpt lat="41.79784" lon="9.13393">
        <ele>1171.4</ele>
        <time>2021-06-03T06:51:27Z</time>
      </trkpt>
      <trkpt lat="41.79785" lon="9.13394">
        <ele>1171.6</ele>
        <time>2021-06-03T06:51:28Z</time>
      </trkpt>
      <trkpt lat="41.79786" lon="9.13395">
        <ele>1171.6</ele>
        <time>2021-06-03T06:51:29Z</time>
      </trkpt>
      <trkpt lat="41.79787" lon="9.13396">
        <ele>1171.6</ele>
        <time>2021-06-03T06:51:30Z</time>
      </trkpt>
      <trkpt lat="41.79788" lon="9.13398">
        <ele>1171.6</ele>
        <time>2021-06-03T06:51:31Z</time>
      </trkpt>
      <trkpt lat="41.79788" lon="9.13399">
        <ele>1172</ele>
        <time>2021-06-03T06:51:32Z</time>
      </trkpt>
      <trkpt lat="41.79789" lon="9.134">
        <ele>1172</ele>
        <time>2021-06-03T06:51:33Z</time>
      </trkpt>
      <trkpt lat="41.79789" lon="9.13402">
        <ele>1172</ele>
        <time>2021-06-03T06:51:34Z</time>
      </trkpt>
      <trkpt lat="41.7979" lon="9.13403">
        <ele>1172.2</ele>
        <time>2021-06-03T06:51:35Z</time>
      </trkpt>
      <trkpt lat="41.7979" lon="9.13404">
        <ele>1172.4</ele>
        <time>2021-06-03T06:51:36Z</time>
      </trkpt>
      <trkpt lat="41.79791" lon="9.13406">
        <ele>1172.4</ele>
        <time>2021-06-03T06:51:37Z</time>
      </trkpt>
      <trkpt lat="41.79792" lon="9.13407">
        <ele>1172.4</ele>
        <time>2021-06-03T06:51:38Z</time>
      </trkpt>
      <trkpt lat="41.79792" lon="9.13408">
        <ele>1172.4</ele>
        <time>2021-06-03T06:51:39Z</time>
      </trkpt>
      <trkpt lat="41.79793" lon="9.1341">
        <ele>1172.8</ele>
        <time>2021-06-03T06:51:40Z</time>
      </trkpt>
      <trkpt lat="41.79794" lon="9.13411">
        <ele>1172.8</ele>
        <time>2021-06-03T06:51:41Z</time>
      </trkpt>
      <trkpt lat="41.79794" lon="9.13412">
        <ele>1172.8</ele>
        <time>2021-06-03T06:51:42Z</time>
      </trkpt>
      <trkpt lat="41.79795" lon="9.13414">
        <ele>1173</ele>
        <time>2021-06-03T06:51:43Z</time>
      </trkpt>
      <trkpt lat="41.79796" lon="9.13415">
        <ele>1173.4</ele>
        <time>2021-06-03T06:51:44Z</time>
      </trkpt>
      <trkpt lat="41.79796" lon="9.13416">
        <ele>1173.4</ele>
        <time>2021-06-03T06:51:45Z</time>
      </trkpt>
      <trkpt lat="41.79797" lon="9.13418">
        <ele>1173.4</ele>
        <time>2021-06-03T06:51:46Z</time>
      </trkpt>
      <trkpt lat="41.79798" lon="9.13419">
        <ele>1173.4</ele>
        <time>2021-06-03T06:51:47Z</time>
      </trkpt>
      <trkpt lat="41.79798" lon="9.13421">
        <ele>1174</ele>
        <time>2021-06-03T06:51:48Z</time>
      </trkpt>
      <trkpt lat="41.79799" lon="9.13422">
        <ele>1174</ele>
        <time>2021-06-03T06:51:49Z</time>
      </trkpt>
      <trkpt lat="41.79799" lon="9.13423">
        <ele>1174</ele>
        <time>2021-06-03T06:51:50Z</time>
      </trkpt>
      <trkpt lat="41.798" lon="9.13424">
        <ele>1173.8</ele>
        <time>2021-06-03T06:51:51Z</time>
      </trkpt>
      <trkpt lat="41.79801" lon="9.13426">
        <ele>1174.2</ele>
        <time>2021-06-03T06:51:52Z</time>
      </trkpt>
      <trkpt lat="41.79802" lon="9.13427">
        <ele>1174.2</ele>
        <time>2021-06-03T06:51:53Z</time>
      </trkpt>
      <trkpt lat="41.79803" lon="9.13428">
        <ele>1174.2</ele>
        <time>2021-06-03T06:51:54Z</time>
      </trkpt>
      <trkpt lat="41.79803" lon="9.13429">
        <ele>1174.8</ele>
        <time>2021-06-03T06:51:55Z</time>
      </trkpt>
      <trkpt lat="41.79804" lon="9.1343">
        <ele>1174.4</ele>
        <time>2021-06-03T06:51:56Z</time>
      </trkpt>
      <trkpt lat="41.79805" lon="9.13431">
        <ele>1174.4</ele>
        <time>2021-06-03T06:51:57Z</time>
      </trkpt>
      <trkpt lat="41.79806" lon="9.13432">
        <ele>1174.4</ele>
        <time>2021-06-03T06:51:58Z</time>
      </trkpt>
      <trkpt lat="41.79807" lon="9.13433">
        <ele>1175.2</ele>
        <time>2021-06-03T06:51:59Z</time>
      </trkpt>
      <trkpt lat="41.79808" lon="9.13434">
        <ele>1175.4</ele>
        <time>2021-06-03T06:52:00Z</time>
      </trkpt>
      <trkpt lat="41.79808" lon="9.13435">
        <ele>1175.4</ele>
        <time>2021-06-03T06:52:01Z</time>
      </trkpt>
      <trkpt lat="41.79809" lon="9.13436">
        <ele>1175.4</ele>
        <time>2021-06-03T06:52:02Z</time>
      </trkpt>
      <trkpt lat="41.7981" lon="9.13437">
        <ele>1175.4</ele>
        <time>2021-06-03T06:52:03Z</time>
      </trkpt>
      <trkpt lat="41.79811" lon="9.13439">
        <ele>1175.6</ele>
        <time>2021-06-03T06:52:04Z</time>
      </trkpt>
      <trkpt lat="41.79811" lon="9.1344">
        <ele>1175.6</ele>
        <time>2021-06-03T06:52:05Z</time>
      </trkpt>
      <trkpt lat="41.79812" lon="9.13441">
        <ele>1175.6</ele>
        <time>2021-06-03T06:52:06Z</time>
      </trkpt>
      <trkpt lat="41.79813" lon="9.13442">
        <ele>1175.6</ele>
        <time>2021-06-03T06:52:07Z</time>
      </trkpt>
      <trkpt lat="41.79814" lon="9.13442">
        <ele>1176.4</ele>
        <time>2021-06-03T06:52:08Z</time>
      </trkpt>
      <trkpt lat="41.79815" lon="9.13443">
        <ele>1176.4</ele>
        <time>2021-06-03T06:52:09Z</time>
      </trkpt>
      <trkpt lat="41.79816" lon="9.13443">
        <ele>1176.4</ele>
        <time>2021-06-03T06:52:10Z</time>
      </trkpt>
      <trkpt lat="41.79817" lon="9.13443">
        <ele>1177.2</ele>
        <time>2021-06-03T06:52:11Z</time>
      </trkpt>
      <trkpt lat="41.79818" lon="9.13444">
        <ele>1176.6</ele>
        <time>2021-06-03T06:52:12Z</time>
      </trkpt>
      <trkpt lat="41.7982" lon="9.13444">
        <ele>1176.6</ele>
        <time>2021-06-03T06:52:13Z</time>
      </trkpt>
      <trkpt lat="41.79821" lon="9.13445">
        <ele>1176.6</ele>
        <time>2021-06-03T06:52:14Z</time>
      </trkpt>
      <trkpt lat="41.79822" lon="9.13445">
        <ele>1177.2</ele>
        <time>2021-06-03T06:52:15Z</time>
      </trkpt>
      <trkpt lat="41.79823" lon="9.13445">
        <ele>1177</ele>
        <time>2021-06-03T06:52:16Z</time>
      </trkpt>
      <trkpt lat="41.79824" lon="9.13445">
        <ele>1177</ele>
        <time>2021-06-03T06:52:17Z</time>
      </trkpt>
      <trkpt lat="41.79825" lon="9.13445">
        <ele>1177</ele>
        <time>2021-06-03T06:52:18Z</time>
      </trkpt>
      <trkpt lat="41.79827" lon="9.13445">
        <ele>1178</ele>
        <time>2021-06-03T06:52:19Z</time>
      </trkpt>
      <trkpt lat="41.79828" lon="9.13445">
        <ele>1177.8</ele>
        <time>2021-06-03T06:52:20Z</time>
      </trkpt>
      <trkpt lat="41.79829" lon="9.13444">
        <ele>1177.8</ele>
        <time>2021-06-03T06:52:21Z</time>
      </trkpt>
      <trkpt lat="41.7983" lon="9.13444">
        <ele>1177.8</ele>
        <time>2021-06-03T06:52:22Z</time>
      </trkpt>
      <trkpt lat="41.79831" lon="9.13445">
        <ele>1178.4</ele>
        <time>2021-06-03T06:52:23Z</time>
      </trkpt>
      <trkpt lat="41.79832" lon="9.13445">
        <ele>1178</ele>
        <time>2021-06-03T06:52:24Z</time>
      </trkpt>
      <trkpt lat="41.79833" lon="9.13444">
        <ele>1178</ele>
        <time>2021-06-03T06:52:25Z</time>
      </trkpt>
      <trkpt lat="41.79834" lon="9.13444">
        <ele>1178</ele>
        <time>2021-06-03T06:52:26Z</time>
      </trkpt>
      <trkpt lat="41.79836" lon="9.13444">
        <ele>1178.8</ele>
        <time>2021-06-03T06:52:27Z</time>
      </trkpt>
      <trkpt lat="41.79837" lon="9.13444">
        <ele>1178.8</ele>
        <time>2021-06-03T06:52:28Z</time>
      </trkpt>
      <trkpt lat="41.79838" lon="9.13444">
        <ele>1178.8</ele>
        <time>2021-06-03T06:52:29Z</time>
      </trkpt>
      <trkpt lat="41.79839" lon="9.13444">
        <ele>1178.8</ele>
        <time>2021-06-03T06:52:30Z</time>
      </trkpt>
      <trkpt lat="41.7984" lon="9.13444">
        <ele>1179</ele>
        <time>2021-06-03T06:52:31Z</time>
      </trkpt>
      <trkpt lat="41.79841" lon="9.13444">
        <ele>1179.4</ele>
        <time>2021-06-03T06:52:32Z</time>
      </trkpt>
      <trkpt lat="41.79842" lon="9.13444">
        <ele>1179.4</ele>
        <time>2021-06-03T06:52:33Z</time>
      </trkpt>
      <trkpt lat="41.79844" lon="9.13444">
        <ele>1179.4</ele>
        <time>2021-06-03T06:52:34Z</time>
      </trkpt>
      <trkpt lat="41.79845" lon="9.13444">
        <ele>1179.8</ele>
        <time>2021-06-03T06:52:35Z</time>
      </trkpt>
      <trkpt lat="41.79846" lon="9.13443">
        <ele>1179.8</ele>
        <time>2021-06-03T06:52:36Z</time>
      </trkpt>
      <trkpt lat="41.79847" lon="9.13443">
        <ele>1179.8</ele>
        <time>2021-06-03T06:52:37Z</time>
      </trkpt>
      <trkpt lat="41.79848" lon="9.13443">
        <ele>1179.8</ele>
        <time>2021-06-03T06:52:38Z</time>
      </trkpt>
      <trkpt lat="41.79849" lon="9.13443">
        <ele>1180.6</ele>
        <time>2021-06-03T06:52:39Z</time>
      </trkpt>
      <trkpt lat="41.7985" lon="9.13443">
        <ele>1180.8</ele>
        <time>2021-06-03T06:52:40Z</time>
      </trkpt>
      <trkpt lat="41.79851" lon="9.13443">
        <ele>1180.8</ele>
        <time>2021-06-03T06:52:41Z</time>
      </trkpt>
      <trkpt lat="41.79852" lon="9.13443">
        <ele>1180.8</ele>
        <time>2021-06-03T06:52:42Z</time>
      </trkpt>
      <trkpt lat="41.79854" lon="9.13443">
        <ele>1180.8</ele>
        <time>2021-06-03T06:52:43Z</time>
      </trkpt>
      <trkpt lat="41.79855" lon="9.13443">
        <ele>1180.8</ele>
        <time>2021-06-03T06:52:44Z</time>
      </trkpt>
      <trkpt lat="41.79856" lon="9.13443">
        <ele>1180.8</ele>
        <time>2021-06-03T06:52:45Z</time>
      </trkpt>
      <trkpt lat="41.79857" lon="9.13443">
        <ele>1180.8</ele>
        <time>2021-06-03T06:52:46Z</time>
      </trkpt>
      <trkpt lat="41.79858" lon="9.13443">
        <ele>1181.6</ele>
        <time>2021-06-03T06:52:47Z</time>
      </trkpt>
      <trkpt lat="41.79859" lon="9.13444">
        <ele>1181.8</ele>
        <time>2021-06-03T06:52:48Z</time>
      </trkpt>
      <trkpt lat="41.79861" lon="9.13444">
        <ele>1181.8</ele>
        <time>2021-06-03T06:52:49Z</time>
      </trkpt>
      <trkpt lat="41.79862" lon="9.13445">
        <ele>1181.8</ele>
        <time>2021-06-03T06:52:50Z</time>
      </trkpt>
      <trkpt lat="41.79863" lon="9.13445">
        <ele>1181.8</ele>
        <time>2021-06-03T06:52:51Z</time>
      </trkpt>
      <trkpt lat="41.79864" lon="9.13446">
        <ele>1182.2</ele>
        <time>2021-06-03T06:52:52Z</time>
      </trkpt>
      <trkpt lat="41.79865" lon="9.13447">
        <ele>1182.2</ele>
        <time>2021-06-03T06:52:53Z</time>
      </trkpt>
      <trkpt lat="41.79866" lon="9.13448">
        <ele>1182.2</ele>
        <time>2021-06-03T06:52:54Z</time>
      </trkpt>
      <trkpt lat="41.79867" lon="9.13448">
        <ele>1182.2</ele>
        <time>2021-06-03T06:52:55Z</time>
      </trkpt>
      <trkpt lat="41.79868" lon="9.13449">
        <ele>1182.2</ele>
        <time>2021-06-03T06:52:56Z</time>
      </trkpt>
      <trkpt lat="41.79869" lon="9.1345">
        <ele>1182.2</ele>
        <time>2021-06-03T06:52:57Z</time>
      </trkpt>
      <trkpt lat="41.7987" lon="9.13451">
        <ele>1182.2</ele>
        <time>2021-06-03T06:52:58Z</time>
      </trkpt>
      <trkpt lat="41.79871" lon="9.13451">
        <ele>1183</ele>
        <time>2021-06-03T06:52:59Z</time>
      </trkpt>
      <trkpt lat="41.79872" lon="9.13453">
        <ele>1183.4</ele>
        <time>2021-06-03T06:53:00Z</time>
      </trkpt>
      <trkpt lat="41.79872" lon="9.13454">
        <ele>1183.4</ele>
        <time>2021-06-03T06:53:01Z</time>
      </trkpt>
      <trkpt lat="41.79873" lon="9.13455">
        <ele>1183.4</ele>
        <time>2021-06-03T06:53:02Z</time>
      </trkpt>
      <trkpt lat="41.79874" lon="9.13456">
        <ele>1183.6</ele>
        <time>2021-06-03T06:53:03Z</time>
      </trkpt>
      <trkpt lat="41.79875" lon="9.13457">
        <ele>1183.6</ele>
        <time>2021-06-03T06:53:04Z</time>
      </trkpt>
      <trkpt lat="41.79876" lon="9.13458">
        <ele>1183.6</ele>
        <time>2021-06-03T06:53:05Z</time>
      </trkpt>
      <trkpt lat="41.79878" lon="9.13459">
        <ele>1183.6</ele>
        <time>2021-06-03T06:53:06Z</time>
      </trkpt>
      <trkpt lat="41.79879" lon="9.13459">
        <ele>1184.2</ele>
        <time>2021-06-03T06:53:07Z</time>
      </trkpt>
      <trkpt lat="41.7988" lon="9.13461">
        <ele>1184</ele>
        <time>2021-06-03T06:53:08Z</time>
      </trkpt>
      <trkpt lat="41.79881" lon="9.13462">
        <ele>1184</ele>
        <time>2021-06-03T06:53:09Z</time>
      </trkpt>
      <trkpt lat="41.79882" lon="9.13463">
        <ele>1184</ele>
        <time>2021-06-03T06:53:10Z</time>
      </trkpt>
      <trkpt lat="41.79882" lon="9.13464">
        <ele>1184.6</ele>
        <time>2021-06-03T06:53:11Z</time>
      </trkpt>
      <trkpt lat="41.79884" lon="9.13465">
        <ele>1184.6</ele>
        <time>2021-06-03T06:53:12Z</time>
      </trkpt>
      <trkpt lat="41.79885" lon="9.13466">
        <ele>1184.6</ele>
        <time>2021-06-03T06:53:13Z</time>
      </trkpt>
      <trkpt lat="41.79886" lon="9.13467">
        <ele>1184.6</ele>
        <time>2021-06-03T06:53:14Z</time>
      </trkpt>
      <trkpt lat="41.79887" lon="9.13469">
        <ele>1185</ele>
        <time>2021-06-03T06:53:15Z</time>
      </trkpt>
      <trkpt lat="41.79888" lon="9.1347">
        <ele>1185.2</ele>
        <time>2021-06-03T06:53:16Z</time>
      </trkpt>
      <trkpt lat="41.79889" lon="9.13472">
        <ele>1185.2</ele>
        <time>2021-06-03T06:53:17Z</time>
      </trkpt>
      <trkpt lat="41.7989" lon="9.13473">
        <ele>1185.2</ele>
        <time>2021-06-03T06:53:18Z</time>
      </trkpt>
      <trkpt lat="41.79891" lon="9.13475">
        <ele>1185.2</ele>
        <time>2021-06-03T06:53:19Z</time>
      </trkpt>
      <trkpt lat="41.79892" lon="9.13477">
        <ele>1184.8</ele>
        <time>2021-06-03T06:53:20Z</time>
      </trkpt>
      <trkpt lat="41.79893" lon="9.13479">
        <ele>1184.8</ele>
        <time>2021-06-03T06:53:21Z</time>
      </trkpt>
      <trkpt lat="41.79893" lon="9.13482">
        <ele>1184.8</ele>
        <time>2021-06-03T06:53:22Z</time>
      </trkpt>
      <trkpt lat="41.79894" lon="9.13484">
        <ele>1185.4</ele>
        <time>2021-06-03T06:53:23Z</time>
      </trkpt>
      <trkpt lat="41.79894" lon="9.13486">
        <ele>1185</ele>
        <time>2021-06-03T06:53:24Z</time>
      </trkpt>
      <trkpt lat="41.79894" lon="9.13488">
        <ele>1185</ele>
        <time>2021-06-03T06:53:25Z</time>
      </trkpt>
      <trkpt lat="41.79894" lon="9.1349">
        <ele>1185</ele>
        <time>2021-06-03T06:53:26Z</time>
      </trkpt>
      <trkpt lat="41.79894" lon="9.13492">
        <ele>1185</ele>
        <time>2021-06-03T06:53:27Z</time>
      </trkpt>
      <trkpt lat="41.79895" lon="9.13494">
        <ele>1185.4</ele>
        <time>2021-06-03T06:53:28Z</time>
      </trkpt>
      <trkpt lat="41.79894" lon="9.13497">
        <ele>1185.4</ele>
        <time>2021-06-03T06:53:29Z</time>
      </trkpt>
      <trkpt lat="41.79894" lon="9.13499">
        <ele>1185.4</ele>
        <time>2021-06-03T06:53:30Z</time>
      </trkpt>
      <trkpt lat="41.79894" lon="9.13501">
        <ele>1185.8</ele>
        <time>2021-06-03T06:53:31Z</time>
      </trkpt>
      <trkpt lat="41.79894" lon="9.13503">
        <ele>1185.8</ele>
        <time>2021-06-03T06:53:32Z</time>
      </trkpt>
      <trkpt lat="41.79893" lon="9.13505">
        <ele>1185.8</ele>
        <time>2021-06-03T06:53:33Z</time>
      </trkpt>
      <trkpt lat="41.79893" lon="9.13507">
        <ele>1185.8</ele>
        <time>2021-06-03T06:53:34Z</time>
      </trkpt>
      <trkpt lat="41.79893" lon="9.13509">
        <ele>1185.8</ele>
        <time>2021-06-03T06:53:35Z</time>
      </trkpt>
      <trkpt lat="41.79893" lon="9.13512">
        <ele>1186.2</ele>
        <time>2021-06-03T06:53:36Z</time>
      </trkpt>
      <trkpt lat="41.79892" lon="9.13514">
        <ele>1186.2</ele>
        <time>2021-06-03T06:53:37Z</time>
      </trkpt>
      <trkpt lat="41.79892" lon="9.13516">
        <ele>1186.2</ele>
        <time>2021-06-03T06:53:38Z</time>
      </trkpt>
      <trkpt lat="41.79892" lon="9.13518">
        <ele>1186.2</ele>
        <time>2021-06-03T06:53:39Z</time>
      </trkpt>
      <trkpt lat="41.79891" lon="9.13521">
        <ele>1186.2</ele>
        <time>2021-06-03T06:53:40Z</time>
      </trkpt>
      <trkpt lat="41.79891" lon="9.13523">
        <ele>1186.2</ele>
        <time>2021-06-03T06:53:41Z</time>
      </trkpt>
      <trkpt lat="41.79891" lon="9.13526">
        <ele>1186.2</ele>
        <time>2021-06-03T06:53:42Z</time>
      </trkpt>
      <trkpt lat="41.7989" lon="9.13529">
        <ele>1186.2</ele>
        <time>2021-06-03T06:53:43Z</time>
      </trkpt>
      <trkpt lat="41.7989" lon="9.13532">
        <ele>1186.2</ele>
        <time>2021-06-03T06:53:44Z</time>
      </trkpt>
      <trkpt lat="41.79889" lon="9.13535">
        <ele>1186.2</ele>
        <time>2021-06-03T06:53:45Z</time>
      </trkpt>
      <trkpt lat="41.79889" lon="9.13537">
        <ele>1186.2</ele>
        <time>2021-06-03T06:53:46Z</time>
      </trkpt>
      <trkpt lat="41.79889" lon="9.1354">
        <ele>1186.2</ele>
        <time>2021-06-03T06:53:47Z</time>
      </trkpt>
      <trkpt lat="41.79889" lon="9.13543">
        <ele>1186.4</ele>
        <time>2021-06-03T06:53:48Z</time>
      </trkpt>
      <trkpt lat="41.79888" lon="9.13546">
        <ele>1186.4</ele>
        <time>2021-06-03T06:53:49Z</time>
      </trkpt>
      <trkpt lat="41.79888" lon="9.13549">
        <ele>1186.4</ele>
        <time>2021-06-03T06:53:50Z</time>
      </trkpt>
      <trkpt lat="41.79888" lon="9.13552">
        <ele>1186.4</ele>
        <time>2021-06-03T06:53:51Z</time>
      </trkpt>
      <trkpt lat="41.79887" lon="9.13555">
        <ele>1186.2</ele>
        <time>2021-06-03T06:53:52Z</time>
      </trkpt>
      <trkpt lat="41.79887" lon="9.13558">
        <ele>1186.2</ele>
        <time>2021-06-03T06:53:53Z</time>
      </trkpt>
      <trkpt lat="41.79887" lon="9.13561">
        <ele>1186.2</ele>
        <time>2021-06-03T06:53:54Z</time>
      </trkpt>
      <trkpt lat="41.79886" lon="9.13564">
        <ele>1186.2</ele>
        <time>2021-06-03T06:53:55Z</time>
      </trkpt>
      <trkpt lat="41.79885" lon="9.13566">
        <ele>1186.8</ele>
        <time>2021-06-03T06:53:56Z</time>
      </trkpt>
      <trkpt lat="41.79885" lon="9.13569">
        <ele>1186.8</ele>
        <time>2021-06-03T06:53:57Z</time>
      </trkpt>
      <trkpt lat="41.79884" lon="9.13571">
        <ele>1186.8</ele>
        <time>2021-06-03T06:53:58Z</time>
      </trkpt>
      <trkpt lat="41.79883" lon="9.13574">
        <ele>1186.8</ele>
        <time>2021-06-03T06:53:59Z</time>
      </trkpt>
      <trkpt lat="41.79883" lon="9.13576">
        <ele>1187.4</ele>
        <time>2021-06-03T06:54:00Z</time>
      </trkpt>
      <trkpt lat="41.79882" lon="9.13578">
        <ele>1187.4</ele>
        <time>2021-06-03T06:54:01Z</time>
      </trkpt>
      <trkpt lat="41.79882" lon="9.13581">
        <ele>1187.4</ele>
        <time>2021-06-03T06:54:02Z</time>
      </trkpt>
      <trkpt lat="41.79882" lon="9.13583">
        <ele>1187.4</ele>
        <time>2021-06-03T06:54:03Z</time>
      </trkpt>
      <trkpt lat="41.79881" lon="9.13585">
        <ele>1187</ele>
        <time>2021-06-03T06:54:04Z</time>
      </trkpt>
      <trkpt lat="41.79881" lon="9.13588">
        <ele>1187</ele>
        <time>2021-06-03T06:54:05Z</time>
      </trkpt>
      <trkpt lat="41.7988" lon="9.1359">
        <ele>1187</ele>
        <time>2021-06-03T06:54:06Z</time>
      </trkpt>
      <trkpt lat="41.7988" lon="9.13592">
        <ele>1187.4</ele>
        <time>2021-06-03T06:54:07Z</time>
      </trkpt>
      <trkpt lat="41.7988" lon="9.13595">
        <ele>1187.4</ele>
        <time>2021-06-03T06:54:08Z</time>
      </trkpt>
      <trkpt lat="41.7988" lon="9.13597">
        <ele>1187.4</ele>
        <time>2021-06-03T06:54:09Z</time>
      </trkpt>
      <trkpt lat="41.79881" lon="9.13599">
        <ele>1187.4</ele>
        <time>2021-06-03T06:54:10Z</time>
      </trkpt>
      <trkpt lat="41.79881" lon="9.13602">
        <ele>1188</ele>
        <time>2021-06-03T06:54:11Z</time>
      </trkpt>
      <trkpt lat="41.79881" lon="9.13604">
        <ele>1188.2</ele>
        <time>2021-06-03T06:54:12Z</time>
      </trkpt>
      <trkpt lat="41.79881" lon="9.13606">
        <ele>1188.2</ele>
        <time>2021-06-03T06:54:13Z</time>
      </trkpt>
      <trkpt lat="41.79881" lon="9.13608">
        <ele>1188.2</ele>
        <time>2021-06-03T06:54:14Z</time>
      </trkpt>
      <trkpt lat="41.79882" lon="9.1361">
        <ele>1188.2</ele>
        <time>2021-06-03T06:54:15Z</time>
      </trkpt>
      <trkpt lat="41.79882" lon="9.13612">
        <ele>1189</ele>
        <time>2021-06-03T06:54:16Z</time>
      </trkpt>
      <trkpt lat="41.79883" lon="9.13614">
        <ele>1189</ele>
        <time>2021-06-03T06:54:17Z</time>
      </trkpt>
      <trkpt lat="41.79884" lon="9.13616">
        <ele>1189</ele>
        <time>2021-06-03T06:54:18Z</time>
      </trkpt>
      <trkpt lat="41.79884" lon="9.13619">
        <ele>1189</ele>
        <time>2021-06-03T06:54:19Z</time>
      </trkpt>
      <trkpt lat="41.79885" lon="9.13621">
        <ele>1189</ele>
        <time>2021-06-03T06:54:20Z</time>
      </trkpt>
      <trkpt lat="41.79885" lon="9.13623">
        <ele>1189</ele>
        <time>2021-06-03T06:54:21Z</time>
      </trkpt>
      <trkpt lat="41.79886" lon="9.13625">
        <ele>1189</ele>
        <time>2021-06-03T06:54:22Z</time>
      </trkpt>
      <trkpt lat="41.79886" lon="9.13627">
        <ele>1189</ele>
        <time>2021-06-03T06:54:23Z</time>
      </trkpt>
      <trkpt lat="41.79887" lon="9.13629">
        <ele>1189.8</ele>
        <time>2021-06-03T06:54:24Z</time>
      </trkpt>
      <trkpt lat="41.79888" lon="9.13631">
        <ele>1189.8</ele>
        <time>2021-06-03T06:54:25Z</time>
      </trkpt>
      <trkpt lat="41.79889" lon="9.13633">
        <ele>1189.8</ele>
        <time>2021-06-03T06:54:26Z</time>
      </trkpt>
      <trkpt lat="41.79889" lon="9.13636">
        <ele>1189.8</ele>
        <time>2021-06-03T06:54:27Z</time>
      </trkpt>
      <trkpt lat="41.7989" lon="9.13638">
        <ele>1189.8</ele>
        <time>2021-06-03T06:54:28Z</time>
      </trkpt>
      <trkpt lat="41.79891" lon="9.1364">
        <ele>1189.6</ele>
        <time>2021-06-03T06:54:29Z</time>
      </trkpt>
      <trkpt lat="41.79892" lon="9.13642">
        <ele>1189.6</ele>
        <time>2021-06-03T06:54:30Z</time>
      </trkpt>
      <trkpt lat="41.79892" lon="9.13644">
        <ele>1190</ele>
        <time>2021-06-03T06:54:31Z</time>
      </trkpt>
      <trkpt lat="41.79893" lon="9.13646">
        <ele>1190.2</ele>
        <time>2021-06-03T06:54:32Z</time>
      </trkpt>
      <trkpt lat="41.79894" lon="9.13648">
        <ele>1190.2</ele>
        <time>2021-06-03T06:54:33Z</time>
      </trkpt>
      <trkpt lat="41.79894" lon="9.1365">
        <ele>1190.2</ele>
        <time>2021-06-03T06:54:34Z</time>
      </trkpt>
      <trkpt lat="41.79894" lon="9.13652">
        <ele>1190.2</ele>
        <time>2021-06-03T06:54:35Z</time>
      </trkpt>
      <trkpt lat="41.79895" lon="9.13654">
        <ele>1190.6</ele>
        <time>2021-06-03T06:54:36Z</time>
      </trkpt>
      <trkpt lat="41.79895" lon="9.13656">
        <ele>1190.6</ele>
        <time>2021-06-03T06:54:37Z</time>
      </trkpt>
      <trkpt lat="41.79896" lon="9.13657">
        <ele>1190.6</ele>
        <time>2021-06-03T06:54:38Z</time>
      </trkpt>
      <trkpt lat="41.79896" lon="9.13659">
        <ele>1190.6</ele>
        <time>2021-06-03T06:54:39Z</time>
      </trkpt>
      <trkpt lat="41.79897" lon="9.13661">
        <ele>1190.8</ele>
        <time>2021-06-03T06:54:40Z</time>
      </trkpt>
      <trkpt lat="41.79898" lon="9.13663">
        <ele>1190.8</ele>
        <time>2021-06-03T06:54:41Z</time>
      </trkpt>
      <trkpt lat="41.79898" lon="9.13665">
        <ele>1190.8</ele>
        <time>2021-06-03T06:54:42Z</time>
      </trkpt>
      <trkpt lat="41.79899" lon="9.13666">
        <ele>1191.4</ele>
        <time>2021-06-03T06:54:43Z</time>
      </trkpt>
      <trkpt lat="41.799" lon="9.13668">
        <ele>1191.2</ele>
        <time>2021-06-03T06:54:44Z</time>
      </trkpt>
      <trkpt lat="41.799" lon="9.1367">
        <ele>1191.2</ele>
        <time>2021-06-03T06:54:45Z</time>
      </trkpt>
      <trkpt lat="41.79901" lon="9.13671">
        <ele>1191.2</ele>
        <time>2021-06-03T06:54:46Z</time>
      </trkpt>
      <trkpt lat="41.79902" lon="9.13673">
        <ele>1191.6</ele>
        <time>2021-06-03T06:54:47Z</time>
      </trkpt>
      <trkpt lat="41.79903" lon="9.13675">
        <ele>1191.2</ele>
        <time>2021-06-03T06:54:48Z</time>
      </trkpt>
      <trkpt lat="41.79903" lon="9.13676">
        <ele>1191.2</ele>
        <time>2021-06-03T06:54:49Z</time>
      </trkpt>
      <trkpt lat="41.79904" lon="9.13678">
        <ele>1191.2</ele>
        <time>2021-06-03T06:54:50Z</time>
      </trkpt>
      <trkpt lat="41.79904" lon="9.1368">
        <ele>1192</ele>
        <time>2021-06-03T06:54:51Z</time>
      </trkpt>
      <trkpt lat="41.79905" lon="9.13681">
        <ele>1192.2</ele>
        <time>2021-06-03T06:54:52Z</time>
      </trkpt>
      <trkpt lat="41.79905" lon="9.13683">
        <ele>1192.2</ele>
        <time>2021-06-03T06:54:53Z</time>
      </trkpt>
      <trkpt lat="41.79906" lon="9.13684">
        <ele>1192.2</ele>
        <time>2021-06-03T06:54:54Z</time>
      </trkpt>
      <trkpt lat="41.79907" lon="9.13686">
        <ele>1192.4</ele>
        <time>2021-06-03T06:54:55Z</time>
      </trkpt>
      <trkpt lat="41.79907" lon="9.13687">
        <ele>1193</ele>
        <time>2021-06-03T06:54:56Z</time>
      </trkpt>
      <trkpt lat="41.79908" lon="9.13689">
        <ele>1193</ele>
        <time>2021-06-03T06:54:57Z</time>
      </trkpt>
      <trkpt lat="41.79909" lon="9.1369">
        <ele>1193</ele>
        <time>2021-06-03T06:54:58Z</time>
      </trkpt>
      <trkpt lat="41.7991" lon="9.13691">
        <ele>1193</ele>
        <time>2021-06-03T06:54:59Z</time>
      </trkpt>
      <trkpt lat="41.79911" lon="9.13693">
        <ele>1193.4</ele>
        <time>2021-06-03T06:55:00Z</time>
      </trkpt>
      <trkpt lat="41.79912" lon="9.13694">
        <ele>1193.4</ele>
        <time>2021-06-03T06:55:01Z</time>
      </trkpt>
      <trkpt lat="41.79913" lon="9.13696">
        <ele>1193.4</ele>
        <time>2021-06-03T06:55:02Z</time>
      </trkpt>
      <trkpt lat="41.79913" lon="9.13697">
        <ele>1193.4</ele>
        <time>2021-06-03T06:55:03Z</time>
      </trkpt>
      <trkpt lat="41.79914" lon="9.13699">
        <ele>1193.8</ele>
        <time>2021-06-03T06:55:04Z</time>
      </trkpt>
      <trkpt lat="41.79915" lon="9.137">
        <ele>1193.8</ele>
        <time>2021-06-03T06:55:05Z</time>
      </trkpt>
      <trkpt lat="41.79916" lon="9.13702">
        <ele>1193.8</ele>
        <time>2021-06-03T06:55:06Z</time>
      </trkpt>
      <trkpt lat="41.79917" lon="9.13703">
        <ele>1193.8</ele>
        <time>2021-06-03T06:55:07Z</time>
      </trkpt>
      <trkpt lat="41.79917" lon="9.13705">
        <ele>1194</ele>
        <time>2021-06-03T06:55:08Z</time>
      </trkpt>
      <trkpt lat="41.79918" lon="9.13707">
        <ele>1194</ele>
        <time>2021-06-03T06:55:09Z</time>
      </trkpt>
      <trkpt lat="41.79919" lon="9.13708">
        <ele>1194</ele>
        <time>2021-06-03T06:55:10Z</time>
      </trkpt>
      <trkpt lat="41.7992" lon="9.1371">
        <ele>1194</ele>
        <time>2021-06-03T06:55:11Z</time>
      </trkpt>
      <trkpt lat="41.7992" lon="9.13711">
        <ele>1194.2</ele>
        <time>2021-06-03T06:55:12Z</time>
      </trkpt>
      <trkpt lat="41.79921" lon="9.13713">
        <ele>1194.2</ele>
        <time>2021-06-03T06:55:13Z</time>
      </trkpt>
      <trkpt lat="41.79922" lon="9.13715">
        <ele>1194.2</ele>
        <time>2021-06-03T06:55:14Z</time>
      </trkpt>
      <trkpt lat="41.79922" lon="9.13716">
        <ele>1194.4</ele>
        <time>2021-06-03T06:55:15Z</time>
      </trkpt>
      <trkpt lat="41.79923" lon="9.13718">
        <ele>1194.6</ele>
        <time>2021-06-03T06:55:16Z</time>
      </trkpt>
      <trkpt lat="41.79924" lon="9.1372">
        <ele>1194.6</ele>
        <time>2021-06-03T06:55:17Z</time>
      </trkpt>
      <trkpt lat="41.79925" lon="9.13721">
        <ele>1194.6</ele>
        <time>2021-06-03T06:55:18Z</time>
      </trkpt>
      <trkpt lat="41.79926" lon="9.13723">
        <ele>1194.6</ele>
        <time>2021-06-03T06:55:19Z</time>
      </trkpt>
      <trkpt lat="41.79926" lon="9.13725">
        <ele>1195</ele>
        <time>2021-06-03T06:55:20Z</time>
      </trkpt>
      <trkpt lat="41.79927" lon="9.13726">
        <ele>1195</ele>
        <time>2021-06-03T06:55:21Z</time>
      </trkpt>
      <trkpt lat="41.79927" lon="9.13728">
        <ele>1195</ele>
        <time>2021-06-03T06:55:22Z</time>
      </trkpt>
      <trkpt lat="41.79928" lon="9.1373">
        <ele>1195.2</ele>
        <time>2021-06-03T06:55:23Z</time>
      </trkpt>
      <trkpt lat="41.79928" lon="9.13732">
        <ele>1195</ele>
        <time>2021-06-03T06:55:24Z</time>
      </trkpt>
      <trkpt lat="41.79929" lon="9.13733">
        <ele>1195</ele>
        <time>2021-06-03T06:55:25Z</time>
      </trkpt>
      <trkpt lat="41.7993" lon="9.13735">
        <ele>1195</ele>
        <time>2021-06-03T06:55:26Z</time>
      </trkpt>
      <trkpt lat="41.7993" lon="9.13737">
        <ele>1195.4</ele>
        <time>2021-06-03T06:55:27Z</time>
      </trkpt>
      <trkpt lat="41.79931" lon="9.13738">
        <ele>1195.2</ele>
        <time>2021-06-03T06:55:28Z</time>
      </trkpt>
      <trkpt lat="41.79931" lon="9.1374">
        <ele>1195.2</ele>
        <time>2021-06-03T06:55:29Z</time>
      </trkpt>
      <trkpt lat="41.79932" lon="9.13742">
        <ele>1195.2</ele>
        <time>2021-06-03T06:55:30Z</time>
      </trkpt>
      <trkpt lat="41.79932" lon="9.13744">
        <ele>1195.6</ele>
        <time>2021-06-03T06:55:31Z</time>
      </trkpt>
      <trkpt lat="41.79933" lon="9.13746">
        <ele>1195.8</ele>
        <time>2021-06-03T06:55:32Z</time>
      </trkpt>
      <trkpt lat="41.79933" lon="9.13747">
        <ele>1195.8</ele>
        <time>2021-06-03T06:55:33Z</time>
      </trkpt>
      <trkpt lat="41.79934" lon="9.13749">
        <ele>1195.8</ele>
        <time>2021-06-03T06:55:34Z</time>
      </trkpt>
      <trkpt lat="41.79934" lon="9.13751">
        <ele>1196</ele>
        <time>2021-06-03T06:55:35Z</time>
      </trkpt>
      <trkpt lat="41.79934" lon="9.13753">
        <ele>1195.8</ele>
        <time>2021-06-03T06:55:36Z</time>
      </trkpt>
      <trkpt lat="41.79934" lon="9.13755">
        <ele>1195.8</ele>
        <time>2021-06-03T06:55:37Z</time>
      </trkpt>
      <trkpt lat="41.79935" lon="9.13756">
        <ele>1195.8</ele>
        <time>2021-06-03T06:55:38Z</time>
      </trkpt>
      <trkpt lat="41.79935" lon="9.13758">
        <ele>1196.6</ele>
        <time>2021-06-03T06:55:39Z</time>
      </trkpt>
      <trkpt lat="41.79935" lon="9.1376">
        <ele>1196.8</ele>
        <time>2021-06-03T06:55:40Z</time>
      </trkpt>
      <trkpt lat="41.79936" lon="9.13762">
        <ele>1196.8</ele>
        <time>2021-06-03T06:55:41Z</time>
      </trkpt>
      <trkpt lat="41.79936" lon="9.13764">
        <ele>1196.8</ele>
        <time>2021-06-03T06:55:42Z</time>
      </trkpt>
      <trkpt lat="41.79936" lon="9.13766">
        <ele>1197.6</ele>
        <time>2021-06-03T06:55:43Z</time>
      </trkpt>
      <trkpt lat="41.79937" lon="9.13767">
        <ele>1197.6</ele>
        <time>2021-06-03T06:55:44Z</time>
      </trkpt>
      <trkpt lat="41.79937" lon="9.13769">
        <ele>1197.6</ele>
        <time>2021-06-03T06:55:45Z</time>
      </trkpt>
      <trkpt lat="41.79937" lon="9.13771">
        <ele>1197.6</ele>
        <time>2021-06-03T06:55:46Z</time>
      </trkpt>
      <trkpt lat="41.79937" lon="9.13773">
        <ele>1197.6</ele>
        <time>2021-06-03T06:55:47Z</time>
      </trkpt>
      <trkpt lat="41.79938" lon="9.13775">
        <ele>1197.8</ele>
        <time>2021-06-03T06:55:48Z</time>
      </trkpt>
      <trkpt lat="41.79938" lon="9.13777">
        <ele>1197.8</ele>
        <time>2021-06-03T06:55:49Z</time>
      </trkpt>
      <trkpt lat="41.79938" lon="9.13779">
        <ele>1197.8</ele>
        <time>2021-06-03T06:55:50Z</time>
      </trkpt>
      <trkpt lat="41.79939" lon="9.1378">
        <ele>1198.4</ele>
        <time>2021-06-03T06:55:51Z</time>
      </trkpt>
      <trkpt lat="41.79939" lon="9.13782">
        <ele>1198.4</ele>
        <time>2021-06-03T06:55:52Z</time>
      </trkpt>
      <trkpt lat="41.79939" lon="9.13784">
        <ele>1198.4</ele>
        <time>2021-06-03T06:55:53Z</time>
      </trkpt>
      <trkpt lat="41.7994" lon="9.13785">
        <ele>1198.4</ele>
        <time>2021-06-03T06:55:54Z</time>
      </trkpt>
      <trkpt lat="41.7994" lon="9.13787">
        <ele>1198.8</ele>
        <time>2021-06-03T06:55:55Z</time>
      </trkpt>
      <trkpt lat="41.7994" lon="9.13789">
        <ele>1199.2</ele>
        <time>2021-06-03T06:55:56Z</time>
      </trkpt>
      <trkpt lat="41.79941" lon="9.1379">
        <ele>1199.2</ele>
        <time>2021-06-03T06:55:57Z</time>
      </trkpt>
      <trkpt lat="41.79941" lon="9.13792">
        <ele>1199.2</ele>
        <time>2021-06-03T06:55:58Z</time>
      </trkpt>
      <trkpt lat="41.79942" lon="9.13793">
        <ele>1199.6</ele>
        <time>2021-06-03T06:55:59Z</time>
      </trkpt>
      <trkpt lat="41.79942" lon="9.13795">
        <ele>1199.6</ele>
        <time>2021-06-03T06:56:00Z</time>
      </trkpt>
      <trkpt lat="41.79943" lon="9.13796">
        <ele>1199.6</ele>
        <time>2021-06-03T06:56:01Z</time>
      </trkpt>
      <trkpt lat="41.79944" lon="9.13798">
        <ele>1199.6</ele>
        <time>2021-06-03T06:56:02Z</time>
      </trkpt>
      <trkpt lat="41.79944" lon="9.138">
        <ele>1199.6</ele>
        <time>2021-06-03T06:56:03Z</time>
      </trkpt>
      <trkpt lat="41.79944" lon="9.13801">
        <ele>1200.2</ele>
        <time>2021-06-03T06:56:04Z</time>
      </trkpt>
      <trkpt lat="41.79945" lon="9.13803">
        <ele>1200.2</ele>
        <time>2021-06-03T06:56:05Z</time>
      </trkpt>
      <trkpt lat="41.79945" lon="9.13804">
        <ele>1200.2</ele>
        <time>2021-06-03T06:56:06Z</time>
      </trkpt>
      <trkpt lat="41.79946" lon="9.13805">
        <ele>1200.2</ele>
        <time>2021-06-03T06:56:07Z</time>
      </trkpt>
      <trkpt lat="41.79947" lon="9.13807">
        <ele>1200.8</ele>
        <time>2021-06-03T06:56:08Z</time>
      </trkpt>
      <trkpt lat="41.79947" lon="9.13808">
        <ele>1200.8</ele>
        <time>2021-06-03T06:56:09Z</time>
      </trkpt>
      <trkpt lat="41.79948" lon="9.1381">
        <ele>1200.8</ele>
        <time>2021-06-03T06:56:10Z</time>
      </trkpt>
      <trkpt lat="41.79948" lon="9.13811">
        <ele>1201</ele>
        <time>2021-06-03T06:56:11Z</time>
      </trkpt>
      <trkpt lat="41.79949" lon="9.13813">
        <ele>1201.2</ele>
        <time>2021-06-03T06:56:12Z</time>
      </trkpt>
      <trkpt lat="41.79949" lon="9.13814">
        <ele>1201.2</ele>
        <time>2021-06-03T06:56:13Z</time>
      </trkpt>
      <trkpt lat="41.7995" lon="9.13816">
        <ele>1201.2</ele>
        <time>2021-06-03T06:56:14Z</time>
      </trkpt>
      <trkpt lat="41.7995" lon="9.13817">
        <ele>1201.8</ele>
        <time>2021-06-03T06:56:15Z</time>
      </trkpt>
      <trkpt lat="41.79951" lon="9.13819">
        <ele>1202</ele>
        <time>2021-06-03T06:56:16Z</time>
      </trkpt>
      <trkpt lat="41.79951" lon="9.1382">
        <ele>1202</ele>
        <time>2021-06-03T06:56:17Z</time>
      </trkpt>
      <trkpt lat="41.79952" lon="9.13822">
        <ele>1202</ele>
        <time>2021-06-03T06:56:18Z</time>
      </trkpt>
      <trkpt lat="41.79953" lon="9.13823">
        <ele>1202</ele>
        <time>2021-06-03T06:56:19Z</time>
      </trkpt>
      <trkpt lat="41.79953" lon="9.13825">
        <ele>1202.4</ele>
        <time>2021-06-03T06:56:20Z</time>
      </trkpt>
      <trkpt lat="41.79954" lon="9.13826">
        <ele>1202.4</ele>
        <time>2021-06-03T06:56:21Z</time>
      </trkpt>
      <trkpt lat="41.79954" lon="9.13827">
        <ele>1202.4</ele>
        <time>2021-06-03T06:56:22Z</time>
      </trkpt>
      <trkpt lat="41.79955" lon="9.13829">
        <ele>1202.4</ele>
        <time>2021-06-03T06:56:23Z</time>
      </trkpt>
      <trkpt lat="41.79956" lon="9.1383">
        <ele>1203</ele>
        <time>2021-06-03T06:56:24Z</time>
      </trkpt>
      <trkpt lat="41.79956" lon="9.13832">
        <ele>1203</ele>
        <time>2021-06-03T06:56:25Z</time>
      </trkpt>
      <trkpt lat="41.79957" lon="9.13833">
        <ele>1203</ele>
        <time>2021-06-03T06:56:26Z</time>
      </trkpt>
      <trkpt lat="41.79958" lon="9.13834">
        <ele>1203.6</ele>
        <time>2021-06-03T06:56:27Z</time>
      </trkpt>
      <trkpt lat="41.79959" lon="9.13835">
        <ele>1203.6</ele>
        <time>2021-06-03T06:56:28Z</time>
      </trkpt>
      <trkpt lat="41.79959" lon="9.13837">
        <ele>1203.6</ele>
        <time>2021-06-03T06:56:29Z</time>
      </trkpt>
      <trkpt lat="41.7996" lon="9.13838">
        <ele>1203.6</ele>
        <time>2021-06-03T06:56:30Z</time>
      </trkpt>
      <trkpt lat="41.7996" lon="9.13839">
        <ele>1204.4</ele>
        <time>2021-06-03T06:56:31Z</time>
      </trkpt>
      <trkpt lat="41.79961" lon="9.13841">
        <ele>1204.6</ele>
        <time>2021-06-03T06:56:32Z</time>
      </trkpt>
      <trkpt lat="41.79962" lon="9.13842">
        <ele>1204.6</ele>
        <time>2021-06-03T06:56:33Z</time>
      </trkpt>
      <trkpt lat="41.79962" lon="9.13843">
        <ele>1204.6</ele>
        <time>2021-06-03T06:56:34Z</time>
      </trkpt>
      <trkpt lat="41.79963" lon="9.13845">
        <ele>1204.6</ele>
        <time>2021-06-03T06:56:35Z</time>
      </trkpt>
      <trkpt lat="41.79964" lon="9.13846">
        <ele>1205.2</ele>
        <time>2021-06-03T06:56:36Z</time>
      </trkpt>
      <trkpt lat="41.79964" lon="9.13847">
        <ele>1205.2</ele>
        <time>2021-06-03T06:56:37Z</time>
      </trkpt>
      <trkpt lat="41.79965" lon="9.13849">
        <ele>1205.2</ele>
        <time>2021-06-03T06:56:38Z</time>
      </trkpt>
      <trkpt lat="41.79965" lon="9.1385">
        <ele>1205.4</ele>
        <time>2021-06-03T06:56:39Z</time>
      </trkpt>
      <trkpt lat="41.79966" lon="9.13851">
        <ele>1205.6</ele>
        <time>2021-06-03T06:56:40Z</time>
      </trkpt>
      <trkpt lat="41.79966" lon="9.13853">
        <ele>1205.6</ele>
        <time>2021-06-03T06:56:41Z</time>
      </trkpt>
      <trkpt lat="41.79967" lon="9.13854">
        <ele>1205.6</ele>
        <time>2021-06-03T06:56:42Z</time>
      </trkpt>
      <trkpt lat="41.79968" lon="9.13855">
        <ele>1206.2</ele>
        <time>2021-06-03T06:56:43Z</time>
      </trkpt>
      <trkpt lat="41.79968" lon="9.13857">
        <ele>1206.2</ele>
        <time>2021-06-03T06:56:44Z</time>
      </trkpt>
      <trkpt lat="41.79969" lon="9.13858">
        <ele>1206.2</ele>
        <time>2021-06-03T06:56:45Z</time>
      </trkpt>
      <trkpt lat="41.79969" lon="9.1386">
        <ele>1206.2</ele>
        <time>2021-06-03T06:56:46Z</time>
      </trkpt>
      <trkpt lat="41.79969" lon="9.13861">
        <ele>1207</ele>
        <time>2021-06-03T06:56:47Z</time>
      </trkpt>
      <trkpt lat="41.7997" lon="9.13863">
        <ele>1207.2</ele>
        <time>2021-06-03T06:56:48Z</time>
      </trkpt>
      <trkpt lat="41.7997" lon="9.13864">
        <ele>1207.2</ele>
        <time>2021-06-03T06:56:49Z</time>
      </trkpt>
      <trkpt lat="41.7997" lon="9.13866">
        <ele>1207.2</ele>
        <time>2021-06-03T06:56:50Z</time>
      </trkpt>
      <trkpt lat="41.7997" lon="9.13867">
        <ele>1207.2</ele>
        <time>2021-06-03T06:56:51Z</time>
      </trkpt>
      <trkpt lat="41.79971" lon="9.13869">
        <ele>1207.8</ele>
        <time>2021-06-03T06:56:52Z</time>
      </trkpt>
      <trkpt lat="41.79971" lon="9.13871">
        <ele>1207.8</ele>
        <time>2021-06-03T06:56:53Z</time>
      </trkpt>
      <trkpt lat="41.79971" lon="9.13873">
        <ele>1207.8</ele>
        <time>2021-06-03T06:56:54Z</time>
      </trkpt>
      <trkpt lat="41.79971" lon="9.13874">
        <ele>1208</ele>
        <time>2021-06-03T06:56:55Z</time>
      </trkpt>
      <trkpt lat="41.79971" lon="9.13876">
        <ele>1208.6</ele>
        <time>2021-06-03T06:56:56Z</time>
      </trkpt>
      <trkpt lat="41.7997" lon="9.13878">
        <ele>1208.6</ele>
        <time>2021-06-03T06:56:57Z</time>
      </trkpt>
      <trkpt lat="41.7997" lon="9.13879">
        <ele>1208.6</ele>
        <time>2021-06-03T06:56:58Z</time>
      </trkpt>
      <trkpt lat="41.7997" lon="9.13881">
        <ele>1208.6</ele>
        <time>2021-06-03T06:56:59Z</time>
      </trkpt>
      <trkpt lat="41.7997" lon="9.13883">
        <ele>1208.6</ele>
        <time>2021-06-03T06:57:00Z</time>
      </trkpt>
      <trkpt lat="41.7997" lon="9.13884">
        <ele>1208.6</ele>
        <time>2021-06-03T06:57:01Z</time>
      </trkpt>
      <trkpt lat="41.7997" lon="9.13886">
        <ele>1208.6</ele>
        <time>2021-06-03T06:57:02Z</time>
      </trkpt>
      <trkpt lat="41.79971" lon="9.13888">
        <ele>1208.6</ele>
        <time>2021-06-03T06:57:03Z</time>
      </trkpt>
      <trkpt lat="41.79971" lon="9.1389">
        <ele>1208.6</ele>
        <time>2021-06-03T06:57:04Z</time>
      </trkpt>
      <trkpt lat="41.79971" lon="9.13892">
        <ele>1208.6</ele>
        <time>2021-06-03T06:57:05Z</time>
      </trkpt>
      <trkpt lat="41.79971" lon="9.13894">
        <ele>1208.6</ele>
        <time>2021-06-03T06:57:06Z</time>
      </trkpt>
      <trkpt lat="41.79971" lon="9.13896">
        <ele>1208.6</ele>
        <time>2021-06-03T06:57:07Z</time>
      </trkpt>
      <trkpt lat="41.79972" lon="9.13897">
        <ele>1208.8</ele>
        <time>2021-06-03T06:57:08Z</time>
      </trkpt>
      <trkpt lat="41.79972" lon="9.13899">
        <ele>1208.8</ele>
        <time>2021-06-03T06:57:09Z</time>
      </trkpt>
      <trkpt lat="41.79973" lon="9.13901">
        <ele>1208.8</ele>
        <time>2021-06-03T06:57:10Z</time>
      </trkpt>
      <trkpt lat="41.79974" lon="9.13903">
        <ele>1208.8</ele>
        <time>2021-06-03T06:57:11Z</time>
      </trkpt>
      <trkpt lat="41.79974" lon="9.13905">
        <ele>1208.8</ele>
        <time>2021-06-03T06:57:12Z</time>
      </trkpt>
      <trkpt lat="41.79975" lon="9.13906">
        <ele>1208.8</ele>
        <time>2021-06-03T06:57:13Z</time>
      </trkpt>
      <trkpt lat="41.79975" lon="9.13908">
        <ele>1208.8</ele>
        <time>2021-06-03T06:57:14Z</time>
      </trkpt>
      <trkpt lat="41.79976" lon="9.1391">
        <ele>1209.2</ele>
        <time>2021-06-03T06:57:15Z</time>
      </trkpt>
      <trkpt lat="41.79977" lon="9.13912">
        <ele>1209.4</ele>
        <time>2021-06-03T06:57:16Z</time>
      </trkpt>
      <trkpt lat="41.79977" lon="9.13914">
        <ele>1209.4</ele>
        <time>2021-06-03T06:57:17Z</time>
      </trkpt>
      <trkpt lat="41.79978" lon="9.13915">
        <ele>1209.4</ele>
        <time>2021-06-03T06:57:18Z</time>
      </trkpt>
      <trkpt lat="41.79979" lon="9.13917">
        <ele>1209.4</ele>
        <time>2021-06-03T06:57:19Z</time>
      </trkpt>
      <trkpt lat="41.7998" lon="9.13919">
        <ele>1210</ele>
        <time>2021-06-03T06:57:20Z</time>
      </trkpt>
      <trkpt lat="41.79981" lon="9.13921">
        <ele>1210</ele>
        <time>2021-06-03T06:57:21Z</time>
      </trkpt>
      <trkpt lat="41.79982" lon="9.13922">
        <ele>1210</ele>
        <time>2021-06-03T06:57:22Z</time>
      </trkpt>
      <trkpt lat="41.79982" lon="9.13924">
        <ele>1210</ele>
        <time>2021-06-03T06:57:23Z</time>
      </trkpt>
      <trkpt lat="41.79983" lon="9.13926">
        <ele>1210</ele>
        <time>2021-06-03T06:57:24Z</time>
      </trkpt>
      <trkpt lat="41.79984" lon="9.13928">
        <ele>1210</ele>
        <time>2021-06-03T06:57:25Z</time>
      </trkpt>
      <trkpt lat="41.79985" lon="9.13929">
        <ele>1210</ele>
        <time>2021-06-03T06:57:26Z</time>
      </trkpt>
      <trkpt lat="41.79986" lon="9.13931">
        <ele>1210.2</ele>
        <time>2021-06-03T06:57:27Z</time>
      </trkpt>
      <trkpt lat="41.79987" lon="9.13932">
        <ele>1210.4</ele>
        <time>2021-06-03T06:57:28Z</time>
      </trkpt>
      <trkpt lat="41.79988" lon="9.13934">
        <ele>1210.4</ele>
        <time>2021-06-03T06:57:29Z</time>
      </trkpt>
      <trkpt lat="41.79989" lon="9.13935">
        <ele>1210.4</ele>
        <time>2021-06-03T06:57:30Z</time>
      </trkpt>
      <trkpt lat="41.7999" lon="9.13937">
        <ele>1210.4</ele>
        <time>2021-06-03T06:57:31Z</time>
      </trkpt>
      <trkpt lat="41.79991" lon="9.13938">
        <ele>1210.6</ele>
        <time>2021-06-03T06:57:32Z</time>
      </trkpt>
      <trkpt lat="41.79992" lon="9.13939">
        <ele>1210.6</ele>
        <time>2021-06-03T06:57:33Z</time>
      </trkpt>
      <trkpt lat="41.79992" lon="9.13941">
        <ele>1210.6</ele>
        <time>2021-06-03T06:57:34Z</time>
      </trkpt>
      <trkpt lat="41.79993" lon="9.13942">
        <ele>1210.6</ele>
        <time>2021-06-03T06:57:35Z</time>
      </trkpt>
      <trkpt lat="41.79994" lon="9.13943">
        <ele>1211</ele>
        <time>2021-06-03T06:57:36Z</time>
      </trkpt>
      <trkpt lat="41.79995" lon="9.13944">
        <ele>1211</ele>
        <time>2021-06-03T06:57:37Z</time>
      </trkpt>
      <trkpt lat="41.79996" lon="9.13946">
        <ele>1211</ele>
        <time>2021-06-03T06:57:38Z</time>
      </trkpt>
      <trkpt lat="41.79997" lon="9.13947">
        <ele>1211.4</ele>
        <time>2021-06-03T06:57:39Z</time>
      </trkpt>
      <trkpt lat="41.79998" lon="9.13948">
        <ele>1211.6</ele>
        <time>2021-06-03T06:57:40Z</time>
      </trkpt>
      <trkpt lat="41.79999" lon="9.13949">
        <ele>1211.6</ele>
        <time>2021-06-03T06:57:41Z</time>
      </trkpt>
      <trkpt lat="41.8" lon="9.1395">
        <ele>1211.6</ele>
        <time>2021-06-03T06:57:42Z</time>
      </trkpt>
      <trkpt lat="41.80001" lon="9.13951">
        <ele>1212</ele>
        <time>2021-06-03T06:57:43Z</time>
      </trkpt>
      <trkpt lat="41.80002" lon="9.13952">
        <ele>1212.2</ele>
        <time>2021-06-03T06:57:44Z</time>
      </trkpt>
      <trkpt lat="41.80003" lon="9.13954">
        <ele>1212.2</ele>
        <time>2021-06-03T06:57:45Z</time>
      </trkpt>
      <trkpt lat="41.80003" lon="9.13955">
        <ele>1212.2</ele>
        <time>2021-06-03T06:57:46Z</time>
      </trkpt>
      <trkpt lat="41.80005" lon="9.13956">
        <ele>1213</ele>
        <time>2021-06-03T06:57:47Z</time>
      </trkpt>
      <trkpt lat="41.80006" lon="9.13957">
        <ele>1212.8</ele>
        <time>2021-06-03T06:57:48Z</time>
      </trkpt>
      <trkpt lat="41.80006" lon="9.13958">
        <ele>1212.8</ele>
        <time>2021-06-03T06:57:49Z</time>
      </trkpt>
      <trkpt lat="41.80007" lon="9.13959">
        <ele>1212.8</ele>
        <time>2021-06-03T06:57:50Z</time>
      </trkpt>
      <trkpt lat="41.80008" lon="9.1396">
        <ele>1212.8</ele>
        <time>2021-06-03T06:57:51Z</time>
      </trkpt>
      <trkpt lat="41.80009" lon="9.13961">
        <ele>1213.2</ele>
        <time>2021-06-03T06:57:52Z</time>
      </trkpt>
      <trkpt lat="41.8001" lon="9.13962">
        <ele>1213.2</ele>
        <time>2021-06-03T06:57:53Z</time>
      </trkpt>
      <trkpt lat="41.80011" lon="9.13963">
        <ele>1213.2</ele>
        <time>2021-06-03T06:57:54Z</time>
      </trkpt>
      <trkpt lat="41.80012" lon="9.13964">
        <ele>1213.2</ele>
        <time>2021-06-03T06:57:55Z</time>
      </trkpt>
      <trkpt lat="41.80013" lon="9.13965">
        <ele>1214</ele>
        <time>2021-06-03T06:57:56Z</time>
      </trkpt>
      <trkpt lat="41.80014" lon="9.13966">
        <ele>1214</ele>
        <time>2021-06-03T06:57:57Z</time>
      </trkpt>
      <trkpt lat="41.80015" lon="9.13967">
        <ele>1214</ele>
        <time>2021-06-03T06:57:58Z</time>
      </trkpt>
      <trkpt lat="41.80016" lon="9.13968">
        <ele>1214</ele>
        <time>2021-06-03T06:57:59Z</time>
      </trkpt>
      <trkpt lat="41.80017" lon="9.13969">
        <ele>1214.2</ele>
        <time>2021-06-03T06:58:00Z</time>
      </trkpt>
      <trkpt lat="41.80018" lon="9.1397">
        <ele>1214.2</ele>
        <time>2021-06-03T06:58:01Z</time>
      </trkpt>
      <trkpt lat="41.80019" lon="9.13971">
        <ele>1214.2</ele>
        <time>2021-06-03T06:58:02Z</time>
      </trkpt>
      <trkpt lat="41.80019" lon="9.13972">
        <ele>1215</ele>
        <time>2021-06-03T06:58:03Z</time>
      </trkpt>
      <trkpt lat="41.8002" lon="9.13973">
        <ele>1215.6</ele>
        <time>2021-06-03T06:58:04Z</time>
      </trkpt>
      <trkpt lat="41.80021" lon="9.13974">
        <ele>1215.6</ele>
        <time>2021-06-03T06:58:05Z</time>
      </trkpt>
      <trkpt lat="41.80022" lon="9.13975">
        <ele>1215.6</ele>
        <time>2021-06-03T06:58:06Z</time>
      </trkpt>
      <trkpt lat="41.80023" lon="9.13976">
        <ele>1215.6</ele>
        <time>2021-06-03T06:58:07Z</time>
      </trkpt>
      <trkpt lat="41.80024" lon="9.13977">
        <ele>1216</ele>
        <time>2021-06-03T06:58:08Z</time>
      </trkpt>
      <trkpt lat="41.80024" lon="9.13978">
        <ele>1216</ele>
        <time>2021-06-03T06:58:09Z</time>
      </trkpt>
      <trkpt lat="41.80026" lon="9.13978">
        <ele>1216</ele>
        <time>2021-06-03T06:58:10Z</time>
      </trkpt>
      <trkpt lat="41.80027" lon="9.13979">
        <ele>1216.4</ele>
        <time>2021-06-03T06:58:11Z</time>
      </trkpt>
      <trkpt lat="41.80028" lon="9.1398">
        <ele>1216.6</ele>
        <time>2021-06-03T06:58:12Z</time>
      </trkpt>
      <trkpt lat="41.80029" lon="9.13981">
        <ele>1216.6</ele>
        <time>2021-06-03T06:58:13Z</time>
      </trkpt>
      <trkpt lat="41.8003" lon="9.13981">
        <ele>1216.6</ele>
        <time>2021-06-03T06:58:14Z</time>
      </trkpt>
      <trkpt lat="41.80031" lon="9.13982">
        <ele>1216.6</ele>
        <time>2021-06-03T06:58:15Z</time>
      </trkpt>
      <trkpt lat="41.80032" lon="9.13982">
        <ele>1217.2</ele>
        <time>2021-06-03T06:58:16Z</time>
      </trkpt>
      <trkpt lat="41.80033" lon="9.13983">
        <ele>1217.2</ele>
        <time>2021-06-03T06:58:17Z</time>
      </trkpt>
      <trkpt lat="41.80034" lon="9.13983">
        <ele>1217.2</ele>
        <time>2021-06-03T06:58:18Z</time>
      </trkpt>
      <trkpt lat="41.80035" lon="9.13984">
        <ele>1217.2</ele>
        <time>2021-06-03T06:58:19Z</time>
      </trkpt>
      <trkpt lat="41.80036" lon="9.13985">
        <ele>1217.4</ele>
        <time>2021-06-03T06:58:20Z</time>
      </trkpt>
      <trkpt lat="41.80037" lon="9.13985">
        <ele>1217.4</ele>
        <time>2021-06-03T06:58:21Z</time>
      </trkpt>
      <trkpt lat="41.80038" lon="9.13986">
        <ele>1217.4</ele>
        <time>2021-06-03T06:58:22Z</time>
      </trkpt>
      <trkpt lat="41.80039" lon="9.13986">
        <ele>1218.2</ele>
        <time>2021-06-03T06:58:23Z</time>
      </trkpt>
      <trkpt lat="41.8004" lon="9.13987">
        <ele>1218</ele>
        <time>2021-06-03T06:58:24Z</time>
      </trkpt>
      <trkpt lat="41.80042" lon="9.13987">
        <ele>1218</ele>
        <time>2021-06-03T06:58:25Z</time>
      </trkpt>
      <trkpt lat="41.80043" lon="9.13988">
        <ele>1218</ele>
        <time>2021-06-03T06:58:26Z</time>
      </trkpt>
      <trkpt lat="41.80044" lon="9.13988">
        <ele>1218.4</ele>
        <time>2021-06-03T06:58:27Z</time>
      </trkpt>
      <trkpt lat="41.80045" lon="9.13989">
        <ele>1218.6</ele>
        <time>2021-06-03T06:58:28Z</time>
      </trkpt>
      <trkpt lat="41.80046" lon="9.13989">
        <ele>1218.6</ele>
        <time>2021-06-03T06:58:29Z</time>
      </trkpt>
      <trkpt lat="41.80047" lon="9.1399">
        <ele>1218.6</ele>
        <time>2021-06-03T06:58:30Z</time>
      </trkpt>
      <trkpt lat="41.80048" lon="9.1399">
        <ele>1219.6</ele>
        <time>2021-06-03T06:58:31Z</time>
      </trkpt>
      <trkpt lat="41.80049" lon="9.1399">
        <ele>1219.8</ele>
        <time>2021-06-03T06:58:32Z</time>
      </trkpt>
      <trkpt lat="41.8005" lon="9.13991">
        <ele>1219.8</ele>
        <time>2021-06-03T06:58:33Z</time>
      </trkpt>
      <trkpt lat="41.80051" lon="9.13991">
        <ele>1219.8</ele>
        <time>2021-06-03T06:58:34Z</time>
      </trkpt>
      <trkpt lat="41.80052" lon="9.13991">
        <ele>1219.8</ele>
        <time>2021-06-03T06:58:35Z</time>
      </trkpt>
      <trkpt lat="41.80053" lon="9.13991">
        <ele>1220</ele>
        <time>2021-06-03T06:58:36Z</time>
      </trkpt>
      <trkpt lat="41.80054" lon="9.13991">
        <ele>1220</ele>
        <time>2021-06-03T06:58:37Z</time>
      </trkpt>
      <trkpt lat="41.80056" lon="9.13991">
        <ele>1220</ele>
        <time>2021-06-03T06:58:38Z</time>
      </trkpt>
      <trkpt lat="41.80057" lon="9.13992">
        <ele>1220</ele>
        <time>2021-06-03T06:58:39Z</time>
      </trkpt>
      <trkpt lat="41.80058" lon="9.13992">
        <ele>1220.4</ele>
        <time>2021-06-03T06:58:40Z</time>
      </trkpt>
      <trkpt lat="41.80059" lon="9.13992">
        <ele>1220.4</ele>
        <time>2021-06-03T06:58:41Z</time>
      </trkpt>
      <trkpt lat="41.8006" lon="9.13992">
        <ele>1220.4</ele>
        <time>2021-06-03T06:58:42Z</time>
      </trkpt>
      <trkpt lat="41.80061" lon="9.13993">
        <ele>1221</ele>
        <time>2021-06-03T06:58:43Z</time>
      </trkpt>
      <trkpt lat="41.80062" lon="9.13993">
        <ele>1221.4</ele>
        <time>2021-06-03T06:58:44Z</time>
      </trkpt>
      <trkpt lat="41.80063" lon="9.13994">
        <ele>1221.4</ele>
        <time>2021-06-03T06:58:45Z</time>
      </trkpt>
      <trkpt lat="41.80064" lon="9.13994">
        <ele>1221.4</ele>
        <time>2021-06-03T06:58:46Z</time>
      </trkpt>
      <trkpt lat="41.80065" lon="9.13994">
        <ele>1221.4</ele>
        <time>2021-06-03T06:58:47Z</time>
      </trkpt>
      <trkpt lat="41.80066" lon="9.13994">
        <ele>1221.8</ele>
        <time>2021-06-03T06:58:48Z</time>
      </trkpt>
      <trkpt lat="41.80067" lon="9.13994">
        <ele>1221.8</ele>
        <time>2021-06-03T06:58:49Z</time>
      </trkpt>
      <trkpt lat="41.80069" lon="9.13994">
        <ele>1221.8</ele>
        <time>2021-06-03T06:58:50Z</time>
      </trkpt>
      <trkpt lat="41.8007" lon="9.13994">
        <ele>1222</ele>
        <time>2021-06-03T06:58:51Z</time>
      </trkpt>
      <trkpt lat="41.80071" lon="9.13994">
        <ele>1222.2</ele>
        <time>2021-06-03T06:58:52Z</time>
      </trkpt>
      <trkpt lat="41.80072" lon="9.13994">
        <ele>1222.2</ele>
        <time>2021-06-03T06:58:53Z</time>
      </trkpt>
      <trkpt lat="41.80073" lon="9.13994">
        <ele>1222.2</ele>
        <time>2021-06-03T06:58:54Z</time>
      </trkpt>
      <trkpt lat="41.80074" lon="9.13994">
        <ele>1222.2</ele>
        <time>2021-06-03T06:58:55Z</time>
      </trkpt>
      <trkpt lat="41.80075" lon="9.13994">
        <ele>1222.6</ele>
        <time>2021-06-03T06:58:56Z</time>
      </trkpt>
      <trkpt lat="41.80076" lon="9.13994">
        <ele>1222.6</ele>
        <time>2021-06-03T06:58:57Z</time>
      </trkpt>
      <trkpt lat="41.80077" lon="9.13995">
        <ele>1222.6</ele>
        <time>2021-06-03T06:58:58Z</time>
      </trkpt>
      <trkpt lat="41.80079" lon="9.13995">
        <ele>1223.2</ele>
        <time>2021-06-03T06:58:59Z</time>
      </trkpt>
      <trkpt lat="41.8008" lon="9.13995">
        <ele>1223.4</ele>
        <time>2021-06-03T06:59:00Z</time>
      </trkpt>
      <trkpt lat="41.80081" lon="9.13995">
        <ele>1223.4</ele>
        <time>2021-06-03T06:59:01Z</time>
      </trkpt>
      <trkpt lat="41.80082" lon="9.13996">
        <ele>1223.4</ele>
        <time>2021-06-03T06:59:02Z</time>
      </trkpt>
      <trkpt lat="41.80083" lon="9.13996">
        <ele>1223.4</ele>
        <time>2021-06-03T06:59:03Z</time>
      </trkpt>
      <trkpt lat="41.80084" lon="9.13996">
        <ele>1223.8</ele>
        <time>2021-06-03T06:59:04Z</time>
      </trkpt>
      <trkpt lat="41.80085" lon="9.13997">
        <ele>1223.8</ele>
        <time>2021-06-03T06:59:05Z</time>
      </trkpt>
      <trkpt lat="41.80086" lon="9.13997">
        <ele>1223.8</ele>
        <time>2021-06-03T06:59:06Z</time>
      </trkpt>
      <trkpt lat="41.80087" lon="9.13997">
        <ele>1223.8</ele>
        <time>2021-06-03T06:59:07Z</time>
      </trkpt>
      <trkpt lat="41.80088" lon="9.13997">
        <ele>1224.6</ele>
        <time>2021-06-03T06:59:08Z</time>
      </trkpt>
      <trkpt lat="41.80089" lon="9.13998">
        <ele>1224.6</ele>
        <time>2021-06-03T06:59:09Z</time>
      </trkpt>
      <trkpt lat="41.80091" lon="9.13998">
        <ele>1224.6</ele>
        <time>2021-06-03T06:59:10Z</time>
      </trkpt>
      <trkpt lat="41.80092" lon="9.13999">
        <ele>1225</ele>
        <time>2021-06-03T06:59:11Z</time>
      </trkpt>
      <trkpt lat="41.80093" lon="9.13999">
        <ele>1225.4</ele>
        <time>2021-06-03T06:59:12Z</time>
      </trkpt>
      <trkpt lat="41.80094" lon="9.14">
        <ele>1225.4</ele>
        <time>2021-06-03T06:59:13Z</time>
      </trkpt>
      <trkpt lat="41.80095" lon="9.14">
        <ele>1225.4</ele>
        <time>2021-06-03T06:59:14Z</time>
      </trkpt>
      <trkpt lat="41.80096" lon="9.14001">
        <ele>1225.4</ele>
        <time>2021-06-03T06:59:15Z</time>
      </trkpt>
      <trkpt lat="41.80097" lon="9.14002">
        <ele>1225.6</ele>
        <time>2021-06-03T06:59:16Z</time>
      </trkpt>
      <trkpt lat="41.80098" lon="9.14002">
        <ele>1225.6</ele>
        <time>2021-06-03T06:59:17Z</time>
      </trkpt>
      <trkpt lat="41.80099" lon="9.14002">
        <ele>1225.6</ele>
        <time>2021-06-03T06:59:18Z</time>
      </trkpt>
      <trkpt lat="41.801" lon="9.14003">
        <ele>1226.2</ele>
        <time>2021-06-03T06:59:19Z</time>
      </trkpt>
      <trkpt lat="41.80101" lon="9.14003">
        <ele>1226.2</ele>
        <time>2021-06-03T06:59:20Z</time>
      </trkpt>
      <trkpt lat="41.80102" lon="9.14004">
        <ele>1226.2</ele>
        <time>2021-06-03T06:59:21Z</time>
      </trkpt>
      <trkpt lat="41.80103" lon="9.14005">
        <ele>1226.2</ele>
        <time>2021-06-03T06:59:22Z</time>
      </trkpt>
      <trkpt lat="41.80103" lon="9.14005">
        <ele>1226.4</ele>
        <time>2021-06-03T06:59:23Z</time>
      </trkpt>
      <trkpt lat="41.80104" lon="9.14006">
        <ele>1226.6</ele>
        <time>2021-06-03T06:59:24Z</time>
      </trkpt>
      <trkpt lat="41.80105" lon="9.14006">
        <ele>1226.6</ele>
        <time>2021-06-03T06:59:25Z</time>
      </trkpt>
      <trkpt lat="41.80106" lon="9.14007">
        <ele>1226.6</ele>
        <time>2021-06-03T06:59:26Z</time>
      </trkpt>
      <trkpt lat="41.80108" lon="9.14007">
        <ele>1227.2</ele>
        <time>2021-06-03T06:59:27Z</time>
      </trkpt>
      <trkpt lat="41.80109" lon="9.14008">
        <ele>1227.8</ele>
        <time>2021-06-03T06:59:28Z</time>
      </trkpt>
      <trkpt lat="41.8011" lon="9.14008">
        <ele>1227.8</ele>
        <time>2021-06-03T06:59:29Z</time>
      </trkpt>
      <trkpt lat="41.80111" lon="9.14009">
        <ele>1227.8</ele>
        <time>2021-06-03T06:59:30Z</time>
      </trkpt>
      <trkpt lat="41.80111" lon="9.1401">
        <ele>1227.8</ele>
        <time>2021-06-03T06:59:31Z</time>
      </trkpt>
      <trkpt lat="41.80112" lon="9.14011">
        <ele>1227.8</ele>
        <time>2021-06-03T06:59:32Z</time>
      </trkpt>
      <trkpt lat="41.80113" lon="9.14012">
        <ele>1227.8</ele>
        <time>2021-06-03T06:59:33Z</time>
      </trkpt>
      <trkpt lat="41.80113" lon="9.14013">
        <ele>1227.8</ele>
        <time>2021-06-03T06:59:34Z</time>
      </trkpt>
      <trkpt lat="41.80114" lon="9.14014">
        <ele>1227.8</ele>
        <time>2021-06-03T06:59:35Z</time>
      </trkpt>
      <trkpt lat="41.80115" lon="9.14015">
        <ele>1228.2</ele>
        <time>2021-06-03T06:59:36Z</time>
      </trkpt>
      <trkpt lat="41.80116" lon="9.14016">
        <ele>1228.2</ele>
        <time>2021-06-03T06:59:37Z</time>
      </trkpt>
      <trkpt lat="41.80116" lon="9.14017">
        <ele>1228.2</ele>
        <time>2021-06-03T06:59:38Z</time>
      </trkpt>
      <trkpt lat="41.80117" lon="9.14019">
        <ele>1228.8</ele>
        <time>2021-06-03T06:59:39Z</time>
      </trkpt>
      <trkpt lat="41.80117" lon="9.1402">
        <ele>1228.8</ele>
        <time>2021-06-03T06:59:40Z</time>
      </trkpt>
      <trkpt lat="41.80118" lon="9.14021">
        <ele>1228.8</ele>
        <time>2021-06-03T06:59:41Z</time>
      </trkpt>
      <trkpt lat="41.80119" lon="9.14022">
        <ele>1228.8</ele>
        <time>2021-06-03T06:59:42Z</time>
      </trkpt>
      <trkpt lat="41.8012" lon="9.14023">
        <ele>1229.4</ele>
        <time>2021-06-03T06:59:43Z</time>
      </trkpt>
      <trkpt lat="41.80121" lon="9.14024">
        <ele>1229.4</ele>
        <time>2021-06-03T06:59:44Z</time>
      </trkpt>
      <trkpt lat="41.80121" lon="9.14025">
        <ele>1229.4</ele>
        <time>2021-06-03T06:59:45Z</time>
      </trkpt>
      <trkpt lat="41.80122" lon="9.14026">
        <ele>1229.4</ele>
        <time>2021-06-03T06:59:46Z</time>
      </trkpt>
      <trkpt lat="41.80123" lon="9.14026">
        <ele>1229.6</ele>
        <time>2021-06-03T06:59:47Z</time>
      </trkpt>
      <trkpt lat="41.80124" lon="9.14027">
        <ele>1230</ele>
        <time>2021-06-03T06:59:48Z</time>
      </trkpt>
      <trkpt lat="41.80125" lon="9.14028">
        <ele>1230</ele>
        <time>2021-06-03T06:59:49Z</time>
      </trkpt>
      <trkpt lat="41.80126" lon="9.14029">
        <ele>1230</ele>
        <time>2021-06-03T06:59:50Z</time>
      </trkpt>
      <trkpt lat="41.80127" lon="9.1403">
        <ele>1230</ele>
        <time>2021-06-03T06:59:51Z</time>
      </trkpt>
      <trkpt lat="41.80128" lon="9.14031">
        <ele>1230.2</ele>
        <time>2021-06-03T06:59:52Z</time>
      </trkpt>
      <trkpt lat="41.80129" lon="9.14032">
        <ele>1230.2</ele>
        <time>2021-06-03T06:59:53Z</time>
      </trkpt>
      <trkpt lat="41.8013" lon="9.14033">
        <ele>1230.2</ele>
        <time>2021-06-03T06:59:54Z</time>
      </trkpt>
      <trkpt lat="41.80131" lon="9.14034">
        <ele>1230.8</ele>
        <time>2021-06-03T06:59:55Z</time>
      </trkpt>
      <trkpt lat="41.80132" lon="9.14035">
        <ele>1231.2</ele>
        <time>2021-06-03T06:59:56Z</time>
      </trkpt>
      <trkpt lat="41.80133" lon="9.14036">
        <ele>1231.2</ele>
        <time>2021-06-03T06:59:57Z</time>
      </trkpt>
      <trkpt lat="41.80133" lon="9.14037">
        <ele>1231.2</ele>
        <time>2021-06-03T06:59:58Z</time>
      </trkpt>
      <trkpt lat="41.80134" lon="9.14038">
        <ele>1231.2</ele>
        <time>2021-06-03T06:59:59Z</time>
      </trkpt>
      <trkpt lat="41.80135" lon="9.14039">
        <ele>1231.4</ele>
        <time>2021-06-03T07:00:00Z</time>
      </trkpt>
      <trkpt lat="41.80136" lon="9.1404">
        <ele>1231.4</ele>
        <time>2021-06-03T07:00:01Z</time>
      </trkpt>
      <trkpt lat="41.80137" lon="9.14041">
        <ele>1231.4</ele>
        <time>2021-06-03T07:00:02Z</time>
      </trkpt>
      <trkpt lat="41.80138" lon="9.14041">
        <ele>1231.4</ele>
        <time>2021-06-03T07:00:03Z</time>
      </trkpt>
      <trkpt lat="41.80139" lon="9.14042">
        <ele>1231.8</ele>
        <time>2021-06-03T07:00:04Z</time>
      </trkpt>
      <trkpt lat="41.8014" lon="9.14043">
        <ele>1231.8</ele>
        <time>2021-06-03T07:00:05Z</time>
      </trkpt>
      <trkpt lat="41.80141" lon="9.14044">
        <ele>1231.8</ele>
        <time>2021-06-03T07:00:06Z</time>
      </trkpt>
      <trkpt lat="41.80142" lon="9.14045">
        <ele>1232.2</ele>
        <time>2021-06-03T07:00:07Z</time>
      </trkpt>
      <trkpt lat="41.80143" lon="9.14045">
        <ele>1232</ele>
        <time>2021-06-03T07:00:08Z</time>
      </trkpt>
      <trkpt lat="41.80144" lon="9.14046">
        <ele>1232</ele>
        <time>2021-06-03T07:00:09Z</time>
      </trkpt>
      <trkpt lat="41.80145" lon="9.14047">
        <ele>1232</ele>
        <time>2021-06-03T07:00:10Z</time>
      </trkpt>
      <trkpt lat="41.80145" lon="9.14048">
        <ele>1232.6</ele>
        <time>2021-06-03T07:00:11Z</time>
      </trkpt>
      <trkpt lat="41.80146" lon="9.14049">
        <ele>1232.8</ele>
        <time>2021-06-03T07:00:12Z</time>
      </trkpt>
      <trkpt lat="41.80147" lon="9.14049">
        <ele>1232.8</ele>
        <time>2021-06-03T07:00:13Z</time>
      </trkpt>
      <trkpt lat="41.80148" lon="9.1405">
        <ele>1232.8</ele>
        <time>2021-06-03T07:00:14Z</time>
      </trkpt>
      <trkpt lat="41.80149" lon="9.14051">
        <ele>1232.8</ele>
        <time>2021-06-03T07:00:15Z</time>
      </trkpt>
      <trkpt lat="41.8015" lon="9.14052">
        <ele>1233</ele>
        <time>2021-06-03T07:00:16Z</time>
      </trkpt>
      <trkpt lat="41.80151" lon="9.14052">
        <ele>1233</ele>
        <time>2021-06-03T07:00:17Z</time>
      </trkpt>
      <trkpt lat="41.80152" lon="9.14053">
        <ele>1233</ele>
        <time>2021-06-03T07:00:18Z</time>
      </trkpt>
      <trkpt lat="41.80153" lon="9.14054">
        <ele>1233</ele>
        <time>2021-06-03T07:00:19Z</time>
      </trkpt>
      <trkpt lat="41.80154" lon="9.14054">
        <ele>1233.4</ele>
        <time>2021-06-03T07:00:20Z</time>
      </trkpt>
      <trkpt lat="41.80155" lon="9.14055">
        <ele>1233.4</ele>
        <time>2021-06-03T07:00:21Z</time>
      </trkpt>
      <trkpt lat="41.80156" lon="9.14055">
        <ele>1233.4</ele>
        <time>2021-06-03T07:00:22Z</time>
      </trkpt>
      <trkpt lat="41.80157" lon="9.14056">
        <ele>1233.4</ele>
        <time>2021-06-03T07:00:23Z</time>
      </trkpt>
      <trkpt lat="41.80158" lon="9.14057">
        <ele>1234</ele>
        <time>2021-06-03T07:00:24Z</time>
      </trkpt>
      <trkpt lat="41.80159" lon="9.14057">
        <ele>1234</ele>
        <time>2021-06-03T07:00:25Z</time>
      </trkpt>
      <trkpt lat="41.8016" lon="9.14058">
        <ele>1234</ele>
        <time>2021-06-03T07:00:26Z</time>
      </trkpt>
      <trkpt lat="41.80161" lon="9.14058">
        <ele>1234.4</ele>
        <time>2021-06-03T07:00:27Z</time>
      </trkpt>
      <trkpt lat="41.80163" lon="9.14059">
        <ele>1234.6</ele>
        <time>2021-06-03T07:00:28Z</time>
      </trkpt>
      <trkpt lat="41.80163" lon="9.14059">
        <ele>1234.6</ele>
        <time>2021-06-03T07:00:29Z</time>
      </trkpt>
      <trkpt lat="41.80164" lon="9.1406">
        <ele>1234.6</ele>
        <time>2021-06-03T07:00:30Z</time>
      </trkpt>
      <trkpt lat="41.80165" lon="9.14061">
        <ele>1235</ele>
        <time>2021-06-03T07:00:31Z</time>
      </trkpt>
      <trkpt lat="41.80166" lon="9.14061">
        <ele>1235</ele>
        <time>2021-06-03T07:00:32Z</time>
      </trkpt>
      <trkpt lat="41.80167" lon="9.14062">
        <ele>1235</ele>
        <time>2021-06-03T07:00:33Z</time>
      </trkpt>
      <trkpt lat="41.80168" lon="9.14062">
        <ele>1235</ele>
        <time>2021-06-03T07:00:34Z</time>
      </trkpt>
      <trkpt lat="41.80169" lon="9.14063">
        <ele>1235</ele>
        <time>2021-06-03T07:00:35Z</time>
      </trkpt>
      <trkpt lat="41.8017" lon="9.14064">
        <ele>1235.8</ele>
        <time>2021-06-03T07:00:36Z</time>
      </trkpt>
      <trkpt lat="41.80171" lon="9.14064">
        <ele>1235.8</ele>
        <time>2021-06-03T07:00:37Z</time>
      </trkpt>
      <trkpt lat="41.80172" lon="9.14065">
        <ele>1235.8</ele>
        <time>2021-06-03T07:00:38Z</time>
      </trkpt>
      <trkpt lat="41.80173" lon="9.14066">
        <ele>1235.8</ele>
        <time>2021-06-03T07:00:39Z</time>
      </trkpt>
      <trkpt lat="41.80174" lon="9.14066">
        <ele>1236.4</ele>
        <time>2021-06-03T07:00:40Z</time>
      </trkpt>
      <trkpt lat="41.80175" lon="9.14067">
        <ele>1236.4</ele>
        <time>2021-06-03T07:00:41Z</time>
      </trkpt>
      <trkpt lat="41.80176" lon="9.14067">
        <ele>1236.4</ele>
        <time>2021-06-03T07:00:42Z</time>
      </trkpt>
      <trkpt lat="41.80177" lon="9.14068">
        <ele>1236.8</ele>
        <time>2021-06-03T07:00:43Z</time>
      </trkpt>
      <trkpt lat="41.80178" lon="9.14068">
        <ele>1236.8</ele>
        <time>2021-06-03T07:00:44Z</time>
      </trkpt>
      <trkpt lat="41.80179" lon="9.14069">
        <ele>1236.8</ele>
        <time>2021-06-03T07:00:45Z</time>
      </trkpt>
      <trkpt lat="41.80179" lon="9.1407">
        <ele>1236.8</ele>
        <time>2021-06-03T07:00:46Z</time>
      </trkpt>
      <trkpt lat="41.8018" lon="9.14071">
        <ele>1237.6</ele>
        <time>2021-06-03T07:00:47Z</time>
      </trkpt>
      <trkpt lat="41.80181" lon="9.14071">
        <ele>1237.6</ele>
        <time>2021-06-03T07:00:48Z</time>
      </trkpt>
      <trkpt lat="41.80182" lon="9.14072">
        <ele>1237.6</ele>
        <time>2021-06-03T07:00:49Z</time>
      </trkpt>
      <trkpt lat="41.80183" lon="9.14073">
        <ele>1237.6</ele>
        <time>2021-06-03T07:00:50Z</time>
      </trkpt>
      <trkpt lat="41.80184" lon="9.14073">
        <ele>1237.6</ele>
        <time>2021-06-03T07:00:51Z</time>
      </trkpt>
      <trkpt lat="41.80185" lon="9.14073">
        <ele>1238</ele>
        <time>2021-06-03T07:00:52Z</time>
      </trkpt>
      <trkpt lat="41.80186" lon="9.14074">
        <ele>1238</ele>
        <time>2021-06-03T07:00:53Z</time>
      </trkpt>
      <trkpt lat="41.80187" lon="9.14074">
        <ele>1238</ele>
        <time>2021-06-03T07:00:54Z</time>
      </trkpt>
      <trkpt lat="41.80188" lon="9.14074">
        <ele>1238.4</ele>
        <time>2021-06-03T07:00:55Z</time>
      </trkpt>
      <trkpt lat="41.80189" lon="9.14075">
        <ele>1239</ele>
        <time>2021-06-03T07:00:56Z</time>
      </trkpt>
      <trkpt lat="41.8019" lon="9.14075">
        <ele>1239</ele>
        <time>2021-06-03T07:00:57Z</time>
      </trkpt>
      <trkpt lat="41.80191" lon="9.14076">
        <ele>1239</ele>
        <time>2021-06-03T07:00:58Z</time>
      </trkpt>
      <trkpt lat="41.80192" lon="9.14076">
        <ele>1239</ele>
        <time>2021-06-03T07:00:59Z</time>
      </trkpt>
      <trkpt lat="41.80193" lon="9.14076">
        <ele>1239.2</ele>
        <time>2021-06-03T07:01:00Z</time>
      </trkpt>
      <trkpt lat="41.80194" lon="9.14077">
        <ele>1239.2</ele>
        <time>2021-06-03T07:01:01Z</time>
      </trkpt>
      <trkpt lat="41.80195" lon="9.14078">
        <ele>1239.2</ele>
        <time>2021-06-03T07:01:02Z</time>
      </trkpt>
      <trkpt lat="41.80196" lon="9.14078">
        <ele>1239.2</ele>
        <time>2021-06-03T07:01:03Z</time>
      </trkpt>
      <trkpt lat="41.80197" lon="9.14079">
        <ele>1239.6</ele>
        <time>2021-06-03T07:01:04Z</time>
      </trkpt>
      <trkpt lat="41.80198" lon="9.14079">
        <ele>1239.6</ele>
        <time>2021-06-03T07:01:05Z</time>
      </trkpt>
      <trkpt lat="41.80199" lon="9.14079">
        <ele>1239.6</ele>
        <time>2021-06-03T07:01:06Z</time>
      </trkpt>
      <trkpt lat="41.802" lon="9.1408">
        <ele>1239.6</ele>
        <time>2021-06-03T07:01:07Z</time>
      </trkpt>
      <trkpt lat="41.80201" lon="9.1408">
        <ele>1240</ele>
        <time>2021-06-03T07:01:08Z</time>
      </trkpt>
      <trkpt lat="41.80202" lon="9.1408">
        <ele>1240</ele>
        <time>2021-06-03T07:01:09Z</time>
      </trkpt>
      <trkpt lat="41.80203" lon="9.1408">
        <ele>1240</ele>
        <time>2021-06-03T07:01:10Z</time>
      </trkpt>
      <trkpt lat="41.80204" lon="9.1408">
        <ele>1240.4</ele>
        <time>2021-06-03T07:01:11Z</time>
      </trkpt>
      <trkpt lat="41.80205" lon="9.14081">
        <ele>1240.8</ele>
        <time>2021-06-03T07:01:12Z</time>
      </trkpt>
      <trkpt lat="41.80206" lon="9.14081">
        <ele>1240.8</ele>
        <time>2021-06-03T07:01:13Z</time>
      </trkpt>
      <trkpt lat="41.80207" lon="9.14081">
        <ele>1240.8</ele>
        <time>2021-06-03T07:01:14Z</time>
      </trkpt>
      <trkpt lat="41.80208" lon="9.14082">
        <ele>1240.8</ele>
        <time>2021-06-03T07:01:15Z</time>
      </trkpt>
      <trkpt lat="41.80209" lon="9.14082">
        <ele>1241.4</ele>
        <time>2021-06-03T07:01:16Z</time>
      </trkpt>
      <trkpt lat="41.8021" lon="9.14082">
        <ele>1241.4</ele>
        <time>2021-06-03T07:01:17Z</time>
      </trkpt>
      <trkpt lat="41.80211" lon="9.14083">
        <ele>1241.4</ele>
        <time>2021-06-03T07:01:18Z</time>
      </trkpt>
      <trkpt lat="41.80212" lon="9.14083">
        <ele>1241.4</ele>
        <time>2021-06-03T07:01:19Z</time>
      </trkpt>
      <trkpt lat="41.80213" lon="9.14083">
        <ele>1241</ele>
        <time>2021-06-03T07:01:20Z</time>
      </trkpt>
      <trkpt lat="41.80214" lon="9.14084">
        <ele>1241</ele>
        <time>2021-06-03T07:01:21Z</time>
      </trkpt>
      <trkpt lat="41.80215" lon="9.14084">
        <ele>1241</ele>
        <time>2021-06-03T07:01:22Z</time>
      </trkpt>
      <trkpt lat="41.80216" lon="9.14085">
        <ele>1242</ele>
        <time>2021-06-03T07:01:23Z</time>
      </trkpt>
      <trkpt lat="41.80217" lon="9.14086">
        <ele>1242.2</ele>
        <time>2021-06-03T07:01:24Z</time>
      </trkpt>
      <trkpt lat="41.80218" lon="9.14086">
        <ele>1242.2</ele>
        <time>2021-06-03T07:01:25Z</time>
      </trkpt>
      <trkpt lat="41.80219" lon="9.14087">
        <ele>1242.2</ele>
        <time>2021-06-03T07:01:26Z</time>
      </trkpt>
      <trkpt lat="41.8022" lon="9.14087">
        <ele>1242.8</ele>
        <time>2021-06-03T07:01:27Z</time>
      </trkpt>
      <trkpt lat="41.80221" lon="9.14087">
        <ele>1242.6</ele>
        <time>2021-06-03T07:01:28Z</time>
      </trkpt>
      <trkpt lat="41.80222" lon="9.14088">
        <ele>1242.6</ele>
        <time>2021-06-03T07:01:29Z</time>
      </trkpt>
      <trkpt lat="41.80223" lon="9.14088">
        <ele>1242.6</ele>
        <time>2021-06-03T07:01:30Z</time>
      </trkpt>
      <trkpt lat="41.80223" lon="9.14088">
        <ele>1243.4</ele>
        <time>2021-06-03T07:01:31Z</time>
      </trkpt>
      <trkpt lat="41.80224" lon="9.14089">
        <ele>1243.8</ele>
        <time>2021-06-03T07:01:32Z</time>
      </trkpt>
      <trkpt lat="41.80225" lon="9.14089">
        <ele>1243.8</ele>
        <time>2021-06-03T07:01:33Z</time>
      </trkpt>
      <trkpt lat="41.80226" lon="9.14089">
        <ele>1243.8</ele>
        <time>2021-06-03T07:01:34Z</time>
      </trkpt>
      <trkpt lat="41.80228" lon="9.14089">
        <ele>1243.8</ele>
        <time>2021-06-03T07:01:35Z</time>
      </trkpt>
      <trkpt lat="41.80229" lon="9.14089">
        <ele>1244.2</ele>
        <time>2021-06-03T07:01:36Z</time>
      </trkpt>
      <trkpt lat="41.8023" lon="9.14089">
        <ele>1244.2</ele>
        <time>2021-06-03T07:01:37Z</time>
      </trkpt>
      <trkpt lat="41.80231" lon="9.14089">
        <ele>1244.2</ele>
        <time>2021-06-03T07:01:38Z</time>
      </trkpt>
      <trkpt lat="41.80232" lon="9.14089">
        <ele>1244.8</ele>
        <time>2021-06-03T07:01:39Z</time>
      </trkpt>
      <trkpt lat="41.80233" lon="9.14089">
        <ele>1245</ele>
        <time>2021-06-03T07:01:40Z</time>
      </trkpt>
      <trkpt lat="41.80234" lon="9.14089">
        <ele>1245</ele>
        <time>2021-06-03T07:01:41Z</time>
      </trkpt>
      <trkpt lat="41.80235" lon="9.14089">
        <ele>1245</ele>
        <time>2021-06-03T07:01:42Z</time>
      </trkpt>
      <trkpt lat="41.80236" lon="9.14089">
        <ele>1245</ele>
        <time>2021-06-03T07:01:43Z</time>
      </trkpt>
      <trkpt lat="41.80237" lon="9.14089">
        <ele>1245.2</ele>
        <time>2021-06-03T07:01:44Z</time>
      </trkpt>
      <trkpt lat="41.80238" lon="9.1409">
        <ele>1245.2</ele>
        <time>2021-06-03T07:01:45Z</time>
      </trkpt>
      <trkpt lat="41.80239" lon="9.1409">
        <ele>1245.2</ele>
        <time>2021-06-03T07:01:46Z</time>
      </trkpt>
      <trkpt lat="41.8024" lon="9.1409">
        <ele>1245.8</ele>
        <time>2021-06-03T07:01:47Z</time>
      </trkpt>
      <trkpt lat="41.80241" lon="9.1409">
        <ele>1245.8</ele>
        <time>2021-06-03T07:01:48Z</time>
      </trkpt>
      <trkpt lat="41.80242" lon="9.1409">
        <ele>1245.8</ele>
        <time>2021-06-03T07:01:49Z</time>
      </trkpt>
      <trkpt lat="41.80243" lon="9.1409">
        <ele>1245.8</ele>
        <time>2021-06-03T07:01:50Z</time>
      </trkpt>
      <trkpt lat="41.80244" lon="9.1409">
        <ele>1246.2</ele>
        <time>2021-06-03T07:01:51Z</time>
      </trkpt>
      <trkpt lat="41.80245" lon="9.14089">
        <ele>1246.4</ele>
        <time>2021-06-03T07:01:52Z</time>
      </trkpt>
      <trkpt lat="41.80247" lon="9.14089">
        <ele>1246.4</ele>
        <time>2021-06-03T07:01:53Z</time>
      </trkpt>
      <trkpt lat="41.80248" lon="9.14088">
        <ele>1246.4</ele>
        <time>2021-06-03T07:01:54Z</time>
      </trkpt>
      <trkpt lat="41.80249" lon="9.14088">
        <ele>1246.4</ele>
        <time>2021-06-03T07:01:55Z</time>
      </trkpt>
      <trkpt lat="41.8025" lon="9.14088">
        <ele>1246.6</ele>
        <time>2021-06-03T07:01:56Z</time>
      </trkpt>
      <trkpt lat="41.80251" lon="9.14087">
        <ele>1246.6</ele>
        <time>2021-06-03T07:01:57Z</time>
      </trkpt>
      <trkpt lat="41.80252" lon="9.14086">
        <ele>1246.6</ele>
        <time>2021-06-03T07:01:58Z</time>
      </trkpt>
      <trkpt lat="41.80253" lon="9.14086">
        <ele>1247</ele>
        <time>2021-06-03T07:01:59Z</time>
      </trkpt>
      <trkpt lat="41.80253" lon="9.14085">
        <ele>1247</ele>
        <time>2021-06-03T07:02:00Z</time>
      </trkpt>
      <trkpt lat="41.80254" lon="9.14085">
        <ele>1247</ele>
        <time>2021-06-03T07:02:01Z</time>
      </trkpt>
      <trkpt lat="41.80255" lon="9.14084">
        <ele>1247</ele>
        <time>2021-06-03T07:02:02Z</time>
      </trkpt>
      <trkpt lat="41.80256" lon="9.14083">
        <ele>1247.6</ele>
        <time>2021-06-03T07:02:03Z</time>
      </trkpt>
      <trkpt lat="41.80257" lon="9.14083">
        <ele>1247.8</ele>
        <time>2021-06-03T07:02:04Z</time>
      </trkpt>
      <trkpt lat="41.80258" lon="9.14082">
        <ele>1247.8</ele>
        <time>2021-06-03T07:02:05Z</time>
      </trkpt>
      <trkpt lat="41.80259" lon="9.14082">
        <ele>1247.8</ele>
        <time>2021-06-03T07:02:06Z</time>
      </trkpt>
      <trkpt lat="41.8026" lon="9.14081">
        <ele>1247.8</ele>
        <time>2021-06-03T07:02:07Z</time>
      </trkpt>
      <trkpt lat="41.80261" lon="9.14081">
        <ele>1248.6</ele>
        <time>2021-06-03T07:02:08Z</time>
      </trkpt>
      <trkpt lat="41.80262" lon="9.1408">
        <ele>1248.6</ele>
        <time>2021-06-03T07:02:09Z</time>
      </trkpt>
      <trkpt lat="41.80263" lon="9.1408">
        <ele>1248.6</ele>
        <time>2021-06-03T07:02:10Z</time>
      </trkpt>
      <trkpt lat="41.80264" lon="9.14079">
        <ele>1248.8</ele>
        <time>2021-06-03T07:02:11Z</time>
      </trkpt>
      <trkpt lat="41.80265" lon="9.14079">
        <ele>1249</ele>
        <time>2021-06-03T07:02:12Z</time>
      </trkpt>
      <trkpt lat="41.80266" lon="9.14078">
        <ele>1249</ele>
        <time>2021-06-03T07:02:13Z</time>
      </trkpt>
      <trkpt lat="41.80267" lon="9.14077">
        <ele>1249</ele>
        <time>2021-06-03T07:02:14Z</time>
      </trkpt>
      <trkpt lat="41.80268" lon="9.14076">
        <ele>1249.2</ele>
        <time>2021-06-03T07:02:15Z</time>
      </trkpt>
      <trkpt lat="41.80269" lon="9.14075">
        <ele>1249.4</ele>
        <time>2021-06-03T07:02:16Z</time>
      </trkpt>
      <trkpt lat="41.80269" lon="9.14075">
        <ele>1249.4</ele>
        <time>2021-06-03T07:02:17Z</time>
      </trkpt>
      <trkpt lat="41.8027" lon="9.14074">
        <ele>1249.4</ele>
        <time>2021-06-03T07:02:18Z</time>
      </trkpt>
      <trkpt lat="41.80271" lon="9.14073">
        <ele>1249.4</ele>
        <time>2021-06-03T07:02:19Z</time>
      </trkpt>
      <trkpt lat="41.80272" lon="9.14072">
        <ele>1250</ele>
        <time>2021-06-03T07:02:20Z</time>
      </trkpt>
      <trkpt lat="41.80273" lon="9.14071">
        <ele>1250</ele>
        <time>2021-06-03T07:02:21Z</time>
      </trkpt>
      <trkpt lat="41.80274" lon="9.14071">
        <ele>1250</ele>
        <time>2021-06-03T07:02:22Z</time>
      </trkpt>
      <trkpt lat="41.80275" lon="9.1407">
        <ele>1250.8</ele>
        <time>2021-06-03T07:02:23Z</time>
      </trkpt>
      <trkpt lat="41.80276" lon="9.14069">
        <ele>1250.6</ele>
        <time>2021-06-03T07:02:24Z</time>
      </trkpt>
      <trkpt lat="41.80276" lon="9.14068">
        <ele>1250.6</ele>
        <time>2021-06-03T07:02:25Z</time>
      </trkpt>
      <trkpt lat="41.80277" lon="9.14068">
        <ele>1250.6</ele>
        <time>2021-06-03T07:02:26Z</time>
      </trkpt>
      <trkpt lat="41.80278" lon="9.14067">
        <ele>1251.2</ele>
        <time>2021-06-03T07:02:27Z</time>
      </trkpt>
      <trkpt lat="41.80279" lon="9.14066">
        <ele>1251.2</ele>
        <time>2021-06-03T07:02:28Z</time>
      </trkpt>
      <trkpt lat="41.80279" lon="9.14065">
        <ele>1251.2</ele>
        <time>2021-06-03T07:02:29Z</time>
      </trkpt>
      <trkpt lat="41.8028" lon="9.14064">
        <ele>1251.2</ele>
        <time>2021-06-03T07:02:30Z</time>
      </trkpt>
      <trkpt lat="41.80281" lon="9.14062">
        <ele>1251.2</ele>
        <time>2021-06-03T07:02:31Z</time>
      </trkpt>
      <trkpt lat="41.80281" lon="9.14061">
        <ele>1251.6</ele>
        <time>2021-06-03T07:02:32Z</time>
      </trkpt>
      <trkpt lat="41.80281" lon="9.14059">
        <ele>1251.6</ele>
        <time>2021-06-03T07:02:33Z</time>
      </trkpt>
      <trkpt lat="41.80281" lon="9.14057">
        <ele>1251.6</ele>
        <time>2021-06-03T07:02:34Z</time>
      </trkpt>
      <trkpt lat="41.80281" lon="9.14056">
        <ele>1252</ele>
        <time>2021-06-03T07:02:35Z</time>
      </trkpt>
      <trkpt lat="41.8028" lon="9.14054">
        <ele>1252</ele>
        <time>2021-06-03T07:02:36Z</time>
      </trkpt>
      <trkpt lat="41.80279" lon="9.14053">
        <ele>1252</ele>
        <time>2021-06-03T07:02:37Z</time>
      </trkpt>
      <trkpt lat="41.80278" lon="9.14052">
        <ele>1252</ele>
        <time>2021-06-03T07:02:38Z</time>
      </trkpt>
      <trkpt lat="41.80276" lon="9.14052">
        <ele>1251.4</ele>
        <time>2021-06-03T07:02:39Z</time>
      </trkpt>
      <trkpt lat="41.80275" lon="9.14051">
        <ele>1251.2</ele>
        <time>2021-06-03T07:02:40Z</time>
      </trkpt>
      <trkpt lat="41.80273" lon="9.14051">
        <ele>1251.2</ele>
        <time>2021-06-03T07:02:41Z</time>
      </trkpt>
      <trkpt lat="41.80272" lon="9.14051">
        <ele>1251.2</ele>
        <time>2021-06-03T07:02:42Z</time>
      </trkpt>
      <trkpt lat="41.80271" lon="9.14051">
        <ele>1251.8</ele>
        <time>2021-06-03T07:02:43Z</time>
      </trkpt>
      <trkpt lat="41.80269" lon="9.14051">
        <ele>1251.6</ele>
        <time>2021-06-03T07:02:44Z</time>
      </trkpt>
      <trkpt lat="41.80268" lon="9.14052">
        <ele>1251.6</ele>
        <time>2021-06-03T07:02:45Z</time>
      </trkpt>
      <trkpt lat="41.80266" lon="9.14053">
        <ele>1251.6</ele>
        <time>2021-06-03T07:02:46Z</time>
      </trkpt>
      <trkpt lat="41.80265" lon="9.14054">
        <ele>1251.8</ele>
        <time>2021-06-03T07:02:47Z</time>
      </trkpt>
      <trkpt lat="41.80264" lon="9.14054">
        <ele>1252</ele>
        <time>2021-06-03T07:02:48Z</time>
      </trkpt>
      <trkpt lat="41.80262" lon="9.14054">
        <ele>1252</ele>
        <time>2021-06-03T07:02:49Z</time>
      </trkpt>
      <trkpt lat="41.80261" lon="9.14055">
        <ele>1252</ele>
        <time>2021-06-03T07:02:50Z</time>
      </trkpt>
      <trkpt lat="41.8026" lon="9.14056">
        <ele>1252.8</ele>
        <time>2021-06-03T07:02:51Z</time>
      </trkpt>
      <trkpt lat="41.80259" lon="9.14057">
        <ele>1253</ele>
        <time>2021-06-03T07:02:52Z</time>
      </trkpt>
      <trkpt lat="41.80258" lon="9.14057">
        <ele>1253</ele>
        <time>2021-06-03T07:02:53Z</time>
      </trkpt>
      <trkpt lat="41.80256" lon="9.14058">
        <ele>1253</ele>
        <time>2021-06-03T07:02:54Z</time>
      </trkpt>
      <trkpt lat="41.80255" lon="9.14058">
        <ele>1253</ele>
        <time>2021-06-03T07:02:55Z</time>
      </trkpt>
      <trkpt lat="41.80254" lon="9.14058">
        <ele>1252.8</ele>
        <time>2021-06-03T07:02:56Z</time>
      </trkpt>
      <trkpt lat="41.80252" lon="9.14058">
        <ele>1252.8</ele>
        <time>2021-06-03T07:02:57Z</time>
      </trkpt>
      <trkpt lat="41.80251" lon="9.14058">
        <ele>1252.8</ele>
        <time>2021-06-03T07:02:58Z</time>
      </trkpt>
      <trkpt lat="41.80249" lon="9.14058">
        <ele>1252.8</ele>
        <time>2021-06-03T07:02:59Z</time>
      </trkpt>
      <trkpt lat="41.80248" lon="9.14058">
        <ele>1253</ele>
        <time>2021-06-03T07:03:00Z</time>
      </trkpt>
      <trkpt lat="41.80246" lon="9.14058">
        <ele>1253</ele>
        <time>2021-06-03T07:03:01Z</time>
      </trkpt>
      <trkpt lat="41.80245" lon="9.14058">
        <ele>1253</ele>
        <time>2021-06-03T07:03:02Z</time>
      </trkpt>
      <trkpt lat="41.80244" lon="9.14058">
        <ele>1253</ele>
        <time>2021-06-03T07:03:03Z</time>
      </trkpt>
      <trkpt lat="41.80243" lon="9.14057">
        <ele>1253.6</ele>
        <time>2021-06-03T07:03:04Z</time>
      </trkpt>
      <trkpt lat="41.80241" lon="9.14057">
        <ele>1253.6</ele>
        <time>2021-06-03T07:03:05Z</time>
      </trkpt>
      <trkpt lat="41.8024" lon="9.14056">
        <ele>1253.6</ele>
        <time>2021-06-03T07:03:06Z</time>
      </trkpt>
      <trkpt lat="41.80239" lon="9.14056">
        <ele>1253.6</ele>
        <time>2021-06-03T07:03:07Z</time>
      </trkpt>
      <trkpt lat="41.80237" lon="9.14055">
        <ele>1254</ele>
        <time>2021-06-03T07:03:08Z</time>
      </trkpt>
      <trkpt lat="41.80236" lon="9.14055">
        <ele>1254</ele>
        <time>2021-06-03T07:03:09Z</time>
      </trkpt>
      <trkpt lat="41.80235" lon="9.14054">
        <ele>1254</ele>
        <time>2021-06-03T07:03:10Z</time>
      </trkpt>
      <trkpt lat="41.80234" lon="9.14052">
        <ele>1254</ele>
        <time>2021-06-03T07:03:11Z</time>
      </trkpt>
      <trkpt lat="41.80233" lon="9.1405">
        <ele>1254</ele>
        <time>2021-06-03T07:03:12Z</time>
      </trkpt>
      <trkpt lat="41.80233" lon="9.14049">
        <ele>1254.2</ele>
        <time>2021-06-03T07:03:13Z</time>
      </trkpt>
      <trkpt lat="41.80233" lon="9.14047">
        <ele>1254.2</ele>
        <time>2021-06-03T07:03:14Z</time>
      </trkpt>
      <trkpt lat="41.80233" lon="9.14045">
        <ele>1254.2</ele>
        <time>2021-06-03T07:03:15Z</time>
      </trkpt>
      <trkpt lat="41.80234" lon="9.14043">
        <ele>1254.4</ele>
        <time>2021-06-03T07:03:16Z</time>
      </trkpt>
      <trkpt lat="41.80235" lon="9.14041">
        <ele>1254.4</ele>
        <time>2021-06-03T07:03:17Z</time>
      </trkpt>
      <trkpt lat="41.80236" lon="9.1404">
        <ele>1254.4</ele>
        <time>2021-06-03T07:03:18Z</time>
      </trkpt>
      <trkpt lat="41.80237" lon="9.14039">
        <ele>1254.4</ele>
        <time>2021-06-03T07:03:19Z</time>
      </trkpt>
      <trkpt lat="41.80238" lon="9.14039">
        <ele>1254.8</ele>
        <time>2021-06-03T07:03:20Z</time>
      </trkpt>
      <trkpt lat="41.8024" lon="9.14038">
        <ele>1254.8</ele>
        <time>2021-06-03T07:03:21Z</time>
      </trkpt>
      <trkpt lat="41.80241" lon="9.14038">
        <ele>1254.8</ele>
        <time>2021-06-03T07:03:22Z</time>
      </trkpt>
      <trkpt lat="41.80242" lon="9.14037">
        <ele>1254.8</ele>
        <time>2021-06-03T07:03:23Z</time>
      </trkpt>
      <trkpt lat="41.80243" lon="9.14037">
        <ele>1255</ele>
        <time>2021-06-03T07:03:24Z</time>
      </trkpt>
      <trkpt lat="41.80245" lon="9.14037">
        <ele>1255</ele>
        <time>2021-06-03T07:03:25Z</time>
      </trkpt>
      <trkpt lat="41.80246" lon="9.14038">
        <ele>1255</ele>
        <time>2021-06-03T07:03:26Z</time>
      </trkpt>
      <trkpt lat="41.80247" lon="9.14038">
        <ele>1255.4</ele>
        <time>2021-06-03T07:03:27Z</time>
      </trkpt>
      <trkpt lat="41.80248" lon="9.14038">
        <ele>1255.8</ele>
        <time>2021-06-03T07:03:28Z</time>
      </trkpt>
      <trkpt lat="41.8025" lon="9.14038">
        <ele>1255.8</ele>
        <time>2021-06-03T07:03:29Z</time>
      </trkpt>
      <trkpt lat="41.80251" lon="9.14039">
        <ele>1255.8</ele>
        <time>2021-06-03T07:03:30Z</time>
      </trkpt>
      <trkpt lat="41.80252" lon="9.14039">
        <ele>1256.2</ele>
        <time>2021-06-03T07:03:31Z</time>
      </trkpt>
      <trkpt lat="41.80253" lon="9.14039">
        <ele>1256.4</ele>
        <time>2021-06-03T07:03:32Z</time>
      </trkpt>
      <trkpt lat="41.80255" lon="9.14039">
        <ele>1256.4</ele>
        <time>2021-06-03T07:03:33Z</time>
      </trkpt>
      <trkpt lat="41.80256" lon="9.14039">
        <ele>1256.4</ele>
        <time>2021-06-03T07:03:34Z</time>
      </trkpt>
      <trkpt lat="41.80257" lon="9.14039">
        <ele>1256.4</ele>
        <time>2021-06-03T07:03:35Z</time>
      </trkpt>
      <trkpt lat="41.80258" lon="9.14039">
        <ele>1256.8</ele>
        <time>2021-06-03T07:03:36Z</time>
      </trkpt>
      <trkpt lat="41.80259" lon="9.14039">
        <ele>1256.8</ele>
        <time>2021-06-03T07:03:37Z</time>
      </trkpt>
      <trkpt lat="41.8026" lon="9.14039">
        <ele>1256.8</ele>
        <time>2021-06-03T07:03:38Z</time>
      </trkpt>
      <trkpt lat="41.80262" lon="9.14039">
        <ele>1256.8</ele>
        <time>2021-06-03T07:03:39Z</time>
      </trkpt>
      <trkpt lat="41.80263" lon="9.14038">
        <ele>1257</ele>
        <time>2021-06-03T07:03:40Z</time>
      </trkpt>
      <trkpt lat="41.80264" lon="9.14038">
        <ele>1257</ele>
        <time>2021-06-03T07:03:41Z</time>
      </trkpt>
      <trkpt lat="41.80265" lon="9.14038">
        <ele>1257</ele>
        <time>2021-06-03T07:03:42Z</time>
      </trkpt>
      <trkpt lat="41.80266" lon="9.14038">
        <ele>1257</ele>
        <time>2021-06-03T07:03:43Z</time>
      </trkpt>
      <trkpt lat="41.80268" lon="9.14037">
        <ele>1257.6</ele>
        <time>2021-06-03T07:03:44Z</time>
      </trkpt>
      <trkpt lat="41.80269" lon="9.14037">
        <ele>1257.6</ele>
        <time>2021-06-03T07:03:45Z</time>
      </trkpt>
      <trkpt lat="41.8027" lon="9.14036">
        <ele>1257.6</ele>
        <time>2021-06-03T07:03:46Z</time>
      </trkpt>
      <trkpt lat="41.80271" lon="9.14036">
        <ele>1257.8</ele>
        <time>2021-06-03T07:03:47Z</time>
      </trkpt>
      <trkpt lat="41.80272" lon="9.14035">
        <ele>1258.2</ele>
        <time>2021-06-03T07:03:48Z</time>
      </trkpt>
      <trkpt lat="41.80273" lon="9.14035">
        <ele>1258.2</ele>
        <time>2021-06-03T07:03:49Z</time>
      </trkpt>
      <trkpt lat="41.80274" lon="9.14035">
        <ele>1258.2</ele>
        <time>2021-06-03T07:03:50Z</time>
      </trkpt>
      <trkpt lat="41.80275" lon="9.14034">
        <ele>1258.2</ele>
        <time>2021-06-03T07:03:51Z</time>
      </trkpt>
      <trkpt lat="41.80276" lon="9.14033">
        <ele>1258.4</ele>
        <time>2021-06-03T07:03:52Z</time>
      </trkpt>
      <trkpt lat="41.80277" lon="9.14033">
        <ele>1258.4</ele>
        <time>2021-06-03T07:03:53Z</time>
      </trkpt>
      <trkpt lat="41.80279" lon="9.14032">
        <ele>1258.4</ele>
        <time>2021-06-03T07:03:54Z</time>
      </trkpt>
      <trkpt lat="41.8028" lon="9.14031">
        <ele>1258.6</ele>
        <time>2021-06-03T07:03:55Z</time>
      </trkpt>
      <trkpt lat="41.80281" lon="9.1403">
        <ele>1258.8</ele>
        <time>2021-06-03T07:03:56Z</time>
      </trkpt>
      <trkpt lat="41.80282" lon="9.14029">
        <ele>1258.8</ele>
        <time>2021-06-03T07:03:57Z</time>
      </trkpt>
      <trkpt lat="41.80283" lon="9.14028">
        <ele>1258.8</ele>
        <time>2021-06-03T07:03:58Z</time>
      </trkpt>
      <trkpt lat="41.80284" lon="9.14027">
        <ele>1259</ele>
        <time>2021-06-03T07:03:59Z</time>
      </trkpt>
      <trkpt lat="41.80285" lon="9.14027">
        <ele>1259.6</ele>
        <time>2021-06-03T07:04:00Z</time>
      </trkpt>
      <trkpt lat="41.80286" lon="9.14026">
        <ele>1259.6</ele>
        <time>2021-06-03T07:04:01Z</time>
      </trkpt>
      <trkpt lat="41.80287" lon="9.14026">
        <ele>1259.6</ele>
        <time>2021-06-03T07:04:02Z</time>
      </trkpt>
      <trkpt lat="41.80288" lon="9.14025">
        <ele>1259.6</ele>
        <time>2021-06-03T07:04:03Z</time>
      </trkpt>
      <trkpt lat="41.80289" lon="9.14025">
        <ele>1259.8</ele>
        <time>2021-06-03T07:04:04Z</time>
      </trkpt>
      <trkpt lat="41.8029" lon="9.14024">
        <ele>1259.8</ele>
        <time>2021-06-03T07:04:05Z</time>
      </trkpt>
      <trkpt lat="41.80291" lon="9.14023">
        <ele>1259.8</ele>
        <time>2021-06-03T07:04:06Z</time>
      </trkpt>
      <trkpt lat="41.80292" lon="9.14022">
        <ele>1259.8</ele>
        <time>2021-06-03T07:04:07Z</time>
      </trkpt>
      <trkpt lat="41.80293" lon="9.14022">
        <ele>1260.4</ele>
        <time>2021-06-03T07:04:08Z</time>
      </trkpt>
      <trkpt lat="41.80294" lon="9.14021">
        <ele>1260.4</ele>
        <time>2021-06-03T07:04:09Z</time>
      </trkpt>
      <trkpt lat="41.80295" lon="9.1402">
        <ele>1260.4</ele>
        <time>2021-06-03T07:04:10Z</time>
      </trkpt>
      <trkpt lat="41.80296" lon="9.14019">
        <ele>1260.4</ele>
        <time>2021-06-03T07:04:11Z</time>
      </trkpt>
      <trkpt lat="41.80297" lon="9.14017">
        <ele>1260.6</ele>
        <time>2021-06-03T07:04:12Z</time>
      </trkpt>
      <trkpt lat="41.80297" lon="9.14016">
        <ele>1260.6</ele>
        <time>2021-06-03T07:04:13Z</time>
      </trkpt>
      <trkpt lat="41.80298" lon="9.14015">
        <ele>1260.6</ele>
        <time>2021-06-03T07:04:14Z</time>
      </trkpt>
      <trkpt lat="41.80298" lon="9.14013">
        <ele>1261</ele>
        <time>2021-06-03T07:04:15Z</time>
      </trkpt>
      <trkpt lat="41.80299" lon="9.14012">
        <ele>1260.6</ele>
        <time>2021-06-03T07:04:16Z</time>
      </trkpt>
      <trkpt lat="41.803" lon="9.14011">
        <ele>1260.6</ele>
        <time>2021-06-03T07:04:17Z</time>
      </trkpt>
      <trkpt lat="41.803" lon="9.14009">
        <ele>1260.6</ele>
        <time>2021-06-03T07:04:18Z</time>
      </trkpt>
      <trkpt lat="41.80301" lon="9.14008">
        <ele>1261</ele>
        <time>2021-06-03T07:04:19Z</time>
      </trkpt>
      <trkpt lat="41.80302" lon="9.14007">
        <ele>1261.4</ele>
        <time>2021-06-03T07:04:20Z</time>
      </trkpt>
      <trkpt lat="41.80302" lon="9.14006">
        <ele>1261.4</ele>
        <time>2021-06-03T07:04:21Z</time>
      </trkpt>
      <trkpt lat="41.80303" lon="9.14004">
        <ele>1261.4</ele>
        <time>2021-06-03T07:04:22Z</time>
      </trkpt>
      <trkpt lat="41.80303" lon="9.14003">
        <ele>1262.4</ele>
        <time>2021-06-03T07:04:23Z</time>
      </trkpt>
      <trkpt lat="41.80304" lon="9.14001">
        <ele>1262.2</ele>
        <time>2021-06-03T07:04:24Z</time>
      </trkpt>
      <trkpt lat="41.80304" lon="9.14">
        <ele>1262.2</ele>
        <time>2021-06-03T07:04:25Z</time>
      </trkpt>
      <trkpt lat="41.80305" lon="9.13999">
        <ele>1262.2</ele>
        <time>2021-06-03T07:04:26Z</time>
      </trkpt>
      <trkpt lat="41.80305" lon="9.13997">
        <ele>1263</ele>
        <time>2021-06-03T07:04:27Z</time>
      </trkpt>
      <trkpt lat="41.80306" lon="9.13996">
        <ele>1263</ele>
        <time>2021-06-03T07:04:28Z</time>
      </trkpt>
      <trkpt lat="41.80306" lon="9.13995">
        <ele>1263</ele>
        <time>2021-06-03T07:04:29Z</time>
      </trkpt>
      <trkpt lat="41.80306" lon="9.13993">
        <ele>1263</ele>
        <time>2021-06-03T07:04:30Z</time>
      </trkpt>
      <trkpt lat="41.80307" lon="9.13992">
        <ele>1263.4</ele>
        <time>2021-06-03T07:04:31Z</time>
      </trkpt>
      <trkpt lat="41.80307" lon="9.13991">
        <ele>1264</ele>
        <time>2021-06-03T07:04:32Z</time>
      </trkpt>
      <trkpt lat="41.80307" lon="9.13989">
        <ele>1264</ele>
        <time>2021-06-03T07:04:33Z</time>
      </trkpt>
      <trkpt lat="41.80308" lon="9.13988">
        <ele>1264</ele>
        <time>2021-06-03T07:04:34Z</time>
      </trkpt>
      <trkpt lat="41.80308" lon="9.13986">
        <ele>1264</ele>
        <time>2021-06-03T07:04:35Z</time>
      </trkpt>
      <trkpt lat="41.80308" lon="9.13985">
        <ele>1264.4</ele>
        <time>2021-06-03T07:04:36Z</time>
      </trkpt>
      <trkpt lat="41.80308" lon="9.13983">
        <ele>1264.4</ele>
        <time>2021-06-03T07:04:37Z</time>
      </trkpt>
      <trkpt lat="41.80309" lon="9.13982">
        <ele>1264.4</ele>
        <time>2021-06-03T07:04:38Z</time>
      </trkpt>
      <trkpt lat="41.80308" lon="9.1398">
        <ele>1264.4</ele>
        <time>2021-06-03T07:04:39Z</time>
      </trkpt>
      <trkpt lat="41.80308" lon="9.13979">
        <ele>1264.8</ele>
        <time>2021-06-03T07:04:40Z</time>
      </trkpt>
      <trkpt lat="41.80308" lon="9.13977">
        <ele>1264.8</ele>
        <time>2021-06-03T07:04:41Z</time>
      </trkpt>
      <trkpt lat="41.80308" lon="9.13976">
        <ele>1264.8</ele>
        <time>2021-06-03T07:04:42Z</time>
      </trkpt>
      <trkpt lat="41.80308" lon="9.13974">
        <ele>1265.2</ele>
        <time>2021-06-03T07:04:43Z</time>
      </trkpt>
      <trkpt lat="41.80307" lon="9.13973">
        <ele>1265</ele>
        <time>2021-06-03T07:04:44Z</time>
      </trkpt>
      <trkpt lat="41.80306" lon="9.13972">
        <ele>1265</ele>
        <time>2021-06-03T07:04:45Z</time>
      </trkpt>
      <trkpt lat="41.80305" lon="9.1397">
        <ele>1265</ele>
        <time>2021-06-03T07:04:46Z</time>
      </trkpt>
      <trkpt lat="41.80305" lon="9.13969">
        <ele>1265.2</ele>
        <time>2021-06-03T07:04:47Z</time>
      </trkpt>
      <trkpt lat="41.80304" lon="9.13968">
        <ele>1265.4</ele>
        <time>2021-06-03T07:04:48Z</time>
      </trkpt>
      <trkpt lat="41.80303" lon="9.13967">
        <ele>1265.4</ele>
        <time>2021-06-03T07:04:49Z</time>
      </trkpt>
      <trkpt lat="41.80303" lon="9.13965">
        <ele>1265.4</ele>
        <time>2021-06-03T07:04:50Z</time>
      </trkpt>
      <trkpt lat="41.80302" lon="9.13964">
        <ele>1266</ele>
        <time>2021-06-03T07:04:51Z</time>
      </trkpt>
      <trkpt lat="41.80301" lon="9.13963">
        <ele>1265.8</ele>
        <time>2021-06-03T07:04:52Z</time>
      </trkpt>
      <trkpt lat="41.803" lon="9.13962">
        <ele>1265.8</ele>
        <time>2021-06-03T07:04:53Z</time>
      </trkpt>
      <trkpt lat="41.803" lon="9.13961">
        <ele>1265.8</ele>
        <time>2021-06-03T07:04:54Z</time>
      </trkpt>
      <trkpt lat="41.80299" lon="9.13959">
        <ele>1266.8</ele>
        <time>2021-06-03T07:04:55Z</time>
      </trkpt>
      <trkpt lat="41.80299" lon="9.13957">
        <ele>1267</ele>
        <time>2021-06-03T07:04:56Z</time>
      </trkpt>
      <trkpt lat="41.80298" lon="9.13956">
        <ele>1267</ele>
        <time>2021-06-03T07:04:57Z</time>
      </trkpt>
      <trkpt lat="41.80298" lon="9.13954">
        <ele>1267</ele>
        <time>2021-06-03T07:04:58Z</time>
      </trkpt>
      <trkpt lat="41.80297" lon="9.13953">
        <ele>1267</ele>
        <time>2021-06-03T07:04:59Z</time>
      </trkpt>
      <trkpt lat="41.80296" lon="9.13952">
        <ele>1267.4</ele>
        <time>2021-06-03T07:05:00Z</time>
      </trkpt>
      <trkpt lat="41.80296" lon="9.1395">
        <ele>1267.4</ele>
        <time>2021-06-03T07:05:01Z</time>
      </trkpt>
      <trkpt lat="41.80295" lon="9.13948">
        <ele>1267.4</ele>
        <time>2021-06-03T07:05:02Z</time>
      </trkpt>
      <trkpt lat="41.80295" lon="9.13947">
        <ele>1267.8</ele>
        <time>2021-06-03T07:05:03Z</time>
      </trkpt>
      <trkpt lat="41.80295" lon="9.13945">
        <ele>1268.2</ele>
        <time>2021-06-03T07:05:04Z</time>
      </trkpt>
      <trkpt lat="41.80295" lon="9.13943">
        <ele>1268.2</ele>
        <time>2021-06-03T07:05:05Z</time>
      </trkpt>
      <trkpt lat="41.80295" lon="9.13942">
        <ele>1268.2</ele>
        <time>2021-06-03T07:05:06Z</time>
      </trkpt>
      <trkpt lat="41.80296" lon="9.1394">
        <ele>1268.2</ele>
        <time>2021-06-03T07:05:07Z</time>
      </trkpt>
      <trkpt lat="41.80297" lon="9.13939">
        <ele>1268.4</ele>
        <time>2021-06-03T07:05:08Z</time>
      </trkpt>
      <trkpt lat="41.80297" lon="9.13938">
        <ele>1268.4</ele>
        <time>2021-06-03T07:05:09Z</time>
      </trkpt>
      <trkpt lat="41.80298" lon="9.13937">
        <ele>1268.4</ele>
        <time>2021-06-03T07:05:10Z</time>
      </trkpt>
      <trkpt lat="41.80299" lon="9.13936">
        <ele>1268.4</ele>
        <time>2021-06-03T07:05:11Z</time>
      </trkpt>
      <trkpt lat="41.803" lon="9.13935">
        <ele>1268.8</ele>
        <time>2021-06-03T07:05:12Z</time>
      </trkpt>
      <trkpt lat="41.803" lon="9.13934">
        <ele>1268.8</ele>
        <time>2021-06-03T07:05:13Z</time>
      </trkpt>
      <trkpt lat="41.80301" lon="9.13932">
        <ele>1268.8</ele>
        <time>2021-06-03T07:05:14Z</time>
      </trkpt>
      <trkpt lat="41.80301" lon="9.13931">
        <ele>1268.8</ele>
        <time>2021-06-03T07:05:15Z</time>
      </trkpt>
      <trkpt lat="41.80302" lon="9.1393">
        <ele>1269.4</ele>
        <time>2021-06-03T07:05:16Z</time>
      </trkpt>
      <trkpt lat="41.80302" lon="9.13928">
        <ele>1269.4</ele>
        <time>2021-06-03T07:05:17Z</time>
      </trkpt>
      <trkpt lat="41.80303" lon="9.13927">
        <ele>1269.4</ele>
        <time>2021-06-03T07:05:18Z</time>
      </trkpt>
      <trkpt lat="41.80304" lon="9.13926">
        <ele>1269.2</ele>
        <time>2021-06-03T07:05:19Z</time>
      </trkpt>
      <trkpt lat="41.80305" lon="9.13925">
        <ele>1269.4</ele>
        <time>2021-06-03T07:05:20Z</time>
      </trkpt>
      <trkpt lat="41.80306" lon="9.13924">
        <ele>1269.4</ele>
        <time>2021-06-03T07:05:21Z</time>
      </trkpt>
      <trkpt lat="41.80307" lon="9.13923">
        <ele>1269.4</ele>
        <time>2021-06-03T07:05:22Z</time>
      </trkpt>
      <trkpt lat="41.80308" lon="9.13923">
        <ele>1269.8</ele>
        <time>2021-06-03T07:05:23Z</time>
      </trkpt>
      <trkpt lat="41.80309" lon="9.13922">
        <ele>1270</ele>
        <time>2021-06-03T07:05:24Z</time>
      </trkpt>
      <trkpt lat="41.80309" lon="9.1392">
        <ele>1270</ele>
        <time>2021-06-03T07:05:25Z</time>
      </trkpt>
      <trkpt lat="41.8031" lon="9.13919">
        <ele>1270</ele>
        <time>2021-06-03T07:05:26Z</time>
      </trkpt>
      <trkpt lat="41.80311" lon="9.13918">
        <ele>1270</ele>
        <time>2021-06-03T07:05:27Z</time>
      </trkpt>
      <trkpt lat="41.80311" lon="9.13916">
        <ele>1270.4</ele>
        <time>2021-06-03T07:05:28Z</time>
      </trkpt>
      <trkpt lat="41.80312" lon="9.13915">
        <ele>1270.4</ele>
        <time>2021-06-03T07:05:29Z</time>
      </trkpt>
      <trkpt lat="41.80313" lon="9.13914">
        <ele>1270.4</ele>
        <time>2021-06-03T07:05:30Z</time>
      </trkpt>
      <trkpt lat="41.80314" lon="9.13913">
        <ele>1270.4</ele>
        <time>2021-06-03T07:05:31Z</time>
      </trkpt>
      <trkpt lat="41.80315" lon="9.13911">
        <ele>1271</ele>
        <time>2021-06-03T07:05:32Z</time>
      </trkpt>
      <trkpt lat="41.80315" lon="9.1391">
        <ele>1271</ele>
        <time>2021-06-03T07:05:33Z</time>
      </trkpt>
      <trkpt lat="41.80316" lon="9.13909">
        <ele>1271</ele>
        <time>2021-06-03T07:05:34Z</time>
      </trkpt>
      <trkpt lat="41.80317" lon="9.13908">
        <ele>1271</ele>
        <time>2021-06-03T07:05:35Z</time>
      </trkpt>
      <trkpt lat="41.80318" lon="9.13907">
        <ele>1271.4</ele>
        <time>2021-06-03T07:05:36Z</time>
      </trkpt>
      <trkpt lat="41.80318" lon="9.13906">
        <ele>1271.4</ele>
        <time>2021-06-03T07:05:37Z</time>
      </trkpt>
      <trkpt lat="41.80319" lon="9.13905">
        <ele>1271.4</ele>
        <time>2021-06-03T07:05:38Z</time>
      </trkpt>
      <trkpt lat="41.8032" lon="9.13903">
        <ele>1272</ele>
        <time>2021-06-03T07:05:39Z</time>
      </trkpt>
      <trkpt lat="41.80321" lon="9.13902">
        <ele>1271.8</ele>
        <time>2021-06-03T07:05:40Z</time>
      </trkpt>
      <trkpt lat="41.80321" lon="9.13901">
        <ele>1271.8</ele>
        <time>2021-06-03T07:05:41Z</time>
      </trkpt>
      <trkpt lat="41.80322" lon="9.139">
        <ele>1271.8</ele>
        <time>2021-06-03T07:05:42Z</time>
      </trkpt>
      <trkpt lat="41.80323" lon="9.13899">
        <ele>1272</ele>
        <time>2021-06-03T07:05:43Z</time>
      </trkpt>
      <trkpt lat="41.80323" lon="9.13898">
        <ele>1272</ele>
        <time>2021-06-03T07:05:44Z</time>
      </trkpt>
      <trkpt lat="41.80324" lon="9.13896">
        <ele>1272</ele>
        <time>2021-06-03T07:05:45Z</time>
      </trkpt>
      <trkpt lat="41.80325" lon="9.13895">
        <ele>1272</ele>
        <time>2021-06-03T07:05:46Z</time>
      </trkpt>
      <trkpt lat="41.80326" lon="9.13894">
        <ele>1272.8</ele>
        <time>2021-06-03T07:05:47Z</time>
      </trkpt>
      <trkpt lat="41.80327" lon="9.13893">
        <ele>1273</ele>
        <time>2021-06-03T07:05:48Z</time>
      </trkpt>
      <trkpt lat="41.80327" lon="9.13891">
        <ele>1273</ele>
        <time>2021-06-03T07:05:49Z</time>
      </trkpt>
      <trkpt lat="41.80328" lon="9.1389">
        <ele>1273</ele>
        <time>2021-06-03T07:05:50Z</time>
      </trkpt>
      <trkpt lat="41.80329" lon="9.13889">
        <ele>1273.4</ele>
        <time>2021-06-03T07:05:51Z</time>
      </trkpt>
      <trkpt lat="41.80329" lon="9.13887">
        <ele>1273.6</ele>
        <time>2021-06-03T07:05:52Z</time>
      </trkpt>
      <trkpt lat="41.8033" lon="9.13886">
        <ele>1273.6</ele>
        <time>2021-06-03T07:05:53Z</time>
      </trkpt>
      <trkpt lat="41.80331" lon="9.13885">
        <ele>1273.6</ele>
        <time>2021-06-03T07:05:54Z</time>
      </trkpt>
      <trkpt lat="41.80332" lon="9.13883">
        <ele>1273.6</ele>
        <time>2021-06-03T07:05:55Z</time>
      </trkpt>
      <trkpt lat="41.80332" lon="9.13882">
        <ele>1274.2</ele>
        <time>2021-06-03T07:05:56Z</time>
      </trkpt>
      <trkpt lat="41.80332" lon="9.1388">
        <ele>1274.2</ele>
        <time>2021-06-03T07:05:57Z</time>
      </trkpt>
      <trkpt lat="41.80333" lon="9.13879">
        <ele>1274.2</ele>
        <time>2021-06-03T07:05:58Z</time>
      </trkpt>
      <trkpt lat="41.80333" lon="9.13877">
        <ele>1274.2</ele>
        <time>2021-06-03T07:05:59Z</time>
      </trkpt>
      <trkpt lat="41.80333" lon="9.13876">
        <ele>1274.2</ele>
        <time>2021-06-03T07:06:00Z</time>
      </trkpt>
      <trkpt lat="41.80333" lon="9.13874">
        <ele>1274.2</ele>
        <time>2021-06-03T07:06:01Z</time>
      </trkpt>
      <trkpt lat="41.80334" lon="9.13873">
        <ele>1274.2</ele>
        <time>2021-06-03T07:06:02Z</time>
      </trkpt>
      <trkpt lat="41.80334" lon="9.13871">
        <ele>1274.2</ele>
        <time>2021-06-03T07:06:03Z</time>
      </trkpt>
      <trkpt lat="41.80334" lon="9.13869">
        <ele>1274.4</ele>
        <time>2021-06-03T07:06:04Z</time>
      </trkpt>
      <trkpt lat="41.80333" lon="9.13868">
        <ele>1274.4</ele>
        <time>2021-06-03T07:06:05Z</time>
      </trkpt>
      <trkpt lat="41.80333" lon="9.13866">
        <ele>1274.4</ele>
        <time>2021-06-03T07:06:06Z</time>
      </trkpt>
      <trkpt lat="41.80333" lon="9.13865">
        <ele>1274.8</ele>
        <time>2021-06-03T07:06:07Z</time>
      </trkpt>
      <trkpt lat="41.80333" lon="9.13863">
        <ele>1274.8</ele>
        <time>2021-06-03T07:06:08Z</time>
      </trkpt>
      <trkpt lat="41.80333" lon="9.13862">
        <ele>1274.8</ele>
        <time>2021-06-03T07:06:09Z</time>
      </trkpt>
      <trkpt lat="41.80333" lon="9.1386">
        <ele>1274.8</ele>
        <time>2021-06-03T07:06:10Z</time>
      </trkpt>
      <trkpt lat="41.80333" lon="9.13858">
        <ele>1275.2</ele>
        <time>2021-06-03T07:06:11Z</time>
      </trkpt>
      <trkpt lat="41.80333" lon="9.13857">
        <ele>1275.4</ele>
        <time>2021-06-03T07:06:12Z</time>
      </trkpt>
      <trkpt lat="41.80333" lon="9.13855">
        <ele>1275.4</ele>
        <time>2021-06-03T07:06:13Z</time>
      </trkpt>
      <trkpt lat="41.80333" lon="9.13854">
        <ele>1275.4</ele>
        <time>2021-06-03T07:06:14Z</time>
      </trkpt>
      <trkpt lat="41.80333" lon="9.13852">
        <ele>1276</ele>
        <time>2021-06-03T07:06:15Z</time>
      </trkpt>
      <trkpt lat="41.80333" lon="9.13851">
        <ele>1276</ele>
        <time>2021-06-03T07:06:16Z</time>
      </trkpt>
      <trkpt lat="41.80333" lon="9.13849">
        <ele>1276</ele>
        <time>2021-06-03T07:06:17Z</time>
      </trkpt>
      <trkpt lat="41.80332" lon="9.13847">
        <ele>1276</ele>
        <time>2021-06-03T07:06:18Z</time>
      </trkpt>
      <trkpt lat="41.80332" lon="9.13846">
        <ele>1276.4</ele>
        <time>2021-06-03T07:06:19Z</time>
      </trkpt>
      <trkpt lat="41.80332" lon="9.13844">
        <ele>1276.6</ele>
        <time>2021-06-03T07:06:20Z</time>
      </trkpt>
      <trkpt lat="41.80332" lon="9.13843">
        <ele>1276.6</ele>
        <time>2021-06-03T07:06:21Z</time>
      </trkpt>
      <trkpt lat="41.80331" lon="9.13841">
        <ele>1276.6</ele>
        <time>2021-06-03T07:06:22Z</time>
      </trkpt>
      <trkpt lat="41.80332" lon="9.1384">
        <ele>1277.4</ele>
        <time>2021-06-03T07:06:23Z</time>
      </trkpt>
      <trkpt lat="41.80331" lon="9.13838">
        <ele>1277</ele>
        <time>2021-06-03T07:06:24Z</time>
      </trkpt>
      <trkpt lat="41.80331" lon="9.13836">
        <ele>1277</ele>
        <time>2021-06-03T07:06:25Z</time>
      </trkpt>
      <trkpt lat="41.80331" lon="9.13835">
        <ele>1277</ele>
        <time>2021-06-03T07:06:26Z</time>
      </trkpt>
      <trkpt lat="41.8033" lon="9.13833">
        <ele>1276.8</ele>
        <time>2021-06-03T07:06:27Z</time>
      </trkpt>
      <trkpt lat="41.8033" lon="9.13832">
        <ele>1277</ele>
        <time>2021-06-03T07:06:28Z</time>
      </trkpt>
      <trkpt lat="41.80329" lon="9.1383">
        <ele>1277</ele>
        <time>2021-06-03T07:06:29Z</time>
      </trkpt>
      <trkpt lat="41.80329" lon="9.13829">
        <ele>1277</ele>
        <time>2021-06-03T07:06:30Z</time>
      </trkpt>
      <trkpt lat="41.80329" lon="9.13827">
        <ele>1277.8</ele>
        <time>2021-06-03T07:06:31Z</time>
      </trkpt>
      <trkpt lat="41.80329" lon="9.13826">
        <ele>1277.6</ele>
        <time>2021-06-03T07:06:32Z</time>
      </trkpt>
      <trkpt lat="41.80328" lon="9.13824">
        <ele>1277.6</ele>
        <time>2021-06-03T07:06:33Z</time>
      </trkpt>
      <trkpt lat="41.80328" lon="9.13823">
        <ele>1277.6</ele>
        <time>2021-06-03T07:06:34Z</time>
      </trkpt>
      <trkpt lat="41.80328" lon="9.13822">
        <ele>1277.6</ele>
        <time>2021-06-03T07:06:35Z</time>
      </trkpt>
      <trkpt lat="41.80327" lon="9.1382">
        <ele>1278.2</ele>
        <time>2021-06-03T07:06:36Z</time>
      </trkpt>
      <trkpt lat="41.80327" lon="9.13819">
        <ele>1278.2</ele>
        <time>2021-06-03T07:06:37Z</time>
      </trkpt>
      <trkpt lat="41.80327" lon="9.13817">
        <ele>1278.2</ele>
        <time>2021-06-03T07:06:38Z</time>
      </trkpt>
      <trkpt lat="41.80326" lon="9.13816">
        <ele>1278.8</ele>
        <time>2021-06-03T07:06:39Z</time>
      </trkpt>
      <trkpt lat="41.80326" lon="9.13814">
        <ele>1279</ele>
        <time>2021-06-03T07:06:40Z</time>
      </trkpt>
      <trkpt lat="41.80326" lon="9.13813">
        <ele>1279</ele>
        <time>2021-06-03T07:06:41Z</time>
      </trkpt>
      <trkpt lat="41.80325" lon="9.13812">
        <ele>1279</ele>
        <time>2021-06-03T07:06:42Z</time>
      </trkpt>
      <trkpt lat="41.80325" lon="9.1381">
        <ele>1279</ele>
        <time>2021-06-03T07:06:43Z</time>
      </trkpt>
      <trkpt lat="41.80325" lon="9.13809">
        <ele>1279.4</ele>
        <time>2021-06-03T07:06:44Z</time>
      </trkpt>
      <trkpt lat="41.80324" lon="9.13807">
        <ele>1279.4</ele>
        <time>2021-06-03T07:06:45Z</time>
      </trkpt>
      <trkpt lat="41.80324" lon="9.13806">
        <ele>1279.4</ele>
        <time>2021-06-03T07:06:46Z</time>
      </trkpt>
      <trkpt lat="41.80324" lon="9.13804">
        <ele>1280.2</ele>
        <time>2021-06-03T07:06:47Z</time>
      </trkpt>
      <trkpt lat="41.80324" lon="9.13803">
        <ele>1280</ele>
        <time>2021-06-03T07:06:48Z</time>
      </trkpt>
      <trkpt lat="41.80324" lon="9.13801">
        <ele>1280</ele>
        <time>2021-06-03T07:06:49Z</time>
      </trkpt>
      <trkpt lat="41.80323" lon="9.138">
        <ele>1280</ele>
        <time>2021-06-03T07:06:50Z</time>
      </trkpt>
      <trkpt lat="41.80323" lon="9.13798">
        <ele>1280.6</ele>
        <time>2021-06-03T07:06:51Z</time>
      </trkpt>
      <trkpt lat="41.80323" lon="9.13797">
        <ele>1280.4</ele>
        <time>2021-06-03T07:06:52Z</time>
      </trkpt>
      <trkpt lat="41.80322" lon="9.13795">
        <ele>1280.4</ele>
        <time>2021-06-03T07:06:53Z</time>
      </trkpt>
      <trkpt lat="41.80322" lon="9.13794">
        <ele>1280.4</ele>
        <time>2021-06-03T07:06:54Z</time>
      </trkpt>
      <trkpt lat="41.80321" lon="9.13793">
        <ele>1281</ele>
        <time>2021-06-03T07:06:55Z</time>
      </trkpt>
      <trkpt lat="41.80321" lon="9.13791">
        <ele>1281</ele>
        <time>2021-06-03T07:06:56Z</time>
      </trkpt>
      <trkpt lat="41.80321" lon="9.1379">
        <ele>1281</ele>
        <time>2021-06-03T07:06:57Z</time>
      </trkpt>
      <trkpt lat="41.80322" lon="9.13788">
        <ele>1281</ele>
        <time>2021-06-03T07:06:58Z</time>
      </trkpt>
      <trkpt lat="41.80322" lon="9.13787">
        <ele>1281.4</ele>
        <time>2021-06-03T07:06:59Z</time>
      </trkpt>
      <trkpt lat="41.80322" lon="9.13785">
        <ele>1281.8</ele>
        <time>2021-06-03T07:07:00Z</time>
      </trkpt>
      <trkpt lat="41.80321" lon="9.13784">
        <ele>1281.8</ele>
        <time>2021-06-03T07:07:01Z</time>
      </trkpt>
      <trkpt lat="41.80321" lon="9.13782">
        <ele>1281.8</ele>
        <time>2021-06-03T07:07:02Z</time>
      </trkpt>
      <trkpt lat="41.80321" lon="9.13781">
        <ele>1281.8</ele>
        <time>2021-06-03T07:07:03Z</time>
      </trkpt>
      <trkpt lat="41.80321" lon="9.1378">
        <ele>1282</ele>
        <time>2021-06-03T07:07:04Z</time>
      </trkpt>
      <trkpt lat="41.8032" lon="9.13778">
        <ele>1282</ele>
        <time>2021-06-03T07:07:05Z</time>
      </trkpt>
      <trkpt lat="41.8032" lon="9.13776">
        <ele>1282</ele>
        <time>2021-06-03T07:07:06Z</time>
      </trkpt>
      <trkpt lat="41.8032" lon="9.13775">
        <ele>1282.8</ele>
        <time>2021-06-03T07:07:07Z</time>
      </trkpt>
      <trkpt lat="41.8032" lon="9.13773">
        <ele>1282.8</ele>
        <time>2021-06-03T07:07:08Z</time>
      </trkpt>
      <trkpt lat="41.8032" lon="9.13772">
        <ele>1282.8</ele>
        <time>2021-06-03T07:07:09Z</time>
      </trkpt>
      <trkpt lat="41.8032" lon="9.1377">
        <ele>1282.8</ele>
        <time>2021-06-03T07:07:10Z</time>
      </trkpt>
      <trkpt lat="41.8032" lon="9.13769">
        <ele>1282.8</ele>
        <time>2021-06-03T07:07:11Z</time>
      </trkpt>
      <trkpt lat="41.8032" lon="9.13767">
        <ele>1283.2</ele>
        <time>2021-06-03T07:07:12Z</time>
      </trkpt>
      <trkpt lat="41.80321" lon="9.13766">
        <ele>1283.2</ele>
        <time>2021-06-03T07:07:13Z</time>
      </trkpt>
      <trkpt lat="41.80321" lon="9.13764">
        <ele>1283.2</ele>
        <time>2021-06-03T07:07:14Z</time>
      </trkpt>
      <trkpt lat="41.80321" lon="9.13763">
        <ele>1283.2</ele>
        <time>2021-06-03T07:07:15Z</time>
      </trkpt>
      <trkpt lat="41.80322" lon="9.13762">
        <ele>1283</ele>
        <time>2021-06-03T07:07:16Z</time>
      </trkpt>
      <trkpt lat="41.80323" lon="9.1376">
        <ele>1283</ele>
        <time>2021-06-03T07:07:17Z</time>
      </trkpt>
      <trkpt lat="41.80324" lon="9.13759">
        <ele>1283</ele>
        <time>2021-06-03T07:07:18Z</time>
      </trkpt>
      <trkpt lat="41.80325" lon="9.13758">
        <ele>1283.6</ele>
        <time>2021-06-03T07:07:19Z</time>
      </trkpt>
      <trkpt lat="41.80326" lon="9.13758">
        <ele>1283.6</ele>
        <time>2021-06-03T07:07:20Z</time>
      </trkpt>
      <trkpt lat="41.80327" lon="9.13757">
        <ele>1283.6</ele>
        <time>2021-06-03T07:07:21Z</time>
      </trkpt>
      <trkpt lat="41.80328" lon="9.13756">
        <ele>1283.6</ele>
        <time>2021-06-03T07:07:22Z</time>
      </trkpt>
      <trkpt lat="41.80329" lon="9.13755">
        <ele>1284.2</ele>
        <time>2021-06-03T07:07:23Z</time>
      </trkpt>
      <trkpt lat="41.8033" lon="9.13754">
        <ele>1284.4</ele>
        <time>2021-06-03T07:07:24Z</time>
      </trkpt>
      <trkpt lat="41.8033" lon="9.13753">
        <ele>1284.4</ele>
        <time>2021-06-03T07:07:25Z</time>
      </trkpt>
      <trkpt lat="41.80331" lon="9.13752">
        <ele>1284.4</ele>
        <time>2021-06-03T07:07:26Z</time>
      </trkpt>
      <trkpt lat="41.80332" lon="9.13751">
        <ele>1284.4</ele>
        <time>2021-06-03T07:07:27Z</time>
      </trkpt>
      <trkpt lat="41.80333" lon="9.1375">
        <ele>1284.8</ele>
        <time>2021-06-03T07:07:28Z</time>
      </trkpt>
      <trkpt lat="41.80334" lon="9.13749">
        <ele>1284.8</ele>
        <time>2021-06-03T07:07:29Z</time>
      </trkpt>
      <trkpt lat="41.80335" lon="9.13748">
        <ele>1284.8</ele>
        <time>2021-06-03T07:07:30Z</time>
      </trkpt>
      <trkpt lat="41.80336" lon="9.13747">
        <ele>1284.8</ele>
        <time>2021-06-03T07:07:31Z</time>
      </trkpt>
      <trkpt lat="41.80336" lon="9.13746">
        <ele>1285.2</ele>
        <time>2021-06-03T07:07:32Z</time>
      </trkpt>
      <trkpt lat="41.80337" lon="9.13745">
        <ele>1285.2</ele>
        <time>2021-06-03T07:07:33Z</time>
      </trkpt>
      <trkpt lat="41.80338" lon="9.13745">
        <ele>1285.2</ele>
        <time>2021-06-03T07:07:34Z</time>
      </trkpt>
      <trkpt lat="41.80339" lon="9.13744">
        <ele>1285.4</ele>
        <time>2021-06-03T07:07:35Z</time>
      </trkpt>
      <trkpt lat="41.8034" lon="9.13743">
        <ele>1285.6</ele>
        <time>2021-06-03T07:07:36Z</time>
      </trkpt>
      <trkpt lat="41.80341" lon="9.13742">
        <ele>1285.6</ele>
        <time>2021-06-03T07:07:37Z</time>
      </trkpt>
      <trkpt lat="41.80342" lon="9.13741">
        <ele>1285.6</ele>
        <time>2021-06-03T07:07:38Z</time>
      </trkpt>
      <trkpt lat="41.80343" lon="9.1374">
        <ele>1285.6</ele>
        <time>2021-06-03T07:07:39Z</time>
      </trkpt>
      <trkpt lat="41.80344" lon="9.1374">
        <ele>1286</ele>
        <time>2021-06-03T07:07:40Z</time>
      </trkpt>
      <trkpt lat="41.80345" lon="9.13739">
        <ele>1286</ele>
        <time>2021-06-03T07:07:41Z</time>
      </trkpt>
      <trkpt lat="41.80346" lon="9.13739">
        <ele>1286</ele>
        <time>2021-06-03T07:07:42Z</time>
      </trkpt>
      <trkpt lat="41.80347" lon="9.13738">
        <ele>1286</ele>
        <time>2021-06-03T07:07:43Z</time>
      </trkpt>
      <trkpt lat="41.80348" lon="9.13737">
        <ele>1286.2</ele>
        <time>2021-06-03T07:07:44Z</time>
      </trkpt>
      <trkpt lat="41.80349" lon="9.13737">
        <ele>1286.2</ele>
        <time>2021-06-03T07:07:45Z</time>
      </trkpt>
      <trkpt lat="41.8035" lon="9.13736">
        <ele>1286.2</ele>
        <time>2021-06-03T07:07:46Z</time>
      </trkpt>
      <trkpt lat="41.80351" lon="9.13735">
        <ele>1286.8</ele>
        <time>2021-06-03T07:07:47Z</time>
      </trkpt>
      <trkpt lat="41.80351" lon="9.13734">
        <ele>1287.6</ele>
        <time>2021-06-03T07:07:48Z</time>
      </trkpt>
      <trkpt lat="41.80352" lon="9.13733">
        <ele>1287.6</ele>
        <time>2021-06-03T07:07:49Z</time>
      </trkpt>
      <trkpt lat="41.80353" lon="9.13732">
        <ele>1287.6</ele>
        <time>2021-06-03T07:07:50Z</time>
      </trkpt>
      <trkpt lat="41.80354" lon="9.13731">
        <ele>1287.2</ele>
        <time>2021-06-03T07:07:51Z</time>
      </trkpt>
      <trkpt lat="41.80355" lon="9.1373">
        <ele>1287.2</ele>
        <time>2021-06-03T07:07:52Z</time>
      </trkpt>
      <trkpt lat="41.80356" lon="9.13729">
        <ele>1287.2</ele>
        <time>2021-06-03T07:07:53Z</time>
      </trkpt>
      <trkpt lat="41.80357" lon="9.13728">
        <ele>1287.2</ele>
        <time>2021-06-03T07:07:54Z</time>
      </trkpt>
      <trkpt lat="41.80358" lon="9.13727">
        <ele>1287.8</ele>
        <time>2021-06-03T07:07:55Z</time>
      </trkpt>
      <trkpt lat="41.80359" lon="9.13727">
        <ele>1287.4</ele>
        <time>2021-06-03T07:07:56Z</time>
      </trkpt>
      <trkpt lat="41.8036" lon="9.13726">
        <ele>1287.4</ele>
        <time>2021-06-03T07:07:57Z</time>
      </trkpt>
      <trkpt lat="41.80361" lon="9.13725">
        <ele>1287.4</ele>
        <time>2021-06-03T07:07:58Z</time>
      </trkpt>
      <trkpt lat="41.80362" lon="9.13724">
        <ele>1288</ele>
        <time>2021-06-03T07:07:59Z</time>
      </trkpt>
      <trkpt lat="41.80363" lon="9.13723">
        <ele>1288.8</ele>
        <time>2021-06-03T07:08:00Z</time>
      </trkpt>
      <trkpt lat="41.80364" lon="9.13722">
        <ele>1288.8</ele>
        <time>2021-06-03T07:08:01Z</time>
      </trkpt>
      <trkpt lat="41.80364" lon="9.13721">
        <ele>1288.8</ele>
        <time>2021-06-03T07:08:02Z</time>
      </trkpt>
      <trkpt lat="41.80365" lon="9.13719">
        <ele>1288.8</ele>
        <time>2021-06-03T07:08:03Z</time>
      </trkpt>
      <trkpt lat="41.80366" lon="9.13718">
        <ele>1289.2</ele>
        <time>2021-06-03T07:08:04Z</time>
      </trkpt>
      <trkpt lat="41.80367" lon="9.13718">
        <ele>1289.2</ele>
        <time>2021-06-03T07:08:05Z</time>
      </trkpt>
      <trkpt lat="41.80368" lon="9.13717">
        <ele>1289.2</ele>
        <time>2021-06-03T07:08:06Z</time>
      </trkpt>
      <trkpt lat="41.80369" lon="9.13716">
        <ele>1289.2</ele>
        <time>2021-06-03T07:08:07Z</time>
      </trkpt>
      <trkpt lat="41.8037" lon="9.13715">
        <ele>1289.6</ele>
        <time>2021-06-03T07:08:08Z</time>
      </trkpt>
      <trkpt lat="41.80371" lon="9.13714">
        <ele>1289.6</ele>
        <time>2021-06-03T07:08:09Z</time>
      </trkpt>
      <trkpt lat="41.80372" lon="9.13713">
        <ele>1289.6</ele>
        <time>2021-06-03T07:08:10Z</time>
      </trkpt>
      <trkpt lat="41.80373" lon="9.13712">
        <ele>1290.2</ele>
        <time>2021-06-03T07:08:11Z</time>
      </trkpt>
      <trkpt lat="41.80374" lon="9.13711">
        <ele>1290.2</ele>
        <time>2021-06-03T07:08:12Z</time>
      </trkpt>
      <trkpt lat="41.80375" lon="9.1371">
        <ele>1290.2</ele>
        <time>2021-06-03T07:08:13Z</time>
      </trkpt>
      <trkpt lat="41.80375" lon="9.13709">
        <ele>1290.2</ele>
        <time>2021-06-03T07:08:14Z</time>
      </trkpt>
      <trkpt lat="41.80376" lon="9.13707">
        <ele>1290.6</ele>
        <time>2021-06-03T07:08:15Z</time>
      </trkpt>
      <trkpt lat="41.80377" lon="9.13706">
        <ele>1291</ele>
        <time>2021-06-03T07:08:16Z</time>
      </trkpt>
      <trkpt lat="41.80378" lon="9.13705">
        <ele>1291</ele>
        <time>2021-06-03T07:08:17Z</time>
      </trkpt>
      <trkpt lat="41.80379" lon="9.13704">
        <ele>1291</ele>
        <time>2021-06-03T07:08:18Z</time>
      </trkpt>
      <trkpt lat="41.8038" lon="9.13703">
        <ele>1291</ele>
        <time>2021-06-03T07:08:19Z</time>
      </trkpt>
      <trkpt lat="41.8038" lon="9.13702">
        <ele>1291.2</ele>
        <time>2021-06-03T07:08:20Z</time>
      </trkpt>
      <trkpt lat="41.80381" lon="9.13701">
        <ele>1291.2</ele>
        <time>2021-06-03T07:08:21Z</time>
      </trkpt>
      <trkpt lat="41.80382" lon="9.137">
        <ele>1291.2</ele>
        <time>2021-06-03T07:08:22Z</time>
      </trkpt>
      <trkpt lat="41.80383" lon="9.13699">
        <ele>1291.2</ele>
        <time>2021-06-03T07:08:23Z</time>
      </trkpt>
      <trkpt lat="41.80384" lon="9.13698">
        <ele>1292</ele>
        <time>2021-06-03T07:08:24Z</time>
      </trkpt>
      <trkpt lat="41.80385" lon="9.13698">
        <ele>1292</ele>
        <time>2021-06-03T07:08:25Z</time>
      </trkpt>
      <trkpt lat="41.80386" lon="9.13697">
        <ele>1292</ele>
        <time>2021-06-03T07:08:26Z</time>
      </trkpt>
      <trkpt lat="41.80387" lon="9.13696">
        <ele>1291.6</ele>
        <time>2021-06-03T07:08:27Z</time>
      </trkpt>
      <trkpt lat="41.80388" lon="9.13695">
        <ele>1291.8</ele>
        <time>2021-06-03T07:08:28Z</time>
      </trkpt>
      <trkpt lat="41.80389" lon="9.13694">
        <ele>1291.8</ele>
        <time>2021-06-03T07:08:29Z</time>
      </trkpt>
      <trkpt lat="41.8039" lon="9.13693">
        <ele>1291.8</ele>
        <time>2021-06-03T07:08:30Z</time>
      </trkpt>
      <trkpt lat="41.80391" lon="9.13692">
        <ele>1291.8</ele>
        <time>2021-06-03T07:08:31Z</time>
      </trkpt>
      <trkpt lat="41.80391" lon="9.13691">
        <ele>1292</ele>
        <time>2021-06-03T07:08:32Z</time>
      </trkpt>
      <trkpt lat="41.80392" lon="9.13689">
        <ele>1292</ele>
        <time>2021-06-03T07:08:33Z</time>
      </trkpt>
      <trkpt lat="41.80393" lon="9.13688">
        <ele>1292</ele>
        <time>2021-06-03T07:08:34Z</time>
      </trkpt>
      <trkpt lat="41.80394" lon="9.13687">
        <ele>1292.6</ele>
        <time>2021-06-03T07:08:35Z</time>
      </trkpt>
      <trkpt lat="41.80395" lon="9.13687">
        <ele>1293</ele>
        <time>2021-06-03T07:08:36Z</time>
      </trkpt>
      <trkpt lat="41.80395" lon="9.13686">
        <ele>1293</ele>
        <time>2021-06-03T07:08:37Z</time>
      </trkpt>
      <trkpt lat="41.80396" lon="9.13684">
        <ele>1293</ele>
        <time>2021-06-03T07:08:38Z</time>
      </trkpt>
      <trkpt lat="41.80397" lon="9.13683">
        <ele>1293</ele>
        <time>2021-06-03T07:08:39Z</time>
      </trkpt>
      <trkpt lat="41.80398" lon="9.13682">
        <ele>1293.2</ele>
        <time>2021-06-03T07:08:40Z</time>
      </trkpt>
      <trkpt lat="41.80398" lon="9.13681">
        <ele>1293.2</ele>
        <time>2021-06-03T07:08:41Z</time>
      </trkpt>
      <trkpt lat="41.80399" lon="9.1368">
        <ele>1293.2</ele>
        <time>2021-06-03T07:08:42Z</time>
      </trkpt>
      <trkpt lat="41.804" lon="9.13679">
        <ele>1293.2</ele>
        <time>2021-06-03T07:08:43Z</time>
      </trkpt>
      <trkpt lat="41.804" lon="9.13677">
        <ele>1293.6</ele>
        <time>2021-06-03T07:08:44Z</time>
      </trkpt>
      <trkpt lat="41.80401" lon="9.13677">
        <ele>1293.6</ele>
        <time>2021-06-03T07:08:45Z</time>
      </trkpt>
      <trkpt lat="41.80402" lon="9.13676">
        <ele>1293.6</ele>
        <time>2021-06-03T07:08:46Z</time>
      </trkpt>
      <trkpt lat="41.80403" lon="9.13675">
        <ele>1293.8</ele>
        <time>2021-06-03T07:08:47Z</time>
      </trkpt>
      <trkpt lat="41.80404" lon="9.13674">
        <ele>1294.4</ele>
        <time>2021-06-03T07:08:48Z</time>
      </trkpt>
      <trkpt lat="41.80405" lon="9.13673">
        <ele>1294.4</ele>
        <time>2021-06-03T07:08:49Z</time>
      </trkpt>
      <trkpt lat="41.80406" lon="9.13672">
        <ele>1294.4</ele>
        <time>2021-06-03T07:08:50Z</time>
      </trkpt>
      <trkpt lat="41.80407" lon="9.13671">
        <ele>1294.4</ele>
        <time>2021-06-03T07:08:51Z</time>
      </trkpt>
      <trkpt lat="41.80408" lon="9.13671">
        <ele>1294.6</ele>
        <time>2021-06-03T07:08:52Z</time>
      </trkpt>
      <trkpt lat="41.80408" lon="9.1367">
        <ele>1294.6</ele>
        <time>2021-06-03T07:08:53Z</time>
      </trkpt>
      <trkpt lat="41.80409" lon="9.13669">
        <ele>1294.6</ele>
        <time>2021-06-03T07:08:54Z</time>
      </trkpt>
      <trkpt lat="41.8041" lon="9.13667">
        <ele>1295</ele>
        <time>2021-06-03T07:08:55Z</time>
      </trkpt>
      <trkpt lat="41.80411" lon="9.13666">
        <ele>1295</ele>
        <time>2021-06-03T07:08:56Z</time>
      </trkpt>
      <trkpt lat="41.80412" lon="9.13665">
        <ele>1295</ele>
        <time>2021-06-03T07:08:57Z</time>
      </trkpt>
      <trkpt lat="41.80412" lon="9.13664">
        <ele>1295</ele>
        <time>2021-06-03T07:08:58Z</time>
      </trkpt>
      <trkpt lat="41.80413" lon="9.13662">
        <ele>1295</ele>
        <time>2021-06-03T07:08:59Z</time>
      </trkpt>
      <trkpt lat="41.80413" lon="9.1366">
        <ele>1295</ele>
        <time>2021-06-03T07:09:00Z</time>
      </trkpt>
      <trkpt lat="41.80414" lon="9.13659">
        <ele>1295</ele>
        <time>2021-06-03T07:09:01Z</time>
      </trkpt>
      <trkpt lat="41.80414" lon="9.13658">
        <ele>1295</ele>
        <time>2021-06-03T07:09:02Z</time>
      </trkpt>
      <trkpt lat="41.80415" lon="9.13656">
        <ele>1295</ele>
        <time>2021-06-03T07:09:03Z</time>
      </trkpt>
      <trkpt lat="41.80416" lon="9.13655">
        <ele>1295.6</ele>
        <time>2021-06-03T07:09:04Z</time>
      </trkpt>
      <trkpt lat="41.80417" lon="9.13654">
        <ele>1295.6</ele>
        <time>2021-06-03T07:09:05Z</time>
      </trkpt>
      <trkpt lat="41.80418" lon="9.13652">
        <ele>1295.6</ele>
        <time>2021-06-03T07:09:06Z</time>
      </trkpt>
      <trkpt lat="41.80419" lon="9.13651">
        <ele>1296.2</ele>
        <time>2021-06-03T07:09:07Z</time>
      </trkpt>
      <trkpt lat="41.8042" lon="9.1365">
        <ele>1296.4</ele>
        <time>2021-06-03T07:09:08Z</time>
      </trkpt>
      <trkpt lat="41.8042" lon="9.13648">
        <ele>1296.4</ele>
        <time>2021-06-03T07:09:09Z</time>
      </trkpt>
      <trkpt lat="41.80421" lon="9.13647">
        <ele>1296.4</ele>
        <time>2021-06-03T07:09:10Z</time>
      </trkpt>
      <trkpt lat="41.80422" lon="9.13646">
        <ele>1296.4</ele>
        <time>2021-06-03T07:09:11Z</time>
      </trkpt>
      <trkpt lat="41.80422" lon="9.13644">
        <ele>1296.6</ele>
        <time>2021-06-03T07:09:12Z</time>
      </trkpt>
      <trkpt lat="41.80423" lon="9.13643">
        <ele>1296.6</ele>
        <time>2021-06-03T07:09:13Z</time>
      </trkpt>
      <trkpt lat="41.80424" lon="9.13642">
        <ele>1296.6</ele>
        <time>2021-06-03T07:09:14Z</time>
      </trkpt>
      <trkpt lat="41.80424" lon="9.1364">
        <ele>1296.6</ele>
        <time>2021-06-03T07:09:15Z</time>
      </trkpt>
      <trkpt lat="41.80425" lon="9.13639">
        <ele>1297.4</ele>
        <time>2021-06-03T07:09:16Z</time>
      </trkpt>
      <trkpt lat="41.80425" lon="9.13637">
        <ele>1297.4</ele>
        <time>2021-06-03T07:09:17Z</time>
      </trkpt>
      <trkpt lat="41.80425" lon="9.13635">
        <ele>1297.4</ele>
        <time>2021-06-03T07:09:18Z</time>
      </trkpt>
      <trkpt lat="41.80426" lon="9.13633">
        <ele>1297.4</ele>
        <time>2021-06-03T07:09:19Z</time>
      </trkpt>
      <trkpt lat="41.80427" lon="9.13632">
        <ele>1297.6</ele>
        <time>2021-06-03T07:09:20Z</time>
      </trkpt>
      <trkpt lat="41.80427" lon="9.1363">
        <ele>1297.6</ele>
        <time>2021-06-03T07:09:21Z</time>
      </trkpt>
      <trkpt lat="41.80428" lon="9.13629">
        <ele>1297.6</ele>
        <time>2021-06-03T07:09:22Z</time>
      </trkpt>
      <trkpt lat="41.80429" lon="9.13628">
        <ele>1297.8</ele>
        <time>2021-06-03T07:09:23Z</time>
      </trkpt>
      <trkpt lat="41.8043" lon="9.13627">
        <ele>1298.2</ele>
        <time>2021-06-03T07:09:24Z</time>
      </trkpt>
      <trkpt lat="41.8043" lon="9.13626">
        <ele>1298.2</ele>
        <time>2021-06-03T07:09:25Z</time>
      </trkpt>
      <trkpt lat="41.80431" lon="9.13625">
        <ele>1298.2</ele>
        <time>2021-06-03T07:09:26Z</time>
      </trkpt>
      <trkpt lat="41.80432" lon="9.13624">
        <ele>1298.2</ele>
        <time>2021-06-03T07:09:27Z</time>
      </trkpt>
      <trkpt lat="41.80433" lon="9.13623">
        <ele>1298.6</ele>
        <time>2021-06-03T07:09:28Z</time>
      </trkpt>
      <trkpt lat="41.80434" lon="9.13622">
        <ele>1298.6</ele>
        <time>2021-06-03T07:09:29Z</time>
      </trkpt>
      <trkpt lat="41.80434" lon="9.13621">
        <ele>1298.6</ele>
        <time>2021-06-03T07:09:30Z</time>
      </trkpt>
      <trkpt lat="41.80435" lon="9.13619">
        <ele>1298.6</ele>
        <time>2021-06-03T07:09:31Z</time>
      </trkpt>
      <trkpt lat="41.80436" lon="9.13618">
        <ele>1298.8</ele>
        <time>2021-06-03T07:09:32Z</time>
      </trkpt>
      <trkpt lat="41.80436" lon="9.13616">
        <ele>1298.8</ele>
        <time>2021-06-03T07:09:33Z</time>
      </trkpt>
      <trkpt lat="41.80437" lon="9.13615">
        <ele>1298.8</ele>
        <time>2021-06-03T07:09:34Z</time>
      </trkpt>
      <trkpt lat="41.80438" lon="9.13614">
        <ele>1298.8</ele>
        <time>2021-06-03T07:09:35Z</time>
      </trkpt>
      <trkpt lat="41.80438" lon="9.13613">
        <ele>1299</ele>
        <time>2021-06-03T07:09:36Z</time>
      </trkpt>
      <trkpt lat="41.80439" lon="9.13611">
        <ele>1299</ele>
        <time>2021-06-03T07:09:37Z</time>
      </trkpt>
      <trkpt lat="41.8044" lon="9.1361">
        <ele>1299</ele>
        <time>2021-06-03T07:09:38Z</time>
      </trkpt>
      <trkpt lat="41.80441" lon="9.13609">
        <ele>1299.4</ele>
        <time>2021-06-03T07:09:39Z</time>
      </trkpt>
      <trkpt lat="41.80442" lon="9.13607">
        <ele>1299.4</ele>
        <time>2021-06-03T07:09:40Z</time>
      </trkpt>
      <trkpt lat="41.80442" lon="9.13606">
        <ele>1299.4</ele>
        <time>2021-06-03T07:09:41Z</time>
      </trkpt>
      <trkpt lat="41.80443" lon="9.13605">
        <ele>1299.4</ele>
        <time>2021-06-03T07:09:42Z</time>
      </trkpt>
      <trkpt lat="41.80444" lon="9.13603">
        <ele>1299.4</ele>
        <time>2021-06-03T07:09:43Z</time>
      </trkpt>
      <trkpt lat="41.80444" lon="9.13601">
        <ele>1299.2</ele>
        <time>2021-06-03T07:09:44Z</time>
      </trkpt>
      <trkpt lat="41.80445" lon="9.136">
        <ele>1299.2</ele>
        <time>2021-06-03T07:09:45Z</time>
      </trkpt>
      <trkpt lat="41.80446" lon="9.13599">
        <ele>1299.2</ele>
        <time>2021-06-03T07:09:46Z</time>
      </trkpt>
      <trkpt lat="41.80447" lon="9.13597">
        <ele>1300</ele>
        <time>2021-06-03T07:09:47Z</time>
      </trkpt>
      <trkpt lat="41.80447" lon="9.13596">
        <ele>1299.8</ele>
        <time>2021-06-03T07:09:48Z</time>
      </trkpt>
      <trkpt lat="41.80448" lon="9.13595">
        <ele>1299.8</ele>
        <time>2021-06-03T07:09:49Z</time>
      </trkpt>
      <trkpt lat="41.80449" lon="9.13594">
        <ele>1299.8</ele>
        <time>2021-06-03T07:09:50Z</time>
      </trkpt>
      <trkpt lat="41.8045" lon="9.13593">
        <ele>1300</ele>
        <time>2021-06-03T07:09:51Z</time>
      </trkpt>
      <trkpt lat="41.80451" lon="9.13592">
        <ele>1300.2</ele>
        <time>2021-06-03T07:09:52Z</time>
      </trkpt>
      <trkpt lat="41.80452" lon="9.1359">
        <ele>1300.2</ele>
        <time>2021-06-03T07:09:53Z</time>
      </trkpt>
      <trkpt lat="41.80453" lon="9.13589">
        <ele>1300.2</ele>
        <time>2021-06-03T07:09:54Z</time>
      </trkpt>
      <trkpt lat="41.80453" lon="9.13588">
        <ele>1300.2</ele>
        <time>2021-06-03T07:09:55Z</time>
      </trkpt>
      <trkpt lat="41.80454" lon="9.13586">
        <ele>1300.4</ele>
        <time>2021-06-03T07:09:56Z</time>
      </trkpt>
      <trkpt lat="41.80455" lon="9.13584">
        <ele>1300.4</ele>
        <time>2021-06-03T07:09:57Z</time>
      </trkpt>
      <trkpt lat="41.80455" lon="9.13583">
        <ele>1300.4</ele>
        <time>2021-06-03T07:09:58Z</time>
      </trkpt>
      <trkpt lat="41.80456" lon="9.13581">
        <ele>1300.6</ele>
        <time>2021-06-03T07:09:59Z</time>
      </trkpt>
      <trkpt lat="41.80457" lon="9.1358">
        <ele>1301</ele>
        <time>2021-06-03T07:10:00Z</time>
      </trkpt>
      <trkpt lat="41.80457" lon="9.13578">
        <ele>1301</ele>
        <time>2021-06-03T07:10:01Z</time>
      </trkpt>
      <trkpt lat="41.80458" lon="9.13577">
        <ele>1301</ele>
        <time>2021-06-03T07:10:02Z</time>
      </trkpt>
      <trkpt lat="41.80459" lon="9.13575">
        <ele>1301</ele>
        <time>2021-06-03T07:10:03Z</time>
      </trkpt>
      <trkpt lat="41.80459" lon="9.13574">
        <ele>1301.4</ele>
        <time>2021-06-03T07:10:04Z</time>
      </trkpt>
      <trkpt lat="41.8046" lon="9.13572">
        <ele>1301.4</ele>
        <time>2021-06-03T07:10:05Z</time>
      </trkpt>
      <trkpt lat="41.8046" lon="9.13571">
        <ele>1301.4</ele>
        <time>2021-06-03T07:10:06Z</time>
      </trkpt>
      <trkpt lat="41.80461" lon="9.13569">
        <ele>1301.4</ele>
        <time>2021-06-03T07:10:07Z</time>
      </trkpt>
      <trkpt lat="41.80461" lon="9.13567">
        <ele>1301.6</ele>
        <time>2021-06-03T07:10:08Z</time>
      </trkpt>
      <trkpt lat="41.80462" lon="9.13566">
        <ele>1301.6</ele>
        <time>2021-06-03T07:10:09Z</time>
      </trkpt>
      <trkpt lat="41.80462" lon="9.13564">
        <ele>1301.6</ele>
        <time>2021-06-03T07:10:10Z</time>
      </trkpt>
      <trkpt lat="41.80462" lon="9.13562">
        <ele>1302</ele>
        <time>2021-06-03T07:10:11Z</time>
      </trkpt>
      <trkpt lat="41.80463" lon="9.13561">
        <ele>1302</ele>
        <time>2021-06-03T07:10:12Z</time>
      </trkpt>
      <trkpt lat="41.80464" lon="9.13559">
        <ele>1302</ele>
        <time>2021-06-03T07:10:13Z</time>
      </trkpt>
      <trkpt lat="41.80464" lon="9.13558">
        <ele>1302</ele>
        <time>2021-06-03T07:10:14Z</time>
      </trkpt>
      <trkpt lat="41.80465" lon="9.13556">
        <ele>1302</ele>
        <time>2021-06-03T07:10:15Z</time>
      </trkpt>
      <trkpt lat="41.80465" lon="9.13555">
        <ele>1302.2</ele>
        <time>2021-06-03T07:10:16Z</time>
      </trkpt>
      <trkpt lat="41.80466" lon="9.13554">
        <ele>1302.2</ele>
        <time>2021-06-03T07:10:17Z</time>
      </trkpt>
      <trkpt lat="41.80466" lon="9.13552">
        <ele>1302.2</ele>
        <time>2021-06-03T07:10:18Z</time>
      </trkpt>
      <trkpt lat="41.80466" lon="9.1355">
        <ele>1302.6</ele>
        <time>2021-06-03T07:10:19Z</time>
      </trkpt>
      <trkpt lat="41.80467" lon="9.13549">
        <ele>1303</ele>
        <time>2021-06-03T07:10:20Z</time>
      </trkpt>
      <trkpt lat="41.80467" lon="9.13547">
        <ele>1303</ele>
        <time>2021-06-03T07:10:21Z</time>
      </trkpt>
      <trkpt lat="41.80468" lon="9.13545">
        <ele>1303</ele>
        <time>2021-06-03T07:10:22Z</time>
      </trkpt>
      <trkpt lat="41.80468" lon="9.13544">
        <ele>1303</ele>
        <time>2021-06-03T07:10:23Z</time>
      </trkpt>
      <trkpt lat="41.80469" lon="9.13542">
        <ele>1303</ele>
        <time>2021-06-03T07:10:24Z</time>
      </trkpt>
      <trkpt lat="41.80469" lon="9.1354">
        <ele>1303</ele>
        <time>2021-06-03T07:10:25Z</time>
      </trkpt>
      <trkpt lat="41.8047" lon="9.13539">
        <ele>1303</ele>
        <time>2021-06-03T07:10:26Z</time>
      </trkpt>
      <trkpt lat="41.80471" lon="9.13538">
        <ele>1303</ele>
        <time>2021-06-03T07:10:27Z</time>
      </trkpt>
      <trkpt lat="41.80472" lon="9.13537">
        <ele>1303.4</ele>
        <time>2021-06-03T07:10:28Z</time>
      </trkpt>
      <trkpt lat="41.80473" lon="9.13536">
        <ele>1303.4</ele>
        <time>2021-06-03T07:10:29Z</time>
      </trkpt>
      <trkpt lat="41.80474" lon="9.13535">
        <ele>1303.4</ele>
        <time>2021-06-03T07:10:30Z</time>
      </trkpt>
      <trkpt lat="41.80474" lon="9.13534">
        <ele>1303.4</ele>
        <time>2021-06-03T07:10:31Z</time>
      </trkpt>
      <trkpt lat="41.80475" lon="9.13532">
        <ele>1303.8</ele>
        <time>2021-06-03T07:10:32Z</time>
      </trkpt>
      <trkpt lat="41.80476" lon="9.13531">
        <ele>1303.8</ele>
        <time>2021-06-03T07:10:33Z</time>
      </trkpt>
      <trkpt lat="41.80477" lon="9.1353">
        <ele>1303.8</ele>
        <time>2021-06-03T07:10:34Z</time>
      </trkpt>
      <trkpt lat="41.80478" lon="9.13528">
        <ele>1304.2</ele>
        <time>2021-06-03T07:10:35Z</time>
      </trkpt>
      <trkpt lat="41.80478" lon="9.13527">
        <ele>1304</ele>
        <time>2021-06-03T07:10:36Z</time>
      </trkpt>
      <trkpt lat="41.80479" lon="9.13526">
        <ele>1304</ele>
        <time>2021-06-03T07:10:37Z</time>
      </trkpt>
      <trkpt lat="41.8048" lon="9.13524">
        <ele>1304</ele>
        <time>2021-06-03T07:10:38Z</time>
      </trkpt>
      <trkpt lat="41.8048" lon="9.13523">
        <ele>1304</ele>
        <time>2021-06-03T07:10:39Z</time>
      </trkpt>
      <trkpt lat="41.80558" lon="9.13434">
        <ele>1319.4</ele>
        <time>2021-06-03T07:21:18Z</time>
      </trkpt>
      <trkpt lat="41.80557" lon="9.13433">
        <ele>1319.4</ele>
        <time>2021-06-03T07:21:19Z</time>
      </trkpt>
      <trkpt lat="41.80556" lon="9.13432">
        <ele>1319.8</ele>
        <time>2021-06-03T07:21:20Z</time>
      </trkpt>
      <trkpt lat="41.80555" lon="9.13431">
        <ele>1319.8</ele>
        <time>2021-06-03T07:21:21Z</time>
      </trkpt>
      <trkpt lat="41.80554" lon="9.1343">
        <ele>1319.8</ele>
        <time>2021-06-03T07:21:22Z</time>
      </trkpt>
      <trkpt lat="41.80553" lon="9.13429">
        <ele>1320</ele>
        <time>2021-06-03T07:21:23Z</time>
      </trkpt>
      <trkpt lat="41.80552" lon="9.13428">
        <ele>1320</ele>
        <time>2021-06-03T07:21:24Z</time>
      </trkpt>
      <trkpt lat="41.80551" lon="9.13427">
        <ele>1320</ele>
        <time>2021-06-03T07:21:25Z</time>
      </trkpt>
      <trkpt lat="41.8055" lon="9.13426">
        <ele>1320</ele>
        <time>2021-06-03T07:21:26Z</time>
      </trkpt>
      <trkpt lat="41.80549" lon="9.13425">
        <ele>1320</ele>
        <time>2021-06-03T07:21:27Z</time>
      </trkpt>
      <trkpt lat="41.80548" lon="9.13424">
        <ele>1320.4</ele>
        <time>2021-06-03T07:21:28Z</time>
      </trkpt>
      <trkpt lat="41.80547" lon="9.13423">
        <ele>1320.4</ele>
        <time>2021-06-03T07:21:29Z</time>
      </trkpt>
      <trkpt lat="41.80546" lon="9.13422">
        <ele>1320.4</ele>
        <time>2021-06-03T07:21:30Z</time>
      </trkpt>
      <trkpt lat="41.80545" lon="9.13421">
        <ele>1320.4</ele>
        <time>2021-06-03T07:21:31Z</time>
      </trkpt>
      <trkpt lat="41.80544" lon="9.13419">
        <ele>1320.6</ele>
        <time>2021-06-03T07:21:32Z</time>
      </trkpt>
      <trkpt lat="41.80543" lon="9.13418">
        <ele>1320.6</ele>
        <time>2021-06-03T07:21:33Z</time>
      </trkpt>
      <trkpt lat="41.80542" lon="9.13417">
        <ele>1320.6</ele>
        <time>2021-06-03T07:21:34Z</time>
      </trkpt>
      <trkpt lat="41.80541" lon="9.13416">
        <ele>1320.6</ele>
        <time>2021-06-03T07:21:35Z</time>
      </trkpt>
      <trkpt lat="41.8054" lon="9.13415">
        <ele>1321</ele>
        <time>2021-06-03T07:21:36Z</time>
      </trkpt>
      <trkpt lat="41.80539" lon="9.13414">
        <ele>1321</ele>
        <time>2021-06-03T07:21:37Z</time>
      </trkpt>
      <trkpt lat="41.80538" lon="9.13413">
        <ele>1321</ele>
        <time>2021-06-03T07:21:38Z</time>
      </trkpt>
      <trkpt lat="41.80537" lon="9.13411">
        <ele>1321</ele>
        <time>2021-06-03T07:21:39Z</time>
      </trkpt>
      <trkpt lat="41.80536" lon="9.1341">
        <ele>1321.6</ele>
        <time>2021-06-03T07:21:40Z</time>
      </trkpt>
      <trkpt lat="41.80535" lon="9.13408">
        <ele>1321.6</ele>
        <time>2021-06-03T07:21:41Z</time>
      </trkpt>
      <trkpt lat="41.80534" lon="9.13407">
        <ele>1321.6</ele>
        <time>2021-06-03T07:21:42Z</time>
      </trkpt>
      <trkpt lat="41.80532" lon="9.13406">
        <ele>1321.2</ele>
        <time>2021-06-03T07:21:43Z</time>
      </trkpt>
      <trkpt lat="41.80531" lon="9.13405">
        <ele>1321.4</ele>
        <time>2021-06-03T07:21:44Z</time>
      </trkpt>
      <trkpt lat="41.8053" lon="9.13404">
        <ele>1321.4</ele>
        <time>2021-06-03T07:21:45Z</time>
      </trkpt>
      <trkpt lat="41.80529" lon="9.13402">
        <ele>1321.4</ele>
        <time>2021-06-03T07:21:46Z</time>
      </trkpt>
      <trkpt lat="41.80528" lon="9.13401">
        <ele>1321.2</ele>
        <time>2021-06-03T07:21:47Z</time>
      </trkpt>
      <trkpt lat="41.80527" lon="9.13399">
        <ele>1321.6</ele>
        <time>2021-06-03T07:21:48Z</time>
      </trkpt>
      <trkpt lat="41.80525" lon="9.13398">
        <ele>1321.6</ele>
        <time>2021-06-03T07:21:49Z</time>
      </trkpt>
      <trkpt lat="41.80524" lon="9.13397">
        <ele>1321.6</ele>
        <time>2021-06-03T07:21:50Z</time>
      </trkpt>
      <trkpt lat="41.80523" lon="9.13395">
        <ele>1321.8</ele>
        <time>2021-06-03T07:21:51Z</time>
      </trkpt>
      <trkpt lat="41.80522" lon="9.13394">
        <ele>1321.6</ele>
        <time>2021-06-03T07:21:52Z</time>
      </trkpt>
      <trkpt lat="41.8052" lon="9.13392">
        <ele>1321.6</ele>
        <time>2021-06-03T07:21:53Z</time>
      </trkpt>
      <trkpt lat="41.80519" lon="9.13391">
        <ele>1321.6</ele>
        <time>2021-06-03T07:21:54Z</time>
      </trkpt>
      <trkpt lat="41.80518" lon="9.1339">
        <ele>1322</ele>
        <time>2021-06-03T07:21:55Z</time>
      </trkpt>
      <trkpt lat="41.80517" lon="9.13388">
        <ele>1322.2</ele>
        <time>2021-06-03T07:21:56Z</time>
      </trkpt>
      <trkpt lat="41.80516" lon="9.13387">
        <ele>1322.2</ele>
        <time>2021-06-03T07:21:57Z</time>
      </trkpt>
      <trkpt lat="41.80515" lon="9.13386">
        <ele>1322.2</ele>
        <time>2021-06-03T07:21:58Z</time>
      </trkpt>
      <trkpt lat="41.80513" lon="9.13385">
        <ele>1322</ele>
        <time>2021-06-03T07:21:59Z</time>
      </trkpt>
      <trkpt lat="41.80512" lon="9.13384">
        <ele>1322.2</ele>
        <time>2021-06-03T07:22:00Z</time>
      </trkpt>
      <trkpt lat="41.80511" lon="9.13382">
        <ele>1322.2</ele>
        <time>2021-06-03T07:22:01Z</time>
      </trkpt>
      <trkpt lat="41.8051" lon="9.13381">
        <ele>1322.2</ele>
        <time>2021-06-03T07:22:02Z</time>
      </trkpt>
      <trkpt lat="41.80509" lon="9.1338">
        <ele>1322.2</ele>
        <time>2021-06-03T07:22:03Z</time>
      </trkpt>
      <trkpt lat="41.80508" lon="9.13379">
        <ele>1323</ele>
        <time>2021-06-03T07:22:04Z</time>
      </trkpt>
      <trkpt lat="41.80506" lon="9.13378">
        <ele>1323</ele>
        <time>2021-06-03T07:22:05Z</time>
      </trkpt>
      <trkpt lat="41.80505" lon="9.13377">
        <ele>1323</ele>
        <time>2021-06-03T07:22:06Z</time>
      </trkpt>
      <trkpt lat="41.80504" lon="9.13376">
        <ele>1323</ele>
        <time>2021-06-03T07:22:07Z</time>
      </trkpt>
      <trkpt lat="41.80503" lon="9.13375">
        <ele>1323</ele>
        <time>2021-06-03T07:22:08Z</time>
      </trkpt>
      <trkpt lat="41.80501" lon="9.13374">
        <ele>1323</ele>
        <time>2021-06-03T07:22:09Z</time>
      </trkpt>
      <trkpt lat="41.805" lon="9.13373">
        <ele>1323</ele>
        <time>2021-06-03T07:22:10Z</time>
      </trkpt>
      <trkpt lat="41.80499" lon="9.13373">
        <ele>1324</ele>
        <time>2021-06-03T07:22:11Z</time>
      </trkpt>
      <trkpt lat="41.80497" lon="9.13372">
        <ele>1324</ele>
        <time>2021-06-03T07:22:12Z</time>
      </trkpt>
      <trkpt lat="41.80496" lon="9.13371">
        <ele>1324</ele>
        <time>2021-06-03T07:22:13Z</time>
      </trkpt>
      <trkpt lat="41.80495" lon="9.1337">
        <ele>1324</ele>
        <time>2021-06-03T07:22:14Z</time>
      </trkpt>
      <trkpt lat="41.80493" lon="9.13369">
        <ele>1324.6</ele>
        <time>2021-06-03T07:22:15Z</time>
      </trkpt>
      <trkpt lat="41.80492" lon="9.13369">
        <ele>1324.2</ele>
        <time>2021-06-03T07:22:16Z</time>
      </trkpt>
      <trkpt lat="41.8049" lon="9.13368">
        <ele>1324.2</ele>
        <time>2021-06-03T07:22:17Z</time>
      </trkpt>
      <trkpt lat="41.80488" lon="9.13367">
        <ele>1324.2</ele>
        <time>2021-06-03T07:22:18Z</time>
      </trkpt>
      <trkpt lat="41.80487" lon="9.13367">
        <ele>1324.2</ele>
        <time>2021-06-03T07:22:19Z</time>
      </trkpt>
      <trkpt lat="41.80485" lon="9.13366">
        <ele>1324.4</ele>
        <time>2021-06-03T07:22:20Z</time>
      </trkpt>
      <trkpt lat="41.80483" lon="9.13366">
        <ele>1324.4</ele>
        <time>2021-06-03T07:22:21Z</time>
      </trkpt>
      <trkpt lat="41.80482" lon="9.13365">
        <ele>1324.4</ele>
        <time>2021-06-03T07:22:22Z</time>
      </trkpt>
      <trkpt lat="41.8048" lon="9.13365">
        <ele>1324.8</ele>
        <time>2021-06-03T07:22:23Z</time>
      </trkpt>
      <trkpt lat="41.80479" lon="9.13364">
        <ele>1325.4</ele>
        <time>2021-06-03T07:22:24Z</time>
      </trkpt>
      <trkpt lat="41.80477" lon="9.13364">
        <ele>1325.4</ele>
        <time>2021-06-03T07:22:25Z</time>
      </trkpt>
      <trkpt lat="41.80476" lon="9.13363">
        <ele>1325.4</ele>
        <time>2021-06-03T07:22:26Z</time>
      </trkpt>
      <trkpt lat="41.80474" lon="9.13363">
        <ele>1325.4</ele>
        <time>2021-06-03T07:22:27Z</time>
      </trkpt>
      <trkpt lat="41.80472" lon="9.13363">
        <ele>1324.8</ele>
        <time>2021-06-03T07:22:28Z</time>
      </trkpt>
      <trkpt lat="41.80471" lon="9.13363">
        <ele>1324.8</ele>
        <time>2021-06-03T07:22:29Z</time>
      </trkpt>
      <trkpt lat="41.8047" lon="9.13363">
        <ele>1324.8</ele>
        <time>2021-06-03T07:22:30Z</time>
      </trkpt>
      <trkpt lat="41.80468" lon="9.13363">
        <ele>1325.4</ele>
        <time>2021-06-03T07:22:31Z</time>
      </trkpt>
      <trkpt lat="41.80467" lon="9.13362">
        <ele>1325.2</ele>
        <time>2021-06-03T07:22:32Z</time>
      </trkpt>
      <trkpt lat="41.80466" lon="9.13362">
        <ele>1325.2</ele>
        <time>2021-06-03T07:22:33Z</time>
      </trkpt>
      <trkpt lat="41.80464" lon="9.13362">
        <ele>1325.2</ele>
        <time>2021-06-03T07:22:34Z</time>
      </trkpt>
      <trkpt lat="41.80463" lon="9.13361">
        <ele>1325.2</ele>
        <time>2021-06-03T07:22:35Z</time>
      </trkpt>
      <trkpt lat="41.80462" lon="9.13361">
        <ele>1325.4</ele>
        <time>2021-06-03T07:22:36Z</time>
      </trkpt>
      <trkpt lat="41.8046" lon="9.13361">
        <ele>1325.4</ele>
        <time>2021-06-03T07:22:37Z</time>
      </trkpt>
      <trkpt lat="41.80459" lon="9.13361">
        <ele>1325.4</ele>
        <time>2021-06-03T07:22:38Z</time>
      </trkpt>
      <trkpt lat="41.80458" lon="9.13361">
        <ele>1326</ele>
        <time>2021-06-03T07:22:39Z</time>
      </trkpt>
      <trkpt lat="41.80456" lon="9.13361">
        <ele>1326.6</ele>
        <time>2021-06-03T07:22:40Z</time>
      </trkpt>
      <trkpt lat="41.80455" lon="9.1336">
        <ele>1326.6</ele>
        <time>2021-06-03T07:22:41Z</time>
      </trkpt>
      <trkpt lat="41.80454" lon="9.1336">
        <ele>1326.6</ele>
        <time>2021-06-03T07:22:42Z</time>
      </trkpt>
      <trkpt lat="41.80452" lon="9.1336">
        <ele>1326.6</ele>
        <time>2021-06-03T07:22:43Z</time>
      </trkpt>
      <trkpt lat="41.80451" lon="9.1336">
        <ele>1326.8</ele>
        <time>2021-06-03T07:22:44Z</time>
      </trkpt>
      <trkpt lat="41.8045" lon="9.1336">
        <ele>1326.8</ele>
        <time>2021-06-03T07:22:45Z</time>
      </trkpt>
      <trkpt lat="41.80448" lon="9.13359">
        <ele>1326.8</ele>
        <time>2021-06-03T07:22:46Z</time>
      </trkpt>
      <trkpt lat="41.80447" lon="9.13359">
        <ele>1327.4</ele>
        <time>2021-06-03T07:22:47Z</time>
      </trkpt>
      <trkpt lat="41.80446" lon="9.13359">
        <ele>1327.2</ele>
        <time>2021-06-03T07:22:48Z</time>
      </trkpt>
      <trkpt lat="41.80445" lon="9.13359">
        <ele>1327.2</ele>
        <time>2021-06-03T07:22:49Z</time>
      </trkpt>
      <trkpt lat="41.80443" lon="9.13359">
        <ele>1327.2</ele>
        <time>2021-06-03T07:22:50Z</time>
      </trkpt>
      <trkpt lat="41.80442" lon="9.13359">
        <ele>1328.2</ele>
        <time>2021-06-03T07:22:51Z</time>
      </trkpt>
      <trkpt lat="41.80441" lon="9.13358">
        <ele>1328.2</ele>
        <time>2021-06-03T07:22:52Z</time>
      </trkpt>
      <trkpt lat="41.80439" lon="9.13358">
        <ele>1328.2</ele>
        <time>2021-06-03T07:22:53Z</time>
      </trkpt>
      <trkpt lat="41.80438" lon="9.13357">
        <ele>1328.2</ele>
        <time>2021-06-03T07:22:54Z</time>
      </trkpt>
      <trkpt lat="41.80437" lon="9.13357">
        <ele>1328.6</ele>
        <time>2021-06-03T07:22:55Z</time>
      </trkpt>
      <trkpt lat="41.80435" lon="9.13356">
        <ele>1328.2</ele>
        <time>2021-06-03T07:22:56Z</time>
      </trkpt>
      <trkpt lat="41.80434" lon="9.13355">
        <ele>1328.2</ele>
        <time>2021-06-03T07:22:57Z</time>
      </trkpt>
      <trkpt lat="41.80433" lon="9.13354">
        <ele>1328.2</ele>
        <time>2021-06-03T07:22:58Z</time>
      </trkpt>
      <trkpt lat="41.80432" lon="9.13354">
        <ele>1329.2</ele>
        <time>2021-06-03T07:22:59Z</time>
      </trkpt>
      <trkpt lat="41.80431" lon="9.13352">
        <ele>1329.4</ele>
        <time>2021-06-03T07:23:00Z</time>
      </trkpt>
      <trkpt lat="41.8043" lon="9.13351">
        <ele>1329.4</ele>
        <time>2021-06-03T07:23:01Z</time>
      </trkpt>
      <trkpt lat="41.80429" lon="9.13349">
        <ele>1329.4</ele>
        <time>2021-06-03T07:23:02Z</time>
      </trkpt>
      <trkpt lat="41.80428" lon="9.13348">
        <ele>1329.4</ele>
        <time>2021-06-03T07:23:03Z</time>
      </trkpt>
      <trkpt lat="41.80428" lon="9.13346">
        <ele>1329.8</ele>
        <time>2021-06-03T07:23:04Z</time>
      </trkpt>
      <trkpt lat="41.80427" lon="9.13344">
        <ele>1329.8</ele>
        <time>2021-06-03T07:23:05Z</time>
      </trkpt>
      <trkpt lat="41.80426" lon="9.13343">
        <ele>1329.8</ele>
        <time>2021-06-03T07:23:06Z</time>
      </trkpt>
      <trkpt lat="41.80426" lon="9.13342">
        <ele>1329.8</ele>
        <time>2021-06-03T07:23:07Z</time>
      </trkpt>
      <trkpt lat="41.80425" lon="9.1334">
        <ele>1330</ele>
        <time>2021-06-03T07:23:08Z</time>
      </trkpt>
      <trkpt lat="41.80424" lon="9.13339">
        <ele>1330</ele>
        <time>2021-06-03T07:23:09Z</time>
      </trkpt>
      <trkpt lat="41.80423" lon="9.13337">
        <ele>1330</ele>
        <time>2021-06-03T07:23:10Z</time>
      </trkpt>
      <trkpt lat="41.80422" lon="9.13336">
        <ele>1330.6</ele>
        <time>2021-06-03T07:23:11Z</time>
      </trkpt>
      <trkpt lat="41.80422" lon="9.13335">
        <ele>1330.8</ele>
        <time>2021-06-03T07:23:12Z</time>
      </trkpt>
      <trkpt lat="41.80421" lon="9.13333">
        <ele>1330.8</ele>
        <time>2021-06-03T07:23:13Z</time>
      </trkpt>
      <trkpt lat="41.8042" lon="9.13332">
        <ele>1330.8</ele>
        <time>2021-06-03T07:23:14Z</time>
      </trkpt>
      <trkpt lat="41.8042" lon="9.1333">
        <ele>1330.8</ele>
        <time>2021-06-03T07:23:15Z</time>
      </trkpt>
      <trkpt lat="41.80419" lon="9.13328">
        <ele>1331.2</ele>
        <time>2021-06-03T07:23:16Z</time>
      </trkpt>
      <trkpt lat="41.80419" lon="9.13327">
        <ele>1331.2</ele>
        <time>2021-06-03T07:23:17Z</time>
      </trkpt>
      <trkpt lat="41.80418" lon="9.13325">
        <ele>1331.2</ele>
        <time>2021-06-03T07:23:18Z</time>
      </trkpt>
      <trkpt lat="41.80418" lon="9.13323">
        <ele>1331.2</ele>
        <time>2021-06-03T07:23:19Z</time>
      </trkpt>
      <trkpt lat="41.80417" lon="9.13322">
        <ele>1332.4</ele>
        <time>2021-06-03T07:23:20Z</time>
      </trkpt>
      <trkpt lat="41.80417" lon="9.1332">
        <ele>1332.4</ele>
        <time>2021-06-03T07:23:21Z</time>
      </trkpt>
      <trkpt lat="41.80416" lon="9.13319">
        <ele>1332.4</ele>
        <time>2021-06-03T07:23:22Z</time>
      </trkpt>
      <trkpt lat="41.80416" lon="9.13317">
        <ele>1332.4</ele>
        <time>2021-06-03T07:23:23Z</time>
      </trkpt>
      <trkpt lat="41.80415" lon="9.13315">
        <ele>1332.8</ele>
        <time>2021-06-03T07:23:24Z</time>
      </trkpt>
      <trkpt lat="41.80415" lon="9.13314">
        <ele>1332.8</ele>
        <time>2021-06-03T07:23:25Z</time>
      </trkpt>
      <trkpt lat="41.80414" lon="9.13312">
        <ele>1332.8</ele>
        <time>2021-06-03T07:23:26Z</time>
      </trkpt>
      <trkpt lat="41.80413" lon="9.13311">
        <ele>1333.2</ele>
        <time>2021-06-03T07:23:27Z</time>
      </trkpt>
      <trkpt lat="41.80413" lon="9.13309">
        <ele>1333</ele>
        <time>2021-06-03T07:23:28Z</time>
      </trkpt>
      <trkpt lat="41.80413" lon="9.13307">
        <ele>1333</ele>
        <time>2021-06-03T07:23:29Z</time>
      </trkpt>
      <trkpt lat="41.80412" lon="9.13305">
        <ele>1333</ele>
        <time>2021-06-03T07:23:30Z</time>
      </trkpt>
      <trkpt lat="41.80411" lon="9.13304">
        <ele>1333.2</ele>
        <time>2021-06-03T07:23:31Z</time>
      </trkpt>
      <trkpt lat="41.80411" lon="9.13302">
        <ele>1333.4</ele>
        <time>2021-06-03T07:23:32Z</time>
      </trkpt>
      <trkpt lat="41.8041" lon="9.133">
        <ele>1333.4</ele>
        <time>2021-06-03T07:23:33Z</time>
      </trkpt>
      <trkpt lat="41.8041" lon="9.13299">
        <ele>1333.4</ele>
        <time>2021-06-03T07:23:34Z</time>
      </trkpt>
      <trkpt lat="41.8041" lon="9.13297">
        <ele>1333.4</ele>
        <time>2021-06-03T07:23:35Z</time>
      </trkpt>
      <trkpt lat="41.80409" lon="9.13295">
        <ele>1333.4</ele>
        <time>2021-06-03T07:23:36Z</time>
      </trkpt>
      <trkpt lat="41.80409" lon="9.13293">
        <ele>1333.4</ele>
        <time>2021-06-03T07:23:37Z</time>
      </trkpt>
      <trkpt lat="41.80408" lon="9.13292">
        <ele>1333.4</ele>
        <time>2021-06-03T07:23:38Z</time>
      </trkpt>
      <trkpt lat="41.80407" lon="9.1329">
        <ele>1333.4</ele>
        <time>2021-06-03T07:23:39Z</time>
      </trkpt>
      <trkpt lat="41.80406" lon="9.13289">
        <ele>1334.2</ele>
        <time>2021-06-03T07:23:40Z</time>
      </trkpt>
      <trkpt lat="41.80405" lon="9.13287">
        <ele>1334.2</ele>
        <time>2021-06-03T07:23:41Z</time>
      </trkpt>
      <trkpt lat="41.80404" lon="9.13286">
        <ele>1334.2</ele>
        <time>2021-06-03T07:23:42Z</time>
      </trkpt>
      <trkpt lat="41.80403" lon="9.13284">
        <ele>1334.2</ele>
        <time>2021-06-03T07:23:43Z</time>
      </trkpt>
      <trkpt lat="41.80402" lon="9.13282">
        <ele>1334</ele>
        <time>2021-06-03T07:23:44Z</time>
      </trkpt>
      <trkpt lat="41.80401" lon="9.13281">
        <ele>1334</ele>
        <time>2021-06-03T07:23:45Z</time>
      </trkpt>
      <trkpt lat="41.804" lon="9.1328">
        <ele>1334</ele>
        <time>2021-06-03T07:23:46Z</time>
      </trkpt>
      <trkpt lat="41.80398" lon="9.13278">
        <ele>1333.4</ele>
        <time>2021-06-03T07:23:47Z</time>
      </trkpt>
      <trkpt lat="41.80396" lon="9.13277">
        <ele>1333.8</ele>
        <time>2021-06-03T07:23:48Z</time>
      </trkpt>
      <trkpt lat="41.80395" lon="9.13276">
        <ele>1333.8</ele>
        <time>2021-06-03T07:23:49Z</time>
      </trkpt>
      <trkpt lat="41.80393" lon="9.13275">
        <ele>1333.8</ele>
        <time>2021-06-03T07:23:50Z</time>
      </trkpt>
      <trkpt lat="41.80391" lon="9.13274">
        <ele>1333.2</ele>
        <time>2021-06-03T07:23:51Z</time>
      </trkpt>
      <trkpt lat="41.80388" lon="9.13273">
        <ele>1333</ele>
        <time>2021-06-03T07:23:52Z</time>
      </trkpt>
      <trkpt lat="41.80386" lon="9.13272">
        <ele>1333</ele>
        <time>2021-06-03T07:23:53Z</time>
      </trkpt>
      <trkpt lat="41.80384" lon="9.13271">
        <ele>1333</ele>
        <time>2021-06-03T07:23:54Z</time>
      </trkpt>
      <trkpt lat="41.80382" lon="9.1327">
        <ele>1333</ele>
        <time>2021-06-03T07:23:55Z</time>
      </trkpt>
      <trkpt lat="41.8038" lon="9.13269">
        <ele>1333.2</ele>
        <time>2021-06-03T07:23:56Z</time>
      </trkpt>
      <trkpt lat="41.80378" lon="9.13268">
        <ele>1333.2</ele>
        <time>2021-06-03T07:23:57Z</time>
      </trkpt>
      <trkpt lat="41.80376" lon="9.13267">
        <ele>1333.2</ele>
        <time>2021-06-03T07:23:58Z</time>
      </trkpt>
      <trkpt lat="41.80374" lon="9.13266">
        <ele>1333.2</ele>
        <time>2021-06-03T07:23:59Z</time>
      </trkpt>
      <trkpt lat="41.80372" lon="9.13265">
        <ele>1333.8</ele>
        <time>2021-06-03T07:24:00Z</time>
      </trkpt>
      <trkpt lat="41.8037" lon="9.13264">
        <ele>1333.8</ele>
        <time>2021-06-03T07:24:01Z</time>
      </trkpt>
      <trkpt lat="41.80368" lon="9.13263">
        <ele>1333.8</ele>
        <time>2021-06-03T07:24:02Z</time>
      </trkpt>
      <trkpt lat="41.80366" lon="9.13263">
        <ele>1333.8</ele>
        <time>2021-06-03T07:24:03Z</time>
      </trkpt>
      <trkpt lat="41.80364" lon="9.13262">
        <ele>1333.6</ele>
        <time>2021-06-03T07:24:04Z</time>
      </trkpt>
      <trkpt lat="41.80362" lon="9.13262">
        <ele>1333.6</ele>
        <time>2021-06-03T07:24:05Z</time>
      </trkpt>
      <trkpt lat="41.8036" lon="9.13261">
        <ele>1333.6</ele>
        <time>2021-06-03T07:24:06Z</time>
      </trkpt>
      <trkpt lat="41.80358" lon="9.13261">
        <ele>1334.6</ele>
        <time>2021-06-03T07:24:07Z</time>
      </trkpt>
      <trkpt lat="41.80357" lon="9.13261">
        <ele>1334.4</ele>
        <time>2021-06-03T07:24:08Z</time>
      </trkpt>
      <trkpt lat="41.80355" lon="9.13261">
        <ele>1334.4</ele>
        <time>2021-06-03T07:24:09Z</time>
      </trkpt>
      <trkpt lat="41.80354" lon="9.13261">
        <ele>1334.4</ele>
        <time>2021-06-03T07:24:10Z</time>
      </trkpt>
      <trkpt lat="41.80352" lon="9.13261">
        <ele>1334.8</ele>
        <time>2021-06-03T07:24:11Z</time>
      </trkpt>
      <trkpt lat="41.80351" lon="9.1326">
        <ele>1334.6</ele>
        <time>2021-06-03T07:24:12Z</time>
      </trkpt>
      <trkpt lat="41.80349" lon="9.1326">
        <ele>1334.6</ele>
        <time>2021-06-03T07:24:13Z</time>
      </trkpt>
      <trkpt lat="41.80348" lon="9.13259">
        <ele>1334.6</ele>
        <time>2021-06-03T07:24:14Z</time>
      </trkpt>
      <trkpt lat="41.80346" lon="9.13259">
        <ele>1335.4</ele>
        <time>2021-06-03T07:24:15Z</time>
      </trkpt>
      <trkpt lat="41.80345" lon="9.13258">
        <ele>1335.4</ele>
        <time>2021-06-03T07:24:16Z</time>
      </trkpt>
      <trkpt lat="41.80343" lon="9.13257">
        <ele>1335.4</ele>
        <time>2021-06-03T07:24:17Z</time>
      </trkpt>
      <trkpt lat="41.80342" lon="9.13256">
        <ele>1335.4</ele>
        <time>2021-06-03T07:24:18Z</time>
      </trkpt>
      <trkpt lat="41.8034" lon="9.13255">
        <ele>1335.2</ele>
        <time>2021-06-03T07:24:19Z</time>
      </trkpt>
      <trkpt lat="41.80339" lon="9.13253">
        <ele>1335.6</ele>
        <time>2021-06-03T07:24:20Z</time>
      </trkpt>
      <trkpt lat="41.80338" lon="9.13252">
        <ele>1335.6</ele>
        <time>2021-06-03T07:24:21Z</time>
      </trkpt>
      <trkpt lat="41.80337" lon="9.1325">
        <ele>1335.6</ele>
        <time>2021-06-03T07:24:22Z</time>
      </trkpt>
      <trkpt lat="41.80336" lon="9.13248">
        <ele>1336.4</ele>
        <time>2021-06-03T07:24:23Z</time>
      </trkpt>
      <trkpt lat="41.80335" lon="9.13246">
        <ele>1336.8</ele>
        <time>2021-06-03T07:24:24Z</time>
      </trkpt>
      <trkpt lat="41.80334" lon="9.13244">
        <ele>1336.8</ele>
        <time>2021-06-03T07:24:25Z</time>
      </trkpt>
      <trkpt lat="41.80334" lon="9.13242">
        <ele>1336.8</ele>
        <time>2021-06-03T07:24:26Z</time>
      </trkpt>
      <trkpt lat="41.80334" lon="9.1324">
        <ele>1336.8</ele>
        <time>2021-06-03T07:24:27Z</time>
      </trkpt>
      <trkpt lat="41.80334" lon="9.13238">
        <ele>1336.6</ele>
        <time>2021-06-03T07:24:28Z</time>
      </trkpt>
      <trkpt lat="41.80333" lon="9.13236">
        <ele>1336.6</ele>
        <time>2021-06-03T07:24:29Z</time>
      </trkpt>
      <trkpt lat="41.80333" lon="9.13234">
        <ele>1336.6</ele>
        <time>2021-06-03T07:24:30Z</time>
      </trkpt>
      <trkpt lat="41.80333" lon="9.13232">
        <ele>1337.4</ele>
        <time>2021-06-03T07:24:31Z</time>
      </trkpt>
      <trkpt lat="41.80333" lon="9.1323">
        <ele>1337.6</ele>
        <time>2021-06-03T07:24:32Z</time>
      </trkpt>
      <trkpt lat="41.80332" lon="9.13228">
        <ele>1337.6</ele>
        <time>2021-06-03T07:24:33Z</time>
      </trkpt>
      <trkpt lat="41.80332" lon="9.13227">
        <ele>1337.6</ele>
        <time>2021-06-03T07:24:34Z</time>
      </trkpt>
      <trkpt lat="41.80332" lon="9.13225">
        <ele>1338.2</ele>
        <time>2021-06-03T07:24:35Z</time>
      </trkpt>
      <trkpt lat="41.80332" lon="9.13223">
        <ele>1338.4</ele>
        <time>2021-06-03T07:24:36Z</time>
      </trkpt>
      <trkpt lat="41.80332" lon="9.13221">
        <ele>1338.4</ele>
        <time>2021-06-03T07:24:37Z</time>
      </trkpt>
      <trkpt lat="41.80332" lon="9.13219">
        <ele>1338.4</ele>
        <time>2021-06-03T07:24:38Z</time>
      </trkpt>
      <trkpt lat="41.80332" lon="9.13217">
        <ele>1338.2</ele>
        <time>2021-06-03T07:24:39Z</time>
      </trkpt>
      <trkpt lat="41.80333" lon="9.13216">
        <ele>1338.4</ele>
        <time>2021-06-03T07:24:40Z</time>
      </trkpt>
      <trkpt lat="41.80332" lon="9.13214">
        <ele>1338.4</ele>
        <time>2021-06-03T07:24:41Z</time>
      </trkpt>
      <trkpt lat="41.80333" lon="9.13212">
        <ele>1338.4</ele>
        <time>2021-06-03T07:24:42Z</time>
      </trkpt>
      <trkpt lat="41.80333" lon="9.1321">
        <ele>1338.6</ele>
        <time>2021-06-03T07:24:43Z</time>
      </trkpt>
      <trkpt lat="41.80333" lon="9.13209">
        <ele>1338.6</ele>
        <time>2021-06-03T07:24:44Z</time>
      </trkpt>
      <trkpt lat="41.80334" lon="9.13207">
        <ele>1338.6</ele>
        <time>2021-06-03T07:24:45Z</time>
      </trkpt>
      <trkpt lat="41.80334" lon="9.13205">
        <ele>1338.6</ele>
        <time>2021-06-03T07:24:46Z</time>
      </trkpt>
      <trkpt lat="41.80334" lon="9.13204">
        <ele>1339.2</ele>
        <time>2021-06-03T07:24:47Z</time>
      </trkpt>
      <trkpt lat="41.80335" lon="9.13202">
        <ele>1339.6</ele>
        <time>2021-06-03T07:24:48Z</time>
      </trkpt>
      <trkpt lat="41.80335" lon="9.132">
        <ele>1339.6</ele>
        <time>2021-06-03T07:24:49Z</time>
      </trkpt>
      <trkpt lat="41.80335" lon="9.13198">
        <ele>1339.6</ele>
        <time>2021-06-03T07:24:50Z</time>
      </trkpt>
      <trkpt lat="41.80336" lon="9.13197">
        <ele>1339.6</ele>
        <time>2021-06-03T07:24:51Z</time>
      </trkpt>
      <trkpt lat="41.80336" lon="9.13195">
        <ele>1339.8</ele>
        <time>2021-06-03T07:24:52Z</time>
      </trkpt>
      <trkpt lat="41.80337" lon="9.13194">
        <ele>1339.8</ele>
        <time>2021-06-03T07:24:53Z</time>
      </trkpt>
      <trkpt lat="41.80338" lon="9.13193">
        <ele>1339.8</ele>
        <time>2021-06-03T07:24:54Z</time>
      </trkpt>
      <trkpt lat="41.80339" lon="9.13191">
        <ele>1340.4</ele>
        <time>2021-06-03T07:24:55Z</time>
      </trkpt>
      <trkpt lat="41.80339" lon="9.1319">
        <ele>1340.8</ele>
        <time>2021-06-03T07:24:56Z</time>
      </trkpt>
      <trkpt lat="41.8034" lon="9.13188">
        <ele>1340.8</ele>
        <time>2021-06-03T07:24:57Z</time>
      </trkpt>
      <trkpt lat="41.80341" lon="9.13187">
        <ele>1340.8</ele>
        <time>2021-06-03T07:24:58Z</time>
      </trkpt>
      <trkpt lat="41.80341" lon="9.13186">
        <ele>1340.8</ele>
        <time>2021-06-03T07:24:59Z</time>
      </trkpt>
      <trkpt lat="41.80342" lon="9.13185">
        <ele>1341.6</ele>
        <time>2021-06-03T07:25:00Z</time>
      </trkpt>
      <trkpt lat="41.80343" lon="9.13184">
        <ele>1341.6</ele>
        <time>2021-06-03T07:25:01Z</time>
      </trkpt>
      <trkpt lat="41.80344" lon="9.13182">
        <ele>1341.6</ele>
        <time>2021-06-03T07:25:02Z</time>
      </trkpt>
      <trkpt lat="41.80345" lon="9.13181">
        <ele>1341.6</ele>
        <time>2021-06-03T07:25:03Z</time>
      </trkpt>
      <trkpt lat="41.80346" lon="9.13181">
        <ele>1341.8</ele>
        <time>2021-06-03T07:25:04Z</time>
      </trkpt>
      <trkpt lat="41.80347" lon="9.1318">
        <ele>1341.8</ele>
        <time>2021-06-03T07:25:05Z</time>
      </trkpt>
      <trkpt lat="41.80348" lon="9.13179">
        <ele>1341.8</ele>
        <time>2021-06-03T07:25:06Z</time>
      </trkpt>
      <trkpt lat="41.80349" lon="9.13178">
        <ele>1342.4</ele>
        <time>2021-06-03T07:25:07Z</time>
      </trkpt>
      <trkpt lat="41.8035" lon="9.13177">
        <ele>1342.8</ele>
        <time>2021-06-03T07:25:08Z</time>
      </trkpt>
      <trkpt lat="41.80351" lon="9.13176">
        <ele>1342.8</ele>
        <time>2021-06-03T07:25:09Z</time>
      </trkpt>
      <trkpt lat="41.80352" lon="9.13175">
        <ele>1342.8</ele>
        <time>2021-06-03T07:25:10Z</time>
      </trkpt>
      <trkpt lat="41.80353" lon="9.13175">
        <ele>1342.8</ele>
        <time>2021-06-03T07:25:11Z</time>
      </trkpt>
      <trkpt lat="41.80354" lon="9.13174">
        <ele>1343.8</ele>
        <time>2021-06-03T07:25:12Z</time>
      </trkpt>
      <trkpt lat="41.80355" lon="9.13173">
        <ele>1343.8</ele>
        <time>2021-06-03T07:25:13Z</time>
      </trkpt>
      <trkpt lat="41.80357" lon="9.13172">
        <ele>1343.8</ele>
        <time>2021-06-03T07:25:14Z</time>
      </trkpt>
      <trkpt lat="41.80358" lon="9.13172">
        <ele>1343.8</ele>
        <time>2021-06-03T07:25:15Z</time>
      </trkpt>
      <trkpt lat="41.80359" lon="9.13171">
        <ele>1344.2</ele>
        <time>2021-06-03T07:25:16Z</time>
      </trkpt>
      <trkpt lat="41.8036" lon="9.13171">
        <ele>1344.2</ele>
        <time>2021-06-03T07:25:17Z</time>
      </trkpt>
      <trkpt lat="41.80361" lon="9.1317">
        <ele>1344.2</ele>
        <time>2021-06-03T07:25:18Z</time>
      </trkpt>
      <trkpt lat="41.80362" lon="9.1317">
        <ele>1344.8</ele>
        <time>2021-06-03T07:25:19Z</time>
      </trkpt>
      <trkpt lat="41.80363" lon="9.13169">
        <ele>1345.4</ele>
        <time>2021-06-03T07:25:20Z</time>
      </trkpt>
      <trkpt lat="41.80364" lon="9.13168">
        <ele>1345.4</ele>
        <time>2021-06-03T07:25:21Z</time>
      </trkpt>
      <trkpt lat="41.80365" lon="9.13168">
        <ele>1345.4</ele>
        <time>2021-06-03T07:25:22Z</time>
      </trkpt>
      <trkpt lat="41.80366" lon="9.13167">
        <ele>1345.4</ele>
        <time>2021-06-03T07:25:23Z</time>
      </trkpt>
      <trkpt lat="41.80367" lon="9.13167">
        <ele>1346</ele>
        <time>2021-06-03T07:25:24Z</time>
      </trkpt>
      <trkpt lat="41.80368" lon="9.13167">
        <ele>1346</ele>
        <time>2021-06-03T07:25:25Z</time>
      </trkpt>
      <trkpt lat="41.80369" lon="9.13166">
        <ele>1346</ele>
        <time>2021-06-03T07:25:26Z</time>
      </trkpt>
      <trkpt lat="41.8037" lon="9.13166">
        <ele>1346.4</ele>
        <time>2021-06-03T07:25:27Z</time>
      </trkpt>
      <trkpt lat="41.80371" lon="9.13165">
        <ele>1346.8</ele>
        <time>2021-06-03T07:25:28Z</time>
      </trkpt>
      <trkpt lat="41.80372" lon="9.13165">
        <ele>1346.8</ele>
        <time>2021-06-03T07:25:29Z</time>
      </trkpt>
      <trkpt lat="41.80373" lon="9.13164">
        <ele>1346.8</ele>
        <time>2021-06-03T07:25:30Z</time>
      </trkpt>
      <trkpt lat="41.80374" lon="9.13164">
        <ele>1346.8</ele>
        <time>2021-06-03T07:25:31Z</time>
      </trkpt>
      <trkpt lat="41.80375" lon="9.13163">
        <ele>1347.6</ele>
        <time>2021-06-03T07:25:32Z</time>
      </trkpt>
      <trkpt lat="41.80376" lon="9.13163">
        <ele>1347.6</ele>
        <time>2021-06-03T07:25:33Z</time>
      </trkpt>
      <trkpt lat="41.80377" lon="9.13162">
        <ele>1347.6</ele>
        <time>2021-06-03T07:25:34Z</time>
      </trkpt>
      <trkpt lat="41.80379" lon="9.13162">
        <ele>1347.6</ele>
        <time>2021-06-03T07:25:35Z</time>
      </trkpt>
      <trkpt lat="41.8038" lon="9.13162">
        <ele>1348</ele>
        <time>2021-06-03T07:25:36Z</time>
      </trkpt>
      <trkpt lat="41.80381" lon="9.13162">
        <ele>1348</ele>
        <time>2021-06-03T07:25:37Z</time>
      </trkpt>
      <trkpt lat="41.80382" lon="9.13161">
        <ele>1348</ele>
        <time>2021-06-03T07:25:38Z</time>
      </trkpt>
      <trkpt lat="41.80383" lon="9.13161">
        <ele>1348.4</ele>
        <time>2021-06-03T07:25:39Z</time>
      </trkpt>
      <trkpt lat="41.80384" lon="9.1316">
        <ele>1349.2</ele>
        <time>2021-06-03T07:25:40Z</time>
      </trkpt>
      <trkpt lat="41.80385" lon="9.1316">
        <ele>1349.2</ele>
        <time>2021-06-03T07:25:41Z</time>
      </trkpt>
      <trkpt lat="41.80386" lon="9.13159">
        <ele>1349.2</ele>
        <time>2021-06-03T07:25:42Z</time>
      </trkpt>
      <trkpt lat="41.80387" lon="9.13158">
        <ele>1349.2</ele>
        <time>2021-06-03T07:25:43Z</time>
      </trkpt>
      <trkpt lat="41.80388" lon="9.13157">
        <ele>1349.4</ele>
        <time>2021-06-03T07:25:44Z</time>
      </trkpt>
      <trkpt lat="41.80389" lon="9.13157">
        <ele>1349.4</ele>
        <time>2021-06-03T07:25:45Z</time>
      </trkpt>
      <trkpt lat="41.8039" lon="9.13156">
        <ele>1349.4</ele>
        <time>2021-06-03T07:25:46Z</time>
      </trkpt>
      <trkpt lat="41.80391" lon="9.13155">
        <ele>1349.4</ele>
        <time>2021-06-03T07:25:47Z</time>
      </trkpt>
      <trkpt lat="41.80392" lon="9.13154">
        <ele>1349.8</ele>
        <time>2021-06-03T07:25:48Z</time>
      </trkpt>
      <trkpt lat="41.80393" lon="9.13154">
        <ele>1349.8</ele>
        <time>2021-06-03T07:25:49Z</time>
      </trkpt>
      <trkpt lat="41.80394" lon="9.13154">
        <ele>1349.8</ele>
        <time>2021-06-03T07:25:50Z</time>
      </trkpt>
      <trkpt lat="41.80396" lon="9.13154">
        <ele>1350</ele>
        <time>2021-06-03T07:25:51Z</time>
      </trkpt>
      <trkpt lat="41.80397" lon="9.13154">
        <ele>1350.6</ele>
        <time>2021-06-03T07:25:52Z</time>
      </trkpt>
      <trkpt lat="41.80398" lon="9.13154">
        <ele>1350.6</ele>
        <time>2021-06-03T07:25:53Z</time>
      </trkpt>
      <trkpt lat="41.80399" lon="9.13154">
        <ele>1350.6</ele>
        <time>2021-06-03T07:25:54Z</time>
      </trkpt>
      <trkpt lat="41.804" lon="9.13154">
        <ele>1351.4</ele>
        <time>2021-06-03T07:25:55Z</time>
      </trkpt>
      <trkpt lat="41.80402" lon="9.13153">
        <ele>1351</ele>
        <time>2021-06-03T07:25:56Z</time>
      </trkpt>
      <trkpt lat="41.80403" lon="9.13153">
        <ele>1351</ele>
        <time>2021-06-03T07:25:57Z</time>
      </trkpt>
      <trkpt lat="41.80404" lon="9.13152">
        <ele>1351</ele>
        <time>2021-06-03T07:25:58Z</time>
      </trkpt>
      <trkpt lat="41.80405" lon="9.13151">
        <ele>1351</ele>
        <time>2021-06-03T07:25:59Z</time>
      </trkpt>
      <trkpt lat="41.80406" lon="9.13151">
        <ele>1351.4</ele>
        <time>2021-06-03T07:26:00Z</time>
      </trkpt>
      <trkpt lat="41.80407" lon="9.13151">
        <ele>1351.4</ele>
        <time>2021-06-03T07:26:01Z</time>
      </trkpt>
      <trkpt lat="41.80408" lon="9.1315">
        <ele>1351.4</ele>
        <time>2021-06-03T07:26:02Z</time>
      </trkpt>
      <trkpt lat="41.80409" lon="9.13151">
        <ele>1351.8</ele>
        <time>2021-06-03T07:26:03Z</time>
      </trkpt>
      <trkpt lat="41.8041" lon="9.1315">
        <ele>1352</ele>
        <time>2021-06-03T07:26:04Z</time>
      </trkpt>
      <trkpt lat="41.80412" lon="9.1315">
        <ele>1352</ele>
        <time>2021-06-03T07:26:05Z</time>
      </trkpt>
      <trkpt lat="41.80413" lon="9.1315">
        <ele>1352</ele>
        <time>2021-06-03T07:26:06Z</time>
      </trkpt>
      <trkpt lat="41.80414" lon="9.1315">
        <ele>1352</ele>
        <time>2021-06-03T07:26:07Z</time>
      </trkpt>
      <trkpt lat="41.80415" lon="9.13149">
        <ele>1352</ele>
        <time>2021-06-03T07:26:08Z</time>
      </trkpt>
      <trkpt lat="41.80416" lon="9.13149">
        <ele>1352</ele>
        <time>2021-06-03T07:26:09Z</time>
      </trkpt>
      <trkpt lat="41.80417" lon="9.13149">
        <ele>1352</ele>
        <time>2021-06-03T07:26:10Z</time>
      </trkpt>
      <trkpt lat="41.80419" lon="9.13148">
        <ele>1352.4</ele>
        <time>2021-06-03T07:26:11Z</time>
      </trkpt>
      <trkpt lat="41.8042" lon="9.13148">
        <ele>1352.2</ele>
        <time>2021-06-03T07:26:12Z</time>
      </trkpt>
      <trkpt lat="41.80421" lon="9.13148">
        <ele>1352.2</ele>
        <time>2021-06-03T07:26:13Z</time>
      </trkpt>
      <trkpt lat="41.80422" lon="9.13148">
        <ele>1352.2</ele>
        <time>2021-06-03T07:26:14Z</time>
      </trkpt>
      <trkpt lat="41.80424" lon="9.13147">
        <ele>1352.8</ele>
        <time>2021-06-03T07:26:15Z</time>
      </trkpt>
      <trkpt lat="41.80425" lon="9.13147">
        <ele>1352.8</ele>
        <time>2021-06-03T07:26:16Z</time>
      </trkpt>
      <trkpt lat="41.80426" lon="9.13146">
        <ele>1352.8</ele>
        <time>2021-06-03T07:26:17Z</time>
      </trkpt>
      <trkpt lat="41.80428" lon="9.13146">
        <ele>1352.8</ele>
        <time>2021-06-03T07:26:18Z</time>
      </trkpt>
      <trkpt lat="41.80429" lon="9.13146">
        <ele>1352.8</ele>
        <time>2021-06-03T07:26:19Z</time>
      </trkpt>
      <trkpt lat="41.8043" lon="9.13146">
        <ele>1353.2</ele>
        <time>2021-06-03T07:26:20Z</time>
      </trkpt>
      <trkpt lat="41.80431" lon="9.13145">
        <ele>1353.2</ele>
        <time>2021-06-03T07:26:21Z</time>
      </trkpt>
      <trkpt lat="41.80433" lon="9.13145">
        <ele>1353.2</ele>
        <time>2021-06-03T07:26:22Z</time>
      </trkpt>
      <trkpt lat="41.80434" lon="9.13145">
        <ele>1353.2</ele>
        <time>2021-06-03T07:26:23Z</time>
      </trkpt>
      <trkpt lat="41.80435" lon="9.13146">
        <ele>1353.2</ele>
        <time>2021-06-03T07:26:24Z</time>
      </trkpt>
      <trkpt lat="41.80436" lon="9.13147">
        <ele>1353.2</ele>
        <time>2021-06-03T07:26:25Z</time>
      </trkpt>
      <trkpt lat="41.80437" lon="9.13148">
        <ele>1353.2</ele>
        <time>2021-06-03T07:26:26Z</time>
      </trkpt>
      <trkpt lat="41.80438" lon="9.13149">
        <ele>1353.8</ele>
        <time>2021-06-03T07:26:27Z</time>
      </trkpt>
      <trkpt lat="41.8044" lon="9.13149">
        <ele>1354</ele>
        <time>2021-06-03T07:26:28Z</time>
      </trkpt>
      <trkpt lat="41.80441" lon="9.1315">
        <ele>1354</ele>
        <time>2021-06-03T07:26:29Z</time>
      </trkpt>
      <trkpt lat="41.80442" lon="9.13151">
        <ele>1354</ele>
        <time>2021-06-03T07:26:30Z</time>
      </trkpt>
      <trkpt lat="41.80443" lon="9.13151">
        <ele>1354</ele>
        <time>2021-06-03T07:26:31Z</time>
      </trkpt>
      <trkpt lat="41.80445" lon="9.13152">
        <ele>1354.2</ele>
        <time>2021-06-03T07:26:32Z</time>
      </trkpt>
      <trkpt lat="41.80446" lon="9.13153">
        <ele>1354.2</ele>
        <time>2021-06-03T07:26:33Z</time>
      </trkpt>
      <trkpt lat="41.80447" lon="9.13154">
        <ele>1354.2</ele>
        <time>2021-06-03T07:26:34Z</time>
      </trkpt>
      <trkpt lat="41.80448" lon="9.13155">
        <ele>1354.6</ele>
        <time>2021-06-03T07:26:35Z</time>
      </trkpt>
      <trkpt lat="41.80449" lon="9.13155">
        <ele>1354.8</ele>
        <time>2021-06-03T07:26:36Z</time>
      </trkpt>
      <trkpt lat="41.8045" lon="9.13156">
        <ele>1354.8</ele>
        <time>2021-06-03T07:26:37Z</time>
      </trkpt>
      <trkpt lat="41.80452" lon="9.13157">
        <ele>1354.8</ele>
        <time>2021-06-03T07:26:38Z</time>
      </trkpt>
      <trkpt lat="41.80453" lon="9.13158">
        <ele>1354.8</ele>
        <time>2021-06-03T07:26:39Z</time>
      </trkpt>
      <trkpt lat="41.80454" lon="9.1316">
        <ele>1355.2</ele>
        <time>2021-06-03T07:26:40Z</time>
      </trkpt>
      <trkpt lat="41.80455" lon="9.13161">
        <ele>1355.2</ele>
        <time>2021-06-03T07:26:41Z</time>
      </trkpt>
      <trkpt lat="41.80456" lon="9.13162">
        <ele>1355.2</ele>
        <time>2021-06-03T07:26:42Z</time>
      </trkpt>
      <trkpt lat="41.80457" lon="9.13163">
        <ele>1355.2</ele>
        <time>2021-06-03T07:26:43Z</time>
      </trkpt>
      <trkpt lat="41.80458" lon="9.13164">
        <ele>1355.2</ele>
        <time>2021-06-03T07:26:44Z</time>
      </trkpt>
      <trkpt lat="41.80459" lon="9.13165">
        <ele>1355.2</ele>
        <time>2021-06-03T07:26:45Z</time>
      </trkpt>
      <trkpt lat="41.80461" lon="9.13166">
        <ele>1355.2</ele>
        <time>2021-06-03T07:26:46Z</time>
      </trkpt>
      <trkpt lat="41.80462" lon="9.13167">
        <ele>1356</ele>
        <time>2021-06-03T07:26:47Z</time>
      </trkpt>
      <trkpt lat="41.80463" lon="9.13168">
        <ele>1355.6</ele>
        <time>2021-06-03T07:26:48Z</time>
      </trkpt>
      <trkpt lat="41.80464" lon="9.13168">
        <ele>1355.6</ele>
        <time>2021-06-03T07:26:49Z</time>
      </trkpt>
      <trkpt lat="41.80466" lon="9.13169">
        <ele>1355.6</ele>
        <time>2021-06-03T07:26:50Z</time>
      </trkpt>
      <trkpt lat="41.80467" lon="9.1317">
        <ele>1355.6</ele>
        <time>2021-06-03T07:26:51Z</time>
      </trkpt>
      <trkpt lat="41.80468" lon="9.13172">
        <ele>1356.2</ele>
        <time>2021-06-03T07:26:52Z</time>
      </trkpt>
      <trkpt lat="41.80469" lon="9.13173">
        <ele>1356.2</ele>
        <time>2021-06-03T07:26:53Z</time>
      </trkpt>
      <trkpt lat="41.8047" lon="9.13174">
        <ele>1356.2</ele>
        <time>2021-06-03T07:26:54Z</time>
      </trkpt>
      <trkpt lat="41.80471" lon="9.13176">
        <ele>1356.2</ele>
        <time>2021-06-03T07:26:55Z</time>
      </trkpt>
      <trkpt lat="41.80472" lon="9.13177">
        <ele>1356.4</ele>
        <time>2021-06-03T07:26:56Z</time>
      </trkpt>
      <trkpt lat="41.80473" lon="9.13179">
        <ele>1356.4</ele>
        <time>2021-06-03T07:26:57Z</time>
      </trkpt>
      <trkpt lat="41.80474" lon="9.1318">
        <ele>1356.4</ele>
        <time>2021-06-03T07:26:58Z</time>
      </trkpt>
      <trkpt lat="41.80476" lon="9.13182">
        <ele>1356.8</ele>
        <time>2021-06-03T07:26:59Z</time>
      </trkpt>
      <trkpt lat="41.80477" lon="9.13183">
        <ele>1357.4</ele>
        <time>2021-06-03T07:27:00Z</time>
      </trkpt>
      <trkpt lat="41.80478" lon="9.13184">
        <ele>1357.4</ele>
        <time>2021-06-03T07:27:01Z</time>
      </trkpt>
      <trkpt lat="41.80479" lon="9.13185">
        <ele>1357.4</ele>
        <time>2021-06-03T07:27:02Z</time>
      </trkpt>
      <trkpt lat="41.8048" lon="9.13187">
        <ele>1357.2</ele>
        <time>2021-06-03T07:27:03Z</time>
      </trkpt>
      <trkpt lat="41.80481" lon="9.13188">
        <ele>1357</ele>
        <time>2021-06-03T07:27:04Z</time>
      </trkpt>
      <trkpt lat="41.80483" lon="9.13189">
        <ele>1357</ele>
        <time>2021-06-03T07:27:05Z</time>
      </trkpt>
      <trkpt lat="41.80484" lon="9.1319">
        <ele>1357</ele>
        <time>2021-06-03T07:27:06Z</time>
      </trkpt>
      <trkpt lat="41.80485" lon="9.13191">
        <ele>1357.8</ele>
        <time>2021-06-03T07:27:07Z</time>
      </trkpt>
      <trkpt lat="41.80487" lon="9.13192">
        <ele>1358</ele>
        <time>2021-06-03T07:27:08Z</time>
      </trkpt>
      <trkpt lat="41.80488" lon="9.13193">
        <ele>1358</ele>
        <time>2021-06-03T07:27:09Z</time>
      </trkpt>
      <trkpt lat="41.80489" lon="9.13194">
        <ele>1358</ele>
        <time>2021-06-03T07:27:10Z</time>
      </trkpt>
      <trkpt lat="41.8049" lon="9.13196">
        <ele>1358</ele>
        <time>2021-06-03T07:27:11Z</time>
      </trkpt>
      <trkpt lat="41.80492" lon="9.13197">
        <ele>1358.2</ele>
        <time>2021-06-03T07:27:12Z</time>
      </trkpt>
      <trkpt lat="41.80493" lon="9.13198">
        <ele>1358.2</ele>
        <time>2021-06-03T07:27:13Z</time>
      </trkpt>
      <trkpt lat="41.80494" lon="9.13199">
        <ele>1358.2</ele>
        <time>2021-06-03T07:27:14Z</time>
      </trkpt>
      <trkpt lat="41.80495" lon="9.13201">
        <ele>1358.2</ele>
        <time>2021-06-03T07:27:15Z</time>
      </trkpt>
      <trkpt lat="41.80497" lon="9.13202">
        <ele>1358.2</ele>
        <time>2021-06-03T07:27:16Z</time>
      </trkpt>
      <trkpt lat="41.80498" lon="9.13203">
        <ele>1358.2</ele>
        <time>2021-06-03T07:27:17Z</time>
      </trkpt>
      <trkpt lat="41.80499" lon="9.13204">
        <ele>1358.2</ele>
        <time>2021-06-03T07:27:18Z</time>
      </trkpt>
      <trkpt lat="41.80501" lon="9.13205">
        <ele>1358.4</ele>
        <time>2021-06-03T07:27:19Z</time>
      </trkpt>
      <trkpt lat="41.80502" lon="9.13206">
        <ele>1358.6</ele>
        <time>2021-06-03T07:27:20Z</time>
      </trkpt>
      <trkpt lat="41.80503" lon="9.13207">
        <ele>1358.6</ele>
        <time>2021-06-03T07:27:21Z</time>
      </trkpt>
      <trkpt lat="41.80505" lon="9.13207">
        <ele>1358.6</ele>
        <time>2021-06-03T07:27:22Z</time>
      </trkpt>
      <trkpt lat="41.80506" lon="9.13208">
        <ele>1359.6</ele>
        <time>2021-06-03T07:27:23Z</time>
      </trkpt>
      <trkpt lat="41.80508" lon="9.13209">
        <ele>1359.6</ele>
        <time>2021-06-03T07:27:24Z</time>
      </trkpt>
      <trkpt lat="41.80509" lon="9.1321">
        <ele>1359.6</ele>
        <time>2021-06-03T07:27:25Z</time>
      </trkpt>
      <trkpt lat="41.80511" lon="9.13211">
        <ele>1359.6</ele>
        <time>2021-06-03T07:27:26Z</time>
      </trkpt>
      <trkpt lat="41.80512" lon="9.13212">
        <ele>1359.6</ele>
        <time>2021-06-03T07:27:27Z</time>
      </trkpt>
      <trkpt lat="41.80513" lon="9.13213">
        <ele>1360.2</ele>
        <time>2021-06-03T07:27:28Z</time>
      </trkpt>
      <trkpt lat="41.80515" lon="9.13214">
        <ele>1360.2</ele>
        <time>2021-06-03T07:27:29Z</time>
      </trkpt>
      <trkpt lat="41.80516" lon="9.13214">
        <ele>1360.2</ele>
        <time>2021-06-03T07:27:30Z</time>
      </trkpt>
      <trkpt lat="41.80518" lon="9.13215">
        <ele>1360.2</ele>
        <time>2021-06-03T07:27:31Z</time>
      </trkpt>
      <trkpt lat="41.80519" lon="9.13216">
        <ele>1360.4</ele>
        <time>2021-06-03T07:27:32Z</time>
      </trkpt>
      <trkpt lat="41.80521" lon="9.13216">
        <ele>1360.4</ele>
        <time>2021-06-03T07:27:33Z</time>
      </trkpt>
      <trkpt lat="41.80523" lon="9.13217">
        <ele>1360.4</ele>
        <time>2021-06-03T07:27:34Z</time>
      </trkpt>
      <trkpt lat="41.80524" lon="9.13217">
        <ele>1360.6</ele>
        <time>2021-06-03T07:27:35Z</time>
      </trkpt>
      <trkpt lat="41.80526" lon="9.13217">
        <ele>1361.2</ele>
        <time>2021-06-03T07:27:36Z</time>
      </trkpt>
      <trkpt lat="41.80527" lon="9.13218">
        <ele>1361.2</ele>
        <time>2021-06-03T07:27:37Z</time>
      </trkpt>
      <trkpt lat="41.80529" lon="9.13219">
        <ele>1361.2</ele>
        <time>2021-06-03T07:27:38Z</time>
      </trkpt>
      <trkpt lat="41.8053" lon="9.13219">
        <ele>1360.8</ele>
        <time>2021-06-03T07:27:39Z</time>
      </trkpt>
      <trkpt lat="41.80532" lon="9.1322">
        <ele>1360.8</ele>
        <time>2021-06-03T07:27:40Z</time>
      </trkpt>
      <trkpt lat="41.80533" lon="9.13221">
        <ele>1360.8</ele>
        <time>2021-06-03T07:27:41Z</time>
      </trkpt>
      <trkpt lat="41.80535" lon="9.13221">
        <ele>1360.8</ele>
        <time>2021-06-03T07:27:42Z</time>
      </trkpt>
      <trkpt lat="41.80536" lon="9.13221">
        <ele>1361.6</ele>
        <time>2021-06-03T07:27:43Z</time>
      </trkpt>
      <trkpt lat="41.80538" lon="9.13222">
        <ele>1361.6</ele>
        <time>2021-06-03T07:27:44Z</time>
      </trkpt>
      <trkpt lat="41.80539" lon="9.13223">
        <ele>1361.6</ele>
        <time>2021-06-03T07:27:45Z</time>
      </trkpt>
      <trkpt lat="41.80541" lon="9.13224">
        <ele>1361.6</ele>
        <time>2021-06-03T07:27:46Z</time>
      </trkpt>
      <trkpt lat="41.80542" lon="9.13224">
        <ele>1361.6</ele>
        <time>2021-06-03T07:27:47Z</time>
      </trkpt>
      <trkpt lat="41.80544" lon="9.13225">
        <ele>1362.6</ele>
        <time>2021-06-03T07:27:48Z</time>
      </trkpt>
      <trkpt lat="41.80545" lon="9.13226">
        <ele>1362.6</ele>
        <time>2021-06-03T07:27:49Z</time>
      </trkpt>
      <trkpt lat="41.80546" lon="9.13226">
        <ele>1362.6</ele>
        <time>2021-06-03T07:27:50Z</time>
      </trkpt>
      <trkpt lat="41.80548" lon="9.13227">
        <ele>1362.6</ele>
        <time>2021-06-03T07:27:51Z</time>
      </trkpt>
      <trkpt lat="41.80549" lon="9.13228">
        <ele>1363.4</ele>
        <time>2021-06-03T07:27:52Z</time>
      </trkpt>
      <trkpt lat="41.8055" lon="9.13229">
        <ele>1363.4</ele>
        <time>2021-06-03T07:27:53Z</time>
      </trkpt>
      <trkpt lat="41.80551" lon="9.13229">
        <ele>1363.4</ele>
        <time>2021-06-03T07:27:54Z</time>
      </trkpt>
      <trkpt lat="41.80552" lon="9.1323">
        <ele>1363.4</ele>
        <time>2021-06-03T07:27:55Z</time>
      </trkpt>
      <trkpt lat="41.80554" lon="9.13231">
        <ele>1363.4</ele>
        <time>2021-06-03T07:27:56Z</time>
      </trkpt>
      <trkpt lat="41.80555" lon="9.13232">
        <ele>1363.4</ele>
        <time>2021-06-03T07:27:57Z</time>
      </trkpt>
      <trkpt lat="41.80556" lon="9.13232">
        <ele>1363.4</ele>
        <time>2021-06-03T07:27:58Z</time>
      </trkpt>
      <trkpt lat="41.80557" lon="9.13233">
        <ele>1364</ele>
        <time>2021-06-03T07:27:59Z</time>
      </trkpt>
      <trkpt lat="41.80559" lon="9.13234">
        <ele>1364</ele>
        <time>2021-06-03T07:28:00Z</time>
      </trkpt>
      <trkpt lat="41.8056" lon="9.13234">
        <ele>1364</ele>
        <time>2021-06-03T07:28:01Z</time>
      </trkpt>
      <trkpt lat="41.80561" lon="9.13235">
        <ele>1364</ele>
        <time>2021-06-03T07:28:02Z</time>
      </trkpt>
      <trkpt lat="41.80562" lon="9.13236">
        <ele>1364.6</ele>
        <time>2021-06-03T07:28:03Z</time>
      </trkpt>
      <trkpt lat="41.80563" lon="9.13236">
        <ele>1364.6</ele>
        <time>2021-06-03T07:28:04Z</time>
      </trkpt>
      <trkpt lat="41.80564" lon="9.13237">
        <ele>1364.6</ele>
        <time>2021-06-03T07:28:05Z</time>
      </trkpt>
      <trkpt lat="41.80565" lon="9.13238">
        <ele>1364.6</ele>
        <time>2021-06-03T07:28:06Z</time>
      </trkpt>
      <trkpt lat="41.80566" lon="9.13239">
        <ele>1365.4</ele>
        <time>2021-06-03T07:28:07Z</time>
      </trkpt>
      <trkpt lat="41.80567" lon="9.1324">
        <ele>1365.6</ele>
        <time>2021-06-03T07:28:08Z</time>
      </trkpt>
      <trkpt lat="41.80568" lon="9.13241">
        <ele>1365.6</ele>
        <time>2021-06-03T07:28:09Z</time>
      </trkpt>
      <trkpt lat="41.80569" lon="9.13242">
        <ele>1365.6</ele>
        <time>2021-06-03T07:28:10Z</time>
      </trkpt>
      <trkpt lat="41.8057" lon="9.13243">
        <ele>1365.6</ele>
        <time>2021-06-03T07:28:11Z</time>
      </trkpt>
      <trkpt lat="41.80571" lon="9.13244">
        <ele>1366.2</ele>
        <time>2021-06-03T07:28:12Z</time>
      </trkpt>
      <trkpt lat="41.80572" lon="9.13244">
        <ele>1366.2</ele>
        <time>2021-06-03T07:28:13Z</time>
      </trkpt>
      <trkpt lat="41.80573" lon="9.13245">
        <ele>1366.2</ele>
        <time>2021-06-03T07:28:14Z</time>
      </trkpt>
      <trkpt lat="41.80574" lon="9.13246">
        <ele>1366.6</ele>
        <time>2021-06-03T07:28:15Z</time>
      </trkpt>
      <trkpt lat="41.80575" lon="9.13247">
        <ele>1366.8</ele>
        <time>2021-06-03T07:28:16Z</time>
      </trkpt>
      <trkpt lat="41.80576" lon="9.13248">
        <ele>1366.8</ele>
        <time>2021-06-03T07:28:17Z</time>
      </trkpt>
      <trkpt lat="41.80577" lon="9.13248">
        <ele>1366.8</ele>
        <time>2021-06-03T07:28:18Z</time>
      </trkpt>
      <trkpt lat="41.80579" lon="9.13249">
        <ele>1367.4</ele>
        <time>2021-06-03T07:28:19Z</time>
      </trkpt>
      <trkpt lat="41.80579" lon="9.1325">
        <ele>1367.4</ele>
        <time>2021-06-03T07:28:20Z</time>
      </trkpt>
      <trkpt lat="41.80581" lon="9.13251">
        <ele>1367.4</ele>
        <time>2021-06-03T07:28:21Z</time>
      </trkpt>
      <trkpt lat="41.80582" lon="9.13252">
        <ele>1367.4</ele>
        <time>2021-06-03T07:28:22Z</time>
      </trkpt>
      <trkpt lat="41.80583" lon="9.13253">
        <ele>1367.8</ele>
        <time>2021-06-03T07:28:23Z</time>
      </trkpt>
      <trkpt lat="41.80584" lon="9.13253">
        <ele>1368.4</ele>
        <time>2021-06-03T07:28:24Z</time>
      </trkpt>
      <trkpt lat="41.80585" lon="9.13254">
        <ele>1368.4</ele>
        <time>2021-06-03T07:28:25Z</time>
      </trkpt>
      <trkpt lat="41.80586" lon="9.13254">
        <ele>1368.4</ele>
        <time>2021-06-03T07:28:26Z</time>
      </trkpt>
      <trkpt lat="41.80587" lon="9.13255">
        <ele>1368.4</ele>
        <time>2021-06-03T07:28:27Z</time>
      </trkpt>
      <trkpt lat="41.80588" lon="9.13256">
        <ele>1369</ele>
        <time>2021-06-03T07:28:28Z</time>
      </trkpt>
      <trkpt lat="41.80589" lon="9.13257">
        <ele>1369</ele>
        <time>2021-06-03T07:28:29Z</time>
      </trkpt>
      <trkpt lat="41.8059" lon="9.13258">
        <ele>1369</ele>
        <time>2021-06-03T07:28:30Z</time>
      </trkpt>
      <trkpt lat="41.80591" lon="9.13259">
        <ele>1369.4</ele>
        <time>2021-06-03T07:28:31Z</time>
      </trkpt>
      <trkpt lat="41.80593" lon="9.13259">
        <ele>1369.2</ele>
        <time>2021-06-03T07:28:32Z</time>
      </trkpt>
      <trkpt lat="41.80594" lon="9.1326">
        <ele>1369.2</ele>
        <time>2021-06-03T07:28:33Z</time>
      </trkpt>
      <trkpt lat="41.80595" lon="9.13261">
        <ele>1369.2</ele>
        <time>2021-06-03T07:28:34Z</time>
      </trkpt>
      <trkpt lat="41.80596" lon="9.13262">
        <ele>1370.2</ele>
        <time>2021-06-03T07:28:35Z</time>
      </trkpt>
      <trkpt lat="41.80597" lon="9.13263">
        <ele>1370.2</ele>
        <time>2021-06-03T07:28:36Z</time>
      </trkpt>
      <trkpt lat="41.80598" lon="9.13264">
        <ele>1370.2</ele>
        <time>2021-06-03T07:28:37Z</time>
      </trkpt>
      <trkpt lat="41.80599" lon="9.13264">
        <ele>1370.2</ele>
        <time>2021-06-03T07:28:38Z</time>
      </trkpt>
      <trkpt lat="41.806" lon="9.13265">
        <ele>1370.6</ele>
        <time>2021-06-03T07:28:39Z</time>
      </trkpt>
      <trkpt lat="41.80601" lon="9.13266">
        <ele>1370.6</ele>
        <time>2021-06-03T07:28:40Z</time>
      </trkpt>
      <trkpt lat="41.80602" lon="9.13267">
        <ele>1370.6</ele>
        <time>2021-06-03T07:28:41Z</time>
      </trkpt>
      <trkpt lat="41.80603" lon="9.13267">
        <ele>1370.6</ele>
        <time>2021-06-03T07:28:42Z</time>
      </trkpt>
      <trkpt lat="41.80605" lon="9.13268">
        <ele>1370.6</ele>
        <time>2021-06-03T07:28:43Z</time>
      </trkpt>
      <trkpt lat="41.80606" lon="9.13268">
        <ele>1370.8</ele>
        <time>2021-06-03T07:28:44Z</time>
      </trkpt>
      <trkpt lat="41.80607" lon="9.13269">
        <ele>1370.8</ele>
        <time>2021-06-03T07:28:45Z</time>
      </trkpt>
      <trkpt lat="41.80608" lon="9.13269">
        <ele>1370.8</ele>
        <time>2021-06-03T07:28:46Z</time>
      </trkpt>
      <trkpt lat="41.80609" lon="9.1327">
        <ele>1371.6</ele>
        <time>2021-06-03T07:28:47Z</time>
      </trkpt>
      <trkpt lat="41.8061" lon="9.13271">
        <ele>1371.8</ele>
        <time>2021-06-03T07:28:48Z</time>
      </trkpt>
      <trkpt lat="41.80612" lon="9.13271">
        <ele>1371.8</ele>
        <time>2021-06-03T07:28:49Z</time>
      </trkpt>
      <trkpt lat="41.80613" lon="9.13272">
        <ele>1371.8</ele>
        <time>2021-06-03T07:28:50Z</time>
      </trkpt>
      <trkpt lat="41.80614" lon="9.13272">
        <ele>1371.8</ele>
        <time>2021-06-03T07:28:51Z</time>
      </trkpt>
      <trkpt lat="41.80615" lon="9.13273">
        <ele>1372.2</ele>
        <time>2021-06-03T07:28:52Z</time>
      </trkpt>
      <trkpt lat="41.80616" lon="9.13273">
        <ele>1372.2</ele>
        <time>2021-06-03T07:28:53Z</time>
      </trkpt>
      <trkpt lat="41.80618" lon="9.13273">
        <ele>1372.2</ele>
        <time>2021-06-03T07:28:54Z</time>
      </trkpt>
      <trkpt lat="41.80619" lon="9.13273">
        <ele>1372.2</ele>
        <time>2021-06-03T07:28:55Z</time>
      </trkpt>
      <trkpt lat="41.8062" lon="9.13273">
        <ele>1372.8</ele>
        <time>2021-06-03T07:28:56Z</time>
      </trkpt>
      <trkpt lat="41.80622" lon="9.13274">
        <ele>1372.8</ele>
        <time>2021-06-03T07:28:57Z</time>
      </trkpt>
      <trkpt lat="41.80623" lon="9.13274">
        <ele>1372.8</ele>
        <time>2021-06-03T07:28:58Z</time>
      </trkpt>
      <trkpt lat="41.80624" lon="9.13275">
        <ele>1372.8</ele>
        <time>2021-06-03T07:28:59Z</time>
      </trkpt>
      <trkpt lat="41.80625" lon="9.13276">
        <ele>1373.2</ele>
        <time>2021-06-03T07:29:00Z</time>
      </trkpt>
      <trkpt lat="41.80626" lon="9.13276">
        <ele>1373.2</ele>
        <time>2021-06-03T07:29:01Z</time>
      </trkpt>
      <trkpt lat="41.80627" lon="9.13276">
        <ele>1373.2</ele>
        <time>2021-06-03T07:29:02Z</time>
      </trkpt>
      <trkpt lat="41.80629" lon="9.13276">
        <ele>1373.2</ele>
        <time>2021-06-03T07:29:03Z</time>
      </trkpt>
      <trkpt lat="41.8063" lon="9.13276">
        <ele>1373.4</ele>
        <time>2021-06-03T07:29:04Z</time>
      </trkpt>
      <trkpt lat="41.80631" lon="9.13276">
        <ele>1373.4</ele>
        <time>2021-06-03T07:29:05Z</time>
      </trkpt>
      <trkpt lat="41.80632" lon="9.13276">
        <ele>1373.4</ele>
        <time>2021-06-03T07:29:06Z</time>
      </trkpt>
      <trkpt lat="41.80634" lon="9.13276">
        <ele>1373.4</ele>
        <time>2021-06-03T07:29:07Z</time>
      </trkpt>
      <trkpt lat="41.80635" lon="9.13277">
        <ele>1374</ele>
        <time>2021-06-03T07:29:08Z</time>
      </trkpt>
      <trkpt lat="41.80636" lon="9.13277">
        <ele>1374</ele>
        <time>2021-06-03T07:29:09Z</time>
      </trkpt>
      <trkpt lat="41.80637" lon="9.13278">
        <ele>1374</ele>
        <time>2021-06-03T07:29:10Z</time>
      </trkpt>
      <trkpt lat="41.80638" lon="9.13278">
        <ele>1374</ele>
        <time>2021-06-03T07:29:11Z</time>
      </trkpt>
      <trkpt lat="41.8064" lon="9.13279">
        <ele>1374.4</ele>
        <time>2021-06-03T07:29:12Z</time>
      </trkpt>
      <trkpt lat="41.80641" lon="9.13279">
        <ele>1374.4</ele>
        <time>2021-06-03T07:29:13Z</time>
      </trkpt>
      <trkpt lat="41.80642" lon="9.1328">
        <ele>1374.4</ele>
        <time>2021-06-03T07:29:14Z</time>
      </trkpt>
      <trkpt lat="41.80643" lon="9.1328">
        <ele>1374.8</ele>
        <time>2021-06-03T07:29:15Z</time>
      </trkpt>
      <trkpt lat="41.80644" lon="9.1328">
        <ele>1375</ele>
        <time>2021-06-03T07:29:16Z</time>
      </trkpt>
      <trkpt lat="41.80646" lon="9.1328">
        <ele>1375</ele>
        <time>2021-06-03T07:29:17Z</time>
      </trkpt>
      <trkpt lat="41.80647" lon="9.13281">
        <ele>1375</ele>
        <time>2021-06-03T07:29:18Z</time>
      </trkpt>
      <trkpt lat="41.80648" lon="9.13281">
        <ele>1375.2</ele>
        <time>2021-06-03T07:29:19Z</time>
      </trkpt>
      <trkpt lat="41.80649" lon="9.13281">
        <ele>1375.2</ele>
        <time>2021-06-03T07:29:20Z</time>
      </trkpt>
      <trkpt lat="41.8065" lon="9.13282">
        <ele>1375.2</ele>
        <time>2021-06-03T07:29:21Z</time>
      </trkpt>
      <trkpt lat="41.80652" lon="9.13282">
        <ele>1375.2</ele>
        <time>2021-06-03T07:29:22Z</time>
      </trkpt>
      <trkpt lat="41.80653" lon="9.13282">
        <ele>1375.8</ele>
        <time>2021-06-03T07:29:23Z</time>
      </trkpt>
      <trkpt lat="41.80654" lon="9.13283">
        <ele>1376</ele>
        <time>2021-06-03T07:29:24Z</time>
      </trkpt>
      <trkpt lat="41.80655" lon="9.13283">
        <ele>1376</ele>
        <time>2021-06-03T07:29:25Z</time>
      </trkpt>
      <trkpt lat="41.80657" lon="9.13283">
        <ele>1376</ele>
        <time>2021-06-03T07:29:26Z</time>
      </trkpt>
      <trkpt lat="41.80658" lon="9.13283">
        <ele>1376.2</ele>
        <time>2021-06-03T07:29:27Z</time>
      </trkpt>
      <trkpt lat="41.80659" lon="9.13284">
        <ele>1376.6</ele>
        <time>2021-06-03T07:29:28Z</time>
      </trkpt>
      <trkpt lat="41.8066" lon="9.13284">
        <ele>1376.6</ele>
        <time>2021-06-03T07:29:29Z</time>
      </trkpt>
      <trkpt lat="41.80661" lon="9.13284">
        <ele>1376.6</ele>
        <time>2021-06-03T07:29:30Z</time>
      </trkpt>
      <trkpt lat="41.80662" lon="9.13284">
        <ele>1376.6</ele>
        <time>2021-06-03T07:29:31Z</time>
      </trkpt>
      <trkpt lat="41.80663" lon="9.13284">
        <ele>1377.2</ele>
        <time>2021-06-03T07:29:32Z</time>
      </trkpt>
      <trkpt lat="41.80665" lon="9.13284">
        <ele>1377.2</ele>
        <time>2021-06-03T07:29:33Z</time>
      </trkpt>
      <trkpt lat="41.80666" lon="9.13285">
        <ele>1377.2</ele>
        <time>2021-06-03T07:29:34Z</time>
      </trkpt>
      <trkpt lat="41.80667" lon="9.13285">
        <ele>1377.2</ele>
        <time>2021-06-03T07:29:35Z</time>
      </trkpt>
      <trkpt lat="41.80668" lon="9.13286">
        <ele>1377.6</ele>
        <time>2021-06-03T07:29:36Z</time>
      </trkpt>
      <trkpt lat="41.80669" lon="9.13286">
        <ele>1377.6</ele>
        <time>2021-06-03T07:29:37Z</time>
      </trkpt>
      <trkpt lat="41.8067" lon="9.13286">
        <ele>1377.6</ele>
        <time>2021-06-03T07:29:38Z</time>
      </trkpt>
      <trkpt lat="41.80671" lon="9.13287">
        <ele>1377.6</ele>
        <time>2021-06-03T07:29:39Z</time>
      </trkpt>
      <trkpt lat="41.80673" lon="9.13287">
        <ele>1378</ele>
        <time>2021-06-03T07:29:40Z</time>
      </trkpt>
      <trkpt lat="41.80674" lon="9.13287">
        <ele>1378</ele>
        <time>2021-06-03T07:29:41Z</time>
      </trkpt>
      <trkpt lat="41.80675" lon="9.13287">
        <ele>1378</ele>
        <time>2021-06-03T07:29:42Z</time>
      </trkpt>
      <trkpt lat="41.80676" lon="9.13287">
        <ele>1378</ele>
        <time>2021-06-03T07:29:43Z</time>
      </trkpt>
      <trkpt lat="41.80677" lon="9.13287">
        <ele>1378.4</ele>
        <time>2021-06-03T07:29:44Z</time>
      </trkpt>
      <trkpt lat="41.80679" lon="9.13288">
        <ele>1378.4</ele>
        <time>2021-06-03T07:29:45Z</time>
      </trkpt>
      <trkpt lat="41.8068" lon="9.13288">
        <ele>1378.4</ele>
        <time>2021-06-03T07:29:46Z</time>
      </trkpt>
      <trkpt lat="41.80681" lon="9.13289">
        <ele>1378.6</ele>
        <time>2021-06-03T07:29:47Z</time>
      </trkpt>
      <trkpt lat="41.80682" lon="9.13289">
        <ele>1378.8</ele>
        <time>2021-06-03T07:29:48Z</time>
      </trkpt>
      <trkpt lat="41.80683" lon="9.13289">
        <ele>1378.8</ele>
        <time>2021-06-03T07:29:49Z</time>
      </trkpt>
      <trkpt lat="41.80685" lon="9.13289">
        <ele>1378.8</ele>
        <time>2021-06-03T07:29:50Z</time>
      </trkpt>
      <trkpt lat="41.80686" lon="9.1329">
        <ele>1379</ele>
        <time>2021-06-03T07:29:51Z</time>
      </trkpt>
      <trkpt lat="41.80687" lon="9.1329">
        <ele>1379.4</ele>
        <time>2021-06-03T07:29:52Z</time>
      </trkpt>
      <trkpt lat="41.80688" lon="9.1329">
        <ele>1379.4</ele>
        <time>2021-06-03T07:29:53Z</time>
      </trkpt>
      <trkpt lat="41.8069" lon="9.13291">
        <ele>1379.4</ele>
        <time>2021-06-03T07:29:54Z</time>
      </trkpt>
      <trkpt lat="41.80691" lon="9.13291">
        <ele>1379.4</ele>
        <time>2021-06-03T07:29:55Z</time>
      </trkpt>
      <trkpt lat="41.80692" lon="9.13291">
        <ele>1379.6</ele>
        <time>2021-06-03T07:29:56Z</time>
      </trkpt>
      <trkpt lat="41.80693" lon="9.13291">
        <ele>1379.6</ele>
        <time>2021-06-03T07:29:57Z</time>
      </trkpt>
      <trkpt lat="41.80695" lon="9.13291">
        <ele>1379.6</ele>
        <time>2021-06-03T07:29:58Z</time>
      </trkpt>
      <trkpt lat="41.80696" lon="9.13292">
        <ele>1379.6</ele>
        <time>2021-06-03T07:29:59Z</time>
      </trkpt>
      <trkpt lat="41.80697" lon="9.13292">
        <ele>1380</ele>
        <time>2021-06-03T07:30:00Z</time>
      </trkpt>
      <trkpt lat="41.80698" lon="9.13292">
        <ele>1380</ele>
        <time>2021-06-03T07:30:01Z</time>
      </trkpt>
      <trkpt lat="41.807" lon="9.13292">
        <ele>1380</ele>
        <time>2021-06-03T07:30:02Z</time>
      </trkpt>
      <trkpt lat="41.80701" lon="9.13293">
        <ele>1380.8</ele>
        <time>2021-06-03T07:30:03Z</time>
      </trkpt>
      <trkpt lat="41.80702" lon="9.13294">
        <ele>1381</ele>
        <time>2021-06-03T07:30:04Z</time>
      </trkpt>
      <trkpt lat="41.80703" lon="9.13294">
        <ele>1381</ele>
        <time>2021-06-03T07:30:05Z</time>
      </trkpt>
      <trkpt lat="41.80705" lon="9.13294">
        <ele>1381</ele>
        <time>2021-06-03T07:30:06Z</time>
      </trkpt>
      <trkpt lat="41.80706" lon="9.13294">
        <ele>1381.2</ele>
        <time>2021-06-03T07:30:07Z</time>
      </trkpt>
      <trkpt lat="41.80707" lon="9.13295">
        <ele>1381.4</ele>
        <time>2021-06-03T07:30:08Z</time>
      </trkpt>
      <trkpt lat="41.80709" lon="9.13295">
        <ele>1381.4</ele>
        <time>2021-06-03T07:30:09Z</time>
      </trkpt>
      <trkpt lat="41.8071" lon="9.13296">
        <ele>1381.4</ele>
        <time>2021-06-03T07:30:10Z</time>
      </trkpt>
      <trkpt lat="41.80712" lon="9.13295">
        <ele>1381.6</ele>
        <time>2021-06-03T07:30:11Z</time>
      </trkpt>
      <trkpt lat="41.80713" lon="9.13295">
        <ele>1381.8</ele>
        <time>2021-06-03T07:30:12Z</time>
      </trkpt>
      <trkpt lat="41.80714" lon="9.13295">
        <ele>1381.8</ele>
        <time>2021-06-03T07:30:13Z</time>
      </trkpt>
      <trkpt lat="41.80716" lon="9.13295">
        <ele>1381.8</ele>
        <time>2021-06-03T07:30:14Z</time>
      </trkpt>
      <trkpt lat="41.80717" lon="9.13294">
        <ele>1381.6</ele>
        <time>2021-06-03T07:30:15Z</time>
      </trkpt>
      <trkpt lat="41.80719" lon="9.13294">
        <ele>1381.6</ele>
        <time>2021-06-03T07:30:16Z</time>
      </trkpt>
      <trkpt lat="41.80721" lon="9.13294">
        <ele>1381.6</ele>
        <time>2021-06-03T07:30:17Z</time>
      </trkpt>
      <trkpt lat="41.80722" lon="9.13293">
        <ele>1381.6</ele>
        <time>2021-06-03T07:30:18Z</time>
      </trkpt>
      <trkpt lat="41.80724" lon="9.13292">
        <ele>1381.4</ele>
        <time>2021-06-03T07:30:19Z</time>
      </trkpt>
      <trkpt lat="41.80726" lon="9.13292">
        <ele>1381.4</ele>
        <time>2021-06-03T07:30:20Z</time>
      </trkpt>
      <trkpt lat="41.80727" lon="9.13292">
        <ele>1381.4</ele>
        <time>2021-06-03T07:30:21Z</time>
      </trkpt>
      <trkpt lat="41.80729" lon="9.13291">
        <ele>1381.4</ele>
        <time>2021-06-03T07:30:22Z</time>
      </trkpt>
      <trkpt lat="41.80731" lon="9.13291">
        <ele>1381.4</ele>
        <time>2021-06-03T07:30:23Z</time>
      </trkpt>
      <trkpt lat="41.80733" lon="9.1329">
        <ele>1381.4</ele>
        <time>2021-06-03T07:30:24Z</time>
      </trkpt>
      <trkpt lat="41.80734" lon="9.1329">
        <ele>1381.4</ele>
        <time>2021-06-03T07:30:25Z</time>
      </trkpt>
      <trkpt lat="41.80736" lon="9.13289">
        <ele>1381.4</ele>
        <time>2021-06-03T07:30:26Z</time>
      </trkpt>
      <trkpt lat="41.80738" lon="9.13288">
        <ele>1381.8</ele>
        <time>2021-06-03T07:30:27Z</time>
      </trkpt>
      <trkpt lat="41.8074" lon="9.13288">
        <ele>1382</ele>
        <time>2021-06-03T07:30:28Z</time>
      </trkpt>
      <trkpt lat="41.80741" lon="9.13287">
        <ele>1382</ele>
        <time>2021-06-03T07:30:29Z</time>
      </trkpt>
      <trkpt lat="41.80743" lon="9.13286">
        <ele>1382</ele>
        <time>2021-06-03T07:30:30Z</time>
      </trkpt>
      <trkpt lat="41.80745" lon="9.13285">
        <ele>1382</ele>
        <time>2021-06-03T07:30:31Z</time>
      </trkpt>
      <trkpt lat="41.80746" lon="9.13284">
        <ele>1382</ele>
        <time>2021-06-03T07:30:32Z</time>
      </trkpt>
      <trkpt lat="41.80748" lon="9.13284">
        <ele>1382</ele>
        <time>2021-06-03T07:30:33Z</time>
      </trkpt>
      <trkpt lat="41.8075" lon="9.13284">
        <ele>1382</ele>
        <time>2021-06-03T07:30:34Z</time>
      </trkpt>
      <trkpt lat="41.80751" lon="9.13283">
        <ele>1382.4</ele>
        <time>2021-06-03T07:30:35Z</time>
      </trkpt>
      <trkpt lat="41.80753" lon="9.13283">
        <ele>1383</ele>
        <time>2021-06-03T07:30:36Z</time>
      </trkpt>
      <trkpt lat="41.80754" lon="9.13283">
        <ele>1383</ele>
        <time>2021-06-03T07:30:37Z</time>
      </trkpt>
      <trkpt lat="41.80756" lon="9.13283">
        <ele>1383</ele>
        <time>2021-06-03T07:30:38Z</time>
      </trkpt>
      <trkpt lat="41.80757" lon="9.13283">
        <ele>1383</ele>
        <time>2021-06-03T07:30:39Z</time>
      </trkpt>
      <trkpt lat="41.80759" lon="9.13283">
        <ele>1383</ele>
        <time>2021-06-03T07:30:40Z</time>
      </trkpt>
      <trkpt lat="41.8076" lon="9.13283">
        <ele>1383</ele>
        <time>2021-06-03T07:30:41Z</time>
      </trkpt>
      <trkpt lat="41.80761" lon="9.13283">
        <ele>1383</ele>
        <time>2021-06-03T07:30:42Z</time>
      </trkpt>
      <trkpt lat="41.80763" lon="9.13283">
        <ele>1383</ele>
        <time>2021-06-03T07:30:43Z</time>
      </trkpt>
      <trkpt lat="41.80764" lon="9.13284">
        <ele>1384</ele>
        <time>2021-06-03T07:30:44Z</time>
      </trkpt>
      <trkpt lat="41.80765" lon="9.13284">
        <ele>1384</ele>
        <time>2021-06-03T07:30:45Z</time>
      </trkpt>
      <trkpt lat="41.80767" lon="9.13284">
        <ele>1384</ele>
        <time>2021-06-03T07:30:46Z</time>
      </trkpt>
      <trkpt lat="41.80768" lon="9.13285">
        <ele>1384.6</ele>
        <time>2021-06-03T07:30:47Z</time>
      </trkpt>
      <trkpt lat="41.80769" lon="9.13285">
        <ele>1384.6</ele>
        <time>2021-06-03T07:30:48Z</time>
      </trkpt>
      <trkpt lat="41.80771" lon="9.13286">
        <ele>1384.6</ele>
        <time>2021-06-03T07:30:49Z</time>
      </trkpt>
      <trkpt lat="41.80772" lon="9.13286">
        <ele>1384.6</ele>
        <time>2021-06-03T07:30:50Z</time>
      </trkpt>
      <trkpt lat="41.80773" lon="9.13287">
        <ele>1385.2</ele>
        <time>2021-06-03T07:30:51Z</time>
      </trkpt>
      <trkpt lat="41.80775" lon="9.13287">
        <ele>1385.4</ele>
        <time>2021-06-03T07:30:52Z</time>
      </trkpt>
      <trkpt lat="41.80776" lon="9.13288">
        <ele>1385.4</ele>
        <time>2021-06-03T07:30:53Z</time>
      </trkpt>
      <trkpt lat="41.80777" lon="9.13288">
        <ele>1385.4</ele>
        <time>2021-06-03T07:30:54Z</time>
      </trkpt>
      <trkpt lat="41.80778" lon="9.13289">
        <ele>1386</ele>
        <time>2021-06-03T07:30:55Z</time>
      </trkpt>
      <trkpt lat="41.80779" lon="9.1329">
        <ele>1386.4</ele>
        <time>2021-06-03T07:30:56Z</time>
      </trkpt>
      <trkpt lat="41.8078" lon="9.13291">
        <ele>1386.4</ele>
        <time>2021-06-03T07:30:57Z</time>
      </trkpt>
      <trkpt lat="41.80781" lon="9.13292">
        <ele>1386.4</ele>
        <time>2021-06-03T07:30:58Z</time>
      </trkpt>
      <trkpt lat="41.80782" lon="9.13292">
        <ele>1386.4</ele>
        <time>2021-06-03T07:30:59Z</time>
      </trkpt>
      <trkpt lat="41.80783" lon="9.13293">
        <ele>1386.4</ele>
        <time>2021-06-03T07:31:00Z</time>
      </trkpt>
      <trkpt lat="41.80785" lon="9.13294">
        <ele>1386.4</ele>
        <time>2021-06-03T07:31:01Z</time>
      </trkpt>
      <trkpt lat="41.80786" lon="9.13295">
        <ele>1386.4</ele>
        <time>2021-06-03T07:31:02Z</time>
      </trkpt>
      <trkpt lat="41.80787" lon="9.13295">
        <ele>1386.4</ele>
        <time>2021-06-03T07:31:03Z</time>
      </trkpt>
      <trkpt lat="41.80788" lon="9.13296">
        <ele>1387.4</ele>
        <time>2021-06-03T07:31:04Z</time>
      </trkpt>
      <trkpt lat="41.80789" lon="9.13297">
        <ele>1387.4</ele>
        <time>2021-06-03T07:31:05Z</time>
      </trkpt>
      <trkpt lat="41.8079" lon="9.13298">
        <ele>1387.4</ele>
        <time>2021-06-03T07:31:06Z</time>
      </trkpt>
      <trkpt lat="41.80791" lon="9.13298">
        <ele>1387.4</ele>
        <time>2021-06-03T07:31:07Z</time>
      </trkpt>
      <trkpt lat="41.80792" lon="9.13299">
        <ele>1387.6</ele>
        <time>2021-06-03T07:31:08Z</time>
      </trkpt>
      <trkpt lat="41.80793" lon="9.13301">
        <ele>1387.6</ele>
        <time>2021-06-03T07:31:09Z</time>
      </trkpt>
      <trkpt lat="41.80794" lon="9.13302">
        <ele>1387.6</ele>
        <time>2021-06-03T07:31:10Z</time>
      </trkpt>
      <trkpt lat="41.80795" lon="9.13303">
        <ele>1388</ele>
        <time>2021-06-03T07:31:11Z</time>
      </trkpt>
      <trkpt lat="41.80796" lon="9.13304">
        <ele>1388.4</ele>
        <time>2021-06-03T07:31:12Z</time>
      </trkpt>
      <trkpt lat="41.80797" lon="9.13304">
        <ele>1388.4</ele>
        <time>2021-06-03T07:31:13Z</time>
      </trkpt>
      <trkpt lat="41.80799" lon="9.13305">
        <ele>1388.4</ele>
        <time>2021-06-03T07:31:14Z</time>
      </trkpt>
      <trkpt lat="41.808" lon="9.13306">
        <ele>1388.4</ele>
        <time>2021-06-03T07:31:15Z</time>
      </trkpt>
      <trkpt lat="41.80801" lon="9.13307">
        <ele>1389.2</ele>
        <time>2021-06-03T07:31:16Z</time>
      </trkpt>
      <trkpt lat="41.80802" lon="9.13307">
        <ele>1389.2</ele>
        <time>2021-06-03T07:31:17Z</time>
      </trkpt>
      <trkpt lat="41.80803" lon="9.13308">
        <ele>1389.2</ele>
        <time>2021-06-03T07:31:18Z</time>
      </trkpt>
      <trkpt lat="41.80804" lon="9.13309">
        <ele>1389.2</ele>
        <time>2021-06-03T07:31:19Z</time>
      </trkpt>
      <trkpt lat="41.80805" lon="9.1331">
        <ele>1389.4</ele>
        <time>2021-06-03T07:31:20Z</time>
      </trkpt>
      <trkpt lat="41.80806" lon="9.13311">
        <ele>1389.4</ele>
        <time>2021-06-03T07:31:21Z</time>
      </trkpt>
      <trkpt lat="41.80808" lon="9.13311">
        <ele>1389.4</ele>
        <time>2021-06-03T07:31:22Z</time>
      </trkpt>
      <trkpt lat="41.80809" lon="9.13312">
        <ele>1389.8</ele>
        <time>2021-06-03T07:31:23Z</time>
      </trkpt>
      <trkpt lat="41.8081" lon="9.13313">
        <ele>1390.2</ele>
        <time>2021-06-03T07:31:24Z</time>
      </trkpt>
      <trkpt lat="41.80811" lon="9.13314">
        <ele>1390.2</ele>
        <time>2021-06-03T07:31:25Z</time>
      </trkpt>
      <trkpt lat="41.80812" lon="9.13315">
        <ele>1390.2</ele>
        <time>2021-06-03T07:31:26Z</time>
      </trkpt>
      <trkpt lat="41.80813" lon="9.13315">
        <ele>1390</ele>
        <time>2021-06-03T07:31:27Z</time>
      </trkpt>
      <trkpt lat="41.80814" lon="9.13316">
        <ele>1390.2</ele>
        <time>2021-06-03T07:31:28Z</time>
      </trkpt>
      <trkpt lat="41.80815" lon="9.13317">
        <ele>1390.2</ele>
        <time>2021-06-03T07:31:29Z</time>
      </trkpt>
      <trkpt lat="41.80816" lon="9.13318">
        <ele>1390.2</ele>
        <time>2021-06-03T07:31:30Z</time>
      </trkpt>
      <trkpt lat="41.80817" lon="9.13319">
        <ele>1390.8</ele>
        <time>2021-06-03T07:31:31Z</time>
      </trkpt>
      <trkpt lat="41.80818" lon="9.1332">
        <ele>1390.6</ele>
        <time>2021-06-03T07:31:32Z</time>
      </trkpt>
      <trkpt lat="41.80819" lon="9.13321">
        <ele>1390.6</ele>
        <time>2021-06-03T07:31:33Z</time>
      </trkpt>
      <trkpt lat="41.8082" lon="9.13322">
        <ele>1390.6</ele>
        <time>2021-06-03T07:31:34Z</time>
      </trkpt>
      <trkpt lat="41.80821" lon="9.13322">
        <ele>1391</ele>
        <time>2021-06-03T07:31:35Z</time>
      </trkpt>
      <trkpt lat="41.80822" lon="9.13323">
        <ele>1391.2</ele>
        <time>2021-06-03T07:31:36Z</time>
      </trkpt>
      <trkpt lat="41.80823" lon="9.13324">
        <ele>1391.2</ele>
        <time>2021-06-03T07:31:37Z</time>
      </trkpt>
      <trkpt lat="41.80824" lon="9.13324">
        <ele>1391.2</ele>
        <time>2021-06-03T07:31:38Z</time>
      </trkpt>
      <trkpt lat="41.80825" lon="9.13325">
        <ele>1391.8</ele>
        <time>2021-06-03T07:31:39Z</time>
      </trkpt>
      <trkpt lat="41.80826" lon="9.13326">
        <ele>1392</ele>
        <time>2021-06-03T07:31:40Z</time>
      </trkpt>
      <trkpt lat="41.80827" lon="9.13327">
        <ele>1392</ele>
        <time>2021-06-03T07:31:41Z</time>
      </trkpt>
      <trkpt lat="41.80829" lon="9.13327">
        <ele>1392</ele>
        <time>2021-06-03T07:31:42Z</time>
      </trkpt>
      <trkpt lat="41.8083" lon="9.13328">
        <ele>1392.2</ele>
        <time>2021-06-03T07:31:43Z</time>
      </trkpt>
      <trkpt lat="41.80831" lon="9.13329">
        <ele>1392.4</ele>
        <time>2021-06-03T07:31:44Z</time>
      </trkpt>
      <trkpt lat="41.80832" lon="9.1333">
        <ele>1392.4</ele>
        <time>2021-06-03T07:31:45Z</time>
      </trkpt>
      <trkpt lat="41.80832" lon="9.13331">
        <ele>1392.4</ele>
        <time>2021-06-03T07:31:46Z</time>
      </trkpt>
      <trkpt lat="41.80833" lon="9.13332">
        <ele>1392.4</ele>
        <time>2021-06-03T07:31:47Z</time>
      </trkpt>
      <trkpt lat="41.80834" lon="9.13333">
        <ele>1393.4</ele>
        <time>2021-06-03T07:31:48Z</time>
      </trkpt>
      <trkpt lat="41.80835" lon="9.13333">
        <ele>1393.4</ele>
        <time>2021-06-03T07:31:49Z</time>
      </trkpt>
      <trkpt lat="41.80836" lon="9.13333">
        <ele>1393.4</ele>
        <time>2021-06-03T07:31:50Z</time>
      </trkpt>
      <trkpt lat="41.80837" lon="9.13334">
        <ele>1394</ele>
        <time>2021-06-03T07:31:51Z</time>
      </trkpt>
      <trkpt lat="41.80838" lon="9.13335">
        <ele>1394.2</ele>
        <time>2021-06-03T07:31:52Z</time>
      </trkpt>
      <trkpt lat="41.80839" lon="9.13336">
        <ele>1394.2</ele>
        <time>2021-06-03T07:31:53Z</time>
      </trkpt>
      <trkpt lat="41.8084" lon="9.13337">
        <ele>1394.2</ele>
        <time>2021-06-03T07:31:54Z</time>
      </trkpt>
      <trkpt lat="41.80841" lon="9.13337">
        <ele>1394.2</ele>
        <time>2021-06-03T07:31:55Z</time>
      </trkpt>
      <trkpt lat="41.80842" lon="9.13338">
        <ele>1394.4</ele>
        <time>2021-06-03T07:31:56Z</time>
      </trkpt>
      <trkpt lat="41.80843" lon="9.13338">
        <ele>1394.4</ele>
        <time>2021-06-03T07:31:57Z</time>
      </trkpt>
      <trkpt lat="41.80844" lon="9.13339">
        <ele>1394.4</ele>
        <time>2021-06-03T07:31:58Z</time>
      </trkpt>
      <trkpt lat="41.80845" lon="9.1334">
        <ele>1394.4</ele>
        <time>2021-06-03T07:31:59Z</time>
      </trkpt>
      <trkpt lat="41.80846" lon="9.13341">
        <ele>1395.2</ele>
        <time>2021-06-03T07:32:00Z</time>
      </trkpt>
      <trkpt lat="41.80847" lon="9.13341">
        <ele>1395.2</ele>
        <time>2021-06-03T07:32:01Z</time>
      </trkpt>
      <trkpt lat="41.80848" lon="9.13342">
        <ele>1395.2</ele>
        <time>2021-06-03T07:32:02Z</time>
      </trkpt>
      <trkpt lat="41.80849" lon="9.13342">
        <ele>1395.2</ele>
        <time>2021-06-03T07:32:03Z</time>
      </trkpt>
      <trkpt lat="41.8085" lon="9.13343">
        <ele>1395.4</ele>
        <time>2021-06-03T07:32:04Z</time>
      </trkpt>
      <trkpt lat="41.80851" lon="9.13344">
        <ele>1395.4</ele>
        <time>2021-06-03T07:32:05Z</time>
      </trkpt>
      <trkpt lat="41.80852" lon="9.13345">
        <ele>1395.4</ele>
        <time>2021-06-03T07:32:06Z</time>
      </trkpt>
      <trkpt lat="41.80853" lon="9.13346">
        <ele>1395.8</ele>
        <time>2021-06-03T07:32:07Z</time>
      </trkpt>
      <trkpt lat="41.80853" lon="9.13347">
        <ele>1396</ele>
        <time>2021-06-03T07:32:08Z</time>
      </trkpt>
      <trkpt lat="41.80854" lon="9.13347">
        <ele>1396</ele>
        <time>2021-06-03T07:32:09Z</time>
      </trkpt>
      <trkpt lat="41.80855" lon="9.13349">
        <ele>1396</ele>
        <time>2021-06-03T07:32:10Z</time>
      </trkpt>
      <trkpt lat="41.80856" lon="9.1335">
        <ele>1396.6</ele>
        <time>2021-06-03T07:32:11Z</time>
      </trkpt>
      <trkpt lat="41.80857" lon="9.1335">
        <ele>1396.6</ele>
        <time>2021-06-03T07:32:12Z</time>
      </trkpt>
      <trkpt lat="41.80858" lon="9.13351">
        <ele>1396.6</ele>
        <time>2021-06-03T07:32:13Z</time>
      </trkpt>
      <trkpt lat="41.80859" lon="9.13351">
        <ele>1396.6</ele>
        <time>2021-06-03T07:32:14Z</time>
      </trkpt>
      <trkpt lat="41.8086" lon="9.13352">
        <ele>1397.2</ele>
        <time>2021-06-03T07:32:15Z</time>
      </trkpt>
      <trkpt lat="41.80861" lon="9.13353">
        <ele>1397</ele>
        <time>2021-06-03T07:32:16Z</time>
      </trkpt>
      <trkpt lat="41.80862" lon="9.13354">
        <ele>1397</ele>
        <time>2021-06-03T07:32:17Z</time>
      </trkpt>
      <trkpt lat="41.80863" lon="9.13355">
        <ele>1397</ele>
        <time>2021-06-03T07:32:18Z</time>
      </trkpt>
      <trkpt lat="41.80863" lon="9.13355">
        <ele>1397.8</ele>
        <time>2021-06-03T07:32:19Z</time>
      </trkpt>
      <trkpt lat="41.80864" lon="9.13356">
        <ele>1397.6</ele>
        <time>2021-06-03T07:32:20Z</time>
      </trkpt>
      <trkpt lat="41.80865" lon="9.13357">
        <ele>1397.6</ele>
        <time>2021-06-03T07:32:21Z</time>
      </trkpt>
      <trkpt lat="41.80866" lon="9.13357">
        <ele>1397.6</ele>
        <time>2021-06-03T07:32:22Z</time>
      </trkpt>
      <trkpt lat="41.80867" lon="9.13358">
        <ele>1398.2</ele>
        <time>2021-06-03T07:32:23Z</time>
      </trkpt>
      <trkpt lat="41.80868" lon="9.13359">
        <ele>1398.4</ele>
        <time>2021-06-03T07:32:24Z</time>
      </trkpt>
      <trkpt lat="41.80869" lon="9.1336">
        <ele>1398.4</ele>
        <time>2021-06-03T07:32:25Z</time>
      </trkpt>
      <trkpt lat="41.8087" lon="9.1336">
        <ele>1398.4</ele>
        <time>2021-06-03T07:32:26Z</time>
      </trkpt>
      <trkpt lat="41.80871" lon="9.13361">
        <ele>1398.8</ele>
        <time>2021-06-03T07:32:27Z</time>
      </trkpt>
      <trkpt lat="41.80872" lon="9.13362">
        <ele>1398.6</ele>
        <time>2021-06-03T07:32:28Z</time>
      </trkpt>
      <trkpt lat="41.80873" lon="9.13362">
        <ele>1398.6</ele>
        <time>2021-06-03T07:32:29Z</time>
      </trkpt>
      <trkpt lat="41.80874" lon="9.13363">
        <ele>1398.6</ele>
        <time>2021-06-03T07:32:30Z</time>
      </trkpt>
      <trkpt lat="41.80875" lon="9.13364">
        <ele>1399</ele>
        <time>2021-06-03T07:32:31Z</time>
      </trkpt>
      <trkpt lat="41.80876" lon="9.13365">
        <ele>1398.8</ele>
        <time>2021-06-03T07:32:32Z</time>
      </trkpt>
      <trkpt lat="41.80877" lon="9.13365">
        <ele>1398.8</ele>
        <time>2021-06-03T07:32:33Z</time>
      </trkpt>
      <trkpt lat="41.80878" lon="9.13365">
        <ele>1398.8</ele>
        <time>2021-06-03T07:32:34Z</time>
      </trkpt>
      <trkpt lat="41.8088" lon="9.13366">
        <ele>1399.6</ele>
        <time>2021-06-03T07:32:35Z</time>
      </trkpt>
      <trkpt lat="41.8088" lon="9.13367">
        <ele>1399.6</ele>
        <time>2021-06-03T07:32:36Z</time>
      </trkpt>
      <trkpt lat="41.80881" lon="9.13368">
        <ele>1399.6</ele>
        <time>2021-06-03T07:32:37Z</time>
      </trkpt>
      <trkpt lat="41.80882" lon="9.13369">
        <ele>1399.6</ele>
        <time>2021-06-03T07:32:38Z</time>
      </trkpt>
      <trkpt lat="41.80883" lon="9.1337">
        <ele>1400</ele>
        <time>2021-06-03T07:32:39Z</time>
      </trkpt>
      <trkpt lat="41.80884" lon="9.13371">
        <ele>1400.2</ele>
        <time>2021-06-03T07:32:40Z</time>
      </trkpt>
      <trkpt lat="41.80885" lon="9.13372">
        <ele>1400.2</ele>
        <time>2021-06-03T07:32:41Z</time>
      </trkpt>
      <trkpt lat="41.80886" lon="9.13372">
        <ele>1400.2</ele>
        <time>2021-06-03T07:32:42Z</time>
      </trkpt>
      <trkpt lat="41.80887" lon="9.13373">
        <ele>1400.2</ele>
        <time>2021-06-03T07:32:43Z</time>
      </trkpt>
      <trkpt lat="41.80889" lon="9.13373">
        <ele>1401.2</ele>
        <time>2021-06-03T07:32:44Z</time>
      </trkpt>
      <trkpt lat="41.8089" lon="9.13374">
        <ele>1401.2</ele>
        <time>2021-06-03T07:32:45Z</time>
      </trkpt>
      <trkpt lat="41.80891" lon="9.13375">
        <ele>1401.2</ele>
        <time>2021-06-03T07:32:46Z</time>
      </trkpt>
      <trkpt lat="41.80892" lon="9.13376">
        <ele>1401.2</ele>
        <time>2021-06-03T07:32:47Z</time>
      </trkpt>
      <trkpt lat="41.80892" lon="9.13377">
        <ele>1401.8</ele>
        <time>2021-06-03T07:32:48Z</time>
      </trkpt>
      <trkpt lat="41.80893" lon="9.13378">
        <ele>1401.8</ele>
        <time>2021-06-03T07:32:49Z</time>
      </trkpt>
      <trkpt lat="41.80894" lon="9.13379">
        <ele>1401.8</ele>
        <time>2021-06-03T07:32:50Z</time>
      </trkpt>
      <trkpt lat="41.80895" lon="9.13379">
        <ele>1401.8</ele>
        <time>2021-06-03T07:32:51Z</time>
      </trkpt>
      <trkpt lat="41.80896" lon="9.1338">
        <ele>1402</ele>
        <time>2021-06-03T07:32:52Z</time>
      </trkpt>
      <trkpt lat="41.80897" lon="9.13381">
        <ele>1402</ele>
        <time>2021-06-03T07:32:53Z</time>
      </trkpt>
      <trkpt lat="41.80898" lon="9.13381">
        <ele>1402</ele>
        <time>2021-06-03T07:32:54Z</time>
      </trkpt>
      <trkpt lat="41.80899" lon="9.13382">
        <ele>1402.2</ele>
        <time>2021-06-03T07:32:55Z</time>
      </trkpt>
      <trkpt lat="41.809" lon="9.13383">
        <ele>1402.6</ele>
        <time>2021-06-03T07:32:56Z</time>
      </trkpt>
      <trkpt lat="41.80901" lon="9.13383">
        <ele>1402.6</ele>
        <time>2021-06-03T07:32:57Z</time>
      </trkpt>
      <trkpt lat="41.80902" lon="9.13383">
        <ele>1402.6</ele>
        <time>2021-06-03T07:32:58Z</time>
      </trkpt>
      <trkpt lat="41.80904" lon="9.13384">
        <ele>1403.4</ele>
        <time>2021-06-03T07:32:59Z</time>
      </trkpt>
      <trkpt lat="41.80905" lon="9.13384">
        <ele>1403</ele>
        <time>2021-06-03T07:33:00Z</time>
      </trkpt>
      <trkpt lat="41.80906" lon="9.13385">
        <ele>1403</ele>
        <time>2021-06-03T07:33:01Z</time>
      </trkpt>
      <trkpt lat="41.80907" lon="9.13386">
        <ele>1403</ele>
        <time>2021-06-03T07:33:02Z</time>
      </trkpt>
      <trkpt lat="41.80907" lon="9.13387">
        <ele>1403</ele>
        <time>2021-06-03T07:33:03Z</time>
      </trkpt>
      <trkpt lat="41.80908" lon="9.13388">
        <ele>1403.8</ele>
        <time>2021-06-03T07:33:04Z</time>
      </trkpt>
      <trkpt lat="41.80909" lon="9.13388">
        <ele>1403.8</ele>
        <time>2021-06-03T07:33:05Z</time>
      </trkpt>
      <trkpt lat="41.8091" lon="9.13388">
        <ele>1403.8</ele>
        <time>2021-06-03T07:33:06Z</time>
      </trkpt>
      <trkpt lat="41.80912" lon="9.13388">
        <ele>1404.4</ele>
        <time>2021-06-03T07:33:07Z</time>
      </trkpt>
      <trkpt lat="41.80913" lon="9.13388">
        <ele>1404.6</ele>
        <time>2021-06-03T07:33:08Z</time>
      </trkpt>
      <trkpt lat="41.80914" lon="9.13388">
        <ele>1404.6</ele>
        <time>2021-06-03T07:33:09Z</time>
      </trkpt>
      <trkpt lat="41.80915" lon="9.13388">
        <ele>1404.6</ele>
        <time>2021-06-03T07:33:10Z</time>
      </trkpt>
      <trkpt lat="41.80916" lon="9.13389">
        <ele>1404.6</ele>
        <time>2021-06-03T07:33:11Z</time>
      </trkpt>
      <trkpt lat="41.80917" lon="9.13389">
        <ele>1405.4</ele>
        <time>2021-06-03T07:33:12Z</time>
      </trkpt>
      <trkpt lat="41.80918" lon="9.13389">
        <ele>1405.4</ele>
        <time>2021-06-03T07:33:13Z</time>
      </trkpt>
      <trkpt lat="41.80919" lon="9.13389">
        <ele>1405.4</ele>
        <time>2021-06-03T07:33:14Z</time>
      </trkpt>
      <trkpt lat="41.8092" lon="9.13388">
        <ele>1405.2</ele>
        <time>2021-06-03T07:33:15Z</time>
      </trkpt>
      <trkpt lat="41.80921" lon="9.13388">
        <ele>1405.6</ele>
        <time>2021-06-03T07:33:16Z</time>
      </trkpt>
      <trkpt lat="41.80923" lon="9.13387">
        <ele>1405.6</ele>
        <time>2021-06-03T07:33:17Z</time>
      </trkpt>
      <trkpt lat="41.80924" lon="9.13387">
        <ele>1405.6</ele>
        <time>2021-06-03T07:33:18Z</time>
      </trkpt>
      <trkpt lat="41.80925" lon="9.13387">
        <ele>1405.4</ele>
        <time>2021-06-03T07:33:19Z</time>
      </trkpt>
      <trkpt lat="41.80926" lon="9.13387">
        <ele>1405.6</ele>
        <time>2021-06-03T07:33:20Z</time>
      </trkpt>
      <trkpt lat="41.80927" lon="9.13386">
        <ele>1405.6</ele>
        <time>2021-06-03T07:33:21Z</time>
      </trkpt>
      <trkpt lat="41.80928" lon="9.13386">
        <ele>1405.6</ele>
        <time>2021-06-03T07:33:22Z</time>
      </trkpt>
      <trkpt lat="41.80929" lon="9.13386">
        <ele>1406.2</ele>
        <time>2021-06-03T07:33:23Z</time>
      </trkpt>
      <trkpt lat="41.80931" lon="9.13386">
        <ele>1406.6</ele>
        <time>2021-06-03T07:33:24Z</time>
      </trkpt>
      <trkpt lat="41.80932" lon="9.13385">
        <ele>1406.6</ele>
        <time>2021-06-03T07:33:25Z</time>
      </trkpt>
      <trkpt lat="41.80933" lon="9.13385">
        <ele>1406.6</ele>
        <time>2021-06-03T07:33:26Z</time>
      </trkpt>
      <trkpt lat="41.80934" lon="9.13385">
        <ele>1406.6</ele>
        <time>2021-06-03T07:33:27Z</time>
      </trkpt>
      <trkpt lat="41.80935" lon="9.13385">
        <ele>1406.6</ele>
        <time>2021-06-03T07:33:28Z</time>
      </trkpt>
      <trkpt lat="41.80936" lon="9.13385">
        <ele>1406.6</ele>
        <time>2021-06-03T07:33:29Z</time>
      </trkpt>
      <trkpt lat="41.80937" lon="9.13385">
        <ele>1406.6</ele>
        <time>2021-06-03T07:33:30Z</time>
      </trkpt>
      <trkpt lat="41.80939" lon="9.13385">
        <ele>1407</ele>
        <time>2021-06-03T07:33:31Z</time>
      </trkpt>
      <trkpt lat="41.8094" lon="9.13385">
        <ele>1407.2</ele>
        <time>2021-06-03T07:33:32Z</time>
      </trkpt>
      <trkpt lat="41.80941" lon="9.13384">
        <ele>1407.2</ele>
        <time>2021-06-03T07:33:33Z</time>
      </trkpt>
      <trkpt lat="41.80942" lon="9.13384">
        <ele>1407.2</ele>
        <time>2021-06-03T07:33:34Z</time>
      </trkpt>
      <trkpt lat="41.80943" lon="9.13384">
        <ele>1407.2</ele>
        <time>2021-06-03T07:33:35Z</time>
      </trkpt>
      <trkpt lat="41.80945" lon="9.13384">
        <ele>1408</ele>
        <time>2021-06-03T07:33:36Z</time>
      </trkpt>
      <trkpt lat="41.80946" lon="9.13384">
        <ele>1408</ele>
        <time>2021-06-03T07:33:37Z</time>
      </trkpt>
      <trkpt lat="41.80947" lon="9.13384">
        <ele>1408</ele>
        <time>2021-06-03T07:33:38Z</time>
      </trkpt>
      <trkpt lat="41.80948" lon="9.13384">
        <ele>1408</ele>
        <time>2021-06-03T07:33:39Z</time>
      </trkpt>
      <trkpt lat="41.80949" lon="9.13383">
        <ele>1408.2</ele>
        <time>2021-06-03T07:33:40Z</time>
      </trkpt>
      <trkpt lat="41.80951" lon="9.13384">
        <ele>1408.2</ele>
        <time>2021-06-03T07:33:41Z</time>
      </trkpt>
      <trkpt lat="41.80952" lon="9.13383">
        <ele>1408.2</ele>
        <time>2021-06-03T07:33:42Z</time>
      </trkpt>
      <trkpt lat="41.80953" lon="9.13383">
        <ele>1408.6</ele>
        <time>2021-06-03T07:33:43Z</time>
      </trkpt>
      <trkpt lat="41.80954" lon="9.13383">
        <ele>1408.6</ele>
        <time>2021-06-03T07:33:44Z</time>
      </trkpt>
      <trkpt lat="41.80955" lon="9.13382">
        <ele>1408.6</ele>
        <time>2021-06-03T07:33:45Z</time>
      </trkpt>
      <trkpt lat="41.80956" lon="9.13382">
        <ele>1408.6</ele>
        <time>2021-06-03T07:33:46Z</time>
      </trkpt>
      <trkpt lat="41.80958" lon="9.13382">
        <ele>1409.2</ele>
        <time>2021-06-03T07:33:47Z</time>
      </trkpt>
      <trkpt lat="41.80959" lon="9.13382">
        <ele>1409.2</ele>
        <time>2021-06-03T07:33:48Z</time>
      </trkpt>
      <trkpt lat="41.8096" lon="9.13382">
        <ele>1409.2</ele>
        <time>2021-06-03T07:33:49Z</time>
      </trkpt>
      <trkpt lat="41.80961" lon="9.13382">
        <ele>1409.2</ele>
        <time>2021-06-03T07:33:50Z</time>
      </trkpt>
      <trkpt lat="41.80963" lon="9.13382">
        <ele>1409.8</ele>
        <time>2021-06-03T07:33:51Z</time>
      </trkpt>
      <trkpt lat="41.80964" lon="9.13382">
        <ele>1410.2</ele>
        <time>2021-06-03T07:33:52Z</time>
      </trkpt>
      <trkpt lat="41.80965" lon="9.13382">
        <ele>1410.2</ele>
        <time>2021-06-03T07:33:53Z</time>
      </trkpt>
      <trkpt lat="41.80966" lon="9.13381">
        <ele>1410.2</ele>
        <time>2021-06-03T07:33:54Z</time>
      </trkpt>
      <trkpt lat="41.80967" lon="9.13382">
        <ele>1410.2</ele>
        <time>2021-06-03T07:33:55Z</time>
      </trkpt>
      <trkpt lat="41.80968" lon="9.13382">
        <ele>1410.6</ele>
        <time>2021-06-03T07:33:56Z</time>
      </trkpt>
      <trkpt lat="41.8097" lon="9.13382">
        <ele>1410.6</ele>
        <time>2021-06-03T07:33:57Z</time>
      </trkpt>
      <trkpt lat="41.80971" lon="9.13383">
        <ele>1410.6</ele>
        <time>2021-06-03T07:33:58Z</time>
      </trkpt>
      <trkpt lat="41.80972" lon="9.13383">
        <ele>1411.2</ele>
        <time>2021-06-03T07:33:59Z</time>
      </trkpt>
      <trkpt lat="41.80973" lon="9.13383">
        <ele>1411.4</ele>
        <time>2021-06-03T07:34:00Z</time>
      </trkpt>
      <trkpt lat="41.80975" lon="9.13382">
        <ele>1411.4</ele>
        <time>2021-06-03T07:34:01Z</time>
      </trkpt>
      <trkpt lat="41.80976" lon="9.13382">
        <ele>1411.4</ele>
        <time>2021-06-03T07:34:02Z</time>
      </trkpt>
      <trkpt lat="41.80977" lon="9.13381">
        <ele>1411.4</ele>
        <time>2021-06-03T07:34:03Z</time>
      </trkpt>
      <trkpt lat="41.80978" lon="9.13381">
        <ele>1412</ele>
        <time>2021-06-03T07:34:04Z</time>
      </trkpt>
      <trkpt lat="41.8098" lon="9.13381">
        <ele>1412</ele>
        <time>2021-06-03T07:34:05Z</time>
      </trkpt>
      <trkpt lat="41.80981" lon="9.13381">
        <ele>1412</ele>
        <time>2021-06-03T07:34:06Z</time>
      </trkpt>
      <trkpt lat="41.80982" lon="9.13382">
        <ele>1412</ele>
        <time>2021-06-03T07:34:07Z</time>
      </trkpt>
      <trkpt lat="41.80984" lon="9.13382">
        <ele>1412.2</ele>
        <time>2021-06-03T07:34:08Z</time>
      </trkpt>
      <trkpt lat="41.80985" lon="9.13383">
        <ele>1412.2</ele>
        <time>2021-06-03T07:34:09Z</time>
      </trkpt>
      <trkpt lat="41.80986" lon="9.13384">
        <ele>1412.2</ele>
        <time>2021-06-03T07:34:10Z</time>
      </trkpt>
      <trkpt lat="41.80987" lon="9.13385">
        <ele>1412.2</ele>
        <time>2021-06-03T07:34:11Z</time>
      </trkpt>
      <trkpt lat="41.80988" lon="9.13386">
        <ele>1412.4</ele>
        <time>2021-06-03T07:34:12Z</time>
      </trkpt>
      <trkpt lat="41.80989" lon="9.13387">
        <ele>1412.4</ele>
        <time>2021-06-03T07:34:13Z</time>
      </trkpt>
      <trkpt lat="41.8099" lon="9.13389">
        <ele>1412.4</ele>
        <time>2021-06-03T07:34:14Z</time>
      </trkpt>
      <trkpt lat="41.80992" lon="9.1339">
        <ele>1413.4</ele>
        <time>2021-06-03T07:34:15Z</time>
      </trkpt>
      <trkpt lat="41.80993" lon="9.13391">
        <ele>1413.2</ele>
        <time>2021-06-03T07:34:16Z</time>
      </trkpt>
      <trkpt lat="41.80994" lon="9.13392">
        <ele>1413.2</ele>
        <time>2021-06-03T07:34:17Z</time>
      </trkpt>
      <trkpt lat="41.80995" lon="9.13393">
        <ele>1413.2</ele>
        <time>2021-06-03T07:34:18Z</time>
      </trkpt>
      <trkpt lat="41.80996" lon="9.13394">
        <ele>1413.2</ele>
        <time>2021-06-03T07:34:19Z</time>
      </trkpt>
      <trkpt lat="41.80997" lon="9.13395">
        <ele>1413.6</ele>
        <time>2021-06-03T07:34:20Z</time>
      </trkpt>
      <trkpt lat="41.80999" lon="9.13396">
        <ele>1413.6</ele>
        <time>2021-06-03T07:34:21Z</time>
      </trkpt>
      <trkpt lat="41.81" lon="9.13397">
        <ele>1413.6</ele>
        <time>2021-06-03T07:34:22Z</time>
      </trkpt>
      <trkpt lat="41.81001" lon="9.13398">
        <ele>1413.6</ele>
        <time>2021-06-03T07:34:23Z</time>
      </trkpt>
      <trkpt lat="41.81002" lon="9.134">
        <ele>1413.8</ele>
        <time>2021-06-03T07:34:24Z</time>
      </trkpt>
      <trkpt lat="41.81003" lon="9.13401">
        <ele>1413.8</ele>
        <time>2021-06-03T07:34:25Z</time>
      </trkpt>
      <trkpt lat="41.81004" lon="9.13402">
        <ele>1413.8</ele>
        <time>2021-06-03T07:34:26Z</time>
      </trkpt>
      <trkpt lat="41.81005" lon="9.13404">
        <ele>1413.8</ele>
        <time>2021-06-03T07:34:27Z</time>
      </trkpt>
      <trkpt lat="41.81007" lon="9.13405">
        <ele>1414</ele>
        <time>2021-06-03T07:34:28Z</time>
      </trkpt>
      <trkpt lat="41.81008" lon="9.13406">
        <ele>1414</ele>
        <time>2021-06-03T07:34:29Z</time>
      </trkpt>
      <trkpt lat="41.81009" lon="9.13408">
        <ele>1414</ele>
        <time>2021-06-03T07:34:30Z</time>
      </trkpt>
      <trkpt lat="41.8101" lon="9.13409">
        <ele>1413.8</ele>
        <time>2021-06-03T07:34:31Z</time>
      </trkpt>
      <trkpt lat="41.81012" lon="9.1341">
        <ele>1414.2</ele>
        <time>2021-06-03T07:34:32Z</time>
      </trkpt>
      <trkpt lat="41.81013" lon="9.13412">
        <ele>1414.2</ele>
        <time>2021-06-03T07:34:33Z</time>
      </trkpt>
      <trkpt lat="41.81014" lon="9.13413">
        <ele>1414.2</ele>
        <time>2021-06-03T07:34:34Z</time>
      </trkpt>
      <trkpt lat="41.81015" lon="9.13414">
        <ele>1413.8</ele>
        <time>2021-06-03T07:34:35Z</time>
      </trkpt>
      <trkpt lat="41.81017" lon="9.13415">
        <ele>1413.8</ele>
        <time>2021-06-03T07:34:36Z</time>
      </trkpt>
      <trkpt lat="41.81018" lon="9.13416">
        <ele>1413.8</ele>
        <time>2021-06-03T07:34:37Z</time>
      </trkpt>
      <trkpt lat="41.81019" lon="9.13418">
        <ele>1413.8</ele>
        <time>2021-06-03T07:34:38Z</time>
      </trkpt>
      <trkpt lat="41.8102" lon="9.13419">
        <ele>1414</ele>
        <time>2021-06-03T07:34:39Z</time>
      </trkpt>
      <trkpt lat="41.81021" lon="9.13421">
        <ele>1414</ele>
        <time>2021-06-03T07:34:40Z</time>
      </trkpt>
      <trkpt lat="41.81023" lon="9.13422">
        <ele>1414</ele>
        <time>2021-06-03T07:34:41Z</time>
      </trkpt>
      <trkpt lat="41.81024" lon="9.13423">
        <ele>1414</ele>
        <time>2021-06-03T07:34:42Z</time>
      </trkpt>
      <trkpt lat="41.81026" lon="9.13424">
        <ele>1414</ele>
        <time>2021-06-03T07:34:43Z</time>
      </trkpt>
      <trkpt lat="41.81027" lon="9.13426">
        <ele>1414.4</ele>
        <time>2021-06-03T07:34:44Z</time>
      </trkpt>
      <trkpt lat="41.81028" lon="9.13428">
        <ele>1414.4</ele>
        <time>2021-06-03T07:34:45Z</time>
      </trkpt>
      <trkpt lat="41.81029" lon="9.1343">
        <ele>1414.4</ele>
        <time>2021-06-03T07:34:46Z</time>
      </trkpt>
      <trkpt lat="41.81031" lon="9.13431">
        <ele>1414.4</ele>
        <time>2021-06-03T07:34:47Z</time>
      </trkpt>
      <trkpt lat="41.81032" lon="9.13433">
        <ele>1414.2</ele>
        <time>2021-06-03T07:34:48Z</time>
      </trkpt>
      <trkpt lat="41.81034" lon="9.13435">
        <ele>1414.2</ele>
        <time>2021-06-03T07:34:49Z</time>
      </trkpt>
      <trkpt lat="41.81035" lon="9.13437">
        <ele>1414.2</ele>
        <time>2021-06-03T07:34:50Z</time>
      </trkpt>
      <trkpt lat="41.81036" lon="9.13439">
        <ele>1414.2</ele>
        <time>2021-06-03T07:34:51Z</time>
      </trkpt>
      <trkpt lat="41.81038" lon="9.13442">
        <ele>1414.2</ele>
        <time>2021-06-03T07:34:52Z</time>
      </trkpt>
      <trkpt lat="41.81039" lon="9.13444">
        <ele>1414.2</ele>
        <time>2021-06-03T07:34:53Z</time>
      </trkpt>
      <trkpt lat="41.8104" lon="9.13446">
        <ele>1414.2</ele>
        <time>2021-06-03T07:34:54Z</time>
      </trkpt>
      <trkpt lat="41.81042" lon="9.13448">
        <ele>1414.2</ele>
        <time>2021-06-03T07:34:55Z</time>
      </trkpt>
      <trkpt lat="41.81044" lon="9.1345">
        <ele>1414.4</ele>
        <time>2021-06-03T07:34:56Z</time>
      </trkpt>
      <trkpt lat="41.81045" lon="9.13452">
        <ele>1414.4</ele>
        <time>2021-06-03T07:34:57Z</time>
      </trkpt>
      <trkpt lat="41.81047" lon="9.13454">
        <ele>1414.4</ele>
        <time>2021-06-03T07:34:58Z</time>
      </trkpt>
      <trkpt lat="41.81049" lon="9.13456">
        <ele>1414.4</ele>
        <time>2021-06-03T07:34:59Z</time>
      </trkpt>
      <trkpt lat="41.81051" lon="9.13459">
        <ele>1414.2</ele>
        <time>2021-06-03T07:35:00Z</time>
      </trkpt>
      <trkpt lat="41.81053" lon="9.13461">
        <ele>1414.2</ele>
        <time>2021-06-03T07:35:01Z</time>
      </trkpt>
      <trkpt lat="41.81054" lon="9.13464">
        <ele>1414.2</ele>
        <time>2021-06-03T07:35:02Z</time>
      </trkpt>
      <trkpt lat="41.81056" lon="9.13466">
        <ele>1414.2</ele>
        <time>2021-06-03T07:35:03Z</time>
      </trkpt>
      <trkpt lat="41.81058" lon="9.13469">
        <ele>1414.2</ele>
        <time>2021-06-03T07:35:04Z</time>
      </trkpt>
      <trkpt lat="41.8106" lon="9.13471">
        <ele>1414.2</ele>
        <time>2021-06-03T07:35:05Z</time>
      </trkpt>
      <trkpt lat="41.81062" lon="9.13474">
        <ele>1414.2</ele>
        <time>2021-06-03T07:35:06Z</time>
      </trkpt>
      <trkpt lat="41.81064" lon="9.13476">
        <ele>1414.6</ele>
        <time>2021-06-03T07:35:07Z</time>
      </trkpt>
      <trkpt lat="41.81065" lon="9.13478">
        <ele>1415.2</ele>
        <time>2021-06-03T07:35:08Z</time>
      </trkpt>
      <trkpt lat="41.81067" lon="9.13481">
        <ele>1415.2</ele>
        <time>2021-06-03T07:35:09Z</time>
      </trkpt>
      <trkpt lat="41.81069" lon="9.13483">
        <ele>1415.2</ele>
        <time>2021-06-03T07:35:10Z</time>
      </trkpt>
      <trkpt lat="41.8107" lon="9.13486">
        <ele>1414.8</ele>
        <time>2021-06-03T07:35:11Z</time>
      </trkpt>
      <trkpt lat="41.81071" lon="9.13488">
        <ele>1415.2</ele>
        <time>2021-06-03T07:35:12Z</time>
      </trkpt>
      <trkpt lat="41.81073" lon="9.1349">
        <ele>1415.2</ele>
        <time>2021-06-03T07:35:13Z</time>
      </trkpt>
      <trkpt lat="41.81075" lon="9.13492">
        <ele>1415.2</ele>
        <time>2021-06-03T07:35:14Z</time>
      </trkpt>
      <trkpt lat="41.81076" lon="9.13494">
        <ele>1415.2</ele>
        <time>2021-06-03T07:35:15Z</time>
      </trkpt>
      <trkpt lat="41.81077" lon="9.13497">
        <ele>1414.8</ele>
        <time>2021-06-03T07:35:16Z</time>
      </trkpt>
      <trkpt lat="41.81079" lon="9.13499">
        <ele>1414.8</ele>
        <time>2021-06-03T07:35:17Z</time>
      </trkpt>
      <trkpt lat="41.8108" lon="9.13501">
        <ele>1414.8</ele>
        <time>2021-06-03T07:35:18Z</time>
      </trkpt>
      <trkpt lat="41.81081" lon="9.13503">
        <ele>1415.4</ele>
        <time>2021-06-03T07:35:19Z</time>
      </trkpt>
      <trkpt lat="41.81083" lon="9.13505">
        <ele>1415</ele>
        <time>2021-06-03T07:35:20Z</time>
      </trkpt>
      <trkpt lat="41.81085" lon="9.13507">
        <ele>1415</ele>
        <time>2021-06-03T07:35:21Z</time>
      </trkpt>
      <trkpt lat="41.81086" lon="9.13509">
        <ele>1415</ele>
        <time>2021-06-03T07:35:22Z</time>
      </trkpt>
      <trkpt lat="41.81088" lon="9.13511">
        <ele>1415.4</ele>
        <time>2021-06-03T07:35:23Z</time>
      </trkpt>
      <trkpt lat="41.8109" lon="9.13513">
        <ele>1415.8</ele>
        <time>2021-06-03T07:35:24Z</time>
      </trkpt>
      <trkpt lat="41.81092" lon="9.13514">
        <ele>1415.8</ele>
        <time>2021-06-03T07:35:25Z</time>
      </trkpt>
      <trkpt lat="41.81093" lon="9.13516">
        <ele>1415.8</ele>
        <time>2021-06-03T07:35:26Z</time>
      </trkpt>
      <trkpt lat="41.81095" lon="9.13517">
        <ele>1416.4</ele>
        <time>2021-06-03T07:35:27Z</time>
      </trkpt>
      <trkpt lat="41.81098" lon="9.13519">
        <ele>1416.2</ele>
        <time>2021-06-03T07:35:28Z</time>
      </trkpt>
      <trkpt lat="41.811" lon="9.13521">
        <ele>1416.2</ele>
        <time>2021-06-03T07:35:29Z</time>
      </trkpt>
      <trkpt lat="41.81102" lon="9.13523">
        <ele>1416.2</ele>
        <time>2021-06-03T07:35:30Z</time>
      </trkpt>
      <trkpt lat="41.81104" lon="9.13525">
        <ele>1415.4</ele>
        <time>2021-06-03T07:35:31Z</time>
      </trkpt>
      <trkpt lat="41.81107" lon="9.13527">
        <ele>1415.4</ele>
        <time>2021-06-03T07:35:32Z</time>
      </trkpt>
      <trkpt lat="41.81109" lon="9.13529">
        <ele>1415.4</ele>
        <time>2021-06-03T07:35:33Z</time>
      </trkpt>
      <trkpt lat="41.81112" lon="9.13531">
        <ele>1415.4</ele>
        <time>2021-06-03T07:35:34Z</time>
      </trkpt>
      <trkpt lat="41.81115" lon="9.13533">
        <ele>1415.4</ele>
        <time>2021-06-03T07:35:35Z</time>
      </trkpt>
      <trkpt lat="41.81118" lon="9.13535">
        <ele>1414.8</ele>
        <time>2021-06-03T07:35:36Z</time>
      </trkpt>
      <trkpt lat="41.81122" lon="9.13537">
        <ele>1414.8</ele>
        <time>2021-06-03T07:35:37Z</time>
      </trkpt>
      <trkpt lat="41.81125" lon="9.13539">
        <ele>1414.8</ele>
        <time>2021-06-03T07:35:38Z</time>
      </trkpt>
      <trkpt lat="41.81129" lon="9.13541">
        <ele>1413.8</ele>
        <time>2021-06-03T07:35:39Z</time>
      </trkpt>
      <trkpt lat="41.81133" lon="9.13543">
        <ele>1413.2</ele>
        <time>2021-06-03T07:35:40Z</time>
      </trkpt>
      <trkpt lat="41.81137" lon="9.13545">
        <ele>1413.2</ele>
        <time>2021-06-03T07:35:41Z</time>
      </trkpt>
      <trkpt lat="41.81142" lon="9.13548">
        <ele>1413.2</ele>
        <time>2021-06-03T07:35:42Z</time>
      </trkpt>
      <trkpt lat="41.81146" lon="9.13551">
        <ele>1413.2</ele>
        <time>2021-06-03T07:35:43Z</time>
      </trkpt>
      <trkpt lat="41.81151" lon="9.13553">
        <ele>1413</ele>
        <time>2021-06-03T07:35:44Z</time>
      </trkpt>
      <trkpt lat="41.81157" lon="9.13556">
        <ele>1413</ele>
        <time>2021-06-03T07:35:45Z</time>
      </trkpt>
      <trkpt lat="41.81162" lon="9.1356">
        <ele>1413</ele>
        <time>2021-06-03T07:35:46Z</time>
      </trkpt>
      <trkpt lat="41.81168" lon="9.13563">
        <ele>1412</ele>
        <time>2021-06-03T07:35:47Z</time>
      </trkpt>
      <trkpt lat="41.81174" lon="9.13567">
        <ele>1409.6</ele>
        <time>2021-06-03T07:35:48Z</time>
      </trkpt>
      <trkpt lat="41.81179" lon="9.13571">
        <ele>1409.6</ele>
        <time>2021-06-03T07:35:49Z</time>
      </trkpt>
      <trkpt lat="41.81184" lon="9.13576">
        <ele>1409.6</ele>
        <time>2021-06-03T07:35:50Z</time>
      </trkpt>
      <trkpt lat="41.81189" lon="9.13582">
        <ele>1410.2</ele>
        <time>2021-06-03T07:35:51Z</time>
      </trkpt>
      <trkpt lat="41.81193" lon="9.13587">
        <ele>1410</ele>
        <time>2021-06-03T07:35:52Z</time>
      </trkpt>
      <trkpt lat="41.81197" lon="9.13593">
        <ele>1410</ele>
        <time>2021-06-03T07:35:53Z</time>
      </trkpt>
      <trkpt lat="41.81201" lon="9.13598">
        <ele>1410</ele>
        <time>2021-06-03T07:35:54Z</time>
      </trkpt>
      <trkpt lat="41.81205" lon="9.13604">
        <ele>1410</ele>
        <time>2021-06-03T07:35:55Z</time>
      </trkpt>
      <trkpt lat="41.81208" lon="9.13609">
        <ele>1410.4</ele>
        <time>2021-06-03T07:35:56Z</time>
      </trkpt>
      <trkpt lat="41.81211" lon="9.13614">
        <ele>1410.4</ele>
        <time>2021-06-03T07:35:57Z</time>
      </trkpt>
      <trkpt lat="41.81214" lon="9.13619">
        <ele>1410.4</ele>
        <time>2021-06-03T07:35:58Z</time>
      </trkpt>
      <trkpt lat="41.81217" lon="9.13623">
        <ele>1411.4</ele>
        <time>2021-06-03T07:35:59Z</time>
      </trkpt>
      <trkpt lat="41.81219" lon="9.13627">
        <ele>1412.2</ele>
        <time>2021-06-03T07:36:00Z</time>
      </trkpt>
      <trkpt lat="41.81221" lon="9.13631">
        <ele>1412.2</ele>
        <time>2021-06-03T07:36:01Z</time>
      </trkpt>
      <trkpt lat="41.81223" lon="9.13635">
        <ele>1412.2</ele>
        <time>2021-06-03T07:36:02Z</time>
      </trkpt>
      <trkpt lat="41.81226" lon="9.13639">
        <ele>1412.4</ele>
        <time>2021-06-03T07:36:03Z</time>
      </trkpt>
      <trkpt lat="41.81228" lon="9.13642">
        <ele>1412.8</ele>
        <time>2021-06-03T07:36:04Z</time>
      </trkpt>
      <trkpt lat="41.8123" lon="9.13645">
        <ele>1412.8</ele>
        <time>2021-06-03T07:36:05Z</time>
      </trkpt>
      <trkpt lat="41.81232" lon="9.13648">
        <ele>1412.8</ele>
        <time>2021-06-03T07:36:06Z</time>
      </trkpt>
      <trkpt lat="41.81234" lon="9.13651">
        <ele>1412.8</ele>
        <time>2021-06-03T07:36:07Z</time>
      </trkpt>
      <trkpt lat="41.81236" lon="9.13653">
        <ele>1413.6</ele>
        <time>2021-06-03T07:36:08Z</time>
      </trkpt>
      <trkpt lat="41.81238" lon="9.13655">
        <ele>1413.6</ele>
        <time>2021-06-03T07:36:09Z</time>
      </trkpt>
      <trkpt lat="41.8124" lon="9.13658">
        <ele>1413.6</ele>
        <time>2021-06-03T07:36:10Z</time>
      </trkpt>
      <trkpt lat="41.81242" lon="9.1366">
        <ele>1413.6</ele>
        <time>2021-06-03T07:36:11Z</time>
      </trkpt>
      <trkpt lat="41.81243" lon="9.13662">
        <ele>1414</ele>
        <time>2021-06-03T07:36:12Z</time>
      </trkpt>
      <trkpt lat="41.81245" lon="9.13663">
        <ele>1414</ele>
        <time>2021-06-03T07:36:13Z</time>
      </trkpt>
      <trkpt lat="41.81247" lon="9.13665">
        <ele>1414</ele>
        <time>2021-06-03T07:36:14Z</time>
      </trkpt>
      <trkpt lat="41.81248" lon="9.13667">
        <ele>1414.4</ele>
        <time>2021-06-03T07:36:15Z</time>
      </trkpt>
      <trkpt lat="41.8125" lon="9.13668">
        <ele>1415.2</ele>
        <time>2021-06-03T07:36:16Z</time>
      </trkpt>
      <trkpt lat="41.81252" lon="9.13669">
        <ele>1415.2</ele>
        <time>2021-06-03T07:36:17Z</time>
      </trkpt>
      <trkpt lat="41.81253" lon="9.13671">
        <ele>1415.2</ele>
        <time>2021-06-03T07:36:18Z</time>
      </trkpt>
      <trkpt lat="41.81255" lon="9.13671">
        <ele>1415.6</ele>
        <time>2021-06-03T07:36:19Z</time>
      </trkpt>
      <trkpt lat="41.81256" lon="9.13672">
        <ele>1415.4</ele>
        <time>2021-06-03T07:36:20Z</time>
      </trkpt>
      <trkpt lat="41.81257" lon="9.13673">
        <ele>1415.4</ele>
        <time>2021-06-03T07:36:21Z</time>
      </trkpt>
      <trkpt lat="41.81259" lon="9.13675">
        <ele>1415.4</ele>
        <time>2021-06-03T07:36:22Z</time>
      </trkpt>
      <trkpt lat="41.8126" lon="9.13676">
        <ele>1415.4</ele>
        <time>2021-06-03T07:36:23Z</time>
      </trkpt>
      <trkpt lat="41.81261" lon="9.13677">
        <ele>1416</ele>
        <time>2021-06-03T07:36:24Z</time>
      </trkpt>
      <trkpt lat="41.81263" lon="9.13678">
        <ele>1416</ele>
        <time>2021-06-03T07:36:25Z</time>
      </trkpt>
      <trkpt lat="41.81264" lon="9.13679">
        <ele>1416</ele>
        <time>2021-06-03T07:36:26Z</time>
      </trkpt>
      <trkpt lat="41.81266" lon="9.1368">
        <ele>1416</ele>
        <time>2021-06-03T07:36:27Z</time>
      </trkpt>
      <trkpt lat="41.81268" lon="9.1368">
        <ele>1416.2</ele>
        <time>2021-06-03T07:36:28Z</time>
      </trkpt>
      <trkpt lat="41.81269" lon="9.13681">
        <ele>1416.2</ele>
        <time>2021-06-03T07:36:29Z</time>
      </trkpt>
      <trkpt lat="41.81271" lon="9.13682">
        <ele>1416.2</ele>
        <time>2021-06-03T07:36:30Z</time>
      </trkpt>
      <trkpt lat="41.81272" lon="9.13683">
        <ele>1416.8</ele>
        <time>2021-06-03T07:36:31Z</time>
      </trkpt>
      <trkpt lat="41.81274" lon="9.13684">
        <ele>1417.2</ele>
        <time>2021-06-03T07:36:32Z</time>
      </trkpt>
      <trkpt lat="41.81275" lon="9.13685">
        <ele>1417.2</ele>
        <time>2021-06-03T07:36:33Z</time>
      </trkpt>
      <trkpt lat="41.81277" lon="9.13685">
        <ele>1417.2</ele>
        <time>2021-06-03T07:36:34Z</time>
      </trkpt>
      <trkpt lat="41.81278" lon="9.13686">
        <ele>1416.8</ele>
        <time>2021-06-03T07:36:35Z</time>
      </trkpt>
      <trkpt lat="41.81279" lon="9.13687">
        <ele>1417</ele>
        <time>2021-06-03T07:36:36Z</time>
      </trkpt>
      <trkpt lat="41.81281" lon="9.13688">
        <ele>1417</ele>
        <time>2021-06-03T07:36:37Z</time>
      </trkpt>
      <trkpt lat="41.81282" lon="9.13689">
        <ele>1417</ele>
        <time>2021-06-03T07:36:38Z</time>
      </trkpt>
      <trkpt lat="41.81284" lon="9.1369">
        <ele>1417</ele>
        <time>2021-06-03T07:36:39Z</time>
      </trkpt>
      <trkpt lat="41.81285" lon="9.1369">
        <ele>1417.8</ele>
        <time>2021-06-03T07:36:40Z</time>
      </trkpt>
      <trkpt lat="41.81286" lon="9.13692">
        <ele>1417.8</ele>
        <time>2021-06-03T07:36:41Z</time>
      </trkpt>
      <trkpt lat="41.81288" lon="9.13693">
        <ele>1417.8</ele>
        <time>2021-06-03T07:36:42Z</time>
      </trkpt>
      <trkpt lat="41.81289" lon="9.13694">
        <ele>1417.8</ele>
        <time>2021-06-03T07:36:43Z</time>
      </trkpt>
      <trkpt lat="41.81291" lon="9.13695">
        <ele>1418.2</ele>
        <time>2021-06-03T07:36:44Z</time>
      </trkpt>
      <trkpt lat="41.81292" lon="9.13696">
        <ele>1418.2</ele>
        <time>2021-06-03T07:36:45Z</time>
      </trkpt>
      <trkpt lat="41.81293" lon="9.13696">
        <ele>1418.2</ele>
        <time>2021-06-03T07:36:46Z</time>
      </trkpt>
      <trkpt lat="41.81295" lon="9.13697">
        <ele>1418.2</ele>
        <time>2021-06-03T07:36:47Z</time>
      </trkpt>
      <trkpt lat="41.81297" lon="9.13698">
        <ele>1418.2</ele>
        <time>2021-06-03T07:36:48Z</time>
      </trkpt>
      <trkpt lat="41.81298" lon="9.13698">
        <ele>1418.2</ele>
        <time>2021-06-03T07:36:49Z</time>
      </trkpt>
      <trkpt lat="41.813" lon="9.13699">
        <ele>1418.2</ele>
        <time>2021-06-03T07:36:50Z</time>
      </trkpt>
      <trkpt lat="41.81301" lon="9.13699">
        <ele>1419</ele>
        <time>2021-06-03T07:36:51Z</time>
      </trkpt>
      <trkpt lat="41.81303" lon="9.137">
        <ele>1418.8</ele>
        <time>2021-06-03T07:36:52Z</time>
      </trkpt>
      <trkpt lat="41.81304" lon="9.13701">
        <ele>1418.8</ele>
        <time>2021-06-03T07:36:53Z</time>
      </trkpt>
      <trkpt lat="41.81305" lon="9.13702">
        <ele>1418.8</ele>
        <time>2021-06-03T07:36:54Z</time>
      </trkpt>
      <trkpt lat="41.81307" lon="9.13702">
        <ele>1419.2</ele>
        <time>2021-06-03T07:36:55Z</time>
      </trkpt>
      <trkpt lat="41.81308" lon="9.13703">
        <ele>1419.4</ele>
        <time>2021-06-03T07:36:56Z</time>
      </trkpt>
      <trkpt lat="41.8131" lon="9.13704">
        <ele>1419.4</ele>
        <time>2021-06-03T07:36:57Z</time>
      </trkpt>
      <trkpt lat="41.81311" lon="9.13704">
        <ele>1419.4</ele>
        <time>2021-06-03T07:36:58Z</time>
      </trkpt>
      <trkpt lat="41.81312" lon="9.13705">
        <ele>1419.4</ele>
        <time>2021-06-03T07:36:59Z</time>
      </trkpt>
      <trkpt lat="41.81314" lon="9.13705">
        <ele>1419.8</ele>
        <time>2021-06-03T07:37:00Z</time>
      </trkpt>
      <trkpt lat="41.81315" lon="9.13706">
        <ele>1419.8</ele>
        <time>2021-06-03T07:37:01Z</time>
      </trkpt>
      <trkpt lat="41.81317" lon="9.13707">
        <ele>1419.8</ele>
        <time>2021-06-03T07:37:02Z</time>
      </trkpt>
      <trkpt lat="41.81318" lon="9.13707">
        <ele>1419.8</ele>
        <time>2021-06-03T07:37:03Z</time>
      </trkpt>
      <trkpt lat="41.8132" lon="9.13708">
        <ele>1420.2</ele>
        <time>2021-06-03T07:37:04Z</time>
      </trkpt>
      <trkpt lat="41.81321" lon="9.13708">
        <ele>1420.2</ele>
        <time>2021-06-03T07:37:05Z</time>
      </trkpt>
      <trkpt lat="41.81323" lon="9.13709">
        <ele>1420.2</ele>
        <time>2021-06-03T07:37:06Z</time>
      </trkpt>
      <trkpt lat="41.81324" lon="9.13709">
        <ele>1420.2</ele>
        <time>2021-06-03T07:37:07Z</time>
      </trkpt>
      <trkpt lat="41.81326" lon="9.1371">
        <ele>1420.6</ele>
        <time>2021-06-03T07:37:08Z</time>
      </trkpt>
      <trkpt lat="41.81327" lon="9.13711">
        <ele>1420.6</ele>
        <time>2021-06-03T07:37:09Z</time>
      </trkpt>
      <trkpt lat="41.81329" lon="9.13711">
        <ele>1420.6</ele>
        <time>2021-06-03T07:37:10Z</time>
      </trkpt>
      <trkpt lat="41.8133" lon="9.13711">
        <ele>1420.6</ele>
        <time>2021-06-03T07:37:11Z</time>
      </trkpt>
      <trkpt lat="41.81332" lon="9.13712">
        <ele>1420.2</ele>
        <time>2021-06-03T07:37:12Z</time>
      </trkpt>
      <trkpt lat="41.81333" lon="9.13712">
        <ele>1420.2</ele>
        <time>2021-06-03T07:37:13Z</time>
      </trkpt>
      <trkpt lat="41.81335" lon="9.13712">
        <ele>1420.2</ele>
        <time>2021-06-03T07:37:14Z</time>
      </trkpt>
      <trkpt lat="41.81336" lon="9.13713">
        <ele>1421</ele>
        <time>2021-06-03T07:37:15Z</time>
      </trkpt>
      <trkpt lat="41.81338" lon="9.13713">
        <ele>1421.4</ele>
        <time>2021-06-03T07:37:16Z</time>
      </trkpt>
      <trkpt lat="41.81339" lon="9.13713">
        <ele>1421.4</ele>
        <time>2021-06-03T07:37:17Z</time>
      </trkpt>
      <trkpt lat="41.81341" lon="9.13714">
        <ele>1421.4</ele>
        <time>2021-06-03T07:37:18Z</time>
      </trkpt>
      <trkpt lat="41.81342" lon="9.13714">
        <ele>1421.8</ele>
        <time>2021-06-03T07:37:19Z</time>
      </trkpt>
      <trkpt lat="41.81344" lon="9.13714">
        <ele>1421.8</ele>
        <time>2021-06-03T07:37:20Z</time>
      </trkpt>
      <trkpt lat="41.81345" lon="9.13714">
        <ele>1421.8</ele>
        <time>2021-06-03T07:37:21Z</time>
      </trkpt>
      <trkpt lat="41.81347" lon="9.13714">
        <ele>1421.8</ele>
        <time>2021-06-03T07:37:22Z</time>
      </trkpt>
      <trkpt lat="41.81348" lon="9.13714">
        <ele>1422.6</ele>
        <time>2021-06-03T07:37:23Z</time>
      </trkpt>
      <trkpt lat="41.8135" lon="9.13714">
        <ele>1422</ele>
        <time>2021-06-03T07:37:24Z</time>
      </trkpt>
      <trkpt lat="41.81352" lon="9.13714">
        <ele>1422</ele>
        <time>2021-06-03T07:37:25Z</time>
      </trkpt>
      <trkpt lat="41.81353" lon="9.13713">
        <ele>1422</ele>
        <time>2021-06-03T07:37:26Z</time>
      </trkpt>
      <trkpt lat="41.81355" lon="9.13714">
        <ele>1423</ele>
        <time>2021-06-03T07:37:27Z</time>
      </trkpt>
      <trkpt lat="41.81356" lon="9.13714">
        <ele>1422.2</ele>
        <time>2021-06-03T07:37:28Z</time>
      </trkpt>
      <trkpt lat="41.81358" lon="9.13714">
        <ele>1422.2</ele>
        <time>2021-06-03T07:37:29Z</time>
      </trkpt>
      <trkpt lat="41.81359" lon="9.13715">
        <ele>1422.2</ele>
        <time>2021-06-03T07:37:30Z</time>
      </trkpt>
      <trkpt lat="41.81361" lon="9.13715">
        <ele>1422.8</ele>
        <time>2021-06-03T07:37:31Z</time>
      </trkpt>
      <trkpt lat="41.81363" lon="9.13715">
        <ele>1423</ele>
        <time>2021-06-03T07:37:32Z</time>
      </trkpt>
      <trkpt lat="41.81364" lon="9.13715">
        <ele>1423</ele>
        <time>2021-06-03T07:37:33Z</time>
      </trkpt>
      <trkpt lat="41.81366" lon="9.13716">
        <ele>1423</ele>
        <time>2021-06-03T07:37:34Z</time>
      </trkpt>
      <trkpt lat="41.81367" lon="9.13716">
        <ele>1423</ele>
        <time>2021-06-03T07:37:35Z</time>
      </trkpt>
      <trkpt lat="41.81369" lon="9.13716">
        <ele>1423.4</ele>
        <time>2021-06-03T07:37:36Z</time>
      </trkpt>
      <trkpt lat="41.8137" lon="9.13716">
        <ele>1423.4</ele>
        <time>2021-06-03T07:37:37Z</time>
      </trkpt>
      <trkpt lat="41.81372" lon="9.13716">
        <ele>1423.4</ele>
        <time>2021-06-03T07:37:38Z</time>
      </trkpt>
      <trkpt lat="41.81373" lon="9.13717">
        <ele>1423.4</ele>
        <time>2021-06-03T07:37:39Z</time>
      </trkpt>
      <trkpt lat="41.81375" lon="9.13717">
        <ele>1423.6</ele>
        <time>2021-06-03T07:37:40Z</time>
      </trkpt>
      <trkpt lat="41.81376" lon="9.13717">
        <ele>1423.6</ele>
        <time>2021-06-03T07:37:41Z</time>
      </trkpt>
      <trkpt lat="41.81377" lon="9.13717">
        <ele>1423.6</ele>
        <time>2021-06-03T07:37:42Z</time>
      </trkpt>
      <trkpt lat="41.81379" lon="9.13717">
        <ele>1423.6</ele>
        <time>2021-06-03T07:37:43Z</time>
      </trkpt>
      <trkpt lat="41.8138" lon="9.13717">
        <ele>1424.2</ele>
        <time>2021-06-03T07:37:44Z</time>
      </trkpt>
      <trkpt lat="41.81382" lon="9.13718">
        <ele>1424.2</ele>
        <time>2021-06-03T07:37:45Z</time>
      </trkpt>
      <trkpt lat="41.81383" lon="9.13718">
        <ele>1424.2</ele>
        <time>2021-06-03T07:37:46Z</time>
      </trkpt>
      <trkpt lat="41.81384" lon="9.13719">
        <ele>1424.2</ele>
        <time>2021-06-03T07:37:47Z</time>
      </trkpt>
      <trkpt lat="41.81385" lon="9.1372">
        <ele>1424.4</ele>
        <time>2021-06-03T07:37:48Z</time>
      </trkpt>
      <trkpt lat="41.81387" lon="9.1372">
        <ele>1424.4</ele>
        <time>2021-06-03T07:37:49Z</time>
      </trkpt>
      <trkpt lat="41.81388" lon="9.13721">
        <ele>1424.4</ele>
        <time>2021-06-03T07:37:50Z</time>
      </trkpt>
      <trkpt lat="41.81389" lon="9.13721">
        <ele>1424.4</ele>
        <time>2021-06-03T07:37:51Z</time>
      </trkpt>
      <trkpt lat="41.81391" lon="9.13722">
        <ele>1424.8</ele>
        <time>2021-06-03T07:37:52Z</time>
      </trkpt>
      <trkpt lat="41.81392" lon="9.13722">
        <ele>1424.8</ele>
        <time>2021-06-03T07:37:53Z</time>
      </trkpt>
      <trkpt lat="41.81394" lon="9.13722">
        <ele>1424.8</ele>
        <time>2021-06-03T07:37:54Z</time>
      </trkpt>
      <trkpt lat="41.81395" lon="9.13723">
        <ele>1424.8</ele>
        <time>2021-06-03T07:37:55Z</time>
      </trkpt>
      <trkpt lat="41.81396" lon="9.13723">
        <ele>1425.2</ele>
        <time>2021-06-03T07:37:56Z</time>
      </trkpt>
      <trkpt lat="41.81397" lon="9.13724">
        <ele>1425.2</ele>
        <time>2021-06-03T07:37:57Z</time>
      </trkpt>
      <trkpt lat="41.81398" lon="9.13724">
        <ele>1425.2</ele>
        <time>2021-06-03T07:37:58Z</time>
      </trkpt>
      <trkpt lat="41.814" lon="9.13724">
        <ele>1425.4</ele>
        <time>2021-06-03T07:37:59Z</time>
      </trkpt>
      <trkpt lat="41.81401" lon="9.13725">
        <ele>1425.8</ele>
        <time>2021-06-03T07:38:00Z</time>
      </trkpt>
      <trkpt lat="41.81402" lon="9.13725">
        <ele>1425.8</ele>
        <time>2021-06-03T07:38:01Z</time>
      </trkpt>
      <trkpt lat="41.81403" lon="9.13726">
        <ele>1425.8</ele>
        <time>2021-06-03T07:38:02Z</time>
      </trkpt>
      <trkpt lat="41.81404" lon="9.13727">
        <ele>1426.6</ele>
        <time>2021-06-03T07:38:03Z</time>
      </trkpt>
      <trkpt lat="41.81405" lon="9.13727">
        <ele>1426.2</ele>
        <time>2021-06-03T07:38:04Z</time>
      </trkpt>
      <trkpt lat="41.81406" lon="9.13728">
        <ele>1426.2</ele>
        <time>2021-06-03T07:38:05Z</time>
      </trkpt>
      <trkpt lat="41.81408" lon="9.13729">
        <ele>1426.2</ele>
        <time>2021-06-03T07:38:06Z</time>
      </trkpt>
      <trkpt lat="41.81409" lon="9.1373">
        <ele>1427</ele>
        <time>2021-06-03T07:38:07Z</time>
      </trkpt>
      <trkpt lat="41.8141" lon="9.1373">
        <ele>1427</ele>
        <time>2021-06-03T07:38:08Z</time>
      </trkpt>
      <trkpt lat="41.81411" lon="9.13731">
        <ele>1427</ele>
        <time>2021-06-03T07:38:09Z</time>
      </trkpt>
      <trkpt lat="41.81412" lon="9.13732">
        <ele>1427</ele>
        <time>2021-06-03T07:38:10Z</time>
      </trkpt>
      <trkpt lat="41.81413" lon="9.13732">
        <ele>1427</ele>
        <time>2021-06-03T07:38:11Z</time>
      </trkpt>
      <trkpt lat="41.81414" lon="9.13733">
        <ele>1428.2</ele>
        <time>2021-06-03T07:38:12Z</time>
      </trkpt>
      <trkpt lat="41.81415" lon="9.13734">
        <ele>1428.2</ele>
        <time>2021-06-03T07:38:13Z</time>
      </trkpt>
      <trkpt lat="41.81416" lon="9.13734">
        <ele>1428.2</ele>
        <time>2021-06-03T07:38:14Z</time>
      </trkpt>
      <trkpt lat="41.81417" lon="9.13735">
        <ele>1428.2</ele>
        <time>2021-06-03T07:38:15Z</time>
      </trkpt>
      <trkpt lat="41.81418" lon="9.13735">
        <ele>1428.2</ele>
        <time>2021-06-03T07:38:16Z</time>
      </trkpt>
      <trkpt lat="41.81419" lon="9.13736">
        <ele>1428.2</ele>
        <time>2021-06-03T07:38:17Z</time>
      </trkpt>
      <trkpt lat="41.8142" lon="9.13737">
        <ele>1428.2</ele>
        <time>2021-06-03T07:38:18Z</time>
      </trkpt>
      <trkpt lat="41.81421" lon="9.13738">
        <ele>1428.8</ele>
        <time>2021-06-03T07:38:19Z</time>
      </trkpt>
      <trkpt lat="41.81422" lon="9.13738">
        <ele>1429</ele>
        <time>2021-06-03T07:38:20Z</time>
      </trkpt>
      <trkpt lat="41.81423" lon="9.13738">
        <ele>1429</ele>
        <time>2021-06-03T07:38:21Z</time>
      </trkpt>
      <trkpt lat="41.81424" lon="9.13739">
        <ele>1429</ele>
        <time>2021-06-03T07:38:22Z</time>
      </trkpt>
      <trkpt lat="41.81425" lon="9.1374">
        <ele>1429</ele>
        <time>2021-06-03T07:38:23Z</time>
      </trkpt>
      <trkpt lat="41.81426" lon="9.1374">
        <ele>1429.4</ele>
        <time>2021-06-03T07:38:24Z</time>
      </trkpt>
      <trkpt lat="41.81427" lon="9.13741">
        <ele>1429.4</ele>
        <time>2021-06-03T07:38:25Z</time>
      </trkpt>
      <trkpt lat="41.81428" lon="9.13741">
        <ele>1429.4</ele>
        <time>2021-06-03T07:38:26Z</time>
      </trkpt>
      <trkpt lat="41.8143" lon="9.13742">
        <ele>1429.4</ele>
        <time>2021-06-03T07:38:27Z</time>
      </trkpt>
      <trkpt lat="41.81431" lon="9.13742">
        <ele>1430</ele>
        <time>2021-06-03T07:38:28Z</time>
      </trkpt>
      <trkpt lat="41.81432" lon="9.13743">
        <ele>1430</ele>
        <time>2021-06-03T07:38:29Z</time>
      </trkpt>
      <trkpt lat="41.81433" lon="9.13743">
        <ele>1430</ele>
        <time>2021-06-03T07:38:30Z</time>
      </trkpt>
      <trkpt lat="41.81434" lon="9.13744">
        <ele>1430.2</ele>
        <time>2021-06-03T07:38:31Z</time>
      </trkpt>
      <trkpt lat="41.81435" lon="9.13745">
        <ele>1430.4</ele>
        <time>2021-06-03T07:38:32Z</time>
      </trkpt>
      <trkpt lat="41.81436" lon="9.13746">
        <ele>1430.4</ele>
        <time>2021-06-03T07:38:33Z</time>
      </trkpt>
      <trkpt lat="41.81437" lon="9.13746">
        <ele>1430.4</ele>
        <time>2021-06-03T07:38:34Z</time>
      </trkpt>
      <trkpt lat="41.81438" lon="9.13747">
        <ele>1430.4</ele>
        <time>2021-06-03T07:38:35Z</time>
      </trkpt>
      <trkpt lat="41.81439" lon="9.13747">
        <ele>1431</ele>
        <time>2021-06-03T07:38:36Z</time>
      </trkpt>
      <trkpt lat="41.8144" lon="9.13747">
        <ele>1431</ele>
        <time>2021-06-03T07:38:37Z</time>
      </trkpt>
      <trkpt lat="41.81441" lon="9.13748">
        <ele>1431</ele>
        <time>2021-06-03T07:38:38Z</time>
      </trkpt>
      <trkpt lat="41.81442" lon="9.13748">
        <ele>1431</ele>
        <time>2021-06-03T07:38:39Z</time>
      </trkpt>
      <trkpt lat="41.81443" lon="9.13748">
        <ele>1431.4</ele>
        <time>2021-06-03T07:38:40Z</time>
      </trkpt>
      <trkpt lat="41.81444" lon="9.13749">
        <ele>1431.4</ele>
        <time>2021-06-03T07:38:41Z</time>
      </trkpt>
      <trkpt lat="41.81445" lon="9.1375">
        <ele>1431.4</ele>
        <time>2021-06-03T07:38:42Z</time>
      </trkpt>
      <trkpt lat="41.81445" lon="9.1375">
        <ele>1432</ele>
        <time>2021-06-03T07:38:43Z</time>
      </trkpt>
      <trkpt lat="41.81446" lon="9.13751">
        <ele>1432.2</ele>
        <time>2021-06-03T07:38:44Z</time>
      </trkpt>
      <trkpt lat="41.81447" lon="9.13751">
        <ele>1432.2</ele>
        <time>2021-06-03T07:38:45Z</time>
      </trkpt>
      <trkpt lat="41.81449" lon="9.13751">
        <ele>1432.2</ele>
        <time>2021-06-03T07:38:46Z</time>
      </trkpt>
      <trkpt lat="41.8145" lon="9.13752">
        <ele>1432.8</ele>
        <time>2021-06-03T07:38:47Z</time>
      </trkpt>
      <trkpt lat="41.81451" lon="9.13752">
        <ele>1432.6</ele>
        <time>2021-06-03T07:38:48Z</time>
      </trkpt>
      <trkpt lat="41.81452" lon="9.13752">
        <ele>1432.6</ele>
        <time>2021-06-03T07:38:49Z</time>
      </trkpt>
      <trkpt lat="41.81453" lon="9.13752">
        <ele>1432.6</ele>
        <time>2021-06-03T07:38:50Z</time>
      </trkpt>
      <trkpt lat="41.81454" lon="9.13752">
        <ele>1433</ele>
        <time>2021-06-03T07:38:51Z</time>
      </trkpt>
      <trkpt lat="41.81455" lon="9.13753">
        <ele>1433.4</ele>
        <time>2021-06-03T07:38:52Z</time>
      </trkpt>
      <trkpt lat="41.81456" lon="9.13753">
        <ele>1433.4</ele>
        <time>2021-06-03T07:38:53Z</time>
      </trkpt>
      <trkpt lat="41.81457" lon="9.13754">
        <ele>1433.4</ele>
        <time>2021-06-03T07:38:54Z</time>
      </trkpt>
      <trkpt lat="41.81458" lon="9.13754">
        <ele>1433.4</ele>
        <time>2021-06-03T07:38:55Z</time>
      </trkpt>
      <trkpt lat="41.81459" lon="9.13755">
        <ele>1434</ele>
        <time>2021-06-03T07:38:56Z</time>
      </trkpt>
      <trkpt lat="41.8146" lon="9.13756">
        <ele>1434</ele>
        <time>2021-06-03T07:38:57Z</time>
      </trkpt>
      <trkpt lat="41.81461" lon="9.13757">
        <ele>1434</ele>
        <time>2021-06-03T07:38:58Z</time>
      </trkpt>
      <trkpt lat="41.81462" lon="9.13757">
        <ele>1434.6</ele>
        <time>2021-06-03T07:38:59Z</time>
      </trkpt>
      <trkpt lat="41.81463" lon="9.13757">
        <ele>1435.2</ele>
        <time>2021-06-03T07:39:00Z</time>
      </trkpt>
      <trkpt lat="41.81464" lon="9.13758">
        <ele>1435.2</ele>
        <time>2021-06-03T07:39:01Z</time>
      </trkpt>
      <trkpt lat="41.81465" lon="9.13758">
        <ele>1435.2</ele>
        <time>2021-06-03T07:39:02Z</time>
      </trkpt>
      <trkpt lat="41.81466" lon="9.13759">
        <ele>1435</ele>
        <time>2021-06-03T07:39:03Z</time>
      </trkpt>
      <trkpt lat="41.81467" lon="9.1376">
        <ele>1435.4</ele>
        <time>2021-06-03T07:39:04Z</time>
      </trkpt>
      <trkpt lat="41.81468" lon="9.13761">
        <ele>1435.4</ele>
        <time>2021-06-03T07:39:05Z</time>
      </trkpt>
      <trkpt lat="41.81469" lon="9.13761">
        <ele>1435.4</ele>
        <time>2021-06-03T07:39:06Z</time>
      </trkpt>
      <trkpt lat="41.8147" lon="9.13762">
        <ele>1435.4</ele>
        <time>2021-06-03T07:39:07Z</time>
      </trkpt>
      <trkpt lat="41.81471" lon="9.13762">
        <ele>1436</ele>
        <time>2021-06-03T07:39:08Z</time>
      </trkpt>
      <trkpt lat="41.81472" lon="9.13763">
        <ele>1436</ele>
        <time>2021-06-03T07:39:09Z</time>
      </trkpt>
      <trkpt lat="41.81473" lon="9.13763">
        <ele>1436</ele>
        <time>2021-06-03T07:39:10Z</time>
      </trkpt>
      <trkpt lat="41.81474" lon="9.13764">
        <ele>1436</ele>
        <time>2021-06-03T07:39:11Z</time>
      </trkpt>
      <trkpt lat="41.81475" lon="9.13764">
        <ele>1436</ele>
        <time>2021-06-03T07:39:12Z</time>
      </trkpt>
      <trkpt lat="41.81477" lon="9.13765">
        <ele>1436</ele>
        <time>2021-06-03T07:39:13Z</time>
      </trkpt>
      <trkpt lat="41.81478" lon="9.13765">
        <ele>1436</ele>
        <time>2021-06-03T07:39:14Z</time>
      </trkpt>
      <trkpt lat="41.81479" lon="9.13766">
        <ele>1436</ele>
        <time>2021-06-03T07:39:15Z</time>
      </trkpt>
      <trkpt lat="41.8148" lon="9.13766">
        <ele>1436.4</ele>
        <time>2021-06-03T07:39:16Z</time>
      </trkpt>
      <trkpt lat="41.81481" lon="9.13767">
        <ele>1436.4</ele>
        <time>2021-06-03T07:39:17Z</time>
      </trkpt>
      <trkpt lat="41.81482" lon="9.13768">
        <ele>1436.4</ele>
        <time>2021-06-03T07:39:18Z</time>
      </trkpt>
      <trkpt lat="41.81483" lon="9.13768">
        <ele>1437.2</ele>
        <time>2021-06-03T07:39:19Z</time>
      </trkpt>
      <trkpt lat="41.81484" lon="9.13769">
        <ele>1437.4</ele>
        <time>2021-06-03T07:39:20Z</time>
      </trkpt>
      <trkpt lat="41.81485" lon="9.1377">
        <ele>1437.4</ele>
        <time>2021-06-03T07:39:21Z</time>
      </trkpt>
      <trkpt lat="41.81486" lon="9.1377">
        <ele>1437.4</ele>
        <time>2021-06-03T07:39:22Z</time>
      </trkpt>
      <trkpt lat="41.81487" lon="9.13771">
        <ele>1437.4</ele>
        <time>2021-06-03T07:39:23Z</time>
      </trkpt>
      <trkpt lat="41.81488" lon="9.13772">
        <ele>1437.4</ele>
        <time>2021-06-03T07:39:24Z</time>
      </trkpt>
      <trkpt lat="41.81489" lon="9.13773">
        <ele>1437.4</ele>
        <time>2021-06-03T07:39:25Z</time>
      </trkpt>
      <trkpt lat="41.81491" lon="9.13774">
        <ele>1437.4</ele>
        <time>2021-06-03T07:39:26Z</time>
      </trkpt>
      <trkpt lat="41.81492" lon="9.13775">
        <ele>1438</ele>
        <time>2021-06-03T07:39:27Z</time>
      </trkpt>
      <trkpt lat="41.81493" lon="9.13775">
        <ele>1438.2</ele>
        <time>2021-06-03T07:39:28Z</time>
      </trkpt>
      <trkpt lat="41.81494" lon="9.13777">
        <ele>1438.2</ele>
        <time>2021-06-03T07:39:29Z</time>
      </trkpt>
      <trkpt lat="41.81495" lon="9.13778">
        <ele>1438.2</ele>
        <time>2021-06-03T07:39:30Z</time>
      </trkpt>
      <trkpt lat="41.81496" lon="9.13779">
        <ele>1438.2</ele>
        <time>2021-06-03T07:39:31Z</time>
      </trkpt>
      <trkpt lat="41.81497" lon="9.1378">
        <ele>1438.4</ele>
        <time>2021-06-03T07:39:32Z</time>
      </trkpt>
      <trkpt lat="41.81498" lon="9.13781">
        <ele>1438.4</ele>
        <time>2021-06-03T07:39:33Z</time>
      </trkpt>
      <trkpt lat="41.81499" lon="9.13782">
        <ele>1438.4</ele>
        <time>2021-06-03T07:39:34Z</time>
      </trkpt>
      <trkpt lat="41.815" lon="9.13784">
        <ele>1438.4</ele>
        <time>2021-06-03T07:39:35Z</time>
      </trkpt>
      <trkpt lat="41.81501" lon="9.13785">
        <ele>1438.2</ele>
        <time>2021-06-03T07:39:36Z</time>
      </trkpt>
      <trkpt lat="41.81502" lon="9.13787">
        <ele>1438.2</ele>
        <time>2021-06-03T07:39:37Z</time>
      </trkpt>
      <trkpt lat="41.81503" lon="9.13789">
        <ele>1438.2</ele>
        <time>2021-06-03T07:39:38Z</time>
      </trkpt>
      <trkpt lat="41.81504" lon="9.13791">
        <ele>1438.2</ele>
        <time>2021-06-03T07:39:39Z</time>
      </trkpt>
      <trkpt lat="41.81505" lon="9.13793">
        <ele>1438.2</ele>
        <time>2021-06-03T07:39:40Z</time>
      </trkpt>
      <trkpt lat="41.81506" lon="9.13794">
        <ele>1438.2</ele>
        <time>2021-06-03T07:39:41Z</time>
      </trkpt>
      <trkpt lat="41.81507" lon="9.13796">
        <ele>1438.2</ele>
        <time>2021-06-03T07:39:42Z</time>
      </trkpt>
      <trkpt lat="41.81508" lon="9.13798">
        <ele>1438.2</ele>
        <time>2021-06-03T07:39:43Z</time>
      </trkpt>
      <trkpt lat="41.81508" lon="9.13801">
        <ele>1438.8</ele>
        <time>2021-06-03T07:39:44Z</time>
      </trkpt>
      <trkpt lat="41.81509" lon="9.13803">
        <ele>1438.8</ele>
        <time>2021-06-03T07:39:45Z</time>
      </trkpt>
      <trkpt lat="41.81509" lon="9.13805">
        <ele>1438.8</ele>
        <time>2021-06-03T07:39:46Z</time>
      </trkpt>
      <trkpt lat="41.8151" lon="9.13807">
        <ele>1439.4</ele>
        <time>2021-06-03T07:39:47Z</time>
      </trkpt>
      <trkpt lat="41.8151" lon="9.13809">
        <ele>1439.4</ele>
        <time>2021-06-03T07:39:48Z</time>
      </trkpt>
      <trkpt lat="41.81511" lon="9.13811">
        <ele>1439.4</ele>
        <time>2021-06-03T07:39:49Z</time>
      </trkpt>
      <trkpt lat="41.81511" lon="9.13813">
        <ele>1439.4</ele>
        <time>2021-06-03T07:39:50Z</time>
      </trkpt>
      <trkpt lat="41.81512" lon="9.13815">
        <ele>1439.4</ele>
        <time>2021-06-03T07:39:51Z</time>
      </trkpt>
      <trkpt lat="41.81512" lon="9.13816">
        <ele>1439.8</ele>
        <time>2021-06-03T07:39:52Z</time>
      </trkpt>
      <trkpt lat="41.81512" lon="9.13818">
        <ele>1439.8</ele>
        <time>2021-06-03T07:39:53Z</time>
      </trkpt>
      <trkpt lat="41.81512" lon="9.1382">
        <ele>1439.8</ele>
        <time>2021-06-03T07:39:54Z</time>
      </trkpt>
      <trkpt lat="41.81512" lon="9.13822">
        <ele>1439.8</ele>
        <time>2021-06-03T07:39:55Z</time>
      </trkpt>
      <trkpt lat="41.81513" lon="9.13823">
        <ele>1440.4</ele>
        <time>2021-06-03T07:39:56Z</time>
      </trkpt>
      <trkpt lat="41.81513" lon="9.13825">
        <ele>1440.4</ele>
        <time>2021-06-03T07:39:57Z</time>
      </trkpt>
      <trkpt lat="41.81513" lon="9.13826">
        <ele>1440.4</ele>
        <time>2021-06-03T07:39:58Z</time>
      </trkpt>
      <trkpt lat="41.81514" lon="9.13828">
        <ele>1440.4</ele>
        <time>2021-06-03T07:39:59Z</time>
      </trkpt>
      <trkpt lat="41.81514" lon="9.1383">
        <ele>1441</ele>
        <time>2021-06-03T07:40:00Z</time>
      </trkpt>
      <trkpt lat="41.81515" lon="9.13831">
        <ele>1441</ele>
        <time>2021-06-03T07:40:01Z</time>
      </trkpt>
      <trkpt lat="41.81515" lon="9.13833">
        <ele>1441</ele>
        <time>2021-06-03T07:40:02Z</time>
      </trkpt>
      <trkpt lat="41.81516" lon="9.13834">
        <ele>1441</ele>
        <time>2021-06-03T07:40:03Z</time>
      </trkpt>
      <trkpt lat="41.81517" lon="9.13835">
        <ele>1441</ele>
        <time>2021-06-03T07:40:04Z</time>
      </trkpt>
      <trkpt lat="41.81517" lon="9.13837">
        <ele>1441</ele>
        <time>2021-06-03T07:40:05Z</time>
      </trkpt>
      <trkpt lat="41.81518" lon="9.13838">
        <ele>1441</ele>
        <time>2021-06-03T07:40:06Z</time>
      </trkpt>
      <trkpt lat="41.81519" lon="9.13839">
        <ele>1441.8</ele>
        <time>2021-06-03T07:40:07Z</time>
      </trkpt>
      <trkpt lat="41.8152" lon="9.1384">
        <ele>1441.8</ele>
        <time>2021-06-03T07:40:08Z</time>
      </trkpt>
      <trkpt lat="41.81522" lon="9.13841">
        <ele>1441.8</ele>
        <time>2021-06-03T07:40:09Z</time>
      </trkpt>
      <trkpt lat="41.81522" lon="9.13842">
        <ele>1441.8</ele>
        <time>2021-06-03T07:40:10Z</time>
      </trkpt>
      <trkpt lat="41.81524" lon="9.13843">
        <ele>1442.6</ele>
        <time>2021-06-03T07:40:11Z</time>
      </trkpt>
      <trkpt lat="41.81525" lon="9.13843">
        <ele>1443</ele>
        <time>2021-06-03T07:40:12Z</time>
      </trkpt>
      <trkpt lat="41.81526" lon="9.13844">
        <ele>1443</ele>
        <time>2021-06-03T07:40:13Z</time>
      </trkpt>
      <trkpt lat="41.81527" lon="9.13844">
        <ele>1443</ele>
        <time>2021-06-03T07:40:14Z</time>
      </trkpt>
      <trkpt lat="41.81528" lon="9.13844">
        <ele>1443</ele>
        <time>2021-06-03T07:40:15Z</time>
      </trkpt>
      <trkpt lat="41.8153" lon="9.13845">
        <ele>1444.2</ele>
        <time>2021-06-03T07:40:16Z</time>
      </trkpt>
      <trkpt lat="41.81531" lon="9.13845">
        <ele>1444.2</ele>
        <time>2021-06-03T07:40:17Z</time>
      </trkpt>
      <trkpt lat="41.81532" lon="9.13845">
        <ele>1444.2</ele>
        <time>2021-06-03T07:40:18Z</time>
      </trkpt>
      <trkpt lat="41.81533" lon="9.13846">
        <ele>1444.2</ele>
        <time>2021-06-03T07:40:19Z</time>
      </trkpt>
      <trkpt lat="41.81534" lon="9.13846">
        <ele>1445</ele>
        <time>2021-06-03T07:40:20Z</time>
      </trkpt>
      <trkpt lat="41.81535" lon="9.13846">
        <ele>1445</ele>
        <time>2021-06-03T07:40:21Z</time>
      </trkpt>
      <trkpt lat="41.81537" lon="9.13847">
        <ele>1445</ele>
        <time>2021-06-03T07:40:22Z</time>
      </trkpt>
      <trkpt lat="41.81538" lon="9.13847">
        <ele>1445</ele>
        <time>2021-06-03T07:40:23Z</time>
      </trkpt>
      <trkpt lat="41.81539" lon="9.13847">
        <ele>1445.4</ele>
        <time>2021-06-03T07:40:24Z</time>
      </trkpt>
      <trkpt lat="41.8154" lon="9.13846">
        <ele>1445.4</ele>
        <time>2021-06-03T07:40:25Z</time>
      </trkpt>
      <trkpt lat="41.81541" lon="9.13846">
        <ele>1445.4</ele>
        <time>2021-06-03T07:40:26Z</time>
      </trkpt>
      <trkpt lat="41.81543" lon="9.13846">
        <ele>1445.4</ele>
        <time>2021-06-03T07:40:27Z</time>
      </trkpt>
      <trkpt lat="41.81544" lon="9.13847">
        <ele>1445.4</ele>
        <time>2021-06-03T07:40:28Z</time>
      </trkpt>
      <trkpt lat="41.81545" lon="9.13846">
        <ele>1445.4</ele>
        <time>2021-06-03T07:40:29Z</time>
      </trkpt>
      <trkpt lat="41.81546" lon="9.13846">
        <ele>1445.4</ele>
        <time>2021-06-03T07:40:30Z</time>
      </trkpt>
      <trkpt lat="41.81547" lon="9.13845">
        <ele>1445.8</ele>
        <time>2021-06-03T07:40:31Z</time>
      </trkpt>
      <trkpt lat="41.81548" lon="9.13845">
        <ele>1446.2</ele>
        <time>2021-06-03T07:40:32Z</time>
      </trkpt>
      <trkpt lat="41.8155" lon="9.13845">
        <ele>1446.2</ele>
        <time>2021-06-03T07:40:33Z</time>
      </trkpt>
      <trkpt lat="41.81551" lon="9.13845">
        <ele>1446.2</ele>
        <time>2021-06-03T07:40:34Z</time>
      </trkpt>
      <trkpt lat="41.81552" lon="9.13845">
        <ele>1446.2</ele>
        <time>2021-06-03T07:40:35Z</time>
      </trkpt>
      <trkpt lat="41.81553" lon="9.13845">
        <ele>1446.6</ele>
        <time>2021-06-03T07:40:36Z</time>
      </trkpt>
      <trkpt lat="41.81554" lon="9.13846">
        <ele>1446.6</ele>
        <time>2021-06-03T07:40:37Z</time>
      </trkpt>
      <trkpt lat="41.81555" lon="9.13846">
        <ele>1446.6</ele>
        <time>2021-06-03T07:40:38Z</time>
      </trkpt>
      <trkpt lat="41.81556" lon="9.13846">
        <ele>1446.8</ele>
        <time>2021-06-03T07:40:39Z</time>
      </trkpt>
      <trkpt lat="41.81557" lon="9.13846">
        <ele>1447.4</ele>
        <time>2021-06-03T07:40:40Z</time>
      </trkpt>
      <trkpt lat="41.81558" lon="9.13846">
        <ele>1447.4</ele>
        <time>2021-06-03T07:40:41Z</time>
      </trkpt>
      <trkpt lat="41.8156" lon="9.13846">
        <ele>1447.4</ele>
        <time>2021-06-03T07:40:42Z</time>
      </trkpt>
      <trkpt lat="41.81561" lon="9.13846">
        <ele>1447.4</ele>
        <time>2021-06-03T07:40:43Z</time>
      </trkpt>
      <trkpt lat="41.81562" lon="9.13846">
        <ele>1447.6</ele>
        <time>2021-06-03T07:40:44Z</time>
      </trkpt>
      <trkpt lat="41.81563" lon="9.13846">
        <ele>1447.6</ele>
        <time>2021-06-03T07:40:45Z</time>
      </trkpt>
      <trkpt lat="41.81564" lon="9.13846">
        <ele>1447.6</ele>
        <time>2021-06-03T07:40:46Z</time>
      </trkpt>
      <trkpt lat="41.81565" lon="9.13845">
        <ele>1447.6</ele>
        <time>2021-06-03T07:40:47Z</time>
      </trkpt>
      <trkpt lat="41.81567" lon="9.13845">
        <ele>1447.8</ele>
        <time>2021-06-03T07:40:48Z</time>
      </trkpt>
      <trkpt lat="41.81568" lon="9.13845">
        <ele>1447.8</ele>
        <time>2021-06-03T07:40:49Z</time>
      </trkpt>
      <trkpt lat="41.81569" lon="9.13845">
        <ele>1447.8</ele>
        <time>2021-06-03T07:40:50Z</time>
      </trkpt>
      <trkpt lat="41.8157" lon="9.13845">
        <ele>1448.4</ele>
        <time>2021-06-03T07:40:51Z</time>
      </trkpt>
      <trkpt lat="41.81571" lon="9.13845">
        <ele>1448.2</ele>
        <time>2021-06-03T07:40:52Z</time>
      </trkpt>
      <trkpt lat="41.81572" lon="9.13845">
        <ele>1448.2</ele>
        <time>2021-06-03T07:40:53Z</time>
      </trkpt>
      <trkpt lat="41.81573" lon="9.13846">
        <ele>1448.2</ele>
        <time>2021-06-03T07:40:54Z</time>
      </trkpt>
      <trkpt lat="41.81575" lon="9.13846">
        <ele>1448.8</ele>
        <time>2021-06-03T07:40:55Z</time>
      </trkpt>
      <trkpt lat="41.81576" lon="9.13846">
        <ele>1449</ele>
        <time>2021-06-03T07:40:56Z</time>
      </trkpt>
      <trkpt lat="41.81577" lon="9.13846">
        <ele>1449</ele>
        <time>2021-06-03T07:40:57Z</time>
      </trkpt>
      <trkpt lat="41.81578" lon="9.13846">
        <ele>1449</ele>
        <time>2021-06-03T07:40:58Z</time>
      </trkpt>
      <trkpt lat="41.81579" lon="9.13846">
        <ele>1449</ele>
        <time>2021-06-03T07:40:59Z</time>
      </trkpt>
      <trkpt lat="41.8158" lon="9.13846">
        <ele>1449.2</ele>
        <time>2021-06-03T07:41:00Z</time>
      </trkpt>
      <trkpt lat="41.81582" lon="9.13846">
        <ele>1449.2</ele>
        <time>2021-06-03T07:41:01Z</time>
      </trkpt>
      <trkpt lat="41.81583" lon="9.13846">
        <ele>1449.2</ele>
        <time>2021-06-03T07:41:02Z</time>
      </trkpt>
      <trkpt lat="41.81584" lon="9.13845">
        <ele>1450.2</ele>
        <time>2021-06-03T07:41:03Z</time>
      </trkpt>
      <trkpt lat="41.81585" lon="9.13846">
        <ele>1450.2</ele>
        <time>2021-06-03T07:41:04Z</time>
      </trkpt>
      <trkpt lat="41.81586" lon="9.13846">
        <ele>1450.2</ele>
        <time>2021-06-03T07:41:05Z</time>
      </trkpt>
      <trkpt lat="41.81587" lon="9.13846">
        <ele>1450.2</ele>
        <time>2021-06-03T07:41:06Z</time>
      </trkpt>
      <trkpt lat="41.81588" lon="9.13846">
        <ele>1450.2</ele>
        <time>2021-06-03T07:41:07Z</time>
      </trkpt>
      <trkpt lat="41.81589" lon="9.13846">
        <ele>1450.4</ele>
        <time>2021-06-03T07:41:08Z</time>
      </trkpt>
      <trkpt lat="41.8159" lon="9.13847">
        <ele>1450.4</ele>
        <time>2021-06-03T07:41:09Z</time>
      </trkpt>
      <trkpt lat="41.81592" lon="9.13847">
        <ele>1450.4</ele>
        <time>2021-06-03T07:41:10Z</time>
      </trkpt>
      <trkpt lat="41.81593" lon="9.13847">
        <ele>1451.4</ele>
        <time>2021-06-03T07:41:11Z</time>
      </trkpt>
      <trkpt lat="41.81594" lon="9.13847">
        <ele>1451.4</ele>
        <time>2021-06-03T07:41:12Z</time>
      </trkpt>
      <trkpt lat="41.81595" lon="9.13847">
        <ele>1451.4</ele>
        <time>2021-06-03T07:41:13Z</time>
      </trkpt>
      <trkpt lat="41.81596" lon="9.13847">
        <ele>1451.4</ele>
        <time>2021-06-03T07:41:14Z</time>
      </trkpt>
      <trkpt lat="41.81597" lon="9.13848">
        <ele>1451.4</ele>
        <time>2021-06-03T07:41:15Z</time>
      </trkpt>
      <trkpt lat="41.81598" lon="9.13848">
        <ele>1451.8</ele>
        <time>2021-06-03T07:41:16Z</time>
      </trkpt>
      <trkpt lat="41.81599" lon="9.13848">
        <ele>1451.8</ele>
        <time>2021-06-03T07:41:17Z</time>
      </trkpt>
      <trkpt lat="41.816" lon="9.13847">
        <ele>1451.8</ele>
        <time>2021-06-03T07:41:18Z</time>
      </trkpt>
      <trkpt lat="41.81602" lon="9.13847">
        <ele>1451.8</ele>
        <time>2021-06-03T07:41:19Z</time>
      </trkpt>
      <trkpt lat="41.81603" lon="9.13847">
        <ele>1452.4</ele>
        <time>2021-06-03T07:41:20Z</time>
      </trkpt>
      <trkpt lat="41.81604" lon="9.13847">
        <ele>1452.4</ele>
        <time>2021-06-03T07:41:21Z</time>
      </trkpt>
      <trkpt lat="41.81605" lon="9.13847">
        <ele>1452.4</ele>
        <time>2021-06-03T07:41:22Z</time>
      </trkpt>
      <trkpt lat="41.81606" lon="9.13847">
        <ele>1452.4</ele>
        <time>2021-06-03T07:41:23Z</time>
      </trkpt>
      <trkpt lat="41.81607" lon="9.13847">
        <ele>1452.8</ele>
        <time>2021-06-03T07:41:24Z</time>
      </trkpt>
      <trkpt lat="41.81608" lon="9.13847">
        <ele>1452.8</ele>
        <time>2021-06-03T07:41:25Z</time>
      </trkpt>
      <trkpt lat="41.81609" lon="9.13848">
        <ele>1452.8</ele>
        <time>2021-06-03T07:41:26Z</time>
      </trkpt>
      <trkpt lat="41.8161" lon="9.13848">
        <ele>1452.8</ele>
        <time>2021-06-03T07:41:27Z</time>
      </trkpt>
      <trkpt lat="41.81612" lon="9.13848">
        <ele>1453</ele>
        <time>2021-06-03T07:41:28Z</time>
      </trkpt>
      <trkpt lat="41.81613" lon="9.13847">
        <ele>1453</ele>
        <time>2021-06-03T07:41:29Z</time>
      </trkpt>
      <trkpt lat="41.81614" lon="9.13847">
        <ele>1453</ele>
        <time>2021-06-03T07:41:30Z</time>
      </trkpt>
      <trkpt lat="41.81615" lon="9.13848">
        <ele>1453.4</ele>
        <time>2021-06-03T07:41:31Z</time>
      </trkpt>
      <trkpt lat="41.81616" lon="9.13847">
        <ele>1453.6</ele>
        <time>2021-06-03T07:41:32Z</time>
      </trkpt>
      <trkpt lat="41.81617" lon="9.13847">
        <ele>1453.6</ele>
        <time>2021-06-03T07:41:33Z</time>
      </trkpt>
      <trkpt lat="41.81618" lon="9.13847">
        <ele>1453.6</ele>
        <time>2021-06-03T07:41:34Z</time>
      </trkpt>
      <trkpt lat="41.81619" lon="9.13847">
        <ele>1453.6</ele>
        <time>2021-06-03T07:41:35Z</time>
      </trkpt>
      <trkpt lat="41.8162" lon="9.13846">
        <ele>1453.8</ele>
        <time>2021-06-03T07:41:36Z</time>
      </trkpt>
      <trkpt lat="41.81622" lon="9.13846">
        <ele>1453.8</ele>
        <time>2021-06-03T07:41:37Z</time>
      </trkpt>
      <trkpt lat="41.81623" lon="9.13846">
        <ele>1453.8</ele>
        <time>2021-06-03T07:41:38Z</time>
      </trkpt>
      <trkpt lat="41.81624" lon="9.13845">
        <ele>1454.4</ele>
        <time>2021-06-03T07:41:39Z</time>
      </trkpt>
      <trkpt lat="41.81625" lon="9.13845">
        <ele>1454.6</ele>
        <time>2021-06-03T07:41:40Z</time>
      </trkpt>
      <trkpt lat="41.81626" lon="9.13844">
        <ele>1454.6</ele>
        <time>2021-06-03T07:41:41Z</time>
      </trkpt>
      <trkpt lat="41.81627" lon="9.13844">
        <ele>1454.6</ele>
        <time>2021-06-03T07:41:42Z</time>
      </trkpt>
      <trkpt lat="41.81628" lon="9.13845">
        <ele>1455</ele>
        <time>2021-06-03T07:41:43Z</time>
      </trkpt>
      <trkpt lat="41.8163" lon="9.13845">
        <ele>1455.4</ele>
        <time>2021-06-03T07:41:44Z</time>
      </trkpt>
      <trkpt lat="41.81631" lon="9.13845">
        <ele>1455.4</ele>
        <time>2021-06-03T07:41:45Z</time>
      </trkpt>
      <trkpt lat="41.81632" lon="9.13845">
        <ele>1455.4</ele>
        <time>2021-06-03T07:41:46Z</time>
      </trkpt>
      <trkpt lat="41.81633" lon="9.13845">
        <ele>1455.4</ele>
        <time>2021-06-03T07:41:47Z</time>
      </trkpt>
      <trkpt lat="41.81634" lon="9.13846">
        <ele>1455.4</ele>
        <time>2021-06-03T07:41:48Z</time>
      </trkpt>
      <trkpt lat="41.81636" lon="9.13846">
        <ele>1455.4</ele>
        <time>2021-06-03T07:41:49Z</time>
      </trkpt>
      <trkpt lat="41.81637" lon="9.13846">
        <ele>1455.4</ele>
        <time>2021-06-03T07:41:50Z</time>
      </trkpt>
      <trkpt lat="41.81638" lon="9.13846">
        <ele>1456</ele>
        <time>2021-06-03T07:41:51Z</time>
      </trkpt>
      <trkpt lat="41.81639" lon="9.13846">
        <ele>1456.2</ele>
        <time>2021-06-03T07:41:52Z</time>
      </trkpt>
      <trkpt lat="41.8164" lon="9.13846">
        <ele>1456.2</ele>
        <time>2021-06-03T07:41:53Z</time>
      </trkpt>
      <trkpt lat="41.81641" lon="9.13846">
        <ele>1456.2</ele>
        <time>2021-06-03T07:41:54Z</time>
      </trkpt>
      <trkpt lat="41.81643" lon="9.13846">
        <ele>1456.6</ele>
        <time>2021-06-03T07:41:55Z</time>
      </trkpt>
      <trkpt lat="41.81644" lon="9.13846">
        <ele>1456.4</ele>
        <time>2021-06-03T07:41:56Z</time>
      </trkpt>
      <trkpt lat="41.81645" lon="9.13846">
        <ele>1456.4</ele>
        <time>2021-06-03T07:41:57Z</time>
      </trkpt>
      <trkpt lat="41.81646" lon="9.13846">
        <ele>1456.4</ele>
        <time>2021-06-03T07:41:58Z</time>
      </trkpt>
      <trkpt lat="41.81648" lon="9.13846">
        <ele>1457</ele>
        <time>2021-06-03T07:41:59Z</time>
      </trkpt>
      <trkpt lat="41.81649" lon="9.13846">
        <ele>1456.6</ele>
        <time>2021-06-03T07:42:00Z</time>
      </trkpt>
      <trkpt lat="41.8165" lon="9.13845">
        <ele>1456.6</ele>
        <time>2021-06-03T07:42:01Z</time>
      </trkpt>
      <trkpt lat="41.81651" lon="9.13845">
        <ele>1456.6</ele>
        <time>2021-06-03T07:42:02Z</time>
      </trkpt>
      <trkpt lat="41.81653" lon="9.13845">
        <ele>1457.6</ele>
        <time>2021-06-03T07:42:03Z</time>
      </trkpt>
      <trkpt lat="41.81654" lon="9.13846">
        <ele>1458.2</ele>
        <time>2021-06-03T07:42:04Z</time>
      </trkpt>
      <trkpt lat="41.81655" lon="9.13846">
        <ele>1458.2</ele>
        <time>2021-06-03T07:42:05Z</time>
      </trkpt>
      <trkpt lat="41.81656" lon="9.13847">
        <ele>1458.2</ele>
        <time>2021-06-03T07:42:06Z</time>
      </trkpt>
      <trkpt lat="41.81657" lon="9.13847">
        <ele>1458.2</ele>
        <time>2021-06-03T07:42:07Z</time>
      </trkpt>
      <trkpt lat="41.81658" lon="9.13847">
        <ele>1458.2</ele>
        <time>2021-06-03T07:42:08Z</time>
      </trkpt>
      <trkpt lat="41.81659" lon="9.13848">
        <ele>1458.2</ele>
        <time>2021-06-03T07:42:09Z</time>
      </trkpt>
      <trkpt lat="41.8166" lon="9.13848">
        <ele>1458.2</ele>
        <time>2021-06-03T07:42:10Z</time>
      </trkpt>
      <trkpt lat="41.81661" lon="9.13848">
        <ele>1458.2</ele>
        <time>2021-06-03T07:42:11Z</time>
      </trkpt>
      <trkpt lat="41.81662" lon="9.13848">
        <ele>1458.8</ele>
        <time>2021-06-03T07:42:12Z</time>
      </trkpt>
      <trkpt lat="41.81663" lon="9.13849">
        <ele>1458.8</ele>
        <time>2021-06-03T07:42:13Z</time>
      </trkpt>
      <trkpt lat="41.81664" lon="9.13849">
        <ele>1458.8</ele>
        <time>2021-06-03T07:42:14Z</time>
      </trkpt>
      <trkpt lat="41.81666" lon="9.1385">
        <ele>1459</ele>
        <time>2021-06-03T07:42:15Z</time>
      </trkpt>
      <trkpt lat="41.81667" lon="9.1385">
        <ele>1459.2</ele>
        <time>2021-06-03T07:42:16Z</time>
      </trkpt>
      <trkpt lat="41.81668" lon="9.13851">
        <ele>1459.2</ele>
        <time>2021-06-03T07:42:17Z</time>
      </trkpt>
      <trkpt lat="41.81669" lon="9.13851">
        <ele>1459.2</ele>
        <time>2021-06-03T07:42:18Z</time>
      </trkpt>
      <trkpt lat="41.8167" lon="9.13852">
        <ele>1459.2</ele>
        <time>2021-06-03T07:42:19Z</time>
      </trkpt>
      <trkpt lat="41.81671" lon="9.13853">
        <ele>1459.4</ele>
        <time>2021-06-03T07:42:20Z</time>
      </trkpt>
      <trkpt lat="41.81672" lon="9.13853">
        <ele>1459.4</ele>
        <time>2021-06-03T07:42:21Z</time>
      </trkpt>
      <trkpt lat="41.81673" lon="9.13854">
        <ele>1459.4</ele>
        <time>2021-06-03T07:42:22Z</time>
      </trkpt>
      <trkpt lat="41.81674" lon="9.13855">
        <ele>1459.8</ele>
        <time>2021-06-03T07:42:23Z</time>
      </trkpt>
      <trkpt lat="41.81675" lon="9.13855">
        <ele>1460</ele>
        <time>2021-06-03T07:42:24Z</time>
      </trkpt>
      <trkpt lat="41.81677" lon="9.13855">
        <ele>1460</ele>
        <time>2021-06-03T07:42:25Z</time>
      </trkpt>
      <trkpt lat="41.81678" lon="9.13856">
        <ele>1460</ele>
        <time>2021-06-03T07:42:26Z</time>
      </trkpt>
      <trkpt lat="41.81679" lon="9.13857">
        <ele>1460</ele>
        <time>2021-06-03T07:42:27Z</time>
      </trkpt>
      <trkpt lat="41.8168" lon="9.13857">
        <ele>1460.2</ele>
        <time>2021-06-03T07:42:28Z</time>
      </trkpt>
      <trkpt lat="41.81681" lon="9.13858">
        <ele>1460.2</ele>
        <time>2021-06-03T07:42:29Z</time>
      </trkpt>
      <trkpt lat="41.81682" lon="9.13859">
        <ele>1460.2</ele>
        <time>2021-06-03T07:42:30Z</time>
      </trkpt>
      <trkpt lat="41.81683" lon="9.13859">
        <ele>1460.2</ele>
        <time>2021-06-03T07:42:31Z</time>
      </trkpt>
      <trkpt lat="41.81684" lon="9.13861">
        <ele>1460.6</ele>
        <time>2021-06-03T07:42:32Z</time>
      </trkpt>
      <trkpt lat="41.81685" lon="9.13862">
        <ele>1460.6</ele>
        <time>2021-06-03T07:42:33Z</time>
      </trkpt>
      <trkpt lat="41.81686" lon="9.13863">
        <ele>1460.6</ele>
        <time>2021-06-03T07:42:34Z</time>
      </trkpt>
      <trkpt lat="41.81687" lon="9.13863">
        <ele>1460.8</ele>
        <time>2021-06-03T07:42:35Z</time>
      </trkpt>
      <trkpt lat="41.81688" lon="9.13864">
        <ele>1460.8</ele>
        <time>2021-06-03T07:42:36Z</time>
      </trkpt>
      <trkpt lat="41.81689" lon="9.13865">
        <ele>1460.8</ele>
        <time>2021-06-03T07:42:37Z</time>
      </trkpt>
      <trkpt lat="41.81691" lon="9.13865">
        <ele>1460.8</ele>
        <time>2021-06-03T07:42:38Z</time>
      </trkpt>
      <trkpt lat="41.81692" lon="9.13865">
        <ele>1461.4</ele>
        <time>2021-06-03T07:42:39Z</time>
      </trkpt>
      <trkpt lat="41.81693" lon="9.13865">
        <ele>1461.6</ele>
        <time>2021-06-03T07:42:40Z</time>
      </trkpt>
      <trkpt lat="41.81694" lon="9.13865">
        <ele>1461.6</ele>
        <time>2021-06-03T07:42:41Z</time>
      </trkpt>
      <trkpt lat="41.81695" lon="9.13865">
        <ele>1461.6</ele>
        <time>2021-06-03T07:42:42Z</time>
      </trkpt>
      <trkpt lat="41.81696" lon="9.13866">
        <ele>1461.6</ele>
        <time>2021-06-03T07:42:43Z</time>
      </trkpt>
      <trkpt lat="41.81698" lon="9.13866">
        <ele>1462.4</ele>
        <time>2021-06-03T07:42:44Z</time>
      </trkpt>
      <trkpt lat="41.81699" lon="9.13867">
        <ele>1462.4</ele>
        <time>2021-06-03T07:42:45Z</time>
      </trkpt>
      <trkpt lat="41.817" lon="9.13868">
        <ele>1462.4</ele>
        <time>2021-06-03T07:42:46Z</time>
      </trkpt>
      <trkpt lat="41.81701" lon="9.13868">
        <ele>1462.4</ele>
        <time>2021-06-03T07:42:47Z</time>
      </trkpt>
      <trkpt lat="41.81702" lon="9.13869">
        <ele>1462.8</ele>
        <time>2021-06-03T07:42:48Z</time>
      </trkpt>
      <trkpt lat="41.81703" lon="9.1387">
        <ele>1462.8</ele>
        <time>2021-06-03T07:42:49Z</time>
      </trkpt>
      <trkpt lat="41.81704" lon="9.13871">
        <ele>1462.8</ele>
        <time>2021-06-03T07:42:50Z</time>
      </trkpt>
      <trkpt lat="41.81705" lon="9.13872">
        <ele>1462.8</ele>
        <time>2021-06-03T07:42:51Z</time>
      </trkpt>
      <trkpt lat="41.81706" lon="9.13872">
        <ele>1463.2</ele>
        <time>2021-06-03T07:42:52Z</time>
      </trkpt>
      <trkpt lat="41.81707" lon="9.13873">
        <ele>1463.2</ele>
        <time>2021-06-03T07:42:53Z</time>
      </trkpt>
      <trkpt lat="41.81708" lon="9.13873">
        <ele>1463.2</ele>
        <time>2021-06-03T07:42:54Z</time>
      </trkpt>
      <trkpt lat="41.81709" lon="9.13874">
        <ele>1463.2</ele>
        <time>2021-06-03T07:42:55Z</time>
      </trkpt>
      <trkpt lat="41.81711" lon="9.13874">
        <ele>1463.2</ele>
        <time>2021-06-03T07:42:56Z</time>
      </trkpt>
      <trkpt lat="41.81712" lon="9.13875">
        <ele>1463.2</ele>
        <time>2021-06-03T07:42:57Z</time>
      </trkpt>
      <trkpt lat="41.81713" lon="9.13876">
        <ele>1463.2</ele>
        <time>2021-06-03T07:42:58Z</time>
      </trkpt>
      <trkpt lat="41.81714" lon="9.13877">
        <ele>1463.8</ele>
        <time>2021-06-03T07:42:59Z</time>
      </trkpt>
      <trkpt lat="41.81715" lon="9.13878">
        <ele>1464</ele>
        <time>2021-06-03T07:43:00Z</time>
      </trkpt>
      <trkpt lat="41.81716" lon="9.13878">
        <ele>1464</ele>
        <time>2021-06-03T07:43:01Z</time>
      </trkpt>
      <trkpt lat="41.81717" lon="9.13879">
        <ele>1464</ele>
        <time>2021-06-03T07:43:02Z</time>
      </trkpt>
      <trkpt lat="41.81718" lon="9.1388">
        <ele>1464</ele>
        <time>2021-06-03T07:43:03Z</time>
      </trkpt>
      <trkpt lat="41.81719" lon="9.1388">
        <ele>1464.2</ele>
        <time>2021-06-03T07:43:04Z</time>
      </trkpt>
      <trkpt lat="41.8172" lon="9.13881">
        <ele>1464.2</ele>
        <time>2021-06-03T07:43:05Z</time>
      </trkpt>
      <trkpt lat="41.81721" lon="9.13881">
        <ele>1464.2</ele>
        <time>2021-06-03T07:43:06Z</time>
      </trkpt>
      <trkpt lat="41.81722" lon="9.13882">
        <ele>1464.4</ele>
        <time>2021-06-03T07:43:07Z</time>
      </trkpt>
      <trkpt lat="41.81724" lon="9.13882">
        <ele>1464.6</ele>
        <time>2021-06-03T07:43:08Z</time>
      </trkpt>
      <trkpt lat="41.81725" lon="9.13883">
        <ele>1464.6</ele>
        <time>2021-06-03T07:43:09Z</time>
      </trkpt>
      <trkpt lat="41.81726" lon="9.13883">
        <ele>1464.6</ele>
        <time>2021-06-03T07:43:10Z</time>
      </trkpt>
      <trkpt lat="41.81727" lon="9.13884">
        <ele>1465</ele>
        <time>2021-06-03T07:43:11Z</time>
      </trkpt>
      <trkpt lat="41.81728" lon="9.13884">
        <ele>1465.4</ele>
        <time>2021-06-03T07:43:12Z</time>
      </trkpt>
      <trkpt lat="41.81729" lon="9.13884">
        <ele>1465.4</ele>
        <time>2021-06-03T07:43:13Z</time>
      </trkpt>
      <trkpt lat="41.8173" lon="9.13884">
        <ele>1465.4</ele>
        <time>2021-06-03T07:43:14Z</time>
      </trkpt>
      <trkpt lat="41.81731" lon="9.13885">
        <ele>1465.4</ele>
        <time>2021-06-03T07:43:15Z</time>
      </trkpt>
      <trkpt lat="41.81733" lon="9.13885">
        <ele>1465.8</ele>
        <time>2021-06-03T07:43:16Z</time>
      </trkpt>
      <trkpt lat="41.81734" lon="9.13885">
        <ele>1465.8</ele>
        <time>2021-06-03T07:43:17Z</time>
      </trkpt>
      <trkpt lat="41.81735" lon="9.13885">
        <ele>1465.8</ele>
        <time>2021-06-03T07:43:18Z</time>
      </trkpt>
      <trkpt lat="41.81736" lon="9.13885">
        <ele>1465.8</ele>
        <time>2021-06-03T07:43:19Z</time>
      </trkpt>
      <trkpt lat="41.81737" lon="9.13885">
        <ele>1466</ele>
        <time>2021-06-03T07:43:20Z</time>
      </trkpt>
      <trkpt lat="41.81739" lon="9.13885">
        <ele>1466</ele>
        <time>2021-06-03T07:43:21Z</time>
      </trkpt>
      <trkpt lat="41.8174" lon="9.13885">
        <ele>1466</ele>
        <time>2021-06-03T07:43:22Z</time>
      </trkpt>
      <trkpt lat="41.81741" lon="9.13886">
        <ele>1466.6</ele>
        <time>2021-06-03T07:43:23Z</time>
      </trkpt>
      <trkpt lat="41.81742" lon="9.13886">
        <ele>1467</ele>
        <time>2021-06-03T07:43:24Z</time>
      </trkpt>
      <trkpt lat="41.81743" lon="9.13887">
        <ele>1467</ele>
        <time>2021-06-03T07:43:25Z</time>
      </trkpt>
      <trkpt lat="41.81744" lon="9.13887">
        <ele>1467</ele>
        <time>2021-06-03T07:43:26Z</time>
      </trkpt>
      <trkpt lat="41.81745" lon="9.13887">
        <ele>1467.4</ele>
        <time>2021-06-03T07:43:27Z</time>
      </trkpt>
      <trkpt lat="41.81747" lon="9.13888">
        <ele>1467.8</ele>
        <time>2021-06-03T07:43:28Z</time>
      </trkpt>
      <trkpt lat="41.81748" lon="9.13889">
        <ele>1467.8</ele>
        <time>2021-06-03T07:43:29Z</time>
      </trkpt>
      <trkpt lat="41.81749" lon="9.13889">
        <ele>1467.8</ele>
        <time>2021-06-03T07:43:30Z</time>
      </trkpt>
      <trkpt lat="41.8175" lon="9.1389">
        <ele>1467.8</ele>
        <time>2021-06-03T07:43:31Z</time>
      </trkpt>
      <trkpt lat="41.81751" lon="9.1389">
        <ele>1467.8</ele>
        <time>2021-06-03T07:43:32Z</time>
      </trkpt>
      <trkpt lat="41.81752" lon="9.1389">
        <ele>1467.8</ele>
        <time>2021-06-03T07:43:33Z</time>
      </trkpt>
      <trkpt lat="41.81753" lon="9.13891">
        <ele>1467.8</ele>
        <time>2021-06-03T07:43:34Z</time>
      </trkpt>
      <trkpt lat="41.81754" lon="9.13891">
        <ele>1468.4</ele>
        <time>2021-06-03T07:43:35Z</time>
      </trkpt>
      <trkpt lat="41.81756" lon="9.13892">
        <ele>1468.2</ele>
        <time>2021-06-03T07:43:36Z</time>
      </trkpt>
      <trkpt lat="41.81757" lon="9.13893">
        <ele>1468.2</ele>
        <time>2021-06-03T07:43:37Z</time>
      </trkpt>
      <trkpt lat="41.81758" lon="9.13894">
        <ele>1468.2</ele>
        <time>2021-06-03T07:43:38Z</time>
      </trkpt>
      <trkpt lat="41.81759" lon="9.13894">
        <ele>1468.8</ele>
        <time>2021-06-03T07:43:39Z</time>
      </trkpt>
      <trkpt lat="41.8176" lon="9.13895">
        <ele>1468.8</ele>
        <time>2021-06-03T07:43:40Z</time>
      </trkpt>
      <trkpt lat="41.81761" lon="9.13895">
        <ele>1468.8</ele>
        <time>2021-06-03T07:43:41Z</time>
      </trkpt>
      <trkpt lat="41.81762" lon="9.13896">
        <ele>1468.8</ele>
        <time>2021-06-03T07:43:42Z</time>
      </trkpt>
      <trkpt lat="41.81763" lon="9.13896">
        <ele>1469.4</ele>
        <time>2021-06-03T07:43:43Z</time>
      </trkpt>
      <trkpt lat="41.81764" lon="9.13896">
        <ele>1469.6</ele>
        <time>2021-06-03T07:43:44Z</time>
      </trkpt>
      <trkpt lat="41.81766" lon="9.13897">
        <ele>1469.6</ele>
        <time>2021-06-03T07:43:45Z</time>
      </trkpt>
      <trkpt lat="41.81767" lon="9.13897">
        <ele>1469.6</ele>
        <time>2021-06-03T07:43:46Z</time>
      </trkpt>
      <trkpt lat="41.81768" lon="9.13898">
        <ele>1469.6</ele>
        <time>2021-06-03T07:43:47Z</time>
      </trkpt>
      <trkpt lat="41.81769" lon="9.13898">
        <ele>1470</ele>
        <time>2021-06-03T07:43:48Z</time>
      </trkpt>
      <trkpt lat="41.8177" lon="9.13898">
        <ele>1470</ele>
        <time>2021-06-03T07:43:49Z</time>
      </trkpt>
      <trkpt lat="41.81772" lon="9.13899">
        <ele>1470</ele>
        <time>2021-06-03T07:43:50Z</time>
      </trkpt>
      <trkpt lat="41.81773" lon="9.13899">
        <ele>1470</ele>
        <time>2021-06-03T07:43:51Z</time>
      </trkpt>
      <trkpt lat="41.81774" lon="9.13899">
        <ele>1470.4</ele>
        <time>2021-06-03T07:43:52Z</time>
      </trkpt>
      <trkpt lat="41.81776" lon="9.13899">
        <ele>1470.4</ele>
        <time>2021-06-03T07:43:53Z</time>
      </trkpt>
      <trkpt lat="41.81777" lon="9.139">
        <ele>1470.4</ele>
        <time>2021-06-03T07:43:54Z</time>
      </trkpt>
      <trkpt lat="41.81778" lon="9.139">
        <ele>1470.6</ele>
        <time>2021-06-03T07:43:55Z</time>
      </trkpt>
      <trkpt lat="41.81779" lon="9.13901">
        <ele>1471.2</ele>
        <time>2021-06-03T07:43:56Z</time>
      </trkpt>
      <trkpt lat="41.8178" lon="9.13901">
        <ele>1471.2</ele>
        <time>2021-06-03T07:43:57Z</time>
      </trkpt>
      <trkpt lat="41.81781" lon="9.13901">
        <ele>1471.2</ele>
        <time>2021-06-03T07:43:58Z</time>
      </trkpt>
      <trkpt lat="41.81782" lon="9.13901">
        <ele>1471.2</ele>
        <time>2021-06-03T07:43:59Z</time>
      </trkpt>
      <trkpt lat="41.81783" lon="9.13902">
        <ele>1470.6</ele>
        <time>2021-06-03T07:44:00Z</time>
      </trkpt>
      <trkpt lat="41.81784" lon="9.13902">
        <ele>1470.6</ele>
        <time>2021-06-03T07:44:01Z</time>
      </trkpt>
      <trkpt lat="41.81786" lon="9.13902">
        <ele>1470.6</ele>
        <time>2021-06-03T07:44:02Z</time>
      </trkpt>
      <trkpt lat="41.81787" lon="9.13902">
        <ele>1471.6</ele>
        <time>2021-06-03T07:44:03Z</time>
      </trkpt>
      <trkpt lat="41.81788" lon="9.13902">
        <ele>1471.6</ele>
        <time>2021-06-03T07:44:04Z</time>
      </trkpt>
      <trkpt lat="41.81789" lon="9.13902">
        <ele>1471.6</ele>
        <time>2021-06-03T07:44:05Z</time>
      </trkpt>
      <trkpt lat="41.8179" lon="9.13902">
        <ele>1471.6</ele>
        <time>2021-06-03T07:44:06Z</time>
      </trkpt>
      <trkpt lat="41.81792" lon="9.13903">
        <ele>1472</ele>
        <time>2021-06-03T07:44:07Z</time>
      </trkpt>
      <trkpt lat="41.81793" lon="9.13903">
        <ele>1472.2</ele>
        <time>2021-06-03T07:44:08Z</time>
      </trkpt>
      <trkpt lat="41.81794" lon="9.13904">
        <ele>1472.2</ele>
        <time>2021-06-03T07:44:09Z</time>
      </trkpt>
      <trkpt lat="41.81795" lon="9.13904">
        <ele>1472.2</ele>
        <time>2021-06-03T07:44:10Z</time>
      </trkpt>
      <trkpt lat="41.81796" lon="9.13904">
        <ele>1472.4</ele>
        <time>2021-06-03T07:44:11Z</time>
      </trkpt>
      <trkpt lat="41.81798" lon="9.13905">
        <ele>1473</ele>
        <time>2021-06-03T07:44:12Z</time>
      </trkpt>
      <trkpt lat="41.81799" lon="9.13905">
        <ele>1473</ele>
        <time>2021-06-03T07:44:13Z</time>
      </trkpt>
      <trkpt lat="41.818" lon="9.13905">
        <ele>1473</ele>
        <time>2021-06-03T07:44:14Z</time>
      </trkpt>
      <trkpt lat="41.81801" lon="9.13905">
        <ele>1472.8</ele>
        <time>2021-06-03T07:44:15Z</time>
      </trkpt>
      <trkpt lat="41.81803" lon="9.13906">
        <ele>1473.2</ele>
        <time>2021-06-03T07:44:16Z</time>
      </trkpt>
      <trkpt lat="41.81804" lon="9.13906">
        <ele>1473.2</ele>
        <time>2021-06-03T07:44:17Z</time>
      </trkpt>
      <trkpt lat="41.81805" lon="9.13906">
        <ele>1473.2</ele>
        <time>2021-06-03T07:44:18Z</time>
      </trkpt>
      <trkpt lat="41.81806" lon="9.13907">
        <ele>1473.2</ele>
        <time>2021-06-03T07:44:19Z</time>
      </trkpt>
      <trkpt lat="41.81808" lon="9.13907">
        <ele>1473.2</ele>
        <time>2021-06-03T07:44:20Z</time>
      </trkpt>
      <trkpt lat="41.81809" lon="9.13908">
        <ele>1473.2</ele>
        <time>2021-06-03T07:44:21Z</time>
      </trkpt>
      <trkpt lat="41.8181" lon="9.13909">
        <ele>1473.2</ele>
        <time>2021-06-03T07:44:22Z</time>
      </trkpt>
      <trkpt lat="41.81811" lon="9.13909">
        <ele>1473.4</ele>
        <time>2021-06-03T07:44:23Z</time>
      </trkpt>
      <trkpt lat="41.81812" lon="9.1391">
        <ele>1473.6</ele>
        <time>2021-06-03T07:44:24Z</time>
      </trkpt>
      <trkpt lat="41.81813" lon="9.1391">
        <ele>1473.6</ele>
        <time>2021-06-03T07:44:25Z</time>
      </trkpt>
      <trkpt lat="41.81815" lon="9.1391">
        <ele>1473.6</ele>
        <time>2021-06-03T07:44:26Z</time>
      </trkpt>
      <trkpt lat="41.81816" lon="9.1391">
        <ele>1474</ele>
        <time>2021-06-03T07:44:27Z</time>
      </trkpt>
      <trkpt lat="41.81817" lon="9.13911">
        <ele>1474.2</ele>
        <time>2021-06-03T07:44:28Z</time>
      </trkpt>
      <trkpt lat="41.81818" lon="9.13911">
        <ele>1474.2</ele>
        <time>2021-06-03T07:44:29Z</time>
      </trkpt>
      <trkpt lat="41.81819" lon="9.13912">
        <ele>1474.2</ele>
        <time>2021-06-03T07:44:30Z</time>
      </trkpt>
      <trkpt lat="41.8182" lon="9.13912">
        <ele>1474.2</ele>
        <time>2021-06-03T07:44:31Z</time>
      </trkpt>
      <trkpt lat="41.81822" lon="9.13912">
        <ele>1474.8</ele>
        <time>2021-06-03T07:44:32Z</time>
      </trkpt>
      <trkpt lat="41.81823" lon="9.13913">
        <ele>1474.8</ele>
        <time>2021-06-03T07:44:33Z</time>
      </trkpt>
      <trkpt lat="41.81824" lon="9.13913">
        <ele>1474.8</ele>
        <time>2021-06-03T07:44:34Z</time>
      </trkpt>
      <trkpt lat="41.81825" lon="9.13914">
        <ele>1474.8</ele>
        <time>2021-06-03T07:44:35Z</time>
      </trkpt>
      <trkpt lat="41.81826" lon="9.13914">
        <ele>1475</ele>
        <time>2021-06-03T07:44:36Z</time>
      </trkpt>
      <trkpt lat="41.81827" lon="9.13914">
        <ele>1475</ele>
        <time>2021-06-03T07:44:37Z</time>
      </trkpt>
      <trkpt lat="41.81829" lon="9.13915">
        <ele>1475</ele>
        <time>2021-06-03T07:44:38Z</time>
      </trkpt>
      <trkpt lat="41.8183" lon="9.13915">
        <ele>1475</ele>
        <time>2021-06-03T07:44:39Z</time>
      </trkpt>
      <trkpt lat="41.81831" lon="9.13915">
        <ele>1475.4</ele>
        <time>2021-06-03T07:44:40Z</time>
      </trkpt>
      <trkpt lat="41.81832" lon="9.13916">
        <ele>1475.4</ele>
        <time>2021-06-03T07:44:41Z</time>
      </trkpt>
      <trkpt lat="41.81833" lon="9.13916">
        <ele>1475.4</ele>
        <time>2021-06-03T07:44:42Z</time>
      </trkpt>
      <trkpt lat="41.81834" lon="9.13917">
        <ele>1475.4</ele>
        <time>2021-06-03T07:44:43Z</time>
      </trkpt>
      <trkpt lat="41.81835" lon="9.13918">
        <ele>1475.6</ele>
        <time>2021-06-03T07:44:44Z</time>
      </trkpt>
      <trkpt lat="41.81836" lon="9.13919">
        <ele>1475.6</ele>
        <time>2021-06-03T07:44:45Z</time>
      </trkpt>
      <trkpt lat="41.81837" lon="9.13919">
        <ele>1475.6</ele>
        <time>2021-06-03T07:44:46Z</time>
      </trkpt>
      <trkpt lat="41.81839" lon="9.13919">
        <ele>1475.6</ele>
        <time>2021-06-03T07:44:47Z</time>
      </trkpt>
      <trkpt lat="41.8184" lon="9.1392">
        <ele>1476.4</ele>
        <time>2021-06-03T07:44:48Z</time>
      </trkpt>
      <trkpt lat="41.81841" lon="9.1392">
        <ele>1476.4</ele>
        <time>2021-06-03T07:44:49Z</time>
      </trkpt>
      <trkpt lat="41.81842" lon="9.13921">
        <ele>1476.4</ele>
        <time>2021-06-03T07:44:50Z</time>
      </trkpt>
      <trkpt lat="41.81844" lon="9.13921">
        <ele>1476.4</ele>
        <time>2021-06-03T07:44:51Z</time>
      </trkpt>
      <trkpt lat="41.81845" lon="9.13921">
        <ele>1476.6</ele>
        <time>2021-06-03T07:44:52Z</time>
      </trkpt>
      <trkpt lat="41.81846" lon="9.13921">
        <ele>1476.6</ele>
        <time>2021-06-03T07:44:53Z</time>
      </trkpt>
      <trkpt lat="41.81847" lon="9.13922">
        <ele>1476.6</ele>
        <time>2021-06-03T07:44:54Z</time>
      </trkpt>
      <trkpt lat="41.81848" lon="9.13922">
        <ele>1476.8</ele>
        <time>2021-06-03T07:44:55Z</time>
      </trkpt>
      <trkpt lat="41.81849" lon="9.13923">
        <ele>1477.2</ele>
        <time>2021-06-03T07:44:56Z</time>
      </trkpt>
      <trkpt lat="41.8185" lon="9.13923">
        <ele>1477.2</ele>
        <time>2021-06-03T07:44:57Z</time>
      </trkpt>
      <trkpt lat="41.81851" lon="9.13924">
        <ele>1477.2</ele>
        <time>2021-06-03T07:44:58Z</time>
      </trkpt>
      <trkpt lat="41.81852" lon="9.13924">
        <ele>1477.2</ele>
        <time>2021-06-03T07:44:59Z</time>
      </trkpt>
      <trkpt lat="41.81854" lon="9.13924">
        <ele>1477.6</ele>
        <time>2021-06-03T07:45:00Z</time>
      </trkpt>
      <trkpt lat="41.81855" lon="9.13924">
        <ele>1477.6</ele>
        <time>2021-06-03T07:45:01Z</time>
      </trkpt>
      <trkpt lat="41.81856" lon="9.13924">
        <ele>1477.6</ele>
        <time>2021-06-03T07:45:02Z</time>
      </trkpt>
      <trkpt lat="41.81857" lon="9.13924">
        <ele>1478</ele>
        <time>2021-06-03T07:45:03Z</time>
      </trkpt>
      <trkpt lat="41.81858" lon="9.13924">
        <ele>1478.2</ele>
        <time>2021-06-03T07:45:04Z</time>
      </trkpt>
      <trkpt lat="41.81859" lon="9.13924">
        <ele>1478.2</ele>
        <time>2021-06-03T07:45:05Z</time>
      </trkpt>
      <trkpt lat="41.8186" lon="9.13925">
        <ele>1478.2</ele>
        <time>2021-06-03T07:45:06Z</time>
      </trkpt>
      <trkpt lat="41.81861" lon="9.13926">
        <ele>1478.8</ele>
        <time>2021-06-03T07:45:07Z</time>
      </trkpt>
      <trkpt lat="41.81862" lon="9.13926">
        <ele>1479.6</ele>
        <time>2021-06-03T07:45:08Z</time>
      </trkpt>
      <trkpt lat="41.81863" lon="9.13927">
        <ele>1479.6</ele>
        <time>2021-06-03T07:45:09Z</time>
      </trkpt>
      <trkpt lat="41.81864" lon="9.13928">
        <ele>1479.6</ele>
        <time>2021-06-03T07:45:10Z</time>
      </trkpt>
      <trkpt lat="41.81866" lon="9.13928">
        <ele>1479.6</ele>
        <time>2021-06-03T07:45:11Z</time>
      </trkpt>
      <trkpt lat="41.81867" lon="9.13928">
        <ele>1479.6</ele>
        <time>2021-06-03T07:45:12Z</time>
      </trkpt>
      <trkpt lat="41.81868" lon="9.13929">
        <ele>1479.6</ele>
        <time>2021-06-03T07:45:13Z</time>
      </trkpt>
      <trkpt lat="41.81869" lon="9.1393">
        <ele>1479.6</ele>
        <time>2021-06-03T07:45:14Z</time>
      </trkpt>
      <trkpt lat="41.8187" lon="9.1393">
        <ele>1480</ele>
        <time>2021-06-03T07:45:15Z</time>
      </trkpt>
      <trkpt lat="41.81872" lon="9.13931">
        <ele>1480.2</ele>
        <time>2021-06-03T07:45:16Z</time>
      </trkpt>
      <trkpt lat="41.81873" lon="9.13931">
        <ele>1480.2</ele>
        <time>2021-06-03T07:45:17Z</time>
      </trkpt>
      <trkpt lat="41.81874" lon="9.13931">
        <ele>1480.2</ele>
        <time>2021-06-03T07:45:18Z</time>
      </trkpt>
      <trkpt lat="41.81875" lon="9.13932">
        <ele>1480.4</ele>
        <time>2021-06-03T07:45:19Z</time>
      </trkpt>
      <trkpt lat="41.81876" lon="9.13933">
        <ele>1480.4</ele>
        <time>2021-06-03T07:45:20Z</time>
      </trkpt>
      <trkpt lat="41.81877" lon="9.13934">
        <ele>1480.4</ele>
        <time>2021-06-03T07:45:21Z</time>
      </trkpt>
      <trkpt lat="41.81878" lon="9.13934">
        <ele>1480.4</ele>
        <time>2021-06-03T07:45:22Z</time>
      </trkpt>
      <trkpt lat="41.8188" lon="9.13934">
        <ele>1480.6</ele>
        <time>2021-06-03T07:45:23Z</time>
      </trkpt>
      <trkpt lat="41.81881" lon="9.13935">
        <ele>1480.8</ele>
        <time>2021-06-03T07:45:24Z</time>
      </trkpt>
      <trkpt lat="41.81882" lon="9.13935">
        <ele>1480.8</ele>
        <time>2021-06-03T07:45:25Z</time>
      </trkpt>
      <trkpt lat="41.81883" lon="9.13936">
        <ele>1480.8</ele>
        <time>2021-06-03T07:45:26Z</time>
      </trkpt>
      <trkpt lat="41.81884" lon="9.13936">
        <ele>1481.8</ele>
        <time>2021-06-03T07:45:27Z</time>
      </trkpt>
      <trkpt lat="41.81885" lon="9.13937">
        <ele>1481.4</ele>
        <time>2021-06-03T07:45:28Z</time>
      </trkpt>
      <trkpt lat="41.81886" lon="9.13938">
        <ele>1481.4</ele>
        <time>2021-06-03T07:45:29Z</time>
      </trkpt>
      <trkpt lat="41.81887" lon="9.13939">
        <ele>1481.4</ele>
        <time>2021-06-03T07:45:30Z</time>
      </trkpt>
      <trkpt lat="41.81888" lon="9.1394">
        <ele>1482</ele>
        <time>2021-06-03T07:45:31Z</time>
      </trkpt>
      <trkpt lat="41.81889" lon="9.13941">
        <ele>1482.4</ele>
        <time>2021-06-03T07:45:32Z</time>
      </trkpt>
      <trkpt lat="41.8189" lon="9.13941">
        <ele>1482.4</ele>
        <time>2021-06-03T07:45:33Z</time>
      </trkpt>
      <trkpt lat="41.81891" lon="9.13942">
        <ele>1482.4</ele>
        <time>2021-06-03T07:45:34Z</time>
      </trkpt>
      <trkpt lat="41.81892" lon="9.13943">
        <ele>1482.4</ele>
        <time>2021-06-03T07:45:35Z</time>
      </trkpt>
      <trkpt lat="41.81894" lon="9.13943">
        <ele>1482.2</ele>
        <time>2021-06-03T07:45:36Z</time>
      </trkpt>
      <trkpt lat="41.81895" lon="9.13944">
        <ele>1482.2</ele>
        <time>2021-06-03T07:45:37Z</time>
      </trkpt>
      <trkpt lat="41.81896" lon="9.13944">
        <ele>1482.2</ele>
        <time>2021-06-03T07:45:38Z</time>
      </trkpt>
      <trkpt lat="41.81898" lon="9.13945">
        <ele>1482.2</ele>
        <time>2021-06-03T07:45:39Z</time>
      </trkpt>
      <trkpt lat="41.81899" lon="9.13945">
        <ele>1482.8</ele>
        <time>2021-06-03T07:45:40Z</time>
      </trkpt>
      <trkpt lat="41.819" lon="9.13946">
        <ele>1482.8</ele>
        <time>2021-06-03T07:45:41Z</time>
      </trkpt>
      <trkpt lat="41.81901" lon="9.13946">
        <ele>1482.8</ele>
        <time>2021-06-03T07:45:42Z</time>
      </trkpt>
      <trkpt lat="41.81903" lon="9.13946">
        <ele>1482.8</ele>
        <time>2021-06-03T07:45:43Z</time>
      </trkpt>
      <trkpt lat="41.81904" lon="9.13947">
        <ele>1483</ele>
        <time>2021-06-03T07:45:44Z</time>
      </trkpt>
      <trkpt lat="41.81905" lon="9.13947">
        <ele>1483</ele>
        <time>2021-06-03T07:45:45Z</time>
      </trkpt>
      <trkpt lat="41.81906" lon="9.13947">
        <ele>1483</ele>
        <time>2021-06-03T07:45:46Z</time>
      </trkpt>
      <trkpt lat="41.81907" lon="9.13948">
        <ele>1483</ele>
        <time>2021-06-03T07:45:47Z</time>
      </trkpt>
      <trkpt lat="41.81908" lon="9.13949">
        <ele>1483.6</ele>
        <time>2021-06-03T07:45:48Z</time>
      </trkpt>
      <trkpt lat="41.8191" lon="9.13949">
        <ele>1483.6</ele>
        <time>2021-06-03T07:45:49Z</time>
      </trkpt>
      <trkpt lat="41.81911" lon="9.13949">
        <ele>1483.6</ele>
        <time>2021-06-03T07:45:50Z</time>
      </trkpt>
      <trkpt lat="41.81912" lon="9.1395">
        <ele>1483.6</ele>
        <time>2021-06-03T07:45:51Z</time>
      </trkpt>
      <trkpt lat="41.81913" lon="9.1395">
        <ele>1483.8</ele>
        <time>2021-06-03T07:45:52Z</time>
      </trkpt>
      <trkpt lat="41.81914" lon="9.13951">
        <ele>1483.8</ele>
        <time>2021-06-03T07:45:53Z</time>
      </trkpt>
      <trkpt lat="41.81915" lon="9.13951">
        <ele>1483.8</ele>
        <time>2021-06-03T07:45:54Z</time>
      </trkpt>
      <trkpt lat="41.81916" lon="9.13952">
        <ele>1484.2</ele>
        <time>2021-06-03T07:45:55Z</time>
      </trkpt>
      <trkpt lat="41.81917" lon="9.13952">
        <ele>1484.6</ele>
        <time>2021-06-03T07:45:56Z</time>
      </trkpt>
      <trkpt lat="41.81919" lon="9.13953">
        <ele>1484.6</ele>
        <time>2021-06-03T07:45:57Z</time>
      </trkpt>
      <trkpt lat="41.8192" lon="9.13953">
        <ele>1484.6</ele>
        <time>2021-06-03T07:45:58Z</time>
      </trkpt>
      <trkpt lat="41.81921" lon="9.13954">
        <ele>1484.8</ele>
        <time>2021-06-03T07:45:59Z</time>
      </trkpt>
      <trkpt lat="41.81922" lon="9.13954">
        <ele>1485</ele>
        <time>2021-06-03T07:46:00Z</time>
      </trkpt>
      <trkpt lat="41.81923" lon="9.13955">
        <ele>1485</ele>
        <time>2021-06-03T07:46:01Z</time>
      </trkpt>
      <trkpt lat="41.81924" lon="9.13955">
        <ele>1485</ele>
        <time>2021-06-03T07:46:02Z</time>
      </trkpt>
      <trkpt lat="41.81925" lon="9.13956">
        <ele>1485.4</ele>
        <time>2021-06-03T07:46:03Z</time>
      </trkpt>
      <trkpt lat="41.81926" lon="9.13956">
        <ele>1485.4</ele>
        <time>2021-06-03T07:46:04Z</time>
      </trkpt>
      <trkpt lat="41.81927" lon="9.13956">
        <ele>1485.4</ele>
        <time>2021-06-03T07:46:05Z</time>
      </trkpt>
      <trkpt lat="41.81928" lon="9.13957">
        <ele>1485.4</ele>
        <time>2021-06-03T07:46:06Z</time>
      </trkpt>
      <trkpt lat="41.81929" lon="9.13957">
        <ele>1486</ele>
        <time>2021-06-03T07:46:07Z</time>
      </trkpt>
      <trkpt lat="41.81931" lon="9.13958">
        <ele>1486.6</ele>
        <time>2021-06-03T07:46:08Z</time>
      </trkpt>
      <trkpt lat="41.81932" lon="9.13958">
        <ele>1486.6</ele>
        <time>2021-06-03T07:46:09Z</time>
      </trkpt>
      <trkpt lat="41.81933" lon="9.13959">
        <ele>1486.6</ele>
        <time>2021-06-03T07:46:10Z</time>
      </trkpt>
      <trkpt lat="41.81934" lon="9.1396">
        <ele>1486.2</ele>
        <time>2021-06-03T07:46:11Z</time>
      </trkpt>
      <trkpt lat="41.81935" lon="9.13961">
        <ele>1486.6</ele>
        <time>2021-06-03T07:46:12Z</time>
      </trkpt>
      <trkpt lat="41.81936" lon="9.13962">
        <ele>1486.6</ele>
        <time>2021-06-03T07:46:13Z</time>
      </trkpt>
      <trkpt lat="41.81937" lon="9.13963">
        <ele>1486.6</ele>
        <time>2021-06-03T07:46:14Z</time>
      </trkpt>
      <trkpt lat="41.81938" lon="9.13963">
        <ele>1487</ele>
        <time>2021-06-03T07:46:15Z</time>
      </trkpt>
      <trkpt lat="41.81939" lon="9.13964">
        <ele>1487.4</ele>
        <time>2021-06-03T07:46:16Z</time>
      </trkpt>
      <trkpt lat="41.8194" lon="9.13964">
        <ele>1487.4</ele>
        <time>2021-06-03T07:46:17Z</time>
      </trkpt>
      <trkpt lat="41.81941" lon="9.13965">
        <ele>1487.4</ele>
        <time>2021-06-03T07:46:18Z</time>
      </trkpt>
      <trkpt lat="41.81942" lon="9.13966">
        <ele>1487.4</ele>
        <time>2021-06-03T07:46:19Z</time>
      </trkpt>
      <trkpt lat="41.81943" lon="9.13966">
        <ele>1487.4</ele>
        <time>2021-06-03T07:46:20Z</time>
      </trkpt>
      <trkpt lat="41.81944" lon="9.13967">
        <ele>1487.4</ele>
        <time>2021-06-03T07:46:21Z</time>
      </trkpt>
      <trkpt lat="41.81945" lon="9.13968">
        <ele>1487.4</ele>
        <time>2021-06-03T07:46:22Z</time>
      </trkpt>
      <trkpt lat="41.81946" lon="9.13969">
        <ele>1488</ele>
        <time>2021-06-03T07:46:23Z</time>
      </trkpt>
      <trkpt lat="41.81947" lon="9.1397">
        <ele>1488</ele>
        <time>2021-06-03T07:46:24Z</time>
      </trkpt>
      <trkpt lat="41.81948" lon="9.1397">
        <ele>1488</ele>
        <time>2021-06-03T07:46:25Z</time>
      </trkpt>
      <trkpt lat="41.81949" lon="9.13971">
        <ele>1488</ele>
        <time>2021-06-03T07:46:26Z</time>
      </trkpt>
      <trkpt lat="41.8195" lon="9.13972">
        <ele>1488.8</ele>
        <time>2021-06-03T07:46:27Z</time>
      </trkpt>
      <trkpt lat="41.81951" lon="9.13973">
        <ele>1488.6</ele>
        <time>2021-06-03T07:46:28Z</time>
      </trkpt>
      <trkpt lat="41.81952" lon="9.13974">
        <ele>1488.6</ele>
        <time>2021-06-03T07:46:29Z</time>
      </trkpt>
      <trkpt lat="41.81954" lon="9.13974">
        <ele>1488.6</ele>
        <time>2021-06-03T07:46:30Z</time>
      </trkpt>
      <trkpt lat="41.81955" lon="9.13974">
        <ele>1488.6</ele>
        <time>2021-06-03T07:46:31Z</time>
      </trkpt>
      <trkpt lat="41.81956" lon="9.13975">
        <ele>1488.4</ele>
        <time>2021-06-03T07:46:32Z</time>
      </trkpt>
      <trkpt lat="41.81957" lon="9.13975">
        <ele>1488.4</ele>
        <time>2021-06-03T07:46:33Z</time>
      </trkpt>
      <trkpt lat="41.81958" lon="9.13976">
        <ele>1488.4</ele>
        <time>2021-06-03T07:46:34Z</time>
      </trkpt>
      <trkpt lat="41.8196" lon="9.13976">
        <ele>1489.4</ele>
        <time>2021-06-03T07:46:35Z</time>
      </trkpt>
      <trkpt lat="41.81961" lon="9.13977">
        <ele>1489</ele>
        <time>2021-06-03T07:46:36Z</time>
      </trkpt>
      <trkpt lat="41.81962" lon="9.13977">
        <ele>1489</ele>
        <time>2021-06-03T07:46:37Z</time>
      </trkpt>
      <trkpt lat="41.81963" lon="9.13978">
        <ele>1489</ele>
        <time>2021-06-03T07:46:38Z</time>
      </trkpt>
      <trkpt lat="41.81964" lon="9.13979">
        <ele>1490</ele>
        <time>2021-06-03T07:46:39Z</time>
      </trkpt>
      <trkpt lat="41.81965" lon="9.1398">
        <ele>1490.2</ele>
        <time>2021-06-03T07:46:40Z</time>
      </trkpt>
      <trkpt lat="41.81966" lon="9.13981">
        <ele>1490.2</ele>
        <time>2021-06-03T07:46:41Z</time>
      </trkpt>
      <trkpt lat="41.81967" lon="9.13982">
        <ele>1490.2</ele>
        <time>2021-06-03T07:46:42Z</time>
      </trkpt>
      <trkpt lat="41.81968" lon="9.13982">
        <ele>1490.2</ele>
        <time>2021-06-03T07:46:43Z</time>
      </trkpt>
      <trkpt lat="41.8197" lon="9.13983">
        <ele>1490.4</ele>
        <time>2021-06-03T07:46:44Z</time>
      </trkpt>
      <trkpt lat="41.81971" lon="9.13984">
        <ele>1490.4</ele>
        <time>2021-06-03T07:46:45Z</time>
      </trkpt>
      <trkpt lat="41.81972" lon="9.13984">
        <ele>1490.4</ele>
        <time>2021-06-03T07:46:46Z</time>
      </trkpt>
      <trkpt lat="41.81973" lon="9.13985">
        <ele>1490.6</ele>
        <time>2021-06-03T07:46:47Z</time>
      </trkpt>
      <trkpt lat="41.81974" lon="9.13985">
        <ele>1491</ele>
        <time>2021-06-03T07:46:48Z</time>
      </trkpt>
      <trkpt lat="41.81975" lon="9.13986">
        <ele>1491</ele>
        <time>2021-06-03T07:46:49Z</time>
      </trkpt>
      <trkpt lat="41.81976" lon="9.13987">
        <ele>1491</ele>
        <time>2021-06-03T07:46:50Z</time>
      </trkpt>
      <trkpt lat="41.81977" lon="9.13988">
        <ele>1491</ele>
        <time>2021-06-03T07:46:51Z</time>
      </trkpt>
      <trkpt lat="41.81979" lon="9.13989">
        <ele>1491</ele>
        <time>2021-06-03T07:46:52Z</time>
      </trkpt>
      <trkpt lat="41.8198" lon="9.13989">
        <ele>1491</ele>
        <time>2021-06-03T07:46:53Z</time>
      </trkpt>
      <trkpt lat="41.81981" lon="9.1399">
        <ele>1491</ele>
        <time>2021-06-03T07:46:54Z</time>
      </trkpt>
      <trkpt lat="41.81982" lon="9.13991">
        <ele>1491.4</ele>
        <time>2021-06-03T07:46:55Z</time>
      </trkpt>
      <trkpt lat="41.81983" lon="9.13992">
        <ele>1491.4</ele>
        <time>2021-06-03T07:46:56Z</time>
      </trkpt>
      <trkpt lat="41.81984" lon="9.13993">
        <ele>1491.4</ele>
        <time>2021-06-03T07:46:57Z</time>
      </trkpt>
      <trkpt lat="41.81986" lon="9.13994">
        <ele>1491.4</ele>
        <time>2021-06-03T07:46:58Z</time>
      </trkpt>
      <trkpt lat="41.81987" lon="9.13995">
        <ele>1491.4</ele>
        <time>2021-06-03T07:46:59Z</time>
      </trkpt>
      <trkpt lat="41.81988" lon="9.13996">
        <ele>1491.8</ele>
        <time>2021-06-03T07:47:00Z</time>
      </trkpt>
      <trkpt lat="41.81989" lon="9.13997">
        <ele>1491.8</ele>
        <time>2021-06-03T07:47:01Z</time>
      </trkpt>
      <trkpt lat="41.8199" lon="9.13998">
        <ele>1491.8</ele>
        <time>2021-06-03T07:47:02Z</time>
      </trkpt>
      <trkpt lat="41.81991" lon="9.13999">
        <ele>1492</ele>
        <time>2021-06-03T07:47:03Z</time>
      </trkpt>
      <trkpt lat="41.81992" lon="9.14001">
        <ele>1492.2</ele>
        <time>2021-06-03T07:47:04Z</time>
      </trkpt>
      <trkpt lat="41.81994" lon="9.14002">
        <ele>1492.2</ele>
        <time>2021-06-03T07:47:05Z</time>
      </trkpt>
      <trkpt lat="41.81995" lon="9.14003">
        <ele>1492.2</ele>
        <time>2021-06-03T07:47:06Z</time>
      </trkpt>
      <trkpt lat="41.81996" lon="9.14004">
        <ele>1492.2</ele>
        <time>2021-06-03T07:47:07Z</time>
      </trkpt>
      <trkpt lat="41.81997" lon="9.14005">
        <ele>1492.2</ele>
        <time>2021-06-03T07:47:08Z</time>
      </trkpt>
      <trkpt lat="41.81998" lon="9.14006">
        <ele>1492.2</ele>
        <time>2021-06-03T07:47:09Z</time>
      </trkpt>
      <trkpt lat="41.81999" lon="9.14007">
        <ele>1492.2</ele>
        <time>2021-06-03T07:47:10Z</time>
      </trkpt>
      <trkpt lat="41.82" lon="9.14009">
        <ele>1492.4</ele>
        <time>2021-06-03T07:47:11Z</time>
      </trkpt>
      <trkpt lat="41.82001" lon="9.1401">
        <ele>1492.8</ele>
        <time>2021-06-03T07:47:12Z</time>
      </trkpt>
      <trkpt lat="41.82003" lon="9.14011">
        <ele>1492.8</ele>
        <time>2021-06-03T07:47:13Z</time>
      </trkpt>
      <trkpt lat="41.82004" lon="9.14013">
        <ele>1492.8</ele>
        <time>2021-06-03T07:47:14Z</time>
      </trkpt>
      <trkpt lat="41.82005" lon="9.14014">
        <ele>1492.8</ele>
        <time>2021-06-03T07:47:15Z</time>
      </trkpt>
      <trkpt lat="41.82006" lon="9.14015">
        <ele>1493</ele>
        <time>2021-06-03T07:47:16Z</time>
      </trkpt>
      <trkpt lat="41.82007" lon="9.14016">
        <ele>1493</ele>
        <time>2021-06-03T07:47:17Z</time>
      </trkpt>
      <trkpt lat="41.82008" lon="9.14018">
        <ele>1493</ele>
        <time>2021-06-03T07:47:18Z</time>
      </trkpt>
      <trkpt lat="41.82009" lon="9.14019">
        <ele>1493</ele>
        <time>2021-06-03T07:47:19Z</time>
      </trkpt>
      <trkpt lat="41.8201" lon="9.14021">
        <ele>1493</ele>
        <time>2021-06-03T07:47:20Z</time>
      </trkpt>
      <trkpt lat="41.82011" lon="9.14022">
        <ele>1493</ele>
        <time>2021-06-03T07:47:21Z</time>
      </trkpt>
      <trkpt lat="41.82012" lon="9.14023">
        <ele>1493</ele>
        <time>2021-06-03T07:47:22Z</time>
      </trkpt>
      <trkpt lat="41.82013" lon="9.14025">
        <ele>1493</ele>
        <time>2021-06-03T07:47:23Z</time>
      </trkpt>
      <trkpt lat="41.82014" lon="9.14026">
        <ele>1493.6</ele>
        <time>2021-06-03T07:47:24Z</time>
      </trkpt>
      <trkpt lat="41.82015" lon="9.14027">
        <ele>1493.6</ele>
        <time>2021-06-03T07:47:25Z</time>
      </trkpt>
      <trkpt lat="41.82016" lon="9.14029">
        <ele>1493.6</ele>
        <time>2021-06-03T07:47:26Z</time>
      </trkpt>
      <trkpt lat="41.82017" lon="9.1403">
        <ele>1493.6</ele>
        <time>2021-06-03T07:47:27Z</time>
      </trkpt>
      <trkpt lat="41.82018" lon="9.14032">
        <ele>1493.8</ele>
        <time>2021-06-03T07:47:28Z</time>
      </trkpt>
      <trkpt lat="41.82019" lon="9.14034">
        <ele>1493.8</ele>
        <time>2021-06-03T07:47:29Z</time>
      </trkpt>
      <trkpt lat="41.82019" lon="9.14035">
        <ele>1493.8</ele>
        <time>2021-06-03T07:47:30Z</time>
      </trkpt>
      <trkpt lat="41.8202" lon="9.14037">
        <ele>1493.8</ele>
        <time>2021-06-03T07:47:31Z</time>
      </trkpt>
      <trkpt lat="41.82021" lon="9.14038">
        <ele>1493.8</ele>
        <time>2021-06-03T07:47:32Z</time>
      </trkpt>
      <trkpt lat="41.82022" lon="9.1404">
        <ele>1493.8</ele>
        <time>2021-06-03T07:47:33Z</time>
      </trkpt>
      <trkpt lat="41.82023" lon="9.14041">
        <ele>1493.8</ele>
        <time>2021-06-03T07:47:34Z</time>
      </trkpt>
      <trkpt lat="41.82024" lon="9.14043">
        <ele>1494.2</ele>
        <time>2021-06-03T07:47:35Z</time>
      </trkpt>
      <trkpt lat="41.82025" lon="9.14044">
        <ele>1493.8</ele>
        <time>2021-06-03T07:47:36Z</time>
      </trkpt>
      <trkpt lat="41.82026" lon="9.14045">
        <ele>1493.8</ele>
        <time>2021-06-03T07:47:37Z</time>
      </trkpt>
      <trkpt lat="41.82027" lon="9.14047">
        <ele>1493.8</ele>
        <time>2021-06-03T07:47:38Z</time>
      </trkpt>
      <trkpt lat="41.82028" lon="9.14048">
        <ele>1494.6</ele>
        <time>2021-06-03T07:47:39Z</time>
      </trkpt>
      <trkpt lat="41.82029" lon="9.14049">
        <ele>1494.6</ele>
        <time>2021-06-03T07:47:40Z</time>
      </trkpt>
      <trkpt lat="41.8203" lon="9.14051">
        <ele>1494.6</ele>
        <time>2021-06-03T07:47:41Z</time>
      </trkpt>
      <trkpt lat="41.82031" lon="9.14052">
        <ele>1494.6</ele>
        <time>2021-06-03T07:47:42Z</time>
      </trkpt>
      <trkpt lat="41.82032" lon="9.14053">
        <ele>1494.8</ele>
        <time>2021-06-03T07:47:43Z</time>
      </trkpt>
      <trkpt lat="41.82033" lon="9.14053">
        <ele>1494.6</ele>
        <time>2021-06-03T07:47:44Z</time>
      </trkpt>
      <trkpt lat="41.82034" lon="9.14054">
        <ele>1494.6</ele>
        <time>2021-06-03T07:47:45Z</time>
      </trkpt>
      <trkpt lat="41.82035" lon="9.14056">
        <ele>1494.6</ele>
        <time>2021-06-03T07:47:46Z</time>
      </trkpt>
      <trkpt lat="41.82036" lon="9.14057">
        <ele>1494.8</ele>
        <time>2021-06-03T07:47:47Z</time>
      </trkpt>
      <trkpt lat="41.82038" lon="9.14058">
        <ele>1495.2</ele>
        <time>2021-06-03T07:47:48Z</time>
      </trkpt>
      <trkpt lat="41.82039" lon="9.1406">
        <ele>1495.2</ele>
        <time>2021-06-03T07:47:49Z</time>
      </trkpt>
      <trkpt lat="41.8204" lon="9.14061">
        <ele>1495.2</ele>
        <time>2021-06-03T07:47:50Z</time>
      </trkpt>
      <trkpt lat="41.82041" lon="9.14062">
        <ele>1495.2</ele>
        <time>2021-06-03T07:47:51Z</time>
      </trkpt>
      <trkpt lat="41.82042" lon="9.14064">
        <ele>1495.2</ele>
        <time>2021-06-03T07:47:52Z</time>
      </trkpt>
      <trkpt lat="41.82043" lon="9.14065">
        <ele>1495.2</ele>
        <time>2021-06-03T07:47:53Z</time>
      </trkpt>
      <trkpt lat="41.82044" lon="9.14066">
        <ele>1495.2</ele>
        <time>2021-06-03T07:47:54Z</time>
      </trkpt>
      <trkpt lat="41.82045" lon="9.14067">
        <ele>1495.2</ele>
        <time>2021-06-03T07:47:55Z</time>
      </trkpt>
      <trkpt lat="41.82046" lon="9.14068">
        <ele>1495</ele>
        <time>2021-06-03T07:47:56Z</time>
      </trkpt>
      <trkpt lat="41.82048" lon="9.14069">
        <ele>1495</ele>
        <time>2021-06-03T07:47:57Z</time>
      </trkpt>
      <trkpt lat="41.82049" lon="9.1407">
        <ele>1495</ele>
        <time>2021-06-03T07:47:58Z</time>
      </trkpt>
      <trkpt lat="41.8205" lon="9.14072">
        <ele>1495</ele>
        <time>2021-06-03T07:47:59Z</time>
      </trkpt>
      <trkpt lat="41.82052" lon="9.14073">
        <ele>1495.4</ele>
        <time>2021-06-03T07:48:00Z</time>
      </trkpt>
      <trkpt lat="41.82054" lon="9.14074">
        <ele>1495.4</ele>
        <time>2021-06-03T07:48:01Z</time>
      </trkpt>
      <trkpt lat="41.82055" lon="9.14075">
        <ele>1495.4</ele>
        <time>2021-06-03T07:48:02Z</time>
      </trkpt>
      <trkpt lat="41.82057" lon="9.14077">
        <ele>1495.2</ele>
        <time>2021-06-03T07:48:03Z</time>
      </trkpt>
      <trkpt lat="41.82058" lon="9.14078">
        <ele>1495.2</ele>
        <time>2021-06-03T07:48:04Z</time>
      </trkpt>
      <trkpt lat="41.8206" lon="9.1408">
        <ele>1495.2</ele>
        <time>2021-06-03T07:48:05Z</time>
      </trkpt>
      <trkpt lat="41.82061" lon="9.14081">
        <ele>1495.2</ele>
        <time>2021-06-03T07:48:06Z</time>
      </trkpt>
      <trkpt lat="41.82063" lon="9.14082">
        <ele>1495.2</ele>
        <time>2021-06-03T07:48:07Z</time>
      </trkpt>
      <trkpt lat="41.82064" lon="9.14083">
        <ele>1495</ele>
        <time>2021-06-03T07:48:08Z</time>
      </trkpt>
      <trkpt lat="41.82065" lon="9.14085">
        <ele>1495</ele>
        <time>2021-06-03T07:48:09Z</time>
      </trkpt>
      <trkpt lat="41.82066" lon="9.14087">
        <ele>1495</ele>
        <time>2021-06-03T07:48:10Z</time>
      </trkpt>
      <trkpt lat="41.82067" lon="9.14088">
        <ele>1495</ele>
        <time>2021-06-03T07:48:11Z</time>
      </trkpt>
      <trkpt lat="41.82069" lon="9.1409">
        <ele>1494.4</ele>
        <time>2021-06-03T07:48:12Z</time>
      </trkpt>
      <trkpt lat="41.8207" lon="9.14091">
        <ele>1494.4</ele>
        <time>2021-06-03T07:48:13Z</time>
      </trkpt>
      <trkpt lat="41.82072" lon="9.14093">
        <ele>1494.4</ele>
        <time>2021-06-03T07:48:14Z</time>
      </trkpt>
      <trkpt lat="41.82073" lon="9.14095">
        <ele>1494.6</ele>
        <time>2021-06-03T07:48:15Z</time>
      </trkpt>
      <trkpt lat="41.82074" lon="9.14098">
        <ele>1494.6</ele>
        <time>2021-06-03T07:48:16Z</time>
      </trkpt>
      <trkpt lat="41.82076" lon="9.14099">
        <ele>1494.6</ele>
        <time>2021-06-03T07:48:17Z</time>
      </trkpt>
      <trkpt lat="41.82078" lon="9.14101">
        <ele>1494.6</ele>
        <time>2021-06-03T07:48:18Z</time>
      </trkpt>
      <trkpt lat="41.82079" lon="9.14103">
        <ele>1494.6</ele>
        <time>2021-06-03T07:48:19Z</time>
      </trkpt>
      <trkpt lat="41.82081" lon="9.14105">
        <ele>1494.4</ele>
        <time>2021-06-03T07:48:20Z</time>
      </trkpt>
      <trkpt lat="41.82082" lon="9.14107">
        <ele>1494.4</ele>
        <time>2021-06-03T07:48:21Z</time>
      </trkpt>
      <trkpt lat="41.82084" lon="9.14109">
        <ele>1494.4</ele>
        <time>2021-06-03T07:48:22Z</time>
      </trkpt>
      <trkpt lat="41.82085" lon="9.14111">
        <ele>1494.2</ele>
        <time>2021-06-03T07:48:23Z</time>
      </trkpt>
      <trkpt lat="41.82087" lon="9.14113">
        <ele>1494.6</ele>
        <time>2021-06-03T07:48:24Z</time>
      </trkpt>
      <trkpt lat="41.82088" lon="9.14114">
        <ele>1494.6</ele>
        <time>2021-06-03T07:48:25Z</time>
      </trkpt>
      <trkpt lat="41.82091" lon="9.14116">
        <ele>1494.6</ele>
        <time>2021-06-03T07:48:26Z</time>
      </trkpt>
      <trkpt lat="41.82093" lon="9.14118">
        <ele>1493.6</ele>
        <time>2021-06-03T07:48:27Z</time>
      </trkpt>
      <trkpt lat="41.82094" lon="9.14121">
        <ele>1493.8</ele>
        <time>2021-06-03T07:48:28Z</time>
      </trkpt>
      <trkpt lat="41.82096" lon="9.14124">
        <ele>1493.8</ele>
        <time>2021-06-03T07:48:29Z</time>
      </trkpt>
      <trkpt lat="41.82098" lon="9.14126">
        <ele>1493.8</ele>
        <time>2021-06-03T07:48:30Z</time>
      </trkpt>
      <trkpt lat="41.82099" lon="9.14127">
        <ele>1493.8</ele>
        <time>2021-06-03T07:48:31Z</time>
      </trkpt>
      <trkpt lat="41.82101" lon="9.14128">
        <ele>1493.6</ele>
        <time>2021-06-03T07:48:32Z</time>
      </trkpt>
      <trkpt lat="41.82102" lon="9.1413">
        <ele>1493.6</ele>
        <time>2021-06-03T07:48:33Z</time>
      </trkpt>
      <trkpt lat="41.82104" lon="9.14132">
        <ele>1493.6</ele>
        <time>2021-06-03T07:48:34Z</time>
      </trkpt>
      <trkpt lat="41.82106" lon="9.14134">
        <ele>1493.4</ele>
        <time>2021-06-03T07:48:35Z</time>
      </trkpt>
      <trkpt lat="41.82108" lon="9.14136">
        <ele>1492.6</ele>
        <time>2021-06-03T07:48:36Z</time>
      </trkpt>
      <trkpt lat="41.82109" lon="9.14139">
        <ele>1492.6</ele>
        <time>2021-06-03T07:48:37Z</time>
      </trkpt>
      <trkpt lat="41.82111" lon="9.14142">
        <ele>1492.6</ele>
        <time>2021-06-03T07:48:38Z</time>
      </trkpt>
      <trkpt lat="41.82113" lon="9.14145">
        <ele>1491.8</ele>
        <time>2021-06-03T07:48:39Z</time>
      </trkpt>
      <trkpt lat="41.82116" lon="9.14148">
        <ele>1491.2</ele>
        <time>2021-06-03T07:48:40Z</time>
      </trkpt>
      <trkpt lat="41.82118" lon="9.14151">
        <ele>1491.2</ele>
        <time>2021-06-03T07:48:41Z</time>
      </trkpt>
      <trkpt lat="41.82121" lon="9.14154">
        <ele>1491.2</ele>
        <time>2021-06-03T07:48:42Z</time>
      </trkpt>
      <trkpt lat="41.82124" lon="9.14158">
        <ele>1490.6</ele>
        <time>2021-06-03T07:48:43Z</time>
      </trkpt>
      <trkpt lat="41.82126" lon="9.14162">
        <ele>1490.6</ele>
        <time>2021-06-03T07:48:44Z</time>
      </trkpt>
      <trkpt lat="41.82129" lon="9.14165">
        <ele>1490.6</ele>
        <time>2021-06-03T07:48:45Z</time>
      </trkpt>
      <trkpt lat="41.82131" lon="9.14169">
        <ele>1490.6</ele>
        <time>2021-06-03T07:48:46Z</time>
      </trkpt>
      <trkpt lat="41.82134" lon="9.14173">
        <ele>1491.6</ele>
        <time>2021-06-03T07:48:47Z</time>
      </trkpt>
      <trkpt lat="41.82137" lon="9.14176">
        <ele>1491.6</ele>
        <time>2021-06-03T07:48:48Z</time>
      </trkpt>
      <trkpt lat="41.8214" lon="9.14179">
        <ele>1491.6</ele>
        <time>2021-06-03T07:48:49Z</time>
      </trkpt>
      <trkpt lat="41.82142" lon="9.14181">
        <ele>1491.6</ele>
        <time>2021-06-03T07:48:50Z</time>
      </trkpt>
      <trkpt lat="41.82146" lon="9.14182">
        <ele>1491.4</ele>
        <time>2021-06-03T07:48:51Z</time>
      </trkpt>
      <trkpt lat="41.82149" lon="9.14182">
        <ele>1491.4</ele>
        <time>2021-06-03T07:48:52Z</time>
      </trkpt>
      <trkpt lat="41.82152" lon="9.14182">
        <ele>1491.4</ele>
        <time>2021-06-03T07:48:53Z</time>
      </trkpt>
      <trkpt lat="41.82156" lon="9.14182">
        <ele>1491.4</ele>
        <time>2021-06-03T07:48:54Z</time>
      </trkpt>
      <trkpt lat="41.82159" lon="9.14181">
        <ele>1491.6</ele>
        <time>2021-06-03T07:48:55Z</time>
      </trkpt>
      <trkpt lat="41.82162" lon="9.1418">
        <ele>1491.6</ele>
        <time>2021-06-03T07:48:56Z</time>
      </trkpt>
      <trkpt lat="41.82165" lon="9.14179">
        <ele>1491.6</ele>
        <time>2021-06-03T07:48:57Z</time>
      </trkpt>
      <trkpt lat="41.82168" lon="9.14178">
        <ele>1491.6</ele>
        <time>2021-06-03T07:48:58Z</time>
      </trkpt>
      <trkpt lat="41.82171" lon="9.14178">
        <ele>1492.4</ele>
        <time>2021-06-03T07:48:59Z</time>
      </trkpt>
      <trkpt lat="41.82173" lon="9.14177">
        <ele>1492.2</ele>
        <time>2021-06-03T07:49:00Z</time>
      </trkpt>
      <trkpt lat="41.82176" lon="9.14176">
        <ele>1492.2</ele>
        <time>2021-06-03T07:49:01Z</time>
      </trkpt>
      <trkpt lat="41.82179" lon="9.14175">
        <ele>1492.2</ele>
        <time>2021-06-03T07:49:02Z</time>
      </trkpt>
      <trkpt lat="41.82181" lon="9.14175">
        <ele>1492.4</ele>
        <time>2021-06-03T07:49:03Z</time>
      </trkpt>
      <trkpt lat="41.82184" lon="9.14175">
        <ele>1492.6</ele>
        <time>2021-06-03T07:49:04Z</time>
      </trkpt>
      <trkpt lat="41.82186" lon="9.14175">
        <ele>1492.6</ele>
        <time>2021-06-03T07:49:05Z</time>
      </trkpt>
      <trkpt lat="41.82189" lon="9.14175">
        <ele>1492.6</ele>
        <time>2021-06-03T07:49:06Z</time>
      </trkpt>
      <trkpt lat="41.82191" lon="9.14175">
        <ele>1492.6</ele>
        <time>2021-06-03T07:49:07Z</time>
      </trkpt>
      <trkpt lat="41.82194" lon="9.14176">
        <ele>1493</ele>
        <time>2021-06-03T07:49:08Z</time>
      </trkpt>
      <trkpt lat="41.82196" lon="9.14177">
        <ele>1493</ele>
        <time>2021-06-03T07:49:09Z</time>
      </trkpt>
      <trkpt lat="41.82198" lon="9.14178">
        <ele>1493</ele>
        <time>2021-06-03T07:49:10Z</time>
      </trkpt>
      <trkpt lat="41.82201" lon="9.14179">
        <ele>1493.6</ele>
        <time>2021-06-03T07:49:11Z</time>
      </trkpt>
      <trkpt lat="41.82203" lon="9.1418">
        <ele>1493.6</ele>
        <time>2021-06-03T07:49:12Z</time>
      </trkpt>
      <trkpt lat="41.82205" lon="9.14181">
        <ele>1493.6</ele>
        <time>2021-06-03T07:49:13Z</time>
      </trkpt>
      <trkpt lat="41.82207" lon="9.14183">
        <ele>1493.6</ele>
        <time>2021-06-03T07:49:14Z</time>
      </trkpt>
      <trkpt lat="41.82209" lon="9.14184">
        <ele>1493.6</ele>
        <time>2021-06-03T07:49:15Z</time>
      </trkpt>
      <trkpt lat="41.82211" lon="9.14184">
        <ele>1493.8</ele>
        <time>2021-06-03T07:49:16Z</time>
      </trkpt>
      <trkpt lat="41.82213" lon="9.14185">
        <ele>1493.8</ele>
        <time>2021-06-03T07:49:17Z</time>
      </trkpt>
      <trkpt lat="41.82214" lon="9.14186">
        <ele>1493.8</ele>
        <time>2021-06-03T07:49:18Z</time>
      </trkpt>
      <trkpt lat="41.82216" lon="9.14187">
        <ele>1493.8</ele>
        <time>2021-06-03T07:49:19Z</time>
      </trkpt>
      <trkpt lat="41.82218" lon="9.14188">
        <ele>1494.4</ele>
        <time>2021-06-03T07:49:20Z</time>
      </trkpt>
      <trkpt lat="41.8222" lon="9.14189">
        <ele>1494.4</ele>
        <time>2021-06-03T07:49:21Z</time>
      </trkpt>
      <trkpt lat="41.82222" lon="9.14189">
        <ele>1494.4</ele>
        <time>2021-06-03T07:49:22Z</time>
      </trkpt>
      <trkpt lat="41.82223" lon="9.1419">
        <ele>1494.8</ele>
        <time>2021-06-03T07:49:23Z</time>
      </trkpt>
      <trkpt lat="41.82225" lon="9.1419">
        <ele>1494.8</ele>
        <time>2021-06-03T07:49:24Z</time>
      </trkpt>
      <trkpt lat="41.82227" lon="9.1419">
        <ele>1494.8</ele>
        <time>2021-06-03T07:49:25Z</time>
      </trkpt>
      <trkpt lat="41.82229" lon="9.14191">
        <ele>1494.8</ele>
        <time>2021-06-03T07:49:26Z</time>
      </trkpt>
      <trkpt lat="41.82231" lon="9.14191">
        <ele>1494.4</ele>
        <time>2021-06-03T07:49:27Z</time>
      </trkpt>
      <trkpt lat="41.82232" lon="9.14191">
        <ele>1495</ele>
        <time>2021-06-03T07:49:28Z</time>
      </trkpt>
      <trkpt lat="41.82234" lon="9.14191">
        <ele>1495</ele>
        <time>2021-06-03T07:49:29Z</time>
      </trkpt>
      <trkpt lat="41.82236" lon="9.14192">
        <ele>1495</ele>
        <time>2021-06-03T07:49:30Z</time>
      </trkpt>
      <trkpt lat="41.82238" lon="9.14192">
        <ele>1496</ele>
        <time>2021-06-03T07:49:31Z</time>
      </trkpt>
      <trkpt lat="41.82239" lon="9.14192">
        <ele>1495.8</ele>
        <time>2021-06-03T07:49:32Z</time>
      </trkpt>
      <trkpt lat="41.82241" lon="9.14192">
        <ele>1495.8</ele>
        <time>2021-06-03T07:49:33Z</time>
      </trkpt>
      <trkpt lat="41.82243" lon="9.14192">
        <ele>1495.8</ele>
        <time>2021-06-03T07:49:34Z</time>
      </trkpt>
      <trkpt lat="41.82245" lon="9.14192">
        <ele>1495.8</ele>
        <time>2021-06-03T07:49:35Z</time>
      </trkpt>
      <trkpt lat="41.82246" lon="9.14192">
        <ele>1496.2</ele>
        <time>2021-06-03T07:49:36Z</time>
      </trkpt>
      <trkpt lat="41.82248" lon="9.14192">
        <ele>1496.2</ele>
        <time>2021-06-03T07:49:37Z</time>
      </trkpt>
      <trkpt lat="41.8225" lon="9.14192">
        <ele>1496.2</ele>
        <time>2021-06-03T07:49:38Z</time>
      </trkpt>
      <trkpt lat="41.82252" lon="9.14191">
        <ele>1496.2</ele>
        <time>2021-06-03T07:49:39Z</time>
      </trkpt>
      <trkpt lat="41.82253" lon="9.14191">
        <ele>1497</ele>
        <time>2021-06-03T07:49:40Z</time>
      </trkpt>
      <trkpt lat="41.82254" lon="9.14192">
        <ele>1497</ele>
        <time>2021-06-03T07:49:41Z</time>
      </trkpt>
      <trkpt lat="41.82256" lon="9.14192">
        <ele>1497</ele>
        <time>2021-06-03T07:49:42Z</time>
      </trkpt>
      <trkpt lat="41.82257" lon="9.14192">
        <ele>1497</ele>
        <time>2021-06-03T07:49:43Z</time>
      </trkpt>
      <trkpt lat="41.82259" lon="9.14192">
        <ele>1496.8</ele>
        <time>2021-06-03T07:49:44Z</time>
      </trkpt>
      <trkpt lat="41.8226" lon="9.14192">
        <ele>1496.8</ele>
        <time>2021-06-03T07:49:45Z</time>
      </trkpt>
      <trkpt lat="41.82262" lon="9.14193">
        <ele>1496.8</ele>
        <time>2021-06-03T07:49:46Z</time>
      </trkpt>
      <trkpt lat="41.82263" lon="9.14193">
        <ele>1497.8</ele>
        <time>2021-06-03T07:49:47Z</time>
      </trkpt>
      <trkpt lat="41.82265" lon="9.14193">
        <ele>1498</ele>
        <time>2021-06-03T07:49:48Z</time>
      </trkpt>
      <trkpt lat="41.82266" lon="9.14194">
        <ele>1498</ele>
        <time>2021-06-03T07:49:49Z</time>
      </trkpt>
      <trkpt lat="41.82267" lon="9.14194">
        <ele>1498</ele>
        <time>2021-06-03T07:49:50Z</time>
      </trkpt>
      <trkpt lat="41.82269" lon="9.14194">
        <ele>1498</ele>
        <time>2021-06-03T07:49:51Z</time>
      </trkpt>
      <trkpt lat="41.8227" lon="9.14194">
        <ele>1498.4</ele>
        <time>2021-06-03T07:49:52Z</time>
      </trkpt>
      <trkpt lat="41.82272" lon="9.14194">
        <ele>1498.4</ele>
        <time>2021-06-03T07:49:53Z</time>
      </trkpt>
      <trkpt lat="41.82273" lon="9.14194">
        <ele>1498.4</ele>
        <time>2021-06-03T07:49:54Z</time>
      </trkpt>
      <trkpt lat="41.82274" lon="9.14193">
        <ele>1498.4</ele>
        <time>2021-06-03T07:49:55Z</time>
      </trkpt>
      <trkpt lat="41.82276" lon="9.14193">
        <ele>1498.2</ele>
        <time>2021-06-03T07:49:56Z</time>
      </trkpt>
      <trkpt lat="41.82277" lon="9.14193">
        <ele>1498.2</ele>
        <time>2021-06-03T07:49:57Z</time>
      </trkpt>
      <trkpt lat="41.82279" lon="9.14193">
        <ele>1498.2</ele>
        <time>2021-06-03T07:49:58Z</time>
      </trkpt>
      <trkpt lat="41.8228" lon="9.14193">
        <ele>1498.4</ele>
        <time>2021-06-03T07:49:59Z</time>
      </trkpt>
      <trkpt lat="41.82281" lon="9.14193">
        <ele>1498.8</ele>
        <time>2021-06-03T07:50:00Z</time>
      </trkpt>
      <trkpt lat="41.82283" lon="9.14193">
        <ele>1498.8</ele>
        <time>2021-06-03T07:50:01Z</time>
      </trkpt>
      <trkpt lat="41.82284" lon="9.14192">
        <ele>1498.8</ele>
        <time>2021-06-03T07:50:02Z</time>
      </trkpt>
      <trkpt lat="41.82286" lon="9.14192">
        <ele>1499</ele>
        <time>2021-06-03T07:50:03Z</time>
      </trkpt>
      <trkpt lat="41.82287" lon="9.14191">
        <ele>1499</ele>
        <time>2021-06-03T07:50:04Z</time>
      </trkpt>
      <trkpt lat="41.82288" lon="9.14191">
        <ele>1499</ele>
        <time>2021-06-03T07:50:05Z</time>
      </trkpt>
      <trkpt lat="41.8229" lon="9.1419">
        <ele>1499</ele>
        <time>2021-06-03T07:50:06Z</time>
      </trkpt>
      <trkpt lat="41.82291" lon="9.1419">
        <ele>1499.2</ele>
        <time>2021-06-03T07:50:07Z</time>
      </trkpt>
      <trkpt lat="41.82293" lon="9.14189">
        <ele>1499.4</ele>
        <time>2021-06-03T07:50:08Z</time>
      </trkpt>
      <trkpt lat="41.82294" lon="9.14188">
        <ele>1499.4</ele>
        <time>2021-06-03T07:50:09Z</time>
      </trkpt>
      <trkpt lat="41.82295" lon="9.14188">
        <ele>1499.4</ele>
        <time>2021-06-03T07:50:10Z</time>
      </trkpt>
      <trkpt lat="41.82297" lon="9.14188">
        <ele>1499.8</ele>
        <time>2021-06-03T07:50:11Z</time>
      </trkpt>
      <trkpt lat="41.82298" lon="9.14187">
        <ele>1499.8</ele>
        <time>2021-06-03T07:50:12Z</time>
      </trkpt>
      <trkpt lat="41.82299" lon="9.14187">
        <ele>1499.8</ele>
        <time>2021-06-03T07:50:13Z</time>
      </trkpt>
      <trkpt lat="41.82301" lon="9.14187">
        <ele>1499.8</ele>
        <time>2021-06-03T07:50:14Z</time>
      </trkpt>
      <trkpt lat="41.82302" lon="9.14187">
        <ele>1499.6</ele>
        <time>2021-06-03T07:50:15Z</time>
      </trkpt>
      <trkpt lat="41.82304" lon="9.14187">
        <ele>1500</ele>
        <time>2021-06-03T07:50:16Z</time>
      </trkpt>
      <trkpt lat="41.82305" lon="9.14188">
        <ele>1500</ele>
        <time>2021-06-03T07:50:17Z</time>
      </trkpt>
      <trkpt lat="41.82307" lon="9.14188">
        <ele>1500</ele>
        <time>2021-06-03T07:50:18Z</time>
      </trkpt>
      <trkpt lat="41.82308" lon="9.14189">
        <ele>1500.2</ele>
        <time>2021-06-03T07:50:19Z</time>
      </trkpt>
      <trkpt lat="41.82309" lon="9.14189">
        <ele>1500.4</ele>
        <time>2021-06-03T07:50:20Z</time>
      </trkpt>
      <trkpt lat="41.82311" lon="9.1419">
        <ele>1500.4</ele>
        <time>2021-06-03T07:50:21Z</time>
      </trkpt>
      <trkpt lat="41.82312" lon="9.14191">
        <ele>1500.4</ele>
        <time>2021-06-03T07:50:22Z</time>
      </trkpt>
      <trkpt lat="41.82313" lon="9.14191">
        <ele>1500.8</ele>
        <time>2021-06-03T07:50:23Z</time>
      </trkpt>
      <trkpt lat="41.82314" lon="9.14192">
        <ele>1501.2</ele>
        <time>2021-06-03T07:50:24Z</time>
      </trkpt>
      <trkpt lat="41.82315" lon="9.14193">
        <ele>1501.2</ele>
        <time>2021-06-03T07:50:25Z</time>
      </trkpt>
      <trkpt lat="41.82317" lon="9.14193">
        <ele>1501.2</ele>
        <time>2021-06-03T07:50:26Z</time>
      </trkpt>
      <trkpt lat="41.82318" lon="9.14193">
        <ele>1500.8</ele>
        <time>2021-06-03T07:50:27Z</time>
      </trkpt>
      <trkpt lat="41.82319" lon="9.14193">
        <ele>1500.8</ele>
        <time>2021-06-03T07:50:28Z</time>
      </trkpt>
      <trkpt lat="41.8232" lon="9.14193">
        <ele>1500.8</ele>
        <time>2021-06-03T07:50:29Z</time>
      </trkpt>
      <trkpt lat="41.82322" lon="9.14192">
        <ele>1500.8</ele>
        <time>2021-06-03T07:50:30Z</time>
      </trkpt>
      <trkpt lat="41.82323" lon="9.14192">
        <ele>1501</ele>
        <time>2021-06-03T07:50:31Z</time>
      </trkpt>
      <trkpt lat="41.82324" lon="9.14192">
        <ele>1501.4</ele>
        <time>2021-06-03T07:50:32Z</time>
      </trkpt>
      <trkpt lat="41.82326" lon="9.14192">
        <ele>1501.4</ele>
        <time>2021-06-03T07:50:33Z</time>
      </trkpt>
      <trkpt lat="41.82327" lon="9.14192">
        <ele>1501.4</ele>
        <time>2021-06-03T07:50:34Z</time>
      </trkpt>
      <trkpt lat="41.82328" lon="9.14191">
        <ele>1501.4</ele>
        <time>2021-06-03T07:50:35Z</time>
      </trkpt>
      <trkpt lat="41.8233" lon="9.14191">
        <ele>1501.2</ele>
        <time>2021-06-03T07:50:36Z</time>
      </trkpt>
      <trkpt lat="41.82332" lon="9.14191">
        <ele>1501.2</ele>
        <time>2021-06-03T07:50:37Z</time>
      </trkpt>
      <trkpt lat="41.82333" lon="9.14191">
        <ele>1501.2</ele>
        <time>2021-06-03T07:50:38Z</time>
      </trkpt>
      <trkpt lat="41.82334" lon="9.14191">
        <ele>1501.6</ele>
        <time>2021-06-03T07:50:39Z</time>
      </trkpt>
      <trkpt lat="41.82336" lon="9.1419">
        <ele>1501.4</ele>
        <time>2021-06-03T07:50:40Z</time>
      </trkpt>
      <trkpt lat="41.82338" lon="9.1419">
        <ele>1501.4</ele>
        <time>2021-06-03T07:50:41Z</time>
      </trkpt>
      <trkpt lat="41.82339" lon="9.1419">
        <ele>1501.4</ele>
        <time>2021-06-03T07:50:42Z</time>
      </trkpt>
      <trkpt lat="41.82341" lon="9.14189">
        <ele>1501.4</ele>
        <time>2021-06-03T07:50:43Z</time>
      </trkpt>
      <trkpt lat="41.82343" lon="9.14189">
        <ele>1501.2</ele>
        <time>2021-06-03T07:50:44Z</time>
      </trkpt>
      <trkpt lat="41.82345" lon="9.1419">
        <ele>1501.2</ele>
        <time>2021-06-03T07:50:45Z</time>
      </trkpt>
      <trkpt lat="41.82347" lon="9.1419">
        <ele>1501.2</ele>
        <time>2021-06-03T07:50:46Z</time>
      </trkpt>
      <trkpt lat="41.82349" lon="9.14191">
        <ele>1501.4</ele>
        <time>2021-06-03T07:50:47Z</time>
      </trkpt>
      <trkpt lat="41.8235" lon="9.14192">
        <ele>1500.8</ele>
        <time>2021-06-03T07:50:48Z</time>
      </trkpt>
      <trkpt lat="41.82352" lon="9.14193">
        <ele>1500.8</ele>
        <time>2021-06-03T07:50:49Z</time>
      </trkpt>
      <trkpt lat="41.82354" lon="9.14194">
        <ele>1500.8</ele>
        <time>2021-06-03T07:50:50Z</time>
      </trkpt>
      <trkpt lat="41.82355" lon="9.14195">
        <ele>1501.4</ele>
        <time>2021-06-03T07:50:51Z</time>
      </trkpt>
      <trkpt lat="41.82356" lon="9.14196">
        <ele>1500.6</ele>
        <time>2021-06-03T07:50:52Z</time>
      </trkpt>
      <trkpt lat="41.82358" lon="9.14197">
        <ele>1500.6</ele>
        <time>2021-06-03T07:50:53Z</time>
      </trkpt>
      <trkpt lat="41.82359" lon="9.14198">
        <ele>1500.6</ele>
        <time>2021-06-03T07:50:54Z</time>
      </trkpt>
      <trkpt lat="41.8236" lon="9.14199">
        <ele>1500.6</ele>
        <time>2021-06-03T07:50:55Z</time>
      </trkpt>
      <trkpt lat="41.82362" lon="9.142">
        <ele>1501</ele>
        <time>2021-06-03T07:50:56Z</time>
      </trkpt>
      <trkpt lat="41.82364" lon="9.14201">
        <ele>1501</ele>
        <time>2021-06-03T07:50:57Z</time>
      </trkpt>
      <trkpt lat="41.82365" lon="9.14202">
        <ele>1501</ele>
        <time>2021-06-03T07:50:58Z</time>
      </trkpt>
      <trkpt lat="41.82367" lon="9.14204">
        <ele>1500</ele>
        <time>2021-06-03T07:50:59Z</time>
      </trkpt>
      <trkpt lat="41.82369" lon="9.14206">
        <ele>1498.4</ele>
        <time>2021-06-03T07:51:00Z</time>
      </trkpt>
      <trkpt lat="41.8237" lon="9.1421">
        <ele>1498.4</ele>
        <time>2021-06-03T07:51:01Z</time>
      </trkpt>
      <trkpt lat="41.82371" lon="9.14214">
        <ele>1498.4</ele>
        <time>2021-06-03T07:51:02Z</time>
      </trkpt>
      <trkpt lat="41.82373" lon="9.14218">
        <ele>1498.4</ele>
        <time>2021-06-03T07:51:03Z</time>
      </trkpt>
      <trkpt lat="41.82374" lon="9.14223">
        <ele>1497</ele>
        <time>2021-06-03T07:51:04Z</time>
      </trkpt>
      <trkpt lat="41.82376" lon="9.14229">
        <ele>1497</ele>
        <time>2021-06-03T07:51:05Z</time>
      </trkpt>
      <trkpt lat="41.82377" lon="9.14235">
        <ele>1497</ele>
        <time>2021-06-03T07:51:06Z</time>
      </trkpt>
      <trkpt lat="41.82379" lon="9.14241">
        <ele>1497</ele>
        <time>2021-06-03T07:51:07Z</time>
      </trkpt>
      <trkpt lat="41.8238" lon="9.14248">
        <ele>1495.4</ele>
        <time>2021-06-03T07:51:08Z</time>
      </trkpt>
      <trkpt lat="41.82382" lon="9.14255">
        <ele>1495.4</ele>
        <time>2021-06-03T07:51:09Z</time>
      </trkpt>
      <trkpt lat="41.82384" lon="9.14261">
        <ele>1495.4</ele>
        <time>2021-06-03T07:51:10Z</time>
      </trkpt>
      <trkpt lat="41.82386" lon="9.14267">
        <ele>1495.4</ele>
        <time>2021-06-03T07:51:11Z</time>
      </trkpt>
      <trkpt lat="41.82387" lon="9.14272">
        <ele>1496</ele>
        <time>2021-06-03T07:51:12Z</time>
      </trkpt>
      <trkpt lat="41.82389" lon="9.14276">
        <ele>1496</ele>
        <time>2021-06-03T07:51:13Z</time>
      </trkpt>
      <trkpt lat="41.8239" lon="9.14281">
        <ele>1496</ele>
        <time>2021-06-03T07:51:14Z</time>
      </trkpt>
      <trkpt lat="41.82391" lon="9.14284">
        <ele>1496</ele>
        <time>2021-06-03T07:51:15Z</time>
      </trkpt>
      <trkpt lat="41.82393" lon="9.14287">
        <ele>1496.6</ele>
        <time>2021-06-03T07:51:16Z</time>
      </trkpt>
      <trkpt lat="41.82393" lon="9.14289">
        <ele>1496.6</ele>
        <time>2021-06-03T07:51:17Z</time>
      </trkpt>
      <trkpt lat="41.82394" lon="9.14291">
        <ele>1496.6</ele>
        <time>2021-06-03T07:51:18Z</time>
      </trkpt>
      <trkpt lat="41.82395" lon="9.14292">
        <ele>1496.6</ele>
        <time>2021-06-03T07:51:19Z</time>
      </trkpt>
      <trkpt lat="41.82396" lon="9.14294">
        <ele>1496.8</ele>
        <time>2021-06-03T07:51:20Z</time>
      </trkpt>
      <trkpt lat="41.82397" lon="9.14296">
        <ele>1496.8</ele>
        <time>2021-06-03T07:51:21Z</time>
      </trkpt>
      <trkpt lat="41.82398" lon="9.14297">
        <ele>1496.8</ele>
        <time>2021-06-03T07:51:22Z</time>
      </trkpt>
      <trkpt lat="41.82398" lon="9.14299">
        <ele>1496.8</ele>
        <time>2021-06-03T07:51:23Z</time>
      </trkpt>
      <trkpt lat="41.82399" lon="9.14301">
        <ele>1496.6</ele>
        <time>2021-06-03T07:51:24Z</time>
      </trkpt>
      <trkpt lat="41.824" lon="9.14303">
        <ele>1496.6</ele>
        <time>2021-06-03T07:51:25Z</time>
      </trkpt>
      <trkpt lat="41.82402" lon="9.14305">
        <ele>1496.6</ele>
        <time>2021-06-03T07:51:26Z</time>
      </trkpt>
      <trkpt lat="41.82403" lon="9.14306">
        <ele>1497.2</ele>
        <time>2021-06-03T07:51:27Z</time>
      </trkpt>
      <trkpt lat="41.82404" lon="9.14307">
        <ele>1497</ele>
        <time>2021-06-03T07:51:28Z</time>
      </trkpt>
      <trkpt lat="41.82405" lon="9.14309">
        <ele>1497</ele>
        <time>2021-06-03T07:51:29Z</time>
      </trkpt>
      <trkpt lat="41.82407" lon="9.1431">
        <ele>1497</ele>
        <time>2021-06-03T07:51:30Z</time>
      </trkpt>
      <trkpt lat="41.82408" lon="9.14312">
        <ele>1497.2</ele>
        <time>2021-06-03T07:51:31Z</time>
      </trkpt>
      <trkpt lat="41.82409" lon="9.14314">
        <ele>1497.6</ele>
        <time>2021-06-03T07:51:32Z</time>
      </trkpt>
      <trkpt lat="41.82411" lon="9.14315">
        <ele>1497.6</ele>
        <time>2021-06-03T07:51:33Z</time>
      </trkpt>
      <trkpt lat="41.82412" lon="9.14317">
        <ele>1497.6</ele>
        <time>2021-06-03T07:51:34Z</time>
      </trkpt>
      <trkpt lat="41.82413" lon="9.14318">
        <ele>1498.4</ele>
        <time>2021-06-03T07:51:35Z</time>
      </trkpt>
      <trkpt lat="41.82414" lon="9.1432">
        <ele>1498.2</ele>
        <time>2021-06-03T07:51:36Z</time>
      </trkpt>
      <trkpt lat="41.82415" lon="9.14321">
        <ele>1498.2</ele>
        <time>2021-06-03T07:51:37Z</time>
      </trkpt>
      <trkpt lat="41.82416" lon="9.14323">
        <ele>1498.2</ele>
        <time>2021-06-03T07:51:38Z</time>
      </trkpt>
      <trkpt lat="41.82417" lon="9.14324">
        <ele>1498.6</ele>
        <time>2021-06-03T07:51:39Z</time>
      </trkpt>
      <trkpt lat="41.82419" lon="9.14325">
        <ele>1498.8</ele>
        <time>2021-06-03T07:51:40Z</time>
      </trkpt>
      <trkpt lat="41.8242" lon="9.14327">
        <ele>1498.8</ele>
        <time>2021-06-03T07:51:41Z</time>
      </trkpt>
      <trkpt lat="41.82421" lon="9.14328">
        <ele>1498.8</ele>
        <time>2021-06-03T07:51:42Z</time>
      </trkpt>
      <trkpt lat="41.82422" lon="9.14329">
        <ele>1498.8</ele>
        <time>2021-06-03T07:51:43Z</time>
      </trkpt>
      <trkpt lat="41.82423" lon="9.1433">
        <ele>1499.2</ele>
        <time>2021-06-03T07:51:44Z</time>
      </trkpt>
      <trkpt lat="41.82424" lon="9.14332">
        <ele>1499.2</ele>
        <time>2021-06-03T07:51:45Z</time>
      </trkpt>
      <trkpt lat="41.82425" lon="9.14333">
        <ele>1499.2</ele>
        <time>2021-06-03T07:51:46Z</time>
      </trkpt>
      <trkpt lat="41.82426" lon="9.14334">
        <ele>1499.2</ele>
        <time>2021-06-03T07:51:47Z</time>
      </trkpt>
      <trkpt lat="41.82427" lon="9.14335">
        <ele>1499</ele>
        <time>2021-06-03T07:51:48Z</time>
      </trkpt>
      <trkpt lat="41.82428" lon="9.14336">
        <ele>1499</ele>
        <time>2021-06-03T07:51:49Z</time>
      </trkpt>
      <trkpt lat="41.82429" lon="9.14337">
        <ele>1499</ele>
        <time>2021-06-03T07:51:50Z</time>
      </trkpt>
      <trkpt lat="41.8243" lon="9.14339">
        <ele>1499.8</ele>
        <time>2021-06-03T07:51:51Z</time>
      </trkpt>
      <trkpt lat="41.82431" lon="9.1434">
        <ele>1500.2</ele>
        <time>2021-06-03T07:51:52Z</time>
      </trkpt>
      <trkpt lat="41.82433" lon="9.14342">
        <ele>1500.2</ele>
        <time>2021-06-03T07:51:53Z</time>
      </trkpt>
      <trkpt lat="41.82434" lon="9.14343">
        <ele>1500.2</ele>
        <time>2021-06-03T07:51:54Z</time>
      </trkpt>
      <trkpt lat="41.82435" lon="9.14345">
        <ele>1500.2</ele>
        <time>2021-06-03T07:51:55Z</time>
      </trkpt>
      <trkpt lat="41.82436" lon="9.14346">
        <ele>1500.2</ele>
        <time>2021-06-03T07:51:56Z</time>
      </trkpt>
      <trkpt lat="41.82437" lon="9.14347">
        <ele>1500.2</ele>
        <time>2021-06-03T07:51:57Z</time>
      </trkpt>
      <trkpt lat="41.82437" lon="9.14349">
        <ele>1500.2</ele>
        <time>2021-06-03T07:51:58Z</time>
      </trkpt>
      <trkpt lat="41.82438" lon="9.1435">
        <ele>1500.8</ele>
        <time>2021-06-03T07:51:59Z</time>
      </trkpt>
      <trkpt lat="41.82439" lon="9.14352">
        <ele>1501</ele>
        <time>2021-06-03T07:52:00Z</time>
      </trkpt>
      <trkpt lat="41.8244" lon="9.14353">
        <ele>1501</ele>
        <time>2021-06-03T07:52:01Z</time>
      </trkpt>
      <trkpt lat="41.82441" lon="9.14355">
        <ele>1501</ele>
        <time>2021-06-03T07:52:02Z</time>
      </trkpt>
      <trkpt lat="41.82442" lon="9.14357">
        <ele>1501</ele>
        <time>2021-06-03T07:52:03Z</time>
      </trkpt>
      <trkpt lat="41.82443" lon="9.14359">
        <ele>1501</ele>
        <time>2021-06-03T07:52:04Z</time>
      </trkpt>
      <trkpt lat="41.82443" lon="9.14361">
        <ele>1501</ele>
        <time>2021-06-03T07:52:05Z</time>
      </trkpt>
      <trkpt lat="41.82444" lon="9.14363">
        <ele>1501</ele>
        <time>2021-06-03T07:52:06Z</time>
      </trkpt>
      <trkpt lat="41.82444" lon="9.14365">
        <ele>1501</ele>
        <time>2021-06-03T07:52:07Z</time>
      </trkpt>
      <trkpt lat="41.82445" lon="9.14367">
        <ele>1501.4</ele>
        <time>2021-06-03T07:52:08Z</time>
      </trkpt>
      <trkpt lat="41.82445" lon="9.14369">
        <ele>1501.4</ele>
        <time>2021-06-03T07:52:09Z</time>
      </trkpt>
      <trkpt lat="41.82446" lon="9.14371">
        <ele>1501.4</ele>
        <time>2021-06-03T07:52:10Z</time>
      </trkpt>
      <trkpt lat="41.82446" lon="9.14373">
        <ele>1501.6</ele>
        <time>2021-06-03T07:52:11Z</time>
      </trkpt>
      <trkpt lat="41.82447" lon="9.14375">
        <ele>1501.4</ele>
        <time>2021-06-03T07:52:12Z</time>
      </trkpt>
      <trkpt lat="41.82447" lon="9.14376">
        <ele>1501.4</ele>
        <time>2021-06-03T07:52:13Z</time>
      </trkpt>
      <trkpt lat="41.82447" lon="9.14378">
        <ele>1501.4</ele>
        <time>2021-06-03T07:52:14Z</time>
      </trkpt>
      <trkpt lat="41.82448" lon="9.1438">
        <ele>1502.4</ele>
        <time>2021-06-03T07:52:15Z</time>
      </trkpt>
      <trkpt lat="41.82448" lon="9.14382">
        <ele>1502.4</ele>
        <time>2021-06-03T07:52:16Z</time>
      </trkpt>
      <trkpt lat="41.82448" lon="9.14384">
        <ele>1502.4</ele>
        <time>2021-06-03T07:52:17Z</time>
      </trkpt>
      <trkpt lat="41.82448" lon="9.14386">
        <ele>1502.4</ele>
        <time>2021-06-03T07:52:18Z</time>
      </trkpt>
      <trkpt lat="41.82448" lon="9.14387">
        <ele>1502.6</ele>
        <time>2021-06-03T07:52:19Z</time>
      </trkpt>
      <trkpt lat="41.82448" lon="9.14389">
        <ele>1503</ele>
        <time>2021-06-03T07:52:20Z</time>
      </trkpt>
      <trkpt lat="41.82448" lon="9.14391">
        <ele>1503</ele>
        <time>2021-06-03T07:52:21Z</time>
      </trkpt>
      <trkpt lat="41.82448" lon="9.14393">
        <ele>1503</ele>
        <time>2021-06-03T07:52:22Z</time>
      </trkpt>
      <trkpt lat="41.82448" lon="9.14395">
        <ele>1503</ele>
        <time>2021-06-03T07:52:23Z</time>
      </trkpt>
      <trkpt lat="41.82448" lon="9.14397">
        <ele>1503</ele>
        <time>2021-06-03T07:52:24Z</time>
      </trkpt>
      <trkpt lat="41.82448" lon="9.14398">
        <ele>1503</ele>
        <time>2021-06-03T07:52:25Z</time>
      </trkpt>
      <trkpt lat="41.82448" lon="9.144">
        <ele>1503</ele>
        <time>2021-06-03T07:52:26Z</time>
      </trkpt>
      <trkpt lat="41.82449" lon="9.14402">
        <ele>1503.4</ele>
        <time>2021-06-03T07:52:27Z</time>
      </trkpt>
      <trkpt lat="41.82449" lon="9.14404">
        <ele>1503.6</ele>
        <time>2021-06-03T07:52:28Z</time>
      </trkpt>
      <trkpt lat="41.8245" lon="9.14406">
        <ele>1503.6</ele>
        <time>2021-06-03T07:52:29Z</time>
      </trkpt>
      <trkpt lat="41.8245" lon="9.14407">
        <ele>1503.6</ele>
        <time>2021-06-03T07:52:30Z</time>
      </trkpt>
      <trkpt lat="41.82451" lon="9.14409">
        <ele>1504.4</ele>
        <time>2021-06-03T07:52:31Z</time>
      </trkpt>
      <trkpt lat="41.82451" lon="9.14411">
        <ele>1504.4</ele>
        <time>2021-06-03T07:52:32Z</time>
      </trkpt>
      <trkpt lat="41.82452" lon="9.14412">
        <ele>1504.4</ele>
        <time>2021-06-03T07:52:33Z</time>
      </trkpt>
      <trkpt lat="41.82452" lon="9.14414">
        <ele>1504.4</ele>
        <time>2021-06-03T07:52:34Z</time>
      </trkpt>
      <trkpt lat="41.82452" lon="9.14416">
        <ele>1504.6</ele>
        <time>2021-06-03T07:52:35Z</time>
      </trkpt>
      <trkpt lat="41.82453" lon="9.14418">
        <ele>1505.2</ele>
        <time>2021-06-03T07:52:36Z</time>
      </trkpt>
      <trkpt lat="41.82453" lon="9.1442">
        <ele>1505.2</ele>
        <time>2021-06-03T07:52:37Z</time>
      </trkpt>
      <trkpt lat="41.82453" lon="9.14421">
        <ele>1505.2</ele>
        <time>2021-06-03T07:52:38Z</time>
      </trkpt>
      <trkpt lat="41.82453" lon="9.14423">
        <ele>1505.2</ele>
        <time>2021-06-03T07:52:39Z</time>
      </trkpt>
      <trkpt lat="41.82454" lon="9.14425">
        <ele>1506</ele>
        <time>2021-06-03T07:52:40Z</time>
      </trkpt>
      <trkpt lat="41.82454" lon="9.14426">
        <ele>1506</ele>
        <time>2021-06-03T07:52:41Z</time>
      </trkpt>
      <trkpt lat="41.82455" lon="9.14428">
        <ele>1506</ele>
        <time>2021-06-03T07:52:42Z</time>
      </trkpt>
      <trkpt lat="41.82455" lon="9.1443">
        <ele>1506</ele>
        <time>2021-06-03T07:52:43Z</time>
      </trkpt>
      <trkpt lat="41.82456" lon="9.14431">
        <ele>1506.2</ele>
        <time>2021-06-03T07:52:44Z</time>
      </trkpt>
      <trkpt lat="41.82457" lon="9.14433">
        <ele>1506.2</ele>
        <time>2021-06-03T07:52:45Z</time>
      </trkpt>
      <trkpt lat="41.82457" lon="9.14434">
        <ele>1506.2</ele>
        <time>2021-06-03T07:52:46Z</time>
      </trkpt>
      <trkpt lat="41.82458" lon="9.14436">
        <ele>1506.2</ele>
        <time>2021-06-03T07:52:47Z</time>
      </trkpt>
      <trkpt lat="41.82458" lon="9.14438">
        <ele>1506.2</ele>
        <time>2021-06-03T07:52:48Z</time>
      </trkpt>
      <trkpt lat="41.82458" lon="9.1444">
        <ele>1506.2</ele>
        <time>2021-06-03T07:52:49Z</time>
      </trkpt>
      <trkpt lat="41.82459" lon="9.14441">
        <ele>1506.2</ele>
        <time>2021-06-03T07:52:50Z</time>
      </trkpt>
      <trkpt lat="41.8246" lon="9.14443">
        <ele>1506.2</ele>
        <time>2021-06-03T07:52:51Z</time>
      </trkpt>
      <trkpt lat="41.8246" lon="9.14444">
        <ele>1506.6</ele>
        <time>2021-06-03T07:52:52Z</time>
      </trkpt>
      <trkpt lat="41.82461" lon="9.14446">
        <ele>1506.6</ele>
        <time>2021-06-03T07:52:53Z</time>
      </trkpt>
      <trkpt lat="41.82461" lon="9.14448">
        <ele>1506.6</ele>
        <time>2021-06-03T07:52:54Z</time>
      </trkpt>
      <trkpt lat="41.82462" lon="9.1445">
        <ele>1507.2</ele>
        <time>2021-06-03T07:52:55Z</time>
      </trkpt>
      <trkpt lat="41.82463" lon="9.14451">
        <ele>1507.4</ele>
        <time>2021-06-03T07:52:56Z</time>
      </trkpt>
      <trkpt lat="41.82463" lon="9.14453">
        <ele>1507.4</ele>
        <time>2021-06-03T07:52:57Z</time>
      </trkpt>
      <trkpt lat="41.82464" lon="9.14455">
        <ele>1507.4</ele>
        <time>2021-06-03T07:52:58Z</time>
      </trkpt>
      <trkpt lat="41.82464" lon="9.14457">
        <ele>1507.4</ele>
        <time>2021-06-03T07:52:59Z</time>
      </trkpt>
      <trkpt lat="41.82464" lon="9.14459">
        <ele>1507.6</ele>
        <time>2021-06-03T07:53:00Z</time>
      </trkpt>
      <trkpt lat="41.82465" lon="9.14461">
        <ele>1507.6</ele>
        <time>2021-06-03T07:53:01Z</time>
      </trkpt>
      <trkpt lat="41.82465" lon="9.14463">
        <ele>1507.6</ele>
        <time>2021-06-03T07:53:02Z</time>
      </trkpt>
      <trkpt lat="41.82466" lon="9.14464">
        <ele>1507.6</ele>
        <time>2021-06-03T07:53:03Z</time>
      </trkpt>
      <trkpt lat="41.82466" lon="9.14466">
        <ele>1507.6</ele>
        <time>2021-06-03T07:53:04Z</time>
      </trkpt>
      <trkpt lat="41.82467" lon="9.14468">
        <ele>1507.6</ele>
        <time>2021-06-03T07:53:05Z</time>
      </trkpt>
      <trkpt lat="41.82467" lon="9.14471">
        <ele>1507.6</ele>
        <time>2021-06-03T07:53:06Z</time>
      </trkpt>
      <trkpt lat="41.82467" lon="9.14473">
        <ele>1507.6</ele>
        <time>2021-06-03T07:53:07Z</time>
      </trkpt>
      <trkpt lat="41.82468" lon="9.14475">
        <ele>1507.8</ele>
        <time>2021-06-03T07:53:08Z</time>
      </trkpt>
      <trkpt lat="41.82468" lon="9.14478">
        <ele>1507.8</ele>
        <time>2021-06-03T07:53:09Z</time>
      </trkpt>
      <trkpt lat="41.82469" lon="9.1448">
        <ele>1507.8</ele>
        <time>2021-06-03T07:53:10Z</time>
      </trkpt>
      <trkpt lat="41.82469" lon="9.14482">
        <ele>1508</ele>
        <time>2021-06-03T07:53:11Z</time>
      </trkpt>
      <trkpt lat="41.8247" lon="9.14484">
        <ele>1507.6</ele>
        <time>2021-06-03T07:53:12Z</time>
      </trkpt>
      <trkpt lat="41.8247" lon="9.14486">
        <ele>1507.6</ele>
        <time>2021-06-03T07:53:13Z</time>
      </trkpt>
      <trkpt lat="41.82471" lon="9.14489">
        <ele>1507.6</ele>
        <time>2021-06-03T07:53:14Z</time>
      </trkpt>
      <trkpt lat="41.82472" lon="9.14491">
        <ele>1507.6</ele>
        <time>2021-06-03T07:53:15Z</time>
      </trkpt>
      <trkpt lat="41.82473" lon="9.14493">
        <ele>1508</ele>
        <time>2021-06-03T07:53:16Z</time>
      </trkpt>
      <trkpt lat="41.82473" lon="9.14495">
        <ele>1508</ele>
        <time>2021-06-03T07:53:17Z</time>
      </trkpt>
      <trkpt lat="41.82474" lon="9.14498">
        <ele>1508</ele>
        <time>2021-06-03T07:53:18Z</time>
      </trkpt>
      <trkpt lat="41.82474" lon="9.145">
        <ele>1508</ele>
        <time>2021-06-03T07:53:19Z</time>
      </trkpt>
      <trkpt lat="41.82475" lon="9.14503">
        <ele>1507.6</ele>
        <time>2021-06-03T07:53:20Z</time>
      </trkpt>
      <trkpt lat="41.82476" lon="9.14505">
        <ele>1507.6</ele>
        <time>2021-06-03T07:53:21Z</time>
      </trkpt>
      <trkpt lat="41.82476" lon="9.14508">
        <ele>1507.6</ele>
        <time>2021-06-03T07:53:22Z</time>
      </trkpt>
      <trkpt lat="41.82477" lon="9.14511">
        <ele>1507.4</ele>
        <time>2021-06-03T07:53:23Z</time>
      </trkpt>
      <trkpt lat="41.82477" lon="9.14514">
        <ele>1507.2</ele>
        <time>2021-06-03T07:53:24Z</time>
      </trkpt>
      <trkpt lat="41.82478" lon="9.14517">
        <ele>1507.2</ele>
        <time>2021-06-03T07:53:25Z</time>
      </trkpt>
      <trkpt lat="41.82479" lon="9.1452">
        <ele>1507.2</ele>
        <time>2021-06-03T07:53:26Z</time>
      </trkpt>
      <trkpt lat="41.82479" lon="9.14523">
        <ele>1507.8</ele>
        <time>2021-06-03T07:53:27Z</time>
      </trkpt>
      <trkpt lat="41.8248" lon="9.14527">
        <ele>1507.2</ele>
        <time>2021-06-03T07:53:28Z</time>
      </trkpt>
      <trkpt lat="41.8248" lon="9.1453">
        <ele>1507.2</ele>
        <time>2021-06-03T07:53:29Z</time>
      </trkpt>
      <trkpt lat="41.82481" lon="9.14533">
        <ele>1507.2</ele>
        <time>2021-06-03T07:53:30Z</time>
      </trkpt>
      <trkpt lat="41.82483" lon="9.14537">
        <ele>1507.2</ele>
        <time>2021-06-03T07:53:31Z</time>
      </trkpt>
      <trkpt lat="41.82484" lon="9.1454">
        <ele>1506.2</ele>
        <time>2021-06-03T07:53:32Z</time>
      </trkpt>
      <trkpt lat="41.82485" lon="9.14544">
        <ele>1506.2</ele>
        <time>2021-06-03T07:53:33Z</time>
      </trkpt>
      <trkpt lat="41.82487" lon="9.14548">
        <ele>1506.2</ele>
        <time>2021-06-03T07:53:34Z</time>
      </trkpt>
      <trkpt lat="41.82489" lon="9.14551">
        <ele>1506.2</ele>
        <time>2021-06-03T07:53:35Z</time>
      </trkpt>
      <trkpt lat="41.82491" lon="9.14554">
        <ele>1507</ele>
        <time>2021-06-03T07:53:36Z</time>
      </trkpt>
      <trkpt lat="41.82493" lon="9.14556">
        <ele>1507</ele>
        <time>2021-06-03T07:53:37Z</time>
      </trkpt>
      <trkpt lat="41.82495" lon="9.14557">
        <ele>1507</ele>
        <time>2021-06-03T07:53:38Z</time>
      </trkpt>
      <trkpt lat="41.82497" lon="9.14559">
        <ele>1507.4</ele>
        <time>2021-06-03T07:53:39Z</time>
      </trkpt>
      <trkpt lat="41.82499" lon="9.14561">
        <ele>1507.4</ele>
        <time>2021-06-03T07:53:40Z</time>
      </trkpt>
      <trkpt lat="41.82501" lon="9.14562">
        <ele>1507.4</ele>
        <time>2021-06-03T07:53:41Z</time>
      </trkpt>
      <trkpt lat="41.82503" lon="9.14564">
        <ele>1507.4</ele>
        <time>2021-06-03T07:53:42Z</time>
      </trkpt>
      <trkpt lat="41.82505" lon="9.14565">
        <ele>1507.4</ele>
        <time>2021-06-03T07:53:43Z</time>
      </trkpt>
      <trkpt lat="41.82507" lon="9.14566">
        <ele>1508</ele>
        <time>2021-06-03T07:53:44Z</time>
      </trkpt>
      <trkpt lat="41.82509" lon="9.14567">
        <ele>1508</ele>
        <time>2021-06-03T07:53:45Z</time>
      </trkpt>
      <trkpt lat="41.82512" lon="9.14567">
        <ele>1508</ele>
        <time>2021-06-03T07:53:46Z</time>
      </trkpt>
      <trkpt lat="41.82514" lon="9.14568">
        <ele>1508</ele>
        <time>2021-06-03T07:53:47Z</time>
      </trkpt>
      <trkpt lat="41.82516" lon="9.14568">
        <ele>1508.2</ele>
        <time>2021-06-03T07:53:48Z</time>
      </trkpt>
      <trkpt lat="41.82518" lon="9.14569">
        <ele>1508.2</ele>
        <time>2021-06-03T07:53:49Z</time>
      </trkpt>
      <trkpt lat="41.8252" lon="9.14569">
        <ele>1508.2</ele>
        <time>2021-06-03T07:53:50Z</time>
      </trkpt>
      <trkpt lat="41.82522" lon="9.14569">
        <ele>1508.2</ele>
        <time>2021-06-03T07:53:51Z</time>
      </trkpt>
      <trkpt lat="41.82525" lon="9.14569">
        <ele>1508.6</ele>
        <time>2021-06-03T07:53:52Z</time>
      </trkpt>
      <trkpt lat="41.82527" lon="9.14569">
        <ele>1508.6</ele>
        <time>2021-06-03T07:53:53Z</time>
      </trkpt>
      <trkpt lat="41.82529" lon="9.14569">
        <ele>1508.6</ele>
        <time>2021-06-03T07:53:54Z</time>
      </trkpt>
      <trkpt lat="41.82531" lon="9.14569">
        <ele>1508.6</ele>
        <time>2021-06-03T07:53:55Z</time>
      </trkpt>
      <trkpt lat="41.82532" lon="9.14569">
        <ele>1509</ele>
        <time>2021-06-03T07:53:56Z</time>
      </trkpt>
      <trkpt lat="41.82534" lon="9.14569">
        <ele>1509</ele>
        <time>2021-06-03T07:53:57Z</time>
      </trkpt>
      <trkpt lat="41.82536" lon="9.14569">
        <ele>1509</ele>
        <time>2021-06-03T07:53:58Z</time>
      </trkpt>
      <trkpt lat="41.82537" lon="9.14568">
        <ele>1509</ele>
        <time>2021-06-03T07:53:59Z</time>
      </trkpt>
      <trkpt lat="41.82539" lon="9.14568">
        <ele>1509</ele>
        <time>2021-06-03T07:54:00Z</time>
      </trkpt>
      <trkpt lat="41.82541" lon="9.14568">
        <ele>1509</ele>
        <time>2021-06-03T07:54:01Z</time>
      </trkpt>
      <trkpt lat="41.82543" lon="9.14568">
        <ele>1509</ele>
        <time>2021-06-03T07:54:02Z</time>
      </trkpt>
      <trkpt lat="41.82544" lon="9.14568">
        <ele>1509.4</ele>
        <time>2021-06-03T07:54:03Z</time>
      </trkpt>
      <trkpt lat="41.82546" lon="9.14568">
        <ele>1509.8</ele>
        <time>2021-06-03T07:54:04Z</time>
      </trkpt>
      <trkpt lat="41.82547" lon="9.14568">
        <ele>1509.8</ele>
        <time>2021-06-03T07:54:05Z</time>
      </trkpt>
      <trkpt lat="41.82549" lon="9.14568">
        <ele>1509.8</ele>
        <time>2021-06-03T07:54:06Z</time>
      </trkpt>
      <trkpt lat="41.82551" lon="9.14568">
        <ele>1510.2</ele>
        <time>2021-06-03T07:54:07Z</time>
      </trkpt>
      <trkpt lat="41.82552" lon="9.14569">
        <ele>1510.2</ele>
        <time>2021-06-03T07:54:08Z</time>
      </trkpt>
      <trkpt lat="41.82553" lon="9.14569">
        <ele>1510.2</ele>
        <time>2021-06-03T07:54:09Z</time>
      </trkpt>
      <trkpt lat="41.82555" lon="9.14569">
        <ele>1510.2</ele>
        <time>2021-06-03T07:54:10Z</time>
      </trkpt>
      <trkpt lat="41.82557" lon="9.1457">
        <ele>1510.2</ele>
        <time>2021-06-03T07:54:11Z</time>
      </trkpt>
      <trkpt lat="41.82558" lon="9.1457">
        <ele>1511</ele>
        <time>2021-06-03T07:54:12Z</time>
      </trkpt>
      <trkpt lat="41.82559" lon="9.14571">
        <ele>1511</ele>
        <time>2021-06-03T07:54:13Z</time>
      </trkpt>
      <trkpt lat="41.82561" lon="9.14571">
        <ele>1511</ele>
        <time>2021-06-03T07:54:14Z</time>
      </trkpt>
      <trkpt lat="41.82562" lon="9.14572">
        <ele>1511</ele>
        <time>2021-06-03T07:54:15Z</time>
      </trkpt>
      <trkpt lat="41.82564" lon="9.14572">
        <ele>1511.4</ele>
        <time>2021-06-03T07:54:16Z</time>
      </trkpt>
      <trkpt lat="41.82565" lon="9.14573">
        <ele>1511.4</ele>
        <time>2021-06-03T07:54:17Z</time>
      </trkpt>
      <trkpt lat="41.82566" lon="9.14573">
        <ele>1511.4</ele>
        <time>2021-06-03T07:54:18Z</time>
      </trkpt>
      <trkpt lat="41.82568" lon="9.14574">
        <ele>1512</ele>
        <time>2021-06-03T07:54:19Z</time>
      </trkpt>
      <trkpt lat="41.82569" lon="9.14574">
        <ele>1512</ele>
        <time>2021-06-03T07:54:20Z</time>
      </trkpt>
      <trkpt lat="41.8257" lon="9.14575">
        <ele>1512</ele>
        <time>2021-06-03T07:54:21Z</time>
      </trkpt>
      <trkpt lat="41.82572" lon="9.14576">
        <ele>1512</ele>
        <time>2021-06-03T07:54:22Z</time>
      </trkpt>
      <trkpt lat="41.82573" lon="9.14577">
        <ele>1512.2</ele>
        <time>2021-06-03T07:54:23Z</time>
      </trkpt>
      <trkpt lat="41.82574" lon="9.14579">
        <ele>1512.6</ele>
        <time>2021-06-03T07:54:24Z</time>
      </trkpt>
      <trkpt lat="41.82575" lon="9.1458">
        <ele>1512.6</ele>
        <time>2021-06-03T07:54:25Z</time>
      </trkpt>
      <trkpt lat="41.82576" lon="9.14581">
        <ele>1512.6</ele>
        <time>2021-06-03T07:54:26Z</time>
      </trkpt>
      <trkpt lat="41.82577" lon="9.14582">
        <ele>1512.6</ele>
        <time>2021-06-03T07:54:27Z</time>
      </trkpt>
      <trkpt lat="41.82578" lon="9.14583">
        <ele>1512.8</ele>
        <time>2021-06-03T07:54:28Z</time>
      </trkpt>
      <trkpt lat="41.82579" lon="9.14584">
        <ele>1512.8</ele>
        <time>2021-06-03T07:54:29Z</time>
      </trkpt>
      <trkpt lat="41.82581" lon="9.14585">
        <ele>1512.8</ele>
        <time>2021-06-03T07:54:30Z</time>
      </trkpt>
      <trkpt lat="41.82582" lon="9.14586">
        <ele>1512.8</ele>
        <time>2021-06-03T07:54:31Z</time>
      </trkpt>
      <trkpt lat="41.82583" lon="9.14587">
        <ele>1513.4</ele>
        <time>2021-06-03T07:54:32Z</time>
      </trkpt>
      <trkpt lat="41.82585" lon="9.14589">
        <ele>1513.4</ele>
        <time>2021-06-03T07:54:33Z</time>
      </trkpt>
      <trkpt lat="41.82586" lon="9.1459">
        <ele>1513.4</ele>
        <time>2021-06-03T07:54:34Z</time>
      </trkpt>
      <trkpt lat="41.82587" lon="9.14591">
        <ele>1513.4</ele>
        <time>2021-06-03T07:54:35Z</time>
      </trkpt>
      <trkpt lat="41.82589" lon="9.14593">
        <ele>1513.2</ele>
        <time>2021-06-03T07:54:36Z</time>
      </trkpt>
      <trkpt lat="41.8259" lon="9.14594">
        <ele>1513.2</ele>
        <time>2021-06-03T07:54:37Z</time>
      </trkpt>
      <trkpt lat="41.82592" lon="9.14595">
        <ele>1513.2</ele>
        <time>2021-06-03T07:54:38Z</time>
      </trkpt>
      <trkpt lat="41.82593" lon="9.14597">
        <ele>1513.6</ele>
        <time>2021-06-03T07:54:39Z</time>
      </trkpt>
      <trkpt lat="41.82594" lon="9.14598">
        <ele>1513.8</ele>
        <time>2021-06-03T07:54:40Z</time>
      </trkpt>
      <trkpt lat="41.82596" lon="9.146">
        <ele>1513.8</ele>
        <time>2021-06-03T07:54:41Z</time>
      </trkpt>
      <trkpt lat="41.82597" lon="9.14602">
        <ele>1513.8</ele>
        <time>2021-06-03T07:54:42Z</time>
      </trkpt>
      <trkpt lat="41.82598" lon="9.14604">
        <ele>1513.8</ele>
        <time>2021-06-03T07:54:43Z</time>
      </trkpt>
      <trkpt lat="41.826" lon="9.14605">
        <ele>1513.8</ele>
        <time>2021-06-03T07:54:44Z</time>
      </trkpt>
      <trkpt lat="41.82601" lon="9.14607">
        <ele>1513.8</ele>
        <time>2021-06-03T07:54:45Z</time>
      </trkpt>
      <trkpt lat="41.82603" lon="9.14608">
        <ele>1513.8</ele>
        <time>2021-06-03T07:54:46Z</time>
      </trkpt>
      <trkpt lat="41.82605" lon="9.1461">
        <ele>1514.2</ele>
        <time>2021-06-03T07:54:47Z</time>
      </trkpt>
      <trkpt lat="41.82606" lon="9.14611">
        <ele>1514</ele>
        <time>2021-06-03T07:54:48Z</time>
      </trkpt>
      <trkpt lat="41.82608" lon="9.14612">
        <ele>1514</ele>
        <time>2021-06-03T07:54:49Z</time>
      </trkpt>
      <trkpt lat="41.8261" lon="9.14613">
        <ele>1514</ele>
        <time>2021-06-03T07:54:50Z</time>
      </trkpt>
      <trkpt lat="41.82612" lon="9.14614">
        <ele>1514</ele>
        <time>2021-06-03T07:54:51Z</time>
      </trkpt>
      <trkpt lat="41.82614" lon="9.14615">
        <ele>1514.6</ele>
        <time>2021-06-03T07:54:52Z</time>
      </trkpt>
      <trkpt lat="41.82615" lon="9.14615">
        <ele>1514.6</ele>
        <time>2021-06-03T07:54:53Z</time>
      </trkpt>
      <trkpt lat="41.82617" lon="9.14616">
        <ele>1514.6</ele>
        <time>2021-06-03T07:54:54Z</time>
      </trkpt>
      <trkpt lat="41.82619" lon="9.14617">
        <ele>1514.6</ele>
        <time>2021-06-03T07:54:55Z</time>
      </trkpt>
      <trkpt lat="41.82621" lon="9.14617">
        <ele>1514.8</ele>
        <time>2021-06-03T07:54:56Z</time>
      </trkpt>
      <trkpt lat="41.82623" lon="9.14618">
        <ele>1514.8</ele>
        <time>2021-06-03T07:54:57Z</time>
      </trkpt>
      <trkpt lat="41.82624" lon="9.14618">
        <ele>1514.8</ele>
        <time>2021-06-03T07:54:58Z</time>
      </trkpt>
      <trkpt lat="41.82626" lon="9.14619">
        <ele>1515</ele>
        <time>2021-06-03T07:54:59Z</time>
      </trkpt>
      <trkpt lat="41.82628" lon="9.14619">
        <ele>1515</ele>
        <time>2021-06-03T07:55:00Z</time>
      </trkpt>
      <trkpt lat="41.8263" lon="9.1462">
        <ele>1515</ele>
        <time>2021-06-03T07:55:01Z</time>
      </trkpt>
      <trkpt lat="41.82631" lon="9.1462">
        <ele>1515</ele>
        <time>2021-06-03T07:55:02Z</time>
      </trkpt>
      <trkpt lat="41.82633" lon="9.1462">
        <ele>1515.4</ele>
        <time>2021-06-03T07:55:03Z</time>
      </trkpt>
      <trkpt lat="41.82635" lon="9.14621">
        <ele>1515.6</ele>
        <time>2021-06-03T07:55:04Z</time>
      </trkpt>
      <trkpt lat="41.82636" lon="9.14621">
        <ele>1515.6</ele>
        <time>2021-06-03T07:55:05Z</time>
      </trkpt>
      <trkpt lat="41.82638" lon="9.14621">
        <ele>1515.6</ele>
        <time>2021-06-03T07:55:06Z</time>
      </trkpt>
      <trkpt lat="41.82639" lon="9.14622">
        <ele>1515.6</ele>
        <time>2021-06-03T07:55:07Z</time>
      </trkpt>
      <trkpt lat="41.8264" lon="9.14622">
        <ele>1515.8</ele>
        <time>2021-06-03T07:55:08Z</time>
      </trkpt>
      <trkpt lat="41.82642" lon="9.14623">
        <ele>1515.8</ele>
        <time>2021-06-03T07:55:09Z</time>
      </trkpt>
      <trkpt lat="41.82643" lon="9.14623">
        <ele>1515.8</ele>
        <time>2021-06-03T07:55:10Z</time>
      </trkpt>
      <trkpt lat="41.82645" lon="9.14624">
        <ele>1516</ele>
        <time>2021-06-03T07:55:11Z</time>
      </trkpt>
      <trkpt lat="41.82646" lon="9.14624">
        <ele>1516.4</ele>
        <time>2021-06-03T07:55:12Z</time>
      </trkpt>
      <trkpt lat="41.82647" lon="9.14625">
        <ele>1516.4</ele>
        <time>2021-06-03T07:55:13Z</time>
      </trkpt>
      <trkpt lat="41.82648" lon="9.14626">
        <ele>1516.4</ele>
        <time>2021-06-03T07:55:14Z</time>
      </trkpt>
      <trkpt lat="41.8265" lon="9.14626">
        <ele>1516.4</ele>
        <time>2021-06-03T07:55:15Z</time>
      </trkpt>
      <trkpt lat="41.82651" lon="9.14627">
        <ele>1516</ele>
        <time>2021-06-03T07:55:16Z</time>
      </trkpt>
      <trkpt lat="41.82652" lon="9.14628">
        <ele>1516</ele>
        <time>2021-06-03T07:55:17Z</time>
      </trkpt>
      <trkpt lat="41.82654" lon="9.14629">
        <ele>1516</ele>
        <time>2021-06-03T07:55:18Z</time>
      </trkpt>
      <trkpt lat="41.82656" lon="9.14631">
        <ele>1515.4</ele>
        <time>2021-06-03T07:55:19Z</time>
      </trkpt>
      <trkpt lat="41.82658" lon="9.14633">
        <ele>1515</ele>
        <time>2021-06-03T07:55:20Z</time>
      </trkpt>
      <trkpt lat="41.82661" lon="9.14635">
        <ele>1515</ele>
        <time>2021-06-03T07:55:21Z</time>
      </trkpt>
      <trkpt lat="41.82663" lon="9.14637">
        <ele>1515</ele>
        <time>2021-06-03T07:55:22Z</time>
      </trkpt>
      <trkpt lat="41.82666" lon="9.14639">
        <ele>1514.6</ele>
        <time>2021-06-03T07:55:23Z</time>
      </trkpt>
      <trkpt lat="41.82668" lon="9.14641">
        <ele>1514.2</ele>
        <time>2021-06-03T07:55:24Z</time>
      </trkpt>
      <trkpt lat="41.82671" lon="9.14643">
        <ele>1514.2</ele>
        <time>2021-06-03T07:55:25Z</time>
      </trkpt>
      <trkpt lat="41.82674" lon="9.14645">
        <ele>1514.2</ele>
        <time>2021-06-03T07:55:26Z</time>
      </trkpt>
      <trkpt lat="41.82677" lon="9.14647">
        <ele>1513.4</ele>
        <time>2021-06-03T07:55:27Z</time>
      </trkpt>
      <trkpt lat="41.8268" lon="9.14649">
        <ele>1513.2</ele>
        <time>2021-06-03T07:55:28Z</time>
      </trkpt>
      <trkpt lat="41.82683" lon="9.14651">
        <ele>1513.2</ele>
        <time>2021-06-03T07:55:29Z</time>
      </trkpt>
      <trkpt lat="41.82686" lon="9.14653">
        <ele>1513.2</ele>
        <time>2021-06-03T07:55:30Z</time>
      </trkpt>
      <trkpt lat="41.82689" lon="9.14655">
        <ele>1512.6</ele>
        <time>2021-06-03T07:55:31Z</time>
      </trkpt>
      <trkpt lat="41.82693" lon="9.14657">
        <ele>1512.6</ele>
        <time>2021-06-03T07:55:32Z</time>
      </trkpt>
      <trkpt lat="41.82696" lon="9.14659">
        <ele>1512.6</ele>
        <time>2021-06-03T07:55:33Z</time>
      </trkpt>
      <trkpt lat="41.82698" lon="9.14662">
        <ele>1512.6</ele>
        <time>2021-06-03T07:55:34Z</time>
      </trkpt>
      <trkpt lat="41.82701" lon="9.14664">
        <ele>1512.6</ele>
        <time>2021-06-03T07:55:35Z</time>
      </trkpt>
      <trkpt lat="41.82704" lon="9.14666">
        <ele>1512</ele>
        <time>2021-06-03T07:55:36Z</time>
      </trkpt>
      <trkpt lat="41.82707" lon="9.14668">
        <ele>1512</ele>
        <time>2021-06-03T07:55:37Z</time>
      </trkpt>
      <trkpt lat="41.8271" lon="9.1467">
        <ele>1512</ele>
        <time>2021-06-03T07:55:38Z</time>
      </trkpt>
      <trkpt lat="41.82713" lon="9.14672">
        <ele>1511</ele>
        <time>2021-06-03T07:55:39Z</time>
      </trkpt>
      <trkpt lat="41.82716" lon="9.14674">
        <ele>1510.6</ele>
        <time>2021-06-03T07:55:40Z</time>
      </trkpt>
      <trkpt lat="41.82719" lon="9.14676">
        <ele>1510.6</ele>
        <time>2021-06-03T07:55:41Z</time>
      </trkpt>
      <trkpt lat="41.82721" lon="9.14678">
        <ele>1510.6</ele>
        <time>2021-06-03T07:55:42Z</time>
      </trkpt>
      <trkpt lat="41.82724" lon="9.1468">
        <ele>1510.4</ele>
        <time>2021-06-03T07:55:43Z</time>
      </trkpt>
      <trkpt lat="41.82726" lon="9.14681">
        <ele>1510.2</ele>
        <time>2021-06-03T07:55:44Z</time>
      </trkpt>
      <trkpt lat="41.82728" lon="9.14683">
        <ele>1510.2</ele>
        <time>2021-06-03T07:55:45Z</time>
      </trkpt>
      <trkpt lat="41.8273" lon="9.14684">
        <ele>1510.2</ele>
        <time>2021-06-03T07:55:46Z</time>
      </trkpt>
      <trkpt lat="41.82732" lon="9.14684">
        <ele>1510.2</ele>
        <time>2021-06-03T07:55:47Z</time>
      </trkpt>
      <trkpt lat="41.82734" lon="9.14685">
        <ele>1509.4</ele>
        <time>2021-06-03T07:55:48Z</time>
      </trkpt>
      <trkpt lat="41.82735" lon="9.14686">
        <ele>1509.4</ele>
        <time>2021-06-03T07:55:49Z</time>
      </trkpt>
      <trkpt lat="41.82737" lon="9.14687">
        <ele>1509.4</ele>
        <time>2021-06-03T07:55:50Z</time>
      </trkpt>
      <trkpt lat="41.82738" lon="9.14688">
        <ele>1509.4</ele>
        <time>2021-06-03T07:55:51Z</time>
      </trkpt>
      <trkpt lat="41.82739" lon="9.14689">
        <ele>1509.8</ele>
        <time>2021-06-03T07:55:52Z</time>
      </trkpt>
      <trkpt lat="41.8274" lon="9.1469">
        <ele>1509.8</ele>
        <time>2021-06-03T07:55:53Z</time>
      </trkpt>
      <trkpt lat="41.82741" lon="9.14691">
        <ele>1509.8</ele>
        <time>2021-06-03T07:55:54Z</time>
      </trkpt>
      <trkpt lat="41.82743" lon="9.14693">
        <ele>1509.8</ele>
        <time>2021-06-03T07:55:55Z</time>
      </trkpt>
      <trkpt lat="41.82744" lon="9.14694">
        <ele>1510.4</ele>
        <time>2021-06-03T07:55:56Z</time>
      </trkpt>
      <trkpt lat="41.82745" lon="9.14696">
        <ele>1510.4</ele>
        <time>2021-06-03T07:55:57Z</time>
      </trkpt>
      <trkpt lat="41.82746" lon="9.14697">
        <ele>1510.4</ele>
        <time>2021-06-03T07:55:58Z</time>
      </trkpt>
      <trkpt lat="41.82748" lon="9.14698">
        <ele>1509.6</ele>
        <time>2021-06-03T07:55:59Z</time>
      </trkpt>
      <trkpt lat="41.82749" lon="9.14699">
        <ele>1509.8</ele>
        <time>2021-06-03T07:56:00Z</time>
      </trkpt>
      <trkpt lat="41.8275" lon="9.147">
        <ele>1509.8</ele>
        <time>2021-06-03T07:56:01Z</time>
      </trkpt>
      <trkpt lat="41.82752" lon="9.14701">
        <ele>1509.8</ele>
        <time>2021-06-03T07:56:02Z</time>
      </trkpt>
      <trkpt lat="41.82753" lon="9.14702">
        <ele>1510.8</ele>
        <time>2021-06-03T07:56:03Z</time>
      </trkpt>
      <trkpt lat="41.82754" lon="9.14703">
        <ele>1511.2</ele>
        <time>2021-06-03T07:56:04Z</time>
      </trkpt>
      <trkpt lat="41.82755" lon="9.14704">
        <ele>1511.2</ele>
        <time>2021-06-03T07:56:05Z</time>
      </trkpt>
      <trkpt lat="41.82757" lon="9.14704">
        <ele>1511.2</ele>
        <time>2021-06-03T07:56:06Z</time>
      </trkpt>
      <trkpt lat="41.82758" lon="9.14705">
        <ele>1511.2</ele>
        <time>2021-06-03T07:56:07Z</time>
      </trkpt>
      <trkpt lat="41.82759" lon="9.14706">
        <ele>1512</ele>
        <time>2021-06-03T07:56:08Z</time>
      </trkpt>
      <trkpt lat="41.8276" lon="9.14707">
        <ele>1512</ele>
        <time>2021-06-03T07:56:09Z</time>
      </trkpt>
      <trkpt lat="41.82761" lon="9.14707">
        <ele>1512</ele>
        <time>2021-06-03T07:56:10Z</time>
      </trkpt>
      <trkpt lat="41.82763" lon="9.14708">
        <ele>1512</ele>
        <time>2021-06-03T07:56:11Z</time>
      </trkpt>
      <trkpt lat="41.82764" lon="9.14709">
        <ele>1512.6</ele>
        <time>2021-06-03T07:56:12Z</time>
      </trkpt>
      <trkpt lat="41.82765" lon="9.1471">
        <ele>1512.6</ele>
        <time>2021-06-03T07:56:13Z</time>
      </trkpt>
      <trkpt lat="41.82766" lon="9.14711">
        <ele>1512.6</ele>
        <time>2021-06-03T07:56:14Z</time>
      </trkpt>
      <trkpt lat="41.82767" lon="9.14712">
        <ele>1512.8</ele>
        <time>2021-06-03T07:56:15Z</time>
      </trkpt>
      <trkpt lat="41.82768" lon="9.14713">
        <ele>1513.2</ele>
        <time>2021-06-03T07:56:16Z</time>
      </trkpt>
      <trkpt lat="41.82769" lon="9.14714">
        <ele>1513.2</ele>
        <time>2021-06-03T07:56:17Z</time>
      </trkpt>
      <trkpt lat="41.8277" lon="9.14716">
        <ele>1513.2</ele>
        <time>2021-06-03T07:56:18Z</time>
      </trkpt>
      <trkpt lat="41.8277" lon="9.14717">
        <ele>1513.8</ele>
        <time>2021-06-03T07:56:19Z</time>
      </trkpt>
      <trkpt lat="41.82771" lon="9.14718">
        <ele>1514.2</ele>
        <time>2021-06-03T07:56:20Z</time>
      </trkpt>
      <trkpt lat="41.82772" lon="9.14719">
        <ele>1514.2</ele>
        <time>2021-06-03T07:56:21Z</time>
      </trkpt>
      <trkpt lat="41.82773" lon="9.14719">
        <ele>1514.2</ele>
        <time>2021-06-03T07:56:22Z</time>
      </trkpt>
      <trkpt lat="41.82774" lon="9.1472">
        <ele>1514.2</ele>
        <time>2021-06-03T07:56:23Z</time>
      </trkpt>
      <trkpt lat="41.82775" lon="9.14721">
        <ele>1514.6</ele>
        <time>2021-06-03T07:56:24Z</time>
      </trkpt>
      <trkpt lat="41.82776" lon="9.14721">
        <ele>1514.6</ele>
        <time>2021-06-03T07:56:25Z</time>
      </trkpt>
      <trkpt lat="41.82777" lon="9.14722">
        <ele>1514.6</ele>
        <time>2021-06-03T07:56:26Z</time>
      </trkpt>
      <trkpt lat="41.82778" lon="9.14722">
        <ele>1514.6</ele>
        <time>2021-06-03T07:56:27Z</time>
      </trkpt>
      <trkpt lat="41.82779" lon="9.14723">
        <ele>1514.6</ele>
        <time>2021-06-03T07:56:28Z</time>
      </trkpt>
      <trkpt lat="41.82779" lon="9.14723">
        <ele>1514.6</ele>
        <time>2021-06-03T07:56:29Z</time>
      </trkpt>
      <trkpt lat="41.82779" lon="9.14723">
        <ele>1514.6</ele>
        <time>2021-06-03T07:56:30Z</time>
      </trkpt>
      <trkpt lat="41.82802" lon="9.14736">
        <ele>1516.2</ele>
        <time>2021-06-03T07:56:55Z</time>
      </trkpt>
      <trkpt lat="41.82803" lon="9.14737">
        <ele>1516.8</ele>
        <time>2021-06-03T07:56:56Z</time>
      </trkpt>
      <trkpt lat="41.82804" lon="9.14738">
        <ele>1516.8</ele>
        <time>2021-06-03T07:56:57Z</time>
      </trkpt>
      <trkpt lat="41.82806" lon="9.14738">
        <ele>1516.8</ele>
        <time>2021-06-03T07:56:58Z</time>
      </trkpt>
      <trkpt lat="41.82807" lon="9.14738">
        <ele>1516.8</ele>
        <time>2021-06-03T07:56:59Z</time>
      </trkpt>
      <trkpt lat="41.82808" lon="9.14739">
        <ele>1516.8</ele>
        <time>2021-06-03T07:57:00Z</time>
      </trkpt>
      <trkpt lat="41.82809" lon="9.1474">
        <ele>1516.8</ele>
        <time>2021-06-03T07:57:01Z</time>
      </trkpt>
      <trkpt lat="41.8281" lon="9.1474">
        <ele>1516.8</ele>
        <time>2021-06-03T07:57:02Z</time>
      </trkpt>
      <trkpt lat="41.82811" lon="9.14741">
        <ele>1517</ele>
        <time>2021-06-03T07:57:03Z</time>
      </trkpt>
      <trkpt lat="41.82813" lon="9.14742">
        <ele>1517.2</ele>
        <time>2021-06-03T07:57:04Z</time>
      </trkpt>
      <trkpt lat="41.82814" lon="9.14743">
        <ele>1517.2</ele>
        <time>2021-06-03T07:57:05Z</time>
      </trkpt>
      <trkpt lat="41.82816" lon="9.14743">
        <ele>1517.2</ele>
        <time>2021-06-03T07:57:06Z</time>
      </trkpt>
      <trkpt lat="41.82817" lon="9.14744">
        <ele>1517.2</ele>
        <time>2021-06-03T07:57:07Z</time>
      </trkpt>
      <trkpt lat="41.82818" lon="9.14745">
        <ele>1518</ele>
        <time>2021-06-03T07:57:08Z</time>
      </trkpt>
      <trkpt lat="41.8282" lon="9.14746">
        <ele>1518</ele>
        <time>2021-06-03T07:57:09Z</time>
      </trkpt>
      <trkpt lat="41.82821" lon="9.14746">
        <ele>1518</ele>
        <time>2021-06-03T07:57:10Z</time>
      </trkpt>
      <trkpt lat="41.82822" lon="9.14748">
        <ele>1517.8</ele>
        <time>2021-06-03T07:57:11Z</time>
      </trkpt>
      <trkpt lat="41.82824" lon="9.14748">
        <ele>1518.4</ele>
        <time>2021-06-03T07:57:12Z</time>
      </trkpt>
      <trkpt lat="41.82825" lon="9.14749">
        <ele>1518.4</ele>
        <time>2021-06-03T07:57:13Z</time>
      </trkpt>
      <trkpt lat="41.82827" lon="9.14749">
        <ele>1518.4</ele>
        <time>2021-06-03T07:57:14Z</time>
      </trkpt>
      <trkpt lat="41.82828" lon="9.1475">
        <ele>1518.4</ele>
        <time>2021-06-03T07:57:15Z</time>
      </trkpt>
      <trkpt lat="41.82829" lon="9.14751">
        <ele>1518.6</ele>
        <time>2021-06-03T07:57:16Z</time>
      </trkpt>
      <trkpt lat="41.8283" lon="9.14752">
        <ele>1518.6</ele>
        <time>2021-06-03T07:57:17Z</time>
      </trkpt>
      <trkpt lat="41.82832" lon="9.14753">
        <ele>1518.6</ele>
        <time>2021-06-03T07:57:18Z</time>
      </trkpt>
      <trkpt lat="41.82833" lon="9.14753">
        <ele>1519</ele>
        <time>2021-06-03T07:57:19Z</time>
      </trkpt>
      <trkpt lat="41.82834" lon="9.14754">
        <ele>1518.8</ele>
        <time>2021-06-03T07:57:20Z</time>
      </trkpt>
      <trkpt lat="41.82836" lon="9.14755">
        <ele>1518.8</ele>
        <time>2021-06-03T07:57:21Z</time>
      </trkpt>
      <trkpt lat="41.82837" lon="9.14755">
        <ele>1518.8</ele>
        <time>2021-06-03T07:57:22Z</time>
      </trkpt>
      <trkpt lat="41.82838" lon="9.14756">
        <ele>1519.4</ele>
        <time>2021-06-03T07:57:23Z</time>
      </trkpt>
      <trkpt lat="41.8284" lon="9.14756">
        <ele>1519.4</ele>
        <time>2021-06-03T07:57:24Z</time>
      </trkpt>
      <trkpt lat="41.82841" lon="9.14757">
        <ele>1519.4</ele>
        <time>2021-06-03T07:57:25Z</time>
      </trkpt>
      <trkpt lat="41.82842" lon="9.14757">
        <ele>1519.4</ele>
        <time>2021-06-03T07:57:26Z</time>
      </trkpt>
      <trkpt lat="41.82843" lon="9.14758">
        <ele>1519.4</ele>
        <time>2021-06-03T07:57:27Z</time>
      </trkpt>
      <trkpt lat="41.82845" lon="9.14759">
        <ele>1519.4</ele>
        <time>2021-06-03T07:57:28Z</time>
      </trkpt>
      <trkpt lat="41.82846" lon="9.1476">
        <ele>1519.4</ele>
        <time>2021-06-03T07:57:29Z</time>
      </trkpt>
      <trkpt lat="41.82847" lon="9.14761">
        <ele>1519.4</ele>
        <time>2021-06-03T07:57:30Z</time>
      </trkpt>
      <trkpt lat="41.82848" lon="9.14762">
        <ele>1520.2</ele>
        <time>2021-06-03T07:57:31Z</time>
      </trkpt>
      <trkpt lat="41.82849" lon="9.14762">
        <ele>1520</ele>
        <time>2021-06-03T07:57:32Z</time>
      </trkpt>
      <trkpt lat="41.82851" lon="9.14763">
        <ele>1520</ele>
        <time>2021-06-03T07:57:33Z</time>
      </trkpt>
      <trkpt lat="41.82852" lon="9.14764">
        <ele>1520</ele>
        <time>2021-06-03T07:57:34Z</time>
      </trkpt>
      <trkpt lat="41.82853" lon="9.14764">
        <ele>1520</ele>
        <time>2021-06-03T07:57:35Z</time>
      </trkpt>
      <trkpt lat="41.82855" lon="9.14765">
        <ele>1521</ele>
        <time>2021-06-03T07:57:36Z</time>
      </trkpt>
      <trkpt lat="41.82856" lon="9.14766">
        <ele>1521</ele>
        <time>2021-06-03T07:57:37Z</time>
      </trkpt>
      <trkpt lat="41.82857" lon="9.14766">
        <ele>1521</ele>
        <time>2021-06-03T07:57:38Z</time>
      </trkpt>
      <trkpt lat="41.82858" lon="9.14767">
        <ele>1521</ele>
        <time>2021-06-03T07:57:39Z</time>
      </trkpt>
      <trkpt lat="41.8286" lon="9.14768">
        <ele>1520.8</ele>
        <time>2021-06-03T07:57:40Z</time>
      </trkpt>
      <trkpt lat="41.82861" lon="9.14769">
        <ele>1520.8</ele>
        <time>2021-06-03T07:57:41Z</time>
      </trkpt>
      <trkpt lat="41.82862" lon="9.1477">
        <ele>1520.8</ele>
        <time>2021-06-03T07:57:42Z</time>
      </trkpt>
      <trkpt lat="41.82863" lon="9.14771">
        <ele>1521.4</ele>
        <time>2021-06-03T07:57:43Z</time>
      </trkpt>
      <trkpt lat="41.82865" lon="9.14772">
        <ele>1521.4</ele>
        <time>2021-06-03T07:57:44Z</time>
      </trkpt>
      <trkpt lat="41.82866" lon="9.14773">
        <ele>1521.4</ele>
        <time>2021-06-03T07:57:45Z</time>
      </trkpt>
      <trkpt lat="41.82867" lon="9.14773">
        <ele>1521.4</ele>
        <time>2021-06-03T07:57:46Z</time>
      </trkpt>
      <trkpt lat="41.82868" lon="9.14774">
        <ele>1521.8</ele>
        <time>2021-06-03T07:57:47Z</time>
      </trkpt>
      <trkpt lat="41.8287" lon="9.14775">
        <ele>1521.8</ele>
        <time>2021-06-03T07:57:48Z</time>
      </trkpt>
      <trkpt lat="41.82871" lon="9.14776">
        <ele>1521.8</ele>
        <time>2021-06-03T07:57:49Z</time>
      </trkpt>
      <trkpt lat="41.82872" lon="9.14777">
        <ele>1521.8</ele>
        <time>2021-06-03T07:57:50Z</time>
      </trkpt>
      <trkpt lat="41.82874" lon="9.14777">
        <ele>1521.8</ele>
        <time>2021-06-03T07:57:51Z</time>
      </trkpt>
      <trkpt lat="41.82875" lon="9.14778">
        <ele>1522.6</ele>
        <time>2021-06-03T07:57:52Z</time>
      </trkpt>
      <trkpt lat="41.82876" lon="9.14779">
        <ele>1522.6</ele>
        <time>2021-06-03T07:57:53Z</time>
      </trkpt>
      <trkpt lat="41.82877" lon="9.14781">
        <ele>1522.6</ele>
        <time>2021-06-03T07:57:54Z</time>
      </trkpt>
      <trkpt lat="41.82879" lon="9.14782">
        <ele>1522.6</ele>
        <time>2021-06-03T07:57:55Z</time>
      </trkpt>
      <trkpt lat="41.8288" lon="9.14783">
        <ele>1522.6</ele>
        <time>2021-06-03T07:57:56Z</time>
      </trkpt>
      <trkpt lat="41.82881" lon="9.14784">
        <ele>1522.6</ele>
        <time>2021-06-03T07:57:57Z</time>
      </trkpt>
      <trkpt lat="41.82882" lon="9.14785">
        <ele>1522.6</ele>
        <time>2021-06-03T07:57:58Z</time>
      </trkpt>
      <trkpt lat="41.82884" lon="9.14786">
        <ele>1523.6</ele>
        <time>2021-06-03T07:57:59Z</time>
      </trkpt>
      <trkpt lat="41.82885" lon="9.14787">
        <ele>1523.2</ele>
        <time>2021-06-03T07:58:00Z</time>
      </trkpt>
      <trkpt lat="41.82886" lon="9.14788">
        <ele>1523.2</ele>
        <time>2021-06-03T07:58:01Z</time>
      </trkpt>
      <trkpt lat="41.82887" lon="9.14789">
        <ele>1523.2</ele>
        <time>2021-06-03T07:58:02Z</time>
      </trkpt>
      <trkpt lat="41.82888" lon="9.1479">
        <ele>1523.2</ele>
        <time>2021-06-03T07:58:03Z</time>
      </trkpt>
      <trkpt lat="41.82889" lon="9.14791">
        <ele>1523.6</ele>
        <time>2021-06-03T07:58:04Z</time>
      </trkpt>
      <trkpt lat="41.8289" lon="9.14793">
        <ele>1523.6</ele>
        <time>2021-06-03T07:58:05Z</time>
      </trkpt>
      <trkpt lat="41.82892" lon="9.14794">
        <ele>1523.6</ele>
        <time>2021-06-03T07:58:06Z</time>
      </trkpt>
      <trkpt lat="41.82893" lon="9.14795">
        <ele>1523.6</ele>
        <time>2021-06-03T07:58:07Z</time>
      </trkpt>
      <trkpt lat="41.82894" lon="9.14796">
        <ele>1524</ele>
        <time>2021-06-03T07:58:08Z</time>
      </trkpt>
      <trkpt lat="41.82895" lon="9.14796">
        <ele>1524</ele>
        <time>2021-06-03T07:58:09Z</time>
      </trkpt>
      <trkpt lat="41.82897" lon="9.14797">
        <ele>1524</ele>
        <time>2021-06-03T07:58:10Z</time>
      </trkpt>
      <trkpt lat="41.82898" lon="9.14798">
        <ele>1524.6</ele>
        <time>2021-06-03T07:58:11Z</time>
      </trkpt>
      <trkpt lat="41.82899" lon="9.14799">
        <ele>1524.2</ele>
        <time>2021-06-03T07:58:12Z</time>
      </trkpt>
      <trkpt lat="41.82901" lon="9.148">
        <ele>1524.2</ele>
        <time>2021-06-03T07:58:13Z</time>
      </trkpt>
      <trkpt lat="41.82902" lon="9.148">
        <ele>1524.2</ele>
        <time>2021-06-03T07:58:14Z</time>
      </trkpt>
      <trkpt lat="41.82904" lon="9.14802">
        <ele>1524.2</ele>
        <time>2021-06-03T07:58:15Z</time>
      </trkpt>
      <trkpt lat="41.82905" lon="9.14802">
        <ele>1524.4</ele>
        <time>2021-06-03T07:58:16Z</time>
      </trkpt>
      <trkpt lat="41.82907" lon="9.14803">
        <ele>1524.4</ele>
        <time>2021-06-03T07:58:17Z</time>
      </trkpt>
      <trkpt lat="41.82908" lon="9.14804">
        <ele>1524.4</ele>
        <time>2021-06-03T07:58:18Z</time>
      </trkpt>
      <trkpt lat="41.8291" lon="9.14805">
        <ele>1525</ele>
        <time>2021-06-03T07:58:19Z</time>
      </trkpt>
      <trkpt lat="41.82912" lon="9.14806">
        <ele>1525.2</ele>
        <time>2021-06-03T07:58:20Z</time>
      </trkpt>
      <trkpt lat="41.82913" lon="9.14806">
        <ele>1525.2</ele>
        <time>2021-06-03T07:58:21Z</time>
      </trkpt>
      <trkpt lat="41.82915" lon="9.14806">
        <ele>1525.2</ele>
        <time>2021-06-03T07:58:22Z</time>
      </trkpt>
      <trkpt lat="41.82917" lon="9.14807">
        <ele>1525.2</ele>
        <time>2021-06-03T07:58:23Z</time>
      </trkpt>
      <trkpt lat="41.82918" lon="9.14807">
        <ele>1525.6</ele>
        <time>2021-06-03T07:58:24Z</time>
      </trkpt>
      <trkpt lat="41.8292" lon="9.14808">
        <ele>1525.6</ele>
        <time>2021-06-03T07:58:25Z</time>
      </trkpt>
      <trkpt lat="41.82922" lon="9.14808">
        <ele>1525.6</ele>
        <time>2021-06-03T07:58:26Z</time>
      </trkpt>
      <trkpt lat="41.82923" lon="9.14808">
        <ele>1525.6</ele>
        <time>2021-06-03T07:58:27Z</time>
      </trkpt>
      <trkpt lat="41.82925" lon="9.14808">
        <ele>1525.6</ele>
        <time>2021-06-03T07:58:28Z</time>
      </trkpt>
      <trkpt lat="41.82926" lon="9.14808">
        <ele>1525.6</ele>
        <time>2021-06-03T07:58:29Z</time>
      </trkpt>
      <trkpt lat="41.82928" lon="9.14808">
        <ele>1525.6</ele>
        <time>2021-06-03T07:58:30Z</time>
      </trkpt>
      <trkpt lat="41.8293" lon="9.14808">
        <ele>1525.8</ele>
        <time>2021-06-03T07:58:31Z</time>
      </trkpt>
      <trkpt lat="41.82932" lon="9.14809">
        <ele>1525.6</ele>
        <time>2021-06-03T07:58:32Z</time>
      </trkpt>
      <trkpt lat="41.82934" lon="9.14809">
        <ele>1525.6</ele>
        <time>2021-06-03T07:58:33Z</time>
      </trkpt>
      <trkpt lat="41.82935" lon="9.14809">
        <ele>1525.6</ele>
        <time>2021-06-03T07:58:34Z</time>
      </trkpt>
      <trkpt lat="41.82937" lon="9.14809">
        <ele>1525.8</ele>
        <time>2021-06-03T07:58:35Z</time>
      </trkpt>
      <trkpt lat="41.82939" lon="9.14809">
        <ele>1525.8</ele>
        <time>2021-06-03T07:58:36Z</time>
      </trkpt>
      <trkpt lat="41.82941" lon="9.14809">
        <ele>1525.8</ele>
        <time>2021-06-03T07:58:37Z</time>
      </trkpt>
      <trkpt lat="41.82943" lon="9.14809">
        <ele>1525.8</ele>
        <time>2021-06-03T07:58:38Z</time>
      </trkpt>
      <trkpt lat="41.82944" lon="9.14809">
        <ele>1525.8</ele>
        <time>2021-06-03T07:58:39Z</time>
      </trkpt>
      <trkpt lat="41.82946" lon="9.14809">
        <ele>1526</ele>
        <time>2021-06-03T07:58:40Z</time>
      </trkpt>
      <trkpt lat="41.82947" lon="9.14809">
        <ele>1526</ele>
        <time>2021-06-03T07:58:41Z</time>
      </trkpt>
      <trkpt lat="41.82949" lon="9.14809">
        <ele>1526</ele>
        <time>2021-06-03T07:58:42Z</time>
      </trkpt>
      <trkpt lat="41.8295" lon="9.14809">
        <ele>1526.4</ele>
        <time>2021-06-03T07:58:43Z</time>
      </trkpt>
      <trkpt lat="41.82952" lon="9.14809">
        <ele>1526.8</ele>
        <time>2021-06-03T07:58:44Z</time>
      </trkpt>
      <trkpt lat="41.82953" lon="9.14809">
        <ele>1526.8</ele>
        <time>2021-06-03T07:58:45Z</time>
      </trkpt>
      <trkpt lat="41.82955" lon="9.14809">
        <ele>1526.8</ele>
        <time>2021-06-03T07:58:46Z</time>
      </trkpt>
      <trkpt lat="41.82956" lon="9.14809">
        <ele>1526.8</ele>
        <time>2021-06-03T07:58:47Z</time>
      </trkpt>
      <trkpt lat="41.82958" lon="9.14809">
        <ele>1527.4</ele>
        <time>2021-06-03T07:58:48Z</time>
      </trkpt>
      <trkpt lat="41.82959" lon="9.14809">
        <ele>1527.4</ele>
        <time>2021-06-03T07:58:49Z</time>
      </trkpt>
      <trkpt lat="41.82961" lon="9.14809">
        <ele>1527.4</ele>
        <time>2021-06-03T07:58:50Z</time>
      </trkpt>
      <trkpt lat="41.82962" lon="9.1481">
        <ele>1527.4</ele>
        <time>2021-06-03T07:58:51Z</time>
      </trkpt>
      <trkpt lat="41.82964" lon="9.1481">
        <ele>1527.6</ele>
        <time>2021-06-03T07:58:52Z</time>
      </trkpt>
      <trkpt lat="41.82966" lon="9.1481">
        <ele>1527.6</ele>
        <time>2021-06-03T07:58:53Z</time>
      </trkpt>
      <trkpt lat="41.82967" lon="9.14811">
        <ele>1527.6</ele>
        <time>2021-06-03T07:58:54Z</time>
      </trkpt>
      <trkpt lat="41.82968" lon="9.14811">
        <ele>1528.2</ele>
        <time>2021-06-03T07:58:55Z</time>
      </trkpt>
      <trkpt lat="41.8297" lon="9.14812">
        <ele>1528.4</ele>
        <time>2021-06-03T07:58:56Z</time>
      </trkpt>
      <trkpt lat="41.82971" lon="9.14812">
        <ele>1528.4</ele>
        <time>2021-06-03T07:58:57Z</time>
      </trkpt>
      <trkpt lat="41.82973" lon="9.14813">
        <ele>1528.4</ele>
        <time>2021-06-03T07:58:58Z</time>
      </trkpt>
      <trkpt lat="41.82974" lon="9.14813">
        <ele>1528.4</ele>
        <time>2021-06-03T07:58:59Z</time>
      </trkpt>
      <trkpt lat="41.82976" lon="9.14814">
        <ele>1528.4</ele>
        <time>2021-06-03T07:59:00Z</time>
      </trkpt>
      <trkpt lat="41.82977" lon="9.14815">
        <ele>1528.4</ele>
        <time>2021-06-03T07:59:01Z</time>
      </trkpt>
      <trkpt lat="41.82978" lon="9.14816">
        <ele>1528.4</ele>
        <time>2021-06-03T07:59:02Z</time>
      </trkpt>
      <trkpt lat="41.8298" lon="9.14817">
        <ele>1528.4</ele>
        <time>2021-06-03T07:59:03Z</time>
      </trkpt>
      <trkpt lat="41.82981" lon="9.14818">
        <ele>1528.8</ele>
        <time>2021-06-03T07:59:04Z</time>
      </trkpt>
      <trkpt lat="41.82983" lon="9.14819">
        <ele>1528.8</ele>
        <time>2021-06-03T07:59:05Z</time>
      </trkpt>
      <trkpt lat="41.82984" lon="9.14821">
        <ele>1528.8</ele>
        <time>2021-06-03T07:59:06Z</time>
      </trkpt>
      <trkpt lat="41.82985" lon="9.14822">
        <ele>1528.8</ele>
        <time>2021-06-03T07:59:07Z</time>
      </trkpt>
      <trkpt lat="41.82987" lon="9.14824">
        <ele>1529.2</ele>
        <time>2021-06-03T07:59:08Z</time>
      </trkpt>
      <trkpt lat="41.82988" lon="9.14825">
        <ele>1529.2</ele>
        <time>2021-06-03T07:59:09Z</time>
      </trkpt>
      <trkpt lat="41.82989" lon="9.14827">
        <ele>1529.2</ele>
        <time>2021-06-03T07:59:10Z</time>
      </trkpt>
      <trkpt lat="41.8299" lon="9.14829">
        <ele>1528.6</ele>
        <time>2021-06-03T07:59:11Z</time>
      </trkpt>
      <trkpt lat="41.82991" lon="9.1483">
        <ele>1528.6</ele>
        <time>2021-06-03T07:59:12Z</time>
      </trkpt>
      <trkpt lat="41.82992" lon="9.14832">
        <ele>1528.6</ele>
        <time>2021-06-03T07:59:13Z</time>
      </trkpt>
      <trkpt lat="41.82993" lon="9.14833">
        <ele>1528.6</ele>
        <time>2021-06-03T07:59:14Z</time>
      </trkpt>
      <trkpt lat="41.82994" lon="9.14834">
        <ele>1528.6</ele>
        <time>2021-06-03T07:59:15Z</time>
      </trkpt>
      <trkpt lat="41.82995" lon="9.14836">
        <ele>1528.6</ele>
        <time>2021-06-03T07:59:16Z</time>
      </trkpt>
      <trkpt lat="41.82996" lon="9.14837">
        <ele>1528.6</ele>
        <time>2021-06-03T07:59:17Z</time>
      </trkpt>
      <trkpt lat="41.82997" lon="9.14839">
        <ele>1528.6</ele>
        <time>2021-06-03T07:59:18Z</time>
      </trkpt>
      <trkpt lat="41.82998" lon="9.14841">
        <ele>1528.6</ele>
        <time>2021-06-03T07:59:19Z</time>
      </trkpt>
      <trkpt lat="41.82999" lon="9.14843">
        <ele>1528.6</ele>
        <time>2021-06-03T07:59:20Z</time>
      </trkpt>
      <trkpt lat="41.83" lon="9.14845">
        <ele>1528.6</ele>
        <time>2021-06-03T07:59:21Z</time>
      </trkpt>
      <trkpt lat="41.83001" lon="9.14847">
        <ele>1528.6</ele>
        <time>2021-06-03T07:59:22Z</time>
      </trkpt>
      <trkpt lat="41.83003" lon="9.14849">
        <ele>1528.6</ele>
        <time>2021-06-03T07:59:23Z</time>
      </trkpt>
      <trkpt lat="41.83004" lon="9.14852">
        <ele>1529.2</ele>
        <time>2021-06-03T07:59:24Z</time>
      </trkpt>
      <trkpt lat="41.83005" lon="9.14854">
        <ele>1529.2</ele>
        <time>2021-06-03T07:59:25Z</time>
      </trkpt>
      <trkpt lat="41.83006" lon="9.14856">
        <ele>1529.2</ele>
        <time>2021-06-03T07:59:26Z</time>
      </trkpt>
      <trkpt lat="41.83007" lon="9.14858">
        <ele>1528.8</ele>
        <time>2021-06-03T07:59:27Z</time>
      </trkpt>
      <trkpt lat="41.83008" lon="9.1486">
        <ele>1528.6</ele>
        <time>2021-06-03T07:59:28Z</time>
      </trkpt>
      <trkpt lat="41.8301" lon="9.14862">
        <ele>1528.6</ele>
        <time>2021-06-03T07:59:29Z</time>
      </trkpt>
      <trkpt lat="41.83011" lon="9.14864">
        <ele>1528.6</ele>
        <time>2021-06-03T07:59:30Z</time>
      </trkpt>
      <trkpt lat="41.83012" lon="9.14866">
        <ele>1528.6</ele>
        <time>2021-06-03T07:59:31Z</time>
      </trkpt>
      <trkpt lat="41.83013" lon="9.14868">
        <ele>1528.8</ele>
        <time>2021-06-03T07:59:32Z</time>
      </trkpt>
      <trkpt lat="41.83015" lon="9.1487">
        <ele>1528.8</ele>
        <time>2021-06-03T07:59:33Z</time>
      </trkpt>
      <trkpt lat="41.83016" lon="9.14872">
        <ele>1528.8</ele>
        <time>2021-06-03T07:59:34Z</time>
      </trkpt>
      <trkpt lat="41.83017" lon="9.14873">
        <ele>1529.4</ele>
        <time>2021-06-03T07:59:35Z</time>
      </trkpt>
      <trkpt lat="41.83018" lon="9.14875">
        <ele>1529.4</ele>
        <time>2021-06-03T07:59:36Z</time>
      </trkpt>
      <trkpt lat="41.83019" lon="9.14875">
        <ele>1529.4</ele>
        <time>2021-06-03T07:59:37Z</time>
      </trkpt>
      <trkpt lat="41.83019" lon="9.14875">
        <ele>1529.4</ele>
        <time>2021-06-03T07:59:38Z</time>
      </trkpt>
      <trkpt lat="41.83024" lon="9.14888">
        <ele>1529.4</ele>
        <time>2021-06-03T08:14:03Z</time>
      </trkpt>
      <trkpt lat="41.83025" lon="9.14891">
        <ele>1529.6</ele>
        <time>2021-06-03T08:14:04Z</time>
      </trkpt>
      <trkpt lat="41.83026" lon="9.14894">
        <ele>1529.6</ele>
        <time>2021-06-03T08:14:05Z</time>
      </trkpt>
      <trkpt lat="41.83027" lon="9.14897">
        <ele>1529.6</ele>
        <time>2021-06-03T08:14:06Z</time>
      </trkpt>
      <trkpt lat="41.83028" lon="9.149">
        <ele>1528.6</ele>
        <time>2021-06-03T08:14:07Z</time>
      </trkpt>
      <trkpt lat="41.83029" lon="9.14903">
        <ele>1528.4</ele>
        <time>2021-06-03T08:14:08Z</time>
      </trkpt>
      <trkpt lat="41.8303" lon="9.14906">
        <ele>1528.4</ele>
        <time>2021-06-03T08:14:09Z</time>
      </trkpt>
      <trkpt lat="41.83032" lon="9.1491">
        <ele>1528.4</ele>
        <time>2021-06-03T08:14:10Z</time>
      </trkpt>
      <trkpt lat="41.83033" lon="9.14913">
        <ele>1528.4</ele>
        <time>2021-06-03T08:14:11Z</time>
      </trkpt>
      <trkpt lat="41.83034" lon="9.14916">
        <ele>1527.8</ele>
        <time>2021-06-03T08:14:12Z</time>
      </trkpt>
      <trkpt lat="41.83034" lon="9.14918">
        <ele>1527.8</ele>
        <time>2021-06-03T08:14:13Z</time>
      </trkpt>
      <trkpt lat="41.83035" lon="9.14921">
        <ele>1527.8</ele>
        <time>2021-06-03T08:14:14Z</time>
      </trkpt>
      <trkpt lat="41.83036" lon="9.14924">
        <ele>1527</ele>
        <time>2021-06-03T08:14:15Z</time>
      </trkpt>
      <trkpt lat="41.83037" lon="9.14928">
        <ele>1526.4</ele>
        <time>2021-06-03T08:14:16Z</time>
      </trkpt>
      <trkpt lat="41.83037" lon="9.14932">
        <ele>1526.4</ele>
        <time>2021-06-03T08:14:17Z</time>
      </trkpt>
      <trkpt lat="41.83038" lon="9.14936">
        <ele>1526.4</ele>
        <time>2021-06-03T08:14:18Z</time>
      </trkpt>
      <trkpt lat="41.83038" lon="9.1494">
        <ele>1525.4</ele>
        <time>2021-06-03T08:14:19Z</time>
      </trkpt>
      <trkpt lat="41.83038" lon="9.14944">
        <ele>1525.2</ele>
        <time>2021-06-03T08:14:20Z</time>
      </trkpt>
      <trkpt lat="41.83039" lon="9.14948">
        <ele>1525.2</ele>
        <time>2021-06-03T08:14:21Z</time>
      </trkpt>
      <trkpt lat="41.83039" lon="9.14952">
        <ele>1525.2</ele>
        <time>2021-06-03T08:14:22Z</time>
      </trkpt>
      <trkpt lat="41.83039" lon="9.14956">
        <ele>1524.2</ele>
        <time>2021-06-03T08:14:23Z</time>
      </trkpt>
      <trkpt lat="41.8304" lon="9.1496">
        <ele>1523.6</ele>
        <time>2021-06-03T08:14:24Z</time>
      </trkpt>
      <trkpt lat="41.83041" lon="9.14965">
        <ele>1523.6</ele>
        <time>2021-06-03T08:14:25Z</time>
      </trkpt>
      <trkpt lat="41.83042" lon="9.14971">
        <ele>1523.6</ele>
        <time>2021-06-03T08:14:26Z</time>
      </trkpt>
      <trkpt lat="41.83043" lon="9.14976">
        <ele>1523.6</ele>
        <time>2021-06-03T08:14:27Z</time>
      </trkpt>
      <trkpt lat="41.83044" lon="9.14982">
        <ele>1522</ele>
        <time>2021-06-03T08:14:28Z</time>
      </trkpt>
      <trkpt lat="41.83045" lon="9.14989">
        <ele>1522</ele>
        <time>2021-06-03T08:14:29Z</time>
      </trkpt>
      <trkpt lat="41.83046" lon="9.14995">
        <ele>1522</ele>
        <time>2021-06-03T08:14:30Z</time>
      </trkpt>
      <trkpt lat="41.83047" lon="9.15002">
        <ele>1521</ele>
        <time>2021-06-03T08:14:31Z</time>
      </trkpt>
      <trkpt lat="41.83048" lon="9.15009">
        <ele>1520</ele>
        <time>2021-06-03T08:14:32Z</time>
      </trkpt>
      <trkpt lat="41.83049" lon="9.15015">
        <ele>1520</ele>
        <time>2021-06-03T08:14:33Z</time>
      </trkpt>
      <trkpt lat="41.8305" lon="9.15021">
        <ele>1520</ele>
        <time>2021-06-03T08:14:34Z</time>
      </trkpt>
      <trkpt lat="41.83051" lon="9.15028">
        <ele>1519</ele>
        <time>2021-06-03T08:14:35Z</time>
      </trkpt>
      <trkpt lat="41.83052" lon="9.15035">
        <ele>1518.4</ele>
        <time>2021-06-03T08:14:36Z</time>
      </trkpt>
      <trkpt lat="41.83053" lon="9.15042">
        <ele>1518.4</ele>
        <time>2021-06-03T08:14:37Z</time>
      </trkpt>
      <trkpt lat="41.83055" lon="9.15049">
        <ele>1518.4</ele>
        <time>2021-06-03T08:14:38Z</time>
      </trkpt>
      <trkpt lat="41.83056" lon="9.15055">
        <ele>1518.4</ele>
        <time>2021-06-03T08:14:39Z</time>
      </trkpt>
      <trkpt lat="41.83058" lon="9.15062">
        <ele>1518.8</ele>
        <time>2021-06-03T08:14:40Z</time>
      </trkpt>
      <trkpt lat="41.8306" lon="9.15068">
        <ele>1518.8</ele>
        <time>2021-06-03T08:14:41Z</time>
      </trkpt>
      <trkpt lat="41.83062" lon="9.15073">
        <ele>1518.8</ele>
        <time>2021-06-03T08:14:42Z</time>
      </trkpt>
      <trkpt lat="41.83064" lon="9.15078">
        <ele>1519.4</ele>
        <time>2021-06-03T08:14:43Z</time>
      </trkpt>
      <trkpt lat="41.83066" lon="9.15083">
        <ele>1519.6</ele>
        <time>2021-06-03T08:14:44Z</time>
      </trkpt>
      <trkpt lat="41.83067" lon="9.15088">
        <ele>1519.6</ele>
        <time>2021-06-03T08:14:45Z</time>
      </trkpt>
      <trkpt lat="41.83068" lon="9.15092">
        <ele>1519.6</ele>
        <time>2021-06-03T08:14:46Z</time>
      </trkpt>
      <trkpt lat="41.83069" lon="9.15095">
        <ele>1519.6</ele>
        <time>2021-06-03T08:14:47Z</time>
      </trkpt>
      <trkpt lat="41.8307" lon="9.15099">
        <ele>1519.8</ele>
        <time>2021-06-03T08:14:48Z</time>
      </trkpt>
      <trkpt lat="41.83071" lon="9.15103">
        <ele>1519.8</ele>
        <time>2021-06-03T08:14:49Z</time>
      </trkpt>
      <trkpt lat="41.83072" lon="9.15106">
        <ele>1519.8</ele>
        <time>2021-06-03T08:14:50Z</time>
      </trkpt>
      <trkpt lat="41.83073" lon="9.1511">
        <ele>1519.8</ele>
        <time>2021-06-03T08:14:51Z</time>
      </trkpt>
      <trkpt lat="41.83074" lon="9.15114">
        <ele>1519.6</ele>
        <time>2021-06-03T08:14:52Z</time>
      </trkpt>
      <trkpt lat="41.83075" lon="9.15117">
        <ele>1519.6</ele>
        <time>2021-06-03T08:14:53Z</time>
      </trkpt>
      <trkpt lat="41.83076" lon="9.15121">
        <ele>1519.6</ele>
        <time>2021-06-03T08:14:54Z</time>
      </trkpt>
      <trkpt lat="41.83077" lon="9.15124">
        <ele>1520.6</ele>
        <time>2021-06-03T08:14:55Z</time>
      </trkpt>
      <trkpt lat="41.83078" lon="9.15128">
        <ele>1520.2</ele>
        <time>2021-06-03T08:14:56Z</time>
      </trkpt>
      <trkpt lat="41.83079" lon="9.15131">
        <ele>1520.2</ele>
        <time>2021-06-03T08:14:57Z</time>
      </trkpt>
      <trkpt lat="41.8308" lon="9.15134">
        <ele>1520.2</ele>
        <time>2021-06-03T08:14:58Z</time>
      </trkpt>
      <trkpt lat="41.83081" lon="9.15138">
        <ele>1520.4</ele>
        <time>2021-06-03T08:14:59Z</time>
      </trkpt>
      <trkpt lat="41.83081" lon="9.15141">
        <ele>1520.6</ele>
        <time>2021-06-03T08:15:00Z</time>
      </trkpt>
      <trkpt lat="41.83082" lon="9.15144">
        <ele>1520.6</ele>
        <time>2021-06-03T08:15:01Z</time>
      </trkpt>
      <trkpt lat="41.83083" lon="9.15148">
        <ele>1520.6</ele>
        <time>2021-06-03T08:15:02Z</time>
      </trkpt>
      <trkpt lat="41.83083" lon="9.15151">
        <ele>1520.6</ele>
        <time>2021-06-03T08:15:03Z</time>
      </trkpt>
      <trkpt lat="41.83084" lon="9.15154">
        <ele>1520.4</ele>
        <time>2021-06-03T08:15:04Z</time>
      </trkpt>
      <trkpt lat="41.83085" lon="9.15157">
        <ele>1520.4</ele>
        <time>2021-06-03T08:15:05Z</time>
      </trkpt>
      <trkpt lat="41.83086" lon="9.1516">
        <ele>1520.4</ele>
        <time>2021-06-03T08:15:06Z</time>
      </trkpt>
      <trkpt lat="41.83087" lon="9.15163">
        <ele>1520.4</ele>
        <time>2021-06-03T08:15:07Z</time>
      </trkpt>
      <trkpt lat="41.83088" lon="9.15166">
        <ele>1520.8</ele>
        <time>2021-06-03T08:15:08Z</time>
      </trkpt>
      <trkpt lat="41.83089" lon="9.1517">
        <ele>1520.8</ele>
        <time>2021-06-03T08:15:09Z</time>
      </trkpt>
      <trkpt lat="41.83091" lon="9.15173">
        <ele>1520.8</ele>
        <time>2021-06-03T08:15:10Z</time>
      </trkpt>
      <trkpt lat="41.83092" lon="9.15177">
        <ele>1520.8</ele>
        <time>2021-06-03T08:15:11Z</time>
      </trkpt>
      <trkpt lat="41.83094" lon="9.1518">
        <ele>1520.6</ele>
        <time>2021-06-03T08:15:12Z</time>
      </trkpt>
      <trkpt lat="41.83096" lon="9.15182">
        <ele>1520.6</ele>
        <time>2021-06-03T08:15:13Z</time>
      </trkpt>
      <trkpt lat="41.83098" lon="9.15185">
        <ele>1520.6</ele>
        <time>2021-06-03T08:15:14Z</time>
      </trkpt>
      <trkpt lat="41.831" lon="9.15187">
        <ele>1520.6</ele>
        <time>2021-06-03T08:15:15Z</time>
      </trkpt>
      <trkpt lat="41.83102" lon="9.15189">
        <ele>1520</ele>
        <time>2021-06-03T08:15:16Z</time>
      </trkpt>
      <trkpt lat="41.83104" lon="9.15191">
        <ele>1520</ele>
        <time>2021-06-03T08:15:17Z</time>
      </trkpt>
      <trkpt lat="41.83107" lon="9.15193">
        <ele>1520</ele>
        <time>2021-06-03T08:15:18Z</time>
      </trkpt>
      <trkpt lat="41.8311" lon="9.15195">
        <ele>1520</ele>
        <time>2021-06-03T08:15:19Z</time>
      </trkpt>
      <trkpt lat="41.83112" lon="9.15197">
        <ele>1520.4</ele>
        <time>2021-06-03T08:15:20Z</time>
      </trkpt>
      <trkpt lat="41.83115" lon="9.15198">
        <ele>1520.4</ele>
        <time>2021-06-03T08:15:21Z</time>
      </trkpt>
      <trkpt lat="41.83118" lon="9.152">
        <ele>1520.4</ele>
        <time>2021-06-03T08:15:22Z</time>
      </trkpt>
      <trkpt lat="41.8312" lon="9.15202">
        <ele>1520.4</ele>
        <time>2021-06-03T08:15:23Z</time>
      </trkpt>
      <trkpt lat="41.83123" lon="9.15203">
        <ele>1520.2</ele>
        <time>2021-06-03T08:15:24Z</time>
      </trkpt>
      <trkpt lat="41.83126" lon="9.15205">
        <ele>1520.2</ele>
        <time>2021-06-03T08:15:25Z</time>
      </trkpt>
      <trkpt lat="41.83128" lon="9.15207">
        <ele>1520.2</ele>
        <time>2021-06-03T08:15:26Z</time>
      </trkpt>
      <trkpt lat="41.83131" lon="9.15209">
        <ele>1520.6</ele>
        <time>2021-06-03T08:15:27Z</time>
      </trkpt>
      <trkpt lat="41.83133" lon="9.1521">
        <ele>1520.2</ele>
        <time>2021-06-03T08:15:28Z</time>
      </trkpt>
      <trkpt lat="41.83136" lon="9.15212">
        <ele>1520.2</ele>
        <time>2021-06-03T08:15:29Z</time>
      </trkpt>
      <trkpt lat="41.83139" lon="9.15213">
        <ele>1520.2</ele>
        <time>2021-06-03T08:15:30Z</time>
      </trkpt>
      <trkpt lat="41.83142" lon="9.15215">
        <ele>1520.2</ele>
        <time>2021-06-03T08:15:31Z</time>
      </trkpt>
      <trkpt lat="41.83145" lon="9.15216">
        <ele>1520.4</ele>
        <time>2021-06-03T08:15:32Z</time>
      </trkpt>
      <trkpt lat="41.83148" lon="9.15217">
        <ele>1520.4</ele>
        <time>2021-06-03T08:15:33Z</time>
      </trkpt>
      <trkpt lat="41.8315" lon="9.15219">
        <ele>1520.4</ele>
        <time>2021-06-03T08:15:34Z</time>
      </trkpt>
      <trkpt lat="41.83153" lon="9.1522">
        <ele>1520.4</ele>
        <time>2021-06-03T08:15:35Z</time>
      </trkpt>
      <trkpt lat="41.83156" lon="9.15222">
        <ele>1520.8</ele>
        <time>2021-06-03T08:15:36Z</time>
      </trkpt>
      <trkpt lat="41.83158" lon="9.15223">
        <ele>1520.8</ele>
        <time>2021-06-03T08:15:37Z</time>
      </trkpt>
      <trkpt lat="41.83161" lon="9.15224">
        <ele>1520.8</ele>
        <time>2021-06-03T08:15:38Z</time>
      </trkpt>
      <trkpt lat="41.83164" lon="9.15226">
        <ele>1520.2</ele>
        <time>2021-06-03T08:15:39Z</time>
      </trkpt>
      <trkpt lat="41.83167" lon="9.15228">
        <ele>1519.4</ele>
        <time>2021-06-03T08:15:40Z</time>
      </trkpt>
      <trkpt lat="41.8317" lon="9.15229">
        <ele>1519.4</ele>
        <time>2021-06-03T08:15:41Z</time>
      </trkpt>
      <trkpt lat="41.83173" lon="9.15231">
        <ele>1519.4</ele>
        <time>2021-06-03T08:15:42Z</time>
      </trkpt>
      <trkpt lat="41.83176" lon="9.15232">
        <ele>1519.4</ele>
        <time>2021-06-03T08:15:43Z</time>
      </trkpt>
      <trkpt lat="41.83179" lon="9.15234">
        <ele>1520</ele>
        <time>2021-06-03T08:15:44Z</time>
      </trkpt>
      <trkpt lat="41.83182" lon="9.15235">
        <ele>1520</ele>
        <time>2021-06-03T08:15:45Z</time>
      </trkpt>
      <trkpt lat="41.83185" lon="9.15237">
        <ele>1520</ele>
        <time>2021-06-03T08:15:46Z</time>
      </trkpt>
      <trkpt lat="41.83188" lon="9.15238">
        <ele>1520.4</ele>
        <time>2021-06-03T08:15:47Z</time>
      </trkpt>
      <trkpt lat="41.83191" lon="9.15239">
        <ele>1520.2</ele>
        <time>2021-06-03T08:15:48Z</time>
      </trkpt>
      <trkpt lat="41.83193" lon="9.1524">
        <ele>1520.2</ele>
        <time>2021-06-03T08:15:49Z</time>
      </trkpt>
      <trkpt lat="41.83196" lon="9.15241">
        <ele>1520.2</ele>
        <time>2021-06-03T08:15:50Z</time>
      </trkpt>
      <trkpt lat="41.83198" lon="9.15243">
        <ele>1520.8</ele>
        <time>2021-06-03T08:15:51Z</time>
      </trkpt>
      <trkpt lat="41.832" lon="9.15244">
        <ele>1520.8</ele>
        <time>2021-06-03T08:15:52Z</time>
      </trkpt>
      <trkpt lat="41.83202" lon="9.15246">
        <ele>1520.8</ele>
        <time>2021-06-03T08:15:53Z</time>
      </trkpt>
      <trkpt lat="41.83204" lon="9.15247">
        <ele>1520.8</ele>
        <time>2021-06-03T08:15:54Z</time>
      </trkpt>
      <trkpt lat="41.83206" lon="9.15249">
        <ele>1520.8</ele>
        <time>2021-06-03T08:15:55Z</time>
      </trkpt>
      <trkpt lat="41.83209" lon="9.1525">
        <ele>1521</ele>
        <time>2021-06-03T08:15:56Z</time>
      </trkpt>
      <trkpt lat="41.83211" lon="9.15252">
        <ele>1521</ele>
        <time>2021-06-03T08:15:57Z</time>
      </trkpt>
      <trkpt lat="41.83213" lon="9.15254">
        <ele>1521</ele>
        <time>2021-06-03T08:15:58Z</time>
      </trkpt>
      <trkpt lat="41.83215" lon="9.15256">
        <ele>1521</ele>
        <time>2021-06-03T08:15:59Z</time>
      </trkpt>
      <trkpt lat="41.83217" lon="9.15258">
        <ele>1520.6</ele>
        <time>2021-06-03T08:16:00Z</time>
      </trkpt>
      <trkpt lat="41.83219" lon="9.1526">
        <ele>1520.6</ele>
        <time>2021-06-03T08:16:01Z</time>
      </trkpt>
      <trkpt lat="41.83221" lon="9.15262">
        <ele>1520.6</ele>
        <time>2021-06-03T08:16:02Z</time>
      </trkpt>
      <trkpt lat="41.83223" lon="9.15264">
        <ele>1520.6</ele>
        <time>2021-06-03T08:16:03Z</time>
      </trkpt>
      <trkpt lat="41.83225" lon="9.15266">
        <ele>1520.8</ele>
        <time>2021-06-03T08:16:04Z</time>
      </trkpt>
      <trkpt lat="41.83227" lon="9.15268">
        <ele>1520.8</ele>
        <time>2021-06-03T08:16:05Z</time>
      </trkpt>
      <trkpt lat="41.83229" lon="9.15271">
        <ele>1520.8</ele>
        <time>2021-06-03T08:16:06Z</time>
      </trkpt>
      <trkpt lat="41.83231" lon="9.15273">
        <ele>1520.8</ele>
        <time>2021-06-03T08:16:07Z</time>
      </trkpt>
      <trkpt lat="41.83233" lon="9.15275">
        <ele>1520.8</ele>
        <time>2021-06-03T08:16:08Z</time>
      </trkpt>
      <trkpt lat="41.83235" lon="9.15277">
        <ele>1520.8</ele>
        <time>2021-06-03T08:16:09Z</time>
      </trkpt>
      <trkpt lat="41.83236" lon="9.15279">
        <ele>1520.8</ele>
        <time>2021-06-03T08:16:10Z</time>
      </trkpt>
      <trkpt lat="41.83238" lon="9.15281">
        <ele>1520.8</ele>
        <time>2021-06-03T08:16:11Z</time>
      </trkpt>
      <trkpt lat="41.8324" lon="9.15283">
        <ele>1521.2</ele>
        <time>2021-06-03T08:16:12Z</time>
      </trkpt>
      <trkpt lat="41.83242" lon="9.15285">
        <ele>1521.2</ele>
        <time>2021-06-03T08:16:13Z</time>
      </trkpt>
      <trkpt lat="41.83243" lon="9.15288">
        <ele>1521.2</ele>
        <time>2021-06-03T08:16:14Z</time>
      </trkpt>
      <trkpt lat="41.83245" lon="9.1529">
        <ele>1520.8</ele>
        <time>2021-06-03T08:16:15Z</time>
      </trkpt>
      <trkpt lat="41.83247" lon="9.15292">
        <ele>1521</ele>
        <time>2021-06-03T08:16:16Z</time>
      </trkpt>
      <trkpt lat="41.83249" lon="9.15294">
        <ele>1521</ele>
        <time>2021-06-03T08:16:17Z</time>
      </trkpt>
      <trkpt lat="41.8325" lon="9.15295">
        <ele>1521</ele>
        <time>2021-06-03T08:16:18Z</time>
      </trkpt>
      <trkpt lat="41.83252" lon="9.15297">
        <ele>1520.8</ele>
        <time>2021-06-03T08:16:19Z</time>
      </trkpt>
      <trkpt lat="41.83254" lon="9.15298">
        <ele>1520.6</ele>
        <time>2021-06-03T08:16:20Z</time>
      </trkpt>
      <trkpt lat="41.83256" lon="9.153">
        <ele>1520.6</ele>
        <time>2021-06-03T08:16:21Z</time>
      </trkpt>
      <trkpt lat="41.83258" lon="9.15301">
        <ele>1520.6</ele>
        <time>2021-06-03T08:16:22Z</time>
      </trkpt>
      <trkpt lat="41.8326" lon="9.15303">
        <ele>1521</ele>
        <time>2021-06-03T08:16:23Z</time>
      </trkpt>
      <trkpt lat="41.83262" lon="9.15305">
        <ele>1521</ele>
        <time>2021-06-03T08:16:24Z</time>
      </trkpt>
      <trkpt lat="41.83264" lon="9.15307">
        <ele>1521</ele>
        <time>2021-06-03T08:16:25Z</time>
      </trkpt>
      <trkpt lat="41.83266" lon="9.15309">
        <ele>1521</ele>
        <time>2021-06-03T08:16:26Z</time>
      </trkpt>
      <trkpt lat="41.83268" lon="9.15311">
        <ele>1521.6</ele>
        <time>2021-06-03T08:16:27Z</time>
      </trkpt>
      <trkpt lat="41.8327" lon="9.15313">
        <ele>1521.2</ele>
        <time>2021-06-03T08:16:28Z</time>
      </trkpt>
      <trkpt lat="41.83271" lon="9.15315">
        <ele>1521.2</ele>
        <time>2021-06-03T08:16:29Z</time>
      </trkpt>
      <trkpt lat="41.83273" lon="9.15316">
        <ele>1521.2</ele>
        <time>2021-06-03T08:16:30Z</time>
      </trkpt>
      <trkpt lat="41.83275" lon="9.15318">
        <ele>1522</ele>
        <time>2021-06-03T08:16:31Z</time>
      </trkpt>
      <trkpt lat="41.83276" lon="9.1532">
        <ele>1522.2</ele>
        <time>2021-06-03T08:16:32Z</time>
      </trkpt>
      <trkpt lat="41.83277" lon="9.15321">
        <ele>1522.2</ele>
        <time>2021-06-03T08:16:33Z</time>
      </trkpt>
      <trkpt lat="41.83279" lon="9.15323">
        <ele>1522.2</ele>
        <time>2021-06-03T08:16:34Z</time>
      </trkpt>
      <trkpt lat="41.8328" lon="9.15325">
        <ele>1522.2</ele>
        <time>2021-06-03T08:16:35Z</time>
      </trkpt>
      <trkpt lat="41.83281" lon="9.15327">
        <ele>1522</ele>
        <time>2021-06-03T08:16:36Z</time>
      </trkpt>
      <trkpt lat="41.83282" lon="9.15328">
        <ele>1522</ele>
        <time>2021-06-03T08:16:37Z</time>
      </trkpt>
      <trkpt lat="41.83284" lon="9.1533">
        <ele>1522</ele>
        <time>2021-06-03T08:16:38Z</time>
      </trkpt>
      <trkpt lat="41.83285" lon="9.15332">
        <ele>1522</ele>
        <time>2021-06-03T08:16:39Z</time>
      </trkpt>
      <trkpt lat="41.83287" lon="9.15333">
        <ele>1522.4</ele>
        <time>2021-06-03T08:16:40Z</time>
      </trkpt>
      <trkpt lat="41.83288" lon="9.15335">
        <ele>1522.4</ele>
        <time>2021-06-03T08:16:41Z</time>
      </trkpt>
      <trkpt lat="41.83289" lon="9.15336">
        <ele>1522.4</ele>
        <time>2021-06-03T08:16:42Z</time>
      </trkpt>
      <trkpt lat="41.83291" lon="9.15337">
        <ele>1522.8</ele>
        <time>2021-06-03T08:16:43Z</time>
      </trkpt>
      <trkpt lat="41.83292" lon="9.15339">
        <ele>1522.4</ele>
        <time>2021-06-03T08:16:44Z</time>
      </trkpt>
      <trkpt lat="41.83294" lon="9.1534">
        <ele>1522.4</ele>
        <time>2021-06-03T08:16:45Z</time>
      </trkpt>
      <trkpt lat="41.83295" lon="9.15341">
        <ele>1522.4</ele>
        <time>2021-06-03T08:16:46Z</time>
      </trkpt>
      <trkpt lat="41.83296" lon="9.15343">
        <ele>1522.6</ele>
        <time>2021-06-03T08:16:47Z</time>
      </trkpt>
      <trkpt lat="41.83298" lon="9.15344">
        <ele>1523.2</ele>
        <time>2021-06-03T08:16:48Z</time>
      </trkpt>
      <trkpt lat="41.83299" lon="9.15346">
        <ele>1523.2</ele>
        <time>2021-06-03T08:16:49Z</time>
      </trkpt>
      <trkpt lat="41.833" lon="9.15347">
        <ele>1523.2</ele>
        <time>2021-06-03T08:16:50Z</time>
      </trkpt>
      <trkpt lat="41.83302" lon="9.15349">
        <ele>1523.2</ele>
        <time>2021-06-03T08:16:51Z</time>
      </trkpt>
      <trkpt lat="41.83303" lon="9.1535">
        <ele>1523.2</ele>
        <time>2021-06-03T08:16:52Z</time>
      </trkpt>
      <trkpt lat="41.83304" lon="9.15352">
        <ele>1523.2</ele>
        <time>2021-06-03T08:16:53Z</time>
      </trkpt>
      <trkpt lat="41.83306" lon="9.15353">
        <ele>1523.2</ele>
        <time>2021-06-03T08:16:54Z</time>
      </trkpt>
      <trkpt lat="41.83307" lon="9.15354">
        <ele>1523.8</ele>
        <time>2021-06-03T08:16:55Z</time>
      </trkpt>
      <trkpt lat="41.83309" lon="9.15355">
        <ele>1523.6</ele>
        <time>2021-06-03T08:16:56Z</time>
      </trkpt>
      <trkpt lat="41.8331" lon="9.15357">
        <ele>1523.6</ele>
        <time>2021-06-03T08:16:57Z</time>
      </trkpt>
      <trkpt lat="41.83311" lon="9.15358">
        <ele>1523.6</ele>
        <time>2021-06-03T08:16:58Z</time>
      </trkpt>
      <trkpt lat="41.83313" lon="9.15359">
        <ele>1523.6</ele>
        <time>2021-06-03T08:16:59Z</time>
      </trkpt>
      <trkpt lat="41.83315" lon="9.15361">
        <ele>1523.6</ele>
        <time>2021-06-03T08:17:00Z</time>
      </trkpt>
      <trkpt lat="41.83316" lon="9.15362">
        <ele>1523.6</ele>
        <time>2021-06-03T08:17:01Z</time>
      </trkpt>
      <trkpt lat="41.83318" lon="9.15363">
        <ele>1523.6</ele>
        <time>2021-06-03T08:17:02Z</time>
      </trkpt>
      <trkpt lat="41.83319" lon="9.15364">
        <ele>1524.6</ele>
        <time>2021-06-03T08:17:03Z</time>
      </trkpt>
      <trkpt lat="41.83321" lon="9.15366">
        <ele>1523.8</ele>
        <time>2021-06-03T08:17:04Z</time>
      </trkpt>
      <trkpt lat="41.83322" lon="9.15367">
        <ele>1523.8</ele>
        <time>2021-06-03T08:17:05Z</time>
      </trkpt>
      <trkpt lat="41.83324" lon="9.15368">
        <ele>1523.8</ele>
        <time>2021-06-03T08:17:06Z</time>
      </trkpt>
      <trkpt lat="41.83325" lon="9.15369">
        <ele>1523.8</ele>
        <time>2021-06-03T08:17:07Z</time>
      </trkpt>
      <trkpt lat="41.83327" lon="9.15371">
        <ele>1524.2</ele>
        <time>2021-06-03T08:17:08Z</time>
      </trkpt>
      <trkpt lat="41.83328" lon="9.15372">
        <ele>1524.2</ele>
        <time>2021-06-03T08:17:09Z</time>
      </trkpt>
      <trkpt lat="41.8333" lon="9.15373">
        <ele>1524.2</ele>
        <time>2021-06-03T08:17:10Z</time>
      </trkpt>
      <trkpt lat="41.83331" lon="9.15375">
        <ele>1524.6</ele>
        <time>2021-06-03T08:17:11Z</time>
      </trkpt>
      <trkpt lat="41.83332" lon="9.15376">
        <ele>1524.8</ele>
        <time>2021-06-03T08:17:12Z</time>
      </trkpt>
      <trkpt lat="41.83334" lon="9.15378">
        <ele>1524.8</ele>
        <time>2021-06-03T08:17:13Z</time>
      </trkpt>
      <trkpt lat="41.83335" lon="9.15379">
        <ele>1524.8</ele>
        <time>2021-06-03T08:17:14Z</time>
      </trkpt>
      <trkpt lat="41.83336" lon="9.15381">
        <ele>1524.8</ele>
        <time>2021-06-03T08:17:15Z</time>
      </trkpt>
      <trkpt lat="41.83337" lon="9.15382">
        <ele>1524.8</ele>
        <time>2021-06-03T08:17:16Z</time>
      </trkpt>
      <trkpt lat="41.83338" lon="9.15384">
        <ele>1524.8</ele>
        <time>2021-06-03T08:17:17Z</time>
      </trkpt>
      <trkpt lat="41.83339" lon="9.15386">
        <ele>1524.8</ele>
        <time>2021-06-03T08:17:18Z</time>
      </trkpt>
      <trkpt lat="41.8334" lon="9.15388">
        <ele>1525.2</ele>
        <time>2021-06-03T08:17:19Z</time>
      </trkpt>
      <trkpt lat="41.83341" lon="9.15389">
        <ele>1525.6</ele>
        <time>2021-06-03T08:17:20Z</time>
      </trkpt>
      <trkpt lat="41.83342" lon="9.15391">
        <ele>1525.6</ele>
        <time>2021-06-03T08:17:21Z</time>
      </trkpt>
      <trkpt lat="41.83342" lon="9.15393">
        <ele>1525.6</ele>
        <time>2021-06-03T08:17:22Z</time>
      </trkpt>
      <trkpt lat="41.83343" lon="9.15395">
        <ele>1525.6</ele>
        <time>2021-06-03T08:17:23Z</time>
      </trkpt>
      <trkpt lat="41.83344" lon="9.15397">
        <ele>1526.2</ele>
        <time>2021-06-03T08:17:24Z</time>
      </trkpt>
      <trkpt lat="41.83345" lon="9.15399">
        <ele>1526.2</ele>
        <time>2021-06-03T08:17:25Z</time>
      </trkpt>
      <trkpt lat="41.83346" lon="9.15401">
        <ele>1526.2</ele>
        <time>2021-06-03T08:17:26Z</time>
      </trkpt>
      <trkpt lat="41.83346" lon="9.15403">
        <ele>1526.2</ele>
        <time>2021-06-03T08:17:27Z</time>
      </trkpt>
      <trkpt lat="41.83347" lon="9.15404">
        <ele>1526</ele>
        <time>2021-06-03T08:17:28Z</time>
      </trkpt>
      <trkpt lat="41.83348" lon="9.15406">
        <ele>1526</ele>
        <time>2021-06-03T08:17:29Z</time>
      </trkpt>
      <trkpt lat="41.83349" lon="9.15408">
        <ele>1526</ele>
        <time>2021-06-03T08:17:30Z</time>
      </trkpt>
      <trkpt lat="41.8335" lon="9.1541">
        <ele>1526.8</ele>
        <time>2021-06-03T08:17:31Z</time>
      </trkpt>
      <trkpt lat="41.83351" lon="9.15412">
        <ele>1526.6</ele>
        <time>2021-06-03T08:17:32Z</time>
      </trkpt>
      <trkpt lat="41.83352" lon="9.15413">
        <ele>1526.6</ele>
        <time>2021-06-03T08:17:33Z</time>
      </trkpt>
      <trkpt lat="41.83353" lon="9.15415">
        <ele>1526.6</ele>
        <time>2021-06-03T08:17:34Z</time>
      </trkpt>
      <trkpt lat="41.83355" lon="9.15417">
        <ele>1526.6</ele>
        <time>2021-06-03T08:17:35Z</time>
      </trkpt>
      <trkpt lat="41.83356" lon="9.15419">
        <ele>1527.2</ele>
        <time>2021-06-03T08:17:36Z</time>
      </trkpt>
      <trkpt lat="41.83357" lon="9.15421">
        <ele>1527.2</ele>
        <time>2021-06-03T08:17:37Z</time>
      </trkpt>
      <trkpt lat="41.83358" lon="9.15423">
        <ele>1527.2</ele>
        <time>2021-06-03T08:17:38Z</time>
      </trkpt>
      <trkpt lat="41.83359" lon="9.15425">
        <ele>1527.2</ele>
        <time>2021-06-03T08:17:39Z</time>
      </trkpt>
      <trkpt lat="41.8336" lon="9.15427">
        <ele>1527.6</ele>
        <time>2021-06-03T08:17:40Z</time>
      </trkpt>
      <trkpt lat="41.83362" lon="9.15429">
        <ele>1527.6</ele>
        <time>2021-06-03T08:17:41Z</time>
      </trkpt>
      <trkpt lat="41.83363" lon="9.1543">
        <ele>1527.6</ele>
        <time>2021-06-03T08:17:42Z</time>
      </trkpt>
      <trkpt lat="41.83364" lon="9.15432">
        <ele>1527.6</ele>
        <time>2021-06-03T08:17:43Z</time>
      </trkpt>
      <trkpt lat="41.83366" lon="9.15434">
        <ele>1527.8</ele>
        <time>2021-06-03T08:17:44Z</time>
      </trkpt>
      <trkpt lat="41.83367" lon="9.15436">
        <ele>1527.8</ele>
        <time>2021-06-03T08:17:45Z</time>
      </trkpt>
      <trkpt lat="41.83369" lon="9.15438">
        <ele>1527.8</ele>
        <time>2021-06-03T08:17:46Z</time>
      </trkpt>
      <trkpt lat="41.8337" lon="9.1544">
        <ele>1527.8</ele>
        <time>2021-06-03T08:17:47Z</time>
      </trkpt>
      <trkpt lat="41.83371" lon="9.15441">
        <ele>1528</ele>
        <time>2021-06-03T08:17:48Z</time>
      </trkpt>
      <trkpt lat="41.83373" lon="9.15443">
        <ele>1528</ele>
        <time>2021-06-03T08:17:49Z</time>
      </trkpt>
      <trkpt lat="41.83374" lon="9.15445">
        <ele>1528</ele>
        <time>2021-06-03T08:17:50Z</time>
      </trkpt>
      <trkpt lat="41.83375" lon="9.15448">
        <ele>1528</ele>
        <time>2021-06-03T08:17:51Z</time>
      </trkpt>
      <trkpt lat="41.83377" lon="9.1545">
        <ele>1528</ele>
        <time>2021-06-03T08:17:52Z</time>
      </trkpt>
      <trkpt lat="41.83378" lon="9.15452">
        <ele>1528</ele>
        <time>2021-06-03T08:17:53Z</time>
      </trkpt>
      <trkpt lat="41.8338" lon="9.15454">
        <ele>1528</ele>
        <time>2021-06-03T08:17:54Z</time>
      </trkpt>
      <trkpt lat="41.83381" lon="9.15457">
        <ele>1528</ele>
        <time>2021-06-03T08:17:55Z</time>
      </trkpt>
      <trkpt lat="41.83382" lon="9.15459">
        <ele>1528</ele>
        <time>2021-06-03T08:17:56Z</time>
      </trkpt>
      <trkpt lat="41.83383" lon="9.15462">
        <ele>1528</ele>
        <time>2021-06-03T08:17:57Z</time>
      </trkpt>
      <trkpt lat="41.83384" lon="9.15464">
        <ele>1528</ele>
        <time>2021-06-03T08:17:58Z</time>
      </trkpt>
      <trkpt lat="41.83385" lon="9.15466">
        <ele>1528</ele>
        <time>2021-06-03T08:17:59Z</time>
      </trkpt>
      <trkpt lat="41.83386" lon="9.15469">
        <ele>1527.2</ele>
        <time>2021-06-03T08:18:00Z</time>
      </trkpt>
      <trkpt lat="41.83388" lon="9.15471">
        <ele>1527.2</ele>
        <time>2021-06-03T08:18:01Z</time>
      </trkpt>
      <trkpt lat="41.83389" lon="9.15473">
        <ele>1527.2</ele>
        <time>2021-06-03T08:18:02Z</time>
      </trkpt>
      <trkpt lat="41.8339" lon="9.15475">
        <ele>1527.8</ele>
        <time>2021-06-03T08:18:03Z</time>
      </trkpt>
      <trkpt lat="41.83391" lon="9.15477">
        <ele>1528.6</ele>
        <time>2021-06-03T08:18:04Z</time>
      </trkpt>
      <trkpt lat="41.83392" lon="9.1548">
        <ele>1528.6</ele>
        <time>2021-06-03T08:18:05Z</time>
      </trkpt>
      <trkpt lat="41.83393" lon="9.15482">
        <ele>1528.6</ele>
        <time>2021-06-03T08:18:06Z</time>
      </trkpt>
      <trkpt lat="41.83394" lon="9.15484">
        <ele>1528</ele>
        <time>2021-06-03T08:18:07Z</time>
      </trkpt>
      <trkpt lat="41.83395" lon="9.15487">
        <ele>1528</ele>
        <time>2021-06-03T08:18:08Z</time>
      </trkpt>
      <trkpt lat="41.83397" lon="9.15489">
        <ele>1528</ele>
        <time>2021-06-03T08:18:09Z</time>
      </trkpt>
      <trkpt lat="41.83398" lon="9.15491">
        <ele>1528</ele>
        <time>2021-06-03T08:18:10Z</time>
      </trkpt>
      <trkpt lat="41.83399" lon="9.15494">
        <ele>1528</ele>
        <time>2021-06-03T08:18:11Z</time>
      </trkpt>
      <trkpt lat="41.83401" lon="9.15496">
        <ele>1528</ele>
        <time>2021-06-03T08:18:12Z</time>
      </trkpt>
      <trkpt lat="41.83402" lon="9.15499">
        <ele>1528</ele>
        <time>2021-06-03T08:18:13Z</time>
      </trkpt>
      <trkpt lat="41.83403" lon="9.15501">
        <ele>1528</ele>
        <time>2021-06-03T08:18:14Z</time>
      </trkpt>
      <trkpt lat="41.83404" lon="9.15504">
        <ele>1528</ele>
        <time>2021-06-03T08:18:15Z</time>
      </trkpt>
      <trkpt lat="41.83405" lon="9.15506">
        <ele>1527.6</ele>
        <time>2021-06-03T08:18:16Z</time>
      </trkpt>
      <trkpt lat="41.83407" lon="9.15509">
        <ele>1527.6</ele>
        <time>2021-06-03T08:18:17Z</time>
      </trkpt>
      <trkpt lat="41.83408" lon="9.15511">
        <ele>1527.6</ele>
        <time>2021-06-03T08:18:18Z</time>
      </trkpt>
      <trkpt lat="41.83409" lon="9.15513">
        <ele>1527.8</ele>
        <time>2021-06-03T08:18:19Z</time>
      </trkpt>
      <trkpt lat="41.8341" lon="9.15516">
        <ele>1528</ele>
        <time>2021-06-03T08:18:20Z</time>
      </trkpt>
      <trkpt lat="41.83412" lon="9.15518">
        <ele>1528</ele>
        <time>2021-06-03T08:18:21Z</time>
      </trkpt>
      <trkpt lat="41.83413" lon="9.15521">
        <ele>1528</ele>
        <time>2021-06-03T08:18:22Z</time>
      </trkpt>
      <trkpt lat="41.83414" lon="9.15523">
        <ele>1528</ele>
        <time>2021-06-03T08:18:23Z</time>
      </trkpt>
      <trkpt lat="41.83415" lon="9.15526">
        <ele>1528.2</ele>
        <time>2021-06-03T08:18:24Z</time>
      </trkpt>
      <trkpt lat="41.83416" lon="9.15529">
        <ele>1528.2</ele>
        <time>2021-06-03T08:18:25Z</time>
      </trkpt>
      <trkpt lat="41.83417" lon="9.15531">
        <ele>1528.2</ele>
        <time>2021-06-03T08:18:26Z</time>
      </trkpt>
      <trkpt lat="41.83418" lon="9.15534">
        <ele>1528.2</ele>
        <time>2021-06-03T08:18:27Z</time>
      </trkpt>
      <trkpt lat="41.83419" lon="9.15536">
        <ele>1528.6</ele>
        <time>2021-06-03T08:18:28Z</time>
      </trkpt>
      <trkpt lat="41.8342" lon="9.15539">
        <ele>1528.6</ele>
        <time>2021-06-03T08:18:29Z</time>
      </trkpt>
      <trkpt lat="41.83421" lon="9.15541">
        <ele>1528.6</ele>
        <time>2021-06-03T08:18:30Z</time>
      </trkpt>
      <trkpt lat="41.83421" lon="9.15544">
        <ele>1528.6</ele>
        <time>2021-06-03T08:18:31Z</time>
      </trkpt>
      <trkpt lat="41.83422" lon="9.15547">
        <ele>1528.6</ele>
        <time>2021-06-03T08:18:32Z</time>
      </trkpt>
      <trkpt lat="41.83423" lon="9.1555">
        <ele>1528.6</ele>
        <time>2021-06-03T08:18:33Z</time>
      </trkpt>
      <trkpt lat="41.83423" lon="9.15552">
        <ele>1528.6</ele>
        <time>2021-06-03T08:18:34Z</time>
      </trkpt>
      <trkpt lat="41.83424" lon="9.15555">
        <ele>1528.6</ele>
        <time>2021-06-03T08:18:35Z</time>
      </trkpt>
      <trkpt lat="41.83424" lon="9.15558">
        <ele>1528.6</ele>
        <time>2021-06-03T08:18:36Z</time>
      </trkpt>
      <trkpt lat="41.83425" lon="9.15561">
        <ele>1528.6</ele>
        <time>2021-06-03T08:18:37Z</time>
      </trkpt>
      <trkpt lat="41.83426" lon="9.15564">
        <ele>1528.6</ele>
        <time>2021-06-03T08:18:38Z</time>
      </trkpt>
      <trkpt lat="41.83426" lon="9.15567">
        <ele>1528.6</ele>
        <time>2021-06-03T08:18:39Z</time>
      </trkpt>
      <trkpt lat="41.83427" lon="9.1557">
        <ele>1528.4</ele>
        <time>2021-06-03T08:18:40Z</time>
      </trkpt>
      <trkpt lat="41.83427" lon="9.15573">
        <ele>1528.4</ele>
        <time>2021-06-03T08:18:41Z</time>
      </trkpt>
      <trkpt lat="41.83427" lon="9.15575">
        <ele>1528.4</ele>
        <time>2021-06-03T08:18:42Z</time>
      </trkpt>
      <trkpt lat="41.83427" lon="9.15578">
        <ele>1528.4</ele>
        <time>2021-06-03T08:18:43Z</time>
      </trkpt>
      <trkpt lat="41.83427" lon="9.15581">
        <ele>1528.6</ele>
        <time>2021-06-03T08:18:44Z</time>
      </trkpt>
      <trkpt lat="41.83428" lon="9.15584">
        <ele>1528.6</ele>
        <time>2021-06-03T08:18:45Z</time>
      </trkpt>
      <trkpt lat="41.83428" lon="9.15587">
        <ele>1528.6</ele>
        <time>2021-06-03T08:18:46Z</time>
      </trkpt>
      <trkpt lat="41.83428" lon="9.1559">
        <ele>1528.6</ele>
        <time>2021-06-03T08:18:47Z</time>
      </trkpt>
      <trkpt lat="41.83428" lon="9.15593">
        <ele>1528.6</ele>
        <time>2021-06-03T08:18:48Z</time>
      </trkpt>
      <trkpt lat="41.83429" lon="9.15595">
        <ele>1528.6</ele>
        <time>2021-06-03T08:18:49Z</time>
      </trkpt>
      <trkpt lat="41.83429" lon="9.15598">
        <ele>1528.6</ele>
        <time>2021-06-03T08:18:50Z</time>
      </trkpt>
      <trkpt lat="41.83429" lon="9.15601">
        <ele>1528.6</ele>
        <time>2021-06-03T08:18:51Z</time>
      </trkpt>
      <trkpt lat="41.83429" lon="9.15604">
        <ele>1528.6</ele>
        <time>2021-06-03T08:18:52Z</time>
      </trkpt>
      <trkpt lat="41.83429" lon="9.15607">
        <ele>1528.6</ele>
        <time>2021-06-03T08:18:53Z</time>
      </trkpt>
      <trkpt lat="41.83429" lon="9.1561">
        <ele>1528.6</ele>
        <time>2021-06-03T08:18:54Z</time>
      </trkpt>
      <trkpt lat="41.83429" lon="9.15612">
        <ele>1529.6</ele>
        <time>2021-06-03T08:18:55Z</time>
      </trkpt>
      <trkpt lat="41.8343" lon="9.15615">
        <ele>1529.4</ele>
        <time>2021-06-03T08:18:56Z</time>
      </trkpt>
      <trkpt lat="41.8343" lon="9.15618">
        <ele>1529.4</ele>
        <time>2021-06-03T08:18:57Z</time>
      </trkpt>
      <trkpt lat="41.8343" lon="9.15621">
        <ele>1529.4</ele>
        <time>2021-06-03T08:18:58Z</time>
      </trkpt>
      <trkpt lat="41.8343" lon="9.15623">
        <ele>1529.4</ele>
        <time>2021-06-03T08:18:59Z</time>
      </trkpt>
      <trkpt lat="41.8343" lon="9.15626">
        <ele>1529</ele>
        <time>2021-06-03T08:19:00Z</time>
      </trkpt>
      <trkpt lat="41.8343" lon="9.15629">
        <ele>1529</ele>
        <time>2021-06-03T08:19:01Z</time>
      </trkpt>
      <trkpt lat="41.8343" lon="9.15631">
        <ele>1529</ele>
        <time>2021-06-03T08:19:02Z</time>
      </trkpt>
      <trkpt lat="41.83429" lon="9.15634">
        <ele>1529</ele>
        <time>2021-06-03T08:19:03Z</time>
      </trkpt>
      <trkpt lat="41.83429" lon="9.15637">
        <ele>1529.4</ele>
        <time>2021-06-03T08:19:04Z</time>
      </trkpt>
      <trkpt lat="41.83429" lon="9.1564">
        <ele>1529.4</ele>
        <time>2021-06-03T08:19:05Z</time>
      </trkpt>
      <trkpt lat="41.83429" lon="9.15642">
        <ele>1529.4</ele>
        <time>2021-06-03T08:19:06Z</time>
      </trkpt>
      <trkpt lat="41.83429" lon="9.15644">
        <ele>1529.4</ele>
        <time>2021-06-03T08:19:07Z</time>
      </trkpt>
      <trkpt lat="41.83429" lon="9.15647">
        <ele>1529.4</ele>
        <time>2021-06-03T08:19:08Z</time>
      </trkpt>
      <trkpt lat="41.83429" lon="9.15649">
        <ele>1529.4</ele>
        <time>2021-06-03T08:19:09Z</time>
      </trkpt>
      <trkpt lat="41.83429" lon="9.15651">
        <ele>1529.4</ele>
        <time>2021-06-03T08:19:10Z</time>
      </trkpt>
      <trkpt lat="41.8343" lon="9.15653">
        <ele>1529.4</ele>
        <time>2021-06-03T08:19:11Z</time>
      </trkpt>
      <trkpt lat="41.83431" lon="9.15655">
        <ele>1528.8</ele>
        <time>2021-06-03T08:19:12Z</time>
      </trkpt>
      <trkpt lat="41.83431" lon="9.15656">
        <ele>1528.8</ele>
        <time>2021-06-03T08:19:13Z</time>
      </trkpt>
      <trkpt lat="41.83432" lon="9.15658">
        <ele>1528.8</ele>
        <time>2021-06-03T08:19:14Z</time>
      </trkpt>
      <trkpt lat="41.83433" lon="9.15659">
        <ele>1528.8</ele>
        <time>2021-06-03T08:19:15Z</time>
      </trkpt>
      <trkpt lat="41.83434" lon="9.15661">
        <ele>1528.6</ele>
        <time>2021-06-03T08:19:16Z</time>
      </trkpt>
      <trkpt lat="41.83435" lon="9.15662">
        <ele>1528.6</ele>
        <time>2021-06-03T08:19:17Z</time>
      </trkpt>
      <trkpt lat="41.83436" lon="9.15663">
        <ele>1528.6</ele>
        <time>2021-06-03T08:19:18Z</time>
      </trkpt>
      <trkpt lat="41.83437" lon="9.15664">
        <ele>1528.8</ele>
        <time>2021-06-03T08:19:19Z</time>
      </trkpt>
      <trkpt lat="41.83438" lon="9.15666">
        <ele>1528.8</ele>
        <time>2021-06-03T08:19:20Z</time>
      </trkpt>
      <trkpt lat="41.8344" lon="9.15667">
        <ele>1528.8</ele>
        <time>2021-06-03T08:19:21Z</time>
      </trkpt>
      <trkpt lat="41.83441" lon="9.15668">
        <ele>1528.8</ele>
        <time>2021-06-03T08:19:22Z</time>
      </trkpt>
      <trkpt lat="41.83442" lon="9.15669">
        <ele>1529.2</ele>
        <time>2021-06-03T08:19:23Z</time>
      </trkpt>
      <trkpt lat="41.83444" lon="9.1567">
        <ele>1529.2</ele>
        <time>2021-06-03T08:19:24Z</time>
      </trkpt>
      <trkpt lat="41.83446" lon="9.15671">
        <ele>1529.2</ele>
        <time>2021-06-03T08:19:25Z</time>
      </trkpt>
      <trkpt lat="41.83447" lon="9.15671">
        <ele>1529.2</ele>
        <time>2021-06-03T08:19:26Z</time>
      </trkpt>
      <trkpt lat="41.83449" lon="9.15672">
        <ele>1529.2</ele>
        <time>2021-06-03T08:19:27Z</time>
      </trkpt>
      <trkpt lat="41.8345" lon="9.15673">
        <ele>1529.4</ele>
        <time>2021-06-03T08:19:28Z</time>
      </trkpt>
      <trkpt lat="41.83452" lon="9.15674">
        <ele>1529.4</ele>
        <time>2021-06-03T08:19:29Z</time>
      </trkpt>
      <trkpt lat="41.83454" lon="9.15674">
        <ele>1529.4</ele>
        <time>2021-06-03T08:19:30Z</time>
      </trkpt>
      <trkpt lat="41.83455" lon="9.15675">
        <ele>1529.6</ele>
        <time>2021-06-03T08:19:31Z</time>
      </trkpt>
      <trkpt lat="41.83457" lon="9.15676">
        <ele>1529.6</ele>
        <time>2021-06-03T08:19:32Z</time>
      </trkpt>
      <trkpt lat="41.83459" lon="9.15677">
        <ele>1529.6</ele>
        <time>2021-06-03T08:19:33Z</time>
      </trkpt>
      <trkpt lat="41.8346" lon="9.15677">
        <ele>1529.6</ele>
        <time>2021-06-03T08:19:34Z</time>
      </trkpt>
      <trkpt lat="41.83462" lon="9.15677">
        <ele>1529.6</ele>
        <time>2021-06-03T08:19:35Z</time>
      </trkpt>
      <trkpt lat="41.83463" lon="9.15678">
        <ele>1530</ele>
        <time>2021-06-03T08:19:36Z</time>
      </trkpt>
      <trkpt lat="41.83465" lon="9.15679">
        <ele>1530</ele>
        <time>2021-06-03T08:19:37Z</time>
      </trkpt>
      <trkpt lat="41.83466" lon="9.15679">
        <ele>1530</ele>
        <time>2021-06-03T08:19:38Z</time>
      </trkpt>
      <trkpt lat="41.83468" lon="9.1568">
        <ele>1530</ele>
        <time>2021-06-03T08:19:39Z</time>
      </trkpt>
      <trkpt lat="41.83469" lon="9.15681">
        <ele>1530.6</ele>
        <time>2021-06-03T08:19:40Z</time>
      </trkpt>
      <trkpt lat="41.83471" lon="9.15681">
        <ele>1530.6</ele>
        <time>2021-06-03T08:19:41Z</time>
      </trkpt>
      <trkpt lat="41.83473" lon="9.15682">
        <ele>1530.6</ele>
        <time>2021-06-03T08:19:42Z</time>
      </trkpt>
      <trkpt lat="41.83474" lon="9.15683">
        <ele>1531.4</ele>
        <time>2021-06-03T08:19:43Z</time>
      </trkpt>
      <trkpt lat="41.83476" lon="9.15684">
        <ele>1530.8</ele>
        <time>2021-06-03T08:19:44Z</time>
      </trkpt>
      <trkpt lat="41.83477" lon="9.15685">
        <ele>1530.8</ele>
        <time>2021-06-03T08:19:45Z</time>
      </trkpt>
      <trkpt lat="41.83478" lon="9.15686">
        <ele>1530.8</ele>
        <time>2021-06-03T08:19:46Z</time>
      </trkpt>
      <trkpt lat="41.83479" lon="9.15688">
        <ele>1531.8</ele>
        <time>2021-06-03T08:19:47Z</time>
      </trkpt>
      <trkpt lat="41.8348" lon="9.15689">
        <ele>1532.2</ele>
        <time>2021-06-03T08:19:48Z</time>
      </trkpt>
      <trkpt lat="41.83482" lon="9.15691">
        <ele>1532.2</ele>
        <time>2021-06-03T08:19:49Z</time>
      </trkpt>
      <trkpt lat="41.83483" lon="9.15693">
        <ele>1532.2</ele>
        <time>2021-06-03T08:19:50Z</time>
      </trkpt>
      <trkpt lat="41.83484" lon="9.15695">
        <ele>1533</ele>
        <time>2021-06-03T08:19:51Z</time>
      </trkpt>
      <trkpt lat="41.83484" lon="9.15697">
        <ele>1533.2</ele>
        <time>2021-06-03T08:19:52Z</time>
      </trkpt>
      <trkpt lat="41.83485" lon="9.15699">
        <ele>1533.2</ele>
        <time>2021-06-03T08:19:53Z</time>
      </trkpt>
      <trkpt lat="41.83485" lon="9.15701">
        <ele>1533.2</ele>
        <time>2021-06-03T08:19:54Z</time>
      </trkpt>
      <trkpt lat="41.83485" lon="9.15703">
        <ele>1533.2</ele>
        <time>2021-06-03T08:19:55Z</time>
      </trkpt>
      <trkpt lat="41.83485" lon="9.15704">
        <ele>1534.2</ele>
        <time>2021-06-03T08:19:56Z</time>
      </trkpt>
      <trkpt lat="41.83485" lon="9.15706">
        <ele>1534.2</ele>
        <time>2021-06-03T08:19:57Z</time>
      </trkpt>
      <trkpt lat="41.83485" lon="9.15708">
        <ele>1534.2</ele>
        <time>2021-06-03T08:19:58Z</time>
      </trkpt>
      <trkpt lat="41.83486" lon="9.1571">
        <ele>1534.2</ele>
        <time>2021-06-03T08:19:59Z</time>
      </trkpt>
      <trkpt lat="41.83486" lon="9.15712">
        <ele>1534.4</ele>
        <time>2021-06-03T08:20:00Z</time>
      </trkpt>
      <trkpt lat="41.83486" lon="9.15713">
        <ele>1534.4</ele>
        <time>2021-06-03T08:20:01Z</time>
      </trkpt>
      <trkpt lat="41.83486" lon="9.15715">
        <ele>1534.4</ele>
        <time>2021-06-03T08:20:02Z</time>
      </trkpt>
      <trkpt lat="41.83487" lon="9.15717">
        <ele>1534.4</ele>
        <time>2021-06-03T08:20:03Z</time>
      </trkpt>
      <trkpt lat="41.83487" lon="9.15719">
        <ele>1535.2</ele>
        <time>2021-06-03T08:20:04Z</time>
      </trkpt>
      <trkpt lat="41.83487" lon="9.15721">
        <ele>1535.2</ele>
        <time>2021-06-03T08:20:05Z</time>
      </trkpt>
      <trkpt lat="41.83487" lon="9.15723">
        <ele>1535.2</ele>
        <time>2021-06-03T08:20:06Z</time>
      </trkpt>
      <trkpt lat="41.83487" lon="9.15725">
        <ele>1535.2</ele>
        <time>2021-06-03T08:20:07Z</time>
      </trkpt>
      <trkpt lat="41.83487" lon="9.15727">
        <ele>1535.4</ele>
        <time>2021-06-03T08:20:08Z</time>
      </trkpt>
      <trkpt lat="41.83488" lon="9.15728">
        <ele>1535.4</ele>
        <time>2021-06-03T08:20:09Z</time>
      </trkpt>
      <trkpt lat="41.83488" lon="9.1573">
        <ele>1535.4</ele>
        <time>2021-06-03T08:20:10Z</time>
      </trkpt>
      <trkpt lat="41.83489" lon="9.15732">
        <ele>1535.4</ele>
        <time>2021-06-03T08:20:11Z</time>
      </trkpt>
      <trkpt lat="41.83489" lon="9.15733">
        <ele>1536</ele>
        <time>2021-06-03T08:20:12Z</time>
      </trkpt>
      <trkpt lat="41.83489" lon="9.15735">
        <ele>1536</ele>
        <time>2021-06-03T08:20:13Z</time>
      </trkpt>
      <trkpt lat="41.8349" lon="9.15736">
        <ele>1536</ele>
        <time>2021-06-03T08:20:14Z</time>
      </trkpt>
      <trkpt lat="41.8349" lon="9.15738">
        <ele>1536</ele>
        <time>2021-06-03T08:20:15Z</time>
      </trkpt>
      <trkpt lat="41.83491" lon="9.15739">
        <ele>1536.8</ele>
        <time>2021-06-03T08:20:16Z</time>
      </trkpt>
      <trkpt lat="41.83492" lon="9.15741">
        <ele>1536.8</ele>
        <time>2021-06-03T08:20:17Z</time>
      </trkpt>
      <trkpt lat="41.83492" lon="9.15742">
        <ele>1536.8</ele>
        <time>2021-06-03T08:20:18Z</time>
      </trkpt>
      <trkpt lat="41.83493" lon="9.15744">
        <ele>1536.8</ele>
        <time>2021-06-03T08:20:19Z</time>
      </trkpt>
      <trkpt lat="41.83493" lon="9.15745">
        <ele>1537</ele>
        <time>2021-06-03T08:20:20Z</time>
      </trkpt>
      <trkpt lat="41.83494" lon="9.15747">
        <ele>1537</ele>
        <time>2021-06-03T08:20:21Z</time>
      </trkpt>
      <trkpt lat="41.83495" lon="9.15748">
        <ele>1537</ele>
        <time>2021-06-03T08:20:22Z</time>
      </trkpt>
      <trkpt lat="41.83496" lon="9.15749">
        <ele>1537.6</ele>
        <time>2021-06-03T08:20:23Z</time>
      </trkpt>
      <trkpt lat="41.83496" lon="9.15751">
        <ele>1537.8</ele>
        <time>2021-06-03T08:20:24Z</time>
      </trkpt>
      <trkpt lat="41.83497" lon="9.15752">
        <ele>1537.8</ele>
        <time>2021-06-03T08:20:25Z</time>
      </trkpt>
      <trkpt lat="41.83497" lon="9.15754">
        <ele>1537.8</ele>
        <time>2021-06-03T08:20:26Z</time>
      </trkpt>
      <trkpt lat="41.83498" lon="9.15756">
        <ele>1537.8</ele>
        <time>2021-06-03T08:20:27Z</time>
      </trkpt>
      <trkpt lat="41.83499" lon="9.15757">
        <ele>1538</ele>
        <time>2021-06-03T08:20:28Z</time>
      </trkpt>
      <trkpt lat="41.83499" lon="9.15759">
        <ele>1538</ele>
        <time>2021-06-03T08:20:29Z</time>
      </trkpt>
      <trkpt lat="41.835" lon="9.15761">
        <ele>1538</ele>
        <time>2021-06-03T08:20:30Z</time>
      </trkpt>
      <trkpt lat="41.83501" lon="9.15762">
        <ele>1538.6</ele>
        <time>2021-06-03T08:20:31Z</time>
      </trkpt>
      <trkpt lat="41.83501" lon="9.15764">
        <ele>1538.8</ele>
        <time>2021-06-03T08:20:32Z</time>
      </trkpt>
      <trkpt lat="41.83501" lon="9.15765">
        <ele>1538.8</ele>
        <time>2021-06-03T08:20:33Z</time>
      </trkpt>
      <trkpt lat="41.83502" lon="9.15767">
        <ele>1538.8</ele>
        <time>2021-06-03T08:20:34Z</time>
      </trkpt>
      <trkpt lat="41.83502" lon="9.15769">
        <ele>1539.2</ele>
        <time>2021-06-03T08:20:35Z</time>
      </trkpt>
      <trkpt lat="41.83503" lon="9.1577">
        <ele>1539.6</ele>
        <time>2021-06-03T08:20:36Z</time>
      </trkpt>
      <trkpt lat="41.83503" lon="9.15771">
        <ele>1539.6</ele>
        <time>2021-06-03T08:20:37Z</time>
      </trkpt>
      <trkpt lat="41.83504" lon="9.15773">
        <ele>1539.6</ele>
        <time>2021-06-03T08:20:38Z</time>
      </trkpt>
      <trkpt lat="41.83504" lon="9.15774">
        <ele>1539.6</ele>
        <time>2021-06-03T08:20:39Z</time>
      </trkpt>
      <trkpt lat="41.83505" lon="9.15776">
        <ele>1539.8</ele>
        <time>2021-06-03T08:20:40Z</time>
      </trkpt>
      <trkpt lat="41.83506" lon="9.15777">
        <ele>1539.8</ele>
        <time>2021-06-03T08:20:41Z</time>
      </trkpt>
      <trkpt lat="41.83507" lon="9.15779">
        <ele>1539.8</ele>
        <time>2021-06-03T08:20:42Z</time>
      </trkpt>
      <trkpt lat="41.83507" lon="9.1578">
        <ele>1540.6</ele>
        <time>2021-06-03T08:20:43Z</time>
      </trkpt>
      <trkpt lat="41.83508" lon="9.15782">
        <ele>1540.4</ele>
        <time>2021-06-03T08:20:44Z</time>
      </trkpt>
      <trkpt lat="41.83509" lon="9.15784">
        <ele>1540.4</ele>
        <time>2021-06-03T08:20:45Z</time>
      </trkpt>
      <trkpt lat="41.8351" lon="9.15785">
        <ele>1540.4</ele>
        <time>2021-06-03T08:20:46Z</time>
      </trkpt>
      <trkpt lat="41.8351" lon="9.15787">
        <ele>1540.4</ele>
        <time>2021-06-03T08:20:47Z</time>
      </trkpt>
      <trkpt lat="41.83511" lon="9.15789">
        <ele>1540.4</ele>
        <time>2021-06-03T08:20:48Z</time>
      </trkpt>
      <trkpt lat="41.83512" lon="9.1579">
        <ele>1540.4</ele>
        <time>2021-06-03T08:20:49Z</time>
      </trkpt>
      <trkpt lat="41.83512" lon="9.15792">
        <ele>1540.4</ele>
        <time>2021-06-03T08:20:50Z</time>
      </trkpt>
      <trkpt lat="41.83513" lon="9.15793">
        <ele>1540.4</ele>
        <time>2021-06-03T08:20:51Z</time>
      </trkpt>
      <trkpt lat="41.83514" lon="9.15795">
        <ele>1540.8</ele>
        <time>2021-06-03T08:20:52Z</time>
      </trkpt>
      <trkpt lat="41.83514" lon="9.15797">
        <ele>1540.8</ele>
        <time>2021-06-03T08:20:53Z</time>
      </trkpt>
      <trkpt lat="41.83515" lon="9.15798">
        <ele>1540.8</ele>
        <time>2021-06-03T08:20:54Z</time>
      </trkpt>
      <trkpt lat="41.83516" lon="9.158">
        <ele>1541.4</ele>
        <time>2021-06-03T08:20:55Z</time>
      </trkpt>
      <trkpt lat="41.83516" lon="9.15802">
        <ele>1541.4</ele>
        <time>2021-06-03T08:20:56Z</time>
      </trkpt>
      <trkpt lat="41.83517" lon="9.15803">
        <ele>1541.4</ele>
        <time>2021-06-03T08:20:57Z</time>
      </trkpt>
      <trkpt lat="41.83518" lon="9.15805">
        <ele>1541.4</ele>
        <time>2021-06-03T08:20:58Z</time>
      </trkpt>
      <trkpt lat="41.83518" lon="9.15807">
        <ele>1541.4</ele>
        <time>2021-06-03T08:20:59Z</time>
      </trkpt>
      <trkpt lat="41.83519" lon="9.15808">
        <ele>1541.8</ele>
        <time>2021-06-03T08:21:00Z</time>
      </trkpt>
      <trkpt lat="41.8352" lon="9.1581">
        <ele>1541.8</ele>
        <time>2021-06-03T08:21:01Z</time>
      </trkpt>
      <trkpt lat="41.8352" lon="9.15811">
        <ele>1541.8</ele>
        <time>2021-06-03T08:21:02Z</time>
      </trkpt>
      <trkpt lat="41.83521" lon="9.15813">
        <ele>1541.8</ele>
        <time>2021-06-03T08:21:03Z</time>
      </trkpt>
      <trkpt lat="41.83522" lon="9.15815">
        <ele>1542</ele>
        <time>2021-06-03T08:21:04Z</time>
      </trkpt>
      <trkpt lat="41.83522" lon="9.15816">
        <ele>1542</ele>
        <time>2021-06-03T08:21:05Z</time>
      </trkpt>
      <trkpt lat="41.83523" lon="9.15818">
        <ele>1542</ele>
        <time>2021-06-03T08:21:06Z</time>
      </trkpt>
      <trkpt lat="41.83524" lon="9.15819">
        <ele>1542</ele>
        <time>2021-06-03T08:21:07Z</time>
      </trkpt>
      <trkpt lat="41.83524" lon="9.15821">
        <ele>1542.6</ele>
        <time>2021-06-03T08:21:08Z</time>
      </trkpt>
      <trkpt lat="41.83525" lon="9.15823">
        <ele>1542.6</ele>
        <time>2021-06-03T08:21:09Z</time>
      </trkpt>
      <trkpt lat="41.83526" lon="9.15824">
        <ele>1542.6</ele>
        <time>2021-06-03T08:21:10Z</time>
      </trkpt>
      <trkpt lat="41.83526" lon="9.15826">
        <ele>1542.4</ele>
        <time>2021-06-03T08:21:11Z</time>
      </trkpt>
      <trkpt lat="41.83527" lon="9.15828">
        <ele>1542.6</ele>
        <time>2021-06-03T08:21:12Z</time>
      </trkpt>
      <trkpt lat="41.83528" lon="9.15829">
        <ele>1542.6</ele>
        <time>2021-06-03T08:21:13Z</time>
      </trkpt>
      <trkpt lat="41.83528" lon="9.15831">
        <ele>1542.6</ele>
        <time>2021-06-03T08:21:14Z</time>
      </trkpt>
      <trkpt lat="41.83529" lon="9.15832">
        <ele>1542.6</ele>
        <time>2021-06-03T08:21:15Z</time>
      </trkpt>
      <trkpt lat="41.8353" lon="9.15834">
        <ele>1543.2</ele>
        <time>2021-06-03T08:21:16Z</time>
      </trkpt>
      <trkpt lat="41.8353" lon="9.15835">
        <ele>1543.2</ele>
        <time>2021-06-03T08:21:17Z</time>
      </trkpt>
      <trkpt lat="41.83531" lon="9.15837">
        <ele>1543.2</ele>
        <time>2021-06-03T08:21:18Z</time>
      </trkpt>
      <trkpt lat="41.83531" lon="9.15839">
        <ele>1543.2</ele>
        <time>2021-06-03T08:21:19Z</time>
      </trkpt>
      <trkpt lat="41.83532" lon="9.15841">
        <ele>1543</ele>
        <time>2021-06-03T08:21:20Z</time>
      </trkpt>
      <trkpt lat="41.83533" lon="9.15842">
        <ele>1543</ele>
        <time>2021-06-03T08:21:21Z</time>
      </trkpt>
      <trkpt lat="41.83533" lon="9.15844">
        <ele>1543</ele>
        <time>2021-06-03T08:21:22Z</time>
      </trkpt>
      <trkpt lat="41.83534" lon="9.15845">
        <ele>1543.8</ele>
        <time>2021-06-03T08:21:23Z</time>
      </trkpt>
      <trkpt lat="41.83535" lon="9.15847">
        <ele>1544</ele>
        <time>2021-06-03T08:21:24Z</time>
      </trkpt>
      <trkpt lat="41.83535" lon="9.15848">
        <ele>1544</ele>
        <time>2021-06-03T08:21:25Z</time>
      </trkpt>
      <trkpt lat="41.83536" lon="9.1585">
        <ele>1544</ele>
        <time>2021-06-03T08:21:26Z</time>
      </trkpt>
      <trkpt lat="41.83537" lon="9.15851">
        <ele>1544.8</ele>
        <time>2021-06-03T08:21:27Z</time>
      </trkpt>
      <trkpt lat="41.83537" lon="9.15853">
        <ele>1545</ele>
        <time>2021-06-03T08:21:28Z</time>
      </trkpt>
      <trkpt lat="41.83538" lon="9.15854">
        <ele>1545</ele>
        <time>2021-06-03T08:21:29Z</time>
      </trkpt>
      <trkpt lat="41.83538" lon="9.15856">
        <ele>1545</ele>
        <time>2021-06-03T08:21:30Z</time>
      </trkpt>
      <trkpt lat="41.83539" lon="9.15857">
        <ele>1545.6</ele>
        <time>2021-06-03T08:21:31Z</time>
      </trkpt>
      <trkpt lat="41.83539" lon="9.15859">
        <ele>1545.4</ele>
        <time>2021-06-03T08:21:32Z</time>
      </trkpt>
      <trkpt lat="41.8354" lon="9.15861">
        <ele>1545.4</ele>
        <time>2021-06-03T08:21:33Z</time>
      </trkpt>
      <trkpt lat="41.83541" lon="9.15862">
        <ele>1545.4</ele>
        <time>2021-06-03T08:21:34Z</time>
      </trkpt>
      <trkpt lat="41.83541" lon="9.15864">
        <ele>1545.4</ele>
        <time>2021-06-03T08:21:35Z</time>
      </trkpt>
      <trkpt lat="41.83542" lon="9.15865">
        <ele>1546</ele>
        <time>2021-06-03T08:21:36Z</time>
      </trkpt>
      <trkpt lat="41.83543" lon="9.15867">
        <ele>1546</ele>
        <time>2021-06-03T08:21:37Z</time>
      </trkpt>
      <trkpt lat="41.83543" lon="9.15868">
        <ele>1546</ele>
        <time>2021-06-03T08:21:38Z</time>
      </trkpt>
      <trkpt lat="41.83544" lon="9.1587">
        <ele>1546.6</ele>
        <time>2021-06-03T08:21:39Z</time>
      </trkpt>
      <trkpt lat="41.83545" lon="9.15871">
        <ele>1546.4</ele>
        <time>2021-06-03T08:21:40Z</time>
      </trkpt>
      <trkpt lat="41.83545" lon="9.15873">
        <ele>1546.4</ele>
        <time>2021-06-03T08:21:41Z</time>
      </trkpt>
      <trkpt lat="41.83545" lon="9.15874">
        <ele>1546.4</ele>
        <time>2021-06-03T08:21:42Z</time>
      </trkpt>
      <trkpt lat="41.83546" lon="9.15876">
        <ele>1546.4</ele>
        <time>2021-06-03T08:21:43Z</time>
      </trkpt>
      <trkpt lat="41.83546" lon="9.15877">
        <ele>1546.8</ele>
        <time>2021-06-03T08:21:44Z</time>
      </trkpt>
      <trkpt lat="41.83547" lon="9.15879">
        <ele>1546.8</ele>
        <time>2021-06-03T08:21:45Z</time>
      </trkpt>
      <trkpt lat="41.83548" lon="9.1588">
        <ele>1546.8</ele>
        <time>2021-06-03T08:21:46Z</time>
      </trkpt>
      <trkpt lat="41.83548" lon="9.15881">
        <ele>1546.8</ele>
        <time>2021-06-03T08:21:47Z</time>
      </trkpt>
      <trkpt lat="41.83549" lon="9.15883">
        <ele>1547.2</ele>
        <time>2021-06-03T08:21:48Z</time>
      </trkpt>
      <trkpt lat="41.83549" lon="9.15884">
        <ele>1547.2</ele>
        <time>2021-06-03T08:21:49Z</time>
      </trkpt>
      <trkpt lat="41.8355" lon="9.15886">
        <ele>1547.2</ele>
        <time>2021-06-03T08:21:50Z</time>
      </trkpt>
      <trkpt lat="41.83551" lon="9.15888">
        <ele>1547.2</ele>
        <time>2021-06-03T08:21:51Z</time>
      </trkpt>
      <trkpt lat="41.83552" lon="9.1589">
        <ele>1546.6</ele>
        <time>2021-06-03T08:21:52Z</time>
      </trkpt>
      <trkpt lat="41.83553" lon="9.15892">
        <ele>1546.6</ele>
        <time>2021-06-03T08:21:53Z</time>
      </trkpt>
      <trkpt lat="41.83554" lon="9.15894">
        <ele>1546.6</ele>
        <time>2021-06-03T08:21:54Z</time>
      </trkpt>
      <trkpt lat="41.83555" lon="9.15896">
        <ele>1546.6</ele>
        <time>2021-06-03T08:21:55Z</time>
      </trkpt>
      <trkpt lat="41.83555" lon="9.15898">
        <ele>1546.2</ele>
        <time>2021-06-03T08:21:56Z</time>
      </trkpt>
      <trkpt lat="41.83556" lon="9.159">
        <ele>1546.2</ele>
        <time>2021-06-03T08:21:57Z</time>
      </trkpt>
      <trkpt lat="41.83557" lon="9.15902">
        <ele>1546.2</ele>
        <time>2021-06-03T08:21:58Z</time>
      </trkpt>
      <trkpt lat="41.83559" lon="9.15904">
        <ele>1546.8</ele>
        <time>2021-06-03T08:21:59Z</time>
      </trkpt>
      <trkpt lat="41.8356" lon="9.15906">
        <ele>1547.4</ele>
        <time>2021-06-03T08:22:00Z</time>
      </trkpt>
      <trkpt lat="41.83562" lon="9.15908">
        <ele>1547.4</ele>
        <time>2021-06-03T08:22:01Z</time>
      </trkpt>
      <trkpt lat="41.83563" lon="9.1591">
        <ele>1547.4</ele>
        <time>2021-06-03T08:22:02Z</time>
      </trkpt>
      <trkpt lat="41.83565" lon="9.15912">
        <ele>1546.4</ele>
        <time>2021-06-03T08:22:03Z</time>
      </trkpt>
      <trkpt lat="41.83566" lon="9.15914">
        <ele>1546.2</ele>
        <time>2021-06-03T08:22:04Z</time>
      </trkpt>
      <trkpt lat="41.83568" lon="9.15916">
        <ele>1546.2</ele>
        <time>2021-06-03T08:22:05Z</time>
      </trkpt>
      <trkpt lat="41.83569" lon="9.15918">
        <ele>1546.2</ele>
        <time>2021-06-03T08:22:06Z</time>
      </trkpt>
      <trkpt lat="41.83571" lon="9.15919">
        <ele>1546.6</ele>
        <time>2021-06-03T08:22:07Z</time>
      </trkpt>
      <trkpt lat="41.83572" lon="9.15921">
        <ele>1546.8</ele>
        <time>2021-06-03T08:22:08Z</time>
      </trkpt>
      <trkpt lat="41.83574" lon="9.15923">
        <ele>1546.8</ele>
        <time>2021-06-03T08:22:09Z</time>
      </trkpt>
      <trkpt lat="41.83575" lon="9.15925">
        <ele>1546.8</ele>
        <time>2021-06-03T08:22:10Z</time>
      </trkpt>
      <trkpt lat="41.83577" lon="9.15926">
        <ele>1546.6</ele>
        <time>2021-06-03T08:22:11Z</time>
      </trkpt>
      <trkpt lat="41.83578" lon="9.15928">
        <ele>1546.6</ele>
        <time>2021-06-03T08:22:12Z</time>
      </trkpt>
      <trkpt lat="41.8358" lon="9.1593">
        <ele>1546.6</ele>
        <time>2021-06-03T08:22:13Z</time>
      </trkpt>
      <trkpt lat="41.83581" lon="9.15932">
        <ele>1546.6</ele>
        <time>2021-06-03T08:22:14Z</time>
      </trkpt>
      <trkpt lat="41.83582" lon="9.15934">
        <ele>1546.6</ele>
        <time>2021-06-03T08:22:15Z</time>
      </trkpt>
      <trkpt lat="41.83584" lon="9.15935">
        <ele>1546.8</ele>
        <time>2021-06-03T08:22:16Z</time>
      </trkpt>
      <trkpt lat="41.83586" lon="9.15937">
        <ele>1546.8</ele>
        <time>2021-06-03T08:22:17Z</time>
      </trkpt>
      <trkpt lat="41.83587" lon="9.15939">
        <ele>1546.8</ele>
        <time>2021-06-03T08:22:18Z</time>
      </trkpt>
      <trkpt lat="41.83589" lon="9.15941">
        <ele>1546.8</ele>
        <time>2021-06-03T08:22:19Z</time>
      </trkpt>
      <trkpt lat="41.8359" lon="9.15943">
        <ele>1547</ele>
        <time>2021-06-03T08:22:20Z</time>
      </trkpt>
      <trkpt lat="41.83592" lon="9.15945">
        <ele>1547</ele>
        <time>2021-06-03T08:22:21Z</time>
      </trkpt>
      <trkpt lat="41.83593" lon="9.15946">
        <ele>1547</ele>
        <time>2021-06-03T08:22:22Z</time>
      </trkpt>
      <trkpt lat="41.83594" lon="9.15948">
        <ele>1547</ele>
        <time>2021-06-03T08:22:23Z</time>
      </trkpt>
      <trkpt lat="41.83596" lon="9.1595">
        <ele>1547.4</ele>
        <time>2021-06-03T08:22:24Z</time>
      </trkpt>
      <trkpt lat="41.83597" lon="9.15952">
        <ele>1547.4</ele>
        <time>2021-06-03T08:22:25Z</time>
      </trkpt>
      <trkpt lat="41.83599" lon="9.15954">
        <ele>1547.4</ele>
        <time>2021-06-03T08:22:26Z</time>
      </trkpt>
      <trkpt lat="41.836" lon="9.15955">
        <ele>1547</ele>
        <time>2021-06-03T08:22:27Z</time>
      </trkpt>
      <trkpt lat="41.83602" lon="9.15957">
        <ele>1547</ele>
        <time>2021-06-03T08:22:28Z</time>
      </trkpt>
      <trkpt lat="41.83603" lon="9.15959">
        <ele>1547</ele>
        <time>2021-06-03T08:22:29Z</time>
      </trkpt>
      <trkpt lat="41.83605" lon="9.1596">
        <ele>1547</ele>
        <time>2021-06-03T08:22:30Z</time>
      </trkpt>
      <trkpt lat="41.83607" lon="9.15962">
        <ele>1547.6</ele>
        <time>2021-06-03T08:22:31Z</time>
      </trkpt>
      <trkpt lat="41.83608" lon="9.15964">
        <ele>1547.6</ele>
        <time>2021-06-03T08:22:32Z</time>
      </trkpt>
      <trkpt lat="41.8361" lon="9.15965">
        <ele>1547.6</ele>
        <time>2021-06-03T08:22:33Z</time>
      </trkpt>
      <trkpt lat="41.83611" lon="9.15967">
        <ele>1547.6</ele>
        <time>2021-06-03T08:22:34Z</time>
      </trkpt>
      <trkpt lat="41.83613" lon="9.15968">
        <ele>1547.6</ele>
        <time>2021-06-03T08:22:35Z</time>
      </trkpt>
      <trkpt lat="41.83615" lon="9.15969">
        <ele>1547.6</ele>
        <time>2021-06-03T08:22:36Z</time>
      </trkpt>
      <trkpt lat="41.83616" lon="9.15971">
        <ele>1547.6</ele>
        <time>2021-06-03T08:22:37Z</time>
      </trkpt>
      <trkpt lat="41.83618" lon="9.15972">
        <ele>1547.6</ele>
        <time>2021-06-03T08:22:38Z</time>
      </trkpt>
      <trkpt lat="41.83619" lon="9.15973">
        <ele>1547.6</ele>
        <time>2021-06-03T08:22:39Z</time>
      </trkpt>
      <trkpt lat="41.83621" lon="9.15975">
        <ele>1547.8</ele>
        <time>2021-06-03T08:22:40Z</time>
      </trkpt>
      <trkpt lat="41.83623" lon="9.15976">
        <ele>1547.8</ele>
        <time>2021-06-03T08:22:41Z</time>
      </trkpt>
      <trkpt lat="41.83625" lon="9.15977">
        <ele>1547.8</ele>
        <time>2021-06-03T08:22:42Z</time>
      </trkpt>
      <trkpt lat="41.83627" lon="9.15978">
        <ele>1547.4</ele>
        <time>2021-06-03T08:22:43Z</time>
      </trkpt>
      <trkpt lat="41.83629" lon="9.15979">
        <ele>1547</ele>
        <time>2021-06-03T08:22:44Z</time>
      </trkpt>
      <trkpt lat="41.83631" lon="9.15981">
        <ele>1547</ele>
        <time>2021-06-03T08:22:45Z</time>
      </trkpt>
      <trkpt lat="41.83633" lon="9.15982">
        <ele>1547</ele>
        <time>2021-06-03T08:22:46Z</time>
      </trkpt>
      <trkpt lat="41.83635" lon="9.15983">
        <ele>1547</ele>
        <time>2021-06-03T08:22:47Z</time>
      </trkpt>
      <trkpt lat="41.83637" lon="9.15984">
        <ele>1547.8</ele>
        <time>2021-06-03T08:22:48Z</time>
      </trkpt>
      <trkpt lat="41.83638" lon="9.15985">
        <ele>1547.8</ele>
        <time>2021-06-03T08:22:49Z</time>
      </trkpt>
      <trkpt lat="41.83639" lon="9.15985">
        <ele>1547.8</ele>
        <time>2021-06-03T08:22:50Z</time>
      </trkpt>
      <trkpt lat="41.83639" lon="9.15985">
        <ele>1547.6</ele>
        <time>2021-06-03T08:22:51Z</time>
      </trkpt>
      <trkpt lat="41.83639" lon="9.15985">
        <ele>1547.8</ele>
        <time>2021-06-03T08:22:52Z</time>
      </trkpt>
      <trkpt lat="41.83641" lon="9.15987">
        <ele>1547.4</ele>
        <time>2021-06-03T08:24:42Z</time>
      </trkpt>
      <trkpt lat="41.83643" lon="9.15988">
        <ele>1546.8</ele>
        <time>2021-06-03T08:24:43Z</time>
      </trkpt>
      <trkpt lat="41.83645" lon="9.15989">
        <ele>1546.6</ele>
        <time>2021-06-03T08:24:44Z</time>
      </trkpt>
      <trkpt lat="41.83648" lon="9.1599">
        <ele>1546.6</ele>
        <time>2021-06-03T08:24:45Z</time>
      </trkpt>
      <trkpt lat="41.8365" lon="9.15991">
        <ele>1546.6</ele>
        <time>2021-06-03T08:24:46Z</time>
      </trkpt>
      <trkpt lat="41.83653" lon="9.15992">
        <ele>1546.6</ele>
        <time>2021-06-03T08:24:47Z</time>
      </trkpt>
      <trkpt lat="41.83656" lon="9.15993">
        <ele>1546.2</ele>
        <time>2021-06-03T08:24:48Z</time>
      </trkpt>
      <trkpt lat="41.83659" lon="9.15994">
        <ele>1546.2</ele>
        <time>2021-06-03T08:24:49Z</time>
      </trkpt>
      <trkpt lat="41.83662" lon="9.15996">
        <ele>1546.2</ele>
        <time>2021-06-03T08:24:50Z</time>
      </trkpt>
      <trkpt lat="41.83665" lon="9.15997">
        <ele>1546.2</ele>
        <time>2021-06-03T08:24:51Z</time>
      </trkpt>
      <trkpt lat="41.83668" lon="9.15998">
        <ele>1546.4</ele>
        <time>2021-06-03T08:24:52Z</time>
      </trkpt>
      <trkpt lat="41.83671" lon="9.16">
        <ele>1546.4</ele>
        <time>2021-06-03T08:24:53Z</time>
      </trkpt>
      <trkpt lat="41.83674" lon="9.16001">
        <ele>1546.4</ele>
        <time>2021-06-03T08:24:54Z</time>
      </trkpt>
      <trkpt lat="41.83677" lon="9.16003">
        <ele>1546.4</ele>
        <time>2021-06-03T08:24:55Z</time>
      </trkpt>
      <trkpt lat="41.8368" lon="9.16004">
        <ele>1546</ele>
        <time>2021-06-03T08:24:56Z</time>
      </trkpt>
      <trkpt lat="41.83683" lon="9.16006">
        <ele>1546</ele>
        <time>2021-06-03T08:24:57Z</time>
      </trkpt>
      <trkpt lat="41.83686" lon="9.16007">
        <ele>1546</ele>
        <time>2021-06-03T08:24:58Z</time>
      </trkpt>
      <trkpt lat="41.83689" lon="9.16009">
        <ele>1546</ele>
        <time>2021-06-03T08:24:59Z</time>
      </trkpt>
      <trkpt lat="41.83692" lon="9.1601">
        <ele>1546.4</ele>
        <time>2021-06-03T08:25:00Z</time>
      </trkpt>
      <trkpt lat="41.83695" lon="9.16011">
        <ele>1546.4</ele>
        <time>2021-06-03T08:25:01Z</time>
      </trkpt>
      <trkpt lat="41.83698" lon="9.16013">
        <ele>1546.4</ele>
        <time>2021-06-03T08:25:02Z</time>
      </trkpt>
      <trkpt lat="41.83701" lon="9.16014">
        <ele>1546.4</ele>
        <time>2021-06-03T08:25:03Z</time>
      </trkpt>
      <trkpt lat="41.83704" lon="9.16016">
        <ele>1546</ele>
        <time>2021-06-03T08:25:04Z</time>
      </trkpt>
      <trkpt lat="41.83707" lon="9.16017">
        <ele>1546</ele>
        <time>2021-06-03T08:25:05Z</time>
      </trkpt>
      <trkpt lat="41.8371" lon="9.16018">
        <ele>1546</ele>
        <time>2021-06-03T08:25:06Z</time>
      </trkpt>
      <trkpt lat="41.83713" lon="9.16019">
        <ele>1545.4</ele>
        <time>2021-06-03T08:25:07Z</time>
      </trkpt>
      <trkpt lat="41.83716" lon="9.1602">
        <ele>1545.8</ele>
        <time>2021-06-03T08:25:08Z</time>
      </trkpt>
      <trkpt lat="41.83719" lon="9.16022">
        <ele>1545.8</ele>
        <time>2021-06-03T08:25:09Z</time>
      </trkpt>
      <trkpt lat="41.83722" lon="9.16023">
        <ele>1545.8</ele>
        <time>2021-06-03T08:25:10Z</time>
      </trkpt>
      <trkpt lat="41.83724" lon="9.16024">
        <ele>1545.8</ele>
        <time>2021-06-03T08:25:11Z</time>
      </trkpt>
      <trkpt lat="41.83727" lon="9.16025">
        <ele>1546.2</ele>
        <time>2021-06-03T08:25:12Z</time>
      </trkpt>
      <trkpt lat="41.8373" lon="9.16026">
        <ele>1546.2</ele>
        <time>2021-06-03T08:25:13Z</time>
      </trkpt>
      <trkpt lat="41.83732" lon="9.16026">
        <ele>1546.2</ele>
        <time>2021-06-03T08:25:14Z</time>
      </trkpt>
      <trkpt lat="41.83735" lon="9.16027">
        <ele>1545.8</ele>
        <time>2021-06-03T08:25:15Z</time>
      </trkpt>
      <trkpt lat="41.83737" lon="9.16029">
        <ele>1546.2</ele>
        <time>2021-06-03T08:25:16Z</time>
      </trkpt>
      <trkpt lat="41.83739" lon="9.1603">
        <ele>1546.2</ele>
        <time>2021-06-03T08:25:17Z</time>
      </trkpt>
      <trkpt lat="41.83741" lon="9.16031">
        <ele>1546.2</ele>
        <time>2021-06-03T08:25:18Z</time>
      </trkpt>
      <trkpt lat="41.83743" lon="9.16032">
        <ele>1546.2</ele>
        <time>2021-06-03T08:25:19Z</time>
      </trkpt>
      <trkpt lat="41.83745" lon="9.16033">
        <ele>1546</ele>
        <time>2021-06-03T08:25:20Z</time>
      </trkpt>
      <trkpt lat="41.83747" lon="9.16034">
        <ele>1546</ele>
        <time>2021-06-03T08:25:21Z</time>
      </trkpt>
      <trkpt lat="41.83749" lon="9.16035">
        <ele>1546</ele>
        <time>2021-06-03T08:25:22Z</time>
      </trkpt>
      <trkpt lat="41.83751" lon="9.16036">
        <ele>1546.2</ele>
        <time>2021-06-03T08:25:23Z</time>
      </trkpt>
      <trkpt lat="41.83752" lon="9.16037">
        <ele>1546.6</ele>
        <time>2021-06-03T08:25:24Z</time>
      </trkpt>
      <trkpt lat="41.83754" lon="9.16039">
        <ele>1546.6</ele>
        <time>2021-06-03T08:25:25Z</time>
      </trkpt>
      <trkpt lat="41.83756" lon="9.1604">
        <ele>1546.6</ele>
        <time>2021-06-03T08:25:26Z</time>
      </trkpt>
      <trkpt lat="41.83758" lon="9.16041">
        <ele>1547</ele>
        <time>2021-06-03T08:25:27Z</time>
      </trkpt>
      <trkpt lat="41.8376" lon="9.16043">
        <ele>1546.6</ele>
        <time>2021-06-03T08:25:28Z</time>
      </trkpt>
      <trkpt lat="41.83762" lon="9.16044">
        <ele>1546.6</ele>
        <time>2021-06-03T08:25:29Z</time>
      </trkpt>
      <trkpt lat="41.83764" lon="9.16046">
        <ele>1546.6</ele>
        <time>2021-06-03T08:25:30Z</time>
      </trkpt>
      <trkpt lat="41.83766" lon="9.16047">
        <ele>1546.6</ele>
        <time>2021-06-03T08:25:31Z</time>
      </trkpt>
      <trkpt lat="41.83768" lon="9.16048">
        <ele>1546.8</ele>
        <time>2021-06-03T08:25:32Z</time>
      </trkpt>
      <trkpt lat="41.8377" lon="9.1605">
        <ele>1546.8</ele>
        <time>2021-06-03T08:25:33Z</time>
      </trkpt>
      <trkpt lat="41.83772" lon="9.16051">
        <ele>1546.8</ele>
        <time>2021-06-03T08:25:34Z</time>
      </trkpt>
      <trkpt lat="41.83774" lon="9.16052">
        <ele>1546.8</ele>
        <time>2021-06-03T08:25:35Z</time>
      </trkpt>
      <trkpt lat="41.83776" lon="9.16053">
        <ele>1547.2</ele>
        <time>2021-06-03T08:25:36Z</time>
      </trkpt>
      <trkpt lat="41.83778" lon="9.16054">
        <ele>1547.2</ele>
        <time>2021-06-03T08:25:37Z</time>
      </trkpt>
      <trkpt lat="41.83779" lon="9.16056">
        <ele>1547.2</ele>
        <time>2021-06-03T08:25:38Z</time>
      </trkpt>
      <trkpt lat="41.83781" lon="9.16057">
        <ele>1547.2</ele>
        <time>2021-06-03T08:25:39Z</time>
      </trkpt>
      <trkpt lat="41.83783" lon="9.16058">
        <ele>1547.8</ele>
        <time>2021-06-03T08:25:40Z</time>
      </trkpt>
      <trkpt lat="41.83785" lon="9.16059">
        <ele>1547.8</ele>
        <time>2021-06-03T08:25:41Z</time>
      </trkpt>
      <trkpt lat="41.83786" lon="9.16061">
        <ele>1547.8</ele>
        <time>2021-06-03T08:25:42Z</time>
      </trkpt>
      <trkpt lat="41.83788" lon="9.16062">
        <ele>1547.8</ele>
        <time>2021-06-03T08:25:43Z</time>
      </trkpt>
      <trkpt lat="41.83789" lon="9.16063">
        <ele>1547.8</ele>
        <time>2021-06-03T08:25:44Z</time>
      </trkpt>
      <trkpt lat="41.83791" lon="9.16064">
        <ele>1547.8</ele>
        <time>2021-06-03T08:25:45Z</time>
      </trkpt>
      <trkpt lat="41.83793" lon="9.16065">
        <ele>1547.8</ele>
        <time>2021-06-03T08:25:46Z</time>
      </trkpt>
      <trkpt lat="41.83795" lon="9.16067">
        <ele>1547.8</ele>
        <time>2021-06-03T08:25:47Z</time>
      </trkpt>
      <trkpt lat="41.83797" lon="9.16068">
        <ele>1548</ele>
        <time>2021-06-03T08:25:48Z</time>
      </trkpt>
      <trkpt lat="41.83799" lon="9.16069">
        <ele>1548</ele>
        <time>2021-06-03T08:25:49Z</time>
      </trkpt>
      <trkpt lat="41.83801" lon="9.1607">
        <ele>1548</ele>
        <time>2021-06-03T08:25:50Z</time>
      </trkpt>
      <trkpt lat="41.83803" lon="9.16071">
        <ele>1548</ele>
        <time>2021-06-03T08:25:51Z</time>
      </trkpt>
      <trkpt lat="41.83805" lon="9.16072">
        <ele>1548.2</ele>
        <time>2021-06-03T08:25:52Z</time>
      </trkpt>
      <trkpt lat="41.83806" lon="9.16074">
        <ele>1548.2</ele>
        <time>2021-06-03T08:25:53Z</time>
      </trkpt>
      <trkpt lat="41.83808" lon="9.16076">
        <ele>1548.2</ele>
        <time>2021-06-03T08:25:54Z</time>
      </trkpt>
      <trkpt lat="41.8381" lon="9.16077">
        <ele>1548.2</ele>
        <time>2021-06-03T08:25:55Z</time>
      </trkpt>
      <trkpt lat="41.83812" lon="9.16078">
        <ele>1548.4</ele>
        <time>2021-06-03T08:25:56Z</time>
      </trkpt>
      <trkpt lat="41.83814" lon="9.1608">
        <ele>1548.4</ele>
        <time>2021-06-03T08:25:57Z</time>
      </trkpt>
      <trkpt lat="41.83815" lon="9.16082">
        <ele>1548.4</ele>
        <time>2021-06-03T08:25:58Z</time>
      </trkpt>
      <trkpt lat="41.83817" lon="9.16083">
        <ele>1548.4</ele>
        <time>2021-06-03T08:25:59Z</time>
      </trkpt>
      <trkpt lat="41.83819" lon="9.16085">
        <ele>1548.4</ele>
        <time>2021-06-03T08:26:00Z</time>
      </trkpt>
      <trkpt lat="41.8382" lon="9.16087">
        <ele>1548.4</ele>
        <time>2021-06-03T08:26:01Z</time>
      </trkpt>
      <trkpt lat="41.83822" lon="9.16089">
        <ele>1548.4</ele>
        <time>2021-06-03T08:26:02Z</time>
      </trkpt>
      <trkpt lat="41.83824" lon="9.1609">
        <ele>1548.6</ele>
        <time>2021-06-03T08:26:03Z</time>
      </trkpt>
      <trkpt lat="41.83825" lon="9.16092">
        <ele>1548.4</ele>
        <time>2021-06-03T08:26:04Z</time>
      </trkpt>
      <trkpt lat="41.83827" lon="9.16093">
        <ele>1548.4</ele>
        <time>2021-06-03T08:26:05Z</time>
      </trkpt>
      <trkpt lat="41.83828" lon="9.16095">
        <ele>1548.4</ele>
        <time>2021-06-03T08:26:06Z</time>
      </trkpt>
      <trkpt lat="41.8383" lon="9.16097">
        <ele>1548.4</ele>
        <time>2021-06-03T08:26:07Z</time>
      </trkpt>
      <trkpt lat="41.83832" lon="9.16098">
        <ele>1548.4</ele>
        <time>2021-06-03T08:26:08Z</time>
      </trkpt>
      <trkpt lat="41.83833" lon="9.161">
        <ele>1548.4</ele>
        <time>2021-06-03T08:26:09Z</time>
      </trkpt>
      <trkpt lat="41.83835" lon="9.16102">
        <ele>1548.4</ele>
        <time>2021-06-03T08:26:10Z</time>
      </trkpt>
      <trkpt lat="41.83837" lon="9.16103">
        <ele>1548.8</ele>
        <time>2021-06-03T08:26:11Z</time>
      </trkpt>
      <trkpt lat="41.83838" lon="9.16105">
        <ele>1548.6</ele>
        <time>2021-06-03T08:26:12Z</time>
      </trkpt>
      <trkpt lat="41.8384" lon="9.16106">
        <ele>1548.6</ele>
        <time>2021-06-03T08:26:13Z</time>
      </trkpt>
      <trkpt lat="41.83841" lon="9.16108">
        <ele>1548.6</ele>
        <time>2021-06-03T08:26:14Z</time>
      </trkpt>
      <trkpt lat="41.83843" lon="9.16109">
        <ele>1549.2</ele>
        <time>2021-06-03T08:26:15Z</time>
      </trkpt>
      <trkpt lat="41.83844" lon="9.16111">
        <ele>1550</ele>
        <time>2021-06-03T08:26:16Z</time>
      </trkpt>
      <trkpt lat="41.83846" lon="9.16112">
        <ele>1550</ele>
        <time>2021-06-03T08:26:17Z</time>
      </trkpt>
      <trkpt lat="41.83848" lon="9.16113">
        <ele>1550</ele>
        <time>2021-06-03T08:26:18Z</time>
      </trkpt>
      <trkpt lat="41.8385" lon="9.16115">
        <ele>1549.8</ele>
        <time>2021-06-03T08:26:19Z</time>
      </trkpt>
      <trkpt lat="41.83851" lon="9.16116">
        <ele>1549.6</ele>
        <time>2021-06-03T08:26:20Z</time>
      </trkpt>
      <trkpt lat="41.83853" lon="9.16118">
        <ele>1549.6</ele>
        <time>2021-06-03T08:26:21Z</time>
      </trkpt>
      <trkpt lat="41.83855" lon="9.1612">
        <ele>1549.6</ele>
        <time>2021-06-03T08:26:22Z</time>
      </trkpt>
      <trkpt lat="41.83856" lon="9.16121">
        <ele>1550</ele>
        <time>2021-06-03T08:26:23Z</time>
      </trkpt>
      <trkpt lat="41.83858" lon="9.16123">
        <ele>1550</ele>
        <time>2021-06-03T08:26:24Z</time>
      </trkpt>
      <trkpt lat="41.8386" lon="9.16125">
        <ele>1550</ele>
        <time>2021-06-03T08:26:25Z</time>
      </trkpt>
      <trkpt lat="41.83862" lon="9.16126">
        <ele>1550</ele>
        <time>2021-06-03T08:26:26Z</time>
      </trkpt>
      <trkpt lat="41.83864" lon="9.16128">
        <ele>1549</ele>
        <time>2021-06-03T08:26:27Z</time>
      </trkpt>
      <trkpt lat="41.83866" lon="9.1613">
        <ele>1548.6</ele>
        <time>2021-06-03T08:26:28Z</time>
      </trkpt>
      <trkpt lat="41.83868" lon="9.16132">
        <ele>1548.6</ele>
        <time>2021-06-03T08:26:29Z</time>
      </trkpt>
      <trkpt lat="41.8387" lon="9.16133">
        <ele>1548.6</ele>
        <time>2021-06-03T08:26:30Z</time>
      </trkpt>
      <trkpt lat="41.83872" lon="9.16135">
        <ele>1549.6</ele>
        <time>2021-06-03T08:26:31Z</time>
      </trkpt>
      <trkpt lat="41.83873" lon="9.16137">
        <ele>1549.4</ele>
        <time>2021-06-03T08:26:32Z</time>
      </trkpt>
      <trkpt lat="41.83875" lon="9.16138">
        <ele>1549.4</ele>
        <time>2021-06-03T08:26:33Z</time>
      </trkpt>
      <trkpt lat="41.83877" lon="9.1614">
        <ele>1549.4</ele>
        <time>2021-06-03T08:26:34Z</time>
      </trkpt>
      <trkpt lat="41.83878" lon="9.16142">
        <ele>1550.2</ele>
        <time>2021-06-03T08:26:35Z</time>
      </trkpt>
      <trkpt lat="41.8388" lon="9.16144">
        <ele>1550.8</ele>
        <time>2021-06-03T08:26:36Z</time>
      </trkpt>
      <trkpt lat="41.83881" lon="9.16146">
        <ele>1550.8</ele>
        <time>2021-06-03T08:26:37Z</time>
      </trkpt>
      <trkpt lat="41.83883" lon="9.16147">
        <ele>1550.8</ele>
        <time>2021-06-03T08:26:38Z</time>
      </trkpt>
      <trkpt lat="41.83884" lon="9.16149">
        <ele>1550.8</ele>
        <time>2021-06-03T08:26:39Z</time>
      </trkpt>
      <trkpt lat="41.83886" lon="9.1615">
        <ele>1550.8</ele>
        <time>2021-06-03T08:26:40Z</time>
      </trkpt>
      <trkpt lat="41.83887" lon="9.16152">
        <ele>1550.8</ele>
        <time>2021-06-03T08:26:41Z</time>
      </trkpt>
      <trkpt lat="41.83889" lon="9.16154">
        <ele>1550.8</ele>
        <time>2021-06-03T08:26:42Z</time>
      </trkpt>
      <trkpt lat="41.8389" lon="9.16156">
        <ele>1551</ele>
        <time>2021-06-03T08:26:43Z</time>
      </trkpt>
      <trkpt lat="41.83892" lon="9.16158">
        <ele>1551.2</ele>
        <time>2021-06-03T08:26:44Z</time>
      </trkpt>
      <trkpt lat="41.83894" lon="9.16159">
        <ele>1551.2</ele>
        <time>2021-06-03T08:26:45Z</time>
      </trkpt>
      <trkpt lat="41.83895" lon="9.16161">
        <ele>1551.2</ele>
        <time>2021-06-03T08:26:46Z</time>
      </trkpt>
      <trkpt lat="41.83897" lon="9.16162">
        <ele>1551.2</ele>
        <time>2021-06-03T08:26:47Z</time>
      </trkpt>
      <trkpt lat="41.83899" lon="9.16164">
        <ele>1551.2</ele>
        <time>2021-06-03T08:26:48Z</time>
      </trkpt>
      <trkpt lat="41.83901" lon="9.16166">
        <ele>1551.2</ele>
        <time>2021-06-03T08:26:49Z</time>
      </trkpt>
      <trkpt lat="41.83902" lon="9.16167">
        <ele>1551.2</ele>
        <time>2021-06-03T08:26:50Z</time>
      </trkpt>
      <trkpt lat="41.83904" lon="9.16169">
        <ele>1551.2</ele>
        <time>2021-06-03T08:26:51Z</time>
      </trkpt>
      <trkpt lat="41.83906" lon="9.16171">
        <ele>1552</ele>
        <time>2021-06-03T08:26:52Z</time>
      </trkpt>
      <trkpt lat="41.83907" lon="9.16173">
        <ele>1552</ele>
        <time>2021-06-03T08:26:53Z</time>
      </trkpt>
      <trkpt lat="41.83909" lon="9.16175">
        <ele>1552</ele>
        <time>2021-06-03T08:26:54Z</time>
      </trkpt>
      <trkpt lat="41.83911" lon="9.16176">
        <ele>1552</ele>
        <time>2021-06-03T08:26:55Z</time>
      </trkpt>
      <trkpt lat="41.83912" lon="9.16178">
        <ele>1551.8</ele>
        <time>2021-06-03T08:26:56Z</time>
      </trkpt>
      <trkpt lat="41.83914" lon="9.1618">
        <ele>1551.8</ele>
        <time>2021-06-03T08:26:57Z</time>
      </trkpt>
      <trkpt lat="41.83916" lon="9.16181">
        <ele>1551.8</ele>
        <time>2021-06-03T08:26:58Z</time>
      </trkpt>
      <trkpt lat="41.83917" lon="9.16183">
        <ele>1552.6</ele>
        <time>2021-06-03T08:26:59Z</time>
      </trkpt>
      <trkpt lat="41.83919" lon="9.16184">
        <ele>1552.8</ele>
        <time>2021-06-03T08:27:00Z</time>
      </trkpt>
      <trkpt lat="41.83921" lon="9.16186">
        <ele>1552.8</ele>
        <time>2021-06-03T08:27:01Z</time>
      </trkpt>
      <trkpt lat="41.83923" lon="9.16187">
        <ele>1552.8</ele>
        <time>2021-06-03T08:27:02Z</time>
      </trkpt>
      <trkpt lat="41.83924" lon="9.16189">
        <ele>1552.8</ele>
        <time>2021-06-03T08:27:03Z</time>
      </trkpt>
      <trkpt lat="41.83926" lon="9.1619">
        <ele>1553.2</ele>
        <time>2021-06-03T08:27:04Z</time>
      </trkpt>
      <trkpt lat="41.83927" lon="9.16191">
        <ele>1553.2</ele>
        <time>2021-06-03T08:27:05Z</time>
      </trkpt>
      <trkpt lat="41.83929" lon="9.16192">
        <ele>1553.2</ele>
        <time>2021-06-03T08:27:06Z</time>
      </trkpt>
      <trkpt lat="41.83931" lon="9.16194">
        <ele>1553.2</ele>
        <time>2021-06-03T08:27:07Z</time>
      </trkpt>
      <trkpt lat="41.83932" lon="9.16197">
        <ele>1553.4</ele>
        <time>2021-06-03T08:27:08Z</time>
      </trkpt>
      <trkpt lat="41.83934" lon="9.16199">
        <ele>1553.4</ele>
        <time>2021-06-03T08:27:09Z</time>
      </trkpt>
      <trkpt lat="41.83935" lon="9.16201">
        <ele>1553.4</ele>
        <time>2021-06-03T08:27:10Z</time>
      </trkpt>
      <trkpt lat="41.83936" lon="9.16202">
        <ele>1553.6</ele>
        <time>2021-06-03T08:27:11Z</time>
      </trkpt>
      <trkpt lat="41.83937" lon="9.16205">
        <ele>1553.8</ele>
        <time>2021-06-03T08:27:12Z</time>
      </trkpt>
      <trkpt lat="41.83938" lon="9.16207">
        <ele>1553.8</ele>
        <time>2021-06-03T08:27:13Z</time>
      </trkpt>
      <trkpt lat="41.83939" lon="9.16209">
        <ele>1553.8</ele>
        <time>2021-06-03T08:27:14Z</time>
      </trkpt>
      <trkpt lat="41.8394" lon="9.16211">
        <ele>1554.4</ele>
        <time>2021-06-03T08:27:15Z</time>
      </trkpt>
      <trkpt lat="41.83942" lon="9.16213">
        <ele>1554.2</ele>
        <time>2021-06-03T08:27:16Z</time>
      </trkpt>
      <trkpt lat="41.83942" lon="9.16215">
        <ele>1554.2</ele>
        <time>2021-06-03T08:27:17Z</time>
      </trkpt>
      <trkpt lat="41.83943" lon="9.16217">
        <ele>1554.2</ele>
        <time>2021-06-03T08:27:18Z</time>
      </trkpt>
      <trkpt lat="41.83944" lon="9.16219">
        <ele>1555.2</ele>
        <time>2021-06-03T08:27:19Z</time>
      </trkpt>
      <trkpt lat="41.83945" lon="9.16221">
        <ele>1554.6</ele>
        <time>2021-06-03T08:27:20Z</time>
      </trkpt>
      <trkpt lat="41.83947" lon="9.16222">
        <ele>1554.6</ele>
        <time>2021-06-03T08:27:21Z</time>
      </trkpt>
      <trkpt lat="41.83948" lon="9.16223">
        <ele>1554.6</ele>
        <time>2021-06-03T08:27:22Z</time>
      </trkpt>
      <trkpt lat="41.83949" lon="9.16225">
        <ele>1555.2</ele>
        <time>2021-06-03T08:27:23Z</time>
      </trkpt>
      <trkpt lat="41.83951" lon="9.16226">
        <ele>1555.2</ele>
        <time>2021-06-03T08:27:24Z</time>
      </trkpt>
      <trkpt lat="41.83952" lon="9.16228">
        <ele>1555.2</ele>
        <time>2021-06-03T08:27:25Z</time>
      </trkpt>
      <trkpt lat="41.83953" lon="9.16229">
        <ele>1555.2</ele>
        <time>2021-06-03T08:27:26Z</time>
      </trkpt>
      <trkpt lat="41.83954" lon="9.16231">
        <ele>1555.8</ele>
        <time>2021-06-03T08:27:27Z</time>
      </trkpt>
      <trkpt lat="41.83955" lon="9.16233">
        <ele>1556</ele>
        <time>2021-06-03T08:27:28Z</time>
      </trkpt>
      <trkpt lat="41.83956" lon="9.16234">
        <ele>1556</ele>
        <time>2021-06-03T08:27:29Z</time>
      </trkpt>
      <trkpt lat="41.83957" lon="9.16236">
        <ele>1556</ele>
        <time>2021-06-03T08:27:30Z</time>
      </trkpt>
      <trkpt lat="41.83959" lon="9.16238">
        <ele>1556</ele>
        <time>2021-06-03T08:27:31Z</time>
      </trkpt>
      <trkpt lat="41.8396" lon="9.16239">
        <ele>1556.4</ele>
        <time>2021-06-03T08:27:32Z</time>
      </trkpt>
      <trkpt lat="41.83961" lon="9.16241">
        <ele>1556.4</ele>
        <time>2021-06-03T08:27:33Z</time>
      </trkpt>
      <trkpt lat="41.83962" lon="9.16243">
        <ele>1556.4</ele>
        <time>2021-06-03T08:27:34Z</time>
      </trkpt>
      <trkpt lat="41.83963" lon="9.16244">
        <ele>1556.4</ele>
        <time>2021-06-03T08:27:35Z</time>
      </trkpt>
      <trkpt lat="41.83965" lon="9.16245">
        <ele>1556.8</ele>
        <time>2021-06-03T08:27:36Z</time>
      </trkpt>
      <trkpt lat="41.83966" lon="9.16247">
        <ele>1556.8</ele>
        <time>2021-06-03T08:27:37Z</time>
      </trkpt>
      <trkpt lat="41.83967" lon="9.16248">
        <ele>1556.8</ele>
        <time>2021-06-03T08:27:38Z</time>
      </trkpt>
      <trkpt lat="41.83969" lon="9.1625">
        <ele>1557.4</ele>
        <time>2021-06-03T08:27:39Z</time>
      </trkpt>
      <trkpt lat="41.8397" lon="9.16251">
        <ele>1557.4</ele>
        <time>2021-06-03T08:27:40Z</time>
      </trkpt>
      <trkpt lat="41.83971" lon="9.16253">
        <ele>1557.4</ele>
        <time>2021-06-03T08:27:41Z</time>
      </trkpt>
      <trkpt lat="41.83972" lon="9.16254">
        <ele>1557.4</ele>
        <time>2021-06-03T08:27:42Z</time>
      </trkpt>
      <trkpt lat="41.83973" lon="9.16256">
        <ele>1557.4</ele>
        <time>2021-06-03T08:27:43Z</time>
      </trkpt>
      <trkpt lat="41.83975" lon="9.16257">
        <ele>1557.4</ele>
        <time>2021-06-03T08:27:44Z</time>
      </trkpt>
      <trkpt lat="41.83976" lon="9.16258">
        <ele>1557.4</ele>
        <time>2021-06-03T08:27:45Z</time>
      </trkpt>
      <trkpt lat="41.83977" lon="9.1626">
        <ele>1557.4</ele>
        <time>2021-06-03T08:27:46Z</time>
      </trkpt>
      <trkpt lat="41.83979" lon="9.16262">
        <ele>1557.6</ele>
        <time>2021-06-03T08:27:47Z</time>
      </trkpt>
      <trkpt lat="41.83979" lon="9.16264">
        <ele>1557.4</ele>
        <time>2021-06-03T08:27:48Z</time>
      </trkpt>
      <trkpt lat="41.8398" lon="9.16266">
        <ele>1557.4</ele>
        <time>2021-06-03T08:27:49Z</time>
      </trkpt>
      <trkpt lat="41.83981" lon="9.16268">
        <ele>1557.4</ele>
        <time>2021-06-03T08:27:50Z</time>
      </trkpt>
      <trkpt lat="41.83982" lon="9.1627">
        <ele>1557.4</ele>
        <time>2021-06-03T08:27:51Z</time>
      </trkpt>
      <trkpt lat="41.83983" lon="9.16272">
        <ele>1557.8</ele>
        <time>2021-06-03T08:27:52Z</time>
      </trkpt>
      <trkpt lat="41.83984" lon="9.16275">
        <ele>1557.8</ele>
        <time>2021-06-03T08:27:53Z</time>
      </trkpt>
      <trkpt lat="41.83985" lon="9.16277">
        <ele>1557.8</ele>
        <time>2021-06-03T08:27:54Z</time>
      </trkpt>
      <trkpt lat="41.83986" lon="9.16279">
        <ele>1557.8</ele>
        <time>2021-06-03T08:27:55Z</time>
      </trkpt>
      <trkpt lat="41.83986" lon="9.16281">
        <ele>1558.4</ele>
        <time>2021-06-03T08:27:56Z</time>
      </trkpt>
      <trkpt lat="41.83987" lon="9.16283">
        <ele>1558.4</ele>
        <time>2021-06-03T08:27:57Z</time>
      </trkpt>
      <trkpt lat="41.83987" lon="9.16285">
        <ele>1558.4</ele>
        <time>2021-06-03T08:27:58Z</time>
      </trkpt>
      <trkpt lat="41.83988" lon="9.16288">
        <ele>1558.4</ele>
        <time>2021-06-03T08:27:59Z</time>
      </trkpt>
      <trkpt lat="41.83988" lon="9.1629">
        <ele>1558.4</ele>
        <time>2021-06-03T08:28:00Z</time>
      </trkpt>
      <trkpt lat="41.83988" lon="9.16292">
        <ele>1558.4</ele>
        <time>2021-06-03T08:28:01Z</time>
      </trkpt>
      <trkpt lat="41.83989" lon="9.16294">
        <ele>1558.4</ele>
        <time>2021-06-03T08:28:02Z</time>
      </trkpt>
      <trkpt lat="41.8399" lon="9.16296">
        <ele>1559.4</ele>
        <time>2021-06-03T08:28:03Z</time>
      </trkpt>
      <trkpt lat="41.83991" lon="9.16298">
        <ele>1559</ele>
        <time>2021-06-03T08:28:04Z</time>
      </trkpt>
      <trkpt lat="41.83992" lon="9.163">
        <ele>1559</ele>
        <time>2021-06-03T08:28:05Z</time>
      </trkpt>
      <trkpt lat="41.83993" lon="9.16302">
        <ele>1559</ele>
        <time>2021-06-03T08:28:06Z</time>
      </trkpt>
      <trkpt lat="41.83994" lon="9.16304">
        <ele>1559.6</ele>
        <time>2021-06-03T08:28:07Z</time>
      </trkpt>
      <trkpt lat="41.83995" lon="9.16306">
        <ele>1559.8</ele>
        <time>2021-06-03T08:28:08Z</time>
      </trkpt>
      <trkpt lat="41.83995" lon="9.16308">
        <ele>1559.8</ele>
        <time>2021-06-03T08:28:09Z</time>
      </trkpt>
      <trkpt lat="41.83996" lon="9.1631">
        <ele>1559.8</ele>
        <time>2021-06-03T08:28:10Z</time>
      </trkpt>
      <trkpt lat="41.83997" lon="9.16312">
        <ele>1559.8</ele>
        <time>2021-06-03T08:28:11Z</time>
      </trkpt>
      <trkpt lat="41.83998" lon="9.16314">
        <ele>1559.4</ele>
        <time>2021-06-03T08:28:12Z</time>
      </trkpt>
      <trkpt lat="41.83999" lon="9.16316">
        <ele>1559.4</ele>
        <time>2021-06-03T08:28:13Z</time>
      </trkpt>
      <trkpt lat="41.84001" lon="9.16317">
        <ele>1559.4</ele>
        <time>2021-06-03T08:28:14Z</time>
      </trkpt>
      <trkpt lat="41.84002" lon="9.16319">
        <ele>1559.6</ele>
        <time>2021-06-03T08:28:15Z</time>
      </trkpt>
      <trkpt lat="41.84003" lon="9.16321">
        <ele>1559.4</ele>
        <time>2021-06-03T08:28:16Z</time>
      </trkpt>
      <trkpt lat="41.84004" lon="9.16322">
        <ele>1559.4</ele>
        <time>2021-06-03T08:28:17Z</time>
      </trkpt>
      <trkpt lat="41.84005" lon="9.16324">
        <ele>1559.4</ele>
        <time>2021-06-03T08:28:18Z</time>
      </trkpt>
      <trkpt lat="41.84007" lon="9.16326">
        <ele>1559.8</ele>
        <time>2021-06-03T08:28:19Z</time>
      </trkpt>
      <trkpt lat="41.84008" lon="9.16327">
        <ele>1559.8</ele>
        <time>2021-06-03T08:28:20Z</time>
      </trkpt>
      <trkpt lat="41.84009" lon="9.16329">
        <ele>1559.8</ele>
        <time>2021-06-03T08:28:21Z</time>
      </trkpt>
      <trkpt lat="41.84011" lon="9.16331">
        <ele>1559.8</ele>
        <time>2021-06-03T08:28:22Z</time>
      </trkpt>
      <trkpt lat="41.84012" lon="9.16333">
        <ele>1559.8</ele>
        <time>2021-06-03T08:28:23Z</time>
      </trkpt>
      <trkpt lat="41.84013" lon="9.16335">
        <ele>1560.4</ele>
        <time>2021-06-03T08:28:24Z</time>
      </trkpt>
      <trkpt lat="41.84015" lon="9.16337">
        <ele>1560.4</ele>
        <time>2021-06-03T08:28:25Z</time>
      </trkpt>
      <trkpt lat="41.84016" lon="9.16339">
        <ele>1560.4</ele>
        <time>2021-06-03T08:28:26Z</time>
      </trkpt>
      <trkpt lat="41.84017" lon="9.16341">
        <ele>1560.4</ele>
        <time>2021-06-03T08:28:27Z</time>
      </trkpt>
      <trkpt lat="41.84019" lon="9.16343">
        <ele>1560.6</ele>
        <time>2021-06-03T08:28:28Z</time>
      </trkpt>
      <trkpt lat="41.8402" lon="9.16345">
        <ele>1560.6</ele>
        <time>2021-06-03T08:28:29Z</time>
      </trkpt>
      <trkpt lat="41.84022" lon="9.16347">
        <ele>1560.6</ele>
        <time>2021-06-03T08:28:30Z</time>
      </trkpt>
      <trkpt lat="41.84023" lon="9.16348">
        <ele>1560.6</ele>
        <time>2021-06-03T08:28:31Z</time>
      </trkpt>
      <trkpt lat="41.84024" lon="9.1635">
        <ele>1560.4</ele>
        <time>2021-06-03T08:28:32Z</time>
      </trkpt>
      <trkpt lat="41.84026" lon="9.16352">
        <ele>1560.4</ele>
        <time>2021-06-03T08:28:33Z</time>
      </trkpt>
      <trkpt lat="41.84027" lon="9.16354">
        <ele>1560.4</ele>
        <time>2021-06-03T08:28:34Z</time>
      </trkpt>
      <trkpt lat="41.84029" lon="9.16356">
        <ele>1560.6</ele>
        <time>2021-06-03T08:28:35Z</time>
      </trkpt>
      <trkpt lat="41.8403" lon="9.16358">
        <ele>1561.2</ele>
        <time>2021-06-03T08:28:36Z</time>
      </trkpt>
      <trkpt lat="41.84032" lon="9.1636">
        <ele>1561.2</ele>
        <time>2021-06-03T08:28:37Z</time>
      </trkpt>
      <trkpt lat="41.84034" lon="9.16362">
        <ele>1561.2</ele>
        <time>2021-06-03T08:28:38Z</time>
      </trkpt>
      <trkpt lat="41.84035" lon="9.16363">
        <ele>1561.2</ele>
        <time>2021-06-03T08:28:39Z</time>
      </trkpt>
      <trkpt lat="41.84037" lon="9.16365">
        <ele>1561.8</ele>
        <time>2021-06-03T08:28:40Z</time>
      </trkpt>
      <trkpt lat="41.84038" lon="9.16367">
        <ele>1561.8</ele>
        <time>2021-06-03T08:28:41Z</time>
      </trkpt>
      <trkpt lat="41.8404" lon="9.16369">
        <ele>1561.8</ele>
        <time>2021-06-03T08:28:42Z</time>
      </trkpt>
      <trkpt lat="41.84041" lon="9.16371">
        <ele>1561.8</ele>
        <time>2021-06-03T08:28:43Z</time>
      </trkpt>
      <trkpt lat="41.84043" lon="9.16372">
        <ele>1562.2</ele>
        <time>2021-06-03T08:28:44Z</time>
      </trkpt>
      <trkpt lat="41.84045" lon="9.16374">
        <ele>1562.2</ele>
        <time>2021-06-03T08:28:45Z</time>
      </trkpt>
      <trkpt lat="41.84047" lon="9.16375">
        <ele>1562.2</ele>
        <time>2021-06-03T08:28:46Z</time>
      </trkpt>
      <trkpt lat="41.84048" lon="9.16377">
        <ele>1561.6</ele>
        <time>2021-06-03T08:28:47Z</time>
      </trkpt>
      <trkpt lat="41.8405" lon="9.16379">
        <ele>1561.8</ele>
        <time>2021-06-03T08:28:48Z</time>
      </trkpt>
      <trkpt lat="41.84052" lon="9.16381">
        <ele>1561.8</ele>
        <time>2021-06-03T08:28:49Z</time>
      </trkpt>
      <trkpt lat="41.84054" lon="9.16382">
        <ele>1561.8</ele>
        <time>2021-06-03T08:28:50Z</time>
      </trkpt>
      <trkpt lat="41.84055" lon="9.16384">
        <ele>1561.8</ele>
        <time>2021-06-03T08:28:51Z</time>
      </trkpt>
      <trkpt lat="41.84057" lon="9.16386">
        <ele>1561.6</ele>
        <time>2021-06-03T08:28:52Z</time>
      </trkpt>
      <trkpt lat="41.84059" lon="9.16388">
        <ele>1561.6</ele>
        <time>2021-06-03T08:28:53Z</time>
      </trkpt>
      <trkpt lat="41.84061" lon="9.16389">
        <ele>1561.6</ele>
        <time>2021-06-03T08:28:54Z</time>
      </trkpt>
      <trkpt lat="41.84063" lon="9.16391">
        <ele>1560.6</ele>
        <time>2021-06-03T08:28:55Z</time>
      </trkpt>
      <trkpt lat="41.84064" lon="9.16393">
        <ele>1561.2</ele>
        <time>2021-06-03T08:28:56Z</time>
      </trkpt>
      <trkpt lat="41.84066" lon="9.16394">
        <ele>1561.2</ele>
        <time>2021-06-03T08:28:57Z</time>
      </trkpt>
      <trkpt lat="41.84068" lon="9.16396">
        <ele>1561.2</ele>
        <time>2021-06-03T08:28:58Z</time>
      </trkpt>
      <trkpt lat="41.8407" lon="9.16398">
        <ele>1561.2</ele>
        <time>2021-06-03T08:28:59Z</time>
      </trkpt>
      <trkpt lat="41.84072" lon="9.16399">
        <ele>1562.4</ele>
        <time>2021-06-03T08:29:00Z</time>
      </trkpt>
      <trkpt lat="41.84073" lon="9.16401">
        <ele>1562.4</ele>
        <time>2021-06-03T08:29:01Z</time>
      </trkpt>
      <trkpt lat="41.84075" lon="9.16403">
        <ele>1562.4</ele>
        <time>2021-06-03T08:29:02Z</time>
      </trkpt>
      <trkpt lat="41.84077" lon="9.16404">
        <ele>1562.4</ele>
        <time>2021-06-03T08:29:03Z</time>
      </trkpt>
      <trkpt lat="41.84079" lon="9.16405">
        <ele>1563.2</ele>
        <time>2021-06-03T08:29:04Z</time>
      </trkpt>
      <trkpt lat="41.8408" lon="9.16407">
        <ele>1563.2</ele>
        <time>2021-06-03T08:29:05Z</time>
      </trkpt>
      <trkpt lat="41.84082" lon="9.16408">
        <ele>1563.2</ele>
        <time>2021-06-03T08:29:06Z</time>
      </trkpt>
      <trkpt lat="41.84084" lon="9.1641">
        <ele>1562.2</ele>
        <time>2021-06-03T08:29:07Z</time>
      </trkpt>
      <trkpt lat="41.84086" lon="9.16411">
        <ele>1561.2</ele>
        <time>2021-06-03T08:29:08Z</time>
      </trkpt>
      <trkpt lat="41.84088" lon="9.16413">
        <ele>1561.2</ele>
        <time>2021-06-03T08:29:09Z</time>
      </trkpt>
      <trkpt lat="41.8409" lon="9.16414">
        <ele>1561.2</ele>
        <time>2021-06-03T08:29:10Z</time>
      </trkpt>
      <trkpt lat="41.84092" lon="9.16416">
        <ele>1561.2</ele>
        <time>2021-06-03T08:29:11Z</time>
      </trkpt>
      <trkpt lat="41.84095" lon="9.16417">
        <ele>1561.8</ele>
        <time>2021-06-03T08:29:12Z</time>
      </trkpt>
      <trkpt lat="41.84097" lon="9.16419">
        <ele>1561.8</ele>
        <time>2021-06-03T08:29:13Z</time>
      </trkpt>
      <trkpt lat="41.84099" lon="9.1642">
        <ele>1561.8</ele>
        <time>2021-06-03T08:29:14Z</time>
      </trkpt>
      <trkpt lat="41.84101" lon="9.16421">
        <ele>1562.4</ele>
        <time>2021-06-03T08:29:15Z</time>
      </trkpt>
      <trkpt lat="41.84103" lon="9.16423">
        <ele>1563.4</ele>
        <time>2021-06-03T08:29:16Z</time>
      </trkpt>
      <trkpt lat="41.84105" lon="9.16426">
        <ele>1563.4</ele>
        <time>2021-06-03T08:29:17Z</time>
      </trkpt>
      <trkpt lat="41.84106" lon="9.16429">
        <ele>1563.4</ele>
        <time>2021-06-03T08:29:18Z</time>
      </trkpt>
      <trkpt lat="41.84107" lon="9.16431">
        <ele>1563.4</ele>
        <time>2021-06-03T08:29:19Z</time>
      </trkpt>
      <trkpt lat="41.84109" lon="9.16434">
        <ele>1562.4</ele>
        <time>2021-06-03T08:29:20Z</time>
      </trkpt>
      <trkpt lat="41.8411" lon="9.16436">
        <ele>1562.4</ele>
        <time>2021-06-03T08:29:21Z</time>
      </trkpt>
      <trkpt lat="41.84112" lon="9.16438">
        <ele>1562.4</ele>
        <time>2021-06-03T08:29:22Z</time>
      </trkpt>
      <trkpt lat="41.84114" lon="9.16441">
        <ele>1563.2</ele>
        <time>2021-06-03T08:29:23Z</time>
      </trkpt>
      <trkpt lat="41.84115" lon="9.16443">
        <ele>1562</ele>
        <time>2021-06-03T08:29:24Z</time>
      </trkpt>
      <trkpt lat="41.84117" lon="9.16445">
        <ele>1562</ele>
        <time>2021-06-03T08:29:25Z</time>
      </trkpt>
      <trkpt lat="41.84118" lon="9.16447">
        <ele>1562</ele>
        <time>2021-06-03T08:29:26Z</time>
      </trkpt>
      <trkpt lat="41.8412" lon="9.16449">
        <ele>1563</ele>
        <time>2021-06-03T08:29:27Z</time>
      </trkpt>
      <trkpt lat="41.84121" lon="9.16451">
        <ele>1563.6</ele>
        <time>2021-06-03T08:29:28Z</time>
      </trkpt>
      <trkpt lat="41.84123" lon="9.16453">
        <ele>1563.6</ele>
        <time>2021-06-03T08:29:29Z</time>
      </trkpt>
      <trkpt lat="41.84124" lon="9.16455">
        <ele>1563.6</ele>
        <time>2021-06-03T08:29:30Z</time>
      </trkpt>
      <trkpt lat="41.84126" lon="9.16457">
        <ele>1564</ele>
        <time>2021-06-03T08:29:31Z</time>
      </trkpt>
      <trkpt lat="41.84128" lon="9.16459">
        <ele>1563.6</ele>
        <time>2021-06-03T08:29:32Z</time>
      </trkpt>
      <trkpt lat="41.84129" lon="9.16461">
        <ele>1563.6</ele>
        <time>2021-06-03T08:29:33Z</time>
      </trkpt>
      <trkpt lat="41.84131" lon="9.16463">
        <ele>1563.6</ele>
        <time>2021-06-03T08:29:34Z</time>
      </trkpt>
      <trkpt lat="41.84132" lon="9.16465">
        <ele>1563.6</ele>
        <time>2021-06-03T08:29:35Z</time>
      </trkpt>
      <trkpt lat="41.84134" lon="9.16467">
        <ele>1563</ele>
        <time>2021-06-03T08:29:36Z</time>
      </trkpt>
      <trkpt lat="41.84136" lon="9.16469">
        <ele>1563</ele>
        <time>2021-06-03T08:29:37Z</time>
      </trkpt>
      <trkpt lat="41.84138" lon="9.16471">
        <ele>1563</ele>
        <time>2021-06-03T08:29:38Z</time>
      </trkpt>
      <trkpt lat="41.8414" lon="9.16472">
        <ele>1563</ele>
        <time>2021-06-03T08:29:39Z</time>
      </trkpt>
      <trkpt lat="41.84142" lon="9.16474">
        <ele>1563.6</ele>
        <time>2021-06-03T08:29:40Z</time>
      </trkpt>
      <trkpt lat="41.84144" lon="9.16475">
        <ele>1563.6</ele>
        <time>2021-06-03T08:29:41Z</time>
      </trkpt>
      <trkpt lat="41.84146" lon="9.16476">
        <ele>1563.6</ele>
        <time>2021-06-03T08:29:42Z</time>
      </trkpt>
      <trkpt lat="41.84147" lon="9.16479">
        <ele>1563.6</ele>
        <time>2021-06-03T08:29:43Z</time>
      </trkpt>
      <trkpt lat="41.84149" lon="9.16481">
        <ele>1563.8</ele>
        <time>2021-06-03T08:29:44Z</time>
      </trkpt>
      <trkpt lat="41.84151" lon="9.16483">
        <ele>1563.8</ele>
        <time>2021-06-03T08:29:45Z</time>
      </trkpt>
      <trkpt lat="41.84153" lon="9.16485">
        <ele>1563.8</ele>
        <time>2021-06-03T08:29:46Z</time>
      </trkpt>
      <trkpt lat="41.84155" lon="9.16486">
        <ele>1563.8</ele>
        <time>2021-06-03T08:29:47Z</time>
      </trkpt>
      <trkpt lat="41.84157" lon="9.16487">
        <ele>1563.6</ele>
        <time>2021-06-03T08:29:48Z</time>
      </trkpt>
      <trkpt lat="41.84159" lon="9.16489">
        <ele>1563.6</ele>
        <time>2021-06-03T08:29:49Z</time>
      </trkpt>
      <trkpt lat="41.84161" lon="9.1649">
        <ele>1563.6</ele>
        <time>2021-06-03T08:29:50Z</time>
      </trkpt>
      <trkpt lat="41.84163" lon="9.16491">
        <ele>1563.6</ele>
        <time>2021-06-03T08:29:51Z</time>
      </trkpt>
      <trkpt lat="41.84165" lon="9.16493">
        <ele>1563.8</ele>
        <time>2021-06-03T08:29:52Z</time>
      </trkpt>
      <trkpt lat="41.84167" lon="9.16494">
        <ele>1563.8</ele>
        <time>2021-06-03T08:29:53Z</time>
      </trkpt>
      <trkpt lat="41.84168" lon="9.16496">
        <ele>1563.8</ele>
        <time>2021-06-03T08:29:54Z</time>
      </trkpt>
      <trkpt lat="41.8417" lon="9.16498">
        <ele>1563.8</ele>
        <time>2021-06-03T08:29:55Z</time>
      </trkpt>
      <trkpt lat="41.84172" lon="9.165">
        <ele>1563.6</ele>
        <time>2021-06-03T08:29:56Z</time>
      </trkpt>
      <trkpt lat="41.84174" lon="9.16502">
        <ele>1563.6</ele>
        <time>2021-06-03T08:29:57Z</time>
      </trkpt>
      <trkpt lat="41.84175" lon="9.16505">
        <ele>1563.6</ele>
        <time>2021-06-03T08:29:58Z</time>
      </trkpt>
      <trkpt lat="41.84177" lon="9.16507">
        <ele>1563.6</ele>
        <time>2021-06-03T08:29:59Z</time>
      </trkpt>
      <trkpt lat="41.84179" lon="9.16509">
        <ele>1564.4</ele>
        <time>2021-06-03T08:30:00Z</time>
      </trkpt>
      <trkpt lat="41.8418" lon="9.16512">
        <ele>1564.4</ele>
        <time>2021-06-03T08:30:01Z</time>
      </trkpt>
      <trkpt lat="41.84182" lon="9.16514">
        <ele>1564.4</ele>
        <time>2021-06-03T08:30:02Z</time>
      </trkpt>
      <trkpt lat="41.84183" lon="9.16516">
        <ele>1564.6</ele>
        <time>2021-06-03T08:30:03Z</time>
      </trkpt>
      <trkpt lat="41.84185" lon="9.16518">
        <ele>1565</ele>
        <time>2021-06-03T08:30:04Z</time>
      </trkpt>
      <trkpt lat="41.84186" lon="9.1652">
        <ele>1565</ele>
        <time>2021-06-03T08:30:05Z</time>
      </trkpt>
      <trkpt lat="41.84187" lon="9.16523">
        <ele>1565</ele>
        <time>2021-06-03T08:30:06Z</time>
      </trkpt>
      <trkpt lat="41.84188" lon="9.16525">
        <ele>1565</ele>
        <time>2021-06-03T08:30:07Z</time>
      </trkpt>
      <trkpt lat="41.84189" lon="9.16528">
        <ele>1565.4</ele>
        <time>2021-06-03T08:30:08Z</time>
      </trkpt>
      <trkpt lat="41.8419" lon="9.16531">
        <ele>1565.4</ele>
        <time>2021-06-03T08:30:09Z</time>
      </trkpt>
      <trkpt lat="41.84191" lon="9.16533">
        <ele>1565.4</ele>
        <time>2021-06-03T08:30:10Z</time>
      </trkpt>
      <trkpt lat="41.84192" lon="9.16535">
        <ele>1565.4</ele>
        <time>2021-06-03T08:30:11Z</time>
      </trkpt>
      <trkpt lat="41.84193" lon="9.16537">
        <ele>1565</ele>
        <time>2021-06-03T08:30:12Z</time>
      </trkpt>
      <trkpt lat="41.84194" lon="9.16539">
        <ele>1565</ele>
        <time>2021-06-03T08:30:13Z</time>
      </trkpt>
      <trkpt lat="41.84194" lon="9.16542">
        <ele>1565</ele>
        <time>2021-06-03T08:30:14Z</time>
      </trkpt>
      <trkpt lat="41.84195" lon="9.16544">
        <ele>1565.6</ele>
        <time>2021-06-03T08:30:15Z</time>
      </trkpt>
      <trkpt lat="41.84196" lon="9.16546">
        <ele>1565.6</ele>
        <time>2021-06-03T08:30:16Z</time>
      </trkpt>
      <trkpt lat="41.84197" lon="9.16548">
        <ele>1565.6</ele>
        <time>2021-06-03T08:30:17Z</time>
      </trkpt>
      <trkpt lat="41.84197" lon="9.1655">
        <ele>1565.6</ele>
        <time>2021-06-03T08:30:18Z</time>
      </trkpt>
      <trkpt lat="41.84198" lon="9.16552">
        <ele>1565.6</ele>
        <time>2021-06-03T08:30:19Z</time>
      </trkpt>
      <trkpt lat="41.84199" lon="9.16554">
        <ele>1566</ele>
        <time>2021-06-03T08:30:20Z</time>
      </trkpt>
      <trkpt lat="41.84199" lon="9.16557">
        <ele>1566</ele>
        <time>2021-06-03T08:30:21Z</time>
      </trkpt>
      <trkpt lat="41.842" lon="9.16559">
        <ele>1566</ele>
        <time>2021-06-03T08:30:22Z</time>
      </trkpt>
      <trkpt lat="41.842" lon="9.16562">
        <ele>1565.8</ele>
        <time>2021-06-03T08:30:23Z</time>
      </trkpt>
      <trkpt lat="41.84201" lon="9.16565">
        <ele>1566.2</ele>
        <time>2021-06-03T08:30:24Z</time>
      </trkpt>
      <trkpt lat="41.84201" lon="9.16569">
        <ele>1566.2</ele>
        <time>2021-06-03T08:30:25Z</time>
      </trkpt>
      <trkpt lat="41.84202" lon="9.16572">
        <ele>1566.2</ele>
        <time>2021-06-03T08:30:26Z</time>
      </trkpt>
      <trkpt lat="41.84202" lon="9.16575">
        <ele>1566.2</ele>
        <time>2021-06-03T08:30:27Z</time>
      </trkpt>
      <trkpt lat="41.84202" lon="9.16579">
        <ele>1566</ele>
        <time>2021-06-03T08:30:28Z</time>
      </trkpt>
      <trkpt lat="41.84203" lon="9.16582">
        <ele>1566</ele>
        <time>2021-06-03T08:30:29Z</time>
      </trkpt>
      <trkpt lat="41.84204" lon="9.16585">
        <ele>1566</ele>
        <time>2021-06-03T08:30:30Z</time>
      </trkpt>
      <trkpt lat="41.84204" lon="9.16589">
        <ele>1566</ele>
        <time>2021-06-03T08:30:31Z</time>
      </trkpt>
      <trkpt lat="41.84205" lon="9.16592">
        <ele>1566.2</ele>
        <time>2021-06-03T08:30:32Z</time>
      </trkpt>
      <trkpt lat="41.84206" lon="9.16595">
        <ele>1566.2</ele>
        <time>2021-06-03T08:30:33Z</time>
      </trkpt>
      <trkpt lat="41.84207" lon="9.16599">
        <ele>1566.2</ele>
        <time>2021-06-03T08:30:34Z</time>
      </trkpt>
      <trkpt lat="41.84208" lon="9.16602">
        <ele>1566</ele>
        <time>2021-06-03T08:30:35Z</time>
      </trkpt>
      <trkpt lat="41.84209" lon="9.16605">
        <ele>1566.2</ele>
        <time>2021-06-03T08:30:36Z</time>
      </trkpt>
      <trkpt lat="41.8421" lon="9.16609">
        <ele>1566.2</ele>
        <time>2021-06-03T08:30:37Z</time>
      </trkpt>
      <trkpt lat="41.84211" lon="9.16612">
        <ele>1566.2</ele>
        <time>2021-06-03T08:30:38Z</time>
      </trkpt>
      <trkpt lat="41.84212" lon="9.16616">
        <ele>1566.2</ele>
        <time>2021-06-03T08:30:39Z</time>
      </trkpt>
      <trkpt lat="41.84213" lon="9.16619">
        <ele>1566.2</ele>
        <time>2021-06-03T08:30:40Z</time>
      </trkpt>
      <trkpt lat="41.84214" lon="9.16622">
        <ele>1566.2</ele>
        <time>2021-06-03T08:30:41Z</time>
      </trkpt>
      <trkpt lat="41.84215" lon="9.16626">
        <ele>1566.2</ele>
        <time>2021-06-03T08:30:42Z</time>
      </trkpt>
      <trkpt lat="41.84216" lon="9.1663">
        <ele>1566.2</ele>
        <time>2021-06-03T08:30:43Z</time>
      </trkpt>
      <trkpt lat="41.84217" lon="9.16633">
        <ele>1566.4</ele>
        <time>2021-06-03T08:30:44Z</time>
      </trkpt>
      <trkpt lat="41.84219" lon="9.16637">
        <ele>1566.4</ele>
        <time>2021-06-03T08:30:45Z</time>
      </trkpt>
      <trkpt lat="41.8422" lon="9.1664">
        <ele>1566.4</ele>
        <time>2021-06-03T08:30:46Z</time>
      </trkpt>
      <trkpt lat="41.84221" lon="9.16644">
        <ele>1566.4</ele>
        <time>2021-06-03T08:30:47Z</time>
      </trkpt>
      <trkpt lat="41.84222" lon="9.16648">
        <ele>1566.6</ele>
        <time>2021-06-03T08:30:48Z</time>
      </trkpt>
      <trkpt lat="41.84223" lon="9.16651">
        <ele>1566.6</ele>
        <time>2021-06-03T08:30:49Z</time>
      </trkpt>
      <trkpt lat="41.84225" lon="9.16655">
        <ele>1566.6</ele>
        <time>2021-06-03T08:30:50Z</time>
      </trkpt>
      <trkpt lat="41.84226" lon="9.16658">
        <ele>1566.2</ele>
        <time>2021-06-03T08:30:51Z</time>
      </trkpt>
      <trkpt lat="41.84227" lon="9.16662">
        <ele>1566</ele>
        <time>2021-06-03T08:30:52Z</time>
      </trkpt>
      <trkpt lat="41.84229" lon="9.16664">
        <ele>1566</ele>
        <time>2021-06-03T08:30:53Z</time>
      </trkpt>
      <trkpt lat="41.84231" lon="9.16667">
        <ele>1566</ele>
        <time>2021-06-03T08:30:54Z</time>
      </trkpt>
      <trkpt lat="41.84233" lon="9.16669">
        <ele>1566.4</ele>
        <time>2021-06-03T08:30:55Z</time>
      </trkpt>
      <trkpt lat="41.84234" lon="9.16672">
        <ele>1566.6</ele>
        <time>2021-06-03T08:30:56Z</time>
      </trkpt>
      <trkpt lat="41.84236" lon="9.16674">
        <ele>1566.6</ele>
        <time>2021-06-03T08:30:57Z</time>
      </trkpt>
      <trkpt lat="41.84238" lon="9.16676">
        <ele>1566.6</ele>
        <time>2021-06-03T08:30:58Z</time>
      </trkpt>
      <trkpt lat="41.8424" lon="9.16678">
        <ele>1566.6</ele>
        <time>2021-06-03T08:30:59Z</time>
      </trkpt>
      <trkpt lat="41.84242" lon="9.1668">
        <ele>1566</ele>
        <time>2021-06-03T08:31:00Z</time>
      </trkpt>
      <trkpt lat="41.84244" lon="9.16682">
        <ele>1566</ele>
        <time>2021-06-03T08:31:01Z</time>
      </trkpt>
      <trkpt lat="41.84247" lon="9.16684">
        <ele>1566</ele>
        <time>2021-06-03T08:31:02Z</time>
      </trkpt>
      <trkpt lat="41.84249" lon="9.16686">
        <ele>1566</ele>
        <time>2021-06-03T08:31:03Z</time>
      </trkpt>
      <trkpt lat="41.84251" lon="9.16688">
        <ele>1566.4</ele>
        <time>2021-06-03T08:31:04Z</time>
      </trkpt>
      <trkpt lat="41.84253" lon="9.1669">
        <ele>1566.4</ele>
        <time>2021-06-03T08:31:05Z</time>
      </trkpt>
      <trkpt lat="41.84256" lon="9.16692">
        <ele>1566.4</ele>
        <time>2021-06-03T08:31:06Z</time>
      </trkpt>
      <trkpt lat="41.84258" lon="9.16694">
        <ele>1566.4</ele>
        <time>2021-06-03T08:31:07Z</time>
      </trkpt>
      <trkpt lat="41.8426" lon="9.16696">
        <ele>1566.8</ele>
        <time>2021-06-03T08:31:08Z</time>
      </trkpt>
      <trkpt lat="41.84262" lon="9.16698">
        <ele>1566.8</ele>
        <time>2021-06-03T08:31:09Z</time>
      </trkpt>
      <trkpt lat="41.84264" lon="9.167">
        <ele>1566.8</ele>
        <time>2021-06-03T08:31:10Z</time>
      </trkpt>
      <trkpt lat="41.84266" lon="9.16702">
        <ele>1566.8</ele>
        <time>2021-06-03T08:31:11Z</time>
      </trkpt>
      <trkpt lat="41.84268" lon="9.16705">
        <ele>1566.8</ele>
        <time>2021-06-03T08:31:12Z</time>
      </trkpt>
      <trkpt lat="41.8427" lon="9.16707">
        <ele>1566.8</ele>
        <time>2021-06-03T08:31:13Z</time>
      </trkpt>
      <trkpt lat="41.84272" lon="9.16709">
        <ele>1566.8</ele>
        <time>2021-06-03T08:31:14Z</time>
      </trkpt>
      <trkpt lat="41.84274" lon="9.16711">
        <ele>1567.4</ele>
        <time>2021-06-03T08:31:15Z</time>
      </trkpt>
      <trkpt lat="41.84275" lon="9.16713">
        <ele>1567.6</ele>
        <time>2021-06-03T08:31:16Z</time>
      </trkpt>
      <trkpt lat="41.84277" lon="9.16716">
        <ele>1567.6</ele>
        <time>2021-06-03T08:31:17Z</time>
      </trkpt>
      <trkpt lat="41.84279" lon="9.16718">
        <ele>1567.6</ele>
        <time>2021-06-03T08:31:18Z</time>
      </trkpt>
      <trkpt lat="41.8428" lon="9.1672">
        <ele>1567.6</ele>
        <time>2021-06-03T08:31:19Z</time>
      </trkpt>
      <trkpt lat="41.84282" lon="9.16723">
        <ele>1567.2</ele>
        <time>2021-06-03T08:31:20Z</time>
      </trkpt>
      <trkpt lat="41.84284" lon="9.16725">
        <ele>1567.2</ele>
        <time>2021-06-03T08:31:21Z</time>
      </trkpt>
      <trkpt lat="41.84286" lon="9.16727">
        <ele>1567.2</ele>
        <time>2021-06-03T08:31:22Z</time>
      </trkpt>
      <trkpt lat="41.84287" lon="9.16729">
        <ele>1567.2</ele>
        <time>2021-06-03T08:31:23Z</time>
      </trkpt>
      <trkpt lat="41.84289" lon="9.16731">
        <ele>1567.6</ele>
        <time>2021-06-03T08:31:24Z</time>
      </trkpt>
      <trkpt lat="41.84291" lon="9.16733">
        <ele>1567.6</ele>
        <time>2021-06-03T08:31:25Z</time>
      </trkpt>
      <trkpt lat="41.84292" lon="9.16735">
        <ele>1567.6</ele>
        <time>2021-06-03T08:31:26Z</time>
      </trkpt>
      <trkpt lat="41.84294" lon="9.16737">
        <ele>1567.6</ele>
        <time>2021-06-03T08:31:27Z</time>
      </trkpt>
      <trkpt lat="41.84295" lon="9.16739">
        <ele>1567.4</ele>
        <time>2021-06-03T08:31:28Z</time>
      </trkpt>
      <trkpt lat="41.84297" lon="9.16742">
        <ele>1567.4</ele>
        <time>2021-06-03T08:31:29Z</time>
      </trkpt>
      <trkpt lat="41.84298" lon="9.16744">
        <ele>1567.4</ele>
        <time>2021-06-03T08:31:30Z</time>
      </trkpt>
      <trkpt lat="41.843" lon="9.16746">
        <ele>1568</ele>
        <time>2021-06-03T08:31:31Z</time>
      </trkpt>
      <trkpt lat="41.84301" lon="9.16748">
        <ele>1568.4</ele>
        <time>2021-06-03T08:31:32Z</time>
      </trkpt>
      <trkpt lat="41.84302" lon="9.1675">
        <ele>1568.4</ele>
        <time>2021-06-03T08:31:33Z</time>
      </trkpt>
      <trkpt lat="41.84303" lon="9.16753">
        <ele>1568.4</ele>
        <time>2021-06-03T08:31:34Z</time>
      </trkpt>
      <trkpt lat="41.84304" lon="9.16755">
        <ele>1568.8</ele>
        <time>2021-06-03T08:31:35Z</time>
      </trkpt>
      <trkpt lat="41.84305" lon="9.16757">
        <ele>1569</ele>
        <time>2021-06-03T08:31:36Z</time>
      </trkpt>
      <trkpt lat="41.84306" lon="9.16759">
        <ele>1569</ele>
        <time>2021-06-03T08:31:37Z</time>
      </trkpt>
      <trkpt lat="41.84307" lon="9.16761">
        <ele>1569</ele>
        <time>2021-06-03T08:31:38Z</time>
      </trkpt>
      <trkpt lat="41.84308" lon="9.16763">
        <ele>1569.2</ele>
        <time>2021-06-03T08:31:39Z</time>
      </trkpt>
      <trkpt lat="41.84309" lon="9.16765">
        <ele>1569.4</ele>
        <time>2021-06-03T08:31:40Z</time>
      </trkpt>
      <trkpt lat="41.84309" lon="9.16767">
        <ele>1569.4</ele>
        <time>2021-06-03T08:31:41Z</time>
      </trkpt>
      <trkpt lat="41.8431" lon="9.16769">
        <ele>1569.4</ele>
        <time>2021-06-03T08:31:42Z</time>
      </trkpt>
      <trkpt lat="41.8431" lon="9.16769">
        <ele>1569.4</ele>
        <time>2021-06-03T08:31:43Z</time>
      </trkpt>
      <trkpt lat="41.8431" lon="9.16769">
        <ele>1569.8</ele>
        <time>2021-06-03T08:31:44Z</time>
      </trkpt>
      <trkpt lat="41.8433" lon="9.16789">
        <ele>1569</ele>
        <time>2021-06-03T08:37:23Z</time>
      </trkpt>
      <trkpt lat="41.84331" lon="9.16791">
        <ele>1569</ele>
        <time>2021-06-03T08:37:24Z</time>
      </trkpt>
      <trkpt lat="41.84332" lon="9.16793">
        <ele>1569.4</ele>
        <time>2021-06-03T08:37:25Z</time>
      </trkpt>
      <trkpt lat="41.84332" lon="9.16794">
        <ele>1569.4</ele>
        <time>2021-06-03T08:37:26Z</time>
      </trkpt>
      <trkpt lat="41.84334" lon="9.16796">
        <ele>1569.4</ele>
        <time>2021-06-03T08:37:27Z</time>
      </trkpt>
      <trkpt lat="41.84335" lon="9.16798">
        <ele>1569.2</ele>
        <time>2021-06-03T08:37:28Z</time>
      </trkpt>
      <trkpt lat="41.84336" lon="9.168">
        <ele>1569.4</ele>
        <time>2021-06-03T08:37:29Z</time>
      </trkpt>
      <trkpt lat="41.84337" lon="9.16802">
        <ele>1569.4</ele>
        <time>2021-06-03T08:37:30Z</time>
      </trkpt>
      <trkpt lat="41.84337" lon="9.16804">
        <ele>1569.4</ele>
        <time>2021-06-03T08:37:31Z</time>
      </trkpt>
      <trkpt lat="41.84338" lon="9.16806">
        <ele>1569.4</ele>
        <time>2021-06-03T08:37:32Z</time>
      </trkpt>
      <trkpt lat="41.84339" lon="9.16808">
        <ele>1570</ele>
        <time>2021-06-03T08:37:33Z</time>
      </trkpt>
      <trkpt lat="41.8434" lon="9.16809">
        <ele>1570</ele>
        <time>2021-06-03T08:37:34Z</time>
      </trkpt>
      <trkpt lat="41.8434" lon="9.16811">
        <ele>1570</ele>
        <time>2021-06-03T08:37:35Z</time>
      </trkpt>
      <trkpt lat="41.84341" lon="9.16813">
        <ele>1570</ele>
        <time>2021-06-03T08:37:36Z</time>
      </trkpt>
      <trkpt lat="41.84342" lon="9.16815">
        <ele>1570.2</ele>
        <time>2021-06-03T08:37:37Z</time>
      </trkpt>
      <trkpt lat="41.84342" lon="9.16817">
        <ele>1570.2</ele>
        <time>2021-06-03T08:37:38Z</time>
      </trkpt>
      <trkpt lat="41.84343" lon="9.16818">
        <ele>1570.2</ele>
        <time>2021-06-03T08:37:39Z</time>
      </trkpt>
      <trkpt lat="41.84344" lon="9.1682">
        <ele>1570.2</ele>
        <time>2021-06-03T08:37:40Z</time>
      </trkpt>
      <trkpt lat="41.84344" lon="9.16822">
        <ele>1570.8</ele>
        <time>2021-06-03T08:37:41Z</time>
      </trkpt>
      <trkpt lat="41.84345" lon="9.16824">
        <ele>1570.8</ele>
        <time>2021-06-03T08:37:42Z</time>
      </trkpt>
      <trkpt lat="41.84346" lon="9.16825">
        <ele>1570.8</ele>
        <time>2021-06-03T08:37:43Z</time>
      </trkpt>
      <trkpt lat="41.84347" lon="9.16827">
        <ele>1570.8</ele>
        <time>2021-06-03T08:37:44Z</time>
      </trkpt>
      <trkpt lat="41.84347" lon="9.16829">
        <ele>1571</ele>
        <time>2021-06-03T08:37:45Z</time>
      </trkpt>
      <trkpt lat="41.84348" lon="9.16831">
        <ele>1571</ele>
        <time>2021-06-03T08:37:46Z</time>
      </trkpt>
      <trkpt lat="41.84349" lon="9.16832">
        <ele>1571</ele>
        <time>2021-06-03T08:37:47Z</time>
      </trkpt>
      <trkpt lat="41.8435" lon="9.16834">
        <ele>1571</ele>
        <time>2021-06-03T08:37:48Z</time>
      </trkpt>
      <trkpt lat="41.8435" lon="9.16836">
        <ele>1571.4</ele>
        <time>2021-06-03T08:37:49Z</time>
      </trkpt>
      <trkpt lat="41.84351" lon="9.16838">
        <ele>1571.4</ele>
        <time>2021-06-03T08:37:50Z</time>
      </trkpt>
      <trkpt lat="41.84351" lon="9.16839">
        <ele>1571.4</ele>
        <time>2021-06-03T08:37:51Z</time>
      </trkpt>
      <trkpt lat="41.84352" lon="9.16841">
        <ele>1571.4</ele>
        <time>2021-06-03T08:37:52Z</time>
      </trkpt>
      <trkpt lat="41.84353" lon="9.16843">
        <ele>1571.8</ele>
        <time>2021-06-03T08:37:53Z</time>
      </trkpt>
      <trkpt lat="41.84353" lon="9.16845">
        <ele>1571.8</ele>
        <time>2021-06-03T08:37:54Z</time>
      </trkpt>
      <trkpt lat="41.84354" lon="9.16846">
        <ele>1571.8</ele>
        <time>2021-06-03T08:37:55Z</time>
      </trkpt>
      <trkpt lat="41.84355" lon="9.16848">
        <ele>1572.6</ele>
        <time>2021-06-03T08:37:56Z</time>
      </trkpt>
      <trkpt lat="41.84356" lon="9.1685">
        <ele>1572.2</ele>
        <time>2021-06-03T08:37:57Z</time>
      </trkpt>
      <trkpt lat="41.84357" lon="9.16851">
        <ele>1572.2</ele>
        <time>2021-06-03T08:37:58Z</time>
      </trkpt>
      <trkpt lat="41.84358" lon="9.16853">
        <ele>1572.2</ele>
        <time>2021-06-03T08:37:59Z</time>
      </trkpt>
      <trkpt lat="41.84358" lon="9.16855">
        <ele>1572.2</ele>
        <time>2021-06-03T08:38:00Z</time>
      </trkpt>
      <trkpt lat="41.84359" lon="9.16856">
        <ele>1572.6</ele>
        <time>2021-06-03T08:38:01Z</time>
      </trkpt>
      <trkpt lat="41.8436" lon="9.16858">
        <ele>1572.6</ele>
        <time>2021-06-03T08:38:02Z</time>
      </trkpt>
      <trkpt lat="41.84361" lon="9.16859">
        <ele>1572.6</ele>
        <time>2021-06-03T08:38:03Z</time>
      </trkpt>
      <trkpt lat="41.84362" lon="9.16861">
        <ele>1573.6</ele>
        <time>2021-06-03T08:38:04Z</time>
      </trkpt>
      <trkpt lat="41.84363" lon="9.16862">
        <ele>1574</ele>
        <time>2021-06-03T08:38:05Z</time>
      </trkpt>
      <trkpt lat="41.84364" lon="9.16864">
        <ele>1574</ele>
        <time>2021-06-03T08:38:06Z</time>
      </trkpt>
      <trkpt lat="41.84365" lon="9.16865">
        <ele>1574</ele>
        <time>2021-06-03T08:38:07Z</time>
      </trkpt>
      <trkpt lat="41.84365" lon="9.16867">
        <ele>1574.6</ele>
        <time>2021-06-03T08:38:08Z</time>
      </trkpt>
      <trkpt lat="41.84366" lon="9.16868">
        <ele>1574.8</ele>
        <time>2021-06-03T08:38:09Z</time>
      </trkpt>
      <trkpt lat="41.84367" lon="9.16869">
        <ele>1574.8</ele>
        <time>2021-06-03T08:38:10Z</time>
      </trkpt>
      <trkpt lat="41.84368" lon="9.16871">
        <ele>1574.8</ele>
        <time>2021-06-03T08:38:11Z</time>
      </trkpt>
      <trkpt lat="41.84368" lon="9.16872">
        <ele>1575.4</ele>
        <time>2021-06-03T08:38:12Z</time>
      </trkpt>
      <trkpt lat="41.84369" lon="9.16874">
        <ele>1575.4</ele>
        <time>2021-06-03T08:38:13Z</time>
      </trkpt>
      <trkpt lat="41.8437" lon="9.16875">
        <ele>1575.4</ele>
        <time>2021-06-03T08:38:14Z</time>
      </trkpt>
      <trkpt lat="41.84371" lon="9.16877">
        <ele>1575.4</ele>
        <time>2021-06-03T08:38:15Z</time>
      </trkpt>
      <trkpt lat="41.84372" lon="9.16878">
        <ele>1575.4</ele>
        <time>2021-06-03T08:38:16Z</time>
      </trkpt>
      <trkpt lat="41.84373" lon="9.1688">
        <ele>1576.4</ele>
        <time>2021-06-03T08:38:17Z</time>
      </trkpt>
      <trkpt lat="41.84373" lon="9.16881">
        <ele>1576.4</ele>
        <time>2021-06-03T08:38:18Z</time>
      </trkpt>
      <trkpt lat="41.84374" lon="9.16882">
        <ele>1576.4</ele>
        <time>2021-06-03T08:38:19Z</time>
      </trkpt>
      <trkpt lat="41.84375" lon="9.16883">
        <ele>1576.8</ele>
        <time>2021-06-03T08:38:20Z</time>
      </trkpt>
      <trkpt lat="41.84376" lon="9.16884">
        <ele>1577.4</ele>
        <time>2021-06-03T08:38:21Z</time>
      </trkpt>
      <trkpt lat="41.84377" lon="9.16885">
        <ele>1577.4</ele>
        <time>2021-06-03T08:38:22Z</time>
      </trkpt>
      <trkpt lat="41.84378" lon="9.16886">
        <ele>1577.4</ele>
        <time>2021-06-03T08:38:23Z</time>
      </trkpt>
      <trkpt lat="41.84379" lon="9.16887">
        <ele>1577.8</ele>
        <time>2021-06-03T08:38:24Z</time>
      </trkpt>
      <trkpt lat="41.8438" lon="9.16889">
        <ele>1578.2</ele>
        <time>2021-06-03T08:38:25Z</time>
      </trkpt>
      <trkpt lat="41.84381" lon="9.1689">
        <ele>1578.2</ele>
        <time>2021-06-03T08:38:26Z</time>
      </trkpt>
      <trkpt lat="41.84382" lon="9.16891">
        <ele>1578.2</ele>
        <time>2021-06-03T08:38:27Z</time>
      </trkpt>
      <trkpt lat="41.84383" lon="9.16892">
        <ele>1578.6</ele>
        <time>2021-06-03T08:38:28Z</time>
      </trkpt>
      <trkpt lat="41.84383" lon="9.16894">
        <ele>1578.8</ele>
        <time>2021-06-03T08:38:29Z</time>
      </trkpt>
      <trkpt lat="41.84384" lon="9.16895">
        <ele>1578.8</ele>
        <time>2021-06-03T08:38:30Z</time>
      </trkpt>
      <trkpt lat="41.84385" lon="9.16896">
        <ele>1578.8</ele>
        <time>2021-06-03T08:38:31Z</time>
      </trkpt>
      <trkpt lat="41.84386" lon="9.16897">
        <ele>1579</ele>
        <time>2021-06-03T08:38:32Z</time>
      </trkpt>
      <trkpt lat="41.84387" lon="9.16898">
        <ele>1579.2</ele>
        <time>2021-06-03T08:38:33Z</time>
      </trkpt>
      <trkpt lat="41.84388" lon="9.169">
        <ele>1579.2</ele>
        <time>2021-06-03T08:38:34Z</time>
      </trkpt>
      <trkpt lat="41.84389" lon="9.16901">
        <ele>1579.2</ele>
        <time>2021-06-03T08:38:35Z</time>
      </trkpt>
      <trkpt lat="41.84389" lon="9.16902">
        <ele>1580</ele>
        <time>2021-06-03T08:38:36Z</time>
      </trkpt>
      <trkpt lat="41.84389" lon="9.16904">
        <ele>1580.6</ele>
        <time>2021-06-03T08:38:37Z</time>
      </trkpt>
      <trkpt lat="41.8439" lon="9.16906">
        <ele>1580.6</ele>
        <time>2021-06-03T08:38:38Z</time>
      </trkpt>
      <trkpt lat="41.8439" lon="9.16908">
        <ele>1580.6</ele>
        <time>2021-06-03T08:38:39Z</time>
      </trkpt>
      <trkpt lat="41.84391" lon="9.1691">
        <ele>1580.6</ele>
        <time>2021-06-03T08:38:40Z</time>
      </trkpt>
      <trkpt lat="41.84391" lon="9.16911">
        <ele>1580.6</ele>
        <time>2021-06-03T08:38:41Z</time>
      </trkpt>
      <trkpt lat="41.84392" lon="9.16913">
        <ele>1580.6</ele>
        <time>2021-06-03T08:38:42Z</time>
      </trkpt>
      <trkpt lat="41.84393" lon="9.16914">
        <ele>1580.6</ele>
        <time>2021-06-03T08:38:43Z</time>
      </trkpt>
      <trkpt lat="41.84393" lon="9.16916">
        <ele>1580.6</ele>
        <time>2021-06-03T08:38:44Z</time>
      </trkpt>
      <trkpt lat="41.84394" lon="9.16917">
        <ele>1580.8</ele>
        <time>2021-06-03T08:38:45Z</time>
      </trkpt>
      <trkpt lat="41.84395" lon="9.16919">
        <ele>1580.8</ele>
        <time>2021-06-03T08:38:46Z</time>
      </trkpt>
      <trkpt lat="41.84395" lon="9.16921">
        <ele>1580.8</ele>
        <time>2021-06-03T08:38:47Z</time>
      </trkpt>
      <trkpt lat="41.84396" lon="9.16922">
        <ele>1580.8</ele>
        <time>2021-06-03T08:38:48Z</time>
      </trkpt>
      <trkpt lat="41.84397" lon="9.16924">
        <ele>1581</ele>
        <time>2021-06-03T08:38:49Z</time>
      </trkpt>
      <trkpt lat="41.84397" lon="9.16926">
        <ele>1581</ele>
        <time>2021-06-03T08:38:50Z</time>
      </trkpt>
      <trkpt lat="41.84398" lon="9.16927">
        <ele>1581</ele>
        <time>2021-06-03T08:38:51Z</time>
      </trkpt>
      <trkpt lat="41.84399" lon="9.16929">
        <ele>1581.2</ele>
        <time>2021-06-03T08:38:52Z</time>
      </trkpt>
      <trkpt lat="41.84399" lon="9.16931">
        <ele>1581.4</ele>
        <time>2021-06-03T08:38:53Z</time>
      </trkpt>
      <trkpt lat="41.844" lon="9.16932">
        <ele>1581.4</ele>
        <time>2021-06-03T08:38:54Z</time>
      </trkpt>
      <trkpt lat="41.84401" lon="9.16934">
        <ele>1581.4</ele>
        <time>2021-06-03T08:38:55Z</time>
      </trkpt>
      <trkpt lat="41.84402" lon="9.16936">
        <ele>1581.2</ele>
        <time>2021-06-03T08:38:56Z</time>
      </trkpt>
      <trkpt lat="41.84403" lon="9.16939">
        <ele>1581.4</ele>
        <time>2021-06-03T08:38:57Z</time>
      </trkpt>
      <trkpt lat="41.84404" lon="9.16941">
        <ele>1581.4</ele>
        <time>2021-06-03T08:38:58Z</time>
      </trkpt>
      <trkpt lat="41.84404" lon="9.16943">
        <ele>1581.4</ele>
        <time>2021-06-03T08:38:59Z</time>
      </trkpt>
      <trkpt lat="41.84405" lon="9.16945">
        <ele>1581.4</ele>
        <time>2021-06-03T08:39:00Z</time>
      </trkpt>
      <trkpt lat="41.84407" lon="9.16947">
        <ele>1581.6</ele>
        <time>2021-06-03T08:39:01Z</time>
      </trkpt>
      <trkpt lat="41.84408" lon="9.16949">
        <ele>1581.6</ele>
        <time>2021-06-03T08:39:02Z</time>
      </trkpt>
      <trkpt lat="41.84409" lon="9.16951">
        <ele>1581.6</ele>
        <time>2021-06-03T08:39:03Z</time>
      </trkpt>
      <trkpt lat="41.8441" lon="9.16953">
        <ele>1581.6</ele>
        <time>2021-06-03T08:39:04Z</time>
      </trkpt>
      <trkpt lat="41.84412" lon="9.16955">
        <ele>1581.6</ele>
        <time>2021-06-03T08:39:05Z</time>
      </trkpt>
      <trkpt lat="41.84413" lon="9.16956">
        <ele>1581.6</ele>
        <time>2021-06-03T08:39:06Z</time>
      </trkpt>
      <trkpt lat="41.84415" lon="9.16958">
        <ele>1581.6</ele>
        <time>2021-06-03T08:39:07Z</time>
      </trkpt>
      <trkpt lat="41.84416" lon="9.16959">
        <ele>1581.6</ele>
        <time>2021-06-03T08:39:08Z</time>
      </trkpt>
      <trkpt lat="41.84418" lon="9.16961">
        <ele>1581.4</ele>
        <time>2021-06-03T08:39:09Z</time>
      </trkpt>
      <trkpt lat="41.8442" lon="9.16962">
        <ele>1581.4</ele>
        <time>2021-06-03T08:39:10Z</time>
      </trkpt>
      <trkpt lat="41.84422" lon="9.16963">
        <ele>1581.4</ele>
        <time>2021-06-03T08:39:11Z</time>
      </trkpt>
      <trkpt lat="41.84424" lon="9.16964">
        <ele>1581.4</ele>
        <time>2021-06-03T08:39:12Z</time>
      </trkpt>
      <trkpt lat="41.84426" lon="9.16965">
        <ele>1581.4</ele>
        <time>2021-06-03T08:39:13Z</time>
      </trkpt>
      <trkpt lat="41.84428" lon="9.16966">
        <ele>1581.4</ele>
        <time>2021-06-03T08:39:14Z</time>
      </trkpt>
      <trkpt lat="41.84429" lon="9.16967">
        <ele>1581.4</ele>
        <time>2021-06-03T08:39:15Z</time>
      </trkpt>
      <trkpt lat="41.84431" lon="9.16968">
        <ele>1581.4</ele>
        <time>2021-06-03T08:39:16Z</time>
      </trkpt>
      <trkpt lat="41.84433" lon="9.16968">
        <ele>1582.2</ele>
        <time>2021-06-03T08:39:17Z</time>
      </trkpt>
      <trkpt lat="41.84435" lon="9.16969">
        <ele>1582.2</ele>
        <time>2021-06-03T08:39:18Z</time>
      </trkpt>
      <trkpt lat="41.84437" lon="9.1697">
        <ele>1582.2</ele>
        <time>2021-06-03T08:39:19Z</time>
      </trkpt>
      <trkpt lat="41.84439" lon="9.1697">
        <ele>1582</ele>
        <time>2021-06-03T08:39:20Z</time>
      </trkpt>
      <trkpt lat="41.84441" lon="9.16971">
        <ele>1582</ele>
        <time>2021-06-03T08:39:21Z</time>
      </trkpt>
      <trkpt lat="41.84443" lon="9.16972">
        <ele>1582</ele>
        <time>2021-06-03T08:39:22Z</time>
      </trkpt>
      <trkpt lat="41.84445" lon="9.16973">
        <ele>1582</ele>
        <time>2021-06-03T08:39:23Z</time>
      </trkpt>
      <trkpt lat="41.84447" lon="9.16973">
        <ele>1582</ele>
        <time>2021-06-03T08:39:24Z</time>
      </trkpt>
      <trkpt lat="41.84449" lon="9.16973">
        <ele>1581.6</ele>
        <time>2021-06-03T08:39:25Z</time>
      </trkpt>
      <trkpt lat="41.84452" lon="9.16973">
        <ele>1581.6</ele>
        <time>2021-06-03T08:39:26Z</time>
      </trkpt>
      <trkpt lat="41.84454" lon="9.16973">
        <ele>1581.6</ele>
        <time>2021-06-03T08:39:27Z</time>
      </trkpt>
      <trkpt lat="41.84457" lon="9.16973">
        <ele>1581.6</ele>
        <time>2021-06-03T08:39:28Z</time>
      </trkpt>
      <trkpt lat="41.8446" lon="9.16973">
        <ele>1581.4</ele>
        <time>2021-06-03T08:39:29Z</time>
      </trkpt>
      <trkpt lat="41.84463" lon="9.16973">
        <ele>1581.4</ele>
        <time>2021-06-03T08:39:30Z</time>
      </trkpt>
      <trkpt lat="41.84465" lon="9.16974">
        <ele>1581.4</ele>
        <time>2021-06-03T08:39:31Z</time>
      </trkpt>
      <trkpt lat="41.84467" lon="9.16974">
        <ele>1581.4</ele>
        <time>2021-06-03T08:39:32Z</time>
      </trkpt>
      <trkpt lat="41.84469" lon="9.16974">
        <ele>1582.2</ele>
        <time>2021-06-03T08:39:33Z</time>
      </trkpt>
      <trkpt lat="41.84471" lon="9.16973">
        <ele>1582.2</ele>
        <time>2021-06-03T08:39:34Z</time>
      </trkpt>
      <trkpt lat="41.84473" lon="9.16973">
        <ele>1582.2</ele>
        <time>2021-06-03T08:39:35Z</time>
      </trkpt>
      <trkpt lat="41.84474" lon="9.16972">
        <ele>1582.2</ele>
        <time>2021-06-03T08:39:36Z</time>
      </trkpt>
      <trkpt lat="41.84476" lon="9.16972">
        <ele>1582</ele>
        <time>2021-06-03T08:39:37Z</time>
      </trkpt>
      <trkpt lat="41.84478" lon="9.16971">
        <ele>1582</ele>
        <time>2021-06-03T08:39:38Z</time>
      </trkpt>
      <trkpt lat="41.84479" lon="9.16971">
        <ele>1582</ele>
        <time>2021-06-03T08:39:39Z</time>
      </trkpt>
      <trkpt lat="41.84481" lon="9.1697">
        <ele>1582.6</ele>
        <time>2021-06-03T08:39:40Z</time>
      </trkpt>
      <trkpt lat="41.84483" lon="9.1697">
        <ele>1583</ele>
        <time>2021-06-03T08:39:41Z</time>
      </trkpt>
      <trkpt lat="41.84484" lon="9.1697">
        <ele>1583</ele>
        <time>2021-06-03T08:39:42Z</time>
      </trkpt>
      <trkpt lat="41.84486" lon="9.1697">
        <ele>1583</ele>
        <time>2021-06-03T08:39:43Z</time>
      </trkpt>
      <trkpt lat="41.84488" lon="9.1697">
        <ele>1583</ele>
        <time>2021-06-03T08:39:44Z</time>
      </trkpt>
      <trkpt lat="41.84489" lon="9.1697">
        <ele>1583.4</ele>
        <time>2021-06-03T08:39:45Z</time>
      </trkpt>
      <trkpt lat="41.84491" lon="9.16971">
        <ele>1583.4</ele>
        <time>2021-06-03T08:39:46Z</time>
      </trkpt>
      <trkpt lat="41.84492" lon="9.16972">
        <ele>1583.4</ele>
        <time>2021-06-03T08:39:47Z</time>
      </trkpt>
      <trkpt lat="41.84494" lon="9.16973">
        <ele>1584.4</ele>
        <time>2021-06-03T08:39:48Z</time>
      </trkpt>
      <trkpt lat="41.84495" lon="9.16974">
        <ele>1584</ele>
        <time>2021-06-03T08:39:49Z</time>
      </trkpt>
      <trkpt lat="41.84497" lon="9.16976">
        <ele>1584</ele>
        <time>2021-06-03T08:39:50Z</time>
      </trkpt>
      <trkpt lat="41.84498" lon="9.16977">
        <ele>1584</ele>
        <time>2021-06-03T08:39:51Z</time>
      </trkpt>
      <trkpt lat="41.84499" lon="9.16978">
        <ele>1584.6</ele>
        <time>2021-06-03T08:39:52Z</time>
      </trkpt>
      <trkpt lat="41.84501" lon="9.16979">
        <ele>1584.4</ele>
        <time>2021-06-03T08:39:53Z</time>
      </trkpt>
      <trkpt lat="41.84502" lon="9.1698">
        <ele>1584.4</ele>
        <time>2021-06-03T08:39:54Z</time>
      </trkpt>
      <trkpt lat="41.84504" lon="9.16981">
        <ele>1584.4</ele>
        <time>2021-06-03T08:39:55Z</time>
      </trkpt>
      <trkpt lat="41.84505" lon="9.16983">
        <ele>1584.8</ele>
        <time>2021-06-03T08:39:56Z</time>
      </trkpt>
      <trkpt lat="41.84507" lon="9.16984">
        <ele>1585.4</ele>
        <time>2021-06-03T08:39:57Z</time>
      </trkpt>
      <trkpt lat="41.84508" lon="9.16986">
        <ele>1585.4</ele>
        <time>2021-06-03T08:39:58Z</time>
      </trkpt>
      <trkpt lat="41.8451" lon="9.16988">
        <ele>1585.4</ele>
        <time>2021-06-03T08:39:59Z</time>
      </trkpt>
      <trkpt lat="41.84512" lon="9.16989">
        <ele>1585.4</ele>
        <time>2021-06-03T08:40:00Z</time>
      </trkpt>
      <trkpt lat="41.84513" lon="9.16991">
        <ele>1584</ele>
        <time>2021-06-03T08:40:01Z</time>
      </trkpt>
      <trkpt lat="41.84515" lon="9.16993">
        <ele>1584</ele>
        <time>2021-06-03T08:40:02Z</time>
      </trkpt>
      <trkpt lat="41.84517" lon="9.16995">
        <ele>1584</ele>
        <time>2021-06-03T08:40:03Z</time>
      </trkpt>
      <trkpt lat="41.84519" lon="9.16997">
        <ele>1584</ele>
        <time>2021-06-03T08:40:04Z</time>
      </trkpt>
      <trkpt lat="41.84521" lon="9.16999">
        <ele>1583.6</ele>
        <time>2021-06-03T08:40:05Z</time>
      </trkpt>
      <trkpt lat="41.84522" lon="9.17001">
        <ele>1583.6</ele>
        <time>2021-06-03T08:40:06Z</time>
      </trkpt>
      <trkpt lat="41.84524" lon="9.17003">
        <ele>1583.6</ele>
        <time>2021-06-03T08:40:07Z</time>
      </trkpt>
      <trkpt lat="41.84526" lon="9.17005">
        <ele>1584.2</ele>
        <time>2021-06-03T08:40:08Z</time>
      </trkpt>
      <trkpt lat="41.84527" lon="9.17007">
        <ele>1584.2</ele>
        <time>2021-06-03T08:40:09Z</time>
      </trkpt>
      <trkpt lat="41.84528" lon="9.1701">
        <ele>1584.2</ele>
        <time>2021-06-03T08:40:10Z</time>
      </trkpt>
      <trkpt lat="41.8453" lon="9.17012">
        <ele>1584.2</ele>
        <time>2021-06-03T08:40:11Z</time>
      </trkpt>
      <trkpt lat="41.84531" lon="9.17014">
        <ele>1584.6</ele>
        <time>2021-06-03T08:40:12Z</time>
      </trkpt>
      <trkpt lat="41.84533" lon="9.17016">
        <ele>1584.8</ele>
        <time>2021-06-03T08:40:13Z</time>
      </trkpt>
      <trkpt lat="41.84534" lon="9.17019">
        <ele>1584.8</ele>
        <time>2021-06-03T08:40:14Z</time>
      </trkpt>
      <trkpt lat="41.84535" lon="9.17021">
        <ele>1584.8</ele>
        <time>2021-06-03T08:40:15Z</time>
      </trkpt>
      <trkpt lat="41.84537" lon="9.17024">
        <ele>1584.8</ele>
        <time>2021-06-03T08:40:16Z</time>
      </trkpt>
      <trkpt lat="41.84538" lon="9.17026">
        <ele>1583.6</ele>
        <time>2021-06-03T08:40:17Z</time>
      </trkpt>
      <trkpt lat="41.8454" lon="9.1703">
        <ele>1583.6</ele>
        <time>2021-06-03T08:40:18Z</time>
      </trkpt>
      <trkpt lat="41.84543" lon="9.17033">
        <ele>1583.6</ele>
        <time>2021-06-03T08:40:19Z</time>
      </trkpt>
      <trkpt lat="41.84545" lon="9.17035">
        <ele>1582.8</ele>
        <time>2021-06-03T08:40:20Z</time>
      </trkpt>
      <trkpt lat="41.84546" lon="9.17038">
        <ele>1582.2</ele>
        <time>2021-06-03T08:40:21Z</time>
      </trkpt>
      <trkpt lat="41.84548" lon="9.17041">
        <ele>1582.2</ele>
        <time>2021-06-03T08:40:22Z</time>
      </trkpt>
      <trkpt lat="41.84549" lon="9.17042">
        <ele>1582.2</ele>
        <time>2021-06-03T08:40:23Z</time>
      </trkpt>
      <trkpt lat="41.84551" lon="9.17044">
        <ele>1583.2</ele>
        <time>2021-06-03T08:40:24Z</time>
      </trkpt>
      <trkpt lat="41.84552" lon="9.17046">
        <ele>1583.4</ele>
        <time>2021-06-03T08:40:25Z</time>
      </trkpt>
      <trkpt lat="41.84554" lon="9.17048">
        <ele>1583.4</ele>
        <time>2021-06-03T08:40:26Z</time>
      </trkpt>
      <trkpt lat="41.84555" lon="9.1705">
        <ele>1583.4</ele>
        <time>2021-06-03T08:40:27Z</time>
      </trkpt>
      <trkpt lat="41.84556" lon="9.17051">
        <ele>1584.4</ele>
        <time>2021-06-03T08:40:28Z</time>
      </trkpt>
      <trkpt lat="41.84558" lon="9.17053">
        <ele>1585.2</ele>
        <time>2021-06-03T08:40:29Z</time>
      </trkpt>
      <trkpt lat="41.84559" lon="9.17054">
        <ele>1585.2</ele>
        <time>2021-06-03T08:40:30Z</time>
      </trkpt>
      <trkpt lat="41.8456" lon="9.17056">
        <ele>1585.2</ele>
        <time>2021-06-03T08:40:31Z</time>
      </trkpt>
      <trkpt lat="41.84562" lon="9.17057">
        <ele>1584.8</ele>
        <time>2021-06-03T08:40:32Z</time>
      </trkpt>
      <trkpt lat="41.84563" lon="9.17059">
        <ele>1584.8</ele>
        <time>2021-06-03T08:40:33Z</time>
      </trkpt>
      <trkpt lat="41.84565" lon="9.17061">
        <ele>1584.8</ele>
        <time>2021-06-03T08:40:34Z</time>
      </trkpt>
      <trkpt lat="41.84566" lon="9.17063">
        <ele>1584.8</ele>
        <time>2021-06-03T08:40:35Z</time>
      </trkpt>
      <trkpt lat="41.84568" lon="9.17065">
        <ele>1584.8</ele>
        <time>2021-06-03T08:40:36Z</time>
      </trkpt>
      <trkpt lat="41.8457" lon="9.17067">
        <ele>1584.8</ele>
        <time>2021-06-03T08:40:37Z</time>
      </trkpt>
      <trkpt lat="41.84571" lon="9.17069">
        <ele>1584.8</ele>
        <time>2021-06-03T08:40:38Z</time>
      </trkpt>
      <trkpt lat="41.84573" lon="9.17071">
        <ele>1584.8</ele>
        <time>2021-06-03T08:40:39Z</time>
      </trkpt>
      <trkpt lat="41.84575" lon="9.17073">
        <ele>1584.2</ele>
        <time>2021-06-03T08:40:40Z</time>
      </trkpt>
      <trkpt lat="41.84576" lon="9.17076">
        <ele>1583.6</ele>
        <time>2021-06-03T08:40:41Z</time>
      </trkpt>
      <trkpt lat="41.84578" lon="9.17077">
        <ele>1583.6</ele>
        <time>2021-06-03T08:40:42Z</time>
      </trkpt>
      <trkpt lat="41.8458" lon="9.17078">
        <ele>1583.6</ele>
        <time>2021-06-03T08:40:43Z</time>
      </trkpt>
      <trkpt lat="41.84581" lon="9.17079">
        <ele>1584.2</ele>
        <time>2021-06-03T08:40:44Z</time>
      </trkpt>
      <trkpt lat="41.84583" lon="9.17078">
        <ele>1584.4</ele>
        <time>2021-06-03T08:40:45Z</time>
      </trkpt>
      <trkpt lat="41.84585" lon="9.17078">
        <ele>1584.4</ele>
        <time>2021-06-03T08:40:46Z</time>
      </trkpt>
      <trkpt lat="41.84586" lon="9.17077">
        <ele>1584.4</ele>
        <time>2021-06-03T08:40:47Z</time>
      </trkpt>
      <trkpt lat="41.84588" lon="9.17076">
        <ele>1584.4</ele>
        <time>2021-06-03T08:40:48Z</time>
      </trkpt>
      <trkpt lat="41.84589" lon="9.17075">
        <ele>1584.8</ele>
        <time>2021-06-03T08:40:49Z</time>
      </trkpt>
      <trkpt lat="41.8459" lon="9.17074">
        <ele>1584.8</ele>
        <time>2021-06-03T08:40:50Z</time>
      </trkpt>
      <trkpt lat="41.84592" lon="9.17073">
        <ele>1584.8</ele>
        <time>2021-06-03T08:40:51Z</time>
      </trkpt>
      <trkpt lat="41.84593" lon="9.17072">
        <ele>1585.4</ele>
        <time>2021-06-03T08:40:52Z</time>
      </trkpt>
      <trkpt lat="41.84594" lon="9.17071">
        <ele>1585.4</ele>
        <time>2021-06-03T08:40:53Z</time>
      </trkpt>
      <trkpt lat="41.84595" lon="9.1707">
        <ele>1585.4</ele>
        <time>2021-06-03T08:40:54Z</time>
      </trkpt>
      <trkpt lat="41.84597" lon="9.17069">
        <ele>1585.4</ele>
        <time>2021-06-03T08:40:55Z</time>
      </trkpt>
      <trkpt lat="41.84598" lon="9.17069">
        <ele>1586.4</ele>
        <time>2021-06-03T08:40:56Z</time>
      </trkpt>
      <trkpt lat="41.84599" lon="9.17068">
        <ele>1586.2</ele>
        <time>2021-06-03T08:40:57Z</time>
      </trkpt>
      <trkpt lat="41.84601" lon="9.17067">
        <ele>1586.2</ele>
        <time>2021-06-03T08:40:58Z</time>
      </trkpt>
      <trkpt lat="41.84602" lon="9.17067">
        <ele>1586.2</ele>
        <time>2021-06-03T08:40:59Z</time>
      </trkpt>
      <trkpt lat="41.84603" lon="9.17066">
        <ele>1586.4</ele>
        <time>2021-06-03T08:41:00Z</time>
      </trkpt>
      <trkpt lat="41.84605" lon="9.17065">
        <ele>1586.8</ele>
        <time>2021-06-03T08:41:01Z</time>
      </trkpt>
      <trkpt lat="41.84606" lon="9.17065">
        <ele>1586.8</ele>
        <time>2021-06-03T08:41:02Z</time>
      </trkpt>
      <trkpt lat="41.84608" lon="9.17065">
        <ele>1586.8</ele>
        <time>2021-06-03T08:41:03Z</time>
      </trkpt>
      <trkpt lat="41.84609" lon="9.17065">
        <ele>1587.4</ele>
        <time>2021-06-03T08:41:04Z</time>
      </trkpt>
      <trkpt lat="41.84611" lon="9.17065">
        <ele>1587.4</ele>
        <time>2021-06-03T08:41:05Z</time>
      </trkpt>
      <trkpt lat="41.84612" lon="9.17065">
        <ele>1587.4</ele>
        <time>2021-06-03T08:41:06Z</time>
      </trkpt>
      <trkpt lat="41.84614" lon="9.17065">
        <ele>1587.4</ele>
        <time>2021-06-03T08:41:07Z</time>
      </trkpt>
      <trkpt lat="41.84615" lon="9.17066">
        <ele>1587.4</ele>
        <time>2021-06-03T08:41:08Z</time>
      </trkpt>
      <trkpt lat="41.84616" lon="9.17066">
        <ele>1588.4</ele>
        <time>2021-06-03T08:41:09Z</time>
      </trkpt>
      <trkpt lat="41.84618" lon="9.17066">
        <ele>1588.4</ele>
        <time>2021-06-03T08:41:10Z</time>
      </trkpt>
      <trkpt lat="41.84619" lon="9.17067">
        <ele>1588.4</ele>
        <time>2021-06-03T08:41:11Z</time>
      </trkpt>
      <trkpt lat="41.8462" lon="9.17068">
        <ele>1589.4</ele>
        <time>2021-06-03T08:41:12Z</time>
      </trkpt>
      <trkpt lat="41.84622" lon="9.17068">
        <ele>1589.2</ele>
        <time>2021-06-03T08:41:13Z</time>
      </trkpt>
      <trkpt lat="41.84623" lon="9.17069">
        <ele>1589.2</ele>
        <time>2021-06-03T08:41:14Z</time>
      </trkpt>
      <trkpt lat="41.84625" lon="9.1707">
        <ele>1589.2</ele>
        <time>2021-06-03T08:41:15Z</time>
      </trkpt>
      <trkpt lat="41.84626" lon="9.1707">
        <ele>1589.2</ele>
        <time>2021-06-03T08:41:16Z</time>
      </trkpt>
      <trkpt lat="41.84627" lon="9.17071">
        <ele>1589.6</ele>
        <time>2021-06-03T08:41:17Z</time>
      </trkpt>
      <trkpt lat="41.84628" lon="9.17071">
        <ele>1589.6</ele>
        <time>2021-06-03T08:41:18Z</time>
      </trkpt>
      <trkpt lat="41.8463" lon="9.17072">
        <ele>1589.6</ele>
        <time>2021-06-03T08:41:19Z</time>
      </trkpt>
      <trkpt lat="41.84631" lon="9.17073">
        <ele>1590.2</ele>
        <time>2021-06-03T08:41:20Z</time>
      </trkpt>
      <trkpt lat="41.84632" lon="9.17074">
        <ele>1590.2</ele>
        <time>2021-06-03T08:41:21Z</time>
      </trkpt>
      <trkpt lat="41.84633" lon="9.17074">
        <ele>1590.2</ele>
        <time>2021-06-03T08:41:22Z</time>
      </trkpt>
      <trkpt lat="41.84635" lon="9.17075">
        <ele>1590.2</ele>
        <time>2021-06-03T08:41:23Z</time>
      </trkpt>
      <trkpt lat="41.84636" lon="9.17075">
        <ele>1591.2</ele>
        <time>2021-06-03T08:41:24Z</time>
      </trkpt>
      <trkpt lat="41.84637" lon="9.17076">
        <ele>1591.4</ele>
        <time>2021-06-03T08:41:25Z</time>
      </trkpt>
      <trkpt lat="41.84638" lon="9.17077">
        <ele>1591.4</ele>
        <time>2021-06-03T08:41:26Z</time>
      </trkpt>
      <trkpt lat="41.8464" lon="9.17077">
        <ele>1591.4</ele>
        <time>2021-06-03T08:41:27Z</time>
      </trkpt>
      <trkpt lat="41.84641" lon="9.17077">
        <ele>1591.4</ele>
        <time>2021-06-03T08:41:28Z</time>
      </trkpt>
      <trkpt lat="41.84643" lon="9.17077">
        <ele>1591</ele>
        <time>2021-06-03T08:41:29Z</time>
      </trkpt>
      <trkpt lat="41.84644" lon="9.17077">
        <ele>1591</ele>
        <time>2021-06-03T08:41:30Z</time>
      </trkpt>
      <trkpt lat="41.84645" lon="9.17077">
        <ele>1591</ele>
        <time>2021-06-03T08:41:31Z</time>
      </trkpt>
      <trkpt lat="41.84647" lon="9.17077">
        <ele>1591.4</ele>
        <time>2021-06-03T08:41:32Z</time>
      </trkpt>
      <trkpt lat="41.84648" lon="9.17077">
        <ele>1591.4</ele>
        <time>2021-06-03T08:41:33Z</time>
      </trkpt>
      <trkpt lat="41.84649" lon="9.17077">
        <ele>1591.4</ele>
        <time>2021-06-03T08:41:34Z</time>
      </trkpt>
      <trkpt lat="41.84651" lon="9.17077">
        <ele>1591.4</ele>
        <time>2021-06-03T08:41:35Z</time>
      </trkpt>
      <trkpt lat="41.84652" lon="9.17077">
        <ele>1591.4</ele>
        <time>2021-06-03T08:41:36Z</time>
      </trkpt>
      <trkpt lat="41.84653" lon="9.17076">
        <ele>1591.8</ele>
        <time>2021-06-03T08:41:37Z</time>
      </trkpt>
      <trkpt lat="41.84655" lon="9.17076">
        <ele>1591.8</ele>
        <time>2021-06-03T08:41:38Z</time>
      </trkpt>
      <trkpt lat="41.84656" lon="9.17076">
        <ele>1591.8</ele>
        <time>2021-06-03T08:41:39Z</time>
      </trkpt>
      <trkpt lat="41.84657" lon="9.17075">
        <ele>1592.6</ele>
        <time>2021-06-03T08:41:40Z</time>
      </trkpt>
      <trkpt lat="41.84658" lon="9.17074">
        <ele>1593</ele>
        <time>2021-06-03T08:41:41Z</time>
      </trkpt>
      <trkpt lat="41.8466" lon="9.17073">
        <ele>1593</ele>
        <time>2021-06-03T08:41:42Z</time>
      </trkpt>
      <trkpt lat="41.84661" lon="9.17072">
        <ele>1593</ele>
        <time>2021-06-03T08:41:43Z</time>
      </trkpt>
      <trkpt lat="41.84662" lon="9.17072">
        <ele>1593</ele>
        <time>2021-06-03T08:41:44Z</time>
      </trkpt>
      <trkpt lat="41.84663" lon="9.17071">
        <ele>1593.2</ele>
        <time>2021-06-03T08:41:45Z</time>
      </trkpt>
      <trkpt lat="41.84665" lon="9.17071">
        <ele>1593.2</ele>
        <time>2021-06-03T08:41:46Z</time>
      </trkpt>
      <trkpt lat="41.84666" lon="9.17071">
        <ele>1593.2</ele>
        <time>2021-06-03T08:41:47Z</time>
      </trkpt>
      <trkpt lat="41.84667" lon="9.17071">
        <ele>1593.8</ele>
        <time>2021-06-03T08:41:48Z</time>
      </trkpt>
      <trkpt lat="41.84669" lon="9.17071">
        <ele>1594.2</ele>
        <time>2021-06-03T08:41:49Z</time>
      </trkpt>
      <trkpt lat="41.8467" lon="9.17071">
        <ele>1594.2</ele>
        <time>2021-06-03T08:41:50Z</time>
      </trkpt>
      <trkpt lat="41.84672" lon="9.17072">
        <ele>1594.2</ele>
        <time>2021-06-03T08:41:51Z</time>
      </trkpt>
      <trkpt lat="41.84673" lon="9.17072">
        <ele>1594.2</ele>
        <time>2021-06-03T08:41:52Z</time>
      </trkpt>
      <trkpt lat="41.84674" lon="9.17073">
        <ele>1595</ele>
        <time>2021-06-03T08:41:53Z</time>
      </trkpt>
      <trkpt lat="41.84676" lon="9.17074">
        <ele>1595</ele>
        <time>2021-06-03T08:41:54Z</time>
      </trkpt>
      <trkpt lat="41.84677" lon="9.17075">
        <ele>1595</ele>
        <time>2021-06-03T08:41:55Z</time>
      </trkpt>
      <trkpt lat="41.84678" lon="9.17075">
        <ele>1594.4</ele>
        <time>2021-06-03T08:41:56Z</time>
      </trkpt>
      <trkpt lat="41.8468" lon="9.17076">
        <ele>1594.4</ele>
        <time>2021-06-03T08:41:57Z</time>
      </trkpt>
      <trkpt lat="41.84681" lon="9.17077">
        <ele>1594.4</ele>
        <time>2021-06-03T08:41:58Z</time>
      </trkpt>
      <trkpt lat="41.84683" lon="9.17077">
        <ele>1594.4</ele>
        <time>2021-06-03T08:41:59Z</time>
      </trkpt>
      <trkpt lat="41.84684" lon="9.17078">
        <ele>1594.8</ele>
        <time>2021-06-03T08:42:00Z</time>
      </trkpt>
      <trkpt lat="41.84685" lon="9.17079">
        <ele>1595</ele>
        <time>2021-06-03T08:42:01Z</time>
      </trkpt>
      <trkpt lat="41.84687" lon="9.1708">
        <ele>1595</ele>
        <time>2021-06-03T08:42:02Z</time>
      </trkpt>
      <trkpt lat="41.84688" lon="9.1708">
        <ele>1595</ele>
        <time>2021-06-03T08:42:03Z</time>
      </trkpt>
      <trkpt lat="41.8469" lon="9.17081">
        <ele>1595</ele>
        <time>2021-06-03T08:42:04Z</time>
      </trkpt>
      <trkpt lat="41.84691" lon="9.17081">
        <ele>1594.8</ele>
        <time>2021-06-03T08:42:05Z</time>
      </trkpt>
      <trkpt lat="41.84693" lon="9.17082">
        <ele>1594.8</ele>
        <time>2021-06-03T08:42:06Z</time>
      </trkpt>
      <trkpt lat="41.84694" lon="9.17083">
        <ele>1594.8</ele>
        <time>2021-06-03T08:42:07Z</time>
      </trkpt>
      <trkpt lat="41.84696" lon="9.17084">
        <ele>1595.6</ele>
        <time>2021-06-03T08:42:08Z</time>
      </trkpt>
      <trkpt lat="41.84697" lon="9.17085">
        <ele>1595.6</ele>
        <time>2021-06-03T08:42:09Z</time>
      </trkpt>
      <trkpt lat="41.84699" lon="9.17085">
        <ele>1595.6</ele>
        <time>2021-06-03T08:42:10Z</time>
      </trkpt>
      <trkpt lat="41.847" lon="9.17086">
        <ele>1595.6</ele>
        <time>2021-06-03T08:42:11Z</time>
      </trkpt>
      <trkpt lat="41.84702" lon="9.17088">
        <ele>1595.6</ele>
        <time>2021-06-03T08:42:12Z</time>
      </trkpt>
      <trkpt lat="41.84704" lon="9.17089">
        <ele>1595.8</ele>
        <time>2021-06-03T08:42:13Z</time>
      </trkpt>
      <trkpt lat="41.84705" lon="9.17091">
        <ele>1595.8</ele>
        <time>2021-06-03T08:42:14Z</time>
      </trkpt>
      <trkpt lat="41.84707" lon="9.17092">
        <ele>1595.8</ele>
        <time>2021-06-03T08:42:15Z</time>
      </trkpt>
      <trkpt lat="41.84709" lon="9.17093">
        <ele>1595.4</ele>
        <time>2021-06-03T08:42:16Z</time>
      </trkpt>
      <trkpt lat="41.8471" lon="9.17095">
        <ele>1595.4</ele>
        <time>2021-06-03T08:42:17Z</time>
      </trkpt>
      <trkpt lat="41.84712" lon="9.17096">
        <ele>1595.4</ele>
        <time>2021-06-03T08:42:18Z</time>
      </trkpt>
      <trkpt lat="41.84714" lon="9.17097">
        <ele>1595.4</ele>
        <time>2021-06-03T08:42:19Z</time>
      </trkpt>
      <trkpt lat="41.84716" lon="9.17099">
        <ele>1596</ele>
        <time>2021-06-03T08:42:20Z</time>
      </trkpt>
      <trkpt lat="41.84717" lon="9.171">
        <ele>1596.4</ele>
        <time>2021-06-03T08:42:21Z</time>
      </trkpt>
      <trkpt lat="41.84718" lon="9.17102">
        <ele>1596.4</ele>
        <time>2021-06-03T08:42:22Z</time>
      </trkpt>
      <trkpt lat="41.8472" lon="9.17103">
        <ele>1596.4</ele>
        <time>2021-06-03T08:42:23Z</time>
      </trkpt>
      <trkpt lat="41.84721" lon="9.17105">
        <ele>1596.4</ele>
        <time>2021-06-03T08:42:24Z</time>
      </trkpt>
      <trkpt lat="41.84723" lon="9.17107">
        <ele>1595.8</ele>
        <time>2021-06-03T08:42:25Z</time>
      </trkpt>
      <trkpt lat="41.84724" lon="9.17108">
        <ele>1595.8</ele>
        <time>2021-06-03T08:42:26Z</time>
      </trkpt>
      <trkpt lat="41.84726" lon="9.1711">
        <ele>1595.8</ele>
        <time>2021-06-03T08:42:27Z</time>
      </trkpt>
      <trkpt lat="41.84728" lon="9.17111">
        <ele>1596.2</ele>
        <time>2021-06-03T08:42:28Z</time>
      </trkpt>
      <trkpt lat="41.84729" lon="9.17113">
        <ele>1596</ele>
        <time>2021-06-03T08:42:29Z</time>
      </trkpt>
      <trkpt lat="41.84731" lon="9.17115">
        <ele>1596</ele>
        <time>2021-06-03T08:42:30Z</time>
      </trkpt>
      <trkpt lat="41.84732" lon="9.17116">
        <ele>1596</ele>
        <time>2021-06-03T08:42:31Z</time>
      </trkpt>
      <trkpt lat="41.84734" lon="9.17118">
        <ele>1596</ele>
        <time>2021-06-03T08:42:32Z</time>
      </trkpt>
      <trkpt lat="41.84736" lon="9.1712">
        <ele>1596</ele>
        <time>2021-06-03T08:42:33Z</time>
      </trkpt>
      <trkpt lat="41.84738" lon="9.17122">
        <ele>1596</ele>
        <time>2021-06-03T08:42:34Z</time>
      </trkpt>
      <trkpt lat="41.8474" lon="9.17124">
        <ele>1596</ele>
        <time>2021-06-03T08:42:35Z</time>
      </trkpt>
      <trkpt lat="41.84742" lon="9.17126">
        <ele>1596</ele>
        <time>2021-06-03T08:42:36Z</time>
      </trkpt>
      <trkpt lat="41.84743" lon="9.17128">
        <ele>1595.4</ele>
        <time>2021-06-03T08:42:37Z</time>
      </trkpt>
      <trkpt lat="41.84745" lon="9.1713">
        <ele>1595.4</ele>
        <time>2021-06-03T08:42:38Z</time>
      </trkpt>
      <trkpt lat="41.84747" lon="9.17132">
        <ele>1595.4</ele>
        <time>2021-06-03T08:42:39Z</time>
      </trkpt>
      <trkpt lat="41.84748" lon="9.17134">
        <ele>1596.2</ele>
        <time>2021-06-03T08:42:40Z</time>
      </trkpt>
      <trkpt lat="41.8475" lon="9.17136">
        <ele>1595.8</ele>
        <time>2021-06-03T08:42:41Z</time>
      </trkpt>
      <trkpt lat="41.84751" lon="9.17138">
        <ele>1595.8</ele>
        <time>2021-06-03T08:42:42Z</time>
      </trkpt>
      <trkpt lat="41.84753" lon="9.1714">
        <ele>1595.8</ele>
        <time>2021-06-03T08:42:43Z</time>
      </trkpt>
      <trkpt lat="41.84755" lon="9.17141">
        <ele>1596</ele>
        <time>2021-06-03T08:42:44Z</time>
      </trkpt>
      <trkpt lat="41.84758" lon="9.17142">
        <ele>1595.8</ele>
        <time>2021-06-03T08:42:45Z</time>
      </trkpt>
      <trkpt lat="41.8476" lon="9.17143">
        <ele>1595.8</ele>
        <time>2021-06-03T08:42:46Z</time>
      </trkpt>
      <trkpt lat="41.84762" lon="9.17143">
        <ele>1595.8</ele>
        <time>2021-06-03T08:42:47Z</time>
      </trkpt>
      <trkpt lat="41.84763" lon="9.17142">
        <ele>1595.8</ele>
        <time>2021-06-03T08:42:48Z</time>
      </trkpt>
      <trkpt lat="41.84765" lon="9.17141">
        <ele>1596</ele>
        <time>2021-06-03T08:42:49Z</time>
      </trkpt>
      <trkpt lat="41.84767" lon="9.17141">
        <ele>1596</ele>
        <time>2021-06-03T08:42:50Z</time>
      </trkpt>
      <trkpt lat="41.84768" lon="9.1714">
        <ele>1596</ele>
        <time>2021-06-03T08:42:51Z</time>
      </trkpt>
      <trkpt lat="41.84769" lon="9.17139">
        <ele>1597</ele>
        <time>2021-06-03T08:42:52Z</time>
      </trkpt>
      <trkpt lat="41.84771" lon="9.17138">
        <ele>1597.2</ele>
        <time>2021-06-03T08:42:53Z</time>
      </trkpt>
      <trkpt lat="41.84772" lon="9.17137">
        <ele>1597.2</ele>
        <time>2021-06-03T08:42:54Z</time>
      </trkpt>
      <trkpt lat="41.84773" lon="9.17136">
        <ele>1597.2</ele>
        <time>2021-06-03T08:42:55Z</time>
      </trkpt>
      <trkpt lat="41.84775" lon="9.17135">
        <ele>1597.2</ele>
        <time>2021-06-03T08:42:56Z</time>
      </trkpt>
      <trkpt lat="41.84776" lon="9.17134">
        <ele>1597.6</ele>
        <time>2021-06-03T08:42:57Z</time>
      </trkpt>
      <trkpt lat="41.84778" lon="9.17134">
        <ele>1597.6</ele>
        <time>2021-06-03T08:42:58Z</time>
      </trkpt>
      <trkpt lat="41.84779" lon="9.17133">
        <ele>1597.6</ele>
        <time>2021-06-03T08:42:59Z</time>
      </trkpt>
      <trkpt lat="41.84781" lon="9.17132">
        <ele>1597.6</ele>
        <time>2021-06-03T08:43:00Z</time>
      </trkpt>
      <trkpt lat="41.84782" lon="9.17131">
        <ele>1598.6</ele>
        <time>2021-06-03T08:43:01Z</time>
      </trkpt>
      <trkpt lat="41.84784" lon="9.17131">
        <ele>1598.6</ele>
        <time>2021-06-03T08:43:02Z</time>
      </trkpt>
      <trkpt lat="41.84785" lon="9.1713">
        <ele>1598.6</ele>
        <time>2021-06-03T08:43:03Z</time>
      </trkpt>
      <trkpt lat="41.84786" lon="9.17129">
        <ele>1598.6</ele>
        <time>2021-06-03T08:43:04Z</time>
      </trkpt>
      <trkpt lat="41.84788" lon="9.17129">
        <ele>1599</ele>
        <time>2021-06-03T08:43:05Z</time>
      </trkpt>
      <trkpt lat="41.84789" lon="9.17129">
        <ele>1599</ele>
        <time>2021-06-03T08:43:06Z</time>
      </trkpt>
      <trkpt lat="41.84791" lon="9.17128">
        <ele>1599</ele>
        <time>2021-06-03T08:43:07Z</time>
      </trkpt>
      <trkpt lat="41.84792" lon="9.17128">
        <ele>1599</ele>
        <time>2021-06-03T08:43:08Z</time>
      </trkpt>
      <trkpt lat="41.84794" lon="9.17128">
        <ele>1599</ele>
        <time>2021-06-03T08:43:09Z</time>
      </trkpt>
      <trkpt lat="41.84795" lon="9.17127">
        <ele>1599</ele>
        <time>2021-06-03T08:43:10Z</time>
      </trkpt>
      <trkpt lat="41.84797" lon="9.17127">
        <ele>1599</ele>
        <time>2021-06-03T08:43:11Z</time>
      </trkpt>
      <trkpt lat="41.84798" lon="9.17126">
        <ele>1599.8</ele>
        <time>2021-06-03T08:43:12Z</time>
      </trkpt>
      <trkpt lat="41.848" lon="9.17126">
        <ele>1601</ele>
        <time>2021-06-03T08:43:13Z</time>
      </trkpt>
      <trkpt lat="41.84801" lon="9.17126">
        <ele>1601</ele>
        <time>2021-06-03T08:43:14Z</time>
      </trkpt>
      <trkpt lat="41.84802" lon="9.17125">
        <ele>1601</ele>
        <time>2021-06-03T08:43:15Z</time>
      </trkpt>
      <trkpt lat="41.84804" lon="9.17125">
        <ele>1601</ele>
        <time>2021-06-03T08:43:16Z</time>
      </trkpt>
      <trkpt lat="41.84805" lon="9.17125">
        <ele>1601.6</ele>
        <time>2021-06-03T08:43:17Z</time>
      </trkpt>
      <trkpt lat="41.84806" lon="9.17124">
        <ele>1601.6</ele>
        <time>2021-06-03T08:43:18Z</time>
      </trkpt>
      <trkpt lat="41.84808" lon="9.17124">
        <ele>1601.6</ele>
        <time>2021-06-03T08:43:19Z</time>
      </trkpt>
      <trkpt lat="41.84809" lon="9.17124">
        <ele>1601.6</ele>
        <time>2021-06-03T08:43:20Z</time>
      </trkpt>
      <trkpt lat="41.84811" lon="9.17124">
        <ele>1602</ele>
        <time>2021-06-03T08:43:21Z</time>
      </trkpt>
      <trkpt lat="41.84812" lon="9.17124">
        <ele>1602</ele>
        <time>2021-06-03T08:43:22Z</time>
      </trkpt>
      <trkpt lat="41.84813" lon="9.17123">
        <ele>1602</ele>
        <time>2021-06-03T08:43:23Z</time>
      </trkpt>
      <trkpt lat="41.84815" lon="9.17123">
        <ele>1602.6</ele>
        <time>2021-06-03T08:43:24Z</time>
      </trkpt>
      <trkpt lat="41.84816" lon="9.17123">
        <ele>1602.8</ele>
        <time>2021-06-03T08:43:25Z</time>
      </trkpt>
      <trkpt lat="41.84818" lon="9.17123">
        <ele>1602.8</ele>
        <time>2021-06-03T08:43:26Z</time>
      </trkpt>
      <trkpt lat="41.84819" lon="9.17123">
        <ele>1602.8</ele>
        <time>2021-06-03T08:43:27Z</time>
      </trkpt>
      <trkpt lat="41.84821" lon="9.17122">
        <ele>1602.8</ele>
        <time>2021-06-03T08:43:28Z</time>
      </trkpt>
      <trkpt lat="41.84822" lon="9.17122">
        <ele>1603.2</ele>
        <time>2021-06-03T08:43:29Z</time>
      </trkpt>
      <trkpt lat="41.84824" lon="9.17122">
        <ele>1603.2</ele>
        <time>2021-06-03T08:43:30Z</time>
      </trkpt>
      <trkpt lat="41.84825" lon="9.17121">
        <ele>1603.2</ele>
        <time>2021-06-03T08:43:31Z</time>
      </trkpt>
      <trkpt lat="41.84826" lon="9.17121">
        <ele>1603.4</ele>
        <time>2021-06-03T08:43:32Z</time>
      </trkpt>
      <trkpt lat="41.84828" lon="9.1712">
        <ele>1603.8</ele>
        <time>2021-06-03T08:43:33Z</time>
      </trkpt>
      <trkpt lat="41.84829" lon="9.1712">
        <ele>1603.8</ele>
        <time>2021-06-03T08:43:34Z</time>
      </trkpt>
      <trkpt lat="41.84831" lon="9.1712">
        <ele>1603.8</ele>
        <time>2021-06-03T08:43:35Z</time>
      </trkpt>
      <trkpt lat="41.84832" lon="9.1712">
        <ele>1603.8</ele>
        <time>2021-06-03T08:43:36Z</time>
      </trkpt>
      <trkpt lat="41.84833" lon="9.1712">
        <ele>1604</ele>
        <time>2021-06-03T08:43:37Z</time>
      </trkpt>
      <trkpt lat="41.84834" lon="9.1712">
        <ele>1604</ele>
        <time>2021-06-03T08:43:38Z</time>
      </trkpt>
      <trkpt lat="41.84836" lon="9.1712">
        <ele>1604</ele>
        <time>2021-06-03T08:43:39Z</time>
      </trkpt>
      <trkpt lat="41.84837" lon="9.1712">
        <ele>1604</ele>
        <time>2021-06-03T08:43:40Z</time>
      </trkpt>
      <trkpt lat="41.84838" lon="9.1712">
        <ele>1604.4</ele>
        <time>2021-06-03T08:43:41Z</time>
      </trkpt>
      <trkpt lat="41.84839" lon="9.1712">
        <ele>1604.4</ele>
        <time>2021-06-03T08:43:42Z</time>
      </trkpt>
      <trkpt lat="41.84841" lon="9.1712">
        <ele>1604.4</ele>
        <time>2021-06-03T08:43:43Z</time>
      </trkpt>
      <trkpt lat="41.84842" lon="9.17121">
        <ele>1604.4</ele>
        <time>2021-06-03T08:43:44Z</time>
      </trkpt>
      <trkpt lat="41.84844" lon="9.17121">
        <ele>1604.6</ele>
        <time>2021-06-03T08:43:45Z</time>
      </trkpt>
      <trkpt lat="41.84845" lon="9.17122">
        <ele>1604.6</ele>
        <time>2021-06-03T08:43:46Z</time>
      </trkpt>
      <trkpt lat="41.84846" lon="9.17123">
        <ele>1604.6</ele>
        <time>2021-06-03T08:43:47Z</time>
      </trkpt>
      <trkpt lat="41.84847" lon="9.17124">
        <ele>1604.8</ele>
        <time>2021-06-03T08:43:48Z</time>
      </trkpt>
      <trkpt lat="41.84848" lon="9.17124">
        <ele>1604.6</ele>
        <time>2021-06-03T08:43:49Z</time>
      </trkpt>
      <trkpt lat="41.8485" lon="9.17125">
        <ele>1604.6</ele>
        <time>2021-06-03T08:43:50Z</time>
      </trkpt>
      <trkpt lat="41.8485" lon="9.17126">
        <ele>1604.6</ele>
        <time>2021-06-03T08:43:51Z</time>
      </trkpt>
      <trkpt lat="41.8485" lon="9.17126">
        <ele>1604.6</ele>
        <time>2021-06-03T08:43:52Z</time>
      </trkpt>
      <trkpt lat="41.8485" lon="9.17126">
        <ele>1605</ele>
        <time>2021-06-03T08:43:53Z</time>
      </trkpt>
      <trkpt lat="41.84855" lon="9.17131">
        <ele>1603.8</ele>
        <time>2021-06-03T08:46:25Z</time>
      </trkpt>
      <trkpt lat="41.84857" lon="9.17133">
        <ele>1603.8</ele>
        <time>2021-06-03T08:46:26Z</time>
      </trkpt>
      <trkpt lat="41.84859" lon="9.17135">
        <ele>1603.8</ele>
        <time>2021-06-03T08:46:27Z</time>
      </trkpt>
      <trkpt lat="41.84861" lon="9.17137">
        <ele>1603.4</ele>
        <time>2021-06-03T08:46:28Z</time>
      </trkpt>
      <trkpt lat="41.84863" lon="9.17138">
        <ele>1603</ele>
        <time>2021-06-03T08:46:29Z</time>
      </trkpt>
      <trkpt lat="41.84866" lon="9.1714">
        <ele>1603</ele>
        <time>2021-06-03T08:46:30Z</time>
      </trkpt>
      <trkpt lat="41.84868" lon="9.17142">
        <ele>1603</ele>
        <time>2021-06-03T08:46:31Z</time>
      </trkpt>
      <trkpt lat="41.84871" lon="9.17143">
        <ele>1603</ele>
        <time>2021-06-03T08:46:32Z</time>
      </trkpt>
      <trkpt lat="41.84874" lon="9.17144">
        <ele>1602.6</ele>
        <time>2021-06-03T08:46:33Z</time>
      </trkpt>
      <trkpt lat="41.84878" lon="9.17145">
        <ele>1602.6</ele>
        <time>2021-06-03T08:46:34Z</time>
      </trkpt>
      <trkpt lat="41.84881" lon="9.17146">
        <ele>1602.6</ele>
        <time>2021-06-03T08:46:35Z</time>
      </trkpt>
      <trkpt lat="41.84885" lon="9.17145">
        <ele>1602.6</ele>
        <time>2021-06-03T08:46:36Z</time>
      </trkpt>
      <trkpt lat="41.84889" lon="9.17145">
        <ele>1600.6</ele>
        <time>2021-06-03T08:46:37Z</time>
      </trkpt>
      <trkpt lat="41.84894" lon="9.17145">
        <ele>1600.6</ele>
        <time>2021-06-03T08:46:38Z</time>
      </trkpt>
      <trkpt lat="41.84898" lon="9.17145">
        <ele>1600.6</ele>
        <time>2021-06-03T08:46:39Z</time>
      </trkpt>
      <trkpt lat="41.84901" lon="9.17146">
        <ele>1600.2</ele>
        <time>2021-06-03T08:46:40Z</time>
      </trkpt>
      <trkpt lat="41.84903" lon="9.17145">
        <ele>1599.6</ele>
        <time>2021-06-03T08:46:41Z</time>
      </trkpt>
      <trkpt lat="41.84906" lon="9.17145">
        <ele>1599.6</ele>
        <time>2021-06-03T08:46:42Z</time>
      </trkpt>
      <trkpt lat="41.8491" lon="9.17144">
        <ele>1599.6</ele>
        <time>2021-06-03T08:46:43Z</time>
      </trkpt>
      <trkpt lat="41.84913" lon="9.17144">
        <ele>1599.6</ele>
        <time>2021-06-03T08:46:44Z</time>
      </trkpt>
      <trkpt lat="41.84916" lon="9.17143">
        <ele>1598.2</ele>
        <time>2021-06-03T08:46:45Z</time>
      </trkpt>
      <trkpt lat="41.8492" lon="9.17142">
        <ele>1598.2</ele>
        <time>2021-06-03T08:46:46Z</time>
      </trkpt>
      <trkpt lat="41.84923" lon="9.17141">
        <ele>1598.2</ele>
        <time>2021-06-03T08:46:47Z</time>
      </trkpt>
      <trkpt lat="41.84927" lon="9.1714">
        <ele>1597.6</ele>
        <time>2021-06-03T08:46:48Z</time>
      </trkpt>
      <trkpt lat="41.8493" lon="9.1714">
        <ele>1598</ele>
        <time>2021-06-03T08:46:49Z</time>
      </trkpt>
      <trkpt lat="41.84934" lon="9.1714">
        <ele>1598</ele>
        <time>2021-06-03T08:46:50Z</time>
      </trkpt>
      <trkpt lat="41.84938" lon="9.1714">
        <ele>1598</ele>
        <time>2021-06-03T08:46:51Z</time>
      </trkpt>
      <trkpt lat="41.84942" lon="9.1714">
        <ele>1598</ele>
        <time>2021-06-03T08:46:52Z</time>
      </trkpt>
      <trkpt lat="41.84946" lon="9.17141">
        <ele>1597.6</ele>
        <time>2021-06-03T08:46:53Z</time>
      </trkpt>
      <trkpt lat="41.8495" lon="9.17142">
        <ele>1597.6</ele>
        <time>2021-06-03T08:46:54Z</time>
      </trkpt>
      <trkpt lat="41.84954" lon="9.17144">
        <ele>1597.6</ele>
        <time>2021-06-03T08:46:55Z</time>
      </trkpt>
      <trkpt lat="41.84958" lon="9.17146">
        <ele>1597.6</ele>
        <time>2021-06-03T08:46:56Z</time>
      </trkpt>
      <trkpt lat="41.84962" lon="9.17148">
        <ele>1596</ele>
        <time>2021-06-03T08:46:57Z</time>
      </trkpt>
      <trkpt lat="41.84966" lon="9.17152">
        <ele>1596</ele>
        <time>2021-06-03T08:46:58Z</time>
      </trkpt>
      <trkpt lat="41.8497" lon="9.17156">
        <ele>1596</ele>
        <time>2021-06-03T08:46:59Z</time>
      </trkpt>
      <trkpt lat="41.84974" lon="9.1716">
        <ele>1595</ele>
        <time>2021-06-03T08:47:00Z</time>
      </trkpt>
      <trkpt lat="41.84977" lon="9.17164">
        <ele>1595.2</ele>
        <time>2021-06-03T08:47:01Z</time>
      </trkpt>
      <trkpt lat="41.84981" lon="9.17168">
        <ele>1595.2</ele>
        <time>2021-06-03T08:47:02Z</time>
      </trkpt>
      <trkpt lat="41.84984" lon="9.17171">
        <ele>1595.2</ele>
        <time>2021-06-03T08:47:03Z</time>
      </trkpt>
      <trkpt lat="41.84987" lon="9.17175">
        <ele>1595.2</ele>
        <time>2021-06-03T08:47:04Z</time>
      </trkpt>
      <trkpt lat="41.84991" lon="9.17179">
        <ele>1593.8</ele>
        <time>2021-06-03T08:47:05Z</time>
      </trkpt>
      <trkpt lat="41.84996" lon="9.17182">
        <ele>1593.8</ele>
        <time>2021-06-03T08:47:06Z</time>
      </trkpt>
      <trkpt lat="41.85001" lon="9.17185">
        <ele>1593.8</ele>
        <time>2021-06-03T08:47:07Z</time>
      </trkpt>
      <trkpt lat="41.85005" lon="9.17187">
        <ele>1592.8</ele>
        <time>2021-06-03T08:47:08Z</time>
      </trkpt>
      <trkpt lat="41.8501" lon="9.1719">
        <ele>1592.6</ele>
        <time>2021-06-03T08:47:09Z</time>
      </trkpt>
      <trkpt lat="41.85015" lon="9.17192">
        <ele>1592.6</ele>
        <time>2021-06-03T08:47:10Z</time>
      </trkpt>
      <trkpt lat="41.85019" lon="9.17194">
        <ele>1592.6</ele>
        <time>2021-06-03T08:47:11Z</time>
      </trkpt>
      <trkpt lat="41.85022" lon="9.17194">
        <ele>1592.6</ele>
        <time>2021-06-03T08:47:12Z</time>
      </trkpt>
      <trkpt lat="41.85024" lon="9.17195">
        <ele>1593.8</ele>
        <time>2021-06-03T08:47:13Z</time>
      </trkpt>
      <trkpt lat="41.85026" lon="9.17195">
        <ele>1593.8</ele>
        <time>2021-06-03T08:47:14Z</time>
      </trkpt>
      <trkpt lat="41.85028" lon="9.17196">
        <ele>1593.8</ele>
        <time>2021-06-03T08:47:15Z</time>
      </trkpt>
      <trkpt lat="41.8503" lon="9.17197">
        <ele>1593.6</ele>
        <time>2021-06-03T08:47:16Z</time>
      </trkpt>
      <trkpt lat="41.85033" lon="9.17197">
        <ele>1593.6</ele>
        <time>2021-06-03T08:47:17Z</time>
      </trkpt>
      <trkpt lat="41.85035" lon="9.17197">
        <ele>1593.6</ele>
        <time>2021-06-03T08:47:18Z</time>
      </trkpt>
      <trkpt lat="41.85038" lon="9.17196">
        <ele>1593.6</ele>
        <time>2021-06-03T08:47:19Z</time>
      </trkpt>
      <trkpt lat="41.8504" lon="9.17195">
        <ele>1594.4</ele>
        <time>2021-06-03T08:47:20Z</time>
      </trkpt>
      <trkpt lat="41.85042" lon="9.17194">
        <ele>1594.2</ele>
        <time>2021-06-03T08:47:21Z</time>
      </trkpt>
      <trkpt lat="41.85045" lon="9.17194">
        <ele>1594.2</ele>
        <time>2021-06-03T08:47:22Z</time>
      </trkpt>
      <trkpt lat="41.85047" lon="9.17193">
        <ele>1594.2</ele>
        <time>2021-06-03T08:47:23Z</time>
      </trkpt>
      <trkpt lat="41.8505" lon="9.17193">
        <ele>1594.6</ele>
        <time>2021-06-03T08:47:24Z</time>
      </trkpt>
      <trkpt lat="41.85052" lon="9.17192">
        <ele>1595</ele>
        <time>2021-06-03T08:47:25Z</time>
      </trkpt>
      <trkpt lat="41.85055" lon="9.17192">
        <ele>1595</ele>
        <time>2021-06-03T08:47:26Z</time>
      </trkpt>
      <trkpt lat="41.85057" lon="9.17192">
        <ele>1595</ele>
        <time>2021-06-03T08:47:27Z</time>
      </trkpt>
      <trkpt lat="41.8506" lon="9.17192">
        <ele>1594.2</ele>
        <time>2021-06-03T08:47:28Z</time>
      </trkpt>
      <trkpt lat="41.85062" lon="9.17193">
        <ele>1594.4</ele>
        <time>2021-06-03T08:47:29Z</time>
      </trkpt>
      <trkpt lat="41.85065" lon="9.17194">
        <ele>1594.4</ele>
        <time>2021-06-03T08:47:30Z</time>
      </trkpt>
      <trkpt lat="41.85068" lon="9.17195">
        <ele>1594.4</ele>
        <time>2021-06-03T08:47:31Z</time>
      </trkpt>
      <trkpt lat="41.85071" lon="9.17196">
        <ele>1593.4</ele>
        <time>2021-06-03T08:47:32Z</time>
      </trkpt>
      <trkpt lat="41.85075" lon="9.17198">
        <ele>1592.6</ele>
        <time>2021-06-03T08:47:33Z</time>
      </trkpt>
      <trkpt lat="41.85078" lon="9.17199">
        <ele>1592.6</ele>
        <time>2021-06-03T08:47:34Z</time>
      </trkpt>
      <trkpt lat="41.85081" lon="9.17199">
        <ele>1592.6</ele>
        <time>2021-06-03T08:47:35Z</time>
      </trkpt>
      <trkpt lat="41.85084" lon="9.172">
        <ele>1592.6</ele>
        <time>2021-06-03T08:47:36Z</time>
      </trkpt>
      <trkpt lat="41.85086" lon="9.172">
        <ele>1593.4</ele>
        <time>2021-06-03T08:47:37Z</time>
      </trkpt>
      <trkpt lat="41.8509" lon="9.172">
        <ele>1593.4</ele>
        <time>2021-06-03T08:47:38Z</time>
      </trkpt>
      <trkpt lat="41.85092" lon="9.17199">
        <ele>1593.4</ele>
        <time>2021-06-03T08:47:39Z</time>
      </trkpt>
      <trkpt lat="41.85094" lon="9.17199">
        <ele>1593.8</ele>
        <time>2021-06-03T08:47:40Z</time>
      </trkpt>
      <trkpt lat="41.85096" lon="9.17197">
        <ele>1594</ele>
        <time>2021-06-03T08:47:41Z</time>
      </trkpt>
      <trkpt lat="41.85098" lon="9.17196">
        <ele>1594</ele>
        <time>2021-06-03T08:47:42Z</time>
      </trkpt>
      <trkpt lat="41.851" lon="9.17194">
        <ele>1594</ele>
        <time>2021-06-03T08:47:43Z</time>
      </trkpt>
      <trkpt lat="41.85101" lon="9.17192">
        <ele>1594</ele>
        <time>2021-06-03T08:47:44Z</time>
      </trkpt>
      <trkpt lat="41.85102" lon="9.1719">
        <ele>1594.4</ele>
        <time>2021-06-03T08:47:45Z</time>
      </trkpt>
      <trkpt lat="41.85104" lon="9.17189">
        <ele>1594.4</ele>
        <time>2021-06-03T08:47:46Z</time>
      </trkpt>
      <trkpt lat="41.85104" lon="9.17187">
        <ele>1594.4</ele>
        <time>2021-06-03T08:47:47Z</time>
      </trkpt>
      <trkpt lat="41.85105" lon="9.17185">
        <ele>1594.4</ele>
        <time>2021-06-03T08:47:48Z</time>
      </trkpt>
      <trkpt lat="41.85106" lon="9.17184">
        <ele>1594.4</ele>
        <time>2021-06-03T08:47:49Z</time>
      </trkpt>
      <trkpt lat="41.85108" lon="9.17182">
        <ele>1594.4</ele>
        <time>2021-06-03T08:47:50Z</time>
      </trkpt>
      <trkpt lat="41.85109" lon="9.1718">
        <ele>1594.4</ele>
        <time>2021-06-03T08:47:51Z</time>
      </trkpt>
      <trkpt lat="41.8511" lon="9.17179">
        <ele>1594.4</ele>
        <time>2021-06-03T08:47:52Z</time>
      </trkpt>
      <trkpt lat="41.85112" lon="9.17177">
        <ele>1594.4</ele>
        <time>2021-06-03T08:47:53Z</time>
      </trkpt>
      <trkpt lat="41.85113" lon="9.17174">
        <ele>1594.4</ele>
        <time>2021-06-03T08:47:54Z</time>
      </trkpt>
      <trkpt lat="41.85115" lon="9.17172">
        <ele>1594.4</ele>
        <time>2021-06-03T08:47:55Z</time>
      </trkpt>
      <trkpt lat="41.85117" lon="9.17169">
        <ele>1593.6</ele>
        <time>2021-06-03T08:47:56Z</time>
      </trkpt>
      <trkpt lat="41.8512" lon="9.17166">
        <ele>1593.4</ele>
        <time>2021-06-03T08:47:57Z</time>
      </trkpt>
      <trkpt lat="41.85123" lon="9.17163">
        <ele>1593.4</ele>
        <time>2021-06-03T08:47:58Z</time>
      </trkpt>
      <trkpt lat="41.85125" lon="9.1716">
        <ele>1593.4</ele>
        <time>2021-06-03T08:47:59Z</time>
      </trkpt>
      <trkpt lat="41.85128" lon="9.17156">
        <ele>1592.4</ele>
        <time>2021-06-03T08:48:00Z</time>
      </trkpt>
      <trkpt lat="41.85132" lon="9.17153">
        <ele>1592</ele>
        <time>2021-06-03T08:48:01Z</time>
      </trkpt>
      <trkpt lat="41.85134" lon="9.17149">
        <ele>1592</ele>
        <time>2021-06-03T08:48:02Z</time>
      </trkpt>
      <trkpt lat="41.85138" lon="9.17146">
        <ele>1592</ele>
        <time>2021-06-03T08:48:03Z</time>
      </trkpt>
      <trkpt lat="41.85142" lon="9.17142">
        <ele>1591</ele>
        <time>2021-06-03T08:48:04Z</time>
      </trkpt>
      <trkpt lat="41.85145" lon="9.17139">
        <ele>1589.6</ele>
        <time>2021-06-03T08:48:05Z</time>
      </trkpt>
      <trkpt lat="41.85149" lon="9.17135">
        <ele>1589.6</ele>
        <time>2021-06-03T08:48:06Z</time>
      </trkpt>
      <trkpt lat="41.85153" lon="9.17132">
        <ele>1589.6</ele>
        <time>2021-06-03T08:48:07Z</time>
      </trkpt>
      <trkpt lat="41.85157" lon="9.17128">
        <ele>1588.6</ele>
        <time>2021-06-03T08:48:08Z</time>
      </trkpt>
      <trkpt lat="41.85161" lon="9.17125">
        <ele>1588.8</ele>
        <time>2021-06-03T08:48:09Z</time>
      </trkpt>
      <trkpt lat="41.85163" lon="9.17122">
        <ele>1588.8</ele>
        <time>2021-06-03T08:48:10Z</time>
      </trkpt>
      <trkpt lat="41.85165" lon="9.1712">
        <ele>1588.8</ele>
        <time>2021-06-03T08:48:11Z</time>
      </trkpt>
      <trkpt lat="41.85167" lon="9.17118">
        <ele>1588.8</ele>
        <time>2021-06-03T08:48:12Z</time>
      </trkpt>
      <trkpt lat="41.85168" lon="9.17115">
        <ele>1588.8</ele>
        <time>2021-06-03T08:48:13Z</time>
      </trkpt>
      <trkpt lat="41.8517" lon="9.17113">
        <ele>1588.8</ele>
        <time>2021-06-03T08:48:14Z</time>
      </trkpt>
      <trkpt lat="41.8517" lon="9.1711">
        <ele>1588.8</ele>
        <time>2021-06-03T08:48:15Z</time>
      </trkpt>
      <trkpt lat="41.8517" lon="9.17107">
        <ele>1588.8</ele>
        <time>2021-06-03T08:48:16Z</time>
      </trkpt>
      <trkpt lat="41.85169" lon="9.17105">
        <ele>1589</ele>
        <time>2021-06-03T08:48:17Z</time>
      </trkpt>
      <trkpt lat="41.85168" lon="9.17103">
        <ele>1589</ele>
        <time>2021-06-03T08:48:18Z</time>
      </trkpt>
      <trkpt lat="41.85166" lon="9.17101">
        <ele>1589</ele>
        <time>2021-06-03T08:48:19Z</time>
      </trkpt>
      <trkpt lat="41.85165" lon="9.17099">
        <ele>1589</ele>
        <time>2021-06-03T08:48:20Z</time>
      </trkpt>
      <trkpt lat="41.85163" lon="9.17098">
        <ele>1589.6</ele>
        <time>2021-06-03T08:48:21Z</time>
      </trkpt>
      <trkpt lat="41.85162" lon="9.17096">
        <ele>1589.6</ele>
        <time>2021-06-03T08:48:22Z</time>
      </trkpt>
      <trkpt lat="41.8516" lon="9.17095">
        <ele>1589.6</ele>
        <time>2021-06-03T08:48:23Z</time>
      </trkpt>
      <trkpt lat="41.85158" lon="9.17093">
        <ele>1589.6</ele>
        <time>2021-06-03T08:48:24Z</time>
      </trkpt>
      <trkpt lat="41.85156" lon="9.17091">
        <ele>1589.4</ele>
        <time>2021-06-03T08:48:25Z</time>
      </trkpt>
      <trkpt lat="41.85154" lon="9.17089">
        <ele>1589.4</ele>
        <time>2021-06-03T08:48:26Z</time>
      </trkpt>
      <trkpt lat="41.85153" lon="9.17086">
        <ele>1589.4</ele>
        <time>2021-06-03T08:48:27Z</time>
      </trkpt>
      <trkpt lat="41.85151" lon="9.17082">
        <ele>1589</ele>
        <time>2021-06-03T08:48:28Z</time>
      </trkpt>
      <trkpt lat="41.85149" lon="9.17079">
        <ele>1588.8</ele>
        <time>2021-06-03T08:48:29Z</time>
      </trkpt>
      <trkpt lat="41.85148" lon="9.17075">
        <ele>1588.8</ele>
        <time>2021-06-03T08:48:30Z</time>
      </trkpt>
      <trkpt lat="41.85147" lon="9.17071">
        <ele>1588.8</ele>
        <time>2021-06-03T08:48:31Z</time>
      </trkpt>
      <trkpt lat="41.85146" lon="9.17066">
        <ele>1588.8</ele>
        <time>2021-06-03T08:48:32Z</time>
      </trkpt>
      <trkpt lat="41.85146" lon="9.17062">
        <ele>1587.6</ele>
        <time>2021-06-03T08:48:33Z</time>
      </trkpt>
      <trkpt lat="41.85145" lon="9.17057">
        <ele>1587.6</ele>
        <time>2021-06-03T08:48:34Z</time>
      </trkpt>
      <trkpt lat="41.85145" lon="9.17051">
        <ele>1587.6</ele>
        <time>2021-06-03T08:48:35Z</time>
      </trkpt>
      <trkpt lat="41.85146" lon="9.17047">
        <ele>1587</ele>
        <time>2021-06-03T08:48:36Z</time>
      </trkpt>
      <trkpt lat="41.85146" lon="9.17042">
        <ele>1587</ele>
        <time>2021-06-03T08:48:37Z</time>
      </trkpt>
      <trkpt lat="41.85146" lon="9.17037">
        <ele>1587</ele>
        <time>2021-06-03T08:48:38Z</time>
      </trkpt>
      <trkpt lat="41.85146" lon="9.17032">
        <ele>1587</ele>
        <time>2021-06-03T08:48:39Z</time>
      </trkpt>
      <trkpt lat="41.85147" lon="9.17027">
        <ele>1586</ele>
        <time>2021-06-03T08:48:40Z</time>
      </trkpt>
      <trkpt lat="41.85147" lon="9.17021">
        <ele>1585.2</ele>
        <time>2021-06-03T08:48:41Z</time>
      </trkpt>
      <trkpt lat="41.85148" lon="9.17016">
        <ele>1585.2</ele>
        <time>2021-06-03T08:48:42Z</time>
      </trkpt>
      <trkpt lat="41.85149" lon="9.17011">
        <ele>1585.2</ele>
        <time>2021-06-03T08:48:43Z</time>
      </trkpt>
      <trkpt lat="41.85151" lon="9.17006">
        <ele>1585.2</ele>
        <time>2021-06-03T08:48:44Z</time>
      </trkpt>
      <trkpt lat="41.85153" lon="9.17002">
        <ele>1583.8</ele>
        <time>2021-06-03T08:48:45Z</time>
      </trkpt>
      <trkpt lat="41.85156" lon="9.16998">
        <ele>1583.8</ele>
        <time>2021-06-03T08:48:46Z</time>
      </trkpt>
      <trkpt lat="41.8516" lon="9.16995">
        <ele>1583.8</ele>
        <time>2021-06-03T08:48:47Z</time>
      </trkpt>
      <trkpt lat="41.85164" lon="9.16992">
        <ele>1582.8</ele>
        <time>2021-06-03T08:48:48Z</time>
      </trkpt>
      <trkpt lat="41.85168" lon="9.16989">
        <ele>1582</ele>
        <time>2021-06-03T08:48:49Z</time>
      </trkpt>
      <trkpt lat="41.85172" lon="9.16986">
        <ele>1582</ele>
        <time>2021-06-03T08:48:50Z</time>
      </trkpt>
      <trkpt lat="41.85176" lon="9.16983">
        <ele>1582</ele>
        <time>2021-06-03T08:48:51Z</time>
      </trkpt>
      <trkpt lat="41.8518" lon="9.1698">
        <ele>1581.6</ele>
        <time>2021-06-03T08:48:52Z</time>
      </trkpt>
      <trkpt lat="41.85183" lon="9.16977">
        <ele>1582.6</ele>
        <time>2021-06-03T08:48:53Z</time>
      </trkpt>
      <trkpt lat="41.85185" lon="9.16974">
        <ele>1582.6</ele>
        <time>2021-06-03T08:48:54Z</time>
      </trkpt>
      <trkpt lat="41.85186" lon="9.1697">
        <ele>1582.6</ele>
        <time>2021-06-03T08:48:55Z</time>
      </trkpt>
      <trkpt lat="41.85187" lon="9.16966">
        <ele>1583.4</ele>
        <time>2021-06-03T08:48:56Z</time>
      </trkpt>
      <trkpt lat="41.85186" lon="9.16962">
        <ele>1582.8</ele>
        <time>2021-06-03T08:48:57Z</time>
      </trkpt>
      <trkpt lat="41.85185" lon="9.16959">
        <ele>1582.8</ele>
        <time>2021-06-03T08:48:58Z</time>
      </trkpt>
      <trkpt lat="41.85184" lon="9.16955">
        <ele>1582.8</ele>
        <time>2021-06-03T08:48:59Z</time>
      </trkpt>
      <trkpt lat="41.85182" lon="9.16952">
        <ele>1582.6</ele>
        <time>2021-06-03T08:49:00Z</time>
      </trkpt>
      <trkpt lat="41.8518" lon="9.16949">
        <ele>1582.8</ele>
        <time>2021-06-03T08:49:01Z</time>
      </trkpt>
      <trkpt lat="41.85177" lon="9.16945">
        <ele>1582.8</ele>
        <time>2021-06-03T08:49:02Z</time>
      </trkpt>
      <trkpt lat="41.85175" lon="9.16941">
        <ele>1582.8</ele>
        <time>2021-06-03T08:49:03Z</time>
      </trkpt>
      <trkpt lat="41.85173" lon="9.16937">
        <ele>1582.8</ele>
        <time>2021-06-03T08:49:04Z</time>
      </trkpt>
      <trkpt lat="41.8517" lon="9.16932">
        <ele>1581.4</ele>
        <time>2021-06-03T08:49:05Z</time>
      </trkpt>
      <trkpt lat="41.85167" lon="9.16928">
        <ele>1581.4</ele>
        <time>2021-06-03T08:49:06Z</time>
      </trkpt>
      <trkpt lat="41.85165" lon="9.16924">
        <ele>1581.4</ele>
        <time>2021-06-03T08:49:07Z</time>
      </trkpt>
      <trkpt lat="41.85161" lon="9.1692">
        <ele>1580.4</ele>
        <time>2021-06-03T08:49:08Z</time>
      </trkpt>
      <trkpt lat="41.85158" lon="9.16916">
        <ele>1580</ele>
        <time>2021-06-03T08:49:09Z</time>
      </trkpt>
      <trkpt lat="41.85154" lon="9.16912">
        <ele>1580</ele>
        <time>2021-06-03T08:49:10Z</time>
      </trkpt>
      <trkpt lat="41.8515" lon="9.16907">
        <ele>1580</ele>
        <time>2021-06-03T08:49:11Z</time>
      </trkpt>
      <trkpt lat="41.85146" lon="9.16903">
        <ele>1579</ele>
        <time>2021-06-03T08:49:12Z</time>
      </trkpt>
      <trkpt lat="41.85142" lon="9.16898">
        <ele>1576.6</ele>
        <time>2021-06-03T08:49:13Z</time>
      </trkpt>
      <trkpt lat="41.85138" lon="9.16894">
        <ele>1576.6</ele>
        <time>2021-06-03T08:49:14Z</time>
      </trkpt>
      <trkpt lat="41.85135" lon="9.1689">
        <ele>1576.6</ele>
        <time>2021-06-03T08:49:15Z</time>
      </trkpt>
      <trkpt lat="41.85132" lon="9.16885">
        <ele>1576.6</ele>
        <time>2021-06-03T08:49:16Z</time>
      </trkpt>
      <trkpt lat="41.85129" lon="9.1688">
        <ele>1575.4</ele>
        <time>2021-06-03T08:49:17Z</time>
      </trkpt>
      <trkpt lat="41.85127" lon="9.16874">
        <ele>1575.4</ele>
        <time>2021-06-03T08:49:18Z</time>
      </trkpt>
      <trkpt lat="41.85125" lon="9.16869">
        <ele>1575.4</ele>
        <time>2021-06-03T08:49:19Z</time>
      </trkpt>
      <trkpt lat="41.85124" lon="9.16864">
        <ele>1574.4</ele>
        <time>2021-06-03T08:49:20Z</time>
      </trkpt>
      <trkpt lat="41.85123" lon="9.16859">
        <ele>1573.4</ele>
        <time>2021-06-03T08:49:21Z</time>
      </trkpt>
      <trkpt lat="41.85122" lon="9.16854">
        <ele>1573.4</ele>
        <time>2021-06-03T08:49:22Z</time>
      </trkpt>
      <trkpt lat="41.85121" lon="9.1685">
        <ele>1573.4</ele>
        <time>2021-06-03T08:49:23Z</time>
      </trkpt>
      <trkpt lat="41.8512" lon="9.16845">
        <ele>1572.4</ele>
        <time>2021-06-03T08:49:24Z</time>
      </trkpt>
      <trkpt lat="41.85119" lon="9.16839">
        <ele>1568.4</ele>
        <time>2021-06-03T08:49:25Z</time>
      </trkpt>
      <trkpt lat="41.85118" lon="9.16832">
        <ele>1568.4</ele>
        <time>2021-06-03T08:49:26Z</time>
      </trkpt>
      <trkpt lat="41.85116" lon="9.16825">
        <ele>1568.4</ele>
        <time>2021-06-03T08:49:27Z</time>
      </trkpt>
      <trkpt lat="41.85115" lon="9.16819">
        <ele>1568.4</ele>
        <time>2021-06-03T08:49:28Z</time>
      </trkpt>
      <trkpt lat="41.85113" lon="9.16813">
        <ele>1567</ele>
        <time>2021-06-03T08:49:29Z</time>
      </trkpt>
      <trkpt lat="41.85111" lon="9.16806">
        <ele>1567</ele>
        <time>2021-06-03T08:49:30Z</time>
      </trkpt>
      <trkpt lat="41.85109" lon="9.16799">
        <ele>1567</ele>
        <time>2021-06-03T08:49:31Z</time>
      </trkpt>
      <trkpt lat="41.85107" lon="9.16792">
        <ele>1566</ele>
        <time>2021-06-03T08:49:32Z</time>
      </trkpt>
      <trkpt lat="41.85104" lon="9.16785">
        <ele>1564.6</ele>
        <time>2021-06-03T08:49:33Z</time>
      </trkpt>
      <trkpt lat="41.85102" lon="9.16779">
        <ele>1564.6</ele>
        <time>2021-06-03T08:49:34Z</time>
      </trkpt>
      <trkpt lat="41.85099" lon="9.16773">
        <ele>1564.6</ele>
        <time>2021-06-03T08:49:35Z</time>
      </trkpt>
      <trkpt lat="41.85097" lon="9.16768">
        <ele>1564.6</ele>
        <time>2021-06-03T08:49:36Z</time>
      </trkpt>
      <trkpt lat="41.85095" lon="9.16764">
        <ele>1564.4</ele>
        <time>2021-06-03T08:49:37Z</time>
      </trkpt>
      <trkpt lat="41.85093" lon="9.1676">
        <ele>1564.4</ele>
        <time>2021-06-03T08:49:38Z</time>
      </trkpt>
      <trkpt lat="41.85092" lon="9.16755">
        <ele>1564.4</ele>
        <time>2021-06-03T08:49:39Z</time>
      </trkpt>
      <trkpt lat="41.85091" lon="9.16752">
        <ele>1564.4</ele>
        <time>2021-06-03T08:49:40Z</time>
      </trkpt>
      <trkpt lat="41.85091" lon="9.16748">
        <ele>1563</ele>
        <time>2021-06-03T08:49:41Z</time>
      </trkpt>
      <trkpt lat="41.85092" lon="9.16744">
        <ele>1563</ele>
        <time>2021-06-03T08:49:42Z</time>
      </trkpt>
      <trkpt lat="41.85094" lon="9.1674">
        <ele>1563</ele>
        <time>2021-06-03T08:49:43Z</time>
      </trkpt>
      <trkpt lat="41.85095" lon="9.16736">
        <ele>1562</ele>
        <time>2021-06-03T08:49:44Z</time>
      </trkpt>
      <trkpt lat="41.85098" lon="9.16732">
        <ele>1561.2</ele>
        <time>2021-06-03T08:49:45Z</time>
      </trkpt>
      <trkpt lat="41.851" lon="9.16728">
        <ele>1561.2</ele>
        <time>2021-06-03T08:49:46Z</time>
      </trkpt>
      <trkpt lat="41.85103" lon="9.16724">
        <ele>1561.2</ele>
        <time>2021-06-03T08:49:47Z</time>
      </trkpt>
      <trkpt lat="41.85105" lon="9.1672">
        <ele>1560.2</ele>
        <time>2021-06-03T08:49:48Z</time>
      </trkpt>
      <trkpt lat="41.85107" lon="9.16716">
        <ele>1558.4</ele>
        <time>2021-06-03T08:49:49Z</time>
      </trkpt>
      <trkpt lat="41.85108" lon="9.16713">
        <ele>1558.4</ele>
        <time>2021-06-03T08:49:50Z</time>
      </trkpt>
      <trkpt lat="41.8511" lon="9.16709">
        <ele>1558.4</ele>
        <time>2021-06-03T08:49:51Z</time>
      </trkpt>
      <trkpt lat="41.85112" lon="9.16704">
        <ele>1558.4</ele>
        <time>2021-06-03T08:49:52Z</time>
      </trkpt>
      <trkpt lat="41.85115" lon="9.16699">
        <ele>1556</ele>
        <time>2021-06-03T08:49:53Z</time>
      </trkpt>
      <trkpt lat="41.85117" lon="9.16694">
        <ele>1556</ele>
        <time>2021-06-03T08:49:54Z</time>
      </trkpt>
      <trkpt lat="41.85121" lon="9.1669">
        <ele>1556</ele>
        <time>2021-06-03T08:49:55Z</time>
      </trkpt>
      <trkpt lat="41.85126" lon="9.16686">
        <ele>1555</ele>
        <time>2021-06-03T08:49:56Z</time>
      </trkpt>
      <trkpt lat="41.85131" lon="9.16682">
        <ele>1553.2</ele>
        <time>2021-06-03T08:49:57Z</time>
      </trkpt>
      <trkpt lat="41.85138" lon="9.16679">
        <ele>1553.2</ele>
        <time>2021-06-03T08:49:58Z</time>
      </trkpt>
      <trkpt lat="41.85144" lon="9.16677">
        <ele>1553.2</ele>
        <time>2021-06-03T08:49:59Z</time>
      </trkpt>
      <trkpt lat="41.8515" lon="9.16675">
        <ele>1552.2</ele>
        <time>2021-06-03T08:50:00Z</time>
      </trkpt>
      <trkpt lat="41.85155" lon="9.16673">
        <ele>1551</ele>
        <time>2021-06-03T08:50:01Z</time>
      </trkpt>
      <trkpt lat="41.85161" lon="9.16671">
        <ele>1551</ele>
        <time>2021-06-03T08:50:02Z</time>
      </trkpt>
      <trkpt lat="41.85168" lon="9.16669">
        <ele>1551</ele>
        <time>2021-06-03T08:50:03Z</time>
      </trkpt>
      <trkpt lat="41.85174" lon="9.16667">
        <ele>1550</ele>
        <time>2021-06-03T08:50:04Z</time>
      </trkpt>
      <trkpt lat="41.85181" lon="9.16665">
        <ele>1546.8</ele>
        <time>2021-06-03T08:50:05Z</time>
      </trkpt>
      <trkpt lat="41.85189" lon="9.16663">
        <ele>1546.8</ele>
        <time>2021-06-03T08:50:06Z</time>
      </trkpt>
      <trkpt lat="41.85196" lon="9.1666">
        <ele>1546.8</ele>
        <time>2021-06-03T08:50:07Z</time>
      </trkpt>
      <trkpt lat="41.85203" lon="9.16657">
        <ele>1546.6</ele>
        <time>2021-06-03T08:50:08Z</time>
      </trkpt>
      <trkpt lat="41.85209" lon="9.16655">
        <ele>1546.4</ele>
        <time>2021-06-03T08:50:09Z</time>
      </trkpt>
      <trkpt lat="41.85215" lon="9.16653">
        <ele>1546.4</ele>
        <time>2021-06-03T08:50:10Z</time>
      </trkpt>
      <trkpt lat="41.85222" lon="9.16651">
        <ele>1546.4</ele>
        <time>2021-06-03T08:50:11Z</time>
      </trkpt>
      <trkpt lat="41.85228" lon="9.16649">
        <ele>1545.4</ele>
        <time>2021-06-03T08:50:12Z</time>
      </trkpt>
      <trkpt lat="41.85234" lon="9.16648">
        <ele>1545.4</ele>
        <time>2021-06-03T08:50:13Z</time>
      </trkpt>
      <trkpt lat="41.8524" lon="9.16647">
        <ele>1545.4</ele>
        <time>2021-06-03T08:50:14Z</time>
      </trkpt>
      <trkpt lat="41.85245" lon="9.16645">
        <ele>1545.4</ele>
        <time>2021-06-03T08:50:15Z</time>
      </trkpt>
      <trkpt lat="41.85252" lon="9.16642">
        <ele>1544.4</ele>
        <time>2021-06-03T08:50:16Z</time>
      </trkpt>
      <trkpt lat="41.85258" lon="9.1664">
        <ele>1541.4</ele>
        <time>2021-06-03T08:50:17Z</time>
      </trkpt>
      <trkpt lat="41.85264" lon="9.16637">
        <ele>1541.4</ele>
        <time>2021-06-03T08:50:18Z</time>
      </trkpt>
      <trkpt lat="41.8527" lon="9.16635">
        <ele>1541.4</ele>
        <time>2021-06-03T08:50:19Z</time>
      </trkpt>
      <trkpt lat="41.85275" lon="9.16633">
        <ele>1540.6</ele>
        <time>2021-06-03T08:50:20Z</time>
      </trkpt>
      <trkpt lat="41.8528" lon="9.16632">
        <ele>1539.8</ele>
        <time>2021-06-03T08:50:21Z</time>
      </trkpt>
      <trkpt lat="41.85285" lon="9.16631">
        <ele>1539.8</ele>
        <time>2021-06-03T08:50:22Z</time>
      </trkpt>
      <trkpt lat="41.8529" lon="9.16631">
        <ele>1539.8</ele>
        <time>2021-06-03T08:50:23Z</time>
      </trkpt>
      <trkpt lat="41.85294" lon="9.16631">
        <ele>1539.8</ele>
        <time>2021-06-03T08:50:24Z</time>
      </trkpt>
      <trkpt lat="41.85299" lon="9.16631">
        <ele>1538.6</ele>
        <time>2021-06-03T08:50:25Z</time>
      </trkpt>
      <trkpt lat="41.85304" lon="9.16632">
        <ele>1538.6</ele>
        <time>2021-06-03T08:50:26Z</time>
      </trkpt>
      <trkpt lat="41.85309" lon="9.16632">
        <ele>1538.6</ele>
        <time>2021-06-03T08:50:27Z</time>
      </trkpt>
      <trkpt lat="41.85314" lon="9.16633">
        <ele>1537.8</ele>
        <time>2021-06-03T08:50:28Z</time>
      </trkpt>
      <trkpt lat="41.85317" lon="9.16633">
        <ele>1538</ele>
        <time>2021-06-03T08:50:29Z</time>
      </trkpt>
      <trkpt lat="41.85321" lon="9.16633">
        <ele>1538</ele>
        <time>2021-06-03T08:50:30Z</time>
      </trkpt>
      <trkpt lat="41.85325" lon="9.16634">
        <ele>1538</ele>
        <time>2021-06-03T08:50:31Z</time>
      </trkpt>
      <trkpt lat="41.85329" lon="9.16635">
        <ele>1537</ele>
        <time>2021-06-03T08:50:32Z</time>
      </trkpt>
      <trkpt lat="41.85333" lon="9.16636">
        <ele>1536.4</ele>
        <time>2021-06-03T08:50:33Z</time>
      </trkpt>
      <trkpt lat="41.85336" lon="9.16636">
        <ele>1536.4</ele>
        <time>2021-06-03T08:50:34Z</time>
      </trkpt>
      <trkpt lat="41.8534" lon="9.16637">
        <ele>1536.4</ele>
        <time>2021-06-03T08:50:35Z</time>
      </trkpt>
      <trkpt lat="41.85343" lon="9.16637">
        <ele>1536</ele>
        <time>2021-06-03T08:50:36Z</time>
      </trkpt>
      <trkpt lat="41.85346" lon="9.16637">
        <ele>1535.6</ele>
        <time>2021-06-03T08:50:37Z</time>
      </trkpt>
      <trkpt lat="41.8535" lon="9.16636">
        <ele>1535.6</ele>
        <time>2021-06-03T08:50:38Z</time>
      </trkpt>
      <trkpt lat="41.85355" lon="9.16635">
        <ele>1535.6</ele>
        <time>2021-06-03T08:50:39Z</time>
      </trkpt>
      <trkpt lat="41.85359" lon="9.16635">
        <ele>1534.6</ele>
        <time>2021-06-03T08:50:40Z</time>
      </trkpt>
      <trkpt lat="41.85364" lon="9.16635">
        <ele>1534.4</ele>
        <time>2021-06-03T08:50:41Z</time>
      </trkpt>
      <trkpt lat="41.85368" lon="9.16636">
        <ele>1534.4</ele>
        <time>2021-06-03T08:50:42Z</time>
      </trkpt>
      <trkpt lat="41.85374" lon="9.16636">
        <ele>1534.4</ele>
        <time>2021-06-03T08:50:43Z</time>
      </trkpt>
      <trkpt lat="41.85378" lon="9.16635">
        <ele>1533.4</ele>
        <time>2021-06-03T08:50:44Z</time>
      </trkpt>
      <trkpt lat="41.85384" lon="9.16635">
        <ele>1531.2</ele>
        <time>2021-06-03T08:50:45Z</time>
      </trkpt>
      <trkpt lat="41.85389" lon="9.16636">
        <ele>1531.2</ele>
        <time>2021-06-03T08:50:46Z</time>
      </trkpt>
      <trkpt lat="41.85395" lon="9.16636">
        <ele>1531.2</ele>
        <time>2021-06-03T08:50:47Z</time>
      </trkpt>
      <trkpt lat="41.854" lon="9.16636">
        <ele>1530.2</ele>
        <time>2021-06-03T08:50:48Z</time>
      </trkpt>
      <trkpt lat="41.85404" lon="9.16637">
        <ele>1529.4</ele>
        <time>2021-06-03T08:50:49Z</time>
      </trkpt>
      <trkpt lat="41.8541" lon="9.16637">
        <ele>1529.4</ele>
        <time>2021-06-03T08:50:50Z</time>
      </trkpt>
      <trkpt lat="41.85415" lon="9.16638">
        <ele>1529.4</ele>
        <time>2021-06-03T08:50:51Z</time>
      </trkpt>
      <trkpt lat="41.85421" lon="9.16639">
        <ele>1528.4</ele>
        <time>2021-06-03T08:50:52Z</time>
      </trkpt>
      <trkpt lat="41.85426" lon="9.1664">
        <ele>1527.2</ele>
        <time>2021-06-03T08:50:53Z</time>
      </trkpt>
      <trkpt lat="41.8543" lon="9.16641">
        <ele>1527.2</ele>
        <time>2021-06-03T08:50:54Z</time>
      </trkpt>
      <trkpt lat="41.85435" lon="9.16642">
        <ele>1527.2</ele>
        <time>2021-06-03T08:50:55Z</time>
      </trkpt>
      <trkpt lat="41.8544" lon="9.16644">
        <ele>1526.2</ele>
        <time>2021-06-03T08:50:56Z</time>
      </trkpt>
      <trkpt lat="41.85446" lon="9.16647">
        <ele>1524.8</ele>
        <time>2021-06-03T08:50:57Z</time>
      </trkpt>
      <trkpt lat="41.85452" lon="9.16649">
        <ele>1524.8</ele>
        <time>2021-06-03T08:50:58Z</time>
      </trkpt>
      <trkpt lat="41.85457" lon="9.16652">
        <ele>1524.8</ele>
        <time>2021-06-03T08:50:59Z</time>
      </trkpt>
      <trkpt lat="41.85463" lon="9.16655">
        <ele>1523.8</ele>
        <time>2021-06-03T08:51:00Z</time>
      </trkpt>
      <trkpt lat="41.85468" lon="9.16657">
        <ele>1523.8</ele>
        <time>2021-06-03T08:51:01Z</time>
      </trkpt>
      <trkpt lat="41.85472" lon="9.1666">
        <ele>1523.8</ele>
        <time>2021-06-03T08:51:02Z</time>
      </trkpt>
      <trkpt lat="41.85475" lon="9.16662">
        <ele>1523.8</ele>
        <time>2021-06-03T08:51:03Z</time>
      </trkpt>
      <trkpt lat="41.85479" lon="9.16664">
        <ele>1524</ele>
        <time>2021-06-03T08:51:04Z</time>
      </trkpt>
      <trkpt lat="41.85482" lon="9.16666">
        <ele>1523.2</ele>
        <time>2021-06-03T08:51:05Z</time>
      </trkpt>
      <trkpt lat="41.85486" lon="9.16668">
        <ele>1523.2</ele>
        <time>2021-06-03T08:51:06Z</time>
      </trkpt>
      <trkpt lat="41.8549" lon="9.16671">
        <ele>1523.2</ele>
        <time>2021-06-03T08:51:07Z</time>
      </trkpt>
      <trkpt lat="41.85494" lon="9.16674">
        <ele>1522.2</ele>
        <time>2021-06-03T08:51:08Z</time>
      </trkpt>
      <trkpt lat="41.85497" lon="9.16676">
        <ele>1521.2</ele>
        <time>2021-06-03T08:51:09Z</time>
      </trkpt>
      <trkpt lat="41.85501" lon="9.16679">
        <ele>1521.2</ele>
        <time>2021-06-03T08:51:10Z</time>
      </trkpt>
      <trkpt lat="41.85505" lon="9.16681">
        <ele>1521.2</ele>
        <time>2021-06-03T08:51:11Z</time>
      </trkpt>
      <trkpt lat="41.8551" lon="9.16684">
        <ele>1520.2</ele>
        <time>2021-06-03T08:51:12Z</time>
      </trkpt>
      <trkpt lat="41.85515" lon="9.16686">
        <ele>1518.6</ele>
        <time>2021-06-03T08:51:13Z</time>
      </trkpt>
      <trkpt lat="41.85519" lon="9.16688">
        <ele>1518.6</ele>
        <time>2021-06-03T08:51:14Z</time>
      </trkpt>
      <trkpt lat="41.85523" lon="9.1669">
        <ele>1518.6</ele>
        <time>2021-06-03T08:51:15Z</time>
      </trkpt>
      <trkpt lat="41.85527" lon="9.16692">
        <ele>1518.2</ele>
        <time>2021-06-03T08:51:16Z</time>
      </trkpt>
      <trkpt lat="41.85532" lon="9.16693">
        <ele>1517.4</ele>
        <time>2021-06-03T08:51:17Z</time>
      </trkpt>
      <trkpt lat="41.85536" lon="9.16695">
        <ele>1517.4</ele>
        <time>2021-06-03T08:51:18Z</time>
      </trkpt>
      <trkpt lat="41.85541" lon="9.16698">
        <ele>1517.4</ele>
        <time>2021-06-03T08:51:19Z</time>
      </trkpt>
      <trkpt lat="41.85546" lon="9.167">
        <ele>1516.4</ele>
        <time>2021-06-03T08:51:20Z</time>
      </trkpt>
      <trkpt lat="41.8555" lon="9.16701">
        <ele>1515.4</ele>
        <time>2021-06-03T08:51:21Z</time>
      </trkpt>
      <trkpt lat="41.85555" lon="9.16704">
        <ele>1515.4</ele>
        <time>2021-06-03T08:51:22Z</time>
      </trkpt>
      <trkpt lat="41.85559" lon="9.16706">
        <ele>1515.4</ele>
        <time>2021-06-03T08:51:23Z</time>
      </trkpt>
      <trkpt lat="41.85564" lon="9.16709">
        <ele>1514.4</ele>
        <time>2021-06-03T08:51:24Z</time>
      </trkpt>
      <trkpt lat="41.85569" lon="9.16712">
        <ele>1514.2</ele>
        <time>2021-06-03T08:51:25Z</time>
      </trkpt>
      <trkpt lat="41.85575" lon="9.16715">
        <ele>1514.2</ele>
        <time>2021-06-03T08:51:26Z</time>
      </trkpt>
      <trkpt lat="41.85581" lon="9.16718">
        <ele>1514.2</ele>
        <time>2021-06-03T08:51:27Z</time>
      </trkpt>
      <trkpt lat="41.85586" lon="9.16721">
        <ele>1513.8</ele>
        <time>2021-06-03T08:51:28Z</time>
      </trkpt>
      <trkpt lat="41.85591" lon="9.16723">
        <ele>1512.6</ele>
        <time>2021-06-03T08:51:29Z</time>
      </trkpt>
      <trkpt lat="41.85596" lon="9.16725">
        <ele>1512.6</ele>
        <time>2021-06-03T08:51:30Z</time>
      </trkpt>
      <trkpt lat="41.85602" lon="9.16726">
        <ele>1512.6</ele>
        <time>2021-06-03T08:51:31Z</time>
      </trkpt>
      <trkpt lat="41.85607" lon="9.16728">
        <ele>1511.6</ele>
        <time>2021-06-03T08:51:32Z</time>
      </trkpt>
      <trkpt lat="41.85613" lon="9.16731">
        <ele>1510.6</ele>
        <time>2021-06-03T08:51:33Z</time>
      </trkpt>
      <trkpt lat="41.85619" lon="9.16734">
        <ele>1510.6</ele>
        <time>2021-06-03T08:51:34Z</time>
      </trkpt>
      <trkpt lat="41.85625" lon="9.16738">
        <ele>1510.6</ele>
        <time>2021-06-03T08:51:35Z</time>
      </trkpt>
      <trkpt lat="41.85631" lon="9.16742">
        <ele>1509.8</ele>
        <time>2021-06-03T08:51:36Z</time>
      </trkpt>
      <trkpt lat="41.85637" lon="9.16746">
        <ele>1507.8</ele>
        <time>2021-06-03T08:51:37Z</time>
      </trkpt>
      <trkpt lat="41.85643" lon="9.1675">
        <ele>1507.8</ele>
        <time>2021-06-03T08:51:38Z</time>
      </trkpt>
      <trkpt lat="41.85649" lon="9.16755">
        <ele>1507.8</ele>
        <time>2021-06-03T08:51:39Z</time>
      </trkpt>
      <trkpt lat="41.85655" lon="9.1676">
        <ele>1506.8</ele>
        <time>2021-06-03T08:51:40Z</time>
      </trkpt>
      <trkpt lat="41.85661" lon="9.16765">
        <ele>1505.2</ele>
        <time>2021-06-03T08:51:41Z</time>
      </trkpt>
      <trkpt lat="41.85666" lon="9.16769">
        <ele>1505.2</ele>
        <time>2021-06-03T08:51:42Z</time>
      </trkpt>
      <trkpt lat="41.8567" lon="9.16772">
        <ele>1505.2</ele>
        <time>2021-06-03T08:51:43Z</time>
      </trkpt>
      <trkpt lat="41.85674" lon="9.16776">
        <ele>1506.2</ele>
        <time>2021-06-03T08:51:44Z</time>
      </trkpt>
      <trkpt lat="41.85676" lon="9.16778">
        <ele>1506.6</ele>
        <time>2021-06-03T08:51:45Z</time>
      </trkpt>
      <trkpt lat="41.85679" lon="9.16781">
        <ele>1506.6</ele>
        <time>2021-06-03T08:51:46Z</time>
      </trkpt>
      <trkpt lat="41.85682" lon="9.16783">
        <ele>1506.6</ele>
        <time>2021-06-03T08:51:47Z</time>
      </trkpt>
      <trkpt lat="41.85685" lon="9.16785">
        <ele>1506.6</ele>
        <time>2021-06-03T08:51:48Z</time>
      </trkpt>
      <trkpt lat="41.85687" lon="9.16788">
        <ele>1506.8</ele>
        <time>2021-06-03T08:51:49Z</time>
      </trkpt>
      <trkpt lat="41.8569" lon="9.1679">
        <ele>1506.8</ele>
        <time>2021-06-03T08:51:50Z</time>
      </trkpt>
      <trkpt lat="41.85693" lon="9.1679">
        <ele>1506.8</ele>
        <time>2021-06-03T08:51:51Z</time>
      </trkpt>
      <trkpt lat="41.85695" lon="9.1679">
        <ele>1505.8</ele>
        <time>2021-06-03T08:51:52Z</time>
      </trkpt>
      <trkpt lat="41.85699" lon="9.1679">
        <ele>1505.6</ele>
        <time>2021-06-03T08:51:53Z</time>
      </trkpt>
      <trkpt lat="41.85703" lon="9.1679">
        <ele>1505.6</ele>
        <time>2021-06-03T08:51:54Z</time>
      </trkpt>
      <trkpt lat="41.85707" lon="9.16788">
        <ele>1505.6</ele>
        <time>2021-06-03T08:51:55Z</time>
      </trkpt>
      <trkpt lat="41.85711" lon="9.16787">
        <ele>1505.4</ele>
        <time>2021-06-03T08:51:56Z</time>
      </trkpt>
      <trkpt lat="41.85716" lon="9.16785">
        <ele>1504.6</ele>
        <time>2021-06-03T08:51:57Z</time>
      </trkpt>
      <trkpt lat="41.85721" lon="9.16785">
        <ele>1504.6</ele>
        <time>2021-06-03T08:51:58Z</time>
      </trkpt>
      <trkpt lat="41.85727" lon="9.16785">
        <ele>1504.6</ele>
        <time>2021-06-03T08:51:59Z</time>
      </trkpt>
      <trkpt lat="41.85733" lon="9.16785">
        <ele>1503.6</ele>
        <time>2021-06-03T08:52:00Z</time>
      </trkpt>
      <trkpt lat="41.85739" lon="9.16784">
        <ele>1503.8</ele>
        <time>2021-06-03T08:52:01Z</time>
      </trkpt>
      <trkpt lat="41.85744" lon="9.16782">
        <ele>1503.8</ele>
        <time>2021-06-03T08:52:02Z</time>
      </trkpt>
      <trkpt lat="41.85749" lon="9.16781">
        <ele>1503.8</ele>
        <time>2021-06-03T08:52:03Z</time>
      </trkpt>
      <trkpt lat="41.85754" lon="9.16779">
        <ele>1503.8</ele>
        <time>2021-06-03T08:52:04Z</time>
      </trkpt>
      <trkpt lat="41.85759" lon="9.16777">
        <ele>1504</ele>
        <time>2021-06-03T08:52:05Z</time>
      </trkpt>
      <trkpt lat="41.85763" lon="9.16776">
        <ele>1504</ele>
        <time>2021-06-03T08:52:06Z</time>
      </trkpt>
      <trkpt lat="41.85766" lon="9.16774">
        <ele>1504</ele>
        <time>2021-06-03T08:52:07Z</time>
      </trkpt>
      <trkpt lat="41.85769" lon="9.16773">
        <ele>1504.2</ele>
        <time>2021-06-03T08:52:08Z</time>
      </trkpt>
      <trkpt lat="41.85772" lon="9.16772">
        <ele>1504.8</ele>
        <time>2021-06-03T08:52:09Z</time>
      </trkpt>
      <trkpt lat="41.85774" lon="9.1677">
        <ele>1504.8</ele>
        <time>2021-06-03T08:52:10Z</time>
      </trkpt>
      <trkpt lat="41.85777" lon="9.16769">
        <ele>1504.8</ele>
        <time>2021-06-03T08:52:11Z</time>
      </trkpt>
      <trkpt lat="41.85779" lon="9.16767">
        <ele>1504.8</ele>
        <time>2021-06-03T08:52:12Z</time>
      </trkpt>
      <trkpt lat="41.85781" lon="9.16766">
        <ele>1505</ele>
        <time>2021-06-03T08:52:13Z</time>
      </trkpt>
      <trkpt lat="41.85783" lon="9.16765">
        <ele>1505</ele>
        <time>2021-06-03T08:52:14Z</time>
      </trkpt>
      <trkpt lat="41.85786" lon="9.16763">
        <ele>1505</ele>
        <time>2021-06-03T08:52:15Z</time>
      </trkpt>
      <trkpt lat="41.85788" lon="9.16761">
        <ele>1505</ele>
        <time>2021-06-03T08:52:16Z</time>
      </trkpt>
      <trkpt lat="41.8579" lon="9.16759">
        <ele>1504.8</ele>
        <time>2021-06-03T08:52:17Z</time>
      </trkpt>
      <trkpt lat="41.85793" lon="9.16757">
        <ele>1504.8</ele>
        <time>2021-06-03T08:52:18Z</time>
      </trkpt>
      <trkpt lat="41.85796" lon="9.16755">
        <ele>1504.8</ele>
        <time>2021-06-03T08:52:19Z</time>
      </trkpt>
      <trkpt lat="41.85799" lon="9.16753">
        <ele>1504</ele>
        <time>2021-06-03T08:52:20Z</time>
      </trkpt>
      <trkpt lat="41.85803" lon="9.1675">
        <ele>1504</ele>
        <time>2021-06-03T08:52:21Z</time>
      </trkpt>
      <trkpt lat="41.85806" lon="9.16748">
        <ele>1504</ele>
        <time>2021-06-03T08:52:22Z</time>
      </trkpt>
      <trkpt lat="41.85809" lon="9.16746">
        <ele>1504</ele>
        <time>2021-06-03T08:52:23Z</time>
      </trkpt>
      <trkpt lat="41.85813" lon="9.16744">
        <ele>1504.6</ele>
        <time>2021-06-03T08:52:24Z</time>
      </trkpt>
      <trkpt lat="41.85816" lon="9.16742">
        <ele>1504</ele>
        <time>2021-06-03T08:52:25Z</time>
      </trkpt>
      <trkpt lat="41.85819" lon="9.16741">
        <ele>1504</ele>
        <time>2021-06-03T08:52:26Z</time>
      </trkpt>
      <trkpt lat="41.85822" lon="9.1674">
        <ele>1504</ele>
        <time>2021-06-03T08:52:27Z</time>
      </trkpt>
      <trkpt lat="41.85825" lon="9.16739">
        <ele>1504</ele>
        <time>2021-06-03T08:52:28Z</time>
      </trkpt>
      <trkpt lat="41.85829" lon="9.16739">
        <ele>1504</ele>
        <time>2021-06-03T08:52:29Z</time>
      </trkpt>
      <trkpt lat="41.85832" lon="9.16739">
        <ele>1504</ele>
        <time>2021-06-03T08:52:30Z</time>
      </trkpt>
      <trkpt lat="41.85835" lon="9.1674">
        <ele>1504</ele>
        <time>2021-06-03T08:52:31Z</time>
      </trkpt>
      <trkpt lat="41.85837" lon="9.1674">
        <ele>1504</ele>
        <time>2021-06-03T08:52:32Z</time>
      </trkpt>
      <trkpt lat="41.8584" lon="9.1674">
        <ele>1503.4</ele>
        <time>2021-06-03T08:52:33Z</time>
      </trkpt>
      <trkpt lat="41.85842" lon="9.16741">
        <ele>1503.4</ele>
        <time>2021-06-03T08:52:34Z</time>
      </trkpt>
      <trkpt lat="41.85844" lon="9.16741">
        <ele>1503.4</ele>
        <time>2021-06-03T08:52:35Z</time>
      </trkpt>
      <trkpt lat="41.85847" lon="9.16741">
        <ele>1504.4</ele>
        <time>2021-06-03T08:52:36Z</time>
      </trkpt>
      <trkpt lat="41.8585" lon="9.16742">
        <ele>1504.8</ele>
        <time>2021-06-03T08:52:37Z</time>
      </trkpt>
      <trkpt lat="41.85853" lon="9.16743">
        <ele>1504.8</ele>
        <time>2021-06-03T08:52:38Z</time>
      </trkpt>
      <trkpt lat="41.85856" lon="9.16743">
        <ele>1504.8</ele>
        <time>2021-06-03T08:52:39Z</time>
      </trkpt>
      <trkpt lat="41.85859" lon="9.16744">
        <ele>1504.8</ele>
        <time>2021-06-03T08:52:40Z</time>
      </trkpt>
      <trkpt lat="41.85861" lon="9.16744">
        <ele>1505</ele>
        <time>2021-06-03T08:52:41Z</time>
      </trkpt>
      <trkpt lat="41.85864" lon="9.16744">
        <ele>1505</ele>
        <time>2021-06-03T08:52:42Z</time>
      </trkpt>
      <trkpt lat="41.85867" lon="9.16746">
        <ele>1505</ele>
        <time>2021-06-03T08:52:43Z</time>
      </trkpt>
      <trkpt lat="41.85869" lon="9.16746">
        <ele>1504.4</ele>
        <time>2021-06-03T08:52:44Z</time>
      </trkpt>
      <trkpt lat="41.85872" lon="9.16747">
        <ele>1504</ele>
        <time>2021-06-03T08:52:45Z</time>
      </trkpt>
      <trkpt lat="41.85875" lon="9.16748">
        <ele>1504</ele>
        <time>2021-06-03T08:52:46Z</time>
      </trkpt>
      <trkpt lat="41.85877" lon="9.16749">
        <ele>1504</ele>
        <time>2021-06-03T08:52:47Z</time>
      </trkpt>
      <trkpt lat="41.8588" lon="9.1675">
        <ele>1504</ele>
        <time>2021-06-03T08:52:48Z</time>
      </trkpt>
      <trkpt lat="41.85882" lon="9.16751">
        <ele>1504.2</ele>
        <time>2021-06-03T08:52:49Z</time>
      </trkpt>
      <trkpt lat="41.85885" lon="9.16752">
        <ele>1504.2</ele>
        <time>2021-06-03T08:52:50Z</time>
      </trkpt>
      <trkpt lat="41.85887" lon="9.16754">
        <ele>1504.2</ele>
        <time>2021-06-03T08:52:51Z</time>
      </trkpt>
      <trkpt lat="41.8589" lon="9.16756">
        <ele>1504</ele>
        <time>2021-06-03T08:52:52Z</time>
      </trkpt>
      <trkpt lat="41.85892" lon="9.16757">
        <ele>1503.6</ele>
        <time>2021-06-03T08:52:53Z</time>
      </trkpt>
      <trkpt lat="41.85894" lon="9.16759">
        <ele>1503.6</ele>
        <time>2021-06-03T08:52:54Z</time>
      </trkpt>
      <trkpt lat="41.85897" lon="9.16762">
        <ele>1503.6</ele>
        <time>2021-06-03T08:52:55Z</time>
      </trkpt>
      <trkpt lat="41.85899" lon="9.16765">
        <ele>1503.6</ele>
        <time>2021-06-03T08:52:56Z</time>
      </trkpt>
      <trkpt lat="41.85902" lon="9.16768">
        <ele>1503.2</ele>
        <time>2021-06-03T08:52:57Z</time>
      </trkpt>
      <trkpt lat="41.85905" lon="9.16771">
        <ele>1503.2</ele>
        <time>2021-06-03T08:52:58Z</time>
      </trkpt>
      <trkpt lat="41.85908" lon="9.16775">
        <ele>1503.2</ele>
        <time>2021-06-03T08:52:59Z</time>
      </trkpt>
      <trkpt lat="41.85912" lon="9.16779">
        <ele>1503.2</ele>
        <time>2021-06-03T08:53:00Z</time>
      </trkpt>
      <trkpt lat="41.85916" lon="9.16784">
        <ele>1501.2</ele>
        <time>2021-06-03T08:53:01Z</time>
      </trkpt>
      <trkpt lat="41.8592" lon="9.16788">
        <ele>1501.2</ele>
        <time>2021-06-03T08:53:02Z</time>
      </trkpt>
      <trkpt lat="41.85924" lon="9.16791">
        <ele>1501.2</ele>
        <time>2021-06-03T08:53:03Z</time>
      </trkpt>
      <trkpt lat="41.85928" lon="9.16794">
        <ele>1502</ele>
        <time>2021-06-03T08:53:04Z</time>
      </trkpt>
      <trkpt lat="41.85933" lon="9.16797">
        <ele>1501.6</ele>
        <time>2021-06-03T08:53:05Z</time>
      </trkpt>
      <trkpt lat="41.85937" lon="9.16799">
        <ele>1501.6</ele>
        <time>2021-06-03T08:53:06Z</time>
      </trkpt>
      <trkpt lat="41.85941" lon="9.16802">
        <ele>1501.6</ele>
        <time>2021-06-03T08:53:07Z</time>
      </trkpt>
      <trkpt lat="41.85944" lon="9.16805">
        <ele>1502</ele>
        <time>2021-06-03T08:53:08Z</time>
      </trkpt>
      <trkpt lat="41.85948" lon="9.16808">
        <ele>1502.4</ele>
        <time>2021-06-03T08:53:09Z</time>
      </trkpt>
      <trkpt lat="41.85951" lon="9.16812">
        <ele>1502.4</ele>
        <time>2021-06-03T08:53:10Z</time>
      </trkpt>
      <trkpt lat="41.85953" lon="9.16815">
        <ele>1502.4</ele>
        <time>2021-06-03T08:53:11Z</time>
      </trkpt>
      <trkpt lat="41.85956" lon="9.16819">
        <ele>1502.4</ele>
        <time>2021-06-03T08:53:12Z</time>
      </trkpt>
      <trkpt lat="41.85959" lon="9.16823">
        <ele>1503.2</ele>
        <time>2021-06-03T08:53:13Z</time>
      </trkpt>
      <trkpt lat="41.85961" lon="9.16827">
        <ele>1503.2</ele>
        <time>2021-06-03T08:53:14Z</time>
      </trkpt>
      <trkpt lat="41.85963" lon="9.1683">
        <ele>1503.2</ele>
        <time>2021-06-03T08:53:15Z</time>
      </trkpt>
      <trkpt lat="41.85965" lon="9.16834">
        <ele>1502.8</ele>
        <time>2021-06-03T08:53:16Z</time>
      </trkpt>
      <trkpt lat="41.85967" lon="9.16838">
        <ele>1503.2</ele>
        <time>2021-06-03T08:53:17Z</time>
      </trkpt>
      <trkpt lat="41.85968" lon="9.16842">
        <ele>1503.2</ele>
        <time>2021-06-03T08:53:18Z</time>
      </trkpt>
      <trkpt lat="41.8597" lon="9.16846">
        <ele>1503.2</ele>
        <time>2021-06-03T08:53:19Z</time>
      </trkpt>
      <trkpt lat="41.85972" lon="9.1685">
        <ele>1503.4</ele>
        <time>2021-06-03T08:53:20Z</time>
      </trkpt>
      <trkpt lat="41.85974" lon="9.16853">
        <ele>1502.4</ele>
        <time>2021-06-03T08:53:21Z</time>
      </trkpt>
      <trkpt lat="41.85976" lon="9.16857">
        <ele>1502.4</ele>
        <time>2021-06-03T08:53:22Z</time>
      </trkpt>
      <trkpt lat="41.85978" lon="9.16861">
        <ele>1502.4</ele>
        <time>2021-06-03T08:53:23Z</time>
      </trkpt>
      <trkpt lat="41.8598" lon="9.16864">
        <ele>1503.4</ele>
        <time>2021-06-03T08:53:24Z</time>
      </trkpt>
      <trkpt lat="41.85981" lon="9.16868">
        <ele>1504.2</ele>
        <time>2021-06-03T08:53:25Z</time>
      </trkpt>
      <trkpt lat="41.85983" lon="9.16872">
        <ele>1504.2</ele>
        <time>2021-06-03T08:53:26Z</time>
      </trkpt>
      <trkpt lat="41.85985" lon="9.16875">
        <ele>1504.2</ele>
        <time>2021-06-03T08:53:27Z</time>
      </trkpt>
      <trkpt lat="41.85987" lon="9.16879">
        <ele>1504.2</ele>
        <time>2021-06-03T08:53:28Z</time>
      </trkpt>
      <trkpt lat="41.85988" lon="9.16882">
        <ele>1503.8</ele>
        <time>2021-06-03T08:53:29Z</time>
      </trkpt>
      <trkpt lat="41.8599" lon="9.16884">
        <ele>1503.8</ele>
        <time>2021-06-03T08:53:30Z</time>
      </trkpt>
      <trkpt lat="41.85992" lon="9.16887">
        <ele>1503.8</ele>
        <time>2021-06-03T08:53:31Z</time>
      </trkpt>
      <trkpt lat="41.85994" lon="9.16889">
        <ele>1504.6</ele>
        <time>2021-06-03T08:53:32Z</time>
      </trkpt>
      <trkpt lat="41.85996" lon="9.16891">
        <ele>1504.6</ele>
        <time>2021-06-03T08:53:33Z</time>
      </trkpt>
      <trkpt lat="41.85998" lon="9.16894">
        <ele>1504.6</ele>
        <time>2021-06-03T08:53:34Z</time>
      </trkpt>
      <trkpt lat="41.85999" lon="9.16896">
        <ele>1504.6</ele>
        <time>2021-06-03T08:53:35Z</time>
      </trkpt>
      <trkpt lat="41.86001" lon="9.16898">
        <ele>1504.6</ele>
        <time>2021-06-03T08:53:36Z</time>
      </trkpt>
      <trkpt lat="41.86003" lon="9.169">
        <ele>1504.6</ele>
        <time>2021-06-03T08:53:37Z</time>
      </trkpt>
      <trkpt lat="41.86005" lon="9.16903">
        <ele>1504.6</ele>
        <time>2021-06-03T08:53:38Z</time>
      </trkpt>
      <trkpt lat="41.86007" lon="9.16905">
        <ele>1504.6</ele>
        <time>2021-06-03T08:53:39Z</time>
      </trkpt>
      <trkpt lat="41.86009" lon="9.16907">
        <ele>1505.4</ele>
        <time>2021-06-03T08:53:40Z</time>
      </trkpt>
      <trkpt lat="41.8601" lon="9.16909">
        <ele>1505.4</ele>
        <time>2021-06-03T08:53:41Z</time>
      </trkpt>
      <trkpt lat="41.86012" lon="9.16911">
        <ele>1505.4</ele>
        <time>2021-06-03T08:53:42Z</time>
      </trkpt>
      <trkpt lat="41.86013" lon="9.16914">
        <ele>1505.4</ele>
        <time>2021-06-03T08:53:43Z</time>
      </trkpt>
      <trkpt lat="41.86015" lon="9.16916">
        <ele>1505.4</ele>
        <time>2021-06-03T08:53:44Z</time>
      </trkpt>
      <trkpt lat="41.86017" lon="9.16918">
        <ele>1505.4</ele>
        <time>2021-06-03T08:53:45Z</time>
      </trkpt>
      <trkpt lat="41.86018" lon="9.1692">
        <ele>1505.4</ele>
        <time>2021-06-03T08:53:46Z</time>
      </trkpt>
      <trkpt lat="41.8602" lon="9.16923">
        <ele>1505.4</ele>
        <time>2021-06-03T08:53:47Z</time>
      </trkpt>
      <trkpt lat="41.86021" lon="9.16926">
        <ele>1505.4</ele>
        <time>2021-06-03T08:53:48Z</time>
      </trkpt>
      <trkpt lat="41.86023" lon="9.16928">
        <ele>1505.6</ele>
        <time>2021-06-03T08:53:49Z</time>
      </trkpt>
      <trkpt lat="41.86024" lon="9.16931">
        <ele>1505.6</ele>
        <time>2021-06-03T08:53:50Z</time>
      </trkpt>
      <trkpt lat="41.86026" lon="9.16933">
        <ele>1505.6</ele>
        <time>2021-06-03T08:53:51Z</time>
      </trkpt>
      <trkpt lat="41.86027" lon="9.16936">
        <ele>1505.6</ele>
        <time>2021-06-03T08:53:52Z</time>
      </trkpt>
      <trkpt lat="41.86029" lon="9.16938">
        <ele>1506</ele>
        <time>2021-06-03T08:53:53Z</time>
      </trkpt>
      <trkpt lat="41.86031" lon="9.16941">
        <ele>1506</ele>
        <time>2021-06-03T08:53:54Z</time>
      </trkpt>
      <trkpt lat="41.86033" lon="9.16944">
        <ele>1506</ele>
        <time>2021-06-03T08:53:55Z</time>
      </trkpt>
      <trkpt lat="41.86034" lon="9.16946">
        <ele>1506</ele>
        <time>2021-06-03T08:53:56Z</time>
      </trkpt>
      <trkpt lat="41.86036" lon="9.16949">
        <ele>1505.8</ele>
        <time>2021-06-03T08:53:57Z</time>
      </trkpt>
      <trkpt lat="41.86039" lon="9.16952">
        <ele>1505.8</ele>
        <time>2021-06-03T08:53:58Z</time>
      </trkpt>
      <trkpt lat="41.8604" lon="9.16954">
        <ele>1505.8</ele>
        <time>2021-06-03T08:53:59Z</time>
      </trkpt>
      <trkpt lat="41.86043" lon="9.16956">
        <ele>1505.6</ele>
        <time>2021-06-03T08:54:00Z</time>
      </trkpt>
      <trkpt lat="41.86045" lon="9.16959">
        <ele>1505.8</ele>
        <time>2021-06-03T08:54:01Z</time>
      </trkpt>
      <trkpt lat="41.86047" lon="9.1696">
        <ele>1505.8</ele>
        <time>2021-06-03T08:54:02Z</time>
      </trkpt>
      <trkpt lat="41.86049" lon="9.16962">
        <ele>1505.8</ele>
        <time>2021-06-03T08:54:03Z</time>
      </trkpt>
      <trkpt lat="41.86051" lon="9.16963">
        <ele>1505.4</ele>
        <time>2021-06-03T08:54:04Z</time>
      </trkpt>
      <trkpt lat="41.86054" lon="9.16965">
        <ele>1505.2</ele>
        <time>2021-06-03T08:54:05Z</time>
      </trkpt>
      <trkpt lat="41.86057" lon="9.16967">
        <ele>1505.2</ele>
        <time>2021-06-03T08:54:06Z</time>
      </trkpt>
      <trkpt lat="41.8606" lon="9.16968">
        <ele>1505.2</ele>
        <time>2021-06-03T08:54:07Z</time>
      </trkpt>
      <trkpt lat="41.86063" lon="9.1697">
        <ele>1505.2</ele>
        <time>2021-06-03T08:54:08Z</time>
      </trkpt>
      <trkpt lat="41.86067" lon="9.16972">
        <ele>1504.4</ele>
        <time>2021-06-03T08:54:09Z</time>
      </trkpt>
      <trkpt lat="41.8607" lon="9.16974">
        <ele>1504.4</ele>
        <time>2021-06-03T08:54:10Z</time>
      </trkpt>
      <trkpt lat="41.86073" lon="9.16976">
        <ele>1504.4</ele>
        <time>2021-06-03T08:54:11Z</time>
      </trkpt>
      <trkpt lat="41.86076" lon="9.16979">
        <ele>1504.4</ele>
        <time>2021-06-03T08:54:12Z</time>
      </trkpt>
      <trkpt lat="41.8608" lon="9.16982">
        <ele>1503.4</ele>
        <time>2021-06-03T08:54:13Z</time>
      </trkpt>
      <trkpt lat="41.86084" lon="9.16985">
        <ele>1503.4</ele>
        <time>2021-06-03T08:54:14Z</time>
      </trkpt>
      <trkpt lat="41.86087" lon="9.16989">
        <ele>1503.4</ele>
        <time>2021-06-03T08:54:15Z</time>
      </trkpt>
      <trkpt lat="41.86091" lon="9.16993">
        <ele>1502.4</ele>
        <time>2021-06-03T08:54:16Z</time>
      </trkpt>
      <trkpt lat="41.86095" lon="9.16997">
        <ele>1501.6</ele>
        <time>2021-06-03T08:54:17Z</time>
      </trkpt>
      <trkpt lat="41.86098" lon="9.17001">
        <ele>1501.6</ele>
        <time>2021-06-03T08:54:18Z</time>
      </trkpt>
      <trkpt lat="41.86101" lon="9.17005">
        <ele>1501.6</ele>
        <time>2021-06-03T08:54:19Z</time>
      </trkpt>
      <trkpt lat="41.86104" lon="9.17009">
        <ele>1501.6</ele>
        <time>2021-06-03T08:54:20Z</time>
      </trkpt>
      <trkpt lat="41.86106" lon="9.17013">
        <ele>1501.8</ele>
        <time>2021-06-03T08:54:21Z</time>
      </trkpt>
      <trkpt lat="41.86108" lon="9.17017">
        <ele>1501.8</ele>
        <time>2021-06-03T08:54:22Z</time>
      </trkpt>
      <trkpt lat="41.8611" lon="9.1702">
        <ele>1501.8</ele>
        <time>2021-06-03T08:54:23Z</time>
      </trkpt>
      <trkpt lat="41.86113" lon="9.17023">
        <ele>1501.8</ele>
        <time>2021-06-03T08:54:24Z</time>
      </trkpt>
      <trkpt lat="41.86115" lon="9.17024">
        <ele>1501.2</ele>
        <time>2021-06-03T08:54:25Z</time>
      </trkpt>
      <trkpt lat="41.86118" lon="9.17025">
        <ele>1501.2</ele>
        <time>2021-06-03T08:54:26Z</time>
      </trkpt>
      <trkpt lat="41.86121" lon="9.17025">
        <ele>1501.2</ele>
        <time>2021-06-03T08:54:27Z</time>
      </trkpt>
      <trkpt lat="41.86124" lon="9.17025">
        <ele>1500.8</ele>
        <time>2021-06-03T08:54:28Z</time>
      </trkpt>
      <trkpt lat="41.86128" lon="9.17026">
        <ele>1499.6</ele>
        <time>2021-06-03T08:54:29Z</time>
      </trkpt>
      <trkpt lat="41.86132" lon="9.17026">
        <ele>1499.6</ele>
        <time>2021-06-03T08:54:30Z</time>
      </trkpt>
      <trkpt lat="41.86136" lon="9.17027">
        <ele>1499.6</ele>
        <time>2021-06-03T08:54:31Z</time>
      </trkpt>
      <trkpt lat="41.86139" lon="9.17028">
        <ele>1499.6</ele>
        <time>2021-06-03T08:54:32Z</time>
      </trkpt>
      <trkpt lat="41.86143" lon="9.17029">
        <ele>1500.2</ele>
        <time>2021-06-03T08:54:33Z</time>
      </trkpt>
      <trkpt lat="41.86147" lon="9.17031">
        <ele>1500.2</ele>
        <time>2021-06-03T08:54:34Z</time>
      </trkpt>
      <trkpt lat="41.86151" lon="9.17032">
        <ele>1500.2</ele>
        <time>2021-06-03T08:54:35Z</time>
      </trkpt>
      <trkpt lat="41.86155" lon="9.17034">
        <ele>1500</ele>
        <time>2021-06-03T08:54:36Z</time>
      </trkpt>
      <trkpt lat="41.86159" lon="9.17036">
        <ele>1500.2</ele>
        <time>2021-06-03T08:54:37Z</time>
      </trkpt>
      <trkpt lat="41.86163" lon="9.17037">
        <ele>1500.2</ele>
        <time>2021-06-03T08:54:38Z</time>
      </trkpt>
      <trkpt lat="41.86168" lon="9.17039">
        <ele>1500.2</ele>
        <time>2021-06-03T08:54:39Z</time>
      </trkpt>
      <trkpt lat="41.86172" lon="9.17041">
        <ele>1499.6</ele>
        <time>2021-06-03T08:54:40Z</time>
      </trkpt>
      <trkpt lat="41.86176" lon="9.17043">
        <ele>1498.6</ele>
        <time>2021-06-03T08:54:41Z</time>
      </trkpt>
      <trkpt lat="41.86181" lon="9.17045">
        <ele>1498.6</ele>
        <time>2021-06-03T08:54:42Z</time>
      </trkpt>
      <trkpt lat="41.86185" lon="9.17047">
        <ele>1498.6</ele>
        <time>2021-06-03T08:54:43Z</time>
      </trkpt>
      <trkpt lat="41.86191" lon="9.17049">
        <ele>1497.6</ele>
        <time>2021-06-03T08:54:44Z</time>
      </trkpt>
      <trkpt lat="41.86196" lon="9.17051">
        <ele>1497.2</ele>
        <time>2021-06-03T08:54:45Z</time>
      </trkpt>
      <trkpt lat="41.862" lon="9.17053">
        <ele>1497.2</ele>
        <time>2021-06-03T08:54:46Z</time>
      </trkpt>
      <trkpt lat="41.86205" lon="9.17055">
        <ele>1497.2</ele>
        <time>2021-06-03T08:54:47Z</time>
      </trkpt>
      <trkpt lat="41.8621" lon="9.17057">
        <ele>1496.8</ele>
        <time>2021-06-03T08:54:48Z</time>
      </trkpt>
      <trkpt lat="41.86215" lon="9.17059">
        <ele>1495.8</ele>
        <time>2021-06-03T08:54:49Z</time>
      </trkpt>
      <trkpt lat="41.86219" lon="9.17061">
        <ele>1495.8</ele>
        <time>2021-06-03T08:54:50Z</time>
      </trkpt>
      <trkpt lat="41.86224" lon="9.17063">
        <ele>1495.8</ele>
        <time>2021-06-03T08:54:51Z</time>
      </trkpt>
      <trkpt lat="41.86229" lon="9.17064">
        <ele>1496.2</ele>
        <time>2021-06-03T08:54:52Z</time>
      </trkpt>
      <trkpt lat="41.86234" lon="9.17066">
        <ele>1497.4</ele>
        <time>2021-06-03T08:54:53Z</time>
      </trkpt>
      <trkpt lat="41.86238" lon="9.17067">
        <ele>1497.4</ele>
        <time>2021-06-03T08:54:54Z</time>
      </trkpt>
      <trkpt lat="41.86243" lon="9.17069">
        <ele>1497.4</ele>
        <time>2021-06-03T08:54:55Z</time>
      </trkpt>
      <trkpt lat="41.86247" lon="9.1707">
        <ele>1497.4</ele>
        <time>2021-06-03T08:54:56Z</time>
      </trkpt>
      <trkpt lat="41.86251" lon="9.17071">
        <ele>1496.8</ele>
        <time>2021-06-03T08:54:57Z</time>
      </trkpt>
      <trkpt lat="41.86254" lon="9.17072">
        <ele>1496.8</ele>
        <time>2021-06-03T08:54:58Z</time>
      </trkpt>
      <trkpt lat="41.86256" lon="9.17072">
        <ele>1496.8</ele>
        <time>2021-06-03T08:54:59Z</time>
      </trkpt>
      <trkpt lat="41.86259" lon="9.17073">
        <ele>1497.2</ele>
        <time>2021-06-03T08:55:00Z</time>
      </trkpt>
      <trkpt lat="41.8626" lon="9.17074">
        <ele>1497</ele>
        <time>2021-06-03T08:55:01Z</time>
      </trkpt>
      <trkpt lat="41.86262" lon="9.17074">
        <ele>1497</ele>
        <time>2021-06-03T08:55:02Z</time>
      </trkpt>
      <trkpt lat="41.86264" lon="9.17075">
        <ele>1497</ele>
        <time>2021-06-03T08:55:03Z</time>
      </trkpt>
      <trkpt lat="41.86266" lon="9.17075">
        <ele>1497.4</ele>
        <time>2021-06-03T08:55:04Z</time>
      </trkpt>
      <trkpt lat="41.86267" lon="9.17076">
        <ele>1497.4</ele>
        <time>2021-06-03T08:55:05Z</time>
      </trkpt>
      <trkpt lat="41.86268" lon="9.17076">
        <ele>1497.4</ele>
        <time>2021-06-03T08:55:06Z</time>
      </trkpt>
      <trkpt lat="41.8627" lon="9.17075">
        <ele>1497.4</ele>
        <time>2021-06-03T08:55:07Z</time>
      </trkpt>
      <trkpt lat="41.86271" lon="9.17076">
        <ele>1496.4</ele>
        <time>2021-06-03T08:55:08Z</time>
      </trkpt>
      <trkpt lat="41.86273" lon="9.17076">
        <ele>1496.8</ele>
        <time>2021-06-03T08:55:09Z</time>
      </trkpt>
      <trkpt lat="41.86275" lon="9.17077">
        <ele>1496.8</ele>
        <time>2021-06-03T08:55:10Z</time>
      </trkpt>
      <trkpt lat="41.86277" lon="9.17078">
        <ele>1496.8</ele>
        <time>2021-06-03T08:55:11Z</time>
      </trkpt>
      <trkpt lat="41.86279" lon="9.17078">
        <ele>1496.2</ele>
        <time>2021-06-03T08:55:12Z</time>
      </trkpt>
      <trkpt lat="41.86281" lon="9.17079">
        <ele>1496.4</ele>
        <time>2021-06-03T08:55:13Z</time>
      </trkpt>
      <trkpt lat="41.86284" lon="9.1708">
        <ele>1496.4</ele>
        <time>2021-06-03T08:55:14Z</time>
      </trkpt>
      <trkpt lat="41.86286" lon="9.17081">
        <ele>1496.4</ele>
        <time>2021-06-03T08:55:15Z</time>
      </trkpt>
      <trkpt lat="41.86289" lon="9.17081">
        <ele>1497</ele>
        <time>2021-06-03T08:55:16Z</time>
      </trkpt>
      <trkpt lat="41.86291" lon="9.17083">
        <ele>1497.2</ele>
        <time>2021-06-03T08:55:17Z</time>
      </trkpt>
      <trkpt lat="41.86294" lon="9.17084">
        <ele>1497.2</ele>
        <time>2021-06-03T08:55:18Z</time>
      </trkpt>
      <trkpt lat="41.86297" lon="9.17085">
        <ele>1497.2</ele>
        <time>2021-06-03T08:55:19Z</time>
      </trkpt>
      <trkpt lat="41.863" lon="9.17086">
        <ele>1497.2</ele>
        <time>2021-06-03T08:55:20Z</time>
      </trkpt>
      <trkpt lat="41.86303" lon="9.17088">
        <ele>1496.8</ele>
        <time>2021-06-03T08:55:21Z</time>
      </trkpt>
      <trkpt lat="41.86306" lon="9.17089">
        <ele>1496.8</ele>
        <time>2021-06-03T08:55:22Z</time>
      </trkpt>
      <trkpt lat="41.86309" lon="9.17089">
        <ele>1496.8</ele>
        <time>2021-06-03T08:55:23Z</time>
      </trkpt>
      <trkpt lat="41.86312" lon="9.1709">
        <ele>1496.8</ele>
        <time>2021-06-03T08:55:24Z</time>
      </trkpt>
      <trkpt lat="41.86315" lon="9.17091">
        <ele>1495.2</ele>
        <time>2021-06-03T08:55:25Z</time>
      </trkpt>
      <trkpt lat="41.86318" lon="9.17091">
        <ele>1495.2</ele>
        <time>2021-06-03T08:55:26Z</time>
      </trkpt>
      <trkpt lat="41.8632" lon="9.17092">
        <ele>1495.2</ele>
        <time>2021-06-03T08:55:27Z</time>
      </trkpt>
      <trkpt lat="41.86322" lon="9.17092">
        <ele>1496</ele>
        <time>2021-06-03T08:55:28Z</time>
      </trkpt>
      <trkpt lat="41.86325" lon="9.17093">
        <ele>1496.2</ele>
        <time>2021-06-03T08:55:29Z</time>
      </trkpt>
      <trkpt lat="41.86328" lon="9.17093">
        <ele>1496.2</ele>
        <time>2021-06-03T08:55:30Z</time>
      </trkpt>
      <trkpt lat="41.8633" lon="9.17094">
        <ele>1496.2</ele>
        <time>2021-06-03T08:55:31Z</time>
      </trkpt>
      <trkpt lat="41.86332" lon="9.17095">
        <ele>1496.8</ele>
        <time>2021-06-03T08:55:32Z</time>
      </trkpt>
      <trkpt lat="41.86335" lon="9.17096">
        <ele>1497.4</ele>
        <time>2021-06-03T08:55:33Z</time>
      </trkpt>
      <trkpt lat="41.86337" lon="9.17096">
        <ele>1497.4</ele>
        <time>2021-06-03T08:55:34Z</time>
      </trkpt>
      <trkpt lat="41.8634" lon="9.17097">
        <ele>1497.4</ele>
        <time>2021-06-03T08:55:35Z</time>
      </trkpt>
      <trkpt lat="41.86342" lon="9.17097">
        <ele>1498</ele>
        <time>2021-06-03T08:55:36Z</time>
      </trkpt>
      <trkpt lat="41.86343" lon="9.17098">
        <ele>1498.4</ele>
        <time>2021-06-03T08:55:37Z</time>
      </trkpt>
      <trkpt lat="41.86345" lon="9.17098">
        <ele>1498.4</ele>
        <time>2021-06-03T08:55:38Z</time>
      </trkpt>
      <trkpt lat="41.86347" lon="9.17099">
        <ele>1498.4</ele>
        <time>2021-06-03T08:55:39Z</time>
      </trkpt>
      <trkpt lat="41.86348" lon="9.17099">
        <ele>1498.4</ele>
        <time>2021-06-03T08:55:40Z</time>
      </trkpt>
      <trkpt lat="41.8635" lon="9.171">
        <ele>1498.2</ele>
        <time>2021-06-03T08:55:41Z</time>
      </trkpt>
      <trkpt lat="41.86352" lon="9.17101">
        <ele>1498.2</ele>
        <time>2021-06-03T08:55:42Z</time>
      </trkpt>
      <trkpt lat="41.86353" lon="9.17102">
        <ele>1498.2</ele>
        <time>2021-06-03T08:55:43Z</time>
      </trkpt>
      <trkpt lat="41.86355" lon="9.17102">
        <ele>1498.2</ele>
        <time>2021-06-03T08:55:44Z</time>
      </trkpt>
      <trkpt lat="41.86356" lon="9.17103">
        <ele>1499</ele>
        <time>2021-06-03T08:55:45Z</time>
      </trkpt>
      <trkpt lat="41.86358" lon="9.17104">
        <ele>1499</ele>
        <time>2021-06-03T08:55:46Z</time>
      </trkpt>
      <trkpt lat="41.86359" lon="9.17105">
        <ele>1499</ele>
        <time>2021-06-03T08:55:47Z</time>
      </trkpt>
      <trkpt lat="41.86361" lon="9.17106">
        <ele>1499.4</ele>
        <time>2021-06-03T08:55:48Z</time>
      </trkpt>
      <trkpt lat="41.86362" lon="9.17107">
        <ele>1499.6</ele>
        <time>2021-06-03T08:55:49Z</time>
      </trkpt>
      <trkpt lat="41.86364" lon="9.17107">
        <ele>1499.6</ele>
        <time>2021-06-03T08:55:50Z</time>
      </trkpt>
      <trkpt lat="41.86365" lon="9.17108">
        <ele>1499.6</ele>
        <time>2021-06-03T08:55:51Z</time>
      </trkpt>
      <trkpt lat="41.86366" lon="9.17108">
        <ele>1499.6</ele>
        <time>2021-06-03T08:55:52Z</time>
      </trkpt>
      <trkpt lat="41.86368" lon="9.17109">
        <ele>1499.6</ele>
        <time>2021-06-03T08:55:53Z</time>
      </trkpt>
      <trkpt lat="41.86369" lon="9.17109">
        <ele>1499.6</ele>
        <time>2021-06-03T08:55:54Z</time>
      </trkpt>
      <trkpt lat="41.86371" lon="9.17109">
        <ele>1499.6</ele>
        <time>2021-06-03T08:55:55Z</time>
      </trkpt>
      <trkpt lat="41.86372" lon="9.1711">
        <ele>1499.6</ele>
        <time>2021-06-03T08:55:56Z</time>
      </trkpt>
      <trkpt lat="41.86374" lon="9.17111">
        <ele>1500.2</ele>
        <time>2021-06-03T08:55:57Z</time>
      </trkpt>
      <trkpt lat="41.86375" lon="9.17111">
        <ele>1500.2</ele>
        <time>2021-06-03T08:55:58Z</time>
      </trkpt>
      <trkpt lat="41.86377" lon="9.17111">
        <ele>1500.2</ele>
        <time>2021-06-03T08:55:59Z</time>
      </trkpt>
      <trkpt lat="41.86379" lon="9.17112">
        <ele>1500.8</ele>
        <time>2021-06-03T08:56:00Z</time>
      </trkpt>
      <trkpt lat="41.8638" lon="9.17112">
        <ele>1500.8</ele>
        <time>2021-06-03T08:56:01Z</time>
      </trkpt>
      <trkpt lat="41.86382" lon="9.17113">
        <ele>1500.8</ele>
        <time>2021-06-03T08:56:02Z</time>
      </trkpt>
      <trkpt lat="41.86383" lon="9.17113">
        <ele>1500.8</ele>
        <time>2021-06-03T08:56:03Z</time>
      </trkpt>
      <trkpt lat="41.86384" lon="9.17114">
        <ele>1500.8</ele>
        <time>2021-06-03T08:56:04Z</time>
      </trkpt>
      <trkpt lat="41.86386" lon="9.17114">
        <ele>1501</ele>
        <time>2021-06-03T08:56:05Z</time>
      </trkpt>
      <trkpt lat="41.86387" lon="9.17115">
        <ele>1501</ele>
        <time>2021-06-03T08:56:06Z</time>
      </trkpt>
      <trkpt lat="41.86389" lon="9.17115">
        <ele>1501</ele>
        <time>2021-06-03T08:56:07Z</time>
      </trkpt>
      <trkpt lat="41.8639" lon="9.17115">
        <ele>1501</ele>
        <time>2021-06-03T08:56:08Z</time>
      </trkpt>
      <trkpt lat="41.86392" lon="9.17116">
        <ele>1500.8</ele>
        <time>2021-06-03T08:56:09Z</time>
      </trkpt>
      <trkpt lat="41.86393" lon="9.17116">
        <ele>1500.8</ele>
        <time>2021-06-03T08:56:10Z</time>
      </trkpt>
      <trkpt lat="41.86394" lon="9.17117">
        <ele>1500.8</ele>
        <time>2021-06-03T08:56:11Z</time>
      </trkpt>
      <trkpt lat="41.86396" lon="9.17117">
        <ele>1501.2</ele>
        <time>2021-06-03T08:56:12Z</time>
      </trkpt>
      <trkpt lat="41.86397" lon="9.17117">
        <ele>1501.4</ele>
        <time>2021-06-03T08:56:13Z</time>
      </trkpt>
      <trkpt lat="41.86399" lon="9.17118">
        <ele>1501.4</ele>
        <time>2021-06-03T08:56:14Z</time>
      </trkpt>
      <trkpt lat="41.864" lon="9.17119">
        <ele>1501.4</ele>
        <time>2021-06-03T08:56:15Z</time>
      </trkpt>
      <trkpt lat="41.86401" lon="9.17119">
        <ele>1501.4</ele>
        <time>2021-06-03T08:56:16Z</time>
      </trkpt>
      <trkpt lat="41.86403" lon="9.1712">
        <ele>1501.4</ele>
        <time>2021-06-03T08:56:17Z</time>
      </trkpt>
      <trkpt lat="41.86404" lon="9.1712">
        <ele>1501.4</ele>
        <time>2021-06-03T08:56:18Z</time>
      </trkpt>
      <trkpt lat="41.86405" lon="9.17121">
        <ele>1501.4</ele>
        <time>2021-06-03T08:56:19Z</time>
      </trkpt>
      <trkpt lat="41.86407" lon="9.17122">
        <ele>1501.4</ele>
        <time>2021-06-03T08:56:20Z</time>
      </trkpt>
      <trkpt lat="41.86408" lon="9.17122">
        <ele>1502.4</ele>
        <time>2021-06-03T08:56:21Z</time>
      </trkpt>
      <trkpt lat="41.86409" lon="9.17123">
        <ele>1502.4</ele>
        <time>2021-06-03T08:56:22Z</time>
      </trkpt>
      <trkpt lat="41.86411" lon="9.17123">
        <ele>1502.4</ele>
        <time>2021-06-03T08:56:23Z</time>
      </trkpt>
      <trkpt lat="41.86412" lon="9.17124">
        <ele>1503</ele>
        <time>2021-06-03T08:56:24Z</time>
      </trkpt>
      <trkpt lat="41.86413" lon="9.17124">
        <ele>1502.4</ele>
        <time>2021-06-03T08:56:25Z</time>
      </trkpt>
      <trkpt lat="41.86415" lon="9.17125">
        <ele>1502.4</ele>
        <time>2021-06-03T08:56:26Z</time>
      </trkpt>
      <trkpt lat="41.86416" lon="9.17126">
        <ele>1502.4</ele>
        <time>2021-06-03T08:56:27Z</time>
      </trkpt>
      <trkpt lat="41.86417" lon="9.17127">
        <ele>1502.4</ele>
        <time>2021-06-03T08:56:28Z</time>
      </trkpt>
      <trkpt lat="41.86419" lon="9.17127">
        <ele>1503.4</ele>
        <time>2021-06-03T08:56:29Z</time>
      </trkpt>
      <trkpt lat="41.8642" lon="9.17128">
        <ele>1503.4</ele>
        <time>2021-06-03T08:56:30Z</time>
      </trkpt>
      <trkpt lat="41.86421" lon="9.1713">
        <ele>1503.4</ele>
        <time>2021-06-03T08:56:31Z</time>
      </trkpt>
      <trkpt lat="41.86422" lon="9.17131">
        <ele>1503.4</ele>
        <time>2021-06-03T08:56:32Z</time>
      </trkpt>
      <trkpt lat="41.86424" lon="9.17132">
        <ele>1503.4</ele>
        <time>2021-06-03T08:56:33Z</time>
      </trkpt>
      <trkpt lat="41.86425" lon="9.17134">
        <ele>1503.4</ele>
        <time>2021-06-03T08:56:34Z</time>
      </trkpt>
      <trkpt lat="41.86426" lon="9.17135">
        <ele>1503.4</ele>
        <time>2021-06-03T08:56:35Z</time>
      </trkpt>
      <trkpt lat="41.86427" lon="9.17136">
        <ele>1503.4</ele>
        <time>2021-06-03T08:56:36Z</time>
      </trkpt>
      <trkpt lat="41.86429" lon="9.17137">
        <ele>1504</ele>
        <time>2021-06-03T08:56:37Z</time>
      </trkpt>
      <trkpt lat="41.8643" lon="9.17138">
        <ele>1504</ele>
        <time>2021-06-03T08:56:38Z</time>
      </trkpt>
      <trkpt lat="41.86431" lon="9.17139">
        <ele>1504</ele>
        <time>2021-06-03T08:56:39Z</time>
      </trkpt>
      <trkpt lat="41.86433" lon="9.1714">
        <ele>1504.2</ele>
        <time>2021-06-03T08:56:40Z</time>
      </trkpt>
      <trkpt lat="41.86434" lon="9.17141">
        <ele>1504.4</ele>
        <time>2021-06-03T08:56:41Z</time>
      </trkpt>
      <trkpt lat="41.86435" lon="9.17142">
        <ele>1504.4</ele>
        <time>2021-06-03T08:56:42Z</time>
      </trkpt>
      <trkpt lat="41.86437" lon="9.17143">
        <ele>1504.4</ele>
        <time>2021-06-03T08:56:43Z</time>
      </trkpt>
      <trkpt lat="41.86438" lon="9.17144">
        <ele>1504.2</ele>
        <time>2021-06-03T08:56:44Z</time>
      </trkpt>
      <trkpt lat="41.86439" lon="9.17145">
        <ele>1504.2</ele>
        <time>2021-06-03T08:56:45Z</time>
      </trkpt>
      <trkpt lat="41.86441" lon="9.17145">
        <ele>1504.2</ele>
        <time>2021-06-03T08:56:46Z</time>
      </trkpt>
      <trkpt lat="41.86442" lon="9.17146">
        <ele>1504.2</ele>
        <time>2021-06-03T08:56:47Z</time>
      </trkpt>
      <trkpt lat="41.86444" lon="9.17147">
        <ele>1504.6</ele>
        <time>2021-06-03T08:56:48Z</time>
      </trkpt>
      <trkpt lat="41.86445" lon="9.17148">
        <ele>1504.8</ele>
        <time>2021-06-03T08:56:49Z</time>
      </trkpt>
      <trkpt lat="41.86446" lon="9.17149">
        <ele>1504.8</ele>
        <time>2021-06-03T08:56:50Z</time>
      </trkpt>
      <trkpt lat="41.86448" lon="9.1715">
        <ele>1504.8</ele>
        <time>2021-06-03T08:56:51Z</time>
      </trkpt>
      <trkpt lat="41.86449" lon="9.17151">
        <ele>1505</ele>
        <time>2021-06-03T08:56:52Z</time>
      </trkpt>
      <trkpt lat="41.8645" lon="9.17152">
        <ele>1505.4</ele>
        <time>2021-06-03T08:56:53Z</time>
      </trkpt>
      <trkpt lat="41.86452" lon="9.17153">
        <ele>1505.4</ele>
        <time>2021-06-03T08:56:54Z</time>
      </trkpt>
      <trkpt lat="41.86453" lon="9.17154">
        <ele>1505.4</ele>
        <time>2021-06-03T08:56:55Z</time>
      </trkpt>
      <trkpt lat="41.86454" lon="9.17155">
        <ele>1505.4</ele>
        <time>2021-06-03T08:56:56Z</time>
      </trkpt>
      <trkpt lat="41.86456" lon="9.17156">
        <ele>1505.6</ele>
        <time>2021-06-03T08:56:57Z</time>
      </trkpt>
      <trkpt lat="41.86457" lon="9.17157">
        <ele>1505.6</ele>
        <time>2021-06-03T08:56:58Z</time>
      </trkpt>
      <trkpt lat="41.86458" lon="9.17158">
        <ele>1505.6</ele>
        <time>2021-06-03T08:56:59Z</time>
      </trkpt>
      <trkpt lat="41.8646" lon="9.17159">
        <ele>1505.6</ele>
        <time>2021-06-03T08:57:00Z</time>
      </trkpt>
      <trkpt lat="41.86461" lon="9.1716">
        <ele>1506</ele>
        <time>2021-06-03T08:57:01Z</time>
      </trkpt>
      <trkpt lat="41.86462" lon="9.17161">
        <ele>1506</ele>
        <time>2021-06-03T08:57:02Z</time>
      </trkpt>
      <trkpt lat="41.86464" lon="9.17161">
        <ele>1506</ele>
        <time>2021-06-03T08:57:03Z</time>
      </trkpt>
      <trkpt lat="41.86466" lon="9.17162">
        <ele>1506</ele>
        <time>2021-06-03T08:57:04Z</time>
      </trkpt>
      <trkpt lat="41.86467" lon="9.17163">
        <ele>1506.2</ele>
        <time>2021-06-03T08:57:05Z</time>
      </trkpt>
      <trkpt lat="41.86469" lon="9.17164">
        <ele>1506.2</ele>
        <time>2021-06-03T08:57:06Z</time>
      </trkpt>
      <trkpt lat="41.8647" lon="9.17165">
        <ele>1506.2</ele>
        <time>2021-06-03T08:57:07Z</time>
      </trkpt>
      <trkpt lat="41.86471" lon="9.17166">
        <ele>1506.2</ele>
        <time>2021-06-03T08:57:08Z</time>
      </trkpt>
      <trkpt lat="41.86472" lon="9.17167">
        <ele>1507.2</ele>
        <time>2021-06-03T08:57:09Z</time>
      </trkpt>
      <trkpt lat="41.86474" lon="9.17168">
        <ele>1507.2</ele>
        <time>2021-06-03T08:57:10Z</time>
      </trkpt>
      <trkpt lat="41.86475" lon="9.17169">
        <ele>1507.2</ele>
        <time>2021-06-03T08:57:11Z</time>
      </trkpt>
      <trkpt lat="41.86477" lon="9.1717">
        <ele>1507</ele>
        <time>2021-06-03T08:57:12Z</time>
      </trkpt>
      <trkpt lat="41.86478" lon="9.17171">
        <ele>1507</ele>
        <time>2021-06-03T08:57:13Z</time>
      </trkpt>
      <trkpt lat="41.8648" lon="9.17172">
        <ele>1507</ele>
        <time>2021-06-03T08:57:14Z</time>
      </trkpt>
      <trkpt lat="41.86481" lon="9.17173">
        <ele>1507</ele>
        <time>2021-06-03T08:57:15Z</time>
      </trkpt>
      <trkpt lat="41.86483" lon="9.17174">
        <ele>1507.4</ele>
        <time>2021-06-03T08:57:16Z</time>
      </trkpt>
      <trkpt lat="41.86484" lon="9.17174">
        <ele>1507.6</ele>
        <time>2021-06-03T08:57:17Z</time>
      </trkpt>
      <trkpt lat="41.86486" lon="9.17175">
        <ele>1507.6</ele>
        <time>2021-06-03T08:57:18Z</time>
      </trkpt>
      <trkpt lat="41.86487" lon="9.17176">
        <ele>1507.6</ele>
        <time>2021-06-03T08:57:19Z</time>
      </trkpt>
      <trkpt lat="41.86489" lon="9.17178">
        <ele>1507.6</ele>
        <time>2021-06-03T08:57:20Z</time>
      </trkpt>
      <trkpt lat="41.8649" lon="9.17179">
        <ele>1506.6</ele>
        <time>2021-06-03T08:57:21Z</time>
      </trkpt>
      <trkpt lat="41.86492" lon="9.1718">
        <ele>1506.6</ele>
        <time>2021-06-03T08:57:22Z</time>
      </trkpt>
      <trkpt lat="41.86493" lon="9.17181">
        <ele>1506.6</ele>
        <time>2021-06-03T08:57:23Z</time>
      </trkpt>
      <trkpt lat="41.86495" lon="9.17182">
        <ele>1506.6</ele>
        <time>2021-06-03T08:57:24Z</time>
      </trkpt>
      <trkpt lat="41.86496" lon="9.17183">
        <ele>1507</ele>
        <time>2021-06-03T08:57:25Z</time>
      </trkpt>
      <trkpt lat="41.86498" lon="9.17184">
        <ele>1507</ele>
        <time>2021-06-03T08:57:26Z</time>
      </trkpt>
      <trkpt lat="41.865" lon="9.17185">
        <ele>1507</ele>
        <time>2021-06-03T08:57:27Z</time>
      </trkpt>
      <trkpt lat="41.86502" lon="9.17186">
        <ele>1506.6</ele>
        <time>2021-06-03T08:57:28Z</time>
      </trkpt>
      <trkpt lat="41.86504" lon="9.17187">
        <ele>1506.4</ele>
        <time>2021-06-03T08:57:29Z</time>
      </trkpt>
      <trkpt lat="41.86506" lon="9.17188">
        <ele>1506.4</ele>
        <time>2021-06-03T08:57:30Z</time>
      </trkpt>
      <trkpt lat="41.86508" lon="9.1719">
        <ele>1506.4</ele>
        <time>2021-06-03T08:57:31Z</time>
      </trkpt>
      <trkpt lat="41.86511" lon="9.17191">
        <ele>1506.4</ele>
        <time>2021-06-03T08:57:32Z</time>
      </trkpt>
      <trkpt lat="41.86514" lon="9.17193">
        <ele>1505.2</ele>
        <time>2021-06-03T08:57:33Z</time>
      </trkpt>
      <trkpt lat="41.86517" lon="9.17196">
        <ele>1505.2</ele>
        <time>2021-06-03T08:57:34Z</time>
      </trkpt>
      <trkpt lat="41.8652" lon="9.17198">
        <ele>1505.2</ele>
        <time>2021-06-03T08:57:35Z</time>
      </trkpt>
      <trkpt lat="41.86524" lon="9.17201">
        <ele>1504.2</ele>
        <time>2021-06-03T08:57:36Z</time>
      </trkpt>
      <trkpt lat="41.86528" lon="9.17204">
        <ele>1503.8</ele>
        <time>2021-06-03T08:57:37Z</time>
      </trkpt>
      <trkpt lat="41.86532" lon="9.17207">
        <ele>1503.8</ele>
        <time>2021-06-03T08:57:38Z</time>
      </trkpt>
      <trkpt lat="41.86536" lon="9.17211">
        <ele>1503.8</ele>
        <time>2021-06-03T08:57:39Z</time>
      </trkpt>
      <trkpt lat="41.8654" lon="9.17214">
        <ele>1503.4</ele>
        <time>2021-06-03T08:57:40Z</time>
      </trkpt>
      <trkpt lat="41.86544" lon="9.17218">
        <ele>1502.4</ele>
        <time>2021-06-03T08:57:41Z</time>
      </trkpt>
      <trkpt lat="41.86549" lon="9.17222">
        <ele>1502.4</ele>
        <time>2021-06-03T08:57:42Z</time>
      </trkpt>
      <trkpt lat="41.86553" lon="9.17225">
        <ele>1502.4</ele>
        <time>2021-06-03T08:57:43Z</time>
      </trkpt>
      <trkpt lat="41.86557" lon="9.17227">
        <ele>1502.4</ele>
        <time>2021-06-03T08:57:44Z</time>
      </trkpt>
      <trkpt lat="41.8656" lon="9.17229">
        <ele>1502.6</ele>
        <time>2021-06-03T08:57:45Z</time>
      </trkpt>
      <trkpt lat="41.86564" lon="9.1723">
        <ele>1502.6</ele>
        <time>2021-06-03T08:57:46Z</time>
      </trkpt>
      <trkpt lat="41.86568" lon="9.17231">
        <ele>1502.6</ele>
        <time>2021-06-03T08:57:47Z</time>
      </trkpt>
      <trkpt lat="41.86571" lon="9.17231">
        <ele>1502.6</ele>
        <time>2021-06-03T08:57:48Z</time>
      </trkpt>
      <trkpt lat="41.86575" lon="9.1723">
        <ele>1501.4</ele>
        <time>2021-06-03T08:57:49Z</time>
      </trkpt>
      <trkpt lat="41.86578" lon="9.17228">
        <ele>1501.4</ele>
        <time>2021-06-03T08:57:50Z</time>
      </trkpt>
      <trkpt lat="41.86581" lon="9.17225">
        <ele>1501.4</ele>
        <time>2021-06-03T08:57:51Z</time>
      </trkpt>
      <trkpt lat="41.86584" lon="9.17221">
        <ele>1501.4</ele>
        <time>2021-06-03T08:57:52Z</time>
      </trkpt>
      <trkpt lat="41.86585" lon="9.17216">
        <ele>1502.2</ele>
        <time>2021-06-03T08:57:53Z</time>
      </trkpt>
      <trkpt lat="41.86585" lon="9.17211">
        <ele>1502.2</ele>
        <time>2021-06-03T08:57:54Z</time>
      </trkpt>
      <trkpt lat="41.86585" lon="9.17207">
        <ele>1502.2</ele>
        <time>2021-06-03T08:57:55Z</time>
      </trkpt>
      <trkpt lat="41.86586" lon="9.17202">
        <ele>1502.2</ele>
        <time>2021-06-03T08:57:56Z</time>
      </trkpt>
      <trkpt lat="41.86586" lon="9.17198">
        <ele>1501.4</ele>
        <time>2021-06-03T08:57:57Z</time>
      </trkpt>
      <trkpt lat="41.86586" lon="9.17193">
        <ele>1501.4</ele>
        <time>2021-06-03T08:57:58Z</time>
      </trkpt>
      <trkpt lat="41.86586" lon="9.17189">
        <ele>1501.4</ele>
        <time>2021-06-03T08:57:59Z</time>
      </trkpt>
      <trkpt lat="41.86586" lon="9.17184">
        <ele>1501.4</ele>
        <time>2021-06-03T08:58:00Z</time>
      </trkpt>
      <trkpt lat="41.86587" lon="9.17179">
        <ele>1500.2</ele>
        <time>2021-06-03T08:58:01Z</time>
      </trkpt>
      <trkpt lat="41.86587" lon="9.17173">
        <ele>1500.2</ele>
        <time>2021-06-03T08:58:02Z</time>
      </trkpt>
      <trkpt lat="41.86588" lon="9.17168">
        <ele>1500.2</ele>
        <time>2021-06-03T08:58:03Z</time>
      </trkpt>
      <trkpt lat="41.86589" lon="9.17161">
        <ele>1499.2</ele>
        <time>2021-06-03T08:58:04Z</time>
      </trkpt>
      <trkpt lat="41.8659" lon="9.17155">
        <ele>1497.6</ele>
        <time>2021-06-03T08:58:05Z</time>
      </trkpt>
      <trkpt lat="41.86591" lon="9.17148">
        <ele>1497.6</ele>
        <time>2021-06-03T08:58:06Z</time>
      </trkpt>
      <trkpt lat="41.86592" lon="9.17141">
        <ele>1497.6</ele>
        <time>2021-06-03T08:58:07Z</time>
      </trkpt>
      <trkpt lat="41.86593" lon="9.17135">
        <ele>1497.6</ele>
        <time>2021-06-03T08:58:08Z</time>
      </trkpt>
      <trkpt lat="41.86594" lon="9.17128">
        <ele>1496.4</ele>
        <time>2021-06-03T08:58:09Z</time>
      </trkpt>
      <trkpt lat="41.86596" lon="9.17121">
        <ele>1496.4</ele>
        <time>2021-06-03T08:58:10Z</time>
      </trkpt>
      <trkpt lat="41.86597" lon="9.17113">
        <ele>1496.4</ele>
        <time>2021-06-03T08:58:11Z</time>
      </trkpt>
      <trkpt lat="41.86599" lon="9.17105">
        <ele>1495.4</ele>
        <time>2021-06-03T08:58:12Z</time>
      </trkpt>
      <trkpt lat="41.866" lon="9.17098">
        <ele>1494.4</ele>
        <time>2021-06-03T08:58:13Z</time>
      </trkpt>
      <trkpt lat="41.86602" lon="9.17092">
        <ele>1494.4</ele>
        <time>2021-06-03T08:58:14Z</time>
      </trkpt>
      <trkpt lat="41.86603" lon="9.17085">
        <ele>1494.4</ele>
        <time>2021-06-03T08:58:15Z</time>
      </trkpt>
      <trkpt lat="41.86605" lon="9.17079">
        <ele>1494.4</ele>
        <time>2021-06-03T08:58:16Z</time>
      </trkpt>
      <trkpt lat="41.86607" lon="9.17073">
        <ele>1494.2</ele>
        <time>2021-06-03T08:58:17Z</time>
      </trkpt>
      <trkpt lat="41.86608" lon="9.17067">
        <ele>1494.2</ele>
        <time>2021-06-03T08:58:18Z</time>
      </trkpt>
      <trkpt lat="41.8661" lon="9.1706">
        <ele>1494.2</ele>
        <time>2021-06-03T08:58:19Z</time>
      </trkpt>
      <trkpt lat="41.8661" lon="9.17053">
        <ele>1493.4</ele>
        <time>2021-06-03T08:58:20Z</time>
      </trkpt>
      <trkpt lat="41.86611" lon="9.17046">
        <ele>1493.6</ele>
        <time>2021-06-03T08:58:21Z</time>
      </trkpt>
      <trkpt lat="41.8661" lon="9.1704">
        <ele>1493.6</ele>
        <time>2021-06-03T08:58:22Z</time>
      </trkpt>
      <trkpt lat="41.86609" lon="9.17034">
        <ele>1493.6</ele>
        <time>2021-06-03T08:58:23Z</time>
      </trkpt>
      <trkpt lat="41.86607" lon="9.17029">
        <ele>1493.6</ele>
        <time>2021-06-03T08:58:24Z</time>
      </trkpt>
      <trkpt lat="41.86605" lon="9.17024">
        <ele>1493.2</ele>
        <time>2021-06-03T08:58:25Z</time>
      </trkpt>
      <trkpt lat="41.86602" lon="9.1702">
        <ele>1493.2</ele>
        <time>2021-06-03T08:58:26Z</time>
      </trkpt>
      <trkpt lat="41.86599" lon="9.17015">
        <ele>1493.2</ele>
        <time>2021-06-03T08:58:27Z</time>
      </trkpt>
      <trkpt lat="41.86595" lon="9.17009">
        <ele>1492.2</ele>
        <time>2021-06-03T08:58:28Z</time>
      </trkpt>
      <trkpt lat="41.86592" lon="9.17004">
        <ele>1490</ele>
        <time>2021-06-03T08:58:29Z</time>
      </trkpt>
      <trkpt lat="41.86587" lon="9.16999">
        <ele>1490</ele>
        <time>2021-06-03T08:58:30Z</time>
      </trkpt>
      <trkpt lat="41.86582" lon="9.16994">
        <ele>1490</ele>
        <time>2021-06-03T08:58:31Z</time>
      </trkpt>
      <trkpt lat="41.86577" lon="9.1699">
        <ele>1490</ele>
        <time>2021-06-03T08:58:32Z</time>
      </trkpt>
      <trkpt lat="41.86572" lon="9.16986">
        <ele>1488.8</ele>
        <time>2021-06-03T08:58:33Z</time>
      </trkpt>
      <trkpt lat="41.86568" lon="9.16981">
        <ele>1488.8</ele>
        <time>2021-06-03T08:58:34Z</time>
      </trkpt>
      <trkpt lat="41.86563" lon="9.16977">
        <ele>1488.8</ele>
        <time>2021-06-03T08:58:35Z</time>
      </trkpt>
      <trkpt lat="41.86558" lon="9.16972">
        <ele>1487.8</ele>
        <time>2021-06-03T08:58:36Z</time>
      </trkpt>
      <trkpt lat="41.86553" lon="9.16967">
        <ele>1487.2</ele>
        <time>2021-06-03T08:58:37Z</time>
      </trkpt>
      <trkpt lat="41.86549" lon="9.16961">
        <ele>1487.2</ele>
        <time>2021-06-03T08:58:38Z</time>
      </trkpt>
      <trkpt lat="41.86545" lon="9.16956">
        <ele>1487.2</ele>
        <time>2021-06-03T08:58:39Z</time>
      </trkpt>
      <trkpt lat="41.86541" lon="9.1695">
        <ele>1486.2</ele>
        <time>2021-06-03T08:58:40Z</time>
      </trkpt>
      <trkpt lat="41.86537" lon="9.16944">
        <ele>1485.4</ele>
        <time>2021-06-03T08:58:41Z</time>
      </trkpt>
      <trkpt lat="41.86534" lon="9.16936">
        <ele>1485.4</ele>
        <time>2021-06-03T08:58:42Z</time>
      </trkpt>
      <trkpt lat="41.86532" lon="9.16931">
        <ele>1485.4</ele>
        <time>2021-06-03T08:58:43Z</time>
      </trkpt>
      <trkpt lat="41.8653" lon="9.16925">
        <ele>1485.4</ele>
        <time>2021-06-03T08:58:44Z</time>
      </trkpt>
      <trkpt lat="41.86529" lon="9.16918">
        <ele>1484.2</ele>
        <time>2021-06-03T08:58:45Z</time>
      </trkpt>
      <trkpt lat="41.86529" lon="9.16911">
        <ele>1484.2</ele>
        <time>2021-06-03T08:58:46Z</time>
      </trkpt>
      <trkpt lat="41.86529" lon="9.16904">
        <ele>1484.2</ele>
        <time>2021-06-03T08:58:47Z</time>
      </trkpt>
      <trkpt lat="41.8653" lon="9.16896">
        <ele>1483.2</ele>
        <time>2021-06-03T08:58:48Z</time>
      </trkpt>
      <trkpt lat="41.86533" lon="9.16888">
        <ele>1481.2</ele>
        <time>2021-06-03T08:58:49Z</time>
      </trkpt>
      <trkpt lat="41.86535" lon="9.16881">
        <ele>1481.2</ele>
        <time>2021-06-03T08:58:50Z</time>
      </trkpt>
      <trkpt lat="41.86537" lon="9.16874">
        <ele>1481.2</ele>
        <time>2021-06-03T08:58:51Z</time>
      </trkpt>
      <trkpt lat="41.86539" lon="9.16868">
        <ele>1481.2</ele>
        <time>2021-06-03T08:58:52Z</time>
      </trkpt>
      <trkpt lat="41.8654" lon="9.16863">
        <ele>1481.2</ele>
        <time>2021-06-03T08:58:53Z</time>
      </trkpt>
      <trkpt lat="41.86541" lon="9.16857">
        <ele>1481.2</ele>
        <time>2021-06-03T08:58:54Z</time>
      </trkpt>
      <trkpt lat="41.86542" lon="9.16853">
        <ele>1481.2</ele>
        <time>2021-06-03T08:58:55Z</time>
      </trkpt>
      <trkpt lat="41.86543" lon="9.16848">
        <ele>1481.2</ele>
        <time>2021-06-03T08:58:56Z</time>
      </trkpt>
      <trkpt lat="41.86545" lon="9.16844">
        <ele>1480.2</ele>
        <time>2021-06-03T08:58:57Z</time>
      </trkpt>
      <trkpt lat="41.86547" lon="9.16839">
        <ele>1480.2</ele>
        <time>2021-06-03T08:58:58Z</time>
      </trkpt>
      <trkpt lat="41.86549" lon="9.16833">
        <ele>1480.2</ele>
        <time>2021-06-03T08:58:59Z</time>
      </trkpt>
      <trkpt lat="41.86552" lon="9.16827">
        <ele>1479.2</ele>
        <time>2021-06-03T08:59:00Z</time>
      </trkpt>
      <trkpt lat="41.86555" lon="9.1682">
        <ele>1476.8</ele>
        <time>2021-06-03T08:59:01Z</time>
      </trkpt>
      <trkpt lat="41.86557" lon="9.16813">
        <ele>1476.8</ele>
        <time>2021-06-03T08:59:02Z</time>
      </trkpt>
      <trkpt lat="41.86559" lon="9.16808">
        <ele>1476.8</ele>
        <time>2021-06-03T08:59:03Z</time>
      </trkpt>
      <trkpt lat="41.86561" lon="9.16802">
        <ele>1475.8</ele>
        <time>2021-06-03T08:59:04Z</time>
      </trkpt>
      <trkpt lat="41.86564" lon="9.16796">
        <ele>1474.6</ele>
        <time>2021-06-03T08:59:05Z</time>
      </trkpt>
      <trkpt lat="41.86566" lon="9.16791">
        <ele>1474.6</ele>
        <time>2021-06-03T08:59:06Z</time>
      </trkpt>
      <trkpt lat="41.86568" lon="9.16786">
        <ele>1474.6</ele>
        <time>2021-06-03T08:59:07Z</time>
      </trkpt>
      <trkpt lat="41.86569" lon="9.16782">
        <ele>1475.2</ele>
        <time>2021-06-03T08:59:08Z</time>
      </trkpt>
      <trkpt lat="41.8657" lon="9.16778">
        <ele>1474.4</ele>
        <time>2021-06-03T08:59:09Z</time>
      </trkpt>
      <trkpt lat="41.86571" lon="9.16775">
        <ele>1474.4</ele>
        <time>2021-06-03T08:59:10Z</time>
      </trkpt>
      <trkpt lat="41.86572" lon="9.16771">
        <ele>1474.4</ele>
        <time>2021-06-03T08:59:11Z</time>
      </trkpt>
      <trkpt lat="41.86571" lon="9.16768">
        <ele>1474.4</ele>
        <time>2021-06-03T08:59:12Z</time>
      </trkpt>
      <trkpt lat="41.8657" lon="9.16764">
        <ele>1473</ele>
        <time>2021-06-03T08:59:13Z</time>
      </trkpt>
      <trkpt lat="41.8657" lon="9.1676">
        <ele>1473</ele>
        <time>2021-06-03T08:59:14Z</time>
      </trkpt>
      <trkpt lat="41.86568" lon="9.16756">
        <ele>1473</ele>
        <time>2021-06-03T08:59:15Z</time>
      </trkpt>
      <trkpt lat="41.86567" lon="9.16752">
        <ele>1473.2</ele>
        <time>2021-06-03T08:59:16Z</time>
      </trkpt>
      <trkpt lat="41.86565" lon="9.16747">
        <ele>1472.4</ele>
        <time>2021-06-03T08:59:17Z</time>
      </trkpt>
      <trkpt lat="41.86564" lon="9.16741">
        <ele>1472.4</ele>
        <time>2021-06-03T08:59:18Z</time>
      </trkpt>
      <trkpt lat="41.86561" lon="9.16735">
        <ele>1472.4</ele>
        <time>2021-06-03T08:59:19Z</time>
      </trkpt>
      <trkpt lat="41.86559" lon="9.16728">
        <ele>1471.4</ele>
        <time>2021-06-03T08:59:20Z</time>
      </trkpt>
      <trkpt lat="41.86557" lon="9.16722">
        <ele>1470.2</ele>
        <time>2021-06-03T08:59:21Z</time>
      </trkpt>
      <trkpt lat="41.86555" lon="9.16715">
        <ele>1470.2</ele>
        <time>2021-06-03T08:59:22Z</time>
      </trkpt>
      <trkpt lat="41.86554" lon="9.1671">
        <ele>1470.2</ele>
        <time>2021-06-03T08:59:23Z</time>
      </trkpt>
      <trkpt lat="41.86553" lon="9.16704">
        <ele>1469.2</ele>
        <time>2021-06-03T08:59:24Z</time>
      </trkpt>
      <trkpt lat="41.86551" lon="9.16698">
        <ele>1468.4</ele>
        <time>2021-06-03T08:59:25Z</time>
      </trkpt>
      <trkpt lat="41.8655" lon="9.16692">
        <ele>1468.4</ele>
        <time>2021-06-03T08:59:26Z</time>
      </trkpt>
      <trkpt lat="41.86548" lon="9.16687">
        <ele>1468.4</ele>
        <time>2021-06-03T08:59:27Z</time>
      </trkpt>
      <trkpt lat="41.86546" lon="9.16682">
        <ele>1467.8</ele>
        <time>2021-06-03T08:59:28Z</time>
      </trkpt>
      <trkpt lat="41.86543" lon="9.16677">
        <ele>1467.2</ele>
        <time>2021-06-03T08:59:29Z</time>
      </trkpt>
      <trkpt lat="41.86538" lon="9.16672">
        <ele>1467.2</ele>
        <time>2021-06-03T08:59:30Z</time>
      </trkpt>
      <trkpt lat="41.86534" lon="9.16666">
        <ele>1467.2</ele>
        <time>2021-06-03T08:59:31Z</time>
      </trkpt>
      <trkpt lat="41.86529" lon="9.16662">
        <ele>1466.2</ele>
        <time>2021-06-03T08:59:32Z</time>
      </trkpt>
      <trkpt lat="41.86526" lon="9.16658">
        <ele>1465.6</ele>
        <time>2021-06-03T08:59:33Z</time>
      </trkpt>
      <trkpt lat="41.86522" lon="9.16654">
        <ele>1465.6</ele>
        <time>2021-06-03T08:59:34Z</time>
      </trkpt>
      <trkpt lat="41.86518" lon="9.16649">
        <ele>1465.6</ele>
        <time>2021-06-03T08:59:35Z</time>
      </trkpt>
      <trkpt lat="41.86514" lon="9.16645">
        <ele>1464.6</ele>
        <time>2021-06-03T08:59:36Z</time>
      </trkpt>
      <trkpt lat="41.8651" lon="9.16642">
        <ele>1462</ele>
        <time>2021-06-03T08:59:37Z</time>
      </trkpt>
      <trkpt lat="41.86506" lon="9.16637">
        <ele>1462</ele>
        <time>2021-06-03T08:59:38Z</time>
      </trkpt>
      <trkpt lat="41.86502" lon="9.16633">
        <ele>1462</ele>
        <time>2021-06-03T08:59:39Z</time>
      </trkpt>
      <trkpt lat="41.86498" lon="9.16627">
        <ele>1462</ele>
        <time>2021-06-03T08:59:40Z</time>
      </trkpt>
      <trkpt lat="41.86496" lon="9.16621">
        <ele>1460.6</ele>
        <time>2021-06-03T08:59:41Z</time>
      </trkpt>
      <trkpt lat="41.86493" lon="9.16615">
        <ele>1460.6</ele>
        <time>2021-06-03T08:59:42Z</time>
      </trkpt>
      <trkpt lat="41.86492" lon="9.1661">
        <ele>1460.6</ele>
        <time>2021-06-03T08:59:43Z</time>
      </trkpt>
      <trkpt lat="41.86491" lon="9.16606">
        <ele>1460.4</ele>
        <time>2021-06-03T08:59:44Z</time>
      </trkpt>
      <trkpt lat="41.86489" lon="9.16601">
        <ele>1459.6</ele>
        <time>2021-06-03T08:59:45Z</time>
      </trkpt>
      <trkpt lat="41.86488" lon="9.16596">
        <ele>1459.6</ele>
        <time>2021-06-03T08:59:46Z</time>
      </trkpt>
      <trkpt lat="41.86487" lon="9.1659">
        <ele>1459.6</ele>
        <time>2021-06-03T08:59:47Z</time>
      </trkpt>
      <trkpt lat="41.86488" lon="9.16583">
        <ele>1458.6</ele>
        <time>2021-06-03T08:59:48Z</time>
      </trkpt>
      <trkpt lat="41.86489" lon="9.16576">
        <ele>1456.6</ele>
        <time>2021-06-03T08:59:49Z</time>
      </trkpt>
      <trkpt lat="41.86491" lon="9.1657">
        <ele>1456.6</ele>
        <time>2021-06-03T08:59:50Z</time>
      </trkpt>
      <trkpt lat="41.86493" lon="9.16564">
        <ele>1456.6</ele>
        <time>2021-06-03T08:59:51Z</time>
      </trkpt>
      <trkpt lat="41.86497" lon="9.16558">
        <ele>1456.6</ele>
        <time>2021-06-03T08:59:52Z</time>
      </trkpt>
      <trkpt lat="41.865" lon="9.16552">
        <ele>1455.2</ele>
        <time>2021-06-03T08:59:53Z</time>
      </trkpt>
      <trkpt lat="41.86503" lon="9.16547">
        <ele>1455.2</ele>
        <time>2021-06-03T08:59:54Z</time>
      </trkpt>
      <trkpt lat="41.86505" lon="9.16542">
        <ele>1455.2</ele>
        <time>2021-06-03T08:59:55Z</time>
      </trkpt>
      <trkpt lat="41.86506" lon="9.16537">
        <ele>1454.2</ele>
        <time>2021-06-03T08:59:56Z</time>
      </trkpt>
      <trkpt lat="41.86506" lon="9.1653">
        <ele>1454.4</ele>
        <time>2021-06-03T08:59:57Z</time>
      </trkpt>
      <trkpt lat="41.86505" lon="9.16524">
        <ele>1454.4</ele>
        <time>2021-06-03T08:59:58Z</time>
      </trkpt>
      <trkpt lat="41.86503" lon="9.16517">
        <ele>1454.4</ele>
        <time>2021-06-03T08:59:59Z</time>
      </trkpt>
      <trkpt lat="41.86502" lon="9.1651">
        <ele>1453.4</ele>
        <time>2021-06-03T09:00:00Z</time>
      </trkpt>
      <trkpt lat="41.865" lon="9.16503">
        <ele>1452.6</ele>
        <time>2021-06-03T09:00:01Z</time>
      </trkpt>
      <trkpt lat="41.86497" lon="9.16497">
        <ele>1452.6</ele>
        <time>2021-06-03T09:00:02Z</time>
      </trkpt>
      <trkpt lat="41.86495" lon="9.16491">
        <ele>1452.6</ele>
        <time>2021-06-03T09:00:03Z</time>
      </trkpt>
      <trkpt lat="41.86492" lon="9.16486">
        <ele>1453</ele>
        <time>2021-06-03T09:00:04Z</time>
      </trkpt>
      <trkpt lat="41.86489" lon="9.16482">
        <ele>1453.6</ele>
        <time>2021-06-03T09:00:05Z</time>
      </trkpt>
      <trkpt lat="41.86487" lon="9.16479">
        <ele>1453.6</ele>
        <time>2021-06-03T09:00:06Z</time>
      </trkpt>
      <trkpt lat="41.86484" lon="9.16477">
        <ele>1453.6</ele>
        <time>2021-06-03T09:00:07Z</time>
      </trkpt>
      <trkpt lat="41.8648" lon="9.16475">
        <ele>1453.6</ele>
        <time>2021-06-03T09:00:08Z</time>
      </trkpt>
      <trkpt lat="41.86477" lon="9.16473">
        <ele>1453.8</ele>
        <time>2021-06-03T09:00:09Z</time>
      </trkpt>
      <trkpt lat="41.86474" lon="9.16472">
        <ele>1453.8</ele>
        <time>2021-06-03T09:00:10Z</time>
      </trkpt>
      <trkpt lat="41.8647" lon="9.1647">
        <ele>1453.8</ele>
        <time>2021-06-03T09:00:11Z</time>
      </trkpt>
      <trkpt lat="41.86467" lon="9.16468">
        <ele>1453.8</ele>
        <time>2021-06-03T09:00:12Z</time>
      </trkpt>
      <trkpt lat="41.86464" lon="9.16466">
        <ele>1453.6</ele>
        <time>2021-06-03T09:00:13Z</time>
      </trkpt>
      <trkpt lat="41.86461" lon="9.16463">
        <ele>1453.6</ele>
        <time>2021-06-03T09:00:14Z</time>
      </trkpt>
      <trkpt lat="41.86458" lon="9.1646">
        <ele>1453.6</ele>
        <time>2021-06-03T09:00:15Z</time>
      </trkpt>
      <trkpt lat="41.86455" lon="9.16458">
        <ele>1453.6</ele>
        <time>2021-06-03T09:00:16Z</time>
      </trkpt>
      <trkpt lat="41.86451" lon="9.16456">
        <ele>1453.2</ele>
        <time>2021-06-03T09:00:17Z</time>
      </trkpt>
      <trkpt lat="41.86448" lon="9.16453">
        <ele>1453.2</ele>
        <time>2021-06-03T09:00:18Z</time>
      </trkpt>
      <trkpt lat="41.86444" lon="9.16451">
        <ele>1453.2</ele>
        <time>2021-06-03T09:00:19Z</time>
      </trkpt>
      <trkpt lat="41.86441" lon="9.16448">
        <ele>1453.4</ele>
        <time>2021-06-03T09:00:20Z</time>
      </trkpt>
      <trkpt lat="41.86437" lon="9.16446">
        <ele>1453</ele>
        <time>2021-06-03T09:00:21Z</time>
      </trkpt>
      <trkpt lat="41.86434" lon="9.16443">
        <ele>1453</ele>
        <time>2021-06-03T09:00:22Z</time>
      </trkpt>
      <trkpt lat="41.8643" lon="9.16439">
        <ele>1453</ele>
        <time>2021-06-03T09:00:23Z</time>
      </trkpt>
      <trkpt lat="41.86427" lon="9.16435">
        <ele>1453</ele>
        <time>2021-06-03T09:00:24Z</time>
      </trkpt>
      <trkpt lat="41.86423" lon="9.16431">
        <ele>1452.8</ele>
        <time>2021-06-03T09:00:25Z</time>
      </trkpt>
      <trkpt lat="41.86419" lon="9.16427">
        <ele>1452.8</ele>
        <time>2021-06-03T09:00:26Z</time>
      </trkpt>
      <trkpt lat="41.86415" lon="9.16424">
        <ele>1452.8</ele>
        <time>2021-06-03T09:00:27Z</time>
      </trkpt>
      <trkpt lat="41.86411" lon="9.16422">
        <ele>1452.8</ele>
        <time>2021-06-03T09:00:28Z</time>
      </trkpt>
      <trkpt lat="41.86406" lon="9.16422">
        <ele>1452.4</ele>
        <time>2021-06-03T09:00:29Z</time>
      </trkpt>
      <trkpt lat="41.86402" lon="9.16423">
        <ele>1452.4</ele>
        <time>2021-06-03T09:00:30Z</time>
      </trkpt>
      <trkpt lat="41.86398" lon="9.16425">
        <ele>1452.4</ele>
        <time>2021-06-03T09:00:31Z</time>
      </trkpt>
      <trkpt lat="41.86395" lon="9.16428">
        <ele>1452.4</ele>
        <time>2021-06-03T09:00:32Z</time>
      </trkpt>
      <trkpt lat="41.86392" lon="9.1643">
        <ele>1453.2</ele>
        <time>2021-06-03T09:00:33Z</time>
      </trkpt>
      <trkpt lat="41.86389" lon="9.16431">
        <ele>1453.2</ele>
        <time>2021-06-03T09:00:34Z</time>
      </trkpt>
      <trkpt lat="41.86386" lon="9.16431">
        <ele>1453.2</ele>
        <time>2021-06-03T09:00:35Z</time>
      </trkpt>
      <trkpt lat="41.86383" lon="9.16431">
        <ele>1453.8</ele>
        <time>2021-06-03T09:00:36Z</time>
      </trkpt>
      <trkpt lat="41.8638" lon="9.1643">
        <ele>1453.8</ele>
        <time>2021-06-03T09:00:37Z</time>
      </trkpt>
      <trkpt lat="41.86377" lon="9.16427">
        <ele>1453.8</ele>
        <time>2021-06-03T09:00:38Z</time>
      </trkpt>
      <trkpt lat="41.86375" lon="9.16425">
        <ele>1453.8</ele>
        <time>2021-06-03T09:00:39Z</time>
      </trkpt>
      <trkpt lat="41.86373" lon="9.16421">
        <ele>1453.8</ele>
        <time>2021-06-03T09:00:40Z</time>
      </trkpt>
      <trkpt lat="41.8637" lon="9.16417">
        <ele>1453</ele>
        <time>2021-06-03T09:00:41Z</time>
      </trkpt>
      <trkpt lat="41.86368" lon="9.16412">
        <ele>1453</ele>
        <time>2021-06-03T09:00:42Z</time>
      </trkpt>
      <trkpt lat="41.86365" lon="9.16407">
        <ele>1453</ele>
        <time>2021-06-03T09:00:43Z</time>
      </trkpt>
      <trkpt lat="41.86362" lon="9.16402">
        <ele>1452.2</ele>
        <time>2021-06-03T09:00:44Z</time>
      </trkpt>
      <trkpt lat="41.86358" lon="9.16396">
        <ele>1452.2</ele>
        <time>2021-06-03T09:00:45Z</time>
      </trkpt>
      <trkpt lat="41.86354" lon="9.16391">
        <ele>1452.2</ele>
        <time>2021-06-03T09:00:46Z</time>
      </trkpt>
      <trkpt lat="41.86351" lon="9.16386">
        <ele>1452.2</ele>
        <time>2021-06-03T09:00:47Z</time>
      </trkpt>
      <trkpt lat="41.86348" lon="9.16382">
        <ele>1451.2</ele>
        <time>2021-06-03T09:00:48Z</time>
      </trkpt>
      <trkpt lat="41.86345" lon="9.16377">
        <ele>1451.2</ele>
        <time>2021-06-03T09:00:49Z</time>
      </trkpt>
      <trkpt lat="41.86343" lon="9.16372">
        <ele>1451.2</ele>
        <time>2021-06-03T09:00:50Z</time>
      </trkpt>
      <trkpt lat="41.86341" lon="9.16366">
        <ele>1451.2</ele>
        <time>2021-06-03T09:00:51Z</time>
      </trkpt>
      <trkpt lat="41.86341" lon="9.16361">
        <ele>1450.2</ele>
        <time>2021-06-03T09:00:52Z</time>
      </trkpt>
      <trkpt lat="41.8634" lon="9.16355">
        <ele>1448.4</ele>
        <time>2021-06-03T09:00:53Z</time>
      </trkpt>
      <trkpt lat="41.86341" lon="9.16349">
        <ele>1448.4</ele>
        <time>2021-06-03T09:00:54Z</time>
      </trkpt>
      <trkpt lat="41.86341" lon="9.16342">
        <ele>1448.4</ele>
        <time>2021-06-03T09:00:55Z</time>
      </trkpt>
      <trkpt lat="41.86342" lon="9.16335">
        <ele>1447.4</ele>
        <time>2021-06-03T09:00:56Z</time>
      </trkpt>
      <trkpt lat="41.86343" lon="9.16327">
        <ele>1446.6</ele>
        <time>2021-06-03T09:00:57Z</time>
      </trkpt>
      <trkpt lat="41.86344" lon="9.16321">
        <ele>1446.6</ele>
        <time>2021-06-03T09:00:58Z</time>
      </trkpt>
      <trkpt lat="41.86346" lon="9.16316">
        <ele>1446.6</ele>
        <time>2021-06-03T09:00:59Z</time>
      </trkpt>
      <trkpt lat="41.86348" lon="9.16312">
        <ele>1446.6</ele>
        <time>2021-06-03T09:01:00Z</time>
      </trkpt>
      <trkpt lat="41.86351" lon="9.16309">
        <ele>1446</ele>
        <time>2021-06-03T09:01:01Z</time>
      </trkpt>
      <trkpt lat="41.86353" lon="9.16307">
        <ele>1446</ele>
        <time>2021-06-03T09:01:02Z</time>
      </trkpt>
      <trkpt lat="41.86356" lon="9.16305">
        <ele>1446</ele>
        <time>2021-06-03T09:01:03Z</time>
      </trkpt>
      <trkpt lat="41.86359" lon="9.16303">
        <ele>1445</ele>
        <time>2021-06-03T09:01:04Z</time>
      </trkpt>
      <trkpt lat="41.86363" lon="9.16301">
        <ele>1444</ele>
        <time>2021-06-03T09:01:05Z</time>
      </trkpt>
      <trkpt lat="41.86368" lon="9.16298">
        <ele>1444</ele>
        <time>2021-06-03T09:01:06Z</time>
      </trkpt>
      <trkpt lat="41.86372" lon="9.16294">
        <ele>1444</ele>
        <time>2021-06-03T09:01:07Z</time>
      </trkpt>
      <trkpt lat="41.86377" lon="9.16289">
        <ele>1443.6</ele>
        <time>2021-06-03T09:01:08Z</time>
      </trkpt>
      <trkpt lat="41.8638" lon="9.16285">
        <ele>1443</ele>
        <time>2021-06-03T09:01:09Z</time>
      </trkpt>
      <trkpt lat="41.86383" lon="9.16281">
        <ele>1443</ele>
        <time>2021-06-03T09:01:10Z</time>
      </trkpt>
      <trkpt lat="41.86386" lon="9.16278">
        <ele>1443</ele>
        <time>2021-06-03T09:01:11Z</time>
      </trkpt>
      <trkpt lat="41.86389" lon="9.16274">
        <ele>1442</ele>
        <time>2021-06-03T09:01:12Z</time>
      </trkpt>
      <trkpt lat="41.86392" lon="9.16269">
        <ele>1440.4</ele>
        <time>2021-06-03T09:01:13Z</time>
      </trkpt>
      <trkpt lat="41.86396" lon="9.16264">
        <ele>1440.4</ele>
        <time>2021-06-03T09:01:14Z</time>
      </trkpt>
      <trkpt lat="41.864" lon="9.16259">
        <ele>1440.4</ele>
        <time>2021-06-03T09:01:15Z</time>
      </trkpt>
      <trkpt lat="41.86405" lon="9.16254">
        <ele>1439.4</ele>
        <time>2021-06-03T09:01:16Z</time>
      </trkpt>
      <trkpt lat="41.86409" lon="9.16249">
        <ele>1438</ele>
        <time>2021-06-03T09:01:17Z</time>
      </trkpt>
      <trkpt lat="41.86414" lon="9.16244">
        <ele>1438</ele>
        <time>2021-06-03T09:01:18Z</time>
      </trkpt>
      <trkpt lat="41.86419" lon="9.16239">
        <ele>1438</ele>
        <time>2021-06-03T09:01:19Z</time>
      </trkpt>
      <trkpt lat="41.86423" lon="9.16233">
        <ele>1437</ele>
        <time>2021-06-03T09:01:20Z</time>
      </trkpt>
      <trkpt lat="41.86428" lon="9.16228">
        <ele>1436</ele>
        <time>2021-06-03T09:01:21Z</time>
      </trkpt>
      <trkpt lat="41.86431" lon="9.16224">
        <ele>1436</ele>
        <time>2021-06-03T09:01:22Z</time>
      </trkpt>
      <trkpt lat="41.86434" lon="9.16219">
        <ele>1436</ele>
        <time>2021-06-03T09:01:23Z</time>
      </trkpt>
      <trkpt lat="41.86436" lon="9.16213">
        <ele>1436.8</ele>
        <time>2021-06-03T09:01:24Z</time>
      </trkpt>
      <trkpt lat="41.86437" lon="9.16206">
        <ele>1435.6</ele>
        <time>2021-06-03T09:01:25Z</time>
      </trkpt>
      <trkpt lat="41.86436" lon="9.16199">
        <ele>1435.6</ele>
        <time>2021-06-03T09:01:26Z</time>
      </trkpt>
      <trkpt lat="41.86435" lon="9.16192">
        <ele>1435.6</ele>
        <time>2021-06-03T09:01:27Z</time>
      </trkpt>
      <trkpt lat="41.86434" lon="9.16185">
        <ele>1435.2</ele>
        <time>2021-06-03T09:01:28Z</time>
      </trkpt>
      <trkpt lat="41.86433" lon="9.16179">
        <ele>1435.8</ele>
        <time>2021-06-03T09:01:29Z</time>
      </trkpt>
      <trkpt lat="41.86434" lon="9.16174">
        <ele>1435.8</ele>
        <time>2021-06-03T09:01:30Z</time>
      </trkpt>
      <trkpt lat="41.86435" lon="9.1617">
        <ele>1435.8</ele>
        <time>2021-06-03T09:01:31Z</time>
      </trkpt>
      <trkpt lat="41.86438" lon="9.16166">
        <ele>1436</ele>
        <time>2021-06-03T09:01:32Z</time>
      </trkpt>
      <trkpt lat="41.86441" lon="9.16164">
        <ele>1436</ele>
        <time>2021-06-03T09:01:33Z</time>
      </trkpt>
      <trkpt lat="41.86444" lon="9.16163">
        <ele>1436</ele>
        <time>2021-06-03T09:01:34Z</time>
      </trkpt>
      <trkpt lat="41.86447" lon="9.16161">
        <ele>1436</ele>
        <time>2021-06-03T09:01:35Z</time>
      </trkpt>
      <trkpt lat="41.8645" lon="9.16159">
        <ele>1435.8</ele>
        <time>2021-06-03T09:01:36Z</time>
      </trkpt>
      <trkpt lat="41.86454" lon="9.16158">
        <ele>1435.6</ele>
        <time>2021-06-03T09:01:37Z</time>
      </trkpt>
      <trkpt lat="41.86457" lon="9.16156">
        <ele>1435.6</ele>
        <time>2021-06-03T09:01:38Z</time>
      </trkpt>
      <trkpt lat="41.86461" lon="9.16155">
        <ele>1435.6</ele>
        <time>2021-06-03T09:01:39Z</time>
      </trkpt>
      <trkpt lat="41.86465" lon="9.16154">
        <ele>1434.6</ele>
        <time>2021-06-03T09:01:40Z</time>
      </trkpt>
      <trkpt lat="41.86469" lon="9.16151">
        <ele>1433.4</ele>
        <time>2021-06-03T09:01:41Z</time>
      </trkpt>
      <trkpt lat="41.86472" lon="9.16148">
        <ele>1433.4</ele>
        <time>2021-06-03T09:01:42Z</time>
      </trkpt>
      <trkpt lat="41.86474" lon="9.16145">
        <ele>1433.4</ele>
        <time>2021-06-03T09:01:43Z</time>
      </trkpt>
      <trkpt lat="41.86477" lon="9.16142">
        <ele>1434</ele>
        <time>2021-06-03T09:01:44Z</time>
      </trkpt>
      <trkpt lat="41.86477" lon="9.16138">
        <ele>1434.2</ele>
        <time>2021-06-03T09:01:45Z</time>
      </trkpt>
      <trkpt lat="41.86477" lon="9.16134">
        <ele>1434.2</ele>
        <time>2021-06-03T09:01:46Z</time>
      </trkpt>
      <trkpt lat="41.86477" lon="9.16131">
        <ele>1434.2</ele>
        <time>2021-06-03T09:01:47Z</time>
      </trkpt>
      <trkpt lat="41.86477" lon="9.16127">
        <ele>1435.2</ele>
        <time>2021-06-03T09:01:48Z</time>
      </trkpt>
      <trkpt lat="41.86476" lon="9.16125">
        <ele>1435.2</ele>
        <time>2021-06-03T09:01:49Z</time>
      </trkpt>
      <trkpt lat="41.86476" lon="9.16123">
        <ele>1435.2</ele>
        <time>2021-06-03T09:01:50Z</time>
      </trkpt>
      <trkpt lat="41.86476" lon="9.1612">
        <ele>1435.2</ele>
        <time>2021-06-03T09:01:51Z</time>
      </trkpt>
      <trkpt lat="41.86476" lon="9.16117">
        <ele>1435.2</ele>
        <time>2021-06-03T09:01:52Z</time>
      </trkpt>
      <trkpt lat="41.86476" lon="9.16113">
        <ele>1435.2</ele>
        <time>2021-06-03T09:01:53Z</time>
      </trkpt>
      <trkpt lat="41.86475" lon="9.1611">
        <ele>1435.2</ele>
        <time>2021-06-03T09:01:54Z</time>
      </trkpt>
      <trkpt lat="41.86475" lon="9.16107">
        <ele>1435.2</ele>
        <time>2021-06-03T09:01:55Z</time>
      </trkpt>
      <trkpt lat="41.86474" lon="9.16103">
        <ele>1435.2</ele>
        <time>2021-06-03T09:01:56Z</time>
      </trkpt>
      <trkpt lat="41.86473" lon="9.161">
        <ele>1434.6</ele>
        <time>2021-06-03T09:01:57Z</time>
      </trkpt>
      <trkpt lat="41.86473" lon="9.16097">
        <ele>1434.6</ele>
        <time>2021-06-03T09:01:58Z</time>
      </trkpt>
      <trkpt lat="41.86472" lon="9.16093">
        <ele>1434.6</ele>
        <time>2021-06-03T09:01:59Z</time>
      </trkpt>
      <trkpt lat="41.86471" lon="9.1609">
        <ele>1434.6</ele>
        <time>2021-06-03T09:02:00Z</time>
      </trkpt>
      <trkpt lat="41.8647" lon="9.16087">
        <ele>1435</ele>
        <time>2021-06-03T09:02:01Z</time>
      </trkpt>
      <trkpt lat="41.86469" lon="9.16084">
        <ele>1435</ele>
        <time>2021-06-03T09:02:02Z</time>
      </trkpt>
      <trkpt lat="41.86468" lon="9.16082">
        <ele>1435</ele>
        <time>2021-06-03T09:02:03Z</time>
      </trkpt>
      <trkpt lat="41.86467" lon="9.1608">
        <ele>1435</ele>
        <time>2021-06-03T09:02:04Z</time>
      </trkpt>
      <trkpt lat="41.86466" lon="9.16078">
        <ele>1435.2</ele>
        <time>2021-06-03T09:02:05Z</time>
      </trkpt>
      <trkpt lat="41.86465" lon="9.16077">
        <ele>1435.2</ele>
        <time>2021-06-03T09:02:06Z</time>
      </trkpt>
      <trkpt lat="41.86464" lon="9.16075">
        <ele>1435.2</ele>
        <time>2021-06-03T09:02:07Z</time>
      </trkpt>
      <trkpt lat="41.86463" lon="9.16074">
        <ele>1436</ele>
        <time>2021-06-03T09:02:08Z</time>
      </trkpt>
      <trkpt lat="41.86463" lon="9.16072">
        <ele>1436</ele>
        <time>2021-06-03T09:02:09Z</time>
      </trkpt>
      <trkpt lat="41.86462" lon="9.16071">
        <ele>1436</ele>
        <time>2021-06-03T09:02:10Z</time>
      </trkpt>
      <trkpt lat="41.86462" lon="9.16071">
        <ele>1436</ele>
        <time>2021-06-03T09:02:11Z</time>
      </trkpt>
      <trkpt lat="41.86458" lon="9.16066">
        <ele>1437</ele>
        <time>2021-06-03T09:05:11Z</time>
      </trkpt>
      <trkpt lat="41.86457" lon="9.16064">
        <ele>1436.6</ele>
        <time>2021-06-03T09:05:12Z</time>
      </trkpt>
      <trkpt lat="41.86456" lon="9.16062">
        <ele>1436.4</ele>
        <time>2021-06-03T09:05:13Z</time>
      </trkpt>
      <trkpt lat="41.86455" lon="9.16059">
        <ele>1436.4</ele>
        <time>2021-06-03T09:05:14Z</time>
      </trkpt>
      <trkpt lat="41.86454" lon="9.16057">
        <ele>1436.4</ele>
        <time>2021-06-03T09:05:15Z</time>
      </trkpt>
      <trkpt lat="41.86453" lon="9.16053">
        <ele>1435.6</ele>
        <time>2021-06-03T09:05:16Z</time>
      </trkpt>
      <trkpt lat="41.86453" lon="9.1605">
        <ele>1435.6</ele>
        <time>2021-06-03T09:05:17Z</time>
      </trkpt>
      <trkpt lat="41.86452" lon="9.16047">
        <ele>1435.6</ele>
        <time>2021-06-03T09:05:18Z</time>
      </trkpt>
      <trkpt lat="41.86452" lon="9.16044">
        <ele>1435.6</ele>
        <time>2021-06-03T09:05:19Z</time>
      </trkpt>
      <trkpt lat="41.86452" lon="9.16041">
        <ele>1435.6</ele>
        <time>2021-06-03T09:05:20Z</time>
      </trkpt>
      <trkpt lat="41.86452" lon="9.16039">
        <ele>1435.2</ele>
        <time>2021-06-03T09:05:21Z</time>
      </trkpt>
      <trkpt lat="41.86452" lon="9.16038">
        <ele>1435.2</ele>
        <time>2021-06-03T09:05:22Z</time>
      </trkpt>
      <trkpt lat="41.86452" lon="9.16037">
        <ele>1435.2</ele>
        <time>2021-06-03T09:05:23Z</time>
      </trkpt>
      <trkpt lat="41.86452" lon="9.16037">
        <ele>1435.6</ele>
        <time>2021-06-03T09:05:24Z</time>
      </trkpt>
      <trkpt lat="41.86452" lon="9.16028">
        <ele>1434.2</ele>
        <time>2021-06-03T09:06:05Z</time>
      </trkpt>
      <trkpt lat="41.86453" lon="9.16024">
        <ele>1434.2</ele>
        <time>2021-06-03T09:06:06Z</time>
      </trkpt>
      <trkpt lat="41.86453" lon="9.16021">
        <ele>1434.2</ele>
        <time>2021-06-03T09:06:07Z</time>
      </trkpt>
      <trkpt lat="41.86453" lon="9.16017">
        <ele>1433.2</ele>
        <time>2021-06-03T09:06:08Z</time>
      </trkpt>
      <trkpt lat="41.86454" lon="9.16012">
        <ele>1432.4</ele>
        <time>2021-06-03T09:06:09Z</time>
      </trkpt>
      <trkpt lat="41.86455" lon="9.16008">
        <ele>1432.4</ele>
        <time>2021-06-03T09:06:10Z</time>
      </trkpt>
      <trkpt lat="41.86456" lon="9.16004">
        <ele>1432.4</ele>
        <time>2021-06-03T09:06:11Z</time>
      </trkpt>
      <trkpt lat="41.86458" lon="9.15999">
        <ele>1431.4</ele>
        <time>2021-06-03T09:06:12Z</time>
      </trkpt>
      <trkpt lat="41.86461" lon="9.15995">
        <ele>1430.8</ele>
        <time>2021-06-03T09:06:13Z</time>
      </trkpt>
      <trkpt lat="41.86463" lon="9.15993">
        <ele>1430.8</ele>
        <time>2021-06-03T09:06:14Z</time>
      </trkpt>
      <trkpt lat="41.86466" lon="9.1599">
        <ele>1430.8</ele>
        <time>2021-06-03T09:06:15Z</time>
      </trkpt>
      <trkpt lat="41.86469" lon="9.15988">
        <ele>1431.4</ele>
        <time>2021-06-03T09:06:16Z</time>
      </trkpt>
      <trkpt lat="41.86472" lon="9.15986">
        <ele>1430.8</ele>
        <time>2021-06-03T09:06:17Z</time>
      </trkpt>
      <trkpt lat="41.86476" lon="9.15985">
        <ele>1430.8</ele>
        <time>2021-06-03T09:06:18Z</time>
      </trkpt>
      <trkpt lat="41.8648" lon="9.15984">
        <ele>1430.8</ele>
        <time>2021-06-03T09:06:19Z</time>
      </trkpt>
      <trkpt lat="41.86485" lon="9.15983">
        <ele>1429.8</ele>
        <time>2021-06-03T09:06:20Z</time>
      </trkpt>
      <trkpt lat="41.86489" lon="9.15981">
        <ele>1429.2</ele>
        <time>2021-06-03T09:06:21Z</time>
      </trkpt>
      <trkpt lat="41.86493" lon="9.1598">
        <ele>1429.2</ele>
        <time>2021-06-03T09:06:22Z</time>
      </trkpt>
      <trkpt lat="41.86498" lon="9.15978">
        <ele>1429.2</ele>
        <time>2021-06-03T09:06:23Z</time>
      </trkpt>
      <trkpt lat="41.86503" lon="9.15976">
        <ele>1428.2</ele>
        <time>2021-06-03T09:06:24Z</time>
      </trkpt>
      <trkpt lat="41.86508" lon="9.15974">
        <ele>1426.2</ele>
        <time>2021-06-03T09:06:25Z</time>
      </trkpt>
      <trkpt lat="41.86512" lon="9.15972">
        <ele>1426.2</ele>
        <time>2021-06-03T09:06:26Z</time>
      </trkpt>
      <trkpt lat="41.86517" lon="9.15972">
        <ele>1426.2</ele>
        <time>2021-06-03T09:06:27Z</time>
      </trkpt>
      <trkpt lat="41.86523" lon="9.15971">
        <ele>1426.2</ele>
        <time>2021-06-03T09:06:28Z</time>
      </trkpt>
      <trkpt lat="41.86527" lon="9.1597">
        <ele>1426.6</ele>
        <time>2021-06-03T09:06:29Z</time>
      </trkpt>
      <trkpt lat="41.86531" lon="9.1597">
        <ele>1426.6</ele>
        <time>2021-06-03T09:06:30Z</time>
      </trkpt>
      <trkpt lat="41.86535" lon="9.1597">
        <ele>1426.6</ele>
        <time>2021-06-03T09:06:31Z</time>
      </trkpt>
      <trkpt lat="41.86539" lon="9.15969">
        <ele>1425.6</ele>
        <time>2021-06-03T09:06:32Z</time>
      </trkpt>
      <trkpt lat="41.86544" lon="9.15967">
        <ele>1424.4</ele>
        <time>2021-06-03T09:06:33Z</time>
      </trkpt>
      <trkpt lat="41.86548" lon="9.15964">
        <ele>1424.4</ele>
        <time>2021-06-03T09:06:34Z</time>
      </trkpt>
      <trkpt lat="41.86555" lon="9.15962">
        <ele>1424.4</ele>
        <time>2021-06-03T09:06:35Z</time>
      </trkpt>
      <trkpt lat="41.86561" lon="9.15962">
        <ele>1423.4</ele>
        <time>2021-06-03T09:06:36Z</time>
      </trkpt>
      <trkpt lat="41.86567" lon="9.15962">
        <ele>1422</ele>
        <time>2021-06-03T09:06:37Z</time>
      </trkpt>
      <trkpt lat="41.86572" lon="9.15964">
        <ele>1422</ele>
        <time>2021-06-03T09:06:38Z</time>
      </trkpt>
      <trkpt lat="41.86576" lon="9.15966">
        <ele>1422</ele>
        <time>2021-06-03T09:06:39Z</time>
      </trkpt>
      <trkpt lat="41.86581" lon="9.15968">
        <ele>1423</ele>
        <time>2021-06-03T09:06:40Z</time>
      </trkpt>
      <trkpt lat="41.86585" lon="9.15971">
        <ele>1422.8</ele>
        <time>2021-06-03T09:06:41Z</time>
      </trkpt>
      <trkpt lat="41.8659" lon="9.15974">
        <ele>1422.8</ele>
        <time>2021-06-03T09:06:42Z</time>
      </trkpt>
      <trkpt lat="41.86595" lon="9.15976">
        <ele>1422.8</ele>
        <time>2021-06-03T09:06:43Z</time>
      </trkpt>
      <trkpt lat="41.86599" lon="9.1598">
        <ele>1422</ele>
        <time>2021-06-03T09:06:44Z</time>
      </trkpt>
      <trkpt lat="41.86604" lon="9.15983">
        <ele>1421.6</ele>
        <time>2021-06-03T09:06:45Z</time>
      </trkpt>
      <trkpt lat="41.86609" lon="9.15989">
        <ele>1421.6</ele>
        <time>2021-06-03T09:06:46Z</time>
      </trkpt>
      <trkpt lat="41.86613" lon="9.15995">
        <ele>1421.6</ele>
        <time>2021-06-03T09:06:47Z</time>
      </trkpt>
      <trkpt lat="41.86617" lon="9.16001">
        <ele>1420.6</ele>
        <time>2021-06-03T09:06:48Z</time>
      </trkpt>
      <trkpt lat="41.86623" lon="9.16007">
        <ele>1417.6</ele>
        <time>2021-06-03T09:06:49Z</time>
      </trkpt>
      <trkpt lat="41.8663" lon="9.16012">
        <ele>1417.6</ele>
        <time>2021-06-03T09:06:50Z</time>
      </trkpt>
      <trkpt lat="41.86636" lon="9.16016">
        <ele>1417.6</ele>
        <time>2021-06-03T09:06:51Z</time>
      </trkpt>
      <trkpt lat="41.86643" lon="9.16018">
        <ele>1416.6</ele>
        <time>2021-06-03T09:06:52Z</time>
      </trkpt>
      <trkpt lat="41.86649" lon="9.16019">
        <ele>1415.8</ele>
        <time>2021-06-03T09:06:53Z</time>
      </trkpt>
      <trkpt lat="41.86656" lon="9.16018">
        <ele>1415.8</ele>
        <time>2021-06-03T09:06:54Z</time>
      </trkpt>
      <trkpt lat="41.86662" lon="9.16018">
        <ele>1415.8</ele>
        <time>2021-06-03T09:06:55Z</time>
      </trkpt>
      <trkpt lat="41.86669" lon="9.16018">
        <ele>1415</ele>
        <time>2021-06-03T09:06:56Z</time>
      </trkpt>
      <trkpt lat="41.86676" lon="9.1602">
        <ele>1414.4</ele>
        <time>2021-06-03T09:06:57Z</time>
      </trkpt>
      <trkpt lat="41.86682" lon="9.16022">
        <ele>1414.4</ele>
        <time>2021-06-03T09:06:58Z</time>
      </trkpt>
      <trkpt lat="41.86688" lon="9.16024">
        <ele>1414.4</ele>
        <time>2021-06-03T09:06:59Z</time>
      </trkpt>
      <trkpt lat="41.86695" lon="9.16027">
        <ele>1414.8</ele>
        <time>2021-06-03T09:07:00Z</time>
      </trkpt>
      <trkpt lat="41.86701" lon="9.1603">
        <ele>1413.8</ele>
        <time>2021-06-03T09:07:01Z</time>
      </trkpt>
      <trkpt lat="41.86708" lon="9.16033">
        <ele>1413.8</ele>
        <time>2021-06-03T09:07:02Z</time>
      </trkpt>
      <trkpt lat="41.86714" lon="9.16036">
        <ele>1413.8</ele>
        <time>2021-06-03T09:07:03Z</time>
      </trkpt>
      <trkpt lat="41.8672" lon="9.16038">
        <ele>1413.8</ele>
        <time>2021-06-03T09:07:04Z</time>
      </trkpt>
      <trkpt lat="41.86726" lon="9.1604">
        <ele>1414.6</ele>
        <time>2021-06-03T09:07:05Z</time>
      </trkpt>
      <trkpt lat="41.86732" lon="9.1604">
        <ele>1414.6</ele>
        <time>2021-06-03T09:07:06Z</time>
      </trkpt>
      <trkpt lat="41.86737" lon="9.1604">
        <ele>1414.6</ele>
        <time>2021-06-03T09:07:07Z</time>
      </trkpt>
      <trkpt lat="41.86742" lon="9.1604">
        <ele>1413.8</ele>
        <time>2021-06-03T09:07:08Z</time>
      </trkpt>
      <trkpt lat="41.86748" lon="9.16038">
        <ele>1414.2</ele>
        <time>2021-06-03T09:07:09Z</time>
      </trkpt>
      <trkpt lat="41.86753" lon="9.16036">
        <ele>1414.2</ele>
        <time>2021-06-03T09:07:10Z</time>
      </trkpt>
      <trkpt lat="41.86758" lon="9.16033">
        <ele>1414.2</ele>
        <time>2021-06-03T09:07:11Z</time>
      </trkpt>
      <trkpt lat="41.86764" lon="9.16029">
        <ele>1413.4</ele>
        <time>2021-06-03T09:07:12Z</time>
      </trkpt>
      <trkpt lat="41.86769" lon="9.16027">
        <ele>1413</ele>
        <time>2021-06-03T09:07:13Z</time>
      </trkpt>
      <trkpt lat="41.86774" lon="9.16025">
        <ele>1413</ele>
        <time>2021-06-03T09:07:14Z</time>
      </trkpt>
      <trkpt lat="41.86779" lon="9.16025">
        <ele>1413</ele>
        <time>2021-06-03T09:07:15Z</time>
      </trkpt>
      <trkpt lat="41.86783" lon="9.16026">
        <ele>1413</ele>
        <time>2021-06-03T09:07:16Z</time>
      </trkpt>
      <trkpt lat="41.86787" lon="9.16027">
        <ele>1413.6</ele>
        <time>2021-06-03T09:07:17Z</time>
      </trkpt>
      <trkpt lat="41.8679" lon="9.16029">
        <ele>1413.6</ele>
        <time>2021-06-03T09:07:18Z</time>
      </trkpt>
      <trkpt lat="41.86793" lon="9.16031">
        <ele>1413.6</ele>
        <time>2021-06-03T09:07:19Z</time>
      </trkpt>
      <trkpt lat="41.86796" lon="9.16033">
        <ele>1413.6</ele>
        <time>2021-06-03T09:07:20Z</time>
      </trkpt>
      <trkpt lat="41.86798" lon="9.16036">
        <ele>1413.6</ele>
        <time>2021-06-03T09:07:21Z</time>
      </trkpt>
      <trkpt lat="41.86801" lon="9.16038">
        <ele>1413.6</ele>
        <time>2021-06-03T09:07:22Z</time>
      </trkpt>
      <trkpt lat="41.86803" lon="9.1604">
        <ele>1413.6</ele>
        <time>2021-06-03T09:07:23Z</time>
      </trkpt>
      <trkpt lat="41.86805" lon="9.16042">
        <ele>1413.6</ele>
        <time>2021-06-03T09:07:24Z</time>
      </trkpt>
      <trkpt lat="41.86808" lon="9.16043">
        <ele>1414.4</ele>
        <time>2021-06-03T09:07:25Z</time>
      </trkpt>
      <trkpt lat="41.8681" lon="9.16045">
        <ele>1414.4</ele>
        <time>2021-06-03T09:07:26Z</time>
      </trkpt>
      <trkpt lat="41.86812" lon="9.16046">
        <ele>1414.4</ele>
        <time>2021-06-03T09:07:27Z</time>
      </trkpt>
      <trkpt lat="41.86815" lon="9.16048">
        <ele>1414.8</ele>
        <time>2021-06-03T09:07:28Z</time>
      </trkpt>
      <trkpt lat="41.86817" lon="9.1605">
        <ele>1414.8</ele>
        <time>2021-06-03T09:07:29Z</time>
      </trkpt>
      <trkpt lat="41.86819" lon="9.16051">
        <ele>1414.8</ele>
        <time>2021-06-03T09:07:30Z</time>
      </trkpt>
      <trkpt lat="41.86821" lon="9.16053">
        <ele>1414.8</ele>
        <time>2021-06-03T09:07:31Z</time>
      </trkpt>
      <trkpt lat="41.86823" lon="9.16054">
        <ele>1414.8</ele>
        <time>2021-06-03T09:07:32Z</time>
      </trkpt>
      <trkpt lat="41.86826" lon="9.16054">
        <ele>1414.6</ele>
        <time>2021-06-03T09:07:33Z</time>
      </trkpt>
      <trkpt lat="41.86827" lon="9.16055">
        <ele>1414.6</ele>
        <time>2021-06-03T09:07:34Z</time>
      </trkpt>
      <trkpt lat="41.8683" lon="9.16055">
        <ele>1414.6</ele>
        <time>2021-06-03T09:07:35Z</time>
      </trkpt>
      <trkpt lat="41.86832" lon="9.16055">
        <ele>1414</ele>
        <time>2021-06-03T09:07:36Z</time>
      </trkpt>
      <trkpt lat="41.86834" lon="9.16054">
        <ele>1413.8</ele>
        <time>2021-06-03T09:07:37Z</time>
      </trkpt>
      <trkpt lat="41.86836" lon="9.16053">
        <ele>1413.8</ele>
        <time>2021-06-03T09:07:38Z</time>
      </trkpt>
      <trkpt lat="41.86838" lon="9.16052">
        <ele>1413.8</ele>
        <time>2021-06-03T09:07:39Z</time>
      </trkpt>
      <trkpt lat="41.86839" lon="9.1605">
        <ele>1414.8</ele>
        <time>2021-06-03T09:07:40Z</time>
      </trkpt>
      <trkpt lat="41.8684" lon="9.16047">
        <ele>1416</ele>
        <time>2021-06-03T09:07:41Z</time>
      </trkpt>
      <trkpt lat="41.8684" lon="9.16045">
        <ele>1416</ele>
        <time>2021-06-03T09:07:42Z</time>
      </trkpt>
      <trkpt lat="41.8684" lon="9.16042">
        <ele>1416</ele>
        <time>2021-06-03T09:07:43Z</time>
      </trkpt>
      <trkpt lat="41.8684" lon="9.16039">
        <ele>1415.6</ele>
        <time>2021-06-03T09:07:44Z</time>
      </trkpt>
      <trkpt lat="41.86839" lon="9.16036">
        <ele>1415.4</ele>
        <time>2021-06-03T09:07:45Z</time>
      </trkpt>
      <trkpt lat="41.86837" lon="9.16034">
        <ele>1415.4</ele>
        <time>2021-06-03T09:07:46Z</time>
      </trkpt>
      <trkpt lat="41.86836" lon="9.16031">
        <ele>1415.4</ele>
        <time>2021-06-03T09:07:47Z</time>
      </trkpt>
      <trkpt lat="41.86834" lon="9.16028">
        <ele>1415.4</ele>
        <time>2021-06-03T09:07:48Z</time>
      </trkpt>
      <trkpt lat="41.86832" lon="9.16024">
        <ele>1415.2</ele>
        <time>2021-06-03T09:07:49Z</time>
      </trkpt>
      <trkpt lat="41.86829" lon="9.16021">
        <ele>1415.2</ele>
        <time>2021-06-03T09:07:50Z</time>
      </trkpt>
      <trkpt lat="41.86826" lon="9.16018">
        <ele>1415.2</ele>
        <time>2021-06-03T09:07:51Z</time>
      </trkpt>
      <trkpt lat="41.86823" lon="9.16014">
        <ele>1414.6</ele>
        <time>2021-06-03T09:07:52Z</time>
      </trkpt>
      <trkpt lat="41.8682" lon="9.16009">
        <ele>1413.8</ele>
        <time>2021-06-03T09:07:53Z</time>
      </trkpt>
      <trkpt lat="41.86817" lon="9.16005">
        <ele>1413.8</ele>
        <time>2021-06-03T09:07:54Z</time>
      </trkpt>
      <trkpt lat="41.86815" lon="9.16001">
        <ele>1413.8</ele>
        <time>2021-06-03T09:07:55Z</time>
      </trkpt>
      <trkpt lat="41.86812" lon="9.15996">
        <ele>1412.8</ele>
        <time>2021-06-03T09:07:56Z</time>
      </trkpt>
      <trkpt lat="41.86809" lon="9.1599">
        <ele>1412</ele>
        <time>2021-06-03T09:07:57Z</time>
      </trkpt>
      <trkpt lat="41.86807" lon="9.15985">
        <ele>1412</ele>
        <time>2021-06-03T09:07:58Z</time>
      </trkpt>
      <trkpt lat="41.86804" lon="9.15979">
        <ele>1412</ele>
        <time>2021-06-03T09:07:59Z</time>
      </trkpt>
      <trkpt lat="41.86801" lon="9.15973">
        <ele>1412</ele>
        <time>2021-06-03T09:08:00Z</time>
      </trkpt>
      <trkpt lat="41.86799" lon="9.15967">
        <ele>1410.2</ele>
        <time>2021-06-03T09:08:01Z</time>
      </trkpt>
      <trkpt lat="41.86797" lon="9.15962">
        <ele>1410.2</ele>
        <time>2021-06-03T09:08:02Z</time>
      </trkpt>
      <trkpt lat="41.86793" lon="9.15958">
        <ele>1410.2</ele>
        <time>2021-06-03T09:08:03Z</time>
      </trkpt>
      <trkpt lat="41.86789" lon="9.15953">
        <ele>1410.2</ele>
        <time>2021-06-03T09:08:04Z</time>
      </trkpt>
      <trkpt lat="41.86785" lon="9.1595">
        <ele>1409.8</ele>
        <time>2021-06-03T09:08:05Z</time>
      </trkpt>
      <trkpt lat="41.86781" lon="9.15947">
        <ele>1409.8</ele>
        <time>2021-06-03T09:08:06Z</time>
      </trkpt>
      <trkpt lat="41.86777" lon="9.15942">
        <ele>1409.8</ele>
        <time>2021-06-03T09:08:07Z</time>
      </trkpt>
      <trkpt lat="41.86773" lon="9.15937">
        <ele>1409.8</ele>
        <time>2021-06-03T09:08:08Z</time>
      </trkpt>
      <trkpt lat="41.86772" lon="9.15931">
        <ele>1409.2</ele>
        <time>2021-06-03T09:08:09Z</time>
      </trkpt>
      <trkpt lat="41.8677" lon="9.15924">
        <ele>1409.2</ele>
        <time>2021-06-03T09:08:10Z</time>
      </trkpt>
      <trkpt lat="41.86769" lon="9.15918">
        <ele>1409.2</ele>
        <time>2021-06-03T09:08:11Z</time>
      </trkpt>
      <trkpt lat="41.86768" lon="9.15912">
        <ele>1409.2</ele>
        <time>2021-06-03T09:08:12Z</time>
      </trkpt>
      <trkpt lat="41.86766" lon="9.15906">
        <ele>1409.6</ele>
        <time>2021-06-03T09:08:13Z</time>
      </trkpt>
      <trkpt lat="41.86764" lon="9.15901">
        <ele>1409.6</ele>
        <time>2021-06-03T09:08:14Z</time>
      </trkpt>
      <trkpt lat="41.86761" lon="9.15896">
        <ele>1409.6</ele>
        <time>2021-06-03T09:08:15Z</time>
      </trkpt>
      <trkpt lat="41.86759" lon="9.1589">
        <ele>1409.6</ele>
        <time>2021-06-03T09:08:16Z</time>
      </trkpt>
      <trkpt lat="41.86757" lon="9.15885">
        <ele>1409.6</ele>
        <time>2021-06-03T09:08:17Z</time>
      </trkpt>
      <trkpt lat="41.86755" lon="9.1588">
        <ele>1409.6</ele>
        <time>2021-06-03T09:08:18Z</time>
      </trkpt>
      <trkpt lat="41.86753" lon="9.15876">
        <ele>1409.6</ele>
        <time>2021-06-03T09:08:19Z</time>
      </trkpt>
      <trkpt lat="41.86752" lon="9.15872">
        <ele>1410.6</ele>
        <time>2021-06-03T09:08:20Z</time>
      </trkpt>
      <trkpt lat="41.8675" lon="9.15867">
        <ele>1410</ele>
        <time>2021-06-03T09:08:21Z</time>
      </trkpt>
      <trkpt lat="41.86749" lon="9.15863">
        <ele>1410</ele>
        <time>2021-06-03T09:08:22Z</time>
      </trkpt>
      <trkpt lat="41.86747" lon="9.1586">
        <ele>1410</ele>
        <time>2021-06-03T09:08:23Z</time>
      </trkpt>
      <trkpt lat="41.86746" lon="9.15856">
        <ele>1411</ele>
        <time>2021-06-03T09:08:24Z</time>
      </trkpt>
      <trkpt lat="41.86745" lon="9.15852">
        <ele>1411.8</ele>
        <time>2021-06-03T09:08:25Z</time>
      </trkpt>
      <trkpt lat="41.86744" lon="9.15848">
        <ele>1411.8</ele>
        <time>2021-06-03T09:08:26Z</time>
      </trkpt>
      <trkpt lat="41.86742" lon="9.15845">
        <ele>1411.8</ele>
        <time>2021-06-03T09:08:27Z</time>
      </trkpt>
      <trkpt lat="41.86741" lon="9.15841">
        <ele>1411.6</ele>
        <time>2021-06-03T09:08:28Z</time>
      </trkpt>
      <trkpt lat="41.8674" lon="9.15837">
        <ele>1412</ele>
        <time>2021-06-03T09:08:29Z</time>
      </trkpt>
      <trkpt lat="41.86739" lon="9.15833">
        <ele>1412</ele>
        <time>2021-06-03T09:08:30Z</time>
      </trkpt>
      <trkpt lat="41.86738" lon="9.15829">
        <ele>1412</ele>
        <time>2021-06-03T09:08:31Z</time>
      </trkpt>
      <trkpt lat="41.86737" lon="9.15825">
        <ele>1412</ele>
        <time>2021-06-03T09:08:32Z</time>
      </trkpt>
      <trkpt lat="41.86736" lon="9.1582">
        <ele>1411.8</ele>
        <time>2021-06-03T09:08:33Z</time>
      </trkpt>
      <trkpt lat="41.86735" lon="9.15815">
        <ele>1411.8</ele>
        <time>2021-06-03T09:08:34Z</time>
      </trkpt>
      <trkpt lat="41.86733" lon="9.15811">
        <ele>1411.8</ele>
        <time>2021-06-03T09:08:35Z</time>
      </trkpt>
      <trkpt lat="41.86732" lon="9.15806">
        <ele>1411.8</ele>
        <time>2021-06-03T09:08:36Z</time>
      </trkpt>
      <trkpt lat="41.86731" lon="9.15802">
        <ele>1411.4</ele>
        <time>2021-06-03T09:08:37Z</time>
      </trkpt>
      <trkpt lat="41.86729" lon="9.15797">
        <ele>1411.4</ele>
        <time>2021-06-03T09:08:38Z</time>
      </trkpt>
      <trkpt lat="41.86728" lon="9.15792">
        <ele>1411.4</ele>
        <time>2021-06-03T09:08:39Z</time>
      </trkpt>
      <trkpt lat="41.86727" lon="9.15787">
        <ele>1411.4</ele>
        <time>2021-06-03T09:08:40Z</time>
      </trkpt>
      <trkpt lat="41.86726" lon="9.15781">
        <ele>1411.6</ele>
        <time>2021-06-03T09:08:41Z</time>
      </trkpt>
      <trkpt lat="41.86725" lon="9.15776">
        <ele>1411.6</ele>
        <time>2021-06-03T09:08:42Z</time>
      </trkpt>
      <trkpt lat="41.86725" lon="9.1577">
        <ele>1411.6</ele>
        <time>2021-06-03T09:08:43Z</time>
      </trkpt>
      <trkpt lat="41.86726" lon="9.15765">
        <ele>1410.6</ele>
        <time>2021-06-03T09:08:44Z</time>
      </trkpt>
      <trkpt lat="41.86728" lon="9.15759">
        <ele>1410.6</ele>
        <time>2021-06-03T09:08:45Z</time>
      </trkpt>
      <trkpt lat="41.8673" lon="9.15754">
        <ele>1410.6</ele>
        <time>2021-06-03T09:08:46Z</time>
      </trkpt>
      <trkpt lat="41.86733" lon="9.1575">
        <ele>1410.6</ele>
        <time>2021-06-03T09:08:47Z</time>
      </trkpt>
      <trkpt lat="41.86736" lon="9.15745">
        <ele>1409.8</ele>
        <time>2021-06-03T09:08:48Z</time>
      </trkpt>
      <trkpt lat="41.86739" lon="9.15741">
        <ele>1408.8</ele>
        <time>2021-06-03T09:08:49Z</time>
      </trkpt>
      <trkpt lat="41.86742" lon="9.15736">
        <ele>1408.8</ele>
        <time>2021-06-03T09:08:50Z</time>
      </trkpt>
      <trkpt lat="41.86745" lon="9.1573">
        <ele>1408.8</ele>
        <time>2021-06-03T09:08:51Z</time>
      </trkpt>
      <trkpt lat="41.86748" lon="9.15724">
        <ele>1407.8</ele>
        <time>2021-06-03T09:08:52Z</time>
      </trkpt>
      <trkpt lat="41.86752" lon="9.15718">
        <ele>1407.4</ele>
        <time>2021-06-03T09:08:53Z</time>
      </trkpt>
      <trkpt lat="41.86755" lon="9.15712">
        <ele>1407.4</ele>
        <time>2021-06-03T09:08:54Z</time>
      </trkpt>
      <trkpt lat="41.86759" lon="9.15707">
        <ele>1407.4</ele>
        <time>2021-06-03T09:08:55Z</time>
      </trkpt>
      <trkpt lat="41.86764" lon="9.15702">
        <ele>1406.4</ele>
        <time>2021-06-03T09:08:56Z</time>
      </trkpt>
      <trkpt lat="41.86768" lon="9.15699">
        <ele>1405.4</ele>
        <time>2021-06-03T09:08:57Z</time>
      </trkpt>
      <trkpt lat="41.86773" lon="9.15697">
        <ele>1405.4</ele>
        <time>2021-06-03T09:08:58Z</time>
      </trkpt>
      <trkpt lat="41.86779" lon="9.15695">
        <ele>1405.4</ele>
        <time>2021-06-03T09:08:59Z</time>
      </trkpt>
      <trkpt lat="41.86783" lon="9.15695">
        <ele>1404.4</ele>
        <time>2021-06-03T09:09:00Z</time>
      </trkpt>
      <trkpt lat="41.86788" lon="9.15695">
        <ele>1404.6</ele>
        <time>2021-06-03T09:09:01Z</time>
      </trkpt>
      <trkpt lat="41.86793" lon="9.15696">
        <ele>1404.6</ele>
        <time>2021-06-03T09:09:02Z</time>
      </trkpt>
      <trkpt lat="41.86798" lon="9.15698">
        <ele>1404.6</ele>
        <time>2021-06-03T09:09:03Z</time>
      </trkpt>
      <trkpt lat="41.86804" lon="9.157">
        <ele>1403.6</ele>
        <time>2021-06-03T09:09:04Z</time>
      </trkpt>
      <trkpt lat="41.86809" lon="9.15701">
        <ele>1402.4</ele>
        <time>2021-06-03T09:09:05Z</time>
      </trkpt>
      <trkpt lat="41.86814" lon="9.15703">
        <ele>1402.4</ele>
        <time>2021-06-03T09:09:06Z</time>
      </trkpt>
      <trkpt lat="41.86819" lon="9.15705">
        <ele>1402.4</ele>
        <time>2021-06-03T09:09:07Z</time>
      </trkpt>
      <trkpt lat="41.86824" lon="9.15706">
        <ele>1401.4</ele>
        <time>2021-06-03T09:09:08Z</time>
      </trkpt>
      <trkpt lat="41.8683" lon="9.15706">
        <ele>1399.6</ele>
        <time>2021-06-03T09:09:09Z</time>
      </trkpt>
      <trkpt lat="41.86837" lon="9.15705">
        <ele>1399.6</ele>
        <time>2021-06-03T09:09:10Z</time>
      </trkpt>
      <trkpt lat="41.86843" lon="9.15703">
        <ele>1399.6</ele>
        <time>2021-06-03T09:09:11Z</time>
      </trkpt>
      <trkpt lat="41.86847" lon="9.15702">
        <ele>1398.8</ele>
        <time>2021-06-03T09:09:12Z</time>
      </trkpt>
      <trkpt lat="41.86852" lon="9.157">
        <ele>1398.8</ele>
        <time>2021-06-03T09:09:13Z</time>
      </trkpt>
      <trkpt lat="41.86856" lon="9.15697">
        <ele>1398.8</ele>
        <time>2021-06-03T09:09:14Z</time>
      </trkpt>
      <trkpt lat="41.8686" lon="9.15693">
        <ele>1398.8</ele>
        <time>2021-06-03T09:09:15Z</time>
      </trkpt>
      <trkpt lat="41.86863" lon="9.15688">
        <ele>1398.8</ele>
        <time>2021-06-03T09:09:16Z</time>
      </trkpt>
      <trkpt lat="41.86866" lon="9.15682">
        <ele>1399.8</ele>
        <time>2021-06-03T09:09:17Z</time>
      </trkpt>
      <trkpt lat="41.86868" lon="9.15675">
        <ele>1399.8</ele>
        <time>2021-06-03T09:09:18Z</time>
      </trkpt>
      <trkpt lat="41.86869" lon="9.1567">
        <ele>1399.8</ele>
        <time>2021-06-03T09:09:19Z</time>
      </trkpt>
      <trkpt lat="41.8687" lon="9.15666">
        <ele>1398.8</ele>
        <time>2021-06-03T09:09:20Z</time>
      </trkpt>
      <trkpt lat="41.86871" lon="9.1566">
        <ele>1398</ele>
        <time>2021-06-03T09:09:21Z</time>
      </trkpt>
      <trkpt lat="41.86873" lon="9.15654">
        <ele>1398</ele>
        <time>2021-06-03T09:09:22Z</time>
      </trkpt>
      <trkpt lat="41.86875" lon="9.15648">
        <ele>1398</ele>
        <time>2021-06-03T09:09:23Z</time>
      </trkpt>
      <trkpt lat="41.86878" lon="9.15641">
        <ele>1397</ele>
        <time>2021-06-03T09:09:24Z</time>
      </trkpt>
      <trkpt lat="41.86881" lon="9.15635">
        <ele>1394.6</ele>
        <time>2021-06-03T09:09:25Z</time>
      </trkpt>
      <trkpt lat="41.86883" lon="9.1563">
        <ele>1394.6</ele>
        <time>2021-06-03T09:09:26Z</time>
      </trkpt>
      <trkpt lat="41.86885" lon="9.15624">
        <ele>1394.6</ele>
        <time>2021-06-03T09:09:27Z</time>
      </trkpt>
      <trkpt lat="41.86887" lon="9.15618">
        <ele>1394.6</ele>
        <time>2021-06-03T09:09:28Z</time>
      </trkpt>
      <trkpt lat="41.86889" lon="9.1561">
        <ele>1392.8</ele>
        <time>2021-06-03T09:09:29Z</time>
      </trkpt>
      <trkpt lat="41.86891" lon="9.15603">
        <ele>1392.8</ele>
        <time>2021-06-03T09:09:30Z</time>
      </trkpt>
      <trkpt lat="41.86894" lon="9.15595">
        <ele>1392.8</ele>
        <time>2021-06-03T09:09:31Z</time>
      </trkpt>
      <trkpt lat="41.86898" lon="9.15588">
        <ele>1392.4</ele>
        <time>2021-06-03T09:09:32Z</time>
      </trkpt>
      <trkpt lat="41.86902" lon="9.15584">
        <ele>1391.4</ele>
        <time>2021-06-03T09:09:33Z</time>
      </trkpt>
      <trkpt lat="41.86908" lon="9.15581">
        <ele>1391.4</ele>
        <time>2021-06-03T09:09:34Z</time>
      </trkpt>
      <trkpt lat="41.86913" lon="9.1558">
        <ele>1391.4</ele>
        <time>2021-06-03T09:09:35Z</time>
      </trkpt>
      <trkpt lat="41.86919" lon="9.1558">
        <ele>1390.4</ele>
        <time>2021-06-03T09:09:36Z</time>
      </trkpt>
      <trkpt lat="41.86924" lon="9.1558">
        <ele>1390.2</ele>
        <time>2021-06-03T09:09:37Z</time>
      </trkpt>
      <trkpt lat="41.86929" lon="9.15581">
        <ele>1390.2</ele>
        <time>2021-06-03T09:09:38Z</time>
      </trkpt>
      <trkpt lat="41.86934" lon="9.15581">
        <ele>1390.2</ele>
        <time>2021-06-03T09:09:39Z</time>
      </trkpt>
      <trkpt lat="41.86939" lon="9.15582">
        <ele>1390.2</ele>
        <time>2021-06-03T09:09:40Z</time>
      </trkpt>
      <trkpt lat="41.86944" lon="9.15583">
        <ele>1391.4</ele>
        <time>2021-06-03T09:09:41Z</time>
      </trkpt>
      <trkpt lat="41.86949" lon="9.15584">
        <ele>1391.4</ele>
        <time>2021-06-03T09:09:42Z</time>
      </trkpt>
      <trkpt lat="41.86954" lon="9.15585">
        <ele>1391.4</ele>
        <time>2021-06-03T09:09:43Z</time>
      </trkpt>
      <trkpt lat="41.86959" lon="9.15586">
        <ele>1390.4</ele>
        <time>2021-06-03T09:09:44Z</time>
      </trkpt>
      <trkpt lat="41.86964" lon="9.15587">
        <ele>1389.2</ele>
        <time>2021-06-03T09:09:45Z</time>
      </trkpt>
      <trkpt lat="41.86969" lon="9.15588">
        <ele>1389.2</ele>
        <time>2021-06-03T09:09:46Z</time>
      </trkpt>
      <trkpt lat="41.86974" lon="9.15589">
        <ele>1389.2</ele>
        <time>2021-06-03T09:09:47Z</time>
      </trkpt>
      <trkpt lat="41.86979" lon="9.15591">
        <ele>1388.2</ele>
        <time>2021-06-03T09:09:48Z</time>
      </trkpt>
      <trkpt lat="41.86984" lon="9.15592">
        <ele>1387.6</ele>
        <time>2021-06-03T09:09:49Z</time>
      </trkpt>
      <trkpt lat="41.86989" lon="9.15594">
        <ele>1387.6</ele>
        <time>2021-06-03T09:09:50Z</time>
      </trkpt>
      <trkpt lat="41.86994" lon="9.15596">
        <ele>1387.6</ele>
        <time>2021-06-03T09:09:51Z</time>
      </trkpt>
      <trkpt lat="41.86999" lon="9.15598">
        <ele>1387.6</ele>
        <time>2021-06-03T09:09:52Z</time>
      </trkpt>
      <trkpt lat="41.87005" lon="9.156">
        <ele>1387.8</ele>
        <time>2021-06-03T09:09:53Z</time>
      </trkpt>
      <trkpt lat="41.8701" lon="9.15602">
        <ele>1387.8</ele>
        <time>2021-06-03T09:09:54Z</time>
      </trkpt>
      <trkpt lat="41.87015" lon="9.15603">
        <ele>1387.8</ele>
        <time>2021-06-03T09:09:55Z</time>
      </trkpt>
      <trkpt lat="41.8702" lon="9.15605">
        <ele>1387</ele>
        <time>2021-06-03T09:09:56Z</time>
      </trkpt>
      <trkpt lat="41.87026" lon="9.15606">
        <ele>1387.2</ele>
        <time>2021-06-03T09:09:57Z</time>
      </trkpt>
      <trkpt lat="41.87031" lon="9.15608">
        <ele>1387.2</ele>
        <time>2021-06-03T09:09:58Z</time>
      </trkpt>
      <trkpt lat="41.87035" lon="9.15609">
        <ele>1387.2</ele>
        <time>2021-06-03T09:09:59Z</time>
      </trkpt>
      <trkpt lat="41.8704" lon="9.15609">
        <ele>1388.2</ele>
        <time>2021-06-03T09:10:00Z</time>
      </trkpt>
      <trkpt lat="41.87044" lon="9.15609">
        <ele>1388.4</ele>
        <time>2021-06-03T09:10:01Z</time>
      </trkpt>
      <trkpt lat="41.87048" lon="9.15609">
        <ele>1388.4</ele>
        <time>2021-06-03T09:10:02Z</time>
      </trkpt>
      <trkpt lat="41.87051" lon="9.15608">
        <ele>1388.4</ele>
        <time>2021-06-03T09:10:03Z</time>
      </trkpt>
      <trkpt lat="41.87055" lon="9.15607">
        <ele>1389.4</ele>
        <time>2021-06-03T09:10:04Z</time>
      </trkpt>
      <trkpt lat="41.87059" lon="9.15606">
        <ele>1389.6</ele>
        <time>2021-06-03T09:10:05Z</time>
      </trkpt>
      <trkpt lat="41.87062" lon="9.15606">
        <ele>1389.6</ele>
        <time>2021-06-03T09:10:06Z</time>
      </trkpt>
      <trkpt lat="41.87066" lon="9.15605">
        <ele>1389.6</ele>
        <time>2021-06-03T09:10:07Z</time>
      </trkpt>
      <trkpt lat="41.87069" lon="9.15605">
        <ele>1389.6</ele>
        <time>2021-06-03T09:10:08Z</time>
      </trkpt>
      <trkpt lat="41.87073" lon="9.15605">
        <ele>1389.6</ele>
        <time>2021-06-03T09:10:09Z</time>
      </trkpt>
      <trkpt lat="41.87076" lon="9.15605">
        <ele>1389.6</ele>
        <time>2021-06-03T09:10:10Z</time>
      </trkpt>
      <trkpt lat="41.8708" lon="9.15605">
        <ele>1389.6</ele>
        <time>2021-06-03T09:10:11Z</time>
      </trkpt>
      <trkpt lat="41.87083" lon="9.15604">
        <ele>1389.8</ele>
        <time>2021-06-03T09:10:12Z</time>
      </trkpt>
      <trkpt lat="41.87086" lon="9.15604">
        <ele>1389.8</ele>
        <time>2021-06-03T09:10:13Z</time>
      </trkpt>
      <trkpt lat="41.87089" lon="9.15603">
        <ele>1389.8</ele>
        <time>2021-06-03T09:10:14Z</time>
      </trkpt>
      <trkpt lat="41.87092" lon="9.15603">
        <ele>1389.8</ele>
        <time>2021-06-03T09:10:15Z</time>
      </trkpt>
      <trkpt lat="41.87095" lon="9.15603">
        <ele>1389.8</ele>
        <time>2021-06-03T09:10:16Z</time>
      </trkpt>
      <trkpt lat="41.87098" lon="9.15602">
        <ele>1389.2</ele>
        <time>2021-06-03T09:10:17Z</time>
      </trkpt>
      <trkpt lat="41.87101" lon="9.15602">
        <ele>1389.2</ele>
        <time>2021-06-03T09:10:18Z</time>
      </trkpt>
      <trkpt lat="41.87104" lon="9.15601">
        <ele>1389.2</ele>
        <time>2021-06-03T09:10:19Z</time>
      </trkpt>
      <trkpt lat="41.87107" lon="9.15601">
        <ele>1389.8</ele>
        <time>2021-06-03T09:10:20Z</time>
      </trkpt>
      <trkpt lat="41.8711" lon="9.15601">
        <ele>1389.6</ele>
        <time>2021-06-03T09:10:21Z</time>
      </trkpt>
      <trkpt lat="41.87113" lon="9.15601">
        <ele>1389.6</ele>
        <time>2021-06-03T09:10:22Z</time>
      </trkpt>
      <trkpt lat="41.87115" lon="9.15601">
        <ele>1389.6</ele>
        <time>2021-06-03T09:10:23Z</time>
      </trkpt>
      <trkpt lat="41.87118" lon="9.15601">
        <ele>1389.6</ele>
        <time>2021-06-03T09:10:24Z</time>
      </trkpt>
      <trkpt lat="41.8712" lon="9.15601">
        <ele>1390.8</ele>
        <time>2021-06-03T09:10:25Z</time>
      </trkpt>
      <trkpt lat="41.87122" lon="9.15602">
        <ele>1390.8</ele>
        <time>2021-06-03T09:10:26Z</time>
      </trkpt>
      <trkpt lat="41.87124" lon="9.15603">
        <ele>1390.8</ele>
        <time>2021-06-03T09:10:27Z</time>
      </trkpt>
      <trkpt lat="41.87126" lon="9.15603">
        <ele>1391.8</ele>
        <time>2021-06-03T09:10:28Z</time>
      </trkpt>
      <trkpt lat="41.87128" lon="9.15604">
        <ele>1391.2</ele>
        <time>2021-06-03T09:10:29Z</time>
      </trkpt>
      <trkpt lat="41.8713" lon="9.15605">
        <ele>1391.2</ele>
        <time>2021-06-03T09:10:30Z</time>
      </trkpt>
      <trkpt lat="41.87133" lon="9.15605">
        <ele>1391.2</ele>
        <time>2021-06-03T09:10:31Z</time>
      </trkpt>
      <trkpt lat="41.87135" lon="9.15606">
        <ele>1391.8</ele>
        <time>2021-06-03T09:10:32Z</time>
      </trkpt>
      <trkpt lat="41.87137" lon="9.15607">
        <ele>1392.4</ele>
        <time>2021-06-03T09:10:33Z</time>
      </trkpt>
      <trkpt lat="41.87139" lon="9.15607">
        <ele>1392.4</ele>
        <time>2021-06-03T09:10:34Z</time>
      </trkpt>
      <trkpt lat="41.87141" lon="9.15608">
        <ele>1392.4</ele>
        <time>2021-06-03T09:10:35Z</time>
      </trkpt>
      <trkpt lat="41.87143" lon="9.15609">
        <ele>1392.4</ele>
        <time>2021-06-03T09:10:36Z</time>
      </trkpt>
      <trkpt lat="41.87145" lon="9.15609">
        <ele>1393</ele>
        <time>2021-06-03T09:10:37Z</time>
      </trkpt>
      <trkpt lat="41.87147" lon="9.1561">
        <ele>1393</ele>
        <time>2021-06-03T09:10:38Z</time>
      </trkpt>
      <trkpt lat="41.87149" lon="9.15611">
        <ele>1393</ele>
        <time>2021-06-03T09:10:39Z</time>
      </trkpt>
      <trkpt lat="41.87151" lon="9.15611">
        <ele>1393.8</ele>
        <time>2021-06-03T09:10:40Z</time>
      </trkpt>
      <trkpt lat="41.87153" lon="9.15611">
        <ele>1393.6</ele>
        <time>2021-06-03T09:10:41Z</time>
      </trkpt>
      <trkpt lat="41.87155" lon="9.15612">
        <ele>1393.6</ele>
        <time>2021-06-03T09:10:42Z</time>
      </trkpt>
      <trkpt lat="41.87157" lon="9.15612">
        <ele>1393.6</ele>
        <time>2021-06-03T09:10:43Z</time>
      </trkpt>
      <trkpt lat="41.87159" lon="9.15612">
        <ele>1393.6</ele>
        <time>2021-06-03T09:10:44Z</time>
      </trkpt>
      <trkpt lat="41.87161" lon="9.15612">
        <ele>1393.8</ele>
        <time>2021-06-03T09:10:45Z</time>
      </trkpt>
      <trkpt lat="41.87163" lon="9.15612">
        <ele>1393.8</ele>
        <time>2021-06-03T09:10:46Z</time>
      </trkpt>
      <trkpt lat="41.87166" lon="9.15612">
        <ele>1393.8</ele>
        <time>2021-06-03T09:10:47Z</time>
      </trkpt>
      <trkpt lat="41.87167" lon="9.15612">
        <ele>1393.8</ele>
        <time>2021-06-03T09:10:48Z</time>
      </trkpt>
      <trkpt lat="41.87169" lon="9.15611">
        <ele>1393.6</ele>
        <time>2021-06-03T09:10:49Z</time>
      </trkpt>
      <trkpt lat="41.87172" lon="9.15611">
        <ele>1393.6</ele>
        <time>2021-06-03T09:10:50Z</time>
      </trkpt>
      <trkpt lat="41.87174" lon="9.15611">
        <ele>1393.6</ele>
        <time>2021-06-03T09:10:51Z</time>
      </trkpt>
      <trkpt lat="41.87176" lon="9.1561">
        <ele>1394.2</ele>
        <time>2021-06-03T09:10:52Z</time>
      </trkpt>
      <trkpt lat="41.87178" lon="9.1561">
        <ele>1393.8</ele>
        <time>2021-06-03T09:10:53Z</time>
      </trkpt>
      <trkpt lat="41.8718" lon="9.15609">
        <ele>1393.8</ele>
        <time>2021-06-03T09:10:54Z</time>
      </trkpt>
      <trkpt lat="41.87182" lon="9.15608">
        <ele>1393.8</ele>
        <time>2021-06-03T09:10:55Z</time>
      </trkpt>
      <trkpt lat="41.87184" lon="9.15608">
        <ele>1394.2</ele>
        <time>2021-06-03T09:10:56Z</time>
      </trkpt>
      <trkpt lat="41.87186" lon="9.15608">
        <ele>1394.4</ele>
        <time>2021-06-03T09:10:57Z</time>
      </trkpt>
      <trkpt lat="41.87188" lon="9.15607">
        <ele>1394.4</ele>
        <time>2021-06-03T09:10:58Z</time>
      </trkpt>
      <trkpt lat="41.8719" lon="9.15607">
        <ele>1394.4</ele>
        <time>2021-06-03T09:10:59Z</time>
      </trkpt>
      <trkpt lat="41.87192" lon="9.15607">
        <ele>1394.4</ele>
        <time>2021-06-03T09:11:00Z</time>
      </trkpt>
      <trkpt lat="41.87194" lon="9.15607">
        <ele>1394.4</ele>
        <time>2021-06-03T09:11:01Z</time>
      </trkpt>
      <trkpt lat="41.87196" lon="9.15608">
        <ele>1394.4</ele>
        <time>2021-06-03T09:11:02Z</time>
      </trkpt>
      <trkpt lat="41.87197" lon="9.15608">
        <ele>1394.4</ele>
        <time>2021-06-03T09:11:03Z</time>
      </trkpt>
      <trkpt lat="41.87199" lon="9.15608">
        <ele>1395</ele>
        <time>2021-06-03T09:11:04Z</time>
      </trkpt>
      <trkpt lat="41.87201" lon="9.15608">
        <ele>1395.2</ele>
        <time>2021-06-03T09:11:05Z</time>
      </trkpt>
      <trkpt lat="41.87203" lon="9.15608">
        <ele>1395.2</ele>
        <time>2021-06-03T09:11:06Z</time>
      </trkpt>
      <trkpt lat="41.87205" lon="9.15608">
        <ele>1395.2</ele>
        <time>2021-06-03T09:11:07Z</time>
      </trkpt>
      <trkpt lat="41.87207" lon="9.15608">
        <ele>1395.6</ele>
        <time>2021-06-03T09:11:08Z</time>
      </trkpt>
      <trkpt lat="41.87208" lon="9.15609">
        <ele>1395.6</ele>
        <time>2021-06-03T09:11:09Z</time>
      </trkpt>
      <trkpt lat="41.8721" lon="9.15609">
        <ele>1395.6</ele>
        <time>2021-06-03T09:11:10Z</time>
      </trkpt>
      <trkpt lat="41.87212" lon="9.15609">
        <ele>1395.6</ele>
        <time>2021-06-03T09:11:11Z</time>
      </trkpt>
      <trkpt lat="41.87214" lon="9.1561">
        <ele>1395.8</ele>
        <time>2021-06-03T09:11:12Z</time>
      </trkpt>
      <trkpt lat="41.87215" lon="9.15611">
        <ele>1396.2</ele>
        <time>2021-06-03T09:11:13Z</time>
      </trkpt>
      <trkpt lat="41.87217" lon="9.15611">
        <ele>1396.2</ele>
        <time>2021-06-03T09:11:14Z</time>
      </trkpt>
      <trkpt lat="41.87219" lon="9.15612">
        <ele>1396.2</ele>
        <time>2021-06-03T09:11:15Z</time>
      </trkpt>
      <trkpt lat="41.8722" lon="9.15613">
        <ele>1396.2</ele>
        <time>2021-06-03T09:11:16Z</time>
      </trkpt>
      <trkpt lat="41.87222" lon="9.15614">
        <ele>1397</ele>
        <time>2021-06-03T09:11:17Z</time>
      </trkpt>
      <trkpt lat="41.87223" lon="9.15614">
        <ele>1397</ele>
        <time>2021-06-03T09:11:18Z</time>
      </trkpt>
      <trkpt lat="41.87225" lon="9.15615">
        <ele>1397</ele>
        <time>2021-06-03T09:11:19Z</time>
      </trkpt>
      <trkpt lat="41.87227" lon="9.15615">
        <ele>1397</ele>
        <time>2021-06-03T09:11:20Z</time>
      </trkpt>
      <trkpt lat="41.87228" lon="9.15616">
        <ele>1397.2</ele>
        <time>2021-06-03T09:11:21Z</time>
      </trkpt>
      <trkpt lat="41.8723" lon="9.15617">
        <ele>1397.2</ele>
        <time>2021-06-03T09:11:22Z</time>
      </trkpt>
      <trkpt lat="41.87231" lon="9.15617">
        <ele>1397.2</ele>
        <time>2021-06-03T09:11:23Z</time>
      </trkpt>
      <trkpt lat="41.87233" lon="9.15618">
        <ele>1397.8</ele>
        <time>2021-06-03T09:11:24Z</time>
      </trkpt>
      <trkpt lat="41.87234" lon="9.15618">
        <ele>1397.2</ele>
        <time>2021-06-03T09:11:25Z</time>
      </trkpt>
      <trkpt lat="41.87236" lon="9.15618">
        <ele>1397.2</ele>
        <time>2021-06-03T09:11:26Z</time>
      </trkpt>
      <trkpt lat="41.87237" lon="9.15619">
        <ele>1397.2</ele>
        <time>2021-06-03T09:11:27Z</time>
      </trkpt>
      <trkpt lat="41.87239" lon="9.15619">
        <ele>1398</ele>
        <time>2021-06-03T09:11:28Z</time>
      </trkpt>
      <trkpt lat="41.8724" lon="9.1562">
        <ele>1397.8</ele>
        <time>2021-06-03T09:11:29Z</time>
      </trkpt>
      <trkpt lat="41.87242" lon="9.15621">
        <ele>1397.8</ele>
        <time>2021-06-03T09:11:30Z</time>
      </trkpt>
      <trkpt lat="41.87243" lon="9.15621">
        <ele>1397.8</ele>
        <time>2021-06-03T09:11:31Z</time>
      </trkpt>
      <trkpt lat="41.87244" lon="9.15621">
        <ele>1397.8</ele>
        <time>2021-06-03T09:11:32Z</time>
      </trkpt>
      <trkpt lat="41.87246" lon="9.15621">
        <ele>1397.8</ele>
        <time>2021-06-03T09:11:33Z</time>
      </trkpt>
      <trkpt lat="41.87248" lon="9.15621">
        <ele>1397.8</ele>
        <time>2021-06-03T09:11:34Z</time>
      </trkpt>
      <trkpt lat="41.8725" lon="9.15621">
        <ele>1397.8</ele>
        <time>2021-06-03T09:11:35Z</time>
      </trkpt>
      <trkpt lat="41.87252" lon="9.15621">
        <ele>1396.8</ele>
        <time>2021-06-03T09:11:36Z</time>
      </trkpt>
      <trkpt lat="41.87254" lon="9.15621">
        <ele>1397.2</ele>
        <time>2021-06-03T09:11:37Z</time>
      </trkpt>
      <trkpt lat="41.87256" lon="9.1562">
        <ele>1397.2</ele>
        <time>2021-06-03T09:11:38Z</time>
      </trkpt>
      <trkpt lat="41.87258" lon="9.1562">
        <ele>1397.2</ele>
        <time>2021-06-03T09:11:39Z</time>
      </trkpt>
      <trkpt lat="41.87259" lon="9.15619">
        <ele>1397.2</ele>
        <time>2021-06-03T09:11:40Z</time>
      </trkpt>
      <trkpt lat="41.87261" lon="9.15619">
        <ele>1396.4</ele>
        <time>2021-06-03T09:11:41Z</time>
      </trkpt>
      <trkpt lat="41.87263" lon="9.15618">
        <ele>1396.4</ele>
        <time>2021-06-03T09:11:42Z</time>
      </trkpt>
      <trkpt lat="41.87264" lon="9.15617">
        <ele>1396.4</ele>
        <time>2021-06-03T09:11:43Z</time>
      </trkpt>
      <trkpt lat="41.87266" lon="9.15615">
        <ele>1395.8</ele>
        <time>2021-06-03T09:11:44Z</time>
      </trkpt>
      <trkpt lat="41.87268" lon="9.15613">
        <ele>1395.8</ele>
        <time>2021-06-03T09:11:45Z</time>
      </trkpt>
      <trkpt lat="41.87269" lon="9.1561">
        <ele>1395.8</ele>
        <time>2021-06-03T09:11:46Z</time>
      </trkpt>
      <trkpt lat="41.8727" lon="9.15608">
        <ele>1395.8</ele>
        <time>2021-06-03T09:11:47Z</time>
      </trkpt>
      <trkpt lat="41.87272" lon="9.15605">
        <ele>1395.4</ele>
        <time>2021-06-03T09:11:48Z</time>
      </trkpt>
      <trkpt lat="41.87273" lon="9.15601">
        <ele>1395.4</ele>
        <time>2021-06-03T09:11:49Z</time>
      </trkpt>
      <trkpt lat="41.87275" lon="9.15597">
        <ele>1395.4</ele>
        <time>2021-06-03T09:11:50Z</time>
      </trkpt>
      <trkpt lat="41.87276" lon="9.15593">
        <ele>1395.4</ele>
        <time>2021-06-03T09:11:51Z</time>
      </trkpt>
      <trkpt lat="41.87277" lon="9.1559">
        <ele>1394.6</ele>
        <time>2021-06-03T09:11:52Z</time>
      </trkpt>
      <trkpt lat="41.87279" lon="9.15586">
        <ele>1394.8</ele>
        <time>2021-06-03T09:11:53Z</time>
      </trkpt>
      <trkpt lat="41.8728" lon="9.15582">
        <ele>1394.8</ele>
        <time>2021-06-03T09:11:54Z</time>
      </trkpt>
      <trkpt lat="41.87281" lon="9.15578">
        <ele>1394.8</ele>
        <time>2021-06-03T09:11:55Z</time>
      </trkpt>
      <trkpt lat="41.87282" lon="9.15574">
        <ele>1394</ele>
        <time>2021-06-03T09:11:56Z</time>
      </trkpt>
      <trkpt lat="41.87282" lon="9.1557">
        <ele>1394</ele>
        <time>2021-06-03T09:11:57Z</time>
      </trkpt>
      <trkpt lat="41.87282" lon="9.15565">
        <ele>1394</ele>
        <time>2021-06-03T09:11:58Z</time>
      </trkpt>
      <trkpt lat="41.87282" lon="9.15561">
        <ele>1394</ele>
        <time>2021-06-03T09:11:59Z</time>
      </trkpt>
      <trkpt lat="41.87283" lon="9.15556">
        <ele>1393.4</ele>
        <time>2021-06-03T09:12:00Z</time>
      </trkpt>
      <trkpt lat="41.87283" lon="9.15551">
        <ele>1393.8</ele>
        <time>2021-06-03T09:12:01Z</time>
      </trkpt>
      <trkpt lat="41.87283" lon="9.15546">
        <ele>1393.8</ele>
        <time>2021-06-03T09:12:02Z</time>
      </trkpt>
      <trkpt lat="41.87284" lon="9.15541">
        <ele>1393.8</ele>
        <time>2021-06-03T09:12:03Z</time>
      </trkpt>
      <trkpt lat="41.87284" lon="9.15536">
        <ele>1393.8</ele>
        <time>2021-06-03T09:12:04Z</time>
      </trkpt>
      <trkpt lat="41.87285" lon="9.1553">
        <ele>1392.8</ele>
        <time>2021-06-03T09:12:05Z</time>
      </trkpt>
      <trkpt lat="41.87285" lon="9.15525">
        <ele>1392.8</ele>
        <time>2021-06-03T09:12:06Z</time>
      </trkpt>
      <trkpt lat="41.87286" lon="9.15519">
        <ele>1392.8</ele>
        <time>2021-06-03T09:12:07Z</time>
      </trkpt>
      <trkpt lat="41.87287" lon="9.15513">
        <ele>1392.8</ele>
        <time>2021-06-03T09:12:08Z</time>
      </trkpt>
      <trkpt lat="41.87288" lon="9.15508">
        <ele>1393.2</ele>
        <time>2021-06-03T09:12:09Z</time>
      </trkpt>
      <trkpt lat="41.87289" lon="9.15503">
        <ele>1393.2</ele>
        <time>2021-06-03T09:12:10Z</time>
      </trkpt>
      <trkpt lat="41.8729" lon="9.15498">
        <ele>1393.2</ele>
        <time>2021-06-03T09:12:11Z</time>
      </trkpt>
      <trkpt lat="41.87291" lon="9.15494">
        <ele>1392.4</ele>
        <time>2021-06-03T09:12:12Z</time>
      </trkpt>
      <trkpt lat="41.87293" lon="9.15489">
        <ele>1392</ele>
        <time>2021-06-03T09:12:13Z</time>
      </trkpt>
      <trkpt lat="41.87295" lon="9.15483">
        <ele>1392</ele>
        <time>2021-06-03T09:12:14Z</time>
      </trkpt>
      <trkpt lat="41.87297" lon="9.15475">
        <ele>1392</ele>
        <time>2021-06-03T09:12:15Z</time>
      </trkpt>
      <trkpt lat="41.873" lon="9.15467">
        <ele>1391</ele>
        <time>2021-06-03T09:12:16Z</time>
      </trkpt>
      <trkpt lat="41.87303" lon="9.1546">
        <ele>1387.6</ele>
        <time>2021-06-03T09:12:17Z</time>
      </trkpt>
      <trkpt lat="41.87306" lon="9.15452">
        <ele>1387.6</ele>
        <time>2021-06-03T09:12:18Z</time>
      </trkpt>
      <trkpt lat="41.87309" lon="9.15443">
        <ele>1387.6</ele>
        <time>2021-06-03T09:12:19Z</time>
      </trkpt>
      <trkpt lat="41.87311" lon="9.15435">
        <ele>1386.6</ele>
        <time>2021-06-03T09:12:20Z</time>
      </trkpt>
      <trkpt lat="41.87314" lon="9.15427">
        <ele>1385.2</ele>
        <time>2021-06-03T09:12:21Z</time>
      </trkpt>
      <trkpt lat="41.87317" lon="9.15419">
        <ele>1385.2</ele>
        <time>2021-06-03T09:12:22Z</time>
      </trkpt>
      <trkpt lat="41.87319" lon="9.15412">
        <ele>1385.2</ele>
        <time>2021-06-03T09:12:23Z</time>
      </trkpt>
      <trkpt lat="41.87321" lon="9.15405">
        <ele>1384.2</ele>
        <time>2021-06-03T09:12:24Z</time>
      </trkpt>
      <trkpt lat="41.87324" lon="9.15398">
        <ele>1383</ele>
        <time>2021-06-03T09:12:25Z</time>
      </trkpt>
      <trkpt lat="41.87326" lon="9.15391">
        <ele>1383</ele>
        <time>2021-06-03T09:12:26Z</time>
      </trkpt>
      <trkpt lat="41.87329" lon="9.15383">
        <ele>1383</ele>
        <time>2021-06-03T09:12:27Z</time>
      </trkpt>
      <trkpt lat="41.87332" lon="9.15376">
        <ele>1382</ele>
        <time>2021-06-03T09:12:28Z</time>
      </trkpt>
      <trkpt lat="41.87335" lon="9.15369">
        <ele>1382.4</ele>
        <time>2021-06-03T09:12:29Z</time>
      </trkpt>
      <trkpt lat="41.87337" lon="9.15363">
        <ele>1382.4</ele>
        <time>2021-06-03T09:12:30Z</time>
      </trkpt>
      <trkpt lat="41.87339" lon="9.15356">
        <ele>1382.4</ele>
        <time>2021-06-03T09:12:31Z</time>
      </trkpt>
      <trkpt lat="41.87341" lon="9.15351">
        <ele>1381.4</ele>
        <time>2021-06-03T09:12:32Z</time>
      </trkpt>
      <trkpt lat="41.87342" lon="9.15346">
        <ele>1381.6</ele>
        <time>2021-06-03T09:12:33Z</time>
      </trkpt>
      <trkpt lat="41.87344" lon="9.15342">
        <ele>1381.6</ele>
        <time>2021-06-03T09:12:34Z</time>
      </trkpt>
      <trkpt lat="41.87345" lon="9.15338">
        <ele>1381.6</ele>
        <time>2021-06-03T09:12:35Z</time>
      </trkpt>
      <trkpt lat="41.87347" lon="9.15335">
        <ele>1381.4</ele>
        <time>2021-06-03T09:12:36Z</time>
      </trkpt>
      <trkpt lat="41.87348" lon="9.15332">
        <ele>1381</ele>
        <time>2021-06-03T09:12:37Z</time>
      </trkpt>
      <trkpt lat="41.87349" lon="9.15329">
        <ele>1381</ele>
        <time>2021-06-03T09:12:38Z</time>
      </trkpt>
      <trkpt lat="41.8735" lon="9.15326">
        <ele>1381</ele>
        <time>2021-06-03T09:12:39Z</time>
      </trkpt>
      <trkpt lat="41.8735" lon="9.15323">
        <ele>1381</ele>
        <time>2021-06-03T09:12:40Z</time>
      </trkpt>
      <trkpt lat="41.87351" lon="9.1532">
        <ele>1380.8</ele>
        <time>2021-06-03T09:12:41Z</time>
      </trkpt>
      <trkpt lat="41.87352" lon="9.15317">
        <ele>1380.8</ele>
        <time>2021-06-03T09:12:42Z</time>
      </trkpt>
      <trkpt lat="41.87353" lon="9.15314">
        <ele>1380.8</ele>
        <time>2021-06-03T09:12:43Z</time>
      </trkpt>
      <trkpt lat="41.87354" lon="9.15311">
        <ele>1381.6</ele>
        <time>2021-06-03T09:12:44Z</time>
      </trkpt>
      <trkpt lat="41.87355" lon="9.15309">
        <ele>1381.8</ele>
        <time>2021-06-03T09:12:45Z</time>
      </trkpt>
      <trkpt lat="41.87356" lon="9.15306">
        <ele>1381.8</ele>
        <time>2021-06-03T09:12:46Z</time>
      </trkpt>
      <trkpt lat="41.87357" lon="9.15303">
        <ele>1381.8</ele>
        <time>2021-06-03T09:12:47Z</time>
      </trkpt>
      <trkpt lat="41.87358" lon="9.153">
        <ele>1381.6</ele>
        <time>2021-06-03T09:12:48Z</time>
      </trkpt>
      <trkpt lat="41.8736" lon="9.15297">
        <ele>1381.6</ele>
        <time>2021-06-03T09:12:49Z</time>
      </trkpt>
      <trkpt lat="41.87361" lon="9.15294">
        <ele>1381.6</ele>
        <time>2021-06-03T09:12:50Z</time>
      </trkpt>
      <trkpt lat="41.87362" lon="9.15291">
        <ele>1381.6</ele>
        <time>2021-06-03T09:12:51Z</time>
      </trkpt>
      <trkpt lat="41.87363" lon="9.15288">
        <ele>1382</ele>
        <time>2021-06-03T09:12:52Z</time>
      </trkpt>
      <trkpt lat="41.87364" lon="9.15284">
        <ele>1382.2</ele>
        <time>2021-06-03T09:12:53Z</time>
      </trkpt>
      <trkpt lat="41.87366" lon="9.15282">
        <ele>1382.2</ele>
        <time>2021-06-03T09:12:54Z</time>
      </trkpt>
      <trkpt lat="41.87368" lon="9.15279">
        <ele>1382.2</ele>
        <time>2021-06-03T09:12:55Z</time>
      </trkpt>
      <trkpt lat="41.8737" lon="9.15276">
        <ele>1382.4</ele>
        <time>2021-06-03T09:12:56Z</time>
      </trkpt>
      <trkpt lat="41.87371" lon="9.15274">
        <ele>1383</ele>
        <time>2021-06-03T09:12:57Z</time>
      </trkpt>
      <trkpt lat="41.87373" lon="9.15271">
        <ele>1383</ele>
        <time>2021-06-03T09:12:58Z</time>
      </trkpt>
      <trkpt lat="41.87374" lon="9.15268">
        <ele>1383</ele>
        <time>2021-06-03T09:12:59Z</time>
      </trkpt>
      <trkpt lat="41.87375" lon="9.15266">
        <ele>1382.6</ele>
        <time>2021-06-03T09:13:00Z</time>
      </trkpt>
      <trkpt lat="41.87376" lon="9.15263">
        <ele>1382.8</ele>
        <time>2021-06-03T09:13:01Z</time>
      </trkpt>
      <trkpt lat="41.87378" lon="9.15261">
        <ele>1382.8</ele>
        <time>2021-06-03T09:13:02Z</time>
      </trkpt>
      <trkpt lat="41.87379" lon="9.15258">
        <ele>1382.8</ele>
        <time>2021-06-03T09:13:03Z</time>
      </trkpt>
      <trkpt lat="41.8738" lon="9.15256">
        <ele>1383</ele>
        <time>2021-06-03T09:13:04Z</time>
      </trkpt>
      <trkpt lat="41.87382" lon="9.15253">
        <ele>1383.6</ele>
        <time>2021-06-03T09:13:05Z</time>
      </trkpt>
      <trkpt lat="41.87383" lon="9.1525">
        <ele>1383.6</ele>
        <time>2021-06-03T09:13:06Z</time>
      </trkpt>
      <trkpt lat="41.87384" lon="9.15248">
        <ele>1383.6</ele>
        <time>2021-06-03T09:13:07Z</time>
      </trkpt>
      <trkpt lat="41.87386" lon="9.15246">
        <ele>1383.6</ele>
        <time>2021-06-03T09:13:08Z</time>
      </trkpt>
      <trkpt lat="41.87387" lon="9.15244">
        <ele>1383.8</ele>
        <time>2021-06-03T09:13:09Z</time>
      </trkpt>
      <trkpt lat="41.87389" lon="9.15242">
        <ele>1383.8</ele>
        <time>2021-06-03T09:13:10Z</time>
      </trkpt>
      <trkpt lat="41.87391" lon="9.1524">
        <ele>1383.8</ele>
        <time>2021-06-03T09:13:11Z</time>
      </trkpt>
      <trkpt lat="41.87392" lon="9.15238">
        <ele>1384.2</ele>
        <time>2021-06-03T09:13:12Z</time>
      </trkpt>
      <trkpt lat="41.87394" lon="9.15235">
        <ele>1384</ele>
        <time>2021-06-03T09:13:13Z</time>
      </trkpt>
      <trkpt lat="41.87395" lon="9.15233">
        <ele>1384</ele>
        <time>2021-06-03T09:13:14Z</time>
      </trkpt>
      <trkpt lat="41.87397" lon="9.15231">
        <ele>1384</ele>
        <time>2021-06-03T09:13:15Z</time>
      </trkpt>
      <trkpt lat="41.87399" lon="9.1523">
        <ele>1384</ele>
        <time>2021-06-03T09:13:16Z</time>
      </trkpt>
      <trkpt lat="41.87401" lon="9.15228">
        <ele>1384</ele>
        <time>2021-06-03T09:13:17Z</time>
      </trkpt>
      <trkpt lat="41.87402" lon="9.15226">
        <ele>1384</ele>
        <time>2021-06-03T09:13:18Z</time>
      </trkpt>
      <trkpt lat="41.87404" lon="9.15224">
        <ele>1384</ele>
        <time>2021-06-03T09:13:19Z</time>
      </trkpt>
      <trkpt lat="41.87405" lon="9.15222">
        <ele>1384</ele>
        <time>2021-06-03T09:13:20Z</time>
      </trkpt>
      <trkpt lat="41.87407" lon="9.1522">
        <ele>1384.6</ele>
        <time>2021-06-03T09:13:21Z</time>
      </trkpt>
      <trkpt lat="41.87408" lon="9.15218">
        <ele>1384.6</ele>
        <time>2021-06-03T09:13:22Z</time>
      </trkpt>
      <trkpt lat="41.87409" lon="9.15216">
        <ele>1384.6</ele>
        <time>2021-06-03T09:13:23Z</time>
      </trkpt>
      <trkpt lat="41.87411" lon="9.15214">
        <ele>1385.2</ele>
        <time>2021-06-03T09:13:24Z</time>
      </trkpt>
      <trkpt lat="41.87413" lon="9.15212">
        <ele>1385</ele>
        <time>2021-06-03T09:13:25Z</time>
      </trkpt>
      <trkpt lat="41.87414" lon="9.1521">
        <ele>1385</ele>
        <time>2021-06-03T09:13:26Z</time>
      </trkpt>
      <trkpt lat="41.87415" lon="9.15207">
        <ele>1385</ele>
        <time>2021-06-03T09:13:27Z</time>
      </trkpt>
      <trkpt lat="41.87416" lon="9.15205">
        <ele>1385.8</ele>
        <time>2021-06-03T09:13:28Z</time>
      </trkpt>
      <trkpt lat="41.87417" lon="9.15203">
        <ele>1386</ele>
        <time>2021-06-03T09:13:29Z</time>
      </trkpt>
      <trkpt lat="41.87418" lon="9.15201">
        <ele>1386</ele>
        <time>2021-06-03T09:13:30Z</time>
      </trkpt>
      <trkpt lat="41.87419" lon="9.152">
        <ele>1386</ele>
        <time>2021-06-03T09:13:31Z</time>
      </trkpt>
      <trkpt lat="41.87421" lon="9.15198">
        <ele>1386</ele>
        <time>2021-06-03T09:13:32Z</time>
      </trkpt>
      <trkpt lat="41.87422" lon="9.15196">
        <ele>1386</ele>
        <time>2021-06-03T09:13:33Z</time>
      </trkpt>
      <trkpt lat="41.87424" lon="9.15194">
        <ele>1386</ele>
        <time>2021-06-03T09:13:34Z</time>
      </trkpt>
      <trkpt lat="41.87426" lon="9.15192">
        <ele>1386</ele>
        <time>2021-06-03T09:13:35Z</time>
      </trkpt>
      <trkpt lat="41.87429" lon="9.15189">
        <ele>1385</ele>
        <time>2021-06-03T09:13:36Z</time>
      </trkpt>
      <trkpt lat="41.87431" lon="9.15186">
        <ele>1384</ele>
        <time>2021-06-03T09:13:37Z</time>
      </trkpt>
      <trkpt lat="41.87435" lon="9.15183">
        <ele>1384</ele>
        <time>2021-06-03T09:13:38Z</time>
      </trkpt>
      <trkpt lat="41.87438" lon="9.15179">
        <ele>1384</ele>
        <time>2021-06-03T09:13:39Z</time>
      </trkpt>
      <trkpt lat="41.87442" lon="9.15175">
        <ele>1383</ele>
        <time>2021-06-03T09:13:40Z</time>
      </trkpt>
      <trkpt lat="41.87446" lon="9.15171">
        <ele>1382</ele>
        <time>2021-06-03T09:13:41Z</time>
      </trkpt>
      <trkpt lat="41.8745" lon="9.15167">
        <ele>1382</ele>
        <time>2021-06-03T09:13:42Z</time>
      </trkpt>
      <trkpt lat="41.87453" lon="9.15163">
        <ele>1382</ele>
        <time>2021-06-03T09:13:43Z</time>
      </trkpt>
      <trkpt lat="41.87457" lon="9.15158">
        <ele>1382</ele>
        <time>2021-06-03T09:13:44Z</time>
      </trkpt>
      <trkpt lat="41.8746" lon="9.15155">
        <ele>1380</ele>
        <time>2021-06-03T09:13:45Z</time>
      </trkpt>
      <trkpt lat="41.87463" lon="9.15152">
        <ele>1380</ele>
        <time>2021-06-03T09:13:46Z</time>
      </trkpt>
      <trkpt lat="41.87466" lon="9.15148">
        <ele>1380</ele>
        <time>2021-06-03T09:13:47Z</time>
      </trkpt>
      <trkpt lat="41.87469" lon="9.15143">
        <ele>1379</ele>
        <time>2021-06-03T09:13:48Z</time>
      </trkpt>
      <trkpt lat="41.87473" lon="9.1514">
        <ele>1379.2</ele>
        <time>2021-06-03T09:13:49Z</time>
      </trkpt>
      <trkpt lat="41.87476" lon="9.15136">
        <ele>1379.2</ele>
        <time>2021-06-03T09:13:50Z</time>
      </trkpt>
      <trkpt lat="41.8748" lon="9.15132">
        <ele>1379.2</ele>
        <time>2021-06-03T09:13:51Z</time>
      </trkpt>
      <trkpt lat="41.87483" lon="9.15128">
        <ele>1379.2</ele>
        <time>2021-06-03T09:13:52Z</time>
      </trkpt>
      <trkpt lat="41.87487" lon="9.15124">
        <ele>1379</ele>
        <time>2021-06-03T09:13:53Z</time>
      </trkpt>
      <trkpt lat="41.8749" lon="9.1512">
        <ele>1379</ele>
        <time>2021-06-03T09:13:54Z</time>
      </trkpt>
      <trkpt lat="41.87493" lon="9.15116">
        <ele>1379</ele>
        <time>2021-06-03T09:13:55Z</time>
      </trkpt>
      <trkpt lat="41.87495" lon="9.15111">
        <ele>1380</ele>
        <time>2021-06-03T09:13:56Z</time>
      </trkpt>
      <trkpt lat="41.87497" lon="9.15107">
        <ele>1380.2</ele>
        <time>2021-06-03T09:13:57Z</time>
      </trkpt>
      <trkpt lat="41.87498" lon="9.15103">
        <ele>1380.2</ele>
        <time>2021-06-03T09:13:58Z</time>
      </trkpt>
      <trkpt lat="41.87498" lon="9.15099">
        <ele>1380.2</ele>
        <time>2021-06-03T09:13:59Z</time>
      </trkpt>
      <trkpt lat="41.87498" lon="9.15094">
        <ele>1380.2</ele>
        <time>2021-06-03T09:14:00Z</time>
      </trkpt>
      <trkpt lat="41.87498" lon="9.15089">
        <ele>1380.2</ele>
        <time>2021-06-03T09:14:01Z</time>
      </trkpt>
      <trkpt lat="41.87498" lon="9.15083">
        <ele>1380.2</ele>
        <time>2021-06-03T09:14:02Z</time>
      </trkpt>
      <trkpt lat="41.87499" lon="9.15078">
        <ele>1380.2</ele>
        <time>2021-06-03T09:14:03Z</time>
      </trkpt>
      <trkpt lat="41.87499" lon="9.15072">
        <ele>1379.8</ele>
        <time>2021-06-03T09:14:04Z</time>
      </trkpt>
      <trkpt lat="41.875" lon="9.15066">
        <ele>1379</ele>
        <time>2021-06-03T09:14:05Z</time>
      </trkpt>
      <trkpt lat="41.87502" lon="9.15061">
        <ele>1379</ele>
        <time>2021-06-03T09:14:06Z</time>
      </trkpt>
      <trkpt lat="41.87505" lon="9.15057">
        <ele>1379</ele>
        <time>2021-06-03T09:14:07Z</time>
      </trkpt>
      <trkpt lat="41.87509" lon="9.15055">
        <ele>1378.2</ele>
        <time>2021-06-03T09:14:08Z</time>
      </trkpt>
      <trkpt lat="41.87512" lon="9.15056">
        <ele>1377.6</ele>
        <time>2021-06-03T09:14:09Z</time>
      </trkpt>
      <trkpt lat="41.87515" lon="9.15058">
        <ele>1377.6</ele>
        <time>2021-06-03T09:14:10Z</time>
      </trkpt>
      <trkpt lat="41.87518" lon="9.15061">
        <ele>1377.6</ele>
        <time>2021-06-03T09:14:11Z</time>
      </trkpt>
      <trkpt lat="41.87522" lon="9.15064">
        <ele>1376.6</ele>
        <time>2021-06-03T09:14:12Z</time>
      </trkpt>
      <trkpt lat="41.87525" lon="9.15069">
        <ele>1374.8</ele>
        <time>2021-06-03T09:14:13Z</time>
      </trkpt>
      <trkpt lat="41.87529" lon="9.15073">
        <ele>1374.8</ele>
        <time>2021-06-03T09:14:14Z</time>
      </trkpt>
      <trkpt lat="41.87533" lon="9.15076">
        <ele>1374.8</ele>
        <time>2021-06-03T09:14:15Z</time>
      </trkpt>
      <trkpt lat="41.87537" lon="9.1508">
        <ele>1374</ele>
        <time>2021-06-03T09:14:16Z</time>
      </trkpt>
      <trkpt lat="41.8754" lon="9.15084">
        <ele>1373.8</ele>
        <time>2021-06-03T09:14:17Z</time>
      </trkpt>
      <trkpt lat="41.87543" lon="9.15088">
        <ele>1373.8</ele>
        <time>2021-06-03T09:14:18Z</time>
      </trkpt>
      <trkpt lat="41.87546" lon="9.15092">
        <ele>1373.8</ele>
        <time>2021-06-03T09:14:19Z</time>
      </trkpt>
      <trkpt lat="41.8755" lon="9.15097">
        <ele>1372.8</ele>
        <time>2021-06-03T09:14:20Z</time>
      </trkpt>
      <trkpt lat="41.87554" lon="9.15102">
        <ele>1371.2</ele>
        <time>2021-06-03T09:14:21Z</time>
      </trkpt>
      <trkpt lat="41.87558" lon="9.15108">
        <ele>1371.2</ele>
        <time>2021-06-03T09:14:22Z</time>
      </trkpt>
      <trkpt lat="41.87562" lon="9.15113">
        <ele>1371.2</ele>
        <time>2021-06-03T09:14:23Z</time>
      </trkpt>
      <trkpt lat="41.87566" lon="9.15117">
        <ele>1370.4</ele>
        <time>2021-06-03T09:14:24Z</time>
      </trkpt>
      <trkpt lat="41.87571" lon="9.15122">
        <ele>1370</ele>
        <time>2021-06-03T09:14:25Z</time>
      </trkpt>
      <trkpt lat="41.87575" lon="9.15127">
        <ele>1370</ele>
        <time>2021-06-03T09:14:26Z</time>
      </trkpt>
      <trkpt lat="41.87579" lon="9.15132">
        <ele>1370</ele>
        <time>2021-06-03T09:14:27Z</time>
      </trkpt>
      <trkpt lat="41.87583" lon="9.15137">
        <ele>1370</ele>
        <time>2021-06-03T09:14:28Z</time>
      </trkpt>
      <trkpt lat="41.87588" lon="9.15143">
        <ele>1366.2</ele>
        <time>2021-06-03T09:14:29Z</time>
      </trkpt>
      <trkpt lat="41.87594" lon="9.15148">
        <ele>1366.2</ele>
        <time>2021-06-03T09:14:30Z</time>
      </trkpt>
      <trkpt lat="41.87599" lon="9.15153">
        <ele>1366.2</ele>
        <time>2021-06-03T09:14:31Z</time>
      </trkpt>
      <trkpt lat="41.87604" lon="9.15156">
        <ele>1366.2</ele>
        <time>2021-06-03T09:14:32Z</time>
      </trkpt>
      <trkpt lat="41.87608" lon="9.15159">
        <ele>1364</ele>
        <time>2021-06-03T09:14:33Z</time>
      </trkpt>
      <trkpt lat="41.87612" lon="9.15162">
        <ele>1364</ele>
        <time>2021-06-03T09:14:34Z</time>
      </trkpt>
      <trkpt lat="41.87617" lon="9.15164">
        <ele>1364</ele>
        <time>2021-06-03T09:14:35Z</time>
      </trkpt>
      <trkpt lat="41.87621" lon="9.15168">
        <ele>1364</ele>
        <time>2021-06-03T09:14:36Z</time>
      </trkpt>
      <trkpt lat="41.87625" lon="9.15171">
        <ele>1362.6</ele>
        <time>2021-06-03T09:14:37Z</time>
      </trkpt>
      <trkpt lat="41.87632" lon="9.15176">
        <ele>1362.6</ele>
        <time>2021-06-03T09:14:38Z</time>
      </trkpt>
      <trkpt lat="41.87638" lon="9.15181">
        <ele>1362.6</ele>
        <time>2021-06-03T09:14:39Z</time>
      </trkpt>
      <trkpt lat="41.87644" lon="9.15188">
        <ele>1361.6</ele>
        <time>2021-06-03T09:14:40Z</time>
      </trkpt>
      <trkpt lat="41.87652" lon="9.15194">
        <ele>1360.4</ele>
        <time>2021-06-03T09:14:41Z</time>
      </trkpt>
      <trkpt lat="41.8766" lon="9.152">
        <ele>1360.4</ele>
        <time>2021-06-03T09:14:42Z</time>
      </trkpt>
      <trkpt lat="41.87668" lon="9.15204">
        <ele>1360.4</ele>
        <time>2021-06-03T09:14:43Z</time>
      </trkpt>
      <trkpt lat="41.87676" lon="9.15208">
        <ele>1359.4</ele>
        <time>2021-06-03T09:14:44Z</time>
      </trkpt>
      <trkpt lat="41.87684" lon="9.15212">
        <ele>1357</ele>
        <time>2021-06-03T09:14:45Z</time>
      </trkpt>
      <trkpt lat="41.87691" lon="9.15215">
        <ele>1357</ele>
        <time>2021-06-03T09:14:46Z</time>
      </trkpt>
      <trkpt lat="41.87698" lon="9.15217">
        <ele>1357</ele>
        <time>2021-06-03T09:14:47Z</time>
      </trkpt>
      <trkpt lat="41.87704" lon="9.15219">
        <ele>1357.4</ele>
        <time>2021-06-03T09:14:48Z</time>
      </trkpt>
      <trkpt lat="41.87711" lon="9.15222">
        <ele>1356.8</ele>
        <time>2021-06-03T09:14:49Z</time>
      </trkpt>
      <trkpt lat="41.87719" lon="9.15225">
        <ele>1356.8</ele>
        <time>2021-06-03T09:14:50Z</time>
      </trkpt>
      <trkpt lat="41.87726" lon="9.15228">
        <ele>1356.8</ele>
        <time>2021-06-03T09:14:51Z</time>
      </trkpt>
      <trkpt lat="41.87733" lon="9.15231">
        <ele>1355.8</ele>
        <time>2021-06-03T09:14:52Z</time>
      </trkpt>
      <trkpt lat="41.8774" lon="9.15234">
        <ele>1356.6</ele>
        <time>2021-06-03T09:14:53Z</time>
      </trkpt>
      <trkpt lat="41.87745" lon="9.15237">
        <ele>1356.6</ele>
        <time>2021-06-03T09:14:54Z</time>
      </trkpt>
      <trkpt lat="41.8775" lon="9.15242">
        <ele>1356.6</ele>
        <time>2021-06-03T09:14:55Z</time>
      </trkpt>
      <trkpt lat="41.87755" lon="9.15247">
        <ele>1356.6</ele>
        <time>2021-06-03T09:14:56Z</time>
      </trkpt>
      <trkpt lat="41.87759" lon="9.15253">
        <ele>1354</ele>
        <time>2021-06-03T09:14:57Z</time>
      </trkpt>
      <trkpt lat="41.87763" lon="9.15261">
        <ele>1354</ele>
        <time>2021-06-03T09:14:58Z</time>
      </trkpt>
      <trkpt lat="41.87766" lon="9.15268">
        <ele>1354</ele>
        <time>2021-06-03T09:14:59Z</time>
      </trkpt>
      <trkpt lat="41.8777" lon="9.15276">
        <ele>1353</ele>
        <time>2021-06-03T09:15:00Z</time>
      </trkpt>
      <trkpt lat="41.87775" lon="9.15284">
        <ele>1351</ele>
        <time>2021-06-03T09:15:01Z</time>
      </trkpt>
      <trkpt lat="41.87779" lon="9.15292">
        <ele>1351</ele>
        <time>2021-06-03T09:15:02Z</time>
      </trkpt>
      <trkpt lat="41.87784" lon="9.153">
        <ele>1351</ele>
        <time>2021-06-03T09:15:03Z</time>
      </trkpt>
      <trkpt lat="41.87789" lon="9.15306">
        <ele>1350</ele>
        <time>2021-06-03T09:15:04Z</time>
      </trkpt>
      <trkpt lat="41.87795" lon="9.15312">
        <ele>1347.8</ele>
        <time>2021-06-03T09:15:05Z</time>
      </trkpt>
      <trkpt lat="41.878" lon="9.15318">
        <ele>1347.8</ele>
        <time>2021-06-03T09:15:06Z</time>
      </trkpt>
      <trkpt lat="41.87805" lon="9.15324">
        <ele>1347.8</ele>
        <time>2021-06-03T09:15:07Z</time>
      </trkpt>
      <trkpt lat="41.87811" lon="9.15329">
        <ele>1347.4</ele>
        <time>2021-06-03T09:15:08Z</time>
      </trkpt>
      <trkpt lat="41.87818" lon="9.15332">
        <ele>1345.4</ele>
        <time>2021-06-03T09:15:09Z</time>
      </trkpt>
      <trkpt lat="41.87825" lon="9.15337">
        <ele>1345.4</ele>
        <time>2021-06-03T09:15:10Z</time>
      </trkpt>
      <trkpt lat="41.87832" lon="9.1534">
        <ele>1345.4</ele>
        <time>2021-06-03T09:15:11Z</time>
      </trkpt>
      <trkpt lat="41.87838" lon="9.15342">
        <ele>1344.4</ele>
        <time>2021-06-03T09:15:12Z</time>
      </trkpt>
      <trkpt lat="41.87846" lon="9.15344">
        <ele>1342</ele>
        <time>2021-06-03T09:15:13Z</time>
      </trkpt>
      <trkpt lat="41.87852" lon="9.15345">
        <ele>1342</ele>
        <time>2021-06-03T09:15:14Z</time>
      </trkpt>
      <trkpt lat="41.87859" lon="9.15345">
        <ele>1342</ele>
        <time>2021-06-03T09:15:15Z</time>
      </trkpt>
      <trkpt lat="41.87865" lon="9.15346">
        <ele>1343</ele>
        <time>2021-06-03T09:15:16Z</time>
      </trkpt>
      <trkpt lat="41.87869" lon="9.15348">
        <ele>1343.6</ele>
        <time>2021-06-03T09:15:17Z</time>
      </trkpt>
      <trkpt lat="41.87875" lon="9.15349">
        <ele>1343.6</ele>
        <time>2021-06-03T09:15:18Z</time>
      </trkpt>
      <trkpt lat="41.87879" lon="9.15349">
        <ele>1343.6</ele>
        <time>2021-06-03T09:15:19Z</time>
      </trkpt>
      <trkpt lat="41.87885" lon="9.15351">
        <ele>1344.6</ele>
        <time>2021-06-03T09:15:20Z</time>
      </trkpt>
      <trkpt lat="41.87889" lon="9.15352">
        <ele>1345</ele>
        <time>2021-06-03T09:15:21Z</time>
      </trkpt>
      <trkpt lat="41.87894" lon="9.15353">
        <ele>1345</ele>
        <time>2021-06-03T09:15:22Z</time>
      </trkpt>
      <trkpt lat="41.87898" lon="9.15354">
        <ele>1345</ele>
        <time>2021-06-03T09:15:23Z</time>
      </trkpt>
      <trkpt lat="41.87903" lon="9.15354">
        <ele>1346</ele>
        <time>2021-06-03T09:15:24Z</time>
      </trkpt>
      <trkpt lat="41.87908" lon="9.15353">
        <ele>1346.6</ele>
        <time>2021-06-03T09:15:25Z</time>
      </trkpt>
      <trkpt lat="41.87914" lon="9.15352">
        <ele>1346.6</ele>
        <time>2021-06-03T09:15:26Z</time>
      </trkpt>
      <trkpt lat="41.87918" lon="9.1535">
        <ele>1346.6</ele>
        <time>2021-06-03T09:15:27Z</time>
      </trkpt>
      <trkpt lat="41.87922" lon="9.15349">
        <ele>1347.6</ele>
        <time>2021-06-03T09:15:28Z</time>
      </trkpt>
      <trkpt lat="41.87925" lon="9.15347">
        <ele>1347.8</ele>
        <time>2021-06-03T09:15:29Z</time>
      </trkpt>
      <trkpt lat="41.87927" lon="9.15345">
        <ele>1347.8</ele>
        <time>2021-06-03T09:15:30Z</time>
      </trkpt>
      <trkpt lat="41.87931" lon="9.15343">
        <ele>1347.8</ele>
        <time>2021-06-03T09:15:31Z</time>
      </trkpt>
      <trkpt lat="41.87934" lon="9.15341">
        <ele>1347.2</ele>
        <time>2021-06-03T09:15:32Z</time>
      </trkpt>
      <trkpt lat="41.87936" lon="9.15338">
        <ele>1347.4</ele>
        <time>2021-06-03T09:15:33Z</time>
      </trkpt>
      <trkpt lat="41.87939" lon="9.15336">
        <ele>1347.4</ele>
        <time>2021-06-03T09:15:34Z</time>
      </trkpt>
      <trkpt lat="41.87942" lon="9.15335">
        <ele>1347.4</ele>
        <time>2021-06-03T09:15:35Z</time>
      </trkpt>
      <trkpt lat="41.87946" lon="9.15332">
        <ele>1347.8</ele>
        <time>2021-06-03T09:15:36Z</time>
      </trkpt>
      <trkpt lat="41.8795" lon="9.15329">
        <ele>1348</ele>
        <time>2021-06-03T09:15:37Z</time>
      </trkpt>
      <trkpt lat="41.87952" lon="9.15327">
        <ele>1348</ele>
        <time>2021-06-03T09:15:38Z</time>
      </trkpt>
      <trkpt lat="41.87955" lon="9.15325">
        <ele>1348</ele>
        <time>2021-06-03T09:15:39Z</time>
      </trkpt>
      <trkpt lat="41.87959" lon="9.15324">
        <ele>1348</ele>
        <time>2021-06-03T09:15:40Z</time>
      </trkpt>
      <trkpt lat="41.87962" lon="9.15322">
        <ele>1348.6</ele>
        <time>2021-06-03T09:15:41Z</time>
      </trkpt>
      <trkpt lat="41.87963" lon="9.15321">
        <ele>1348.6</ele>
        <time>2021-06-03T09:15:42Z</time>
      </trkpt>
      <trkpt lat="41.87966" lon="9.15319">
        <ele>1348.6</ele>
        <time>2021-06-03T09:15:43Z</time>
      </trkpt>
      <trkpt lat="41.87967" lon="9.15318">
        <ele>1348.6</ele>
        <time>2021-06-03T09:15:44Z</time>
      </trkpt>
      <trkpt lat="41.87969" lon="9.15317">
        <ele>1348.2</ele>
        <time>2021-06-03T09:15:45Z</time>
      </trkpt>
      <trkpt lat="41.87971" lon="9.15315">
        <ele>1348.2</ele>
        <time>2021-06-03T09:15:46Z</time>
      </trkpt>
      <trkpt lat="41.87973" lon="9.15314">
        <ele>1348.2</ele>
        <time>2021-06-03T09:15:47Z</time>
      </trkpt>
      <trkpt lat="41.87975" lon="9.15312">
        <ele>1348.2</ele>
        <time>2021-06-03T09:15:48Z</time>
      </trkpt>
      <trkpt lat="41.87976" lon="9.15311">
        <ele>1348.4</ele>
        <time>2021-06-03T09:15:49Z</time>
      </trkpt>
      <trkpt lat="41.87978" lon="9.15309">
        <ele>1348.4</ele>
        <time>2021-06-03T09:15:50Z</time>
      </trkpt>
      <trkpt lat="41.8798" lon="9.15308">
        <ele>1348.4</ele>
        <time>2021-06-03T09:15:51Z</time>
      </trkpt>
      <trkpt lat="41.87982" lon="9.15306">
        <ele>1349.2</ele>
        <time>2021-06-03T09:15:52Z</time>
      </trkpt>
      <trkpt lat="41.87983" lon="9.15304">
        <ele>1349.6</ele>
        <time>2021-06-03T09:15:53Z</time>
      </trkpt>
      <trkpt lat="41.87984" lon="9.15302">
        <ele>1349.6</ele>
        <time>2021-06-03T09:15:54Z</time>
      </trkpt>
      <trkpt lat="41.87986" lon="9.153">
        <ele>1349.6</ele>
        <time>2021-06-03T09:15:55Z</time>
      </trkpt>
      <trkpt lat="41.87987" lon="9.15298">
        <ele>1349.6</ele>
        <time>2021-06-03T09:15:56Z</time>
      </trkpt>
      <trkpt lat="41.87988" lon="9.15295">
        <ele>1349.8</ele>
        <time>2021-06-03T09:15:57Z</time>
      </trkpt>
      <trkpt lat="41.87988" lon="9.15293">
        <ele>1349.8</ele>
        <time>2021-06-03T09:15:58Z</time>
      </trkpt>
      <trkpt lat="41.87988" lon="9.1529">
        <ele>1349.8</ele>
        <time>2021-06-03T09:15:59Z</time>
      </trkpt>
      <trkpt lat="41.87988" lon="9.15288">
        <ele>1349.8</ele>
        <time>2021-06-03T09:16:00Z</time>
      </trkpt>
      <trkpt lat="41.87988" lon="9.15285">
        <ele>1350.2</ele>
        <time>2021-06-03T09:16:01Z</time>
      </trkpt>
      <trkpt lat="41.87988" lon="9.15283">
        <ele>1350.2</ele>
        <time>2021-06-03T09:16:02Z</time>
      </trkpt>
      <trkpt lat="41.87988" lon="9.1528">
        <ele>1350.2</ele>
        <time>2021-06-03T09:16:03Z</time>
      </trkpt>
      <trkpt lat="41.87988" lon="9.15278">
        <ele>1350.2</ele>
        <time>2021-06-03T09:16:04Z</time>
      </trkpt>
      <trkpt lat="41.87987" lon="9.15275">
        <ele>1350.6</ele>
        <time>2021-06-03T09:16:05Z</time>
      </trkpt>
      <trkpt lat="41.87986" lon="9.15273">
        <ele>1350.6</ele>
        <time>2021-06-03T09:16:06Z</time>
      </trkpt>
      <trkpt lat="41.87985" lon="9.1527">
        <ele>1350.6</ele>
        <time>2021-06-03T09:16:07Z</time>
      </trkpt>
      <trkpt lat="41.87984" lon="9.15268">
        <ele>1350.8</ele>
        <time>2021-06-03T09:16:08Z</time>
      </trkpt>
      <trkpt lat="41.87983" lon="9.15266">
        <ele>1350.8</ele>
        <time>2021-06-03T09:16:09Z</time>
      </trkpt>
      <trkpt lat="41.87982" lon="9.15264">
        <ele>1350.8</ele>
        <time>2021-06-03T09:16:10Z</time>
      </trkpt>
      <trkpt lat="41.87981" lon="9.15261">
        <ele>1350.8</ele>
        <time>2021-06-03T09:16:11Z</time>
      </trkpt>
      <trkpt lat="41.8798" lon="9.15259">
        <ele>1350.8</ele>
        <time>2021-06-03T09:16:12Z</time>
      </trkpt>
      <trkpt lat="41.87978" lon="9.15257">
        <ele>1351.2</ele>
        <time>2021-06-03T09:16:13Z</time>
      </trkpt>
      <trkpt lat="41.87977" lon="9.15254">
        <ele>1351.2</ele>
        <time>2021-06-03T09:16:14Z</time>
      </trkpt>
      <trkpt lat="41.87976" lon="9.15252">
        <ele>1351.2</ele>
        <time>2021-06-03T09:16:15Z</time>
      </trkpt>
      <trkpt lat="41.87976" lon="9.15249">
        <ele>1351.2</ele>
        <time>2021-06-03T09:16:16Z</time>
      </trkpt>
      <trkpt lat="41.87975" lon="9.15246">
        <ele>1351.6</ele>
        <time>2021-06-03T09:16:17Z</time>
      </trkpt>
      <trkpt lat="41.87975" lon="9.15243">
        <ele>1351.6</ele>
        <time>2021-06-03T09:16:18Z</time>
      </trkpt>
      <trkpt lat="41.87975" lon="9.15241">
        <ele>1351.6</ele>
        <time>2021-06-03T09:16:19Z</time>
      </trkpt>
      <trkpt lat="41.87975" lon="9.15238">
        <ele>1351.6</ele>
        <time>2021-06-03T09:16:20Z</time>
      </trkpt>
      <trkpt lat="41.87975" lon="9.15236">
        <ele>1352.8</ele>
        <time>2021-06-03T09:16:21Z</time>
      </trkpt>
      <trkpt lat="41.87976" lon="9.15233">
        <ele>1352.8</ele>
        <time>2021-06-03T09:16:22Z</time>
      </trkpt>
      <trkpt lat="41.87977" lon="9.15231">
        <ele>1352.8</ele>
        <time>2021-06-03T09:16:23Z</time>
      </trkpt>
      <trkpt lat="41.87978" lon="9.15229">
        <ele>1352.6</ele>
        <time>2021-06-03T09:16:24Z</time>
      </trkpt>
      <trkpt lat="41.87979" lon="9.15227">
        <ele>1352.8</ele>
        <time>2021-06-03T09:16:25Z</time>
      </trkpt>
      <trkpt lat="41.8798" lon="9.15225">
        <ele>1352.8</ele>
        <time>2021-06-03T09:16:26Z</time>
      </trkpt>
      <trkpt lat="41.87982" lon="9.15223">
        <ele>1352.8</ele>
        <time>2021-06-03T09:16:27Z</time>
      </trkpt>
      <trkpt lat="41.87983" lon="9.15221">
        <ele>1352.8</ele>
        <time>2021-06-03T09:16:28Z</time>
      </trkpt>
      <trkpt lat="41.87985" lon="9.15219">
        <ele>1353</ele>
        <time>2021-06-03T09:16:29Z</time>
      </trkpt>
      <trkpt lat="41.87987" lon="9.15218">
        <ele>1353</ele>
        <time>2021-06-03T09:16:30Z</time>
      </trkpt>
      <trkpt lat="41.87989" lon="9.15217">
        <ele>1353</ele>
        <time>2021-06-03T09:16:31Z</time>
      </trkpt>
      <trkpt lat="41.8799" lon="9.15216">
        <ele>1353</ele>
        <time>2021-06-03T09:16:32Z</time>
      </trkpt>
      <trkpt lat="41.87992" lon="9.15214">
        <ele>1353</ele>
        <time>2021-06-03T09:16:33Z</time>
      </trkpt>
      <trkpt lat="41.87994" lon="9.15213">
        <ele>1353</ele>
        <time>2021-06-03T09:16:34Z</time>
      </trkpt>
      <trkpt lat="41.87996" lon="9.15212">
        <ele>1353</ele>
        <time>2021-06-03T09:16:35Z</time>
      </trkpt>
      <trkpt lat="41.87998" lon="9.15211">
        <ele>1353.8</ele>
        <time>2021-06-03T09:16:36Z</time>
      </trkpt>
      <trkpt lat="41.88001" lon="9.1521">
        <ele>1353.8</ele>
        <time>2021-06-03T09:16:37Z</time>
      </trkpt>
      <trkpt lat="41.88003" lon="9.15209">
        <ele>1353.8</ele>
        <time>2021-06-03T09:16:38Z</time>
      </trkpt>
      <trkpt lat="41.88005" lon="9.15208">
        <ele>1353.8</ele>
        <time>2021-06-03T09:16:39Z</time>
      </trkpt>
      <trkpt lat="41.88007" lon="9.15207">
        <ele>1353.8</ele>
        <time>2021-06-03T09:16:40Z</time>
      </trkpt>
      <trkpt lat="41.88009" lon="9.15206">
        <ele>1354.6</ele>
        <time>2021-06-03T09:16:41Z</time>
      </trkpt>
      <trkpt lat="41.88011" lon="9.15205">
        <ele>1354.6</ele>
        <time>2021-06-03T09:16:42Z</time>
      </trkpt>
      <trkpt lat="41.88012" lon="9.15204">
        <ele>1354.6</ele>
        <time>2021-06-03T09:16:43Z</time>
      </trkpt>
      <trkpt lat="41.88014" lon="9.15202">
        <ele>1354.2</ele>
        <time>2021-06-03T09:16:44Z</time>
      </trkpt>
      <trkpt lat="41.88016" lon="9.15201">
        <ele>1354</ele>
        <time>2021-06-03T09:16:45Z</time>
      </trkpt>
      <trkpt lat="41.88018" lon="9.152">
        <ele>1354</ele>
        <time>2021-06-03T09:16:46Z</time>
      </trkpt>
      <trkpt lat="41.8802" lon="9.15199">
        <ele>1354</ele>
        <time>2021-06-03T09:16:47Z</time>
      </trkpt>
      <trkpt lat="41.88022" lon="9.15198">
        <ele>1354</ele>
        <time>2021-06-03T09:16:48Z</time>
      </trkpt>
      <trkpt lat="41.88024" lon="9.15196">
        <ele>1354.4</ele>
        <time>2021-06-03T09:16:49Z</time>
      </trkpt>
      <trkpt lat="41.88026" lon="9.15195">
        <ele>1354.4</ele>
        <time>2021-06-03T09:16:50Z</time>
      </trkpt>
      <trkpt lat="41.88027" lon="9.15192">
        <ele>1354.4</ele>
        <time>2021-06-03T09:16:51Z</time>
      </trkpt>
      <trkpt lat="41.88029" lon="9.15189">
        <ele>1353.6</ele>
        <time>2021-06-03T09:16:52Z</time>
      </trkpt>
      <trkpt lat="41.8803" lon="9.15185">
        <ele>1354</ele>
        <time>2021-06-03T09:16:53Z</time>
      </trkpt>
      <trkpt lat="41.8803" lon="9.1518">
        <ele>1354</ele>
        <time>2021-06-03T09:16:54Z</time>
      </trkpt>
      <trkpt lat="41.88031" lon="9.15174">
        <ele>1354</ele>
        <time>2021-06-03T09:16:55Z</time>
      </trkpt>
      <trkpt lat="41.8803" lon="9.15168">
        <ele>1353</ele>
        <time>2021-06-03T09:16:56Z</time>
      </trkpt>
      <trkpt lat="41.8803" lon="9.15163">
        <ele>1351.6</ele>
        <time>2021-06-03T09:16:57Z</time>
      </trkpt>
      <trkpt lat="41.8803" lon="9.15159">
        <ele>1351.6</ele>
        <time>2021-06-03T09:16:58Z</time>
      </trkpt>
      <trkpt lat="41.8803" lon="9.15155">
        <ele>1351.6</ele>
        <time>2021-06-03T09:16:59Z</time>
      </trkpt>
      <trkpt lat="41.8803" lon="9.1515">
        <ele>1351.6</ele>
        <time>2021-06-03T09:17:00Z</time>
      </trkpt>
      <trkpt lat="41.88031" lon="9.15146">
        <ele>1350.6</ele>
        <time>2021-06-03T09:17:01Z</time>
      </trkpt>
      <trkpt lat="41.88033" lon="9.1514">
        <ele>1350.6</ele>
        <time>2021-06-03T09:17:02Z</time>
      </trkpt>
      <trkpt lat="41.88034" lon="9.15136">
        <ele>1350.6</ele>
        <time>2021-06-03T09:17:03Z</time>
      </trkpt>
      <trkpt lat="41.88035" lon="9.15131">
        <ele>1349.6</ele>
        <time>2021-06-03T09:17:04Z</time>
      </trkpt>
      <trkpt lat="41.88036" lon="9.15128">
        <ele>1348.8</ele>
        <time>2021-06-03T09:17:05Z</time>
      </trkpt>
      <trkpt lat="41.88038" lon="9.15123">
        <ele>1348.8</ele>
        <time>2021-06-03T09:17:06Z</time>
      </trkpt>
      <trkpt lat="41.8804" lon="9.15118">
        <ele>1348.8</ele>
        <time>2021-06-03T09:17:07Z</time>
      </trkpt>
      <trkpt lat="41.88043" lon="9.15113">
        <ele>1347.8</ele>
        <time>2021-06-03T09:17:08Z</time>
      </trkpt>
      <trkpt lat="41.88046" lon="9.15107">
        <ele>1346.2</ele>
        <time>2021-06-03T09:17:09Z</time>
      </trkpt>
      <trkpt lat="41.88048" lon="9.15101">
        <ele>1346.2</ele>
        <time>2021-06-03T09:17:10Z</time>
      </trkpt>
      <trkpt lat="41.88049" lon="9.15096">
        <ele>1346.2</ele>
        <time>2021-06-03T09:17:11Z</time>
      </trkpt>
      <trkpt lat="41.88049" lon="9.1509">
        <ele>1345.4</ele>
        <time>2021-06-03T09:17:12Z</time>
      </trkpt>
      <trkpt lat="41.88049" lon="9.15084">
        <ele>1344.8</ele>
        <time>2021-06-03T09:17:13Z</time>
      </trkpt>
      <trkpt lat="41.88047" lon="9.15077">
        <ele>1344.8</ele>
        <time>2021-06-03T09:17:14Z</time>
      </trkpt>
      <trkpt lat="41.88044" lon="9.15071">
        <ele>1344.8</ele>
        <time>2021-06-03T09:17:15Z</time>
      </trkpt>
      <trkpt lat="41.88042" lon="9.15063">
        <ele>1343.8</ele>
        <time>2021-06-03T09:17:16Z</time>
      </trkpt>
      <trkpt lat="41.88039" lon="9.15056">
        <ele>1343.8</ele>
        <time>2021-06-03T09:17:17Z</time>
      </trkpt>
      <trkpt lat="41.88037" lon="9.1505">
        <ele>1343.8</ele>
        <time>2021-06-03T09:17:18Z</time>
      </trkpt>
      <trkpt lat="41.88037" lon="9.15043">
        <ele>1343.8</ele>
        <time>2021-06-03T09:17:19Z</time>
      </trkpt>
      <trkpt lat="41.88037" lon="9.15037">
        <ele>1343.6</ele>
        <time>2021-06-03T09:17:20Z</time>
      </trkpt>
      <trkpt lat="41.88037" lon="9.15031">
        <ele>1343.8</ele>
        <time>2021-06-03T09:17:21Z</time>
      </trkpt>
      <trkpt lat="41.88039" lon="9.15025">
        <ele>1343.8</ele>
        <time>2021-06-03T09:17:22Z</time>
      </trkpt>
      <trkpt lat="41.88041" lon="9.15019">
        <ele>1343.8</ele>
        <time>2021-06-03T09:17:23Z</time>
      </trkpt>
      <trkpt lat="41.88042" lon="9.15013">
        <ele>1343.8</ele>
        <time>2021-06-03T09:17:24Z</time>
      </trkpt>
      <trkpt lat="41.88043" lon="9.15007">
        <ele>1343.6</ele>
        <time>2021-06-03T09:17:25Z</time>
      </trkpt>
      <trkpt lat="41.88043" lon="9.15002">
        <ele>1343.6</ele>
        <time>2021-06-03T09:17:26Z</time>
      </trkpt>
      <trkpt lat="41.88043" lon="9.14996">
        <ele>1343.6</ele>
        <time>2021-06-03T09:17:27Z</time>
      </trkpt>
      <trkpt lat="41.88042" lon="9.14991">
        <ele>1343.6</ele>
        <time>2021-06-03T09:17:28Z</time>
      </trkpt>
      <trkpt lat="41.88041" lon="9.14986">
        <ele>1344</ele>
        <time>2021-06-03T09:17:29Z</time>
      </trkpt>
      <trkpt lat="41.88039" lon="9.14982">
        <ele>1344</ele>
        <time>2021-06-03T09:17:30Z</time>
      </trkpt>
      <trkpt lat="41.88037" lon="9.14978">
        <ele>1344</ele>
        <time>2021-06-03T09:17:31Z</time>
      </trkpt>
      <trkpt lat="41.88036" lon="9.14973">
        <ele>1344.4</ele>
        <time>2021-06-03T09:17:32Z</time>
      </trkpt>
      <trkpt lat="41.88034" lon="9.14969">
        <ele>1344</ele>
        <time>2021-06-03T09:17:33Z</time>
      </trkpt>
      <trkpt lat="41.88032" lon="9.14964">
        <ele>1344</ele>
        <time>2021-06-03T09:17:34Z</time>
      </trkpt>
      <trkpt lat="41.8803" lon="9.1496">
        <ele>1344</ele>
        <time>2021-06-03T09:17:35Z</time>
      </trkpt>
      <trkpt lat="41.88028" lon="9.14955">
        <ele>1344</ele>
        <time>2021-06-03T09:17:36Z</time>
      </trkpt>
      <trkpt lat="41.88027" lon="9.1495">
        <ele>1343.6</ele>
        <time>2021-06-03T09:17:37Z</time>
      </trkpt>
      <trkpt lat="41.88026" lon="9.14945">
        <ele>1343.6</ele>
        <time>2021-06-03T09:17:38Z</time>
      </trkpt>
      <trkpt lat="41.88026" lon="9.14939">
        <ele>1343.6</ele>
        <time>2021-06-03T09:17:39Z</time>
      </trkpt>
      <trkpt lat="41.88026" lon="9.14934">
        <ele>1343.2</ele>
        <time>2021-06-03T09:17:40Z</time>
      </trkpt>
      <trkpt lat="41.88028" lon="9.14928">
        <ele>1343</ele>
        <time>2021-06-03T09:17:41Z</time>
      </trkpt>
      <trkpt lat="41.8803" lon="9.14924">
        <ele>1343</ele>
        <time>2021-06-03T09:17:42Z</time>
      </trkpt>
      <trkpt lat="41.88033" lon="9.14919">
        <ele>1343</ele>
        <time>2021-06-03T09:17:43Z</time>
      </trkpt>
      <trkpt lat="41.88036" lon="9.14913">
        <ele>1342</ele>
        <time>2021-06-03T09:17:44Z</time>
      </trkpt>
      <trkpt lat="41.8804" lon="9.14908">
        <ele>1341.4</ele>
        <time>2021-06-03T09:17:45Z</time>
      </trkpt>
      <trkpt lat="41.88045" lon="9.14905">
        <ele>1341.4</ele>
        <time>2021-06-03T09:17:46Z</time>
      </trkpt>
      <trkpt lat="41.8805" lon="9.14903">
        <ele>1341.4</ele>
        <time>2021-06-03T09:17:47Z</time>
      </trkpt>
      <trkpt lat="41.88055" lon="9.14903">
        <ele>1341</ele>
        <time>2021-06-03T09:17:48Z</time>
      </trkpt>
      <trkpt lat="41.8806" lon="9.14903">
        <ele>1341.8</ele>
        <time>2021-06-03T09:17:49Z</time>
      </trkpt>
      <trkpt lat="41.88065" lon="9.14903">
        <ele>1341.8</ele>
        <time>2021-06-03T09:17:50Z</time>
      </trkpt>
      <trkpt lat="41.8807" lon="9.14903">
        <ele>1341.8</ele>
        <time>2021-06-03T09:17:51Z</time>
      </trkpt>
      <trkpt lat="41.88075" lon="9.14904">
        <ele>1340.8</ele>
        <time>2021-06-03T09:17:52Z</time>
      </trkpt>
      <trkpt lat="41.88081" lon="9.14905">
        <ele>1340.2</ele>
        <time>2021-06-03T09:17:53Z</time>
      </trkpt>
      <trkpt lat="41.88086" lon="9.14906">
        <ele>1340.2</ele>
        <time>2021-06-03T09:17:54Z</time>
      </trkpt>
      <trkpt lat="41.88092" lon="9.14908">
        <ele>1340.2</ele>
        <time>2021-06-03T09:17:55Z</time>
      </trkpt>
      <trkpt lat="41.88097" lon="9.1491">
        <ele>1339.4</ele>
        <time>2021-06-03T09:17:56Z</time>
      </trkpt>
      <trkpt lat="41.88103" lon="9.14912">
        <ele>1338.8</ele>
        <time>2021-06-03T09:17:57Z</time>
      </trkpt>
      <trkpt lat="41.88109" lon="9.14914">
        <ele>1338.8</ele>
        <time>2021-06-03T09:17:58Z</time>
      </trkpt>
      <trkpt lat="41.88114" lon="9.14917">
        <ele>1338.8</ele>
        <time>2021-06-03T09:17:59Z</time>
      </trkpt>
      <trkpt lat="41.8812" lon="9.14919">
        <ele>1337.8</ele>
        <time>2021-06-03T09:18:00Z</time>
      </trkpt>
      <trkpt lat="41.88126" lon="9.14922">
        <ele>1336.8</ele>
        <time>2021-06-03T09:18:01Z</time>
      </trkpt>
      <trkpt lat="41.88132" lon="9.14923">
        <ele>1336.8</ele>
        <time>2021-06-03T09:18:02Z</time>
      </trkpt>
      <trkpt lat="41.88139" lon="9.14925">
        <ele>1336.8</ele>
        <time>2021-06-03T09:18:03Z</time>
      </trkpt>
      <trkpt lat="41.88145" lon="9.14928">
        <ele>1336.2</ele>
        <time>2021-06-03T09:18:04Z</time>
      </trkpt>
      <trkpt lat="41.8815" lon="9.14931">
        <ele>1336</ele>
        <time>2021-06-03T09:18:05Z</time>
      </trkpt>
      <trkpt lat="41.88156" lon="9.14935">
        <ele>1336</ele>
        <time>2021-06-03T09:18:06Z</time>
      </trkpt>
      <trkpt lat="41.88161" lon="9.14939">
        <ele>1336</ele>
        <time>2021-06-03T09:18:07Z</time>
      </trkpt>
      <trkpt lat="41.88166" lon="9.14943">
        <ele>1336</ele>
        <time>2021-06-03T09:18:08Z</time>
      </trkpt>
      <trkpt lat="41.8817" lon="9.14948">
        <ele>1336.2</ele>
        <time>2021-06-03T09:18:09Z</time>
      </trkpt>
      <trkpt lat="41.88175" lon="9.14952">
        <ele>1336.2</ele>
        <time>2021-06-03T09:18:10Z</time>
      </trkpt>
      <trkpt lat="41.8818" lon="9.14955">
        <ele>1336.2</ele>
        <time>2021-06-03T09:18:11Z</time>
      </trkpt>
      <trkpt lat="41.88184" lon="9.14958">
        <ele>1337.2</ele>
        <time>2021-06-03T09:18:12Z</time>
      </trkpt>
      <trkpt lat="41.8819" lon="9.14961">
        <ele>1337.2</ele>
        <time>2021-06-03T09:18:13Z</time>
      </trkpt>
      <trkpt lat="41.88195" lon="9.14963">
        <ele>1337.2</ele>
        <time>2021-06-03T09:18:14Z</time>
      </trkpt>
      <trkpt lat="41.88201" lon="9.14964">
        <ele>1337.2</ele>
        <time>2021-06-03T09:18:15Z</time>
      </trkpt>
      <trkpt lat="41.88207" lon="9.14966">
        <ele>1337.2</ele>
        <time>2021-06-03T09:18:16Z</time>
      </trkpt>
      <trkpt lat="41.88212" lon="9.14967">
        <ele>1337.2</ele>
        <time>2021-06-03T09:18:17Z</time>
      </trkpt>
      <trkpt lat="41.88218" lon="9.1497">
        <ele>1337.2</ele>
        <time>2021-06-03T09:18:18Z</time>
      </trkpt>
      <trkpt lat="41.88223" lon="9.14973">
        <ele>1337.2</ele>
        <time>2021-06-03T09:18:19Z</time>
      </trkpt>
      <trkpt lat="41.88228" lon="9.14978">
        <ele>1337.2</ele>
        <time>2021-06-03T09:18:20Z</time>
      </trkpt>
      <trkpt lat="41.88232" lon="9.14983">
        <ele>1337.6</ele>
        <time>2021-06-03T09:18:21Z</time>
      </trkpt>
      <trkpt lat="41.88235" lon="9.14989">
        <ele>1337.6</ele>
        <time>2021-06-03T09:18:22Z</time>
      </trkpt>
      <trkpt lat="41.88238" lon="9.14994">
        <ele>1337.6</ele>
        <time>2021-06-03T09:18:23Z</time>
      </trkpt>
      <trkpt lat="41.88242" lon="9.14999">
        <ele>1338.2</ele>
        <time>2021-06-03T09:18:24Z</time>
      </trkpt>
      <trkpt lat="41.88246" lon="9.15003">
        <ele>1338.8</ele>
        <time>2021-06-03T09:18:25Z</time>
      </trkpt>
      <trkpt lat="41.88251" lon="9.15007">
        <ele>1338.8</ele>
        <time>2021-06-03T09:18:26Z</time>
      </trkpt>
      <trkpt lat="41.88255" lon="9.15011">
        <ele>1338.8</ele>
        <time>2021-06-03T09:18:27Z</time>
      </trkpt>
      <trkpt lat="41.88261" lon="9.15014">
        <ele>1338.8</ele>
        <time>2021-06-03T09:18:28Z</time>
      </trkpt>
      <trkpt lat="41.88266" lon="9.15017">
        <ele>1337.8</ele>
        <time>2021-06-03T09:18:29Z</time>
      </trkpt>
      <trkpt lat="41.88271" lon="9.1502">
        <ele>1337.8</ele>
        <time>2021-06-03T09:18:30Z</time>
      </trkpt>
      <trkpt lat="41.88276" lon="9.15024">
        <ele>1337.8</ele>
        <time>2021-06-03T09:18:31Z</time>
      </trkpt>
      <trkpt lat="41.88281" lon="9.15028">
        <ele>1337.8</ele>
        <time>2021-06-03T09:18:32Z</time>
      </trkpt>
      <trkpt lat="41.88286" lon="9.15033">
        <ele>1337.2</ele>
        <time>2021-06-03T09:18:33Z</time>
      </trkpt>
      <trkpt lat="41.88291" lon="9.15037">
        <ele>1337.2</ele>
        <time>2021-06-03T09:18:34Z</time>
      </trkpt>
      <trkpt lat="41.88295" lon="9.15042">
        <ele>1337.2</ele>
        <time>2021-06-03T09:18:35Z</time>
      </trkpt>
      <trkpt lat="41.883" lon="9.15047">
        <ele>1337.2</ele>
        <time>2021-06-03T09:18:36Z</time>
      </trkpt>
      <trkpt lat="41.88304" lon="9.15052">
        <ele>1337.2</ele>
        <time>2021-06-03T09:18:37Z</time>
      </trkpt>
      <trkpt lat="41.88308" lon="9.15057">
        <ele>1337.2</ele>
        <time>2021-06-03T09:18:38Z</time>
      </trkpt>
      <trkpt lat="41.88313" lon="9.15061">
        <ele>1337.2</ele>
        <time>2021-06-03T09:18:39Z</time>
      </trkpt>
      <trkpt lat="41.88318" lon="9.15064">
        <ele>1336.2</ele>
        <time>2021-06-03T09:18:40Z</time>
      </trkpt>
      <trkpt lat="41.88323" lon="9.15067">
        <ele>1336.4</ele>
        <time>2021-06-03T09:18:41Z</time>
      </trkpt>
      <trkpt lat="41.88328" lon="9.15069">
        <ele>1336.4</ele>
        <time>2021-06-03T09:18:42Z</time>
      </trkpt>
      <trkpt lat="41.88333" lon="9.15072">
        <ele>1336.4</ele>
        <time>2021-06-03T09:18:43Z</time>
      </trkpt>
      <trkpt lat="41.88338" lon="9.15074">
        <ele>1336.8</ele>
        <time>2021-06-03T09:18:44Z</time>
      </trkpt>
      <trkpt lat="41.88343" lon="9.15077">
        <ele>1336.8</ele>
        <time>2021-06-03T09:18:45Z</time>
      </trkpt>
      <trkpt lat="41.88348" lon="9.1508">
        <ele>1336.8</ele>
        <time>2021-06-03T09:18:46Z</time>
      </trkpt>
      <trkpt lat="41.88353" lon="9.15084">
        <ele>1336.8</ele>
        <time>2021-06-03T09:18:47Z</time>
      </trkpt>
      <trkpt lat="41.88358" lon="9.15088">
        <ele>1336.8</ele>
        <time>2021-06-03T09:18:48Z</time>
      </trkpt>
      <trkpt lat="41.88363" lon="9.15091">
        <ele>1337</ele>
        <time>2021-06-03T09:18:49Z</time>
      </trkpt>
      <trkpt lat="41.88369" lon="9.15094">
        <ele>1337</ele>
        <time>2021-06-03T09:18:50Z</time>
      </trkpt>
      <trkpt lat="41.88375" lon="9.15097">
        <ele>1337</ele>
        <time>2021-06-03T09:18:51Z</time>
      </trkpt>
      <trkpt lat="41.88381" lon="9.151">
        <ele>1336</ele>
        <time>2021-06-03T09:18:52Z</time>
      </trkpt>
      <trkpt lat="41.88387" lon="9.15103">
        <ele>1334.8</ele>
        <time>2021-06-03T09:18:53Z</time>
      </trkpt>
      <trkpt lat="41.88393" lon="9.15108">
        <ele>1334.8</ele>
        <time>2021-06-03T09:18:54Z</time>
      </trkpt>
      <trkpt lat="41.88399" lon="9.15113">
        <ele>1334.8</ele>
        <time>2021-06-03T09:18:55Z</time>
      </trkpt>
      <trkpt lat="41.88406" lon="9.15119">
        <ele>1333.8</ele>
        <time>2021-06-03T09:18:56Z</time>
      </trkpt>
      <trkpt lat="41.88412" lon="9.15126">
        <ele>1332</ele>
        <time>2021-06-03T09:18:57Z</time>
      </trkpt>
      <trkpt lat="41.88417" lon="9.15133">
        <ele>1332</ele>
        <time>2021-06-03T09:18:58Z</time>
      </trkpt>
      <trkpt lat="41.88423" lon="9.1514">
        <ele>1332</ele>
        <time>2021-06-03T09:18:59Z</time>
      </trkpt>
      <trkpt lat="41.88429" lon="9.15147">
        <ele>1331.2</ele>
        <time>2021-06-03T09:19:00Z</time>
      </trkpt>
      <trkpt lat="41.88435" lon="9.15154">
        <ele>1331</ele>
        <time>2021-06-03T09:19:01Z</time>
      </trkpt>
      <trkpt lat="41.88441" lon="9.15161">
        <ele>1331</ele>
        <time>2021-06-03T09:19:02Z</time>
      </trkpt>
      <trkpt lat="41.88447" lon="9.15168">
        <ele>1331</ele>
        <time>2021-06-03T09:19:03Z</time>
      </trkpt>
      <trkpt lat="41.88453" lon="9.15175">
        <ele>1330</ele>
        <time>2021-06-03T09:19:04Z</time>
      </trkpt>
      <trkpt lat="41.88459" lon="9.15181">
        <ele>1329.2</ele>
        <time>2021-06-03T09:19:05Z</time>
      </trkpt>
      <trkpt lat="41.88465" lon="9.15188">
        <ele>1329.2</ele>
        <time>2021-06-03T09:19:06Z</time>
      </trkpt>
      <trkpt lat="41.88471" lon="9.15195">
        <ele>1329.2</ele>
        <time>2021-06-03T09:19:07Z</time>
      </trkpt>
      <trkpt lat="41.88477" lon="9.15203">
        <ele>1329.2</ele>
        <time>2021-06-03T09:19:08Z</time>
      </trkpt>
      <trkpt lat="41.88482" lon="9.15211">
        <ele>1327</ele>
        <time>2021-06-03T09:19:09Z</time>
      </trkpt>
      <trkpt lat="41.88487" lon="9.1522">
        <ele>1327</ele>
        <time>2021-06-03T09:19:10Z</time>
      </trkpt>
      <trkpt lat="41.88491" lon="9.15228">
        <ele>1327</ele>
        <time>2021-06-03T09:19:11Z</time>
      </trkpt>
      <trkpt lat="41.88497" lon="9.15235">
        <ele>1327</ele>
        <time>2021-06-03T09:19:12Z</time>
      </trkpt>
      <trkpt lat="41.88503" lon="9.15239">
        <ele>1330</ele>
        <time>2021-06-03T09:19:13Z</time>
      </trkpt>
      <trkpt lat="41.88509" lon="9.15242">
        <ele>1330</ele>
        <time>2021-06-03T09:19:14Z</time>
      </trkpt>
      <trkpt lat="41.88515" lon="9.15245">
        <ele>1330</ele>
        <time>2021-06-03T09:19:15Z</time>
      </trkpt>
      <trkpt lat="41.88522" lon="9.15248">
        <ele>1330</ele>
        <time>2021-06-03T09:19:16Z</time>
      </trkpt>
      <trkpt lat="41.88527" lon="9.15252">
        <ele>1330.2</ele>
        <time>2021-06-03T09:19:17Z</time>
      </trkpt>
      <trkpt lat="41.88532" lon="9.15256">
        <ele>1330.2</ele>
        <time>2021-06-03T09:19:18Z</time>
      </trkpt>
      <trkpt lat="41.88537" lon="9.1526">
        <ele>1330.2</ele>
        <time>2021-06-03T09:19:19Z</time>
      </trkpt>
      <trkpt lat="41.88542" lon="9.15264">
        <ele>1331.2</ele>
        <time>2021-06-03T09:19:20Z</time>
      </trkpt>
      <trkpt lat="41.88547" lon="9.15268">
        <ele>1332.4</ele>
        <time>2021-06-03T09:19:21Z</time>
      </trkpt>
      <trkpt lat="41.88551" lon="9.15272">
        <ele>1332.4</ele>
        <time>2021-06-03T09:19:22Z</time>
      </trkpt>
      <trkpt lat="41.88555" lon="9.15275">
        <ele>1332.4</ele>
        <time>2021-06-03T09:19:23Z</time>
      </trkpt>
      <trkpt lat="41.88559" lon="9.15278">
        <ele>1333.4</ele>
        <time>2021-06-03T09:19:24Z</time>
      </trkpt>
      <trkpt lat="41.88563" lon="9.1528">
        <ele>1333.6</ele>
        <time>2021-06-03T09:19:25Z</time>
      </trkpt>
      <trkpt lat="41.88567" lon="9.15281">
        <ele>1333.6</ele>
        <time>2021-06-03T09:19:26Z</time>
      </trkpt>
      <trkpt lat="41.88571" lon="9.15282">
        <ele>1333.6</ele>
        <time>2021-06-03T09:19:27Z</time>
      </trkpt>
      <trkpt lat="41.88575" lon="9.15282">
        <ele>1334.4</ele>
        <time>2021-06-03T09:19:28Z</time>
      </trkpt>
      <trkpt lat="41.88578" lon="9.15282">
        <ele>1334.8</ele>
        <time>2021-06-03T09:19:29Z</time>
      </trkpt>
      <trkpt lat="41.88582" lon="9.15282">
        <ele>1334.8</ele>
        <time>2021-06-03T09:19:30Z</time>
      </trkpt>
      <trkpt lat="41.88585" lon="9.15281">
        <ele>1334.8</ele>
        <time>2021-06-03T09:19:31Z</time>
      </trkpt>
      <trkpt lat="41.88589" lon="9.15281">
        <ele>1334.8</ele>
        <time>2021-06-03T09:19:32Z</time>
      </trkpt>
      <trkpt lat="41.88592" lon="9.1528">
        <ele>1334.8</ele>
        <time>2021-06-03T09:19:33Z</time>
      </trkpt>
      <trkpt lat="41.88595" lon="9.15279">
        <ele>1334.8</ele>
        <time>2021-06-03T09:19:34Z</time>
      </trkpt>
      <trkpt lat="41.88597" lon="9.15278">
        <ele>1334.8</ele>
        <time>2021-06-03T09:19:35Z</time>
      </trkpt>
      <trkpt lat="41.886" lon="9.15277">
        <ele>1335.8</ele>
        <time>2021-06-03T09:19:36Z</time>
      </trkpt>
      <trkpt lat="41.88602" lon="9.15276">
        <ele>1336.4</ele>
        <time>2021-06-03T09:19:37Z</time>
      </trkpt>
      <trkpt lat="41.88604" lon="9.15274">
        <ele>1336.4</ele>
        <time>2021-06-03T09:19:38Z</time>
      </trkpt>
      <trkpt lat="41.88607" lon="9.15273">
        <ele>1336.4</ele>
        <time>2021-06-03T09:19:39Z</time>
      </trkpt>
      <trkpt lat="41.88609" lon="9.15272">
        <ele>1335.8</ele>
        <time>2021-06-03T09:19:40Z</time>
      </trkpt>
      <trkpt lat="41.88612" lon="9.1527">
        <ele>1335.8</ele>
        <time>2021-06-03T09:19:41Z</time>
      </trkpt>
      <trkpt lat="41.88615" lon="9.15268">
        <ele>1335.8</ele>
        <time>2021-06-03T09:19:42Z</time>
      </trkpt>
      <trkpt lat="41.88619" lon="9.15265">
        <ele>1335.8</ele>
        <time>2021-06-03T09:19:43Z</time>
      </trkpt>
      <trkpt lat="41.88622" lon="9.15262">
        <ele>1334.8</ele>
        <time>2021-06-03T09:19:44Z</time>
      </trkpt>
      <trkpt lat="41.88626" lon="9.15259">
        <ele>1334</ele>
        <time>2021-06-03T09:19:45Z</time>
      </trkpt>
      <trkpt lat="41.8863" lon="9.15254">
        <ele>1334</ele>
        <time>2021-06-03T09:19:46Z</time>
      </trkpt>
      <trkpt lat="41.88634" lon="9.15249">
        <ele>1334</ele>
        <time>2021-06-03T09:19:47Z</time>
      </trkpt>
      <trkpt lat="41.88638" lon="9.15243">
        <ele>1333</ele>
        <time>2021-06-03T09:19:48Z</time>
      </trkpt>
      <trkpt lat="41.88643" lon="9.15236">
        <ele>1330.2</ele>
        <time>2021-06-03T09:19:49Z</time>
      </trkpt>
      <trkpt lat="41.88647" lon="9.15229">
        <ele>1330.2</ele>
        <time>2021-06-03T09:19:50Z</time>
      </trkpt>
      <trkpt lat="41.88653" lon="9.15221">
        <ele>1330.2</ele>
        <time>2021-06-03T09:19:51Z</time>
      </trkpt>
      <trkpt lat="41.88659" lon="9.15215">
        <ele>1329.2</ele>
        <time>2021-06-03T09:19:52Z</time>
      </trkpt>
      <trkpt lat="41.88665" lon="9.15209">
        <ele>1328.8</ele>
        <time>2021-06-03T09:19:53Z</time>
      </trkpt>
      <trkpt lat="41.8867" lon="9.15204">
        <ele>1328.8</ele>
        <time>2021-06-03T09:19:54Z</time>
      </trkpt>
      <trkpt lat="41.88675" lon="9.15198">
        <ele>1328.8</ele>
        <time>2021-06-03T09:19:55Z</time>
      </trkpt>
      <trkpt lat="41.88679" lon="9.15191">
        <ele>1328.8</ele>
        <time>2021-06-03T09:19:56Z</time>
      </trkpt>
      <trkpt lat="41.88682" lon="9.15184">
        <ele>1328.4</ele>
        <time>2021-06-03T09:19:57Z</time>
      </trkpt>
      <trkpt lat="41.88684" lon="9.15176">
        <ele>1328.4</ele>
        <time>2021-06-03T09:19:58Z</time>
      </trkpt>
      <trkpt lat="41.88685" lon="9.15166">
        <ele>1328.4</ele>
        <time>2021-06-03T09:19:59Z</time>
      </trkpt>
      <trkpt lat="41.88685" lon="9.15156">
        <ele>1327.4</ele>
        <time>2021-06-03T09:20:00Z</time>
      </trkpt>
      <trkpt lat="41.88684" lon="9.15145">
        <ele>1324.6</ele>
        <time>2021-06-03T09:20:01Z</time>
      </trkpt>
      <trkpt lat="41.88682" lon="9.15133">
        <ele>1324.6</ele>
        <time>2021-06-03T09:20:02Z</time>
      </trkpt>
      <trkpt lat="41.8868" lon="9.15121">
        <ele>1324.6</ele>
        <time>2021-06-03T09:20:03Z</time>
      </trkpt>
      <trkpt lat="41.88676" lon="9.1511">
        <ele>1323.6</ele>
        <time>2021-06-03T09:20:04Z</time>
      </trkpt>
      <trkpt lat="41.88672" lon="9.15099">
        <ele>1322.4</ele>
        <time>2021-06-03T09:20:05Z</time>
      </trkpt>
      <trkpt lat="41.88666" lon="9.15089">
        <ele>1322.4</ele>
        <time>2021-06-03T09:20:06Z</time>
      </trkpt>
      <trkpt lat="41.88659" lon="9.1508">
        <ele>1322.4</ele>
        <time>2021-06-03T09:20:07Z</time>
      </trkpt>
      <trkpt lat="41.88652" lon="9.1507">
        <ele>1321.4</ele>
        <time>2021-06-03T09:20:08Z</time>
      </trkpt>
      <trkpt lat="41.88645" lon="9.15061">
        <ele>1318.2</ele>
        <time>2021-06-03T09:20:09Z</time>
      </trkpt>
      <trkpt lat="41.88639" lon="9.15051">
        <ele>1318.2</ele>
        <time>2021-06-03T09:20:10Z</time>
      </trkpt>
      <trkpt lat="41.88632" lon="9.15041">
        <ele>1318.2</ele>
        <time>2021-06-03T09:20:11Z</time>
      </trkpt>
      <trkpt lat="41.88626" lon="9.1503">
        <ele>1318.2</ele>
        <time>2021-06-03T09:20:12Z</time>
      </trkpt>
      <trkpt lat="41.8862" lon="9.15019">
        <ele>1316.6</ele>
        <time>2021-06-03T09:20:13Z</time>
      </trkpt>
      <trkpt lat="41.88613" lon="9.15009">
        <ele>1316.6</ele>
        <time>2021-06-03T09:20:14Z</time>
      </trkpt>
      <trkpt lat="41.88605" lon="9.15">
        <ele>1316.6</ele>
        <time>2021-06-03T09:20:15Z</time>
      </trkpt>
      <trkpt lat="41.88599" lon="9.14991">
        <ele>1315.6</ele>
        <time>2021-06-03T09:20:16Z</time>
      </trkpt>
      <trkpt lat="41.88592" lon="9.14981">
        <ele>1314.8</ele>
        <time>2021-06-03T09:20:17Z</time>
      </trkpt>
      <trkpt lat="41.88586" lon="9.1497">
        <ele>1314.8</ele>
        <time>2021-06-03T09:20:18Z</time>
      </trkpt>
      <trkpt lat="41.8858" lon="9.1496">
        <ele>1314.8</ele>
        <time>2021-06-03T09:20:19Z</time>
      </trkpt>
      <trkpt lat="41.88574" lon="9.14949">
        <ele>1313.8</ele>
        <time>2021-06-03T09:20:20Z</time>
      </trkpt>
      <trkpt lat="41.88569" lon="9.14939">
        <ele>1313.8</ele>
        <time>2021-06-03T09:20:21Z</time>
      </trkpt>
      <trkpt lat="41.88563" lon="9.14929">
        <ele>1313.8</ele>
        <time>2021-06-03T09:20:22Z</time>
      </trkpt>
      <trkpt lat="41.88557" lon="9.14918">
        <ele>1313.8</ele>
        <time>2021-06-03T09:20:23Z</time>
      </trkpt>
      <trkpt lat="41.88552" lon="9.14906">
        <ele>1313.8</ele>
        <time>2021-06-03T09:20:24Z</time>
      </trkpt>
      <trkpt lat="41.88548" lon="9.14893">
        <ele>1311.4</ele>
        <time>2021-06-03T09:20:25Z</time>
      </trkpt>
      <trkpt lat="41.88545" lon="9.14881">
        <ele>1311.4</ele>
        <time>2021-06-03T09:20:26Z</time>
      </trkpt>
      <trkpt lat="41.88541" lon="9.14872">
        <ele>1311.4</ele>
        <time>2021-06-03T09:20:27Z</time>
      </trkpt>
      <trkpt lat="41.88538" lon="9.14863">
        <ele>1312.4</ele>
        <time>2021-06-03T09:20:28Z</time>
      </trkpt>
      <trkpt lat="41.88533" lon="9.14856">
        <ele>1314</ele>
        <time>2021-06-03T09:20:29Z</time>
      </trkpt>
      <trkpt lat="41.88527" lon="9.1485">
        <ele>1314</ele>
        <time>2021-06-03T09:20:30Z</time>
      </trkpt>
      <trkpt lat="41.8852" lon="9.14844">
        <ele>1314</ele>
        <time>2021-06-03T09:20:31Z</time>
      </trkpt>
      <trkpt lat="41.88512" lon="9.1484">
        <ele>1313</ele>
        <time>2021-06-03T09:20:32Z</time>
      </trkpt>
      <trkpt lat="41.88505" lon="9.14835">
        <ele>1310.2</ele>
        <time>2021-06-03T09:20:33Z</time>
      </trkpt>
      <trkpt lat="41.88499" lon="9.14828">
        <ele>1310.2</ele>
        <time>2021-06-03T09:20:34Z</time>
      </trkpt>
      <trkpt lat="41.88493" lon="9.14819">
        <ele>1310.2</ele>
        <time>2021-06-03T09:20:35Z</time>
      </trkpt>
      <trkpt lat="41.88488" lon="9.14808">
        <ele>1310.2</ele>
        <time>2021-06-03T09:20:36Z</time>
      </trkpt>
      <trkpt lat="41.88484" lon="9.14797">
        <ele>1306</ele>
        <time>2021-06-03T09:20:37Z</time>
      </trkpt>
      <trkpt lat="41.88481" lon="9.14784">
        <ele>1306</ele>
        <time>2021-06-03T09:20:38Z</time>
      </trkpt>
      <trkpt lat="41.88478" lon="9.1477">
        <ele>1306</ele>
        <time>2021-06-03T09:20:39Z</time>
      </trkpt>
      <trkpt lat="41.88477" lon="9.14756">
        <ele>1305</ele>
        <time>2021-06-03T09:20:40Z</time>
      </trkpt>
      <trkpt lat="41.88476" lon="9.14741">
        <ele>1299.6</ele>
        <time>2021-06-03T09:20:41Z</time>
      </trkpt>
      <trkpt lat="41.88475" lon="9.14725">
        <ele>1299.6</ele>
        <time>2021-06-03T09:20:42Z</time>
      </trkpt>
      <trkpt lat="41.88474" lon="9.14711">
        <ele>1299.6</ele>
        <time>2021-06-03T09:20:43Z</time>
      </trkpt>
      <trkpt lat="41.88473" lon="9.14697">
        <ele>1298.6</ele>
        <time>2021-06-03T09:20:44Z</time>
      </trkpt>
      <trkpt lat="41.88471" lon="9.14683">
        <ele>1297</ele>
        <time>2021-06-03T09:20:45Z</time>
      </trkpt>
      <trkpt lat="41.88469" lon="9.14668">
        <ele>1297</ele>
        <time>2021-06-03T09:20:46Z</time>
      </trkpt>
      <trkpt lat="41.88465" lon="9.14653">
        <ele>1297</ele>
        <time>2021-06-03T09:20:47Z</time>
      </trkpt>
      <trkpt lat="41.88462" lon="9.14639">
        <ele>1297</ele>
        <time>2021-06-03T09:20:48Z</time>
      </trkpt>
      <trkpt lat="41.88458" lon="9.14624">
        <ele>1293.6</ele>
        <time>2021-06-03T09:20:49Z</time>
      </trkpt>
      <trkpt lat="41.88456" lon="9.1461">
        <ele>1293.6</ele>
        <time>2021-06-03T09:20:50Z</time>
      </trkpt>
      <trkpt lat="41.88453" lon="9.14598">
        <ele>1293.6</ele>
        <time>2021-06-03T09:20:51Z</time>
      </trkpt>
      <trkpt lat="41.88451" lon="9.14587">
        <ele>1294.6</ele>
        <time>2021-06-03T09:20:52Z</time>
      </trkpt>
      <trkpt lat="41.88449" lon="9.14575">
        <ele>1295</ele>
        <time>2021-06-03T09:20:53Z</time>
      </trkpt>
      <trkpt lat="41.88447" lon="9.14563">
        <ele>1295</ele>
        <time>2021-06-03T09:20:54Z</time>
      </trkpt>
      <trkpt lat="41.88447" lon="9.14553">
        <ele>1295</ele>
        <time>2021-06-03T09:20:55Z</time>
      </trkpt>
      <trkpt lat="41.88447" lon="9.14544">
        <ele>1295</ele>
        <time>2021-06-03T09:20:56Z</time>
      </trkpt>
      <trkpt lat="41.88448" lon="9.14534">
        <ele>1292.6</ele>
        <time>2021-06-03T09:20:57Z</time>
      </trkpt>
      <trkpt lat="41.88451" lon="9.14524">
        <ele>1292.6</ele>
        <time>2021-06-03T09:20:58Z</time>
      </trkpt>
      <trkpt lat="41.88454" lon="9.14516">
        <ele>1292.6</ele>
        <time>2021-06-03T09:20:59Z</time>
      </trkpt>
      <trkpt lat="41.88456" lon="9.1451">
        <ele>1292.6</ele>
        <time>2021-06-03T09:21:00Z</time>
      </trkpt>
      <trkpt lat="41.88458" lon="9.14505">
        <ele>1292.4</ele>
        <time>2021-06-03T09:21:01Z</time>
      </trkpt>
      <trkpt lat="41.8846" lon="9.145">
        <ele>1292.4</ele>
        <time>2021-06-03T09:21:02Z</time>
      </trkpt>
      <trkpt lat="41.88462" lon="9.14495">
        <ele>1292.4</ele>
        <time>2021-06-03T09:21:03Z</time>
      </trkpt>
      <trkpt lat="41.88465" lon="9.1449">
        <ele>1291.4</ele>
        <time>2021-06-03T09:21:04Z</time>
      </trkpt>
      <trkpt lat="41.88468" lon="9.14485">
        <ele>1291</ele>
        <time>2021-06-03T09:21:05Z</time>
      </trkpt>
      <trkpt lat="41.88471" lon="9.14479">
        <ele>1291</ele>
        <time>2021-06-03T09:21:06Z</time>
      </trkpt>
      <trkpt lat="41.88474" lon="9.14474">
        <ele>1291</ele>
        <time>2021-06-03T09:21:07Z</time>
      </trkpt>
      <trkpt lat="41.88478" lon="9.14468">
        <ele>1290</ele>
        <time>2021-06-03T09:21:08Z</time>
      </trkpt>
      <trkpt lat="41.88483" lon="9.14462">
        <ele>1288.2</ele>
        <time>2021-06-03T09:21:09Z</time>
      </trkpt>
      <trkpt lat="41.8849" lon="9.14459">
        <ele>1288.2</ele>
        <time>2021-06-03T09:21:10Z</time>
      </trkpt>
      <trkpt lat="41.88497" lon="9.14456">
        <ele>1288.2</ele>
        <time>2021-06-03T09:21:11Z</time>
      </trkpt>
      <trkpt lat="41.88504" lon="9.14454">
        <ele>1287.2</ele>
        <time>2021-06-03T09:21:12Z</time>
      </trkpt>
      <trkpt lat="41.88512" lon="9.14451">
        <ele>1284.2</ele>
        <time>2021-06-03T09:21:13Z</time>
      </trkpt>
      <trkpt lat="41.88518" lon="9.14449">
        <ele>1284.2</ele>
        <time>2021-06-03T09:21:14Z</time>
      </trkpt>
      <trkpt lat="41.88522" lon="9.14446">
        <ele>1284.2</ele>
        <time>2021-06-03T09:21:15Z</time>
      </trkpt>
      <trkpt lat="41.88525" lon="9.14441">
        <ele>1285.2</ele>
        <time>2021-06-03T09:21:16Z</time>
      </trkpt>
      <trkpt lat="41.88527" lon="9.14435">
        <ele>1285.4</ele>
        <time>2021-06-03T09:21:17Z</time>
      </trkpt>
      <trkpt lat="41.88526" lon="9.14427">
        <ele>1285.4</ele>
        <time>2021-06-03T09:21:18Z</time>
      </trkpt>
      <trkpt lat="41.88522" lon="9.14421">
        <ele>1285.4</ele>
        <time>2021-06-03T09:21:19Z</time>
      </trkpt>
      <trkpt lat="41.88517" lon="9.14416">
        <ele>1284.4</ele>
        <time>2021-06-03T09:21:20Z</time>
      </trkpt>
      <trkpt lat="41.88512" lon="9.14411">
        <ele>1283</ele>
        <time>2021-06-03T09:21:21Z</time>
      </trkpt>
      <trkpt lat="41.88507" lon="9.14407">
        <ele>1283</ele>
        <time>2021-06-03T09:21:22Z</time>
      </trkpt>
      <trkpt lat="41.88501" lon="9.14403">
        <ele>1283</ele>
        <time>2021-06-03T09:21:23Z</time>
      </trkpt>
      <trkpt lat="41.88497" lon="9.144">
        <ele>1284</ele>
        <time>2021-06-03T09:21:24Z</time>
      </trkpt>
      <trkpt lat="41.88493" lon="9.14397">
        <ele>1284.2</ele>
        <time>2021-06-03T09:21:25Z</time>
      </trkpt>
      <trkpt lat="41.88491" lon="9.14395">
        <ele>1284.2</ele>
        <time>2021-06-03T09:21:26Z</time>
      </trkpt>
      <trkpt lat="41.8849" lon="9.14394">
        <ele>1284.2</ele>
        <time>2021-06-03T09:21:27Z</time>
      </trkpt>
      <trkpt lat="41.88489" lon="9.14393">
        <ele>1284.8</ele>
        <time>2021-06-03T09:21:28Z</time>
      </trkpt>
      <trkpt lat="41.88489" lon="9.14392">
        <ele>1285.2</ele>
        <time>2021-06-03T09:21:29Z</time>
      </trkpt>
      <trkpt lat="41.88489" lon="9.14392">
        <ele>1285.2</ele>
        <time>2021-06-03T09:21:30Z</time>
      </trkpt>
      <trkpt lat="41.88486" lon="9.1439">
        <ele>1284.6</ele>
        <time>2021-06-03T09:22:53Z</time>
      </trkpt>
      <trkpt lat="41.88484" lon="9.14389">
        <ele>1284.6</ele>
        <time>2021-06-03T09:22:54Z</time>
      </trkpt>
      <trkpt lat="41.88482" lon="9.14387">
        <ele>1284.6</ele>
        <time>2021-06-03T09:22:55Z</time>
      </trkpt>
      <trkpt lat="41.8848" lon="9.14385">
        <ele>1283.8</ele>
        <time>2021-06-03T09:22:56Z</time>
      </trkpt>
      <trkpt lat="41.88479" lon="9.14382">
        <ele>1283.6</ele>
        <time>2021-06-03T09:22:57Z</time>
      </trkpt>
      <trkpt lat="41.88476" lon="9.1438">
        <ele>1283.6</ele>
        <time>2021-06-03T09:22:58Z</time>
      </trkpt>
      <trkpt lat="41.88474" lon="9.14377">
        <ele>1283.6</ele>
        <time>2021-06-03T09:22:59Z</time>
      </trkpt>
      <trkpt lat="41.88471" lon="9.14373">
        <ele>1282.6</ele>
        <time>2021-06-03T09:23:00Z</time>
      </trkpt>
      <trkpt lat="41.88469" lon="9.14369">
        <ele>1281.8</ele>
        <time>2021-06-03T09:23:01Z</time>
      </trkpt>
      <trkpt lat="41.88466" lon="9.14365">
        <ele>1281.8</ele>
        <time>2021-06-03T09:23:02Z</time>
      </trkpt>
      <trkpt lat="41.88463" lon="9.14359">
        <ele>1281.8</ele>
        <time>2021-06-03T09:23:03Z</time>
      </trkpt>
      <trkpt lat="41.88459" lon="9.14354">
        <ele>1281.8</ele>
        <time>2021-06-03T09:23:04Z</time>
      </trkpt>
      <trkpt lat="41.88455" lon="9.14349">
        <ele>1280</ele>
        <time>2021-06-03T09:23:05Z</time>
      </trkpt>
      <trkpt lat="41.88451" lon="9.14345">
        <ele>1280</ele>
        <time>2021-06-03T09:23:06Z</time>
      </trkpt>
      <trkpt lat="41.88447" lon="9.14339">
        <ele>1280</ele>
        <time>2021-06-03T09:23:07Z</time>
      </trkpt>
      <trkpt lat="41.88442" lon="9.14333">
        <ele>1279</ele>
        <time>2021-06-03T09:23:08Z</time>
      </trkpt>
      <trkpt lat="41.88438" lon="9.14325">
        <ele>1277.4</ele>
        <time>2021-06-03T09:23:09Z</time>
      </trkpt>
      <trkpt lat="41.88433" lon="9.14319">
        <ele>1277.4</ele>
        <time>2021-06-03T09:23:10Z</time>
      </trkpt>
      <trkpt lat="41.88427" lon="9.14313">
        <ele>1277.4</ele>
        <time>2021-06-03T09:23:11Z</time>
      </trkpt>
      <trkpt lat="41.8842" lon="9.1431">
        <ele>1276.4</ele>
        <time>2021-06-03T09:23:12Z</time>
      </trkpt>
      <trkpt lat="41.88414" lon="9.14304">
        <ele>1276.4</ele>
        <time>2021-06-03T09:23:13Z</time>
      </trkpt>
      <trkpt lat="41.88407" lon="9.143">
        <ele>1276.4</ele>
        <time>2021-06-03T09:23:14Z</time>
      </trkpt>
      <trkpt lat="41.884" lon="9.14295">
        <ele>1276.4</ele>
        <time>2021-06-03T09:23:15Z</time>
      </trkpt>
      <trkpt lat="41.88392" lon="9.14291">
        <ele>1276.4</ele>
        <time>2021-06-03T09:23:16Z</time>
      </trkpt>
      <trkpt lat="41.88384" lon="9.14288">
        <ele>1277.2</ele>
        <time>2021-06-03T09:23:17Z</time>
      </trkpt>
      <trkpt lat="41.88377" lon="9.14286">
        <ele>1277.2</ele>
        <time>2021-06-03T09:23:18Z</time>
      </trkpt>
      <trkpt lat="41.8837" lon="9.14285">
        <ele>1277.2</ele>
        <time>2021-06-03T09:23:19Z</time>
      </trkpt>
      <trkpt lat="41.88363" lon="9.14284">
        <ele>1277.2</ele>
        <time>2021-06-03T09:23:20Z</time>
      </trkpt>
      <trkpt lat="41.88355" lon="9.14283">
        <ele>1276.2</ele>
        <time>2021-06-03T09:23:21Z</time>
      </trkpt>
      <trkpt lat="41.88347" lon="9.14282">
        <ele>1276.2</ele>
        <time>2021-06-03T09:23:22Z</time>
      </trkpt>
      <trkpt lat="41.88339" lon="9.1428">
        <ele>1276.2</ele>
        <time>2021-06-03T09:23:23Z</time>
      </trkpt>
      <trkpt lat="41.88331" lon="9.14279">
        <ele>1275.2</ele>
        <time>2021-06-03T09:23:24Z</time>
      </trkpt>
      <trkpt lat="41.88322" lon="9.14276">
        <ele>1273.2</ele>
        <time>2021-06-03T09:23:25Z</time>
      </trkpt>
      <trkpt lat="41.88314" lon="9.14274">
        <ele>1273.2</ele>
        <time>2021-06-03T09:23:26Z</time>
      </trkpt>
      <trkpt lat="41.88305" lon="9.14273">
        <ele>1273.2</ele>
        <time>2021-06-03T09:23:27Z</time>
      </trkpt>
      <trkpt lat="41.88295" lon="9.14272">
        <ele>1272.2</ele>
        <time>2021-06-03T09:23:28Z</time>
      </trkpt>
      <trkpt lat="41.88285" lon="9.14271">
        <ele>1267.2</ele>
        <time>2021-06-03T09:23:29Z</time>
      </trkpt>
      <trkpt lat="41.88276" lon="9.14269">
        <ele>1267.2</ele>
        <time>2021-06-03T09:23:30Z</time>
      </trkpt>
      <trkpt lat="41.88267" lon="9.14267">
        <ele>1267.2</ele>
        <time>2021-06-03T09:23:31Z</time>
      </trkpt>
      <trkpt lat="41.8826" lon="9.14264">
        <ele>1267.2</ele>
        <time>2021-06-03T09:23:32Z</time>
      </trkpt>
      <trkpt lat="41.88252" lon="9.14262">
        <ele>1268.4</ele>
        <time>2021-06-03T09:23:33Z</time>
      </trkpt>
      <trkpt lat="41.88244" lon="9.14263">
        <ele>1268.4</ele>
        <time>2021-06-03T09:23:34Z</time>
      </trkpt>
      <trkpt lat="41.88237" lon="9.14265">
        <ele>1268.4</ele>
        <time>2021-06-03T09:23:35Z</time>
      </trkpt>
      <trkpt lat="41.88229" lon="9.14268">
        <ele>1268.4</ele>
        <time>2021-06-03T09:23:36Z</time>
      </trkpt>
      <trkpt lat="41.8822" lon="9.14271">
        <ele>1267.8</ele>
        <time>2021-06-03T09:23:37Z</time>
      </trkpt>
      <trkpt lat="41.88212" lon="9.14273">
        <ele>1267.8</ele>
        <time>2021-06-03T09:23:38Z</time>
      </trkpt>
      <trkpt lat="41.88204" lon="9.14273">
        <ele>1267.8</ele>
        <time>2021-06-03T09:23:39Z</time>
      </trkpt>
      <trkpt lat="41.88195" lon="9.14273">
        <ele>1266.8</ele>
        <time>2021-06-03T09:23:40Z</time>
      </trkpt>
      <trkpt lat="41.88187" lon="9.14272">
        <ele>1266.4</ele>
        <time>2021-06-03T09:23:41Z</time>
      </trkpt>
      <trkpt lat="41.88181" lon="9.1427">
        <ele>1266.4</ele>
        <time>2021-06-03T09:23:42Z</time>
      </trkpt>
      <trkpt lat="41.88175" lon="9.14266">
        <ele>1266.4</ele>
        <time>2021-06-03T09:23:43Z</time>
      </trkpt>
      <trkpt lat="41.88169" lon="9.14262">
        <ele>1266.4</ele>
        <time>2021-06-03T09:23:44Z</time>
      </trkpt>
      <trkpt lat="41.88163" lon="9.14257">
        <ele>1264.6</ele>
        <time>2021-06-03T09:23:45Z</time>
      </trkpt>
      <trkpt lat="41.88158" lon="9.14254">
        <ele>1264.6</ele>
        <time>2021-06-03T09:23:46Z</time>
      </trkpt>
      <trkpt lat="41.88152" lon="9.14254">
        <ele>1264.6</ele>
        <time>2021-06-03T09:23:47Z</time>
      </trkpt>
      <trkpt lat="41.88147" lon="9.14258">
        <ele>1264.6</ele>
        <time>2021-06-03T09:23:48Z</time>
      </trkpt>
      <trkpt lat="41.88141" lon="9.14264">
        <ele>1261.4</ele>
        <time>2021-06-03T09:23:49Z</time>
      </trkpt>
      <trkpt lat="41.88136" lon="9.1427">
        <ele>1261.4</ele>
        <time>2021-06-03T09:23:50Z</time>
      </trkpt>
      <trkpt lat="41.8813" lon="9.14277">
        <ele>1261.4</ele>
        <time>2021-06-03T09:23:51Z</time>
      </trkpt>
      <trkpt lat="41.88124" lon="9.14284">
        <ele>1261.4</ele>
        <time>2021-06-03T09:23:52Z</time>
      </trkpt>
      <trkpt lat="41.88118" lon="9.14291">
        <ele>1258.2</ele>
        <time>2021-06-03T09:23:53Z</time>
      </trkpt>
      <trkpt lat="41.88113" lon="9.14298">
        <ele>1258.2</ele>
        <time>2021-06-03T09:23:54Z</time>
      </trkpt>
      <trkpt lat="41.88107" lon="9.14306">
        <ele>1258.2</ele>
        <time>2021-06-03T09:23:55Z</time>
      </trkpt>
      <trkpt lat="41.88102" lon="9.14314">
        <ele>1258.2</ele>
        <time>2021-06-03T09:23:56Z</time>
      </trkpt>
      <trkpt lat="41.88097" lon="9.1432">
        <ele>1259.8</ele>
        <time>2021-06-03T09:23:57Z</time>
      </trkpt>
      <trkpt lat="41.88093" lon="9.14325">
        <ele>1259.8</ele>
        <time>2021-06-03T09:23:58Z</time>
      </trkpt>
      <trkpt lat="41.88087" lon="9.14328">
        <ele>1259.8</ele>
        <time>2021-06-03T09:23:59Z</time>
      </trkpt>
      <trkpt lat="41.88081" lon="9.1433">
        <ele>1258.8</ele>
        <time>2021-06-03T09:24:00Z</time>
      </trkpt>
      <trkpt lat="41.88074" lon="9.14331">
        <ele>1256.4</ele>
        <time>2021-06-03T09:24:01Z</time>
      </trkpt>
      <trkpt lat="41.88066" lon="9.1433">
        <ele>1256.4</ele>
        <time>2021-06-03T09:24:02Z</time>
      </trkpt>
      <trkpt lat="41.88059" lon="9.14328">
        <ele>1256.4</ele>
        <time>2021-06-03T09:24:03Z</time>
      </trkpt>
      <trkpt lat="41.88052" lon="9.14326">
        <ele>1255.4</ele>
        <time>2021-06-03T09:24:04Z</time>
      </trkpt>
      <trkpt lat="41.88046" lon="9.14322">
        <ele>1255.4</ele>
        <time>2021-06-03T09:24:05Z</time>
      </trkpt>
      <trkpt lat="41.8804" lon="9.14318">
        <ele>1255.4</ele>
        <time>2021-06-03T09:24:06Z</time>
      </trkpt>
      <trkpt lat="41.88033" lon="9.14316">
        <ele>1255.4</ele>
        <time>2021-06-03T09:24:07Z</time>
      </trkpt>
      <trkpt lat="41.88027" lon="9.14316">
        <ele>1256.4</ele>
        <time>2021-06-03T09:24:08Z</time>
      </trkpt>
      <trkpt lat="41.88021" lon="9.14318">
        <ele>1257.2</ele>
        <time>2021-06-03T09:24:09Z</time>
      </trkpt>
      <trkpt lat="41.88015" lon="9.14319">
        <ele>1257.2</ele>
        <time>2021-06-03T09:24:10Z</time>
      </trkpt>
      <trkpt lat="41.8801" lon="9.14318">
        <ele>1257.2</ele>
        <time>2021-06-03T09:24:11Z</time>
      </trkpt>
      <trkpt lat="41.88006" lon="9.14318">
        <ele>1258.2</ele>
        <time>2021-06-03T09:24:12Z</time>
      </trkpt>
      <trkpt lat="41.88002" lon="9.14316">
        <ele>1258.4</ele>
        <time>2021-06-03T09:24:13Z</time>
      </trkpt>
      <trkpt lat="41.87998" lon="9.14315">
        <ele>1258.4</ele>
        <time>2021-06-03T09:24:14Z</time>
      </trkpt>
      <trkpt lat="41.87994" lon="9.14313">
        <ele>1258.4</ele>
        <time>2021-06-03T09:24:15Z</time>
      </trkpt>
      <trkpt lat="41.8799" lon="9.14312">
        <ele>1259.2</ele>
        <time>2021-06-03T09:24:16Z</time>
      </trkpt>
      <trkpt lat="41.87986" lon="9.14311">
        <ele>1260.2</ele>
        <time>2021-06-03T09:24:17Z</time>
      </trkpt>
      <trkpt lat="41.87982" lon="9.1431">
        <ele>1260.2</ele>
        <time>2021-06-03T09:24:18Z</time>
      </trkpt>
      <trkpt lat="41.87978" lon="9.14309">
        <ele>1260.2</ele>
        <time>2021-06-03T09:24:19Z</time>
      </trkpt>
      <trkpt lat="41.87975" lon="9.14308">
        <ele>1261.2</ele>
        <time>2021-06-03T09:24:20Z</time>
      </trkpt>
      <trkpt lat="41.87972" lon="9.14308">
        <ele>1261.8</ele>
        <time>2021-06-03T09:24:21Z</time>
      </trkpt>
      <trkpt lat="41.8797" lon="9.14308">
        <ele>1261.8</ele>
        <time>2021-06-03T09:24:22Z</time>
      </trkpt>
      <trkpt lat="41.87967" lon="9.14308">
        <ele>1261.8</ele>
        <time>2021-06-03T09:24:23Z</time>
      </trkpt>
      <trkpt lat="41.87965" lon="9.14308">
        <ele>1261.8</ele>
        <time>2021-06-03T09:24:24Z</time>
      </trkpt>
      <trkpt lat="41.87963" lon="9.14309">
        <ele>1262.2</ele>
        <time>2021-06-03T09:24:25Z</time>
      </trkpt>
      <trkpt lat="41.8796" lon="9.1431">
        <ele>1262.2</ele>
        <time>2021-06-03T09:24:26Z</time>
      </trkpt>
      <trkpt lat="41.87957" lon="9.1431">
        <ele>1262.2</ele>
        <time>2021-06-03T09:24:27Z</time>
      </trkpt>
      <trkpt lat="41.87954" lon="9.14311">
        <ele>1261.4</ele>
        <time>2021-06-03T09:24:28Z</time>
      </trkpt>
      <trkpt lat="41.8795" lon="9.14312">
        <ele>1261.4</ele>
        <time>2021-06-03T09:24:29Z</time>
      </trkpt>
      <trkpt lat="41.87947" lon="9.14312">
        <ele>1261.4</ele>
        <time>2021-06-03T09:24:30Z</time>
      </trkpt>
      <trkpt lat="41.87943" lon="9.14312">
        <ele>1261.4</ele>
        <time>2021-06-03T09:24:31Z</time>
      </trkpt>
      <trkpt lat="41.87939" lon="9.14311">
        <ele>1260.4</ele>
        <time>2021-06-03T09:24:32Z</time>
      </trkpt>
      <trkpt lat="41.87935" lon="9.14308">
        <ele>1260.2</ele>
        <time>2021-06-03T09:24:33Z</time>
      </trkpt>
      <trkpt lat="41.87932" lon="9.14305">
        <ele>1260.2</ele>
        <time>2021-06-03T09:24:34Z</time>
      </trkpt>
      <trkpt lat="41.87929" lon="9.14302">
        <ele>1260.2</ele>
        <time>2021-06-03T09:24:35Z</time>
      </trkpt>
      <trkpt lat="41.87926" lon="9.14296">
        <ele>1259.2</ele>
        <time>2021-06-03T09:24:36Z</time>
      </trkpt>
      <trkpt lat="41.87924" lon="9.14292">
        <ele>1258.4</ele>
        <time>2021-06-03T09:24:37Z</time>
      </trkpt>
      <trkpt lat="41.87922" lon="9.14286">
        <ele>1258.4</ele>
        <time>2021-06-03T09:24:38Z</time>
      </trkpt>
      <trkpt lat="41.87922" lon="9.14281">
        <ele>1258.4</ele>
        <time>2021-06-03T09:24:39Z</time>
      </trkpt>
      <trkpt lat="41.8792" lon="9.14275">
        <ele>1258.4</ele>
        <time>2021-06-03T09:24:40Z</time>
      </trkpt>
      <trkpt lat="41.87919" lon="9.14268">
        <ele>1256.4</ele>
        <time>2021-06-03T09:24:41Z</time>
      </trkpt>
      <trkpt lat="41.8792" lon="9.14261">
        <ele>1256.4</ele>
        <time>2021-06-03T09:24:42Z</time>
      </trkpt>
      <trkpt lat="41.87921" lon="9.14256">
        <ele>1256.4</ele>
        <time>2021-06-03T09:24:43Z</time>
      </trkpt>
      <trkpt lat="41.87923" lon="9.14249">
        <ele>1255.6</ele>
        <time>2021-06-03T09:24:44Z</time>
      </trkpt>
      <trkpt lat="41.87923" lon="9.14241">
        <ele>1254.6</ele>
        <time>2021-06-03T09:24:45Z</time>
      </trkpt>
      <trkpt lat="41.87923" lon="9.14231">
        <ele>1254.6</ele>
        <time>2021-06-03T09:24:46Z</time>
      </trkpt>
      <trkpt lat="41.87922" lon="9.14221">
        <ele>1254.6</ele>
        <time>2021-06-03T09:24:47Z</time>
      </trkpt>
      <trkpt lat="41.8792" lon="9.1421">
        <ele>1253.6</ele>
        <time>2021-06-03T09:24:48Z</time>
      </trkpt>
      <trkpt lat="41.87917" lon="9.14198">
        <ele>1251.2</ele>
        <time>2021-06-03T09:24:49Z</time>
      </trkpt>
      <trkpt lat="41.87913" lon="9.14187">
        <ele>1251.2</ele>
        <time>2021-06-03T09:24:50Z</time>
      </trkpt>
      <trkpt lat="41.8791" lon="9.14176">
        <ele>1251.2</ele>
        <time>2021-06-03T09:24:51Z</time>
      </trkpt>
      <trkpt lat="41.87908" lon="9.14167">
        <ele>1250.2</ele>
        <time>2021-06-03T09:24:52Z</time>
      </trkpt>
      <trkpt lat="41.87906" lon="9.14161">
        <ele>1251.2</ele>
        <time>2021-06-03T09:24:53Z</time>
      </trkpt>
      <trkpt lat="41.87905" lon="9.14154">
        <ele>1251.2</ele>
        <time>2021-06-03T09:24:54Z</time>
      </trkpt>
      <trkpt lat="41.87904" lon="9.14147">
        <ele>1251.2</ele>
        <time>2021-06-03T09:24:55Z</time>
      </trkpt>
      <trkpt lat="41.87907" lon="9.14142">
        <ele>1250.6</ele>
        <time>2021-06-03T09:24:56Z</time>
      </trkpt>
      <trkpt lat="41.87909" lon="9.1414">
        <ele>1250.4</ele>
        <time>2021-06-03T09:24:57Z</time>
      </trkpt>
      <trkpt lat="41.87914" lon="9.14138">
        <ele>1250.4</ele>
        <time>2021-06-03T09:24:58Z</time>
      </trkpt>
      <trkpt lat="41.87919" lon="9.14137">
        <ele>1250.4</ele>
        <time>2021-06-03T09:24:59Z</time>
      </trkpt>
      <trkpt lat="41.87921" lon="9.14136">
        <ele>1250.4</ele>
        <time>2021-06-03T09:25:00Z</time>
      </trkpt>
      <trkpt lat="41.87924" lon="9.14135">
        <ele>1252.2</ele>
        <time>2021-06-03T09:25:01Z</time>
      </trkpt>
      <trkpt lat="41.87927" lon="9.14135">
        <ele>1252.2</ele>
        <time>2021-06-03T09:25:02Z</time>
      </trkpt>
      <trkpt lat="41.87929" lon="9.14134">
        <ele>1252.2</ele>
        <time>2021-06-03T09:25:03Z</time>
      </trkpt>
      <trkpt lat="41.87931" lon="9.14133">
        <ele>1253.2</ele>
        <time>2021-06-03T09:25:04Z</time>
      </trkpt>
      <trkpt lat="41.87934" lon="9.14132">
        <ele>1254.2</ele>
        <time>2021-06-03T09:25:05Z</time>
      </trkpt>
      <trkpt lat="41.87936" lon="9.14131">
        <ele>1254.2</ele>
        <time>2021-06-03T09:25:06Z</time>
      </trkpt>
      <trkpt lat="41.87939" lon="9.14129">
        <ele>1254.2</ele>
        <time>2021-06-03T09:25:07Z</time>
      </trkpt>
      <trkpt lat="41.87941" lon="9.14127">
        <ele>1255.2</ele>
        <time>2021-06-03T09:25:08Z</time>
      </trkpt>
      <trkpt lat="41.87943" lon="9.14123">
        <ele>1255.6</ele>
        <time>2021-06-03T09:25:09Z</time>
      </trkpt>
      <trkpt lat="41.87944" lon="9.14117">
        <ele>1255.6</ele>
        <time>2021-06-03T09:25:10Z</time>
      </trkpt>
      <trkpt lat="41.87945" lon="9.14112">
        <ele>1255.6</ele>
        <time>2021-06-03T09:25:11Z</time>
      </trkpt>
      <trkpt lat="41.87945" lon="9.14106">
        <ele>1254.6</ele>
        <time>2021-06-03T09:25:12Z</time>
      </trkpt>
      <trkpt lat="41.87944" lon="9.141">
        <ele>1254.2</ele>
        <time>2021-06-03T09:25:13Z</time>
      </trkpt>
      <trkpt lat="41.87943" lon="9.14095">
        <ele>1254.2</ele>
        <time>2021-06-03T09:25:14Z</time>
      </trkpt>
      <trkpt lat="41.87943" lon="9.14089">
        <ele>1254.2</ele>
        <time>2021-06-03T09:25:15Z</time>
      </trkpt>
      <trkpt lat="41.87942" lon="9.14084">
        <ele>1254.4</ele>
        <time>2021-06-03T09:25:16Z</time>
      </trkpt>
      <trkpt lat="41.87941" lon="9.1408">
        <ele>1254.2</ele>
        <time>2021-06-03T09:25:17Z</time>
      </trkpt>
      <trkpt lat="41.87941" lon="9.14075">
        <ele>1254.2</ele>
        <time>2021-06-03T09:25:18Z</time>
      </trkpt>
      <trkpt lat="41.87941" lon="9.14071">
        <ele>1254.2</ele>
        <time>2021-06-03T09:25:19Z</time>
      </trkpt>
      <trkpt lat="41.87941" lon="9.14067">
        <ele>1254.2</ele>
        <time>2021-06-03T09:25:20Z</time>
      </trkpt>
      <trkpt lat="41.87941" lon="9.14063">
        <ele>1254.6</ele>
        <time>2021-06-03T09:25:21Z</time>
      </trkpt>
      <trkpt lat="41.87941" lon="9.14059">
        <ele>1254.6</ele>
        <time>2021-06-03T09:25:22Z</time>
      </trkpt>
      <trkpt lat="41.87941" lon="9.14054">
        <ele>1254.6</ele>
        <time>2021-06-03T09:25:23Z</time>
      </trkpt>
      <trkpt lat="41.87941" lon="9.1405">
        <ele>1254.6</ele>
        <time>2021-06-03T09:25:24Z</time>
      </trkpt>
      <trkpt lat="41.87942" lon="9.14046">
        <ele>1254.6</ele>
        <time>2021-06-03T09:25:25Z</time>
      </trkpt>
      <trkpt lat="41.87942" lon="9.14043">
        <ele>1254.6</ele>
        <time>2021-06-03T09:25:26Z</time>
      </trkpt>
      <trkpt lat="41.87942" lon="9.14039">
        <ele>1254.6</ele>
        <time>2021-06-03T09:25:27Z</time>
      </trkpt>
      <trkpt lat="41.87943" lon="9.14036">
        <ele>1254.6</ele>
        <time>2021-06-03T09:25:28Z</time>
      </trkpt>
      <trkpt lat="41.87943" lon="9.14033">
        <ele>1254.2</ele>
        <time>2021-06-03T09:25:29Z</time>
      </trkpt>
      <trkpt lat="41.87944" lon="9.14029">
        <ele>1254.2</ele>
        <time>2021-06-03T09:25:30Z</time>
      </trkpt>
      <trkpt lat="41.87946" lon="9.14025">
        <ele>1254.2</ele>
        <time>2021-06-03T09:25:31Z</time>
      </trkpt>
      <trkpt lat="41.87947" lon="9.1402">
        <ele>1254.2</ele>
        <time>2021-06-03T09:25:32Z</time>
      </trkpt>
      <trkpt lat="41.87949" lon="9.14014">
        <ele>1253</ele>
        <time>2021-06-03T09:25:33Z</time>
      </trkpt>
      <trkpt lat="41.8795" lon="9.14009">
        <ele>1253</ele>
        <time>2021-06-03T09:25:34Z</time>
      </trkpt>
      <trkpt lat="41.87952" lon="9.14004">
        <ele>1253</ele>
        <time>2021-06-03T09:25:35Z</time>
      </trkpt>
      <trkpt lat="41.87953" lon="9.13998">
        <ele>1252.2</ele>
        <time>2021-06-03T09:25:36Z</time>
      </trkpt>
      <trkpt lat="41.87953" lon="9.1399">
        <ele>1251.4</ele>
        <time>2021-06-03T09:25:37Z</time>
      </trkpt>
      <trkpt lat="41.87953" lon="9.13982">
        <ele>1251.4</ele>
        <time>2021-06-03T09:25:38Z</time>
      </trkpt>
      <trkpt lat="41.87952" lon="9.13974">
        <ele>1251.4</ele>
        <time>2021-06-03T09:25:39Z</time>
      </trkpt>
      <trkpt lat="41.87951" lon="9.13966">
        <ele>1250.4</ele>
        <time>2021-06-03T09:25:40Z</time>
      </trkpt>
      <trkpt lat="41.87949" lon="9.13956">
        <ele>1249.6</ele>
        <time>2021-06-03T09:25:41Z</time>
      </trkpt>
      <trkpt lat="41.87947" lon="9.13948">
        <ele>1249.6</ele>
        <time>2021-06-03T09:25:42Z</time>
      </trkpt>
      <trkpt lat="41.87946" lon="9.13942">
        <ele>1249.6</ele>
        <time>2021-06-03T09:25:43Z</time>
      </trkpt>
      <trkpt lat="41.87945" lon="9.13935">
        <ele>1249.6</ele>
        <time>2021-06-03T09:25:44Z</time>
      </trkpt>
      <trkpt lat="41.87944" lon="9.13928">
        <ele>1249</ele>
        <time>2021-06-03T09:25:45Z</time>
      </trkpt>
      <trkpt lat="41.87943" lon="9.13919">
        <ele>1249</ele>
        <time>2021-06-03T09:25:46Z</time>
      </trkpt>
      <trkpt lat="41.8794" lon="9.13913">
        <ele>1249</ele>
        <time>2021-06-03T09:25:47Z</time>
      </trkpt>
      <trkpt lat="41.87937" lon="9.13906">
        <ele>1248.4</ele>
        <time>2021-06-03T09:25:48Z</time>
      </trkpt>
      <trkpt lat="41.87934" lon="9.13899">
        <ele>1246.8</ele>
        <time>2021-06-03T09:25:49Z</time>
      </trkpt>
      <trkpt lat="41.87931" lon="9.13892">
        <ele>1246.8</ele>
        <time>2021-06-03T09:25:50Z</time>
      </trkpt>
      <trkpt lat="41.8793" lon="9.13883">
        <ele>1246.8</ele>
        <time>2021-06-03T09:25:51Z</time>
      </trkpt>
      <trkpt lat="41.87929" lon="9.13872">
        <ele>1245.8</ele>
        <time>2021-06-03T09:25:52Z</time>
      </trkpt>
      <trkpt lat="41.87929" lon="9.13859">
        <ele>1241</ele>
        <time>2021-06-03T09:25:53Z</time>
      </trkpt>
      <trkpt lat="41.87929" lon="9.13848">
        <ele>1241</ele>
        <time>2021-06-03T09:25:54Z</time>
      </trkpt>
      <trkpt lat="41.87928" lon="9.13836">
        <ele>1241</ele>
        <time>2021-06-03T09:25:55Z</time>
      </trkpt>
      <trkpt lat="41.87928" lon="9.13823">
        <ele>1240</ele>
        <time>2021-06-03T09:25:56Z</time>
      </trkpt>
      <trkpt lat="41.87928" lon="9.13812">
        <ele>1240.8</ele>
        <time>2021-06-03T09:25:57Z</time>
      </trkpt>
      <trkpt lat="41.87928" lon="9.13801">
        <ele>1240.8</ele>
        <time>2021-06-03T09:25:58Z</time>
      </trkpt>
      <trkpt lat="41.8793" lon="9.1379">
        <ele>1240.8</ele>
        <time>2021-06-03T09:25:59Z</time>
      </trkpt>
      <trkpt lat="41.87932" lon="9.1378">
        <ele>1240.4</ele>
        <time>2021-06-03T09:26:00Z</time>
      </trkpt>
      <trkpt lat="41.87934" lon="9.1377">
        <ele>1239.2</ele>
        <time>2021-06-03T09:26:01Z</time>
      </trkpt>
      <trkpt lat="41.87935" lon="9.13759">
        <ele>1239.2</ele>
        <time>2021-06-03T09:26:02Z</time>
      </trkpt>
      <trkpt lat="41.87936" lon="9.13749">
        <ele>1239.2</ele>
        <time>2021-06-03T09:26:03Z</time>
      </trkpt>
      <trkpt lat="41.87938" lon="9.13739">
        <ele>1238.2</ele>
        <time>2021-06-03T09:26:04Z</time>
      </trkpt>
      <trkpt lat="41.87938" lon="9.13727">
        <ele>1234.8</ele>
        <time>2021-06-03T09:26:05Z</time>
      </trkpt>
      <trkpt lat="41.87938" lon="9.13717">
        <ele>1234.8</ele>
        <time>2021-06-03T09:26:06Z</time>
      </trkpt>
      <trkpt lat="41.87936" lon="9.13705">
        <ele>1234.8</ele>
        <time>2021-06-03T09:26:07Z</time>
      </trkpt>
      <trkpt lat="41.87935" lon="9.13694">
        <ele>1233.8</ele>
        <time>2021-06-03T09:26:08Z</time>
      </trkpt>
      <trkpt lat="41.87932" lon="9.13683">
        <ele>1232.6</ele>
        <time>2021-06-03T09:26:09Z</time>
      </trkpt>
      <trkpt lat="41.87927" lon="9.13674">
        <ele>1232.6</ele>
        <time>2021-06-03T09:26:10Z</time>
      </trkpt>
      <trkpt lat="41.87924" lon="9.13664">
        <ele>1232.6</ele>
        <time>2021-06-03T09:26:11Z</time>
      </trkpt>
      <trkpt lat="41.87918" lon="9.13655">
        <ele>1231.6</ele>
        <time>2021-06-03T09:26:12Z</time>
      </trkpt>
      <trkpt lat="41.87913" lon="9.13647">
        <ele>1231</ele>
        <time>2021-06-03T09:26:13Z</time>
      </trkpt>
      <trkpt lat="41.87907" lon="9.13639">
        <ele>1231</ele>
        <time>2021-06-03T09:26:14Z</time>
      </trkpt>
      <trkpt lat="41.87902" lon="9.13631">
        <ele>1231</ele>
        <time>2021-06-03T09:26:15Z</time>
      </trkpt>
      <trkpt lat="41.87896" lon="9.13624">
        <ele>1231.4</ele>
        <time>2021-06-03T09:26:16Z</time>
      </trkpt>
      <trkpt lat="41.87891" lon="9.13615">
        <ele>1231.4</ele>
        <time>2021-06-03T09:26:17Z</time>
      </trkpt>
      <trkpt lat="41.87887" lon="9.13607">
        <ele>1231.4</ele>
        <time>2021-06-03T09:26:18Z</time>
      </trkpt>
      <trkpt lat="41.87882" lon="9.13598">
        <ele>1231.4</ele>
        <time>2021-06-03T09:26:19Z</time>
      </trkpt>
      <trkpt lat="41.87876" lon="9.1359">
        <ele>1230.8</ele>
        <time>2021-06-03T09:26:20Z</time>
      </trkpt>
      <trkpt lat="41.87869" lon="9.13582">
        <ele>1230</ele>
        <time>2021-06-03T09:26:21Z</time>
      </trkpt>
      <trkpt lat="41.87862" lon="9.13574">
        <ele>1230</ele>
        <time>2021-06-03T09:26:22Z</time>
      </trkpt>
      <trkpt lat="41.87856" lon="9.13564">
        <ele>1230</ele>
        <time>2021-06-03T09:26:23Z</time>
      </trkpt>
      <trkpt lat="41.8785" lon="9.13555">
        <ele>1229</ele>
        <time>2021-06-03T09:26:24Z</time>
      </trkpt>
      <trkpt lat="41.87844" lon="9.13545">
        <ele>1229.4</ele>
        <time>2021-06-03T09:26:25Z</time>
      </trkpt>
      <trkpt lat="41.87838" lon="9.13536">
        <ele>1229.4</ele>
        <time>2021-06-03T09:26:26Z</time>
      </trkpt>
      <trkpt lat="41.87833" lon="9.1353">
        <ele>1229.4</ele>
        <time>2021-06-03T09:26:27Z</time>
      </trkpt>
      <trkpt lat="41.87827" lon="9.13524">
        <ele>1230.4</ele>
        <time>2021-06-03T09:26:28Z</time>
      </trkpt>
      <trkpt lat="41.87821" lon="9.13519">
        <ele>1232.4</ele>
        <time>2021-06-03T09:26:29Z</time>
      </trkpt>
      <trkpt lat="41.87814" lon="9.13511">
        <ele>1232.4</ele>
        <time>2021-06-03T09:26:30Z</time>
      </trkpt>
      <trkpt lat="41.87807" lon="9.13505">
        <ele>1232.4</ele>
        <time>2021-06-03T09:26:31Z</time>
      </trkpt>
      <trkpt lat="41.87801" lon="9.135">
        <ele>1232.4</ele>
        <time>2021-06-03T09:26:32Z</time>
      </trkpt>
      <trkpt lat="41.87794" lon="9.13496">
        <ele>1232.8</ele>
        <time>2021-06-03T09:26:33Z</time>
      </trkpt>
      <trkpt lat="41.87787" lon="9.13492">
        <ele>1232.8</ele>
        <time>2021-06-03T09:26:34Z</time>
      </trkpt>
      <trkpt lat="41.87781" lon="9.13488">
        <ele>1232.8</ele>
        <time>2021-06-03T09:26:35Z</time>
      </trkpt>
      <trkpt lat="41.87774" lon="9.13483">
        <ele>1233.4</ele>
        <time>2021-06-03T09:26:36Z</time>
      </trkpt>
      <trkpt lat="41.87767" lon="9.13479">
        <ele>1233.6</ele>
        <time>2021-06-03T09:26:37Z</time>
      </trkpt>
      <trkpt lat="41.87761" lon="9.13475">
        <ele>1233.6</ele>
        <time>2021-06-03T09:26:38Z</time>
      </trkpt>
      <trkpt lat="41.87755" lon="9.13471">
        <ele>1233.6</ele>
        <time>2021-06-03T09:26:39Z</time>
      </trkpt>
      <trkpt lat="41.87749" lon="9.13467">
        <ele>1233.6</ele>
        <time>2021-06-03T09:26:40Z</time>
      </trkpt>
      <trkpt lat="41.87744" lon="9.13464">
        <ele>1234.2</ele>
        <time>2021-06-03T09:26:41Z</time>
      </trkpt>
      <trkpt lat="41.87739" lon="9.13462">
        <ele>1234.2</ele>
        <time>2021-06-03T09:26:42Z</time>
      </trkpt>
      <trkpt lat="41.87733" lon="9.13459">
        <ele>1234.2</ele>
        <time>2021-06-03T09:26:43Z</time>
      </trkpt>
      <trkpt lat="41.87728" lon="9.13457">
        <ele>1235</ele>
        <time>2021-06-03T09:26:44Z</time>
      </trkpt>
      <trkpt lat="41.87724" lon="9.13455">
        <ele>1235.4</ele>
        <time>2021-06-03T09:26:45Z</time>
      </trkpt>
      <trkpt lat="41.8772" lon="9.13452">
        <ele>1235.4</ele>
        <time>2021-06-03T09:26:46Z</time>
      </trkpt>
      <trkpt lat="41.87716" lon="9.13449">
        <ele>1235.4</ele>
        <time>2021-06-03T09:26:47Z</time>
      </trkpt>
      <trkpt lat="41.87712" lon="9.13447">
        <ele>1236.4</ele>
        <time>2021-06-03T09:26:48Z</time>
      </trkpt>
      <trkpt lat="41.87709" lon="9.13445">
        <ele>1237.2</ele>
        <time>2021-06-03T09:26:49Z</time>
      </trkpt>
      <trkpt lat="41.87706" lon="9.13442">
        <ele>1237.2</ele>
        <time>2021-06-03T09:26:50Z</time>
      </trkpt>
      <trkpt lat="41.87703" lon="9.1344">
        <ele>1237.2</ele>
        <time>2021-06-03T09:26:51Z</time>
      </trkpt>
      <trkpt lat="41.877" lon="9.13438">
        <ele>1238.2</ele>
        <time>2021-06-03T09:26:52Z</time>
      </trkpt>
      <trkpt lat="41.87698" lon="9.13435">
        <ele>1238.4</ele>
        <time>2021-06-03T09:26:53Z</time>
      </trkpt>
      <trkpt lat="41.87695" lon="9.13433">
        <ele>1238.4</ele>
        <time>2021-06-03T09:26:54Z</time>
      </trkpt>
      <trkpt lat="41.87693" lon="9.13431">
        <ele>1238.4</ele>
        <time>2021-06-03T09:26:55Z</time>
      </trkpt>
      <trkpt lat="41.8769" lon="9.13429">
        <ele>1238.4</ele>
        <time>2021-06-03T09:26:56Z</time>
      </trkpt>
      <trkpt lat="41.87687" lon="9.13427">
        <ele>1238.8</ele>
        <time>2021-06-03T09:26:57Z</time>
      </trkpt>
      <trkpt lat="41.87684" lon="9.13425">
        <ele>1238.8</ele>
        <time>2021-06-03T09:26:58Z</time>
      </trkpt>
      <trkpt lat="41.87681" lon="9.13424">
        <ele>1238.8</ele>
        <time>2021-06-03T09:26:59Z</time>
      </trkpt>
      <trkpt lat="41.87679" lon="9.13422">
        <ele>1239</ele>
        <time>2021-06-03T09:27:00Z</time>
      </trkpt>
      <trkpt lat="41.87676" lon="9.13421">
        <ele>1239.2</ele>
        <time>2021-06-03T09:27:01Z</time>
      </trkpt>
      <trkpt lat="41.87673" lon="9.1342">
        <ele>1239.2</ele>
        <time>2021-06-03T09:27:02Z</time>
      </trkpt>
      <trkpt lat="41.8767" lon="9.13419">
        <ele>1239.2</ele>
        <time>2021-06-03T09:27:03Z</time>
      </trkpt>
      <trkpt lat="41.87668" lon="9.13417">
        <ele>1239.8</ele>
        <time>2021-06-03T09:27:04Z</time>
      </trkpt>
      <trkpt lat="41.87665" lon="9.13416">
        <ele>1239.6</ele>
        <time>2021-06-03T09:27:05Z</time>
      </trkpt>
      <trkpt lat="41.87661" lon="9.13415">
        <ele>1239.6</ele>
        <time>2021-06-03T09:27:06Z</time>
      </trkpt>
      <trkpt lat="41.87658" lon="9.13414">
        <ele>1239.6</ele>
        <time>2021-06-03T09:27:07Z</time>
      </trkpt>
      <trkpt lat="41.87655" lon="9.13414">
        <ele>1239.2</ele>
        <time>2021-06-03T09:27:08Z</time>
      </trkpt>
      <trkpt lat="41.87651" lon="9.13413">
        <ele>1239.2</ele>
        <time>2021-06-03T09:27:09Z</time>
      </trkpt>
      <trkpt lat="41.87648" lon="9.13413">
        <ele>1239.2</ele>
        <time>2021-06-03T09:27:10Z</time>
      </trkpt>
      <trkpt lat="41.87644" lon="9.13414">
        <ele>1239.2</ele>
        <time>2021-06-03T09:27:11Z</time>
      </trkpt>
      <trkpt lat="41.8764" lon="9.13414">
        <ele>1238.4</ele>
        <time>2021-06-03T09:27:12Z</time>
      </trkpt>
      <trkpt lat="41.87635" lon="9.13415">
        <ele>1237.4</ele>
        <time>2021-06-03T09:27:13Z</time>
      </trkpt>
      <trkpt lat="41.87631" lon="9.13416">
        <ele>1237.4</ele>
        <time>2021-06-03T09:27:14Z</time>
      </trkpt>
      <trkpt lat="41.87626" lon="9.13417">
        <ele>1237.4</ele>
        <time>2021-06-03T09:27:15Z</time>
      </trkpt>
      <trkpt lat="41.87621" lon="9.13418">
        <ele>1236.4</ele>
        <time>2021-06-03T09:27:16Z</time>
      </trkpt>
      <trkpt lat="41.87616" lon="9.13419">
        <ele>1236</ele>
        <time>2021-06-03T09:27:17Z</time>
      </trkpt>
      <trkpt lat="41.87611" lon="9.13419">
        <ele>1236</ele>
        <time>2021-06-03T09:27:18Z</time>
      </trkpt>
      <trkpt lat="41.87607" lon="9.13417">
        <ele>1236</ele>
        <time>2021-06-03T09:27:19Z</time>
      </trkpt>
      <trkpt lat="41.87603" lon="9.13414">
        <ele>1236</ele>
        <time>2021-06-03T09:27:20Z</time>
      </trkpt>
      <trkpt lat="41.87599" lon="9.13408">
        <ele>1231.6</ele>
        <time>2021-06-03T09:27:21Z</time>
      </trkpt>
      <trkpt lat="41.87596" lon="9.134">
        <ele>1231.6</ele>
        <time>2021-06-03T09:27:22Z</time>
      </trkpt>
      <trkpt lat="41.87594" lon="9.13391">
        <ele>1231.6</ele>
        <time>2021-06-03T09:27:23Z</time>
      </trkpt>
      <trkpt lat="41.87593" lon="9.13382">
        <ele>1230.6</ele>
        <time>2021-06-03T09:27:24Z</time>
      </trkpt>
      <trkpt lat="41.87593" lon="9.13374">
        <ele>1226.8</ele>
        <time>2021-06-03T09:27:25Z</time>
      </trkpt>
      <trkpt lat="41.87594" lon="9.13365">
        <ele>1226.8</ele>
        <time>2021-06-03T09:27:26Z</time>
      </trkpt>
      <trkpt lat="41.87595" lon="9.13355">
        <ele>1226.8</ele>
        <time>2021-06-03T09:27:27Z</time>
      </trkpt>
      <trkpt lat="41.87596" lon="9.13345">
        <ele>1225.8</ele>
        <time>2021-06-03T09:27:28Z</time>
      </trkpt>
      <trkpt lat="41.87596" lon="9.13337">
        <ele>1224.8</ele>
        <time>2021-06-03T09:27:29Z</time>
      </trkpt>
      <trkpt lat="41.87595" lon="9.1333">
        <ele>1224.8</ele>
        <time>2021-06-03T09:27:30Z</time>
      </trkpt>
      <trkpt lat="41.87593" lon="9.13324">
        <ele>1224.8</ele>
        <time>2021-06-03T09:27:31Z</time>
      </trkpt>
      <trkpt lat="41.87588" lon="9.13318">
        <ele>1223.8</ele>
        <time>2021-06-03T09:27:32Z</time>
      </trkpt>
      <trkpt lat="41.87582" lon="9.13315">
        <ele>1222.6</ele>
        <time>2021-06-03T09:27:33Z</time>
      </trkpt>
      <trkpt lat="41.87575" lon="9.13313">
        <ele>1222.6</ele>
        <time>2021-06-03T09:27:34Z</time>
      </trkpt>
      <trkpt lat="41.87569" lon="9.13313">
        <ele>1222.6</ele>
        <time>2021-06-03T09:27:35Z</time>
      </trkpt>
      <trkpt lat="41.87564" lon="9.13311">
        <ele>1222.6</ele>
        <time>2021-06-03T09:27:36Z</time>
      </trkpt>
      <trkpt lat="41.8756" lon="9.13307">
        <ele>1222.8</ele>
        <time>2021-06-03T09:27:37Z</time>
      </trkpt>
      <trkpt lat="41.87559" lon="9.13301">
        <ele>1222.8</ele>
        <time>2021-06-03T09:27:38Z</time>
      </trkpt>
      <trkpt lat="41.87561" lon="9.13296">
        <ele>1222.8</ele>
        <time>2021-06-03T09:27:39Z</time>
      </trkpt>
      <trkpt lat="41.87563" lon="9.13291">
        <ele>1222.8</ele>
        <time>2021-06-03T09:27:40Z</time>
      </trkpt>
      <trkpt lat="41.87566" lon="9.13286">
        <ele>1222.4</ele>
        <time>2021-06-03T09:27:41Z</time>
      </trkpt>
      <trkpt lat="41.87568" lon="9.13281">
        <ele>1222.4</ele>
        <time>2021-06-03T09:27:42Z</time>
      </trkpt>
      <trkpt lat="41.8757" lon="9.13275">
        <ele>1222.4</ele>
        <time>2021-06-03T09:27:43Z</time>
      </trkpt>
      <trkpt lat="41.87572" lon="9.13269">
        <ele>1221.4</ele>
        <time>2021-06-03T09:27:44Z</time>
      </trkpt>
      <trkpt lat="41.87575" lon="9.13261">
        <ele>1220.2</ele>
        <time>2021-06-03T09:27:45Z</time>
      </trkpt>
      <trkpt lat="41.87577" lon="9.13254">
        <ele>1220.2</ele>
        <time>2021-06-03T09:27:46Z</time>
      </trkpt>
      <trkpt lat="41.87579" lon="9.13245">
        <ele>1220.2</ele>
        <time>2021-06-03T09:27:47Z</time>
      </trkpt>
      <trkpt lat="41.87579" lon="9.13235">
        <ele>1219.2</ele>
        <time>2021-06-03T09:27:48Z</time>
      </trkpt>
      <trkpt lat="41.8758" lon="9.13224">
        <ele>1214</ele>
        <time>2021-06-03T09:27:49Z</time>
      </trkpt>
      <trkpt lat="41.87579" lon="9.13212">
        <ele>1214</ele>
        <time>2021-06-03T09:27:50Z</time>
      </trkpt>
      <trkpt lat="41.87577" lon="9.13199">
        <ele>1214</ele>
        <time>2021-06-03T09:27:51Z</time>
      </trkpt>
      <trkpt lat="41.87576" lon="9.13184">
        <ele>1213</ele>
        <time>2021-06-03T09:27:52Z</time>
      </trkpt>
      <trkpt lat="41.87574" lon="9.13169">
        <ele>1203.8</ele>
        <time>2021-06-03T09:27:53Z</time>
      </trkpt>
      <trkpt lat="41.87573" lon="9.13152">
        <ele>1203.8</ele>
        <time>2021-06-03T09:27:54Z</time>
      </trkpt>
      <trkpt lat="41.87571" lon="9.13135">
        <ele>1203.8</ele>
        <time>2021-06-03T09:27:55Z</time>
      </trkpt>
      <trkpt lat="41.8757" lon="9.13119">
        <ele>1202.8</ele>
        <time>2021-06-03T09:27:56Z</time>
      </trkpt>
      <trkpt lat="41.87569" lon="9.13106">
        <ele>1201.4</ele>
        <time>2021-06-03T09:27:57Z</time>
      </trkpt>
      <trkpt lat="41.87568" lon="9.13095">
        <ele>1201.4</ele>
        <time>2021-06-03T09:27:58Z</time>
      </trkpt>
      <trkpt lat="41.87567" lon="9.13084">
        <ele>1201.4</ele>
        <time>2021-06-03T09:27:59Z</time>
      </trkpt>
      <trkpt lat="41.87567" lon="9.13073">
        <ele>1200.4</ele>
        <time>2021-06-03T09:28:00Z</time>
      </trkpt>
      <trkpt lat="41.87565" lon="9.13064">
        <ele>1198.4</ele>
        <time>2021-06-03T09:28:01Z</time>
      </trkpt>
      <trkpt lat="41.87562" lon="9.13055">
        <ele>1198.4</ele>
        <time>2021-06-03T09:28:02Z</time>
      </trkpt>
      <trkpt lat="41.87558" lon="9.13045">
        <ele>1198.4</ele>
        <time>2021-06-03T09:28:03Z</time>
      </trkpt>
      <trkpt lat="41.87553" lon="9.13035">
        <ele>1197.4</ele>
        <time>2021-06-03T09:28:04Z</time>
      </trkpt>
      <trkpt lat="41.87547" lon="9.13027">
        <ele>1193.4</ele>
        <time>2021-06-03T09:28:05Z</time>
      </trkpt>
      <trkpt lat="41.87541" lon="9.13016">
        <ele>1193.4</ele>
        <time>2021-06-03T09:28:06Z</time>
      </trkpt>
      <trkpt lat="41.87533" lon="9.13006">
        <ele>1193.4</ele>
        <time>2021-06-03T09:28:07Z</time>
      </trkpt>
      <trkpt lat="41.87524" lon="9.12995">
        <ele>1192.4</ele>
        <time>2021-06-03T09:28:08Z</time>
      </trkpt>
      <trkpt lat="41.87516" lon="9.12984">
        <ele>1184.6</ele>
        <time>2021-06-03T09:28:09Z</time>
      </trkpt>
      <trkpt lat="41.87507" lon="9.12973">
        <ele>1184.6</ele>
        <time>2021-06-03T09:28:10Z</time>
      </trkpt>
      <trkpt lat="41.87498" lon="9.12962">
        <ele>1184.6</ele>
        <time>2021-06-03T09:28:11Z</time>
      </trkpt>
      <trkpt lat="41.87489" lon="9.12954">
        <ele>1184.6</ele>
        <time>2021-06-03T09:28:12Z</time>
      </trkpt>
      <trkpt lat="41.87482" lon="9.12946">
        <ele>1185.6</ele>
        <time>2021-06-03T09:28:13Z</time>
      </trkpt>
      <trkpt lat="41.87475" lon="9.12937">
        <ele>1185.6</ele>
        <time>2021-06-03T09:28:14Z</time>
      </trkpt>
      <trkpt lat="41.87468" lon="9.12928">
        <ele>1185.6</ele>
        <time>2021-06-03T09:28:15Z</time>
      </trkpt>
      <trkpt lat="41.87462" lon="9.12919">
        <ele>1184.6</ele>
        <time>2021-06-03T09:28:16Z</time>
      </trkpt>
      <trkpt lat="41.87458" lon="9.1291">
        <ele>1182</ele>
        <time>2021-06-03T09:28:17Z</time>
      </trkpt>
      <trkpt lat="41.87455" lon="9.12899">
        <ele>1182</ele>
        <time>2021-06-03T09:28:18Z</time>
      </trkpt>
      <trkpt lat="41.87453" lon="9.12887">
        <ele>1182</ele>
        <time>2021-06-03T09:28:19Z</time>
      </trkpt>
      <trkpt lat="41.87451" lon="9.12876">
        <ele>1181.2</ele>
        <time>2021-06-03T09:28:20Z</time>
      </trkpt>
      <trkpt lat="41.87451" lon="9.12867">
        <ele>1181.6</ele>
        <time>2021-06-03T09:28:21Z</time>
      </trkpt>
      <trkpt lat="41.87454" lon="9.12858">
        <ele>1181.6</ele>
        <time>2021-06-03T09:28:22Z</time>
      </trkpt>
      <trkpt lat="41.87458" lon="9.1285">
        <ele>1181.6</ele>
        <time>2021-06-03T09:28:23Z</time>
      </trkpt>
      <trkpt lat="41.87461" lon="9.12842">
        <ele>1181.6</ele>
        <time>2021-06-03T09:28:24Z</time>
      </trkpt>
      <trkpt lat="41.87462" lon="9.12832">
        <ele>1179.8</ele>
        <time>2021-06-03T09:28:25Z</time>
      </trkpt>
      <trkpt lat="41.87463" lon="9.12822">
        <ele>1179.8</ele>
        <time>2021-06-03T09:28:26Z</time>
      </trkpt>
      <trkpt lat="41.87463" lon="9.12813">
        <ele>1179.8</ele>
        <time>2021-06-03T09:28:27Z</time>
      </trkpt>
      <trkpt lat="41.87462" lon="9.12803">
        <ele>1179.8</ele>
        <time>2021-06-03T09:28:28Z</time>
      </trkpt>
      <trkpt lat="41.87461" lon="9.12792">
        <ele>1178.4</ele>
        <time>2021-06-03T09:28:29Z</time>
      </trkpt>
      <trkpt lat="41.8746" lon="9.12781">
        <ele>1178.4</ele>
        <time>2021-06-03T09:28:30Z</time>
      </trkpt>
      <trkpt lat="41.87457" lon="9.12772">
        <ele>1178.4</ele>
        <time>2021-06-03T09:28:31Z</time>
      </trkpt>
      <trkpt lat="41.87453" lon="9.12764">
        <ele>1178.4</ele>
        <time>2021-06-03T09:28:32Z</time>
      </trkpt>
      <trkpt lat="41.87449" lon="9.12756">
        <ele>1179.6</ele>
        <time>2021-06-03T09:28:33Z</time>
      </trkpt>
      <trkpt lat="41.87446" lon="9.12749">
        <ele>1179.6</ele>
        <time>2021-06-03T09:28:34Z</time>
      </trkpt>
      <trkpt lat="41.87443" lon="9.12742">
        <ele>1179.6</ele>
        <time>2021-06-03T09:28:35Z</time>
      </trkpt>
      <trkpt lat="41.8744" lon="9.12736">
        <ele>1179.6</ele>
        <time>2021-06-03T09:28:36Z</time>
      </trkpt>
      <trkpt lat="41.87436" lon="9.12731">
        <ele>1179.6</ele>
        <time>2021-06-03T09:28:37Z</time>
      </trkpt>
      <trkpt lat="41.87432" lon="9.12727">
        <ele>1179.6</ele>
        <time>2021-06-03T09:28:38Z</time>
      </trkpt>
      <trkpt lat="41.87429" lon="9.12725">
        <ele>1179.6</ele>
        <time>2021-06-03T09:28:39Z</time>
      </trkpt>
      <trkpt lat="41.87425" lon="9.12722">
        <ele>1180.6</ele>
        <time>2021-06-03T09:28:40Z</time>
      </trkpt>
      <trkpt lat="41.87421" lon="9.12721">
        <ele>1181.4</ele>
        <time>2021-06-03T09:28:41Z</time>
      </trkpt>
      <trkpt lat="41.87417" lon="9.12719">
        <ele>1181.4</ele>
        <time>2021-06-03T09:28:42Z</time>
      </trkpt>
      <trkpt lat="41.87414" lon="9.12717">
        <ele>1181.4</ele>
        <time>2021-06-03T09:28:43Z</time>
      </trkpt>
      <trkpt lat="41.8741" lon="9.12714">
        <ele>1181.4</ele>
        <time>2021-06-03T09:28:44Z</time>
      </trkpt>
      <trkpt lat="41.87407" lon="9.12712">
        <ele>1181.4</ele>
        <time>2021-06-03T09:28:45Z</time>
      </trkpt>
      <trkpt lat="41.87404" lon="9.1271">
        <ele>1181.4</ele>
        <time>2021-06-03T09:28:46Z</time>
      </trkpt>
      <trkpt lat="41.87401" lon="9.12708">
        <ele>1181.4</ele>
        <time>2021-06-03T09:28:47Z</time>
      </trkpt>
      <trkpt lat="41.87398" lon="9.12705">
        <ele>1181.4</ele>
        <time>2021-06-03T09:28:48Z</time>
      </trkpt>
      <trkpt lat="41.87396" lon="9.12703">
        <ele>1182.2</ele>
        <time>2021-06-03T09:28:49Z</time>
      </trkpt>
      <trkpt lat="41.87393" lon="9.127">
        <ele>1182.2</ele>
        <time>2021-06-03T09:28:50Z</time>
      </trkpt>
      <trkpt lat="41.8739" lon="9.12698">
        <ele>1182.2</ele>
        <time>2021-06-03T09:28:51Z</time>
      </trkpt>
      <trkpt lat="41.87388" lon="9.12696">
        <ele>1182.2</ele>
        <time>2021-06-03T09:28:52Z</time>
      </trkpt>
      <trkpt lat="41.87386" lon="9.12693">
        <ele>1182</ele>
        <time>2021-06-03T09:28:53Z</time>
      </trkpt>
      <trkpt lat="41.87385" lon="9.12689">
        <ele>1182</ele>
        <time>2021-06-03T09:28:54Z</time>
      </trkpt>
      <trkpt lat="41.87383" lon="9.12686">
        <ele>1182</ele>
        <time>2021-06-03T09:28:55Z</time>
      </trkpt>
      <trkpt lat="41.8738" lon="9.12682">
        <ele>1182</ele>
        <time>2021-06-03T09:28:56Z</time>
      </trkpt>
      <trkpt lat="41.87378" lon="9.12679">
        <ele>1182.2</ele>
        <time>2021-06-03T09:28:57Z</time>
      </trkpt>
      <trkpt lat="41.87375" lon="9.12675">
        <ele>1182.2</ele>
        <time>2021-06-03T09:28:58Z</time>
      </trkpt>
      <trkpt lat="41.87372" lon="9.12672">
        <ele>1182.2</ele>
        <time>2021-06-03T09:28:59Z</time>
      </trkpt>
      <trkpt lat="41.87369" lon="9.12668">
        <ele>1181.2</ele>
        <time>2021-06-03T09:29:00Z</time>
      </trkpt>
      <trkpt lat="41.87366" lon="9.12664">
        <ele>1180.6</ele>
        <time>2021-06-03T09:29:01Z</time>
      </trkpt>
      <trkpt lat="41.87364" lon="9.1266">
        <ele>1180.6</ele>
        <time>2021-06-03T09:29:02Z</time>
      </trkpt>
      <trkpt lat="41.87361" lon="9.12656">
        <ele>1180.6</ele>
        <time>2021-06-03T09:29:03Z</time>
      </trkpt>
      <trkpt lat="41.87358" lon="9.12651">
        <ele>1180.6</ele>
        <time>2021-06-03T09:29:04Z</time>
      </trkpt>
      <trkpt lat="41.87355" lon="9.12646">
        <ele>1180.6</ele>
        <time>2021-06-03T09:29:05Z</time>
      </trkpt>
      <trkpt lat="41.87352" lon="9.1264">
        <ele>1180.6</ele>
        <time>2021-06-03T09:29:06Z</time>
      </trkpt>
      <trkpt lat="41.87349" lon="9.12635">
        <ele>1180.6</ele>
        <time>2021-06-03T09:29:07Z</time>
      </trkpt>
      <trkpt lat="41.87346" lon="9.1263">
        <ele>1179.6</ele>
        <time>2021-06-03T09:29:08Z</time>
      </trkpt>
      <trkpt lat="41.87343" lon="9.12624">
        <ele>1179.4</ele>
        <time>2021-06-03T09:29:09Z</time>
      </trkpt>
      <trkpt lat="41.8734" lon="9.12618">
        <ele>1179.4</ele>
        <time>2021-06-03T09:29:10Z</time>
      </trkpt>
      <trkpt lat="41.87336" lon="9.12612">
        <ele>1179.4</ele>
        <time>2021-06-03T09:29:11Z</time>
      </trkpt>
      <trkpt lat="41.87333" lon="9.12606">
        <ele>1178.4</ele>
        <time>2021-06-03T09:29:12Z</time>
      </trkpt>
      <trkpt lat="41.8733" lon="9.12598">
        <ele>1178</ele>
        <time>2021-06-03T09:29:13Z</time>
      </trkpt>
      <trkpt lat="41.87326" lon="9.12593">
        <ele>1178</ele>
        <time>2021-06-03T09:29:14Z</time>
      </trkpt>
      <trkpt lat="41.87321" lon="9.12588">
        <ele>1178</ele>
        <time>2021-06-03T09:29:15Z</time>
      </trkpt>
      <trkpt lat="41.87316" lon="9.1258">
        <ele>1177</ele>
        <time>2021-06-03T09:29:16Z</time>
      </trkpt>
      <trkpt lat="41.8731" lon="9.12575">
        <ele>1175.4</ele>
        <time>2021-06-03T09:29:17Z</time>
      </trkpt>
      <trkpt lat="41.87304" lon="9.12568">
        <ele>1175.4</ele>
        <time>2021-06-03T09:29:18Z</time>
      </trkpt>
      <trkpt lat="41.87298" lon="9.12559">
        <ele>1175.4</ele>
        <time>2021-06-03T09:29:19Z</time>
      </trkpt>
      <trkpt lat="41.87291" lon="9.12551">
        <ele>1174.4</ele>
        <time>2021-06-03T09:29:20Z</time>
      </trkpt>
      <trkpt lat="41.87285" lon="9.12545">
        <ele>1171.6</ele>
        <time>2021-06-03T09:29:21Z</time>
      </trkpt>
      <trkpt lat="41.87278" lon="9.12538">
        <ele>1171.6</ele>
        <time>2021-06-03T09:29:22Z</time>
      </trkpt>
      <trkpt lat="41.8727" lon="9.12531">
        <ele>1171.6</ele>
        <time>2021-06-03T09:29:23Z</time>
      </trkpt>
      <trkpt lat="41.87263" lon="9.12523">
        <ele>1171.6</ele>
        <time>2021-06-03T09:29:24Z</time>
      </trkpt>
      <trkpt lat="41.87254" lon="9.12519">
        <ele>1172</ele>
        <time>2021-06-03T09:29:25Z</time>
      </trkpt>
      <trkpt lat="41.87247" lon="9.12513">
        <ele>1172</ele>
        <time>2021-06-03T09:29:26Z</time>
      </trkpt>
      <trkpt lat="41.8724" lon="9.12507">
        <ele>1172</ele>
        <time>2021-06-03T09:29:27Z</time>
      </trkpt>
      <trkpt lat="41.87233" lon="9.125">
        <ele>1172</ele>
        <time>2021-06-03T09:29:28Z</time>
      </trkpt>
      <trkpt lat="41.87227" lon="9.12492">
        <ele>1172</ele>
        <time>2021-06-03T09:29:29Z</time>
      </trkpt>
      <trkpt lat="41.87222" lon="9.12484">
        <ele>1172</ele>
        <time>2021-06-03T09:29:30Z</time>
      </trkpt>
      <trkpt lat="41.87219" lon="9.12477">
        <ele>1172</ele>
        <time>2021-06-03T09:29:31Z</time>
      </trkpt>
      <trkpt lat="41.87215" lon="9.12471">
        <ele>1172.4</ele>
        <time>2021-06-03T09:29:32Z</time>
      </trkpt>
      <trkpt lat="41.87211" lon="9.12464">
        <ele>1172.6</ele>
        <time>2021-06-03T09:29:33Z</time>
      </trkpt>
      <trkpt lat="41.87207" lon="9.12458">
        <ele>1172.6</ele>
        <time>2021-06-03T09:29:34Z</time>
      </trkpt>
      <trkpt lat="41.87202" lon="9.12452">
        <ele>1172.6</ele>
        <time>2021-06-03T09:29:35Z</time>
      </trkpt>
      <trkpt lat="41.87197" lon="9.12445">
        <ele>1172.6</ele>
        <time>2021-06-03T09:29:36Z</time>
      </trkpt>
      <trkpt lat="41.87193" lon="9.12438">
        <ele>1171.6</ele>
        <time>2021-06-03T09:29:37Z</time>
      </trkpt>
      <trkpt lat="41.87189" lon="9.12429">
        <ele>1171.6</ele>
        <time>2021-06-03T09:29:38Z</time>
      </trkpt>
      <trkpt lat="41.87186" lon="9.12421">
        <ele>1171.6</ele>
        <time>2021-06-03T09:29:39Z</time>
      </trkpt>
      <trkpt lat="41.87183" lon="9.12413">
        <ele>1170.6</ele>
        <time>2021-06-03T09:29:40Z</time>
      </trkpt>
      <trkpt lat="41.8718" lon="9.12404">
        <ele>1168.2</ele>
        <time>2021-06-03T09:29:41Z</time>
      </trkpt>
      <trkpt lat="41.87177" lon="9.12395">
        <ele>1168.2</ele>
        <time>2021-06-03T09:29:42Z</time>
      </trkpt>
      <trkpt lat="41.87174" lon="9.12387">
        <ele>1168.2</ele>
        <time>2021-06-03T09:29:43Z</time>
      </trkpt>
      <trkpt lat="41.87171" lon="9.12376">
        <ele>1167.2</ele>
        <time>2021-06-03T09:29:44Z</time>
      </trkpt>
      <trkpt lat="41.87168" lon="9.12366">
        <ele>1166</ele>
        <time>2021-06-03T09:29:45Z</time>
      </trkpt>
      <trkpt lat="41.87163" lon="9.12358">
        <ele>1166</ele>
        <time>2021-06-03T09:29:46Z</time>
      </trkpt>
      <trkpt lat="41.87156" lon="9.1235">
        <ele>1166</ele>
        <time>2021-06-03T09:29:47Z</time>
      </trkpt>
      <trkpt lat="41.87148" lon="9.12345">
        <ele>1167</ele>
        <time>2021-06-03T09:29:48Z</time>
      </trkpt>
      <trkpt lat="41.8714" lon="9.1234">
        <ele>1167</ele>
        <time>2021-06-03T09:29:49Z</time>
      </trkpt>
      <trkpt lat="41.87134" lon="9.12332">
        <ele>1167</ele>
        <time>2021-06-03T09:29:50Z</time>
      </trkpt>
      <trkpt lat="41.87129" lon="9.12323">
        <ele>1167</ele>
        <time>2021-06-03T09:29:51Z</time>
      </trkpt>
      <trkpt lat="41.87124" lon="9.12313">
        <ele>1166</ele>
        <time>2021-06-03T09:29:52Z</time>
      </trkpt>
      <trkpt lat="41.8712" lon="9.12306">
        <ele>1165.4</ele>
        <time>2021-06-03T09:29:53Z</time>
      </trkpt>
      <trkpt lat="41.87115" lon="9.12298">
        <ele>1165.4</ele>
        <time>2021-06-03T09:29:54Z</time>
      </trkpt>
      <trkpt lat="41.87111" lon="9.12289">
        <ele>1165.4</ele>
        <time>2021-06-03T09:29:55Z</time>
      </trkpt>
      <trkpt lat="41.87108" lon="9.12281">
        <ele>1166.4</ele>
        <time>2021-06-03T09:29:56Z</time>
      </trkpt>
      <trkpt lat="41.87104" lon="9.12273">
        <ele>1167.4</ele>
        <time>2021-06-03T09:29:57Z</time>
      </trkpt>
      <trkpt lat="41.871" lon="9.12266">
        <ele>1167.4</ele>
        <time>2021-06-03T09:29:58Z</time>
      </trkpt>
      <trkpt lat="41.87095" lon="9.12259">
        <ele>1167.4</ele>
        <time>2021-06-03T09:29:59Z</time>
      </trkpt>
      <trkpt lat="41.87092" lon="9.12252">
        <ele>1168.4</ele>
        <time>2021-06-03T09:30:00Z</time>
      </trkpt>
      <trkpt lat="41.87086" lon="9.12253">
        <ele>1170</ele>
        <time>2021-06-03T09:30:01Z</time>
      </trkpt>
      <trkpt lat="41.87082" lon="9.12247">
        <ele>1170</ele>
        <time>2021-06-03T09:30:02Z</time>
      </trkpt>
      <trkpt lat="41.87078" lon="9.12241">
        <ele>1170</ele>
        <time>2021-06-03T09:30:03Z</time>
      </trkpt>
      <trkpt lat="41.87076" lon="9.12237">
        <ele>1171</ele>
        <time>2021-06-03T09:30:04Z</time>
      </trkpt>
      <trkpt lat="41.87074" lon="9.12233">
        <ele>1172.8</ele>
        <time>2021-06-03T09:30:05Z</time>
      </trkpt>
      <trkpt lat="41.87072" lon="9.12229">
        <ele>1172.8</ele>
        <time>2021-06-03T09:30:06Z</time>
      </trkpt>
      <trkpt lat="41.8707" lon="9.12226">
        <ele>1172.8</ele>
        <time>2021-06-03T09:30:07Z</time>
      </trkpt>
      <trkpt lat="41.87069" lon="9.12222">
        <ele>1173.8</ele>
        <time>2021-06-03T09:30:08Z</time>
      </trkpt>
      <trkpt lat="41.87068" lon="9.12219">
        <ele>1174.2</ele>
        <time>2021-06-03T09:30:09Z</time>
      </trkpt>
      <trkpt lat="41.87068" lon="9.12216">
        <ele>1174.2</ele>
        <time>2021-06-03T09:30:10Z</time>
      </trkpt>
      <trkpt lat="41.87068" lon="9.12213">
        <ele>1174.2</ele>
        <time>2021-06-03T09:30:11Z</time>
      </trkpt>
      <trkpt lat="41.87069" lon="9.1221">
        <ele>1174.2</ele>
        <time>2021-06-03T09:30:12Z</time>
      </trkpt>
      <trkpt lat="41.87069" lon="9.12208">
        <ele>1174.4</ele>
        <time>2021-06-03T09:30:13Z</time>
      </trkpt>
      <trkpt lat="41.8707" lon="9.12206">
        <ele>1174.4</ele>
        <time>2021-06-03T09:30:14Z</time>
      </trkpt>
      <trkpt lat="41.87071" lon="9.12204">
        <ele>1174.4</ele>
        <time>2021-06-03T09:30:15Z</time>
      </trkpt>
      <trkpt lat="41.87072" lon="9.12201">
        <ele>1174.4</ele>
        <time>2021-06-03T09:30:16Z</time>
      </trkpt>
      <trkpt lat="41.87074" lon="9.122">
        <ele>1174.6</ele>
        <time>2021-06-03T09:30:17Z</time>
      </trkpt>
      <trkpt lat="41.87075" lon="9.12198">
        <ele>1174.6</ele>
        <time>2021-06-03T09:30:18Z</time>
      </trkpt>
      <trkpt lat="41.87076" lon="9.12196">
        <ele>1174.6</ele>
        <time>2021-06-03T09:30:19Z</time>
      </trkpt>
      <trkpt lat="41.87077" lon="9.12194">
        <ele>1175.6</ele>
        <time>2021-06-03T09:30:20Z</time>
      </trkpt>
      <trkpt lat="41.87078" lon="9.12193">
        <ele>1175.8</ele>
        <time>2021-06-03T09:30:21Z</time>
      </trkpt>
      <trkpt lat="41.87079" lon="9.1219">
        <ele>1175.8</ele>
        <time>2021-06-03T09:30:22Z</time>
      </trkpt>
      <trkpt lat="41.8708" lon="9.12189">
        <ele>1175.8</ele>
        <time>2021-06-03T09:30:23Z</time>
      </trkpt>
      <trkpt lat="41.87081" lon="9.12187">
        <ele>1176.4</ele>
        <time>2021-06-03T09:30:24Z</time>
      </trkpt>
      <trkpt lat="41.87082" lon="9.12186">
        <ele>1176.4</ele>
        <time>2021-06-03T09:30:25Z</time>
      </trkpt>
      <trkpt lat="41.87083" lon="9.12184">
        <ele>1176.4</ele>
        <time>2021-06-03T09:30:26Z</time>
      </trkpt>
      <trkpt lat="41.87084" lon="9.12182">
        <ele>1176.4</ele>
        <time>2021-06-03T09:30:27Z</time>
      </trkpt>
      <trkpt lat="41.87085" lon="9.1218">
        <ele>1176.4</ele>
        <time>2021-06-03T09:30:28Z</time>
      </trkpt>
      <trkpt lat="41.87086" lon="9.12179">
        <ele>1176.4</ele>
        <time>2021-06-03T09:30:29Z</time>
      </trkpt>
      <trkpt lat="41.87087" lon="9.12177">
        <ele>1176.4</ele>
        <time>2021-06-03T09:30:30Z</time>
      </trkpt>
      <trkpt lat="41.87087" lon="9.12174">
        <ele>1176.4</ele>
        <time>2021-06-03T09:30:31Z</time>
      </trkpt>
      <trkpt lat="41.87088" lon="9.12172">
        <ele>1177.2</ele>
        <time>2021-06-03T09:30:32Z</time>
      </trkpt>
      <trkpt lat="41.87089" lon="9.1217">
        <ele>1177.2</ele>
        <time>2021-06-03T09:30:33Z</time>
      </trkpt>
      <trkpt lat="41.8709" lon="9.12168">
        <ele>1177.2</ele>
        <time>2021-06-03T09:30:34Z</time>
      </trkpt>
      <trkpt lat="41.8709" lon="9.12166">
        <ele>1177.2</ele>
        <time>2021-06-03T09:30:35Z</time>
      </trkpt>
      <trkpt lat="41.87091" lon="9.12164">
        <ele>1178</ele>
        <time>2021-06-03T09:30:36Z</time>
      </trkpt>
      <trkpt lat="41.87091" lon="9.12162">
        <ele>1178</ele>
        <time>2021-06-03T09:30:37Z</time>
      </trkpt>
      <trkpt lat="41.87092" lon="9.1216">
        <ele>1178</ele>
        <time>2021-06-03T09:30:38Z</time>
      </trkpt>
      <trkpt lat="41.87093" lon="9.12158">
        <ele>1178</ele>
        <time>2021-06-03T09:30:39Z</time>
      </trkpt>
      <trkpt lat="41.87094" lon="9.12156">
        <ele>1178</ele>
        <time>2021-06-03T09:30:40Z</time>
      </trkpt>
      <trkpt lat="41.87094" lon="9.12154">
        <ele>1178.2</ele>
        <time>2021-06-03T09:30:41Z</time>
      </trkpt>
      <trkpt lat="41.87095" lon="9.12152">
        <ele>1178.2</ele>
        <time>2021-06-03T09:30:42Z</time>
      </trkpt>
      <trkpt lat="41.87095" lon="9.1215">
        <ele>1178.2</ele>
        <time>2021-06-03T09:30:43Z</time>
      </trkpt>
      <trkpt lat="41.87096" lon="9.12147">
        <ele>1179</ele>
        <time>2021-06-03T09:30:44Z</time>
      </trkpt>
      <trkpt lat="41.87097" lon="9.12145">
        <ele>1179</ele>
        <time>2021-06-03T09:30:45Z</time>
      </trkpt>
      <trkpt lat="41.87098" lon="9.12143">
        <ele>1179</ele>
        <time>2021-06-03T09:30:46Z</time>
      </trkpt>
      <trkpt lat="41.87099" lon="9.12141">
        <ele>1179</ele>
        <time>2021-06-03T09:30:47Z</time>
      </trkpt>
      <trkpt lat="41.87099" lon="9.12139">
        <ele>1179</ele>
        <time>2021-06-03T09:30:48Z</time>
      </trkpt>
      <trkpt lat="41.871" lon="9.12137">
        <ele>1179.4</ele>
        <time>2021-06-03T09:30:49Z</time>
      </trkpt>
      <trkpt lat="41.87101" lon="9.12136">
        <ele>1179.4</ele>
        <time>2021-06-03T09:30:50Z</time>
      </trkpt>
      <trkpt lat="41.87102" lon="9.12134">
        <ele>1179.4</ele>
        <time>2021-06-03T09:30:51Z</time>
      </trkpt>
      <trkpt lat="41.87103" lon="9.12132">
        <ele>1179.8</ele>
        <time>2021-06-03T09:30:52Z</time>
      </trkpt>
      <trkpt lat="41.87104" lon="9.1213">
        <ele>1180.2</ele>
        <time>2021-06-03T09:30:53Z</time>
      </trkpt>
      <trkpt lat="41.87105" lon="9.12128">
        <ele>1180.2</ele>
        <time>2021-06-03T09:30:54Z</time>
      </trkpt>
      <trkpt lat="41.87106" lon="9.12126">
        <ele>1180.2</ele>
        <time>2021-06-03T09:30:55Z</time>
      </trkpt>
      <trkpt lat="41.87107" lon="9.12124">
        <ele>1180.2</ele>
        <time>2021-06-03T09:30:56Z</time>
      </trkpt>
      <trkpt lat="41.87109" lon="9.12123">
        <ele>1180.4</ele>
        <time>2021-06-03T09:30:57Z</time>
      </trkpt>
      <trkpt lat="41.87109" lon="9.12121">
        <ele>1180.4</ele>
        <time>2021-06-03T09:30:58Z</time>
      </trkpt>
      <trkpt lat="41.8711" lon="9.12119">
        <ele>1180.4</ele>
        <time>2021-06-03T09:30:59Z</time>
      </trkpt>
      <trkpt lat="41.87111" lon="9.12117">
        <ele>1181.4</ele>
        <time>2021-06-03T09:31:00Z</time>
      </trkpt>
      <trkpt lat="41.87112" lon="9.12115">
        <ele>1181.2</ele>
        <time>2021-06-03T09:31:01Z</time>
      </trkpt>
      <trkpt lat="41.87113" lon="9.12113">
        <ele>1181.2</ele>
        <time>2021-06-03T09:31:02Z</time>
      </trkpt>
      <trkpt lat="41.87114" lon="9.12111">
        <ele>1181.2</ele>
        <time>2021-06-03T09:31:03Z</time>
      </trkpt>
      <trkpt lat="41.87115" lon="9.1211">
        <ele>1182.2</ele>
        <time>2021-06-03T09:31:04Z</time>
      </trkpt>
      <trkpt lat="41.87116" lon="9.12107">
        <ele>1182.4</ele>
        <time>2021-06-03T09:31:05Z</time>
      </trkpt>
      <trkpt lat="41.87116" lon="9.12105">
        <ele>1182.4</ele>
        <time>2021-06-03T09:31:06Z</time>
      </trkpt>
      <trkpt lat="41.87116" lon="9.12103">
        <ele>1182.4</ele>
        <time>2021-06-03T09:31:07Z</time>
      </trkpt>
      <trkpt lat="41.87117" lon="9.12101">
        <ele>1182.6</ele>
        <time>2021-06-03T09:31:08Z</time>
      </trkpt>
      <trkpt lat="41.87117" lon="9.12098">
        <ele>1182.6</ele>
        <time>2021-06-03T09:31:09Z</time>
      </trkpt>
      <trkpt lat="41.87118" lon="9.12096">
        <ele>1182.6</ele>
        <time>2021-06-03T09:31:10Z</time>
      </trkpt>
      <trkpt lat="41.87119" lon="9.12094">
        <ele>1182.6</ele>
        <time>2021-06-03T09:31:11Z</time>
      </trkpt>
      <trkpt lat="41.87119" lon="9.12092">
        <ele>1182.8</ele>
        <time>2021-06-03T09:31:12Z</time>
      </trkpt>
      <trkpt lat="41.8712" lon="9.12089">
        <ele>1182.8</ele>
        <time>2021-06-03T09:31:13Z</time>
      </trkpt>
      <trkpt lat="41.8712" lon="9.12087">
        <ele>1182.8</ele>
        <time>2021-06-03T09:31:14Z</time>
      </trkpt>
      <trkpt lat="41.8712" lon="9.12084">
        <ele>1182.8</ele>
        <time>2021-06-03T09:31:15Z</time>
      </trkpt>
      <trkpt lat="41.87121" lon="9.12082">
        <ele>1182.8</ele>
        <time>2021-06-03T09:31:16Z</time>
      </trkpt>
      <trkpt lat="41.87121" lon="9.1208">
        <ele>1183.4</ele>
        <time>2021-06-03T09:31:17Z</time>
      </trkpt>
      <trkpt lat="41.87122" lon="9.12077">
        <ele>1183.4</ele>
        <time>2021-06-03T09:31:18Z</time>
      </trkpt>
      <trkpt lat="41.87123" lon="9.12075">
        <ele>1183.4</ele>
        <time>2021-06-03T09:31:19Z</time>
      </trkpt>
      <trkpt lat="41.87124" lon="9.12072">
        <ele>1183.4</ele>
        <time>2021-06-03T09:31:20Z</time>
      </trkpt>
      <trkpt lat="41.87125" lon="9.1207">
        <ele>1183.2</ele>
        <time>2021-06-03T09:31:21Z</time>
      </trkpt>
      <trkpt lat="41.87126" lon="9.12068">
        <ele>1183.2</ele>
        <time>2021-06-03T09:31:22Z</time>
      </trkpt>
      <trkpt lat="41.87127" lon="9.12066">
        <ele>1183.2</ele>
        <time>2021-06-03T09:31:23Z</time>
      </trkpt>
      <trkpt lat="41.87128" lon="9.12065">
        <ele>1183.8</ele>
        <time>2021-06-03T09:31:24Z</time>
      </trkpt>
      <trkpt lat="41.8713" lon="9.12063">
        <ele>1183.8</ele>
        <time>2021-06-03T09:31:25Z</time>
      </trkpt>
      <trkpt lat="41.87131" lon="9.12061">
        <ele>1183.8</ele>
        <time>2021-06-03T09:31:26Z</time>
      </trkpt>
      <trkpt lat="41.87132" lon="9.12059">
        <ele>1183.8</ele>
        <time>2021-06-03T09:31:27Z</time>
      </trkpt>
      <trkpt lat="41.87133" lon="9.12057">
        <ele>1184.2</ele>
        <time>2021-06-03T09:31:28Z</time>
      </trkpt>
      <trkpt lat="41.87134" lon="9.12055">
        <ele>1184.4</ele>
        <time>2021-06-03T09:31:29Z</time>
      </trkpt>
      <trkpt lat="41.87135" lon="9.12053">
        <ele>1184.4</ele>
        <time>2021-06-03T09:31:30Z</time>
      </trkpt>
      <trkpt lat="41.87136" lon="9.12051">
        <ele>1184.4</ele>
        <time>2021-06-03T09:31:31Z</time>
      </trkpt>
      <trkpt lat="41.87136" lon="9.12048">
        <ele>1184.4</ele>
        <time>2021-06-03T09:31:32Z</time>
      </trkpt>
      <trkpt lat="41.87137" lon="9.12045">
        <ele>1184</ele>
        <time>2021-06-03T09:31:33Z</time>
      </trkpt>
      <trkpt lat="41.87137" lon="9.12042">
        <ele>1184</ele>
        <time>2021-06-03T09:31:34Z</time>
      </trkpt>
      <trkpt lat="41.87137" lon="9.12039">
        <ele>1184</ele>
        <time>2021-06-03T09:31:35Z</time>
      </trkpt>
      <trkpt lat="41.87136" lon="9.12036">
        <ele>1183.2</ele>
        <time>2021-06-03T09:31:36Z</time>
      </trkpt>
      <trkpt lat="41.87135" lon="9.12032">
        <ele>1183.2</ele>
        <time>2021-06-03T09:31:37Z</time>
      </trkpt>
      <trkpt lat="41.87134" lon="9.12029">
        <ele>1183.2</ele>
        <time>2021-06-03T09:31:38Z</time>
      </trkpt>
      <trkpt lat="41.87133" lon="9.12025">
        <ele>1183.2</ele>
        <time>2021-06-03T09:31:39Z</time>
      </trkpt>
      <trkpt lat="41.87131" lon="9.12022">
        <ele>1183.2</ele>
        <time>2021-06-03T09:31:40Z</time>
      </trkpt>
      <trkpt lat="41.87129" lon="9.12018">
        <ele>1183.2</ele>
        <time>2021-06-03T09:31:41Z</time>
      </trkpt>
      <trkpt lat="41.87127" lon="9.12015">
        <ele>1183.2</ele>
        <time>2021-06-03T09:31:42Z</time>
      </trkpt>
      <trkpt lat="41.87125" lon="9.12011">
        <ele>1183.2</ele>
        <time>2021-06-03T09:31:43Z</time>
      </trkpt>
      <trkpt lat="41.87123" lon="9.12007">
        <ele>1183</ele>
        <time>2021-06-03T09:31:44Z</time>
      </trkpt>
      <trkpt lat="41.87121" lon="9.12004">
        <ele>1182.4</ele>
        <time>2021-06-03T09:31:45Z</time>
      </trkpt>
      <trkpt lat="41.87119" lon="9.12">
        <ele>1182.4</ele>
        <time>2021-06-03T09:31:46Z</time>
      </trkpt>
      <trkpt lat="41.87116" lon="9.11996">
        <ele>1182.4</ele>
        <time>2021-06-03T09:31:47Z</time>
      </trkpt>
      <trkpt lat="41.87113" lon="9.11992">
        <ele>1182</ele>
        <time>2021-06-03T09:31:48Z</time>
      </trkpt>
      <trkpt lat="41.8711" lon="9.11989">
        <ele>1181.4</ele>
        <time>2021-06-03T09:31:49Z</time>
      </trkpt>
      <trkpt lat="41.87107" lon="9.11985">
        <ele>1181.4</ele>
        <time>2021-06-03T09:31:50Z</time>
      </trkpt>
      <trkpt lat="41.87104" lon="9.11981">
        <ele>1181.4</ele>
        <time>2021-06-03T09:31:51Z</time>
      </trkpt>
      <trkpt lat="41.87101" lon="9.11977">
        <ele>1180.8</ele>
        <time>2021-06-03T09:31:52Z</time>
      </trkpt>
      <trkpt lat="41.87097" lon="9.11973">
        <ele>1181</ele>
        <time>2021-06-03T09:31:53Z</time>
      </trkpt>
      <trkpt lat="41.87095" lon="9.11969">
        <ele>1181</ele>
        <time>2021-06-03T09:31:54Z</time>
      </trkpt>
      <trkpt lat="41.87092" lon="9.11965">
        <ele>1181</ele>
        <time>2021-06-03T09:31:55Z</time>
      </trkpt>
      <trkpt lat="41.87088" lon="9.11962">
        <ele>1181</ele>
        <time>2021-06-03T09:31:56Z</time>
      </trkpt>
      <trkpt lat="41.87084" lon="9.11959">
        <ele>1181.2</ele>
        <time>2021-06-03T09:31:57Z</time>
      </trkpt>
      <trkpt lat="41.8708" lon="9.11956">
        <ele>1181.2</ele>
        <time>2021-06-03T09:31:58Z</time>
      </trkpt>
      <trkpt lat="41.87077" lon="9.11952">
        <ele>1181.2</ele>
        <time>2021-06-03T09:31:59Z</time>
      </trkpt>
      <trkpt lat="41.87073" lon="9.1195">
        <ele>1181.6</ele>
        <time>2021-06-03T09:32:00Z</time>
      </trkpt>
      <trkpt lat="41.87069" lon="9.11947">
        <ele>1182.2</ele>
        <time>2021-06-03T09:32:01Z</time>
      </trkpt>
      <trkpt lat="41.87066" lon="9.11943">
        <ele>1182.2</ele>
        <time>2021-06-03T09:32:02Z</time>
      </trkpt>
      <trkpt lat="41.87063" lon="9.11941">
        <ele>1182.2</ele>
        <time>2021-06-03T09:32:03Z</time>
      </trkpt>
      <trkpt lat="41.8706" lon="9.11938">
        <ele>1182</ele>
        <time>2021-06-03T09:32:04Z</time>
      </trkpt>
      <trkpt lat="41.87058" lon="9.11935">
        <ele>1182</ele>
        <time>2021-06-03T09:32:05Z</time>
      </trkpt>
      <trkpt lat="41.87056" lon="9.11931">
        <ele>1182</ele>
        <time>2021-06-03T09:32:06Z</time>
      </trkpt>
      <trkpt lat="41.87054" lon="9.11927">
        <ele>1182</ele>
        <time>2021-06-03T09:32:07Z</time>
      </trkpt>
      <trkpt lat="41.87054" lon="9.11923">
        <ele>1182</ele>
        <time>2021-06-03T09:32:08Z</time>
      </trkpt>
      <trkpt lat="41.87054" lon="9.1192">
        <ele>1183.4</ele>
        <time>2021-06-03T09:32:09Z</time>
      </trkpt>
      <trkpt lat="41.87055" lon="9.11917">
        <ele>1183.4</ele>
        <time>2021-06-03T09:32:10Z</time>
      </trkpt>
      <trkpt lat="41.87056" lon="9.11914">
        <ele>1183.4</ele>
        <time>2021-06-03T09:32:11Z</time>
      </trkpt>
      <trkpt lat="41.87057" lon="9.11912">
        <ele>1183.4</ele>
        <time>2021-06-03T09:32:12Z</time>
      </trkpt>
      <trkpt lat="41.87058" lon="9.1191">
        <ele>1184</ele>
        <time>2021-06-03T09:32:13Z</time>
      </trkpt>
      <trkpt lat="41.87059" lon="9.11908">
        <ele>1184</ele>
        <time>2021-06-03T09:32:14Z</time>
      </trkpt>
      <trkpt lat="41.87061" lon="9.11905">
        <ele>1184</ele>
        <time>2021-06-03T09:32:15Z</time>
      </trkpt>
      <trkpt lat="41.87061" lon="9.11902">
        <ele>1184</ele>
        <time>2021-06-03T09:32:16Z</time>
      </trkpt>
      <trkpt lat="41.87062" lon="9.119">
        <ele>1184.4</ele>
        <time>2021-06-03T09:32:17Z</time>
      </trkpt>
      <trkpt lat="41.87062" lon="9.11897">
        <ele>1184.4</ele>
        <time>2021-06-03T09:32:18Z</time>
      </trkpt>
      <trkpt lat="41.87062" lon="9.11893">
        <ele>1184.4</ele>
        <time>2021-06-03T09:32:19Z</time>
      </trkpt>
      <trkpt lat="41.87062" lon="9.1189">
        <ele>1184.4</ele>
        <time>2021-06-03T09:32:20Z</time>
      </trkpt>
      <trkpt lat="41.87061" lon="9.11887">
        <ele>1185.4</ele>
        <time>2021-06-03T09:32:21Z</time>
      </trkpt>
      <trkpt lat="41.8706" lon="9.11884">
        <ele>1185.4</ele>
        <time>2021-06-03T09:32:22Z</time>
      </trkpt>
      <trkpt lat="41.8706" lon="9.11881">
        <ele>1185.4</ele>
        <time>2021-06-03T09:32:23Z</time>
      </trkpt>
      <trkpt lat="41.8706" lon="9.11879">
        <ele>1185</ele>
        <time>2021-06-03T09:32:24Z</time>
      </trkpt>
      <trkpt lat="41.87059" lon="9.11877">
        <ele>1185.4</ele>
        <time>2021-06-03T09:32:25Z</time>
      </trkpt>
      <trkpt lat="41.87059" lon="9.11874">
        <ele>1185.4</ele>
        <time>2021-06-03T09:32:26Z</time>
      </trkpt>
      <trkpt lat="41.87058" lon="9.11872">
        <ele>1185.4</ele>
        <time>2021-06-03T09:32:27Z</time>
      </trkpt>
      <trkpt lat="41.87058" lon="9.1187">
        <ele>1185.4</ele>
        <time>2021-06-03T09:32:28Z</time>
      </trkpt>
      <trkpt lat="41.87057" lon="9.11868">
        <ele>1185.8</ele>
        <time>2021-06-03T09:32:29Z</time>
      </trkpt>
      <trkpt lat="41.87056" lon="9.11866">
        <ele>1185.8</ele>
        <time>2021-06-03T09:32:30Z</time>
      </trkpt>
      <trkpt lat="41.87055" lon="9.11864">
        <ele>1185.8</ele>
        <time>2021-06-03T09:32:31Z</time>
      </trkpt>
      <trkpt lat="41.87054" lon="9.11862">
        <ele>1186.6</ele>
        <time>2021-06-03T09:32:32Z</time>
      </trkpt>
      <trkpt lat="41.87052" lon="9.11861">
        <ele>1186.6</ele>
        <time>2021-06-03T09:32:33Z</time>
      </trkpt>
      <trkpt lat="41.87051" lon="9.11859">
        <ele>1186.6</ele>
        <time>2021-06-03T09:32:34Z</time>
      </trkpt>
      <trkpt lat="41.8705" lon="9.11858">
        <ele>1186.6</ele>
        <time>2021-06-03T09:32:35Z</time>
      </trkpt>
      <trkpt lat="41.87049" lon="9.11857">
        <ele>1187.2</ele>
        <time>2021-06-03T09:32:36Z</time>
      </trkpt>
      <trkpt lat="41.87048" lon="9.11855">
        <ele>1187.2</ele>
        <time>2021-06-03T09:32:37Z</time>
      </trkpt>
      <trkpt lat="41.87047" lon="9.11854">
        <ele>1187.2</ele>
        <time>2021-06-03T09:32:38Z</time>
      </trkpt>
      <trkpt lat="41.87046" lon="9.11853">
        <ele>1187.2</ele>
        <time>2021-06-03T09:32:39Z</time>
      </trkpt>
      <trkpt lat="41.87044" lon="9.11853">
        <ele>1187.4</ele>
        <time>2021-06-03T09:32:40Z</time>
      </trkpt>
      <trkpt lat="41.87043" lon="9.11852">
        <ele>1187.8</ele>
        <time>2021-06-03T09:32:41Z</time>
      </trkpt>
      <trkpt lat="41.87041" lon="9.11852">
        <ele>1187.8</ele>
        <time>2021-06-03T09:32:42Z</time>
      </trkpt>
      <trkpt lat="41.8704" lon="9.11851">
        <ele>1187.8</ele>
        <time>2021-06-03T09:32:43Z</time>
      </trkpt>
      <trkpt lat="41.87038" lon="9.11851">
        <ele>1187.8</ele>
        <time>2021-06-03T09:32:44Z</time>
      </trkpt>
      <trkpt lat="41.87037" lon="9.11851">
        <ele>1188.6</ele>
        <time>2021-06-03T09:32:45Z</time>
      </trkpt>
      <trkpt lat="41.87036" lon="9.1185">
        <ele>1188.6</ele>
        <time>2021-06-03T09:32:46Z</time>
      </trkpt>
      <trkpt lat="41.87035" lon="9.1185">
        <ele>1188.6</ele>
        <time>2021-06-03T09:32:47Z</time>
      </trkpt>
      <trkpt lat="41.87033" lon="9.11849">
        <ele>1188.6</ele>
        <time>2021-06-03T09:32:48Z</time>
      </trkpt>
      <trkpt lat="41.87032" lon="9.11849">
        <ele>1189</ele>
        <time>2021-06-03T09:32:49Z</time>
      </trkpt>
      <trkpt lat="41.87031" lon="9.11849">
        <ele>1189</ele>
        <time>2021-06-03T09:32:50Z</time>
      </trkpt>
      <trkpt lat="41.87029" lon="9.11849">
        <ele>1189</ele>
        <time>2021-06-03T09:32:51Z</time>
      </trkpt>
      <trkpt lat="41.87028" lon="9.11849">
        <ele>1189.4</ele>
        <time>2021-06-03T09:32:52Z</time>
      </trkpt>
      <trkpt lat="41.87027" lon="9.11849">
        <ele>1189.4</ele>
        <time>2021-06-03T09:32:53Z</time>
      </trkpt>
      <trkpt lat="41.87025" lon="9.11849">
        <ele>1189.4</ele>
        <time>2021-06-03T09:32:54Z</time>
      </trkpt>
      <trkpt lat="41.87024" lon="9.11848">
        <ele>1189.4</ele>
        <time>2021-06-03T09:32:55Z</time>
      </trkpt>
      <trkpt lat="41.87023" lon="9.11847">
        <ele>1190</ele>
        <time>2021-06-03T09:32:56Z</time>
      </trkpt>
      <trkpt lat="41.87021" lon="9.11847">
        <ele>1190</ele>
        <time>2021-06-03T09:32:57Z</time>
      </trkpt>
      <trkpt lat="41.8702" lon="9.11847">
        <ele>1190</ele>
        <time>2021-06-03T09:32:58Z</time>
      </trkpt>
      <trkpt lat="41.87019" lon="9.11847">
        <ele>1190</ele>
        <time>2021-06-03T09:32:59Z</time>
      </trkpt>
      <trkpt lat="41.87018" lon="9.11846">
        <ele>1191</ele>
        <time>2021-06-03T09:33:00Z</time>
      </trkpt>
      <trkpt lat="41.87016" lon="9.11846">
        <ele>1191</ele>
        <time>2021-06-03T09:33:01Z</time>
      </trkpt>
      <trkpt lat="41.87015" lon="9.11846">
        <ele>1191</ele>
        <time>2021-06-03T09:33:02Z</time>
      </trkpt>
      <trkpt lat="41.87013" lon="9.11846">
        <ele>1191</ele>
        <time>2021-06-03T09:33:03Z</time>
      </trkpt>
      <trkpt lat="41.87012" lon="9.11846">
        <ele>1191</ele>
        <time>2021-06-03T09:33:04Z</time>
      </trkpt>
      <trkpt lat="41.87011" lon="9.11845">
        <ele>1191.4</ele>
        <time>2021-06-03T09:33:05Z</time>
      </trkpt>
      <trkpt lat="41.87009" lon="9.11844">
        <ele>1191.4</ele>
        <time>2021-06-03T09:33:06Z</time>
      </trkpt>
      <trkpt lat="41.87008" lon="9.11844">
        <ele>1191.4</ele>
        <time>2021-06-03T09:33:07Z</time>
      </trkpt>
      <trkpt lat="41.87007" lon="9.11843">
        <ele>1191.4</ele>
        <time>2021-06-03T09:33:08Z</time>
      </trkpt>
      <trkpt lat="41.87005" lon="9.11843">
        <ele>1191.4</ele>
        <time>2021-06-03T09:33:09Z</time>
      </trkpt>
      <trkpt lat="41.87004" lon="9.11843">
        <ele>1191.4</ele>
        <time>2021-06-03T09:33:10Z</time>
      </trkpt>
      <trkpt lat="41.87002" lon="9.11843">
        <ele>1191.4</ele>
        <time>2021-06-03T09:33:11Z</time>
      </trkpt>
      <trkpt lat="41.87" lon="9.11842">
        <ele>1192.2</ele>
        <time>2021-06-03T09:33:12Z</time>
      </trkpt>
      <trkpt lat="41.86999" lon="9.11842">
        <ele>1192</ele>
        <time>2021-06-03T09:33:13Z</time>
      </trkpt>
      <trkpt lat="41.86997" lon="9.11842">
        <ele>1192</ele>
        <time>2021-06-03T09:33:14Z</time>
      </trkpt>
      <trkpt lat="41.86996" lon="9.11842">
        <ele>1192</ele>
        <time>2021-06-03T09:33:15Z</time>
      </trkpt>
      <trkpt lat="41.86994" lon="9.11842">
        <ele>1192</ele>
        <time>2021-06-03T09:33:16Z</time>
      </trkpt>
      <trkpt lat="41.86993" lon="9.11842">
        <ele>1192.2</ele>
        <time>2021-06-03T09:33:17Z</time>
      </trkpt>
      <trkpt lat="41.86991" lon="9.11842">
        <ele>1192.2</ele>
        <time>2021-06-03T09:33:18Z</time>
      </trkpt>
      <trkpt lat="41.8699" lon="9.11841">
        <ele>1192.2</ele>
        <time>2021-06-03T09:33:19Z</time>
      </trkpt>
      <trkpt lat="41.86988" lon="9.11841">
        <ele>1192.4</ele>
        <time>2021-06-03T09:33:20Z</time>
      </trkpt>
      <trkpt lat="41.86987" lon="9.11841">
        <ele>1192.8</ele>
        <time>2021-06-03T09:33:21Z</time>
      </trkpt>
      <trkpt lat="41.86985" lon="9.11841">
        <ele>1192.8</ele>
        <time>2021-06-03T09:33:22Z</time>
      </trkpt>
      <trkpt lat="41.86984" lon="9.1184">
        <ele>1192.8</ele>
        <time>2021-06-03T09:33:23Z</time>
      </trkpt>
      <trkpt lat="41.86983" lon="9.11839">
        <ele>1193.4</ele>
        <time>2021-06-03T09:33:24Z</time>
      </trkpt>
      <trkpt lat="41.86981" lon="9.11839">
        <ele>1193.8</ele>
        <time>2021-06-03T09:33:25Z</time>
      </trkpt>
      <trkpt lat="41.8698" lon="9.11838">
        <ele>1193.8</ele>
        <time>2021-06-03T09:33:26Z</time>
      </trkpt>
      <trkpt lat="41.86979" lon="9.11837">
        <ele>1193.8</ele>
        <time>2021-06-03T09:33:27Z</time>
      </trkpt>
      <trkpt lat="41.86977" lon="9.11836">
        <ele>1193.8</ele>
        <time>2021-06-03T09:33:28Z</time>
      </trkpt>
      <trkpt lat="41.86976" lon="9.11835">
        <ele>1194.4</ele>
        <time>2021-06-03T09:33:29Z</time>
      </trkpt>
      <trkpt lat="41.86975" lon="9.11834">
        <ele>1194.4</ele>
        <time>2021-06-03T09:33:30Z</time>
      </trkpt>
      <trkpt lat="41.86974" lon="9.11832">
        <ele>1194.4</ele>
        <time>2021-06-03T09:33:31Z</time>
      </trkpt>
      <trkpt lat="41.86973" lon="9.11831">
        <ele>1194.6</ele>
        <time>2021-06-03T09:33:32Z</time>
      </trkpt>
      <trkpt lat="41.86972" lon="9.1183">
        <ele>1195</ele>
        <time>2021-06-03T09:33:33Z</time>
      </trkpt>
      <trkpt lat="41.86971" lon="9.11829">
        <ele>1195</ele>
        <time>2021-06-03T09:33:34Z</time>
      </trkpt>
      <trkpt lat="41.8697" lon="9.11827">
        <ele>1195</ele>
        <time>2021-06-03T09:33:35Z</time>
      </trkpt>
      <trkpt lat="41.86969" lon="9.11826">
        <ele>1195</ele>
        <time>2021-06-03T09:33:36Z</time>
      </trkpt>
      <trkpt lat="41.86968" lon="9.11825">
        <ele>1195.2</ele>
        <time>2021-06-03T09:33:37Z</time>
      </trkpt>
      <trkpt lat="41.86967" lon="9.11823">
        <ele>1195.2</ele>
        <time>2021-06-03T09:33:38Z</time>
      </trkpt>
      <trkpt lat="41.86966" lon="9.11822">
        <ele>1195.2</ele>
        <time>2021-06-03T09:33:39Z</time>
      </trkpt>
      <trkpt lat="41.86965" lon="9.1182">
        <ele>1195.2</ele>
        <time>2021-06-03T09:33:40Z</time>
      </trkpt>
      <trkpt lat="41.86964" lon="9.11819">
        <ele>1195.8</ele>
        <time>2021-06-03T09:33:41Z</time>
      </trkpt>
      <trkpt lat="41.86963" lon="9.11818">
        <ele>1195.8</ele>
        <time>2021-06-03T09:33:42Z</time>
      </trkpt>
      <trkpt lat="41.86962" lon="9.11816">
        <ele>1195.8</ele>
        <time>2021-06-03T09:33:43Z</time>
      </trkpt>
      <trkpt lat="41.86961" lon="9.11815">
        <ele>1196</ele>
        <time>2021-06-03T09:33:44Z</time>
      </trkpt>
      <trkpt lat="41.8696" lon="9.11814">
        <ele>1196.2</ele>
        <time>2021-06-03T09:33:45Z</time>
      </trkpt>
      <trkpt lat="41.86959" lon="9.11813">
        <ele>1196.2</ele>
        <time>2021-06-03T09:33:46Z</time>
      </trkpt>
      <trkpt lat="41.86957" lon="9.11811">
        <ele>1196.2</ele>
        <time>2021-06-03T09:33:47Z</time>
      </trkpt>
      <trkpt lat="41.86956" lon="9.11811">
        <ele>1196.4</ele>
        <time>2021-06-03T09:33:48Z</time>
      </trkpt>
      <trkpt lat="41.86955" lon="9.1181">
        <ele>1196.4</ele>
        <time>2021-06-03T09:33:49Z</time>
      </trkpt>
      <trkpt lat="41.86953" lon="9.11809">
        <ele>1196.4</ele>
        <time>2021-06-03T09:33:50Z</time>
      </trkpt>
      <trkpt lat="41.86952" lon="9.11808">
        <ele>1196.4</ele>
        <time>2021-06-03T09:33:51Z</time>
      </trkpt>
      <trkpt lat="41.8695" lon="9.11807">
        <ele>1196.8</ele>
        <time>2021-06-03T09:33:52Z</time>
      </trkpt>
      <trkpt lat="41.86949" lon="9.11807">
        <ele>1196.2</ele>
        <time>2021-06-03T09:33:53Z</time>
      </trkpt>
      <trkpt lat="41.86947" lon="9.11806">
        <ele>1196.2</ele>
        <time>2021-06-03T09:33:54Z</time>
      </trkpt>
      <trkpt lat="41.86946" lon="9.11805">
        <ele>1196.2</ele>
        <time>2021-06-03T09:33:55Z</time>
      </trkpt>
      <trkpt lat="41.86944" lon="9.11804">
        <ele>1197</ele>
        <time>2021-06-03T09:33:56Z</time>
      </trkpt>
      <trkpt lat="41.86943" lon="9.11803">
        <ele>1196.6</ele>
        <time>2021-06-03T09:33:57Z</time>
      </trkpt>
      <trkpt lat="41.86941" lon="9.11802">
        <ele>1196.6</ele>
        <time>2021-06-03T09:33:58Z</time>
      </trkpt>
      <trkpt lat="41.8694" lon="9.11801">
        <ele>1196.6</ele>
        <time>2021-06-03T09:33:59Z</time>
      </trkpt>
      <trkpt lat="41.86937" lon="9.11801">
        <ele>1196.6</ele>
        <time>2021-06-03T09:34:00Z</time>
      </trkpt>
      <trkpt lat="41.86936" lon="9.118">
        <ele>1197</ele>
        <time>2021-06-03T09:34:01Z</time>
      </trkpt>
      <trkpt lat="41.86934" lon="9.11799">
        <ele>1197</ele>
        <time>2021-06-03T09:34:02Z</time>
      </trkpt>
      <trkpt lat="41.86932" lon="9.11798">
        <ele>1197</ele>
        <time>2021-06-03T09:34:03Z</time>
      </trkpt>
      <trkpt lat="41.8693" lon="9.11797">
        <ele>1197</ele>
        <time>2021-06-03T09:34:04Z</time>
      </trkpt>
      <trkpt lat="41.86928" lon="9.11796">
        <ele>1196.8</ele>
        <time>2021-06-03T09:34:05Z</time>
      </trkpt>
      <trkpt lat="41.86927" lon="9.11794">
        <ele>1196.8</ele>
        <time>2021-06-03T09:34:06Z</time>
      </trkpt>
      <trkpt lat="41.86925" lon="9.11792">
        <ele>1196.8</ele>
        <time>2021-06-03T09:34:07Z</time>
      </trkpt>
      <trkpt lat="41.86924" lon="9.1179">
        <ele>1197.2</ele>
        <time>2021-06-03T09:34:08Z</time>
      </trkpt>
      <trkpt lat="41.86923" lon="9.11788">
        <ele>1197.6</ele>
        <time>2021-06-03T09:34:09Z</time>
      </trkpt>
      <trkpt lat="41.86922" lon="9.11786">
        <ele>1197.6</ele>
        <time>2021-06-03T09:34:10Z</time>
      </trkpt>
      <trkpt lat="41.86921" lon="9.11784">
        <ele>1197.6</ele>
        <time>2021-06-03T09:34:11Z</time>
      </trkpt>
      <trkpt lat="41.86921" lon="9.11782">
        <ele>1197.6</ele>
        <time>2021-06-03T09:34:12Z</time>
      </trkpt>
      <trkpt lat="41.8692" lon="9.11779">
        <ele>1198</ele>
        <time>2021-06-03T09:34:13Z</time>
      </trkpt>
      <trkpt lat="41.8692" lon="9.11778">
        <ele>1198</ele>
        <time>2021-06-03T09:34:14Z</time>
      </trkpt>
      <trkpt lat="41.86919" lon="9.11776">
        <ele>1198</ele>
        <time>2021-06-03T09:34:15Z</time>
      </trkpt>
      <trkpt lat="41.86919" lon="9.11774">
        <ele>1198.2</ele>
        <time>2021-06-03T09:34:16Z</time>
      </trkpt>
      <trkpt lat="41.86918" lon="9.11772">
        <ele>1198.2</ele>
        <time>2021-06-03T09:34:17Z</time>
      </trkpt>
      <trkpt lat="41.86919" lon="9.1177">
        <ele>1198.2</ele>
        <time>2021-06-03T09:34:18Z</time>
      </trkpt>
      <trkpt lat="41.86918" lon="9.11768">
        <ele>1198.2</ele>
        <time>2021-06-03T09:34:19Z</time>
      </trkpt>
      <trkpt lat="41.86918" lon="9.11766">
        <ele>1199</ele>
        <time>2021-06-03T09:34:20Z</time>
      </trkpt>
      <trkpt lat="41.86918" lon="9.11764">
        <ele>1198.4</ele>
        <time>2021-06-03T09:34:21Z</time>
      </trkpt>
      <trkpt lat="41.86918" lon="9.11762">
        <ele>1198.4</ele>
        <time>2021-06-03T09:34:22Z</time>
      </trkpt>
      <trkpt lat="41.86917" lon="9.1176">
        <ele>1198.4</ele>
        <time>2021-06-03T09:34:23Z</time>
      </trkpt>
      <trkpt lat="41.86917" lon="9.11757">
        <ele>1198.8</ele>
        <time>2021-06-03T09:34:24Z</time>
      </trkpt>
      <trkpt lat="41.86916" lon="9.11755">
        <ele>1199</ele>
        <time>2021-06-03T09:34:25Z</time>
      </trkpt>
      <trkpt lat="41.86915" lon="9.11753">
        <ele>1199</ele>
        <time>2021-06-03T09:34:26Z</time>
      </trkpt>
      <trkpt lat="41.86914" lon="9.11751">
        <ele>1199</ele>
        <time>2021-06-03T09:34:27Z</time>
      </trkpt>
      <trkpt lat="41.86913" lon="9.1175">
        <ele>1199.6</ele>
        <time>2021-06-03T09:34:28Z</time>
      </trkpt>
      <trkpt lat="41.86911" lon="9.11749">
        <ele>1199.8</ele>
        <time>2021-06-03T09:34:29Z</time>
      </trkpt>
      <trkpt lat="41.8691" lon="9.11748">
        <ele>1199.8</ele>
        <time>2021-06-03T09:34:30Z</time>
      </trkpt>
      <trkpt lat="41.86908" lon="9.11747">
        <ele>1199.8</ele>
        <time>2021-06-03T09:34:31Z</time>
      </trkpt>
      <trkpt lat="41.86907" lon="9.11746">
        <ele>1199.8</ele>
        <time>2021-06-03T09:34:32Z</time>
      </trkpt>
      <trkpt lat="41.86906" lon="9.11745">
        <ele>1199.6</ele>
        <time>2021-06-03T09:34:33Z</time>
      </trkpt>
      <trkpt lat="41.86904" lon="9.11744">
        <ele>1199.6</ele>
        <time>2021-06-03T09:34:34Z</time>
      </trkpt>
      <trkpt lat="41.86903" lon="9.11742">
        <ele>1199.6</ele>
        <time>2021-06-03T09:34:35Z</time>
      </trkpt>
      <trkpt lat="41.86901" lon="9.11742">
        <ele>1200.4</ele>
        <time>2021-06-03T09:34:36Z</time>
      </trkpt>
      <trkpt lat="41.869" lon="9.1174">
        <ele>1200.2</ele>
        <time>2021-06-03T09:34:37Z</time>
      </trkpt>
      <trkpt lat="41.86899" lon="9.11738">
        <ele>1200.2</ele>
        <time>2021-06-03T09:34:38Z</time>
      </trkpt>
      <trkpt lat="41.86898" lon="9.11736">
        <ele>1200.2</ele>
        <time>2021-06-03T09:34:39Z</time>
      </trkpt>
      <trkpt lat="41.86897" lon="9.11734">
        <ele>1200.2</ele>
        <time>2021-06-03T09:34:40Z</time>
      </trkpt>
      <trkpt lat="41.86897" lon="9.11732">
        <ele>1201.2</ele>
        <time>2021-06-03T09:34:41Z</time>
      </trkpt>
      <trkpt lat="41.86896" lon="9.1173">
        <ele>1201.2</ele>
        <time>2021-06-03T09:34:42Z</time>
      </trkpt>
      <trkpt lat="41.86895" lon="9.1173">
        <ele>1201.2</ele>
        <time>2021-06-03T09:34:43Z</time>
      </trkpt>
      <trkpt lat="41.86895" lon="9.11727">
        <ele>1201.8</ele>
        <time>2021-06-03T09:34:44Z</time>
      </trkpt>
      <trkpt lat="41.86896" lon="9.11726">
        <ele>1201.8</ele>
        <time>2021-06-03T09:34:45Z</time>
      </trkpt>
      <trkpt lat="41.86896" lon="9.11724">
        <ele>1201.8</ele>
        <time>2021-06-03T09:34:46Z</time>
      </trkpt>
      <trkpt lat="41.86896" lon="9.11722">
        <ele>1201.8</ele>
        <time>2021-06-03T09:34:47Z</time>
      </trkpt>
      <trkpt lat="41.86896" lon="9.1172">
        <ele>1201.8</ele>
        <time>2021-06-03T09:34:48Z</time>
      </trkpt>
      <trkpt lat="41.86897" lon="9.11718">
        <ele>1202.6</ele>
        <time>2021-06-03T09:34:49Z</time>
      </trkpt>
      <trkpt lat="41.86897" lon="9.11716">
        <ele>1202.6</ele>
        <time>2021-06-03T09:34:50Z</time>
      </trkpt>
      <trkpt lat="41.86897" lon="9.11714">
        <ele>1202.6</ele>
        <time>2021-06-03T09:34:51Z</time>
      </trkpt>
      <trkpt lat="41.86897" lon="9.11711">
        <ele>1202.4</ele>
        <time>2021-06-03T09:34:52Z</time>
      </trkpt>
      <trkpt lat="41.86898" lon="9.11709">
        <ele>1202.6</ele>
        <time>2021-06-03T09:34:53Z</time>
      </trkpt>
      <trkpt lat="41.86898" lon="9.11707">
        <ele>1202.6</ele>
        <time>2021-06-03T09:34:54Z</time>
      </trkpt>
      <trkpt lat="41.86899" lon="9.11706">
        <ele>1202.6</ele>
        <time>2021-06-03T09:34:55Z</time>
      </trkpt>
      <trkpt lat="41.86899" lon="9.11704">
        <ele>1202.6</ele>
        <time>2021-06-03T09:34:56Z</time>
      </trkpt>
      <trkpt lat="41.86899" lon="9.11702">
        <ele>1202.6</ele>
        <time>2021-06-03T09:34:57Z</time>
      </trkpt>
      <trkpt lat="41.869" lon="9.117">
        <ele>1202.6</ele>
        <time>2021-06-03T09:34:58Z</time>
      </trkpt>
      <trkpt lat="41.86901" lon="9.11697">
        <ele>1202.6</ele>
        <time>2021-06-03T09:34:59Z</time>
      </trkpt>
      <trkpt lat="41.86902" lon="9.11695">
        <ele>1202.6</ele>
        <time>2021-06-03T09:35:00Z</time>
      </trkpt>
      <trkpt lat="41.86901" lon="9.11692">
        <ele>1202.6</ele>
        <time>2021-06-03T09:35:01Z</time>
      </trkpt>
      <trkpt lat="41.86902" lon="9.1169">
        <ele>1202.6</ele>
        <time>2021-06-03T09:35:02Z</time>
      </trkpt>
      <trkpt lat="41.86903" lon="9.11687">
        <ele>1202.6</ele>
        <time>2021-06-03T09:35:03Z</time>
      </trkpt>
      <trkpt lat="41.86905" lon="9.11685">
        <ele>1202.6</ele>
        <time>2021-06-03T09:35:04Z</time>
      </trkpt>
      <trkpt lat="41.86907" lon="9.11683">
        <ele>1202</ele>
        <time>2021-06-03T09:35:05Z</time>
      </trkpt>
      <trkpt lat="41.86908" lon="9.1168">
        <ele>1202</ele>
        <time>2021-06-03T09:35:06Z</time>
      </trkpt>
      <trkpt lat="41.8691" lon="9.11679">
        <ele>1202</ele>
        <time>2021-06-03T09:35:07Z</time>
      </trkpt>
      <trkpt lat="41.86913" lon="9.11676">
        <ele>1201.6</ele>
        <time>2021-06-03T09:35:08Z</time>
      </trkpt>
      <trkpt lat="41.86915" lon="9.11674">
        <ele>1201.6</ele>
        <time>2021-06-03T09:35:09Z</time>
      </trkpt>
      <trkpt lat="41.86917" lon="9.11672">
        <ele>1201.6</ele>
        <time>2021-06-03T09:35:10Z</time>
      </trkpt>
      <trkpt lat="41.8692" lon="9.11671">
        <ele>1201.6</ele>
        <time>2021-06-03T09:35:11Z</time>
      </trkpt>
      <trkpt lat="41.86921" lon="9.11669">
        <ele>1201.6</ele>
        <time>2021-06-03T09:35:12Z</time>
      </trkpt>
      <trkpt lat="41.86924" lon="9.11668">
        <ele>1201.2</ele>
        <time>2021-06-03T09:35:13Z</time>
      </trkpt>
      <trkpt lat="41.86926" lon="9.11667">
        <ele>1201.2</ele>
        <time>2021-06-03T09:35:14Z</time>
      </trkpt>
      <trkpt lat="41.86928" lon="9.11666">
        <ele>1201.2</ele>
        <time>2021-06-03T09:35:15Z</time>
      </trkpt>
      <trkpt lat="41.86931" lon="9.11665">
        <ele>1201.2</ele>
        <time>2021-06-03T09:35:16Z</time>
      </trkpt>
      <trkpt lat="41.86933" lon="9.11664">
        <ele>1201.4</ele>
        <time>2021-06-03T09:35:17Z</time>
      </trkpt>
      <trkpt lat="41.86935" lon="9.11663">
        <ele>1201.4</ele>
        <time>2021-06-03T09:35:18Z</time>
      </trkpt>
      <trkpt lat="41.86938" lon="9.11662">
        <ele>1201.4</ele>
        <time>2021-06-03T09:35:19Z</time>
      </trkpt>
      <trkpt lat="41.8694" lon="9.1166">
        <ele>1201.4</ele>
        <time>2021-06-03T09:35:20Z</time>
      </trkpt>
      <trkpt lat="41.86942" lon="9.11658">
        <ele>1200.8</ele>
        <time>2021-06-03T09:35:21Z</time>
      </trkpt>
      <trkpt lat="41.86945" lon="9.11656">
        <ele>1200.8</ele>
        <time>2021-06-03T09:35:22Z</time>
      </trkpt>
      <trkpt lat="41.86947" lon="9.11654">
        <ele>1200.8</ele>
        <time>2021-06-03T09:35:23Z</time>
      </trkpt>
      <trkpt lat="41.8695" lon="9.11652">
        <ele>1200.8</ele>
        <time>2021-06-03T09:35:24Z</time>
      </trkpt>
      <trkpt lat="41.86952" lon="9.1165">
        <ele>1200.6</ele>
        <time>2021-06-03T09:35:25Z</time>
      </trkpt>
      <trkpt lat="41.86953" lon="9.11647">
        <ele>1200.6</ele>
        <time>2021-06-03T09:35:26Z</time>
      </trkpt>
      <trkpt lat="41.86954" lon="9.11644">
        <ele>1200.6</ele>
        <time>2021-06-03T09:35:27Z</time>
      </trkpt>
      <trkpt lat="41.86955" lon="9.1164">
        <ele>1200.6</ele>
        <time>2021-06-03T09:35:28Z</time>
      </trkpt>
      <trkpt lat="41.86954" lon="9.11636">
        <ele>1200.2</ele>
        <time>2021-06-03T09:35:29Z</time>
      </trkpt>
      <trkpt lat="41.86954" lon="9.11632">
        <ele>1200.2</ele>
        <time>2021-06-03T09:35:30Z</time>
      </trkpt>
      <trkpt lat="41.86954" lon="9.11628">
        <ele>1200.2</ele>
        <time>2021-06-03T09:35:31Z</time>
      </trkpt>
      <trkpt lat="41.86954" lon="9.11623">
        <ele>1200.2</ele>
        <time>2021-06-03T09:35:32Z</time>
      </trkpt>
      <trkpt lat="41.86954" lon="9.11619">
        <ele>1199.8</ele>
        <time>2021-06-03T09:35:33Z</time>
      </trkpt>
      <trkpt lat="41.86953" lon="9.11614">
        <ele>1199.8</ele>
        <time>2021-06-03T09:35:34Z</time>
      </trkpt>
      <trkpt lat="41.86953" lon="9.11609">
        <ele>1199.8</ele>
        <time>2021-06-03T09:35:35Z</time>
      </trkpt>
      <trkpt lat="41.86952" lon="9.11605">
        <ele>1199.8</ele>
        <time>2021-06-03T09:35:36Z</time>
      </trkpt>
      <trkpt lat="41.86951" lon="9.116">
        <ele>1200</ele>
        <time>2021-06-03T09:35:37Z</time>
      </trkpt>
      <trkpt lat="41.8695" lon="9.11596">
        <ele>1200</ele>
        <time>2021-06-03T09:35:38Z</time>
      </trkpt>
      <trkpt lat="41.86949" lon="9.11592">
        <ele>1200</ele>
        <time>2021-06-03T09:35:39Z</time>
      </trkpt>
      <trkpt lat="41.86948" lon="9.11588">
        <ele>1200.4</ele>
        <time>2021-06-03T09:35:40Z</time>
      </trkpt>
      <trkpt lat="41.86947" lon="9.11584">
        <ele>1200.6</ele>
        <time>2021-06-03T09:35:41Z</time>
      </trkpt>
      <trkpt lat="41.86945" lon="9.1158">
        <ele>1200.6</ele>
        <time>2021-06-03T09:35:42Z</time>
      </trkpt>
      <trkpt lat="41.86944" lon="9.11576">
        <ele>1200.6</ele>
        <time>2021-06-03T09:35:43Z</time>
      </trkpt>
      <trkpt lat="41.86942" lon="9.11573">
        <ele>1200.4</ele>
        <time>2021-06-03T09:35:44Z</time>
      </trkpt>
      <trkpt lat="41.8694" lon="9.11568">
        <ele>1200.2</ele>
        <time>2021-06-03T09:35:45Z</time>
      </trkpt>
      <trkpt lat="41.86938" lon="9.11564">
        <ele>1200.2</ele>
        <time>2021-06-03T09:35:46Z</time>
      </trkpt>
      <trkpt lat="41.86935" lon="9.1156">
        <ele>1200.2</ele>
        <time>2021-06-03T09:35:47Z</time>
      </trkpt>
      <trkpt lat="41.86932" lon="9.11556">
        <ele>1200.2</ele>
        <time>2021-06-03T09:35:48Z</time>
      </trkpt>
      <trkpt lat="41.86929" lon="9.11552">
        <ele>1199.2</ele>
        <time>2021-06-03T09:35:49Z</time>
      </trkpt>
      <trkpt lat="41.86925" lon="9.1155">
        <ele>1199.2</ele>
        <time>2021-06-03T09:35:50Z</time>
      </trkpt>
      <trkpt lat="41.86921" lon="9.11545">
        <ele>1199.2</ele>
        <time>2021-06-03T09:35:51Z</time>
      </trkpt>
      <trkpt lat="41.86917" lon="9.11541">
        <ele>1198.4</ele>
        <time>2021-06-03T09:35:52Z</time>
      </trkpt>
      <trkpt lat="41.86913" lon="9.11538">
        <ele>1198.4</ele>
        <time>2021-06-03T09:35:53Z</time>
      </trkpt>
      <trkpt lat="41.8691" lon="9.11534">
        <ele>1198.4</ele>
        <time>2021-06-03T09:35:54Z</time>
      </trkpt>
      <trkpt lat="41.86908" lon="9.1153">
        <ele>1198.4</ele>
        <time>2021-06-03T09:35:55Z</time>
      </trkpt>
      <trkpt lat="41.86906" lon="9.11523">
        <ele>1198.4</ele>
        <time>2021-06-03T09:35:56Z</time>
      </trkpt>
      <trkpt lat="41.86904" lon="9.11516">
        <ele>1197</ele>
        <time>2021-06-03T09:35:57Z</time>
      </trkpt>
      <trkpt lat="41.86904" lon="9.11509">
        <ele>1197</ele>
        <time>2021-06-03T09:35:58Z</time>
      </trkpt>
      <trkpt lat="41.86903" lon="9.11501">
        <ele>1197</ele>
        <time>2021-06-03T09:35:59Z</time>
      </trkpt>
      <trkpt lat="41.86902" lon="9.11492">
        <ele>1196</ele>
        <time>2021-06-03T09:36:00Z</time>
      </trkpt>
      <trkpt lat="41.869" lon="9.11482">
        <ele>1192</ele>
        <time>2021-06-03T09:36:01Z</time>
      </trkpt>
      <trkpt lat="41.86898" lon="9.11471">
        <ele>1192</ele>
        <time>2021-06-03T09:36:02Z</time>
      </trkpt>
      <trkpt lat="41.86895" lon="9.1146">
        <ele>1192</ele>
        <time>2021-06-03T09:36:03Z</time>
      </trkpt>
      <trkpt lat="41.86893" lon="9.11449">
        <ele>1191</ele>
        <time>2021-06-03T09:36:04Z</time>
      </trkpt>
      <trkpt lat="41.86892" lon="9.11437">
        <ele>1188.8</ele>
        <time>2021-06-03T09:36:05Z</time>
      </trkpt>
      <trkpt lat="41.86891" lon="9.11426">
        <ele>1188.8</ele>
        <time>2021-06-03T09:36:06Z</time>
      </trkpt>
      <trkpt lat="41.8689" lon="9.11413">
        <ele>1188.8</ele>
        <time>2021-06-03T09:36:07Z</time>
      </trkpt>
      <trkpt lat="41.86889" lon="9.114">
        <ele>1188</ele>
        <time>2021-06-03T09:36:08Z</time>
      </trkpt>
      <trkpt lat="41.86887" lon="9.11388">
        <ele>1188</ele>
        <time>2021-06-03T09:36:09Z</time>
      </trkpt>
      <trkpt lat="41.86885" lon="9.11377">
        <ele>1188</ele>
        <time>2021-06-03T09:36:10Z</time>
      </trkpt>
      <trkpt lat="41.86882" lon="9.11366">
        <ele>1188</ele>
        <time>2021-06-03T09:36:11Z</time>
      </trkpt>
      <trkpt lat="41.8688" lon="9.11355">
        <ele>1188.4</ele>
        <time>2021-06-03T09:36:12Z</time>
      </trkpt>
      <trkpt lat="41.86881" lon="9.11346">
        <ele>1189.4</ele>
        <time>2021-06-03T09:36:13Z</time>
      </trkpt>
      <trkpt lat="41.86883" lon="9.11337">
        <ele>1189.4</ele>
        <time>2021-06-03T09:36:14Z</time>
      </trkpt>
      <trkpt lat="41.86887" lon="9.11331">
        <ele>1189.4</ele>
        <time>2021-06-03T09:36:15Z</time>
      </trkpt>
      <trkpt lat="41.8689" lon="9.11326">
        <ele>1190.4</ele>
        <time>2021-06-03T09:36:16Z</time>
      </trkpt>
      <trkpt lat="41.86892" lon="9.11321">
        <ele>1192.6</ele>
        <time>2021-06-03T09:36:17Z</time>
      </trkpt>
      <trkpt lat="41.86895" lon="9.11316">
        <ele>1192.6</ele>
        <time>2021-06-03T09:36:18Z</time>
      </trkpt>
      <trkpt lat="41.86898" lon="9.11313">
        <ele>1192.6</ele>
        <time>2021-06-03T09:36:19Z</time>
      </trkpt>
      <trkpt lat="41.86902" lon="9.11309">
        <ele>1192.6</ele>
        <time>2021-06-03T09:36:20Z</time>
      </trkpt>
      <trkpt lat="41.86905" lon="9.11305">
        <ele>1192.4</ele>
        <time>2021-06-03T09:36:21Z</time>
      </trkpt>
      <trkpt lat="41.86908" lon="9.11302">
        <ele>1192.4</ele>
        <time>2021-06-03T09:36:22Z</time>
      </trkpt>
      <trkpt lat="41.86911" lon="9.11298">
        <ele>1192.4</ele>
        <time>2021-06-03T09:36:23Z</time>
      </trkpt>
      <trkpt lat="41.86914" lon="9.11296">
        <ele>1192.4</ele>
        <time>2021-06-03T09:36:24Z</time>
      </trkpt>
      <trkpt lat="41.86917" lon="9.11293">
        <ele>1192.4</ele>
        <time>2021-06-03T09:36:25Z</time>
      </trkpt>
      <trkpt lat="41.8692" lon="9.1129">
        <ele>1192.4</ele>
        <time>2021-06-03T09:36:26Z</time>
      </trkpt>
      <trkpt lat="41.86923" lon="9.11288">
        <ele>1192.4</ele>
        <time>2021-06-03T09:36:27Z</time>
      </trkpt>
      <trkpt lat="41.86925" lon="9.11286">
        <ele>1193.4</ele>
        <time>2021-06-03T09:36:28Z</time>
      </trkpt>
      <trkpt lat="41.86927" lon="9.11284">
        <ele>1193.4</ele>
        <time>2021-06-03T09:36:29Z</time>
      </trkpt>
      <trkpt lat="41.8693" lon="9.11281">
        <ele>1193.4</ele>
        <time>2021-06-03T09:36:30Z</time>
      </trkpt>
      <trkpt lat="41.86932" lon="9.11279">
        <ele>1193.4</ele>
        <time>2021-06-03T09:36:31Z</time>
      </trkpt>
      <trkpt lat="41.86934" lon="9.11278">
        <ele>1194.4</ele>
        <time>2021-06-03T09:36:32Z</time>
      </trkpt>
      <trkpt lat="41.86936" lon="9.11277">
        <ele>1196.2</ele>
        <time>2021-06-03T09:36:33Z</time>
      </trkpt>
      <trkpt lat="41.86938" lon="9.11275">
        <ele>1196.2</ele>
        <time>2021-06-03T09:36:34Z</time>
      </trkpt>
      <trkpt lat="41.8694" lon="9.11272">
        <ele>1196.2</ele>
        <time>2021-06-03T09:36:35Z</time>
      </trkpt>
      <trkpt lat="41.86941" lon="9.11269">
        <ele>1196</ele>
        <time>2021-06-03T09:36:36Z</time>
      </trkpt>
      <trkpt lat="41.86942" lon="9.11266">
        <ele>1196.2</ele>
        <time>2021-06-03T09:36:37Z</time>
      </trkpt>
      <trkpt lat="41.86944" lon="9.11262">
        <ele>1196.2</ele>
        <time>2021-06-03T09:36:38Z</time>
      </trkpt>
      <trkpt lat="41.86946" lon="9.11258">
        <ele>1196.2</ele>
        <time>2021-06-03T09:36:39Z</time>
      </trkpt>
      <trkpt lat="41.86948" lon="9.11255">
        <ele>1195.2</ele>
        <time>2021-06-03T09:36:40Z</time>
      </trkpt>
      <trkpt lat="41.86951" lon="9.1125">
        <ele>1193.8</ele>
        <time>2021-06-03T09:36:41Z</time>
      </trkpt>
      <trkpt lat="41.86954" lon="9.11245">
        <ele>1193.8</ele>
        <time>2021-06-03T09:36:42Z</time>
      </trkpt>
      <trkpt lat="41.86958" lon="9.11239">
        <ele>1193.8</ele>
        <time>2021-06-03T09:36:43Z</time>
      </trkpt>
      <trkpt lat="41.86962" lon="9.11233">
        <ele>1192.8</ele>
        <time>2021-06-03T09:36:44Z</time>
      </trkpt>
      <trkpt lat="41.86966" lon="9.11226">
        <ele>1188.8</ele>
        <time>2021-06-03T09:36:45Z</time>
      </trkpt>
      <trkpt lat="41.8697" lon="9.11218">
        <ele>1188.8</ele>
        <time>2021-06-03T09:36:46Z</time>
      </trkpt>
      <trkpt lat="41.86974" lon="9.11209">
        <ele>1188.8</ele>
        <time>2021-06-03T09:36:47Z</time>
      </trkpt>
      <trkpt lat="41.86976" lon="9.112">
        <ele>1187.8</ele>
        <time>2021-06-03T09:36:48Z</time>
      </trkpt>
      <trkpt lat="41.86978" lon="9.11189">
        <ele>1186.2</ele>
        <time>2021-06-03T09:36:49Z</time>
      </trkpt>
      <trkpt lat="41.86978" lon="9.11179">
        <ele>1186.2</ele>
        <time>2021-06-03T09:36:50Z</time>
      </trkpt>
      <trkpt lat="41.86976" lon="9.11169">
        <ele>1186.2</ele>
        <time>2021-06-03T09:36:51Z</time>
      </trkpt>
      <trkpt lat="41.86973" lon="9.11159">
        <ele>1186.2</ele>
        <time>2021-06-03T09:36:52Z</time>
      </trkpt>
      <trkpt lat="41.86969" lon="9.11151">
        <ele>1188.4</ele>
        <time>2021-06-03T09:36:53Z</time>
      </trkpt>
      <trkpt lat="41.86964" lon="9.11145">
        <ele>1188.4</ele>
        <time>2021-06-03T09:36:54Z</time>
      </trkpt>
      <trkpt lat="41.86959" lon="9.11141">
        <ele>1188.4</ele>
        <time>2021-06-03T09:36:55Z</time>
      </trkpt>
      <trkpt lat="41.86955" lon="9.11136">
        <ele>1189.4</ele>
        <time>2021-06-03T09:36:56Z</time>
      </trkpt>
      <trkpt lat="41.86951" lon="9.11132">
        <ele>1189.2</ele>
        <time>2021-06-03T09:36:57Z</time>
      </trkpt>
      <trkpt lat="41.86948" lon="9.11127">
        <ele>1189.2</ele>
        <time>2021-06-03T09:36:58Z</time>
      </trkpt>
      <trkpt lat="41.86944" lon="9.11121">
        <ele>1189.2</ele>
        <time>2021-06-03T09:36:59Z</time>
      </trkpt>
      <trkpt lat="41.86942" lon="9.11115">
        <ele>1189.2</ele>
        <time>2021-06-03T09:37:00Z</time>
      </trkpt>
      <trkpt lat="41.86939" lon="9.11108">
        <ele>1188.8</ele>
        <time>2021-06-03T09:37:01Z</time>
      </trkpt>
      <trkpt lat="41.86937" lon="9.11102">
        <ele>1188.8</ele>
        <time>2021-06-03T09:37:02Z</time>
      </trkpt>
      <trkpt lat="41.86935" lon="9.11096">
        <ele>1188.8</ele>
        <time>2021-06-03T09:37:03Z</time>
      </trkpt>
      <trkpt lat="41.86932" lon="9.11091">
        <ele>1188.2</ele>
        <time>2021-06-03T09:37:04Z</time>
      </trkpt>
      <trkpt lat="41.86931" lon="9.11083">
        <ele>1187.8</ele>
        <time>2021-06-03T09:37:05Z</time>
      </trkpt>
      <trkpt lat="41.8693" lon="9.11076">
        <ele>1187.8</ele>
        <time>2021-06-03T09:37:06Z</time>
      </trkpt>
      <trkpt lat="41.86929" lon="9.11069">
        <ele>1187.8</ele>
        <time>2021-06-03T09:37:07Z</time>
      </trkpt>
      <trkpt lat="41.86927" lon="9.11062">
        <ele>1187.4</ele>
        <time>2021-06-03T09:37:08Z</time>
      </trkpt>
      <trkpt lat="41.86926" lon="9.11054">
        <ele>1187.6</ele>
        <time>2021-06-03T09:37:09Z</time>
      </trkpt>
      <trkpt lat="41.86924" lon="9.11046">
        <ele>1187.6</ele>
        <time>2021-06-03T09:37:10Z</time>
      </trkpt>
      <trkpt lat="41.86923" lon="9.11038">
        <ele>1187.6</ele>
        <time>2021-06-03T09:37:11Z</time>
      </trkpt>
      <trkpt lat="41.86921" lon="9.11032">
        <ele>1187.6</ele>
        <time>2021-06-03T09:37:12Z</time>
      </trkpt>
      <trkpt lat="41.86919" lon="9.11025">
        <ele>1187.6</ele>
        <time>2021-06-03T09:37:13Z</time>
      </trkpt>
      <trkpt lat="41.86917" lon="9.11021">
        <ele>1187.6</ele>
        <time>2021-06-03T09:37:14Z</time>
      </trkpt>
      <trkpt lat="41.86915" lon="9.11014">
        <ele>1187.6</ele>
        <time>2021-06-03T09:37:15Z</time>
      </trkpt>
      <trkpt lat="41.86913" lon="9.11006">
        <ele>1186.6</ele>
        <time>2021-06-03T09:37:16Z</time>
      </trkpt>
      <trkpt lat="41.86913" lon="9.10998">
        <ele>1186.8</ele>
        <time>2021-06-03T09:37:17Z</time>
      </trkpt>
      <trkpt lat="41.86915" lon="9.10991">
        <ele>1186.8</ele>
        <time>2021-06-03T09:37:18Z</time>
      </trkpt>
      <trkpt lat="41.86918" lon="9.10985">
        <ele>1186.8</ele>
        <time>2021-06-03T09:37:19Z</time>
      </trkpt>
      <trkpt lat="41.86921" lon="9.10979">
        <ele>1186.8</ele>
        <time>2021-06-03T09:37:20Z</time>
      </trkpt>
      <trkpt lat="41.86924" lon="9.10972">
        <ele>1187</ele>
        <time>2021-06-03T09:37:21Z</time>
      </trkpt>
      <trkpt lat="41.86927" lon="9.10964">
        <ele>1187</ele>
        <time>2021-06-03T09:37:22Z</time>
      </trkpt>
      <trkpt lat="41.86928" lon="9.10956">
        <ele>1187</ele>
        <time>2021-06-03T09:37:23Z</time>
      </trkpt>
      <trkpt lat="41.86928" lon="9.10948">
        <ele>1187</ele>
        <time>2021-06-03T09:37:24Z</time>
      </trkpt>
      <trkpt lat="41.86928" lon="9.10939">
        <ele>1184.8</ele>
        <time>2021-06-03T09:37:25Z</time>
      </trkpt>
      <trkpt lat="41.86926" lon="9.10931">
        <ele>1184.8</ele>
        <time>2021-06-03T09:37:26Z</time>
      </trkpt>
      <trkpt lat="41.86925" lon="9.10924">
        <ele>1184.8</ele>
        <time>2021-06-03T09:37:27Z</time>
      </trkpt>
      <trkpt lat="41.86923" lon="9.10916">
        <ele>1184.8</ele>
        <time>2021-06-03T09:37:28Z</time>
      </trkpt>
      <trkpt lat="41.86922" lon="9.10908">
        <ele>1185</ele>
        <time>2021-06-03T09:37:29Z</time>
      </trkpt>
      <trkpt lat="41.86922" lon="9.109">
        <ele>1185</ele>
        <time>2021-06-03T09:37:30Z</time>
      </trkpt>
      <trkpt lat="41.86921" lon="9.10893">
        <ele>1185</ele>
        <time>2021-06-03T09:37:31Z</time>
      </trkpt>
      <trkpt lat="41.86921" lon="9.10887">
        <ele>1186</ele>
        <time>2021-06-03T09:37:32Z</time>
      </trkpt>
      <trkpt lat="41.86921" lon="9.1088">
        <ele>1185.8</ele>
        <time>2021-06-03T09:37:33Z</time>
      </trkpt>
      <trkpt lat="41.86919" lon="9.10874">
        <ele>1185.8</ele>
        <time>2021-06-03T09:37:34Z</time>
      </trkpt>
      <trkpt lat="41.8692" lon="9.10867">
        <ele>1185.8</ele>
        <time>2021-06-03T09:37:35Z</time>
      </trkpt>
      <trkpt lat="41.8692" lon="9.10861">
        <ele>1185.8</ele>
        <time>2021-06-03T09:37:36Z</time>
      </trkpt>
      <trkpt lat="41.8692" lon="9.10855">
        <ele>1186.4</ele>
        <time>2021-06-03T09:37:37Z</time>
      </trkpt>
      <trkpt lat="41.86921" lon="9.10849">
        <ele>1186.4</ele>
        <time>2021-06-03T09:37:38Z</time>
      </trkpt>
      <trkpt lat="41.86921" lon="9.10844">
        <ele>1186.4</ele>
        <time>2021-06-03T09:37:39Z</time>
      </trkpt>
      <trkpt lat="41.86922" lon="9.10839">
        <ele>1186.4</ele>
        <time>2021-06-03T09:37:40Z</time>
      </trkpt>
      <trkpt lat="41.86922" lon="9.10835">
        <ele>1186.6</ele>
        <time>2021-06-03T09:37:41Z</time>
      </trkpt>
      <trkpt lat="41.86923" lon="9.10831">
        <ele>1186.6</ele>
        <time>2021-06-03T09:37:42Z</time>
      </trkpt>
      <trkpt lat="41.86922" lon="9.10825">
        <ele>1186.6</ele>
        <time>2021-06-03T09:37:43Z</time>
      </trkpt>
      <trkpt lat="41.86923" lon="9.1082">
        <ele>1186.2</ele>
        <time>2021-06-03T09:37:44Z</time>
      </trkpt>
      <trkpt lat="41.86923" lon="9.10815">
        <ele>1186</ele>
        <time>2021-06-03T09:37:45Z</time>
      </trkpt>
      <trkpt lat="41.86923" lon="9.1081">
        <ele>1186</ele>
        <time>2021-06-03T09:37:46Z</time>
      </trkpt>
      <trkpt lat="41.86924" lon="9.10805">
        <ele>1186</ele>
        <time>2021-06-03T09:37:47Z</time>
      </trkpt>
      <trkpt lat="41.86924" lon="9.10799">
        <ele>1186</ele>
        <time>2021-06-03T09:37:48Z</time>
      </trkpt>
      <trkpt lat="41.86924" lon="9.10793">
        <ele>1186.4</ele>
        <time>2021-06-03T09:37:49Z</time>
      </trkpt>
      <trkpt lat="41.86924" lon="9.10786">
        <ele>1186.4</ele>
        <time>2021-06-03T09:37:50Z</time>
      </trkpt>
      <trkpt lat="41.86924" lon="9.1078">
        <ele>1186.4</ele>
        <time>2021-06-03T09:37:51Z</time>
      </trkpt>
      <trkpt lat="41.86924" lon="9.10774">
        <ele>1185.8</ele>
        <time>2021-06-03T09:37:52Z</time>
      </trkpt>
      <trkpt lat="41.86924" lon="9.10769">
        <ele>1185.6</ele>
        <time>2021-06-03T09:37:53Z</time>
      </trkpt>
      <trkpt lat="41.86922" lon="9.10764">
        <ele>1185.6</ele>
        <time>2021-06-03T09:37:54Z</time>
      </trkpt>
      <trkpt lat="41.86921" lon="9.1076">
        <ele>1185.6</ele>
        <time>2021-06-03T09:37:55Z</time>
      </trkpt>
      <trkpt lat="41.86919" lon="9.10754">
        <ele>1184.6</ele>
        <time>2021-06-03T09:37:56Z</time>
      </trkpt>
      <trkpt lat="41.86917" lon="9.10749">
        <ele>1184.4</ele>
        <time>2021-06-03T09:37:57Z</time>
      </trkpt>
      <trkpt lat="41.86914" lon="9.10746">
        <ele>1184.4</ele>
        <time>2021-06-03T09:37:58Z</time>
      </trkpt>
      <trkpt lat="41.8691" lon="9.10742">
        <ele>1184.4</ele>
        <time>2021-06-03T09:37:59Z</time>
      </trkpt>
      <trkpt lat="41.86907" lon="9.10738">
        <ele>1183.4</ele>
        <time>2021-06-03T09:38:00Z</time>
      </trkpt>
      <trkpt lat="41.86903" lon="9.10735">
        <ele>1183</ele>
        <time>2021-06-03T09:38:01Z</time>
      </trkpt>
      <trkpt lat="41.86898" lon="9.10732">
        <ele>1183</ele>
        <time>2021-06-03T09:38:02Z</time>
      </trkpt>
      <trkpt lat="41.86893" lon="9.10728">
        <ele>1183</ele>
        <time>2021-06-03T09:38:03Z</time>
      </trkpt>
      <trkpt lat="41.86888" lon="9.10725">
        <ele>1182</ele>
        <time>2021-06-03T09:38:04Z</time>
      </trkpt>
      <trkpt lat="41.86883" lon="9.10722">
        <ele>1181.2</ele>
        <time>2021-06-03T09:38:05Z</time>
      </trkpt>
      <trkpt lat="41.86878" lon="9.10719">
        <ele>1181.2</ele>
        <time>2021-06-03T09:38:06Z</time>
      </trkpt>
      <trkpt lat="41.86872" lon="9.10716">
        <ele>1181.2</ele>
        <time>2021-06-03T09:38:07Z</time>
      </trkpt>
      <trkpt lat="41.86867" lon="9.10714">
        <ele>1180.2</ele>
        <time>2021-06-03T09:38:08Z</time>
      </trkpt>
      <trkpt lat="41.86861" lon="9.10711">
        <ele>1178.8</ele>
        <time>2021-06-03T09:38:09Z</time>
      </trkpt>
      <trkpt lat="41.86854" lon="9.10709">
        <ele>1178.8</ele>
        <time>2021-06-03T09:38:10Z</time>
      </trkpt>
      <trkpt lat="41.86848" lon="9.10706">
        <ele>1178.8</ele>
        <time>2021-06-03T09:38:11Z</time>
      </trkpt>
      <trkpt lat="41.86842" lon="9.10703">
        <ele>1178.8</ele>
        <time>2021-06-03T09:38:12Z</time>
      </trkpt>
      <trkpt lat="41.86835" lon="9.10701">
        <ele>1177</ele>
        <time>2021-06-03T09:38:13Z</time>
      </trkpt>
      <trkpt lat="41.86827" lon="9.10699">
        <ele>1177</ele>
        <time>2021-06-03T09:38:14Z</time>
      </trkpt>
      <trkpt lat="41.8682" lon="9.10697">
        <ele>1177</ele>
        <time>2021-06-03T09:38:15Z</time>
      </trkpt>
      <trkpt lat="41.86813" lon="9.10695">
        <ele>1176</ele>
        <time>2021-06-03T09:38:16Z</time>
      </trkpt>
      <trkpt lat="41.86805" lon="9.10693">
        <ele>1175.2</ele>
        <time>2021-06-03T09:38:17Z</time>
      </trkpt>
      <trkpt lat="41.86798" lon="9.10691">
        <ele>1175.2</ele>
        <time>2021-06-03T09:38:18Z</time>
      </trkpt>
      <trkpt lat="41.8679" lon="9.10689">
        <ele>1175.2</ele>
        <time>2021-06-03T09:38:19Z</time>
      </trkpt>
      <trkpt lat="41.86783" lon="9.10687">
        <ele>1174.2</ele>
        <time>2021-06-03T09:38:20Z</time>
      </trkpt>
      <trkpt lat="41.86775" lon="9.10685">
        <ele>1173.4</ele>
        <time>2021-06-03T09:38:21Z</time>
      </trkpt>
      <trkpt lat="41.86768" lon="9.10684">
        <ele>1173.4</ele>
        <time>2021-06-03T09:38:22Z</time>
      </trkpt>
      <trkpt lat="41.8676" lon="9.10683">
        <ele>1173.4</ele>
        <time>2021-06-03T09:38:23Z</time>
      </trkpt>
      <trkpt lat="41.86752" lon="9.10683">
        <ele>1173.4</ele>
        <time>2021-06-03T09:38:24Z</time>
      </trkpt>
      <trkpt lat="41.86744" lon="9.10683">
        <ele>1173</ele>
        <time>2021-06-03T09:38:25Z</time>
      </trkpt>
      <trkpt lat="41.86736" lon="9.10685">
        <ele>1173</ele>
        <time>2021-06-03T09:38:26Z</time>
      </trkpt>
      <trkpt lat="41.86728" lon="9.10686">
        <ele>1173</ele>
        <time>2021-06-03T09:38:27Z</time>
      </trkpt>
      <trkpt lat="41.8672" lon="9.1069">
        <ele>1172</ele>
        <time>2021-06-03T09:38:28Z</time>
      </trkpt>
      <trkpt lat="41.86712" lon="9.10694">
        <ele>1168</ele>
        <time>2021-06-03T09:38:29Z</time>
      </trkpt>
      <trkpt lat="41.86703" lon="9.10697">
        <ele>1168</ele>
        <time>2021-06-03T09:38:30Z</time>
      </trkpt>
      <trkpt lat="41.86695" lon="9.107">
        <ele>1168</ele>
        <time>2021-06-03T09:38:31Z</time>
      </trkpt>
      <trkpt lat="41.86686" lon="9.10701">
        <ele>1168</ele>
        <time>2021-06-03T09:38:32Z</time>
      </trkpt>
      <trkpt lat="41.86677" lon="9.107">
        <ele>1167.6</ele>
        <time>2021-06-03T09:38:33Z</time>
      </trkpt>
      <trkpt lat="41.86668" lon="9.10696">
        <ele>1167.6</ele>
        <time>2021-06-03T09:38:34Z</time>
      </trkpt>
      <trkpt lat="41.8666" lon="9.10694">
        <ele>1167.6</ele>
        <time>2021-06-03T09:38:35Z</time>
      </trkpt>
      <trkpt lat="41.8665" lon="9.10694">
        <ele>1166.6</ele>
        <time>2021-06-03T09:38:36Z</time>
      </trkpt>
      <trkpt lat="41.86641" lon="9.10695">
        <ele>1163.4</ele>
        <time>2021-06-03T09:38:37Z</time>
      </trkpt>
      <trkpt lat="41.86631" lon="9.10699">
        <ele>1163.4</ele>
        <time>2021-06-03T09:38:38Z</time>
      </trkpt>
      <trkpt lat="41.86622" lon="9.10704">
        <ele>1163.4</ele>
        <time>2021-06-03T09:38:39Z</time>
      </trkpt>
      <trkpt lat="41.86613" lon="9.1071">
        <ele>1163.4</ele>
        <time>2021-06-03T09:38:40Z</time>
      </trkpt>
      <trkpt lat="41.86606" lon="9.10715">
        <ele>1163.6</ele>
        <time>2021-06-03T09:38:41Z</time>
      </trkpt>
      <trkpt lat="41.86599" lon="9.10719">
        <ele>1163.6</ele>
        <time>2021-06-03T09:38:42Z</time>
      </trkpt>
      <trkpt lat="41.86593" lon="9.10719">
        <ele>1163.6</ele>
        <time>2021-06-03T09:38:43Z</time>
      </trkpt>
      <trkpt lat="41.86587" lon="9.10719">
        <ele>1163.6</ele>
        <time>2021-06-03T09:38:44Z</time>
      </trkpt>
      <trkpt lat="41.86581" lon="9.10719">
        <ele>1163</ele>
        <time>2021-06-03T09:38:45Z</time>
      </trkpt>
      <trkpt lat="41.86575" lon="9.10716">
        <ele>1163</ele>
        <time>2021-06-03T09:38:46Z</time>
      </trkpt>
      <trkpt lat="41.86568" lon="9.10709">
        <ele>1163</ele>
        <time>2021-06-03T09:38:47Z</time>
      </trkpt>
      <trkpt lat="41.86562" lon="9.10701">
        <ele>1162</ele>
        <time>2021-06-03T09:38:48Z</time>
      </trkpt>
      <trkpt lat="41.86555" lon="9.10694">
        <ele>1157.8</ele>
        <time>2021-06-03T09:38:49Z</time>
      </trkpt>
      <trkpt lat="41.86547" lon="9.10688">
        <ele>1157.8</ele>
        <time>2021-06-03T09:38:50Z</time>
      </trkpt>
      <trkpt lat="41.86538" lon="9.10684">
        <ele>1157.8</ele>
        <time>2021-06-03T09:38:51Z</time>
      </trkpt>
      <trkpt lat="41.86529" lon="9.10683">
        <ele>1156.8</ele>
        <time>2021-06-03T09:38:52Z</time>
      </trkpt>
      <trkpt lat="41.8652" lon="9.10684">
        <ele>1150.6</ele>
        <time>2021-06-03T09:38:53Z</time>
      </trkpt>
      <trkpt lat="41.8651" lon="9.10688">
        <ele>1150.6</ele>
        <time>2021-06-03T09:38:54Z</time>
      </trkpt>
      <trkpt lat="41.86499" lon="9.10693">
        <ele>1150.6</ele>
        <time>2021-06-03T09:38:55Z</time>
      </trkpt>
      <trkpt lat="41.86489" lon="9.10695">
        <ele>1149.6</ele>
        <time>2021-06-03T09:38:56Z</time>
      </trkpt>
      <trkpt lat="41.86476" lon="9.10696">
        <ele>1143.4</ele>
        <time>2021-06-03T09:38:57Z</time>
      </trkpt>
      <trkpt lat="41.86464" lon="9.10697">
        <ele>1143.4</ele>
        <time>2021-06-03T09:38:58Z</time>
      </trkpt>
      <trkpt lat="41.86453" lon="9.10697">
        <ele>1143.4</ele>
        <time>2021-06-03T09:38:59Z</time>
      </trkpt>
      <trkpt lat="41.86442" lon="9.10694">
        <ele>1143.4</ele>
        <time>2021-06-03T09:39:00Z</time>
      </trkpt>
      <trkpt lat="41.86433" lon="9.10687">
        <ele>1144.2</ele>
        <time>2021-06-03T09:39:01Z</time>
      </trkpt>
      <trkpt lat="41.86422" lon="9.10684">
        <ele>1144.2</ele>
        <time>2021-06-03T09:39:02Z</time>
      </trkpt>
      <trkpt lat="41.86411" lon="9.10683">
        <ele>1144.2</ele>
        <time>2021-06-03T09:39:03Z</time>
      </trkpt>
      <trkpt lat="41.86401" lon="9.10682">
        <ele>1144.2</ele>
        <time>2021-06-03T09:39:04Z</time>
      </trkpt>
      <trkpt lat="41.8639" lon="9.10681">
        <ele>1144.4</ele>
        <time>2021-06-03T09:39:05Z</time>
      </trkpt>
      <trkpt lat="41.86381" lon="9.1068">
        <ele>1144.4</ele>
        <time>2021-06-03T09:39:06Z</time>
      </trkpt>
      <trkpt lat="41.86371" lon="9.1068">
        <ele>1144.4</ele>
        <time>2021-06-03T09:39:07Z</time>
      </trkpt>
      <trkpt lat="41.86361" lon="9.1068">
        <ele>1144.4</ele>
        <time>2021-06-03T09:39:08Z</time>
      </trkpt>
      <trkpt lat="41.86351" lon="9.10677">
        <ele>1143.4</ele>
        <time>2021-06-03T09:39:09Z</time>
      </trkpt>
      <trkpt lat="41.86342" lon="9.10675">
        <ele>1143.4</ele>
        <time>2021-06-03T09:39:10Z</time>
      </trkpt>
      <trkpt lat="41.86334" lon="9.10673">
        <ele>1143.4</ele>
        <time>2021-06-03T09:39:11Z</time>
      </trkpt>
      <trkpt lat="41.86327" lon="9.10668">
        <ele>1144</ele>
        <time>2021-06-03T09:39:12Z</time>
      </trkpt>
      <trkpt lat="41.86321" lon="9.10661">
        <ele>1144</ele>
        <time>2021-06-03T09:39:13Z</time>
      </trkpt>
      <trkpt lat="41.86317" lon="9.10653">
        <ele>1144</ele>
        <time>2021-06-03T09:39:14Z</time>
      </trkpt>
      <trkpt lat="41.86313" lon="9.10644">
        <ele>1144</ele>
        <time>2021-06-03T09:39:15Z</time>
      </trkpt>
      <trkpt lat="41.86309" lon="9.10636">
        <ele>1144.4</ele>
        <time>2021-06-03T09:39:16Z</time>
      </trkpt>
      <trkpt lat="41.86306" lon="9.10628">
        <ele>1144.2</ele>
        <time>2021-06-03T09:39:17Z</time>
      </trkpt>
      <trkpt lat="41.86304" lon="9.10619">
        <ele>1144.2</ele>
        <time>2021-06-03T09:39:18Z</time>
      </trkpt>
      <trkpt lat="41.86302" lon="9.1061">
        <ele>1144.2</ele>
        <time>2021-06-03T09:39:19Z</time>
      </trkpt>
      <trkpt lat="41.86302" lon="9.10601">
        <ele>1144.2</ele>
        <time>2021-06-03T09:39:20Z</time>
      </trkpt>
      <trkpt lat="41.86302" lon="9.10592">
        <ele>1143.2</ele>
        <time>2021-06-03T09:39:21Z</time>
      </trkpt>
      <trkpt lat="41.86302" lon="9.10583">
        <ele>1143.2</ele>
        <time>2021-06-03T09:39:22Z</time>
      </trkpt>
      <trkpt lat="41.863" lon="9.10574">
        <ele>1143.2</ele>
        <time>2021-06-03T09:39:23Z</time>
      </trkpt>
      <trkpt lat="41.86297" lon="9.10565">
        <ele>1143.2</ele>
        <time>2021-06-03T09:39:24Z</time>
      </trkpt>
      <trkpt lat="41.86293" lon="9.10557">
        <ele>1141.4</ele>
        <time>2021-06-03T09:39:25Z</time>
      </trkpt>
      <trkpt lat="41.86287" lon="9.10549">
        <ele>1141.4</ele>
        <time>2021-06-03T09:39:26Z</time>
      </trkpt>
      <trkpt lat="41.86281" lon="9.10543">
        <ele>1141.4</ele>
        <time>2021-06-03T09:39:27Z</time>
      </trkpt>
      <trkpt lat="41.86276" lon="9.10535">
        <ele>1141.4</ele>
        <time>2021-06-03T09:39:28Z</time>
      </trkpt>
      <trkpt lat="41.86272" lon="9.10529">
        <ele>1143.4</ele>
        <time>2021-06-03T09:39:29Z</time>
      </trkpt>
      <trkpt lat="41.86266" lon="9.10524">
        <ele>1143.4</ele>
        <time>2021-06-03T09:39:30Z</time>
      </trkpt>
      <trkpt lat="41.86261" lon="9.10519">
        <ele>1143.4</ele>
        <time>2021-06-03T09:39:31Z</time>
      </trkpt>
      <trkpt lat="41.86255" lon="9.10515">
        <ele>1144</ele>
        <time>2021-06-03T09:39:32Z</time>
      </trkpt>
      <trkpt lat="41.86249" lon="9.10512">
        <ele>1144.2</ele>
        <time>2021-06-03T09:39:33Z</time>
      </trkpt>
      <trkpt lat="41.86244" lon="9.10509">
        <ele>1144.2</ele>
        <time>2021-06-03T09:39:34Z</time>
      </trkpt>
      <trkpt lat="41.86239" lon="9.10506">
        <ele>1144.2</ele>
        <time>2021-06-03T09:39:35Z</time>
      </trkpt>
      <trkpt lat="41.86234" lon="9.10504">
        <ele>1144.2</ele>
        <time>2021-06-03T09:39:36Z</time>
      </trkpt>
      <trkpt lat="41.86229" lon="9.10501">
        <ele>1144.2</ele>
        <time>2021-06-03T09:39:37Z</time>
      </trkpt>
      <trkpt lat="41.86224" lon="9.10498">
        <ele>1144.2</ele>
        <time>2021-06-03T09:39:38Z</time>
      </trkpt>
      <trkpt lat="41.86219" lon="9.10493">
        <ele>1144.2</ele>
        <time>2021-06-03T09:39:39Z</time>
      </trkpt>
      <trkpt lat="41.86214" lon="9.10488">
        <ele>1143.2</ele>
        <time>2021-06-03T09:39:40Z</time>
      </trkpt>
      <trkpt lat="41.86209" lon="9.10481">
        <ele>1142</ele>
        <time>2021-06-03T09:39:41Z</time>
      </trkpt>
      <trkpt lat="41.86205" lon="9.10474">
        <ele>1142</ele>
        <time>2021-06-03T09:39:42Z</time>
      </trkpt>
      <trkpt lat="41.86201" lon="9.10466">
        <ele>1142</ele>
        <time>2021-06-03T09:39:43Z</time>
      </trkpt>
      <trkpt lat="41.86197" lon="9.10457">
        <ele>1141</ele>
        <time>2021-06-03T09:39:44Z</time>
      </trkpt>
      <trkpt lat="41.86191" lon="9.10449">
        <ele>1137</ele>
        <time>2021-06-03T09:39:45Z</time>
      </trkpt>
      <trkpt lat="41.86185" lon="9.1044">
        <ele>1137</ele>
        <time>2021-06-03T09:39:46Z</time>
      </trkpt>
      <trkpt lat="41.86179" lon="9.10431">
        <ele>1137</ele>
        <time>2021-06-03T09:39:47Z</time>
      </trkpt>
      <trkpt lat="41.8617" lon="9.10427">
        <ele>1136</ele>
        <time>2021-06-03T09:39:48Z</time>
      </trkpt>
      <trkpt lat="41.86162" lon="9.10424">
        <ele>1134</ele>
        <time>2021-06-03T09:39:49Z</time>
      </trkpt>
      <trkpt lat="41.86153" lon="9.10422">
        <ele>1134</ele>
        <time>2021-06-03T09:39:50Z</time>
      </trkpt>
      <trkpt lat="41.86143" lon="9.1042">
        <ele>1134</ele>
        <time>2021-06-03T09:39:51Z</time>
      </trkpt>
      <trkpt lat="41.86133" lon="9.10417">
        <ele>1133</ele>
        <time>2021-06-03T09:39:52Z</time>
      </trkpt>
      <trkpt lat="41.86124" lon="9.10414">
        <ele>1130.2</ele>
        <time>2021-06-03T09:39:53Z</time>
      </trkpt>
      <trkpt lat="41.86114" lon="9.10412">
        <ele>1130.2</ele>
        <time>2021-06-03T09:39:54Z</time>
      </trkpt>
      <trkpt lat="41.86104" lon="9.10409">
        <ele>1130.2</ele>
        <time>2021-06-03T09:39:55Z</time>
      </trkpt>
      <trkpt lat="41.86093" lon="9.10404">
        <ele>1129.2</ele>
        <time>2021-06-03T09:39:56Z</time>
      </trkpt>
      <trkpt lat="41.86084" lon="9.10398">
        <ele>1129</ele>
        <time>2021-06-03T09:39:57Z</time>
      </trkpt>
      <trkpt lat="41.86076" lon="9.10394">
        <ele>1129</ele>
        <time>2021-06-03T09:39:58Z</time>
      </trkpt>
      <trkpt lat="41.86068" lon="9.10392">
        <ele>1129</ele>
        <time>2021-06-03T09:39:59Z</time>
      </trkpt>
      <trkpt lat="41.8606" lon="9.10391">
        <ele>1129</ele>
        <time>2021-06-03T09:40:00Z</time>
      </trkpt>
      <trkpt lat="41.86054" lon="9.10388">
        <ele>1129</ele>
        <time>2021-06-03T09:40:01Z</time>
      </trkpt>
      <trkpt lat="41.8605" lon="9.10382">
        <ele>1129</ele>
        <time>2021-06-03T09:40:02Z</time>
      </trkpt>
      <trkpt lat="41.86045" lon="9.10374">
        <ele>1129</ele>
        <time>2021-06-03T09:40:03Z</time>
      </trkpt>
      <trkpt lat="41.86039" lon="9.10367">
        <ele>1128</ele>
        <time>2021-06-03T09:40:04Z</time>
      </trkpt>
      <trkpt lat="41.86031" lon="9.1036">
        <ele>1123</ele>
        <time>2021-06-03T09:40:05Z</time>
      </trkpt>
      <trkpt lat="41.86022" lon="9.10355">
        <ele>1123</ele>
        <time>2021-06-03T09:40:06Z</time>
      </trkpt>
      <trkpt lat="41.86012" lon="9.10352">
        <ele>1123</ele>
        <time>2021-06-03T09:40:07Z</time>
      </trkpt>
      <trkpt lat="41.86004" lon="9.1035">
        <ele>1122</ele>
        <time>2021-06-03T09:40:08Z</time>
      </trkpt>
      <trkpt lat="41.85998" lon="9.10347">
        <ele>1121.4</ele>
        <time>2021-06-03T09:40:09Z</time>
      </trkpt>
      <trkpt lat="41.85992" lon="9.10341">
        <ele>1121.4</ele>
        <time>2021-06-03T09:40:10Z</time>
      </trkpt>
      <trkpt lat="41.85989" lon="9.10333">
        <ele>1121.4</ele>
        <time>2021-06-03T09:40:11Z</time>
      </trkpt>
      <trkpt lat="41.85989" lon="9.10325">
        <ele>1120.4</ele>
        <time>2021-06-03T09:40:12Z</time>
      </trkpt>
      <trkpt lat="41.85989" lon="9.10317">
        <ele>1118.6</ele>
        <time>2021-06-03T09:40:13Z</time>
      </trkpt>
      <trkpt lat="41.85989" lon="9.10308">
        <ele>1118.6</ele>
        <time>2021-06-03T09:40:14Z</time>
      </trkpt>
      <trkpt lat="41.85989" lon="9.10298">
        <ele>1118.6</ele>
        <time>2021-06-03T09:40:15Z</time>
      </trkpt>
      <trkpt lat="41.85988" lon="9.10286">
        <ele>1117.6</ele>
        <time>2021-06-03T09:40:16Z</time>
      </trkpt>
      <trkpt lat="41.85987" lon="9.10275">
        <ele>1113.2</ele>
        <time>2021-06-03T09:40:17Z</time>
      </trkpt>
      <trkpt lat="41.85986" lon="9.10262">
        <ele>1113.2</ele>
        <time>2021-06-03T09:40:18Z</time>
      </trkpt>
      <trkpt lat="41.85983" lon="9.10249">
        <ele>1113.2</ele>
        <time>2021-06-03T09:40:19Z</time>
      </trkpt>
      <trkpt lat="41.85981" lon="9.10236">
        <ele>1112.2</ele>
        <time>2021-06-03T09:40:20Z</time>
      </trkpt>
      <trkpt lat="41.8598" lon="9.10224">
        <ele>1108.6</ele>
        <time>2021-06-03T09:40:21Z</time>
      </trkpt>
      <trkpt lat="41.85979" lon="9.10213">
        <ele>1108.6</ele>
        <time>2021-06-03T09:40:22Z</time>
      </trkpt>
      <trkpt lat="41.85978" lon="9.10203">
        <ele>1108.6</ele>
        <time>2021-06-03T09:40:23Z</time>
      </trkpt>
      <trkpt lat="41.85981" lon="9.10192">
        <ele>1107.6</ele>
        <time>2021-06-03T09:40:24Z</time>
      </trkpt>
      <trkpt lat="41.85982" lon="9.10181">
        <ele>1106</ele>
        <time>2021-06-03T09:40:25Z</time>
      </trkpt>
      <trkpt lat="41.85982" lon="9.10172">
        <ele>1106</ele>
        <time>2021-06-03T09:40:26Z</time>
      </trkpt>
      <trkpt lat="41.8598" lon="9.10162">
        <ele>1106</ele>
        <time>2021-06-03T09:40:27Z</time>
      </trkpt>
      <trkpt lat="41.85975" lon="9.10152">
        <ele>1105</ele>
        <time>2021-06-03T09:40:28Z</time>
      </trkpt>
      <trkpt lat="41.85968" lon="9.10146">
        <ele>1101</ele>
        <time>2021-06-03T09:40:29Z</time>
      </trkpt>
      <trkpt lat="41.85959" lon="9.10143">
        <ele>1101</ele>
        <time>2021-06-03T09:40:30Z</time>
      </trkpt>
      <trkpt lat="41.8595" lon="9.10143">
        <ele>1101</ele>
        <time>2021-06-03T09:40:31Z</time>
      </trkpt>
      <trkpt lat="41.85941" lon="9.10145">
        <ele>1100</ele>
        <time>2021-06-03T09:40:32Z</time>
      </trkpt>
      <trkpt lat="41.85933" lon="9.10142">
        <ele>1097.2</ele>
        <time>2021-06-03T09:40:33Z</time>
      </trkpt>
      <trkpt lat="41.85925" lon="9.10138">
        <ele>1097.2</ele>
        <time>2021-06-03T09:40:34Z</time>
      </trkpt>
      <trkpt lat="41.85919" lon="9.10131">
        <ele>1097.2</ele>
        <time>2021-06-03T09:40:35Z</time>
      </trkpt>
      <trkpt lat="41.85913" lon="9.10127">
        <ele>1097</ele>
        <time>2021-06-03T09:40:36Z</time>
      </trkpt>
      <trkpt lat="41.85908" lon="9.10125">
        <ele>1096.8</ele>
        <time>2021-06-03T09:40:37Z</time>
      </trkpt>
      <trkpt lat="41.85903" lon="9.10128">
        <ele>1096.8</ele>
        <time>2021-06-03T09:40:38Z</time>
      </trkpt>
      <trkpt lat="41.85899" lon="9.10133">
        <ele>1096.8</ele>
        <time>2021-06-03T09:40:39Z</time>
      </trkpt>
      <trkpt lat="41.85895" lon="9.10138">
        <ele>1095.8</ele>
        <time>2021-06-03T09:40:40Z</time>
      </trkpt>
      <trkpt lat="41.8589" lon="9.10141">
        <ele>1091</ele>
        <time>2021-06-03T09:40:41Z</time>
      </trkpt>
      <trkpt lat="41.85882" lon="9.10141">
        <ele>1091</ele>
        <time>2021-06-03T09:40:42Z</time>
      </trkpt>
      <trkpt lat="41.85873" lon="9.1014">
        <ele>1091</ele>
        <time>2021-06-03T09:40:43Z</time>
      </trkpt>
      <trkpt lat="41.85865" lon="9.10141">
        <ele>1090</ele>
        <time>2021-06-03T09:40:44Z</time>
      </trkpt>
      <trkpt lat="41.85856" lon="9.10143">
        <ele>1086</ele>
        <time>2021-06-03T09:40:45Z</time>
      </trkpt>
      <trkpt lat="41.85847" lon="9.10149">
        <ele>1086</ele>
        <time>2021-06-03T09:40:46Z</time>
      </trkpt>
      <trkpt lat="41.85839" lon="9.10153">
        <ele>1086</ele>
        <time>2021-06-03T09:40:47Z</time>
      </trkpt>
      <trkpt lat="41.8583" lon="9.10153">
        <ele>1086</ele>
        <time>2021-06-03T09:40:48Z</time>
      </trkpt>
      <trkpt lat="41.85821" lon="9.10151">
        <ele>1082.6</ele>
        <time>2021-06-03T09:40:49Z</time>
      </trkpt>
      <trkpt lat="41.85812" lon="9.10149">
        <ele>1082.6</ele>
        <time>2021-06-03T09:40:50Z</time>
      </trkpt>
      <trkpt lat="41.85802" lon="9.10147">
        <ele>1082.6</ele>
        <time>2021-06-03T09:40:51Z</time>
      </trkpt>
      <trkpt lat="41.85791" lon="9.10147">
        <ele>1081.6</ele>
        <time>2021-06-03T09:40:52Z</time>
      </trkpt>
      <trkpt lat="41.8578" lon="9.10149">
        <ele>1075.4</ele>
        <time>2021-06-03T09:40:53Z</time>
      </trkpt>
      <trkpt lat="41.85769" lon="9.10152">
        <ele>1075.4</ele>
        <time>2021-06-03T09:40:54Z</time>
      </trkpt>
      <trkpt lat="41.8576" lon="9.10154">
        <ele>1075.4</ele>
        <time>2021-06-03T09:40:55Z</time>
      </trkpt>
      <trkpt lat="41.85752" lon="9.1015">
        <ele>1076</ele>
        <time>2021-06-03T09:40:56Z</time>
      </trkpt>
      <trkpt lat="41.85744" lon="9.10144">
        <ele>1074.8</ele>
        <time>2021-06-03T09:40:57Z</time>
      </trkpt>
      <trkpt lat="41.85735" lon="9.10138">
        <ele>1074.8</ele>
        <time>2021-06-03T09:40:58Z</time>
      </trkpt>
      <trkpt lat="41.85726" lon="9.10133">
        <ele>1074.8</ele>
        <time>2021-06-03T09:40:59Z</time>
      </trkpt>
      <trkpt lat="41.85715" lon="9.10132">
        <ele>1073.8</ele>
        <time>2021-06-03T09:41:00Z</time>
      </trkpt>
      <trkpt lat="41.85704" lon="9.10133">
        <ele>1072.4</ele>
        <time>2021-06-03T09:41:01Z</time>
      </trkpt>
      <trkpt lat="41.85693" lon="9.10136">
        <ele>1072.4</ele>
        <time>2021-06-03T09:41:02Z</time>
      </trkpt>
      <trkpt lat="41.85682" lon="9.10141">
        <ele>1072.4</ele>
        <time>2021-06-03T09:41:03Z</time>
      </trkpt>
      <trkpt lat="41.85673" lon="9.10146">
        <ele>1071.4</ele>
        <time>2021-06-03T09:41:04Z</time>
      </trkpt>
      <trkpt lat="41.85663" lon="9.10149">
        <ele>1071.6</ele>
        <time>2021-06-03T09:41:05Z</time>
      </trkpt>
      <trkpt lat="41.85656" lon="9.10152">
        <ele>1071.6</ele>
        <time>2021-06-03T09:41:06Z</time>
      </trkpt>
      <trkpt lat="41.85649" lon="9.10151">
        <ele>1071.6</ele>
        <time>2021-06-03T09:41:07Z</time>
      </trkpt>
      <trkpt lat="41.85644" lon="9.10146">
        <ele>1072.4</ele>
        <time>2021-06-03T09:41:08Z</time>
      </trkpt>
      <trkpt lat="41.85639" lon="9.1014">
        <ele>1071.8</ele>
        <time>2021-06-03T09:41:09Z</time>
      </trkpt>
      <trkpt lat="41.85639" lon="9.10133">
        <ele>1071.8</ele>
        <time>2021-06-03T09:41:10Z</time>
      </trkpt>
      <trkpt lat="41.85638" lon="9.10125">
        <ele>1071.8</ele>
        <time>2021-06-03T09:41:11Z</time>
      </trkpt>
      <trkpt lat="41.85635" lon="9.10116">
        <ele>1070.8</ele>
        <time>2021-06-03T09:41:12Z</time>
      </trkpt>
      <trkpt lat="41.85631" lon="9.10107">
        <ele>1067.8</ele>
        <time>2021-06-03T09:41:13Z</time>
      </trkpt>
      <trkpt lat="41.85624" lon="9.10099">
        <ele>1067.8</ele>
        <time>2021-06-03T09:41:14Z</time>
      </trkpt>
      <trkpt lat="41.85617" lon="9.10094">
        <ele>1067.8</ele>
        <time>2021-06-03T09:41:15Z</time>
      </trkpt>
      <trkpt lat="41.85609" lon="9.10088">
        <ele>1066.8</ele>
        <time>2021-06-03T09:41:16Z</time>
      </trkpt>
      <trkpt lat="41.856" lon="9.10081">
        <ele>1063.8</ele>
        <time>2021-06-03T09:41:17Z</time>
      </trkpt>
      <trkpt lat="41.85594" lon="9.10073">
        <ele>1063.8</ele>
        <time>2021-06-03T09:41:18Z</time>
      </trkpt>
      <trkpt lat="41.85586" lon="9.10069">
        <ele>1063.8</ele>
        <time>2021-06-03T09:41:19Z</time>
      </trkpt>
      <trkpt lat="41.85577" lon="9.10067">
        <ele>1063.8</ele>
        <time>2021-06-03T09:41:20Z</time>
      </trkpt>
      <trkpt lat="41.85568" lon="9.10068">
        <ele>1058.8</ele>
        <time>2021-06-03T09:41:21Z</time>
      </trkpt>
      <trkpt lat="41.85558" lon="9.10071">
        <ele>1058.8</ele>
        <time>2021-06-03T09:41:22Z</time>
      </trkpt>
      <trkpt lat="41.85548" lon="9.10075">
        <ele>1058.8</ele>
        <time>2021-06-03T09:41:23Z</time>
      </trkpt>
      <trkpt lat="41.85539" lon="9.10081">
        <ele>1059.6</ele>
        <time>2021-06-03T09:41:24Z</time>
      </trkpt>
      <trkpt lat="41.85532" lon="9.10087">
        <ele>1061.2</ele>
        <time>2021-06-03T09:41:25Z</time>
      </trkpt>
      <trkpt lat="41.85526" lon="9.10093">
        <ele>1061.2</ele>
        <time>2021-06-03T09:41:26Z</time>
      </trkpt>
      <trkpt lat="41.85522" lon="9.10093">
        <ele>1061.2</ele>
        <time>2021-06-03T09:41:27Z</time>
      </trkpt>
      <trkpt lat="41.85516" lon="9.10092">
        <ele>1062.2</ele>
        <time>2021-06-03T09:41:28Z</time>
      </trkpt>
      <trkpt lat="41.85512" lon="9.10086">
        <ele>1062.6</ele>
        <time>2021-06-03T09:41:29Z</time>
      </trkpt>
      <trkpt lat="41.85511" lon="9.1008">
        <ele>1062.6</ele>
        <time>2021-06-03T09:41:30Z</time>
      </trkpt>
      <trkpt lat="41.85512" lon="9.10074">
        <ele>1062.6</ele>
        <time>2021-06-03T09:41:31Z</time>
      </trkpt>
      <trkpt lat="41.85513" lon="9.10068">
        <ele>1062.6</ele>
        <time>2021-06-03T09:41:32Z</time>
      </trkpt>
      <trkpt lat="41.85514" lon="9.10062">
        <ele>1062</ele>
        <time>2021-06-03T09:41:33Z</time>
      </trkpt>
      <trkpt lat="41.85515" lon="9.10055">
        <ele>1062</ele>
        <time>2021-06-03T09:41:34Z</time>
      </trkpt>
      <trkpt lat="41.85515" lon="9.10048">
        <ele>1062</ele>
        <time>2021-06-03T09:41:35Z</time>
      </trkpt>
      <trkpt lat="41.85515" lon="9.1004">
        <ele>1061</ele>
        <time>2021-06-03T09:41:36Z</time>
      </trkpt>
      <trkpt lat="41.85515" lon="9.1003">
        <ele>1058.4</ele>
        <time>2021-06-03T09:41:37Z</time>
      </trkpt>
      <trkpt lat="41.85513" lon="9.10021">
        <ele>1058.4</ele>
        <time>2021-06-03T09:41:38Z</time>
      </trkpt>
      <trkpt lat="41.85511" lon="9.10011">
        <ele>1058.4</ele>
        <time>2021-06-03T09:41:39Z</time>
      </trkpt>
      <trkpt lat="41.85509" lon="9.1">
        <ele>1057.4</ele>
        <time>2021-06-03T09:41:40Z</time>
      </trkpt>
      <trkpt lat="41.85509" lon="9.09989">
        <ele>1054</ele>
        <time>2021-06-03T09:41:41Z</time>
      </trkpt>
      <trkpt lat="41.8551" lon="9.09977">
        <ele>1054</ele>
        <time>2021-06-03T09:41:42Z</time>
      </trkpt>
      <trkpt lat="41.85512" lon="9.09967">
        <ele>1054</ele>
        <time>2021-06-03T09:41:43Z</time>
      </trkpt>
      <trkpt lat="41.85514" lon="9.09959">
        <ele>1054</ele>
        <time>2021-06-03T09:41:44Z</time>
      </trkpt>
      <trkpt lat="41.85515" lon="9.09951">
        <ele>1054.4</ele>
        <time>2021-06-03T09:41:45Z</time>
      </trkpt>
      <trkpt lat="41.85517" lon="9.09943">
        <ele>1054.4</ele>
        <time>2021-06-03T09:41:46Z</time>
      </trkpt>
      <trkpt lat="41.85518" lon="9.09933">
        <ele>1054.4</ele>
        <time>2021-06-03T09:41:47Z</time>
      </trkpt>
      <trkpt lat="41.85521" lon="9.09924">
        <ele>1053.4</ele>
        <time>2021-06-03T09:41:48Z</time>
      </trkpt>
      <trkpt lat="41.85522" lon="9.09917">
        <ele>1051.8</ele>
        <time>2021-06-03T09:41:49Z</time>
      </trkpt>
      <trkpt lat="41.85523" lon="9.09911">
        <ele>1051.8</ele>
        <time>2021-06-03T09:41:50Z</time>
      </trkpt>
      <trkpt lat="41.85524" lon="9.09906">
        <ele>1051.8</ele>
        <time>2021-06-03T09:41:51Z</time>
      </trkpt>
      <trkpt lat="41.85526" lon="9.09899">
        <ele>1051.8</ele>
        <time>2021-06-03T09:41:52Z</time>
      </trkpt>
      <trkpt lat="41.85526" lon="9.09894">
        <ele>1051.8</ele>
        <time>2021-06-03T09:41:53Z</time>
      </trkpt>
      <trkpt lat="41.85527" lon="9.0989">
        <ele>1051</ele>
        <time>2021-06-03T09:41:54Z</time>
      </trkpt>
      <trkpt lat="41.85529" lon="9.09884">
        <ele>1051</ele>
        <time>2021-06-03T09:41:55Z</time>
      </trkpt>
      <trkpt lat="41.8553" lon="9.0988">
        <ele>1051</ele>
        <time>2021-06-03T09:41:56Z</time>
      </trkpt>
      <trkpt lat="41.85531" lon="9.09876">
        <ele>1050.8</ele>
        <time>2021-06-03T09:41:57Z</time>
      </trkpt>
      <trkpt lat="41.85532" lon="9.09872">
        <ele>1050.8</ele>
        <time>2021-06-03T09:41:58Z</time>
      </trkpt>
      <trkpt lat="41.85532" lon="9.09868">
        <ele>1050.8</ele>
        <time>2021-06-03T09:41:59Z</time>
      </trkpt>
      <trkpt lat="41.85531" lon="9.09863">
        <ele>1050.2</ele>
        <time>2021-06-03T09:42:00Z</time>
      </trkpt>
      <trkpt lat="41.85529" lon="9.09858">
        <ele>1049.6</ele>
        <time>2021-06-03T09:42:01Z</time>
      </trkpt>
      <trkpt lat="41.85527" lon="9.09854">
        <ele>1049.6</ele>
        <time>2021-06-03T09:42:02Z</time>
      </trkpt>
      <trkpt lat="41.85525" lon="9.0985">
        <ele>1049.6</ele>
        <time>2021-06-03T09:42:03Z</time>
      </trkpt>
      <trkpt lat="41.85524" lon="9.09848">
        <ele>1049.6</ele>
        <time>2021-06-03T09:42:04Z</time>
      </trkpt>
      <trkpt lat="41.85522" lon="9.09845">
        <ele>1050.2</ele>
        <time>2021-06-03T09:42:05Z</time>
      </trkpt>
      <trkpt lat="41.85521" lon="9.09842">
        <ele>1050.2</ele>
        <time>2021-06-03T09:42:06Z</time>
      </trkpt>
      <trkpt lat="41.8552" lon="9.0984">
        <ele>1050.2</ele>
        <time>2021-06-03T09:42:07Z</time>
      </trkpt>
      <trkpt lat="41.85519" lon="9.09838">
        <ele>1050.2</ele>
        <time>2021-06-03T09:42:08Z</time>
      </trkpt>
      <trkpt lat="41.85518" lon="9.09836">
        <ele>1050.8</ele>
        <time>2021-06-03T09:42:09Z</time>
      </trkpt>
      <trkpt lat="41.85517" lon="9.09833">
        <ele>1050.8</ele>
        <time>2021-06-03T09:42:10Z</time>
      </trkpt>
      <trkpt lat="41.85516" lon="9.09831">
        <ele>1050.8</ele>
        <time>2021-06-03T09:42:11Z</time>
      </trkpt>
      <trkpt lat="41.85514" lon="9.09829">
        <ele>1050.8</ele>
        <time>2021-06-03T09:42:12Z</time>
      </trkpt>
      <trkpt lat="41.85513" lon="9.09827">
        <ele>1051</ele>
        <time>2021-06-03T09:42:13Z</time>
      </trkpt>
      <trkpt lat="41.85512" lon="9.09825">
        <ele>1051</ele>
        <time>2021-06-03T09:42:14Z</time>
      </trkpt>
      <trkpt lat="41.8551" lon="9.09823">
        <ele>1051</ele>
        <time>2021-06-03T09:42:15Z</time>
      </trkpt>
      <trkpt lat="41.85509" lon="9.09821">
        <ele>1051</ele>
        <time>2021-06-03T09:42:16Z</time>
      </trkpt>
      <trkpt lat="41.85507" lon="9.09819">
        <ele>1051.4</ele>
        <time>2021-06-03T09:42:17Z</time>
      </trkpt>
      <trkpt lat="41.85506" lon="9.09817">
        <ele>1051.4</ele>
        <time>2021-06-03T09:42:18Z</time>
      </trkpt>
      <trkpt lat="41.85504" lon="9.09816">
        <ele>1051.4</ele>
        <time>2021-06-03T09:42:19Z</time>
      </trkpt>
      <trkpt lat="41.85503" lon="9.09814">
        <ele>1051.4</ele>
        <time>2021-06-03T09:42:20Z</time>
      </trkpt>
      <trkpt lat="41.85501" lon="9.09812">
        <ele>1051.6</ele>
        <time>2021-06-03T09:42:21Z</time>
      </trkpt>
      <trkpt lat="41.85499" lon="9.09811">
        <ele>1051.6</ele>
        <time>2021-06-03T09:42:22Z</time>
      </trkpt>
      <trkpt lat="41.85498" lon="9.09809">
        <ele>1051.6</ele>
        <time>2021-06-03T09:42:23Z</time>
      </trkpt>
      <trkpt lat="41.85496" lon="9.09807">
        <ele>1051.6</ele>
        <time>2021-06-03T09:42:24Z</time>
      </trkpt>
      <trkpt lat="41.85494" lon="9.09806">
        <ele>1051.8</ele>
        <time>2021-06-03T09:42:25Z</time>
      </trkpt>
      <trkpt lat="41.85492" lon="9.09804">
        <ele>1051.8</ele>
        <time>2021-06-03T09:42:26Z</time>
      </trkpt>
      <trkpt lat="41.8549" lon="9.09803">
        <ele>1051.8</ele>
        <time>2021-06-03T09:42:27Z</time>
      </trkpt>
      <trkpt lat="41.85488" lon="9.09802">
        <ele>1051.8</ele>
        <time>2021-06-03T09:42:28Z</time>
      </trkpt>
      <trkpt lat="41.85485" lon="9.09801">
        <ele>1052</ele>
        <time>2021-06-03T09:42:29Z</time>
      </trkpt>
      <trkpt lat="41.85483" lon="9.098">
        <ele>1052</ele>
        <time>2021-06-03T09:42:30Z</time>
      </trkpt>
      <trkpt lat="41.85481" lon="9.09798">
        <ele>1052</ele>
        <time>2021-06-03T09:42:31Z</time>
      </trkpt>
      <trkpt lat="41.85479" lon="9.09796">
        <ele>1052</ele>
        <time>2021-06-03T09:42:32Z</time>
      </trkpt>
      <trkpt lat="41.85477" lon="9.09795">
        <ele>1052</ele>
        <time>2021-06-03T09:42:33Z</time>
      </trkpt>
      <trkpt lat="41.85475" lon="9.09793">
        <ele>1052</ele>
        <time>2021-06-03T09:42:34Z</time>
      </trkpt>
      <trkpt lat="41.85473" lon="9.09791">
        <ele>1052</ele>
        <time>2021-06-03T09:42:35Z</time>
      </trkpt>
      <trkpt lat="41.85471" lon="9.0979">
        <ele>1052</ele>
        <time>2021-06-03T09:42:36Z</time>
      </trkpt>
      <trkpt lat="41.85469" lon="9.09788">
        <ele>1051.8</ele>
        <time>2021-06-03T09:42:37Z</time>
      </trkpt>
      <trkpt lat="41.85467" lon="9.09786">
        <ele>1051.8</ele>
        <time>2021-06-03T09:42:38Z</time>
      </trkpt>
      <trkpt lat="41.85465" lon="9.09784">
        <ele>1051.8</ele>
        <time>2021-06-03T09:42:39Z</time>
      </trkpt>
      <trkpt lat="41.85463" lon="9.09782">
        <ele>1052.8</ele>
        <time>2021-06-03T09:42:40Z</time>
      </trkpt>
      <trkpt lat="41.85462" lon="9.0978">
        <ele>1053</ele>
        <time>2021-06-03T09:42:41Z</time>
      </trkpt>
      <trkpt lat="41.8546" lon="9.09778">
        <ele>1053</ele>
        <time>2021-06-03T09:42:42Z</time>
      </trkpt>
      <trkpt lat="41.85458" lon="9.09776">
        <ele>1053</ele>
        <time>2021-06-03T09:42:43Z</time>
      </trkpt>
      <trkpt lat="41.85457" lon="9.09774">
        <ele>1053</ele>
        <time>2021-06-03T09:42:44Z</time>
      </trkpt>
      <trkpt lat="41.85455" lon="9.09772">
        <ele>1053.2</ele>
        <time>2021-06-03T09:42:45Z</time>
      </trkpt>
      <trkpt lat="41.85454" lon="9.09769">
        <ele>1053.2</ele>
        <time>2021-06-03T09:42:46Z</time>
      </trkpt>
      <trkpt lat="41.85452" lon="9.09767">
        <ele>1053.2</ele>
        <time>2021-06-03T09:42:47Z</time>
      </trkpt>
      <trkpt lat="41.85451" lon="9.09764">
        <ele>1053.6</ele>
        <time>2021-06-03T09:42:48Z</time>
      </trkpt>
      <trkpt lat="41.85449" lon="9.09762">
        <ele>1053.2</ele>
        <time>2021-06-03T09:42:49Z</time>
      </trkpt>
      <trkpt lat="41.85448" lon="9.0976">
        <ele>1053.2</ele>
        <time>2021-06-03T09:42:50Z</time>
      </trkpt>
      <trkpt lat="41.85446" lon="9.09758">
        <ele>1053.2</ele>
        <time>2021-06-03T09:42:51Z</time>
      </trkpt>
      <trkpt lat="41.85444" lon="9.09756">
        <ele>1054</ele>
        <time>2021-06-03T09:42:52Z</time>
      </trkpt>
      <trkpt lat="41.85443" lon="9.09755">
        <ele>1054.2</ele>
        <time>2021-06-03T09:42:53Z</time>
      </trkpt>
      <trkpt lat="41.85441" lon="9.09753">
        <ele>1054.2</ele>
        <time>2021-06-03T09:42:54Z</time>
      </trkpt>
      <trkpt lat="41.85439" lon="9.09752">
        <ele>1054.2</ele>
        <time>2021-06-03T09:42:55Z</time>
      </trkpt>
      <trkpt lat="41.85438" lon="9.0975">
        <ele>1054.2</ele>
        <time>2021-06-03T09:42:56Z</time>
      </trkpt>
      <trkpt lat="41.85437" lon="9.09748">
        <ele>1054.6</ele>
        <time>2021-06-03T09:42:57Z</time>
      </trkpt>
      <trkpt lat="41.85435" lon="9.09746">
        <ele>1054.6</ele>
        <time>2021-06-03T09:42:58Z</time>
      </trkpt>
      <trkpt lat="41.85434" lon="9.09744">
        <ele>1054.6</ele>
        <time>2021-06-03T09:42:59Z</time>
      </trkpt>
      <trkpt lat="41.85432" lon="9.09742">
        <ele>1054.8</ele>
        <time>2021-06-03T09:43:00Z</time>
      </trkpt>
      <trkpt lat="41.85432" lon="9.09739">
        <ele>1055</ele>
        <time>2021-06-03T09:43:01Z</time>
      </trkpt>
      <trkpt lat="41.8543" lon="9.09737">
        <ele>1055</ele>
        <time>2021-06-03T09:43:02Z</time>
      </trkpt>
      <trkpt lat="41.85429" lon="9.09735">
        <ele>1055</ele>
        <time>2021-06-03T09:43:03Z</time>
      </trkpt>
      <trkpt lat="41.85427" lon="9.09733">
        <ele>1055</ele>
        <time>2021-06-03T09:43:04Z</time>
      </trkpt>
      <trkpt lat="41.85426" lon="9.09731">
        <ele>1055</ele>
        <time>2021-06-03T09:43:05Z</time>
      </trkpt>
      <trkpt lat="41.85424" lon="9.09729">
        <ele>1055</ele>
        <time>2021-06-03T09:43:06Z</time>
      </trkpt>
      <trkpt lat="41.85423" lon="9.09727">
        <ele>1055</ele>
        <time>2021-06-03T09:43:07Z</time>
      </trkpt>
      <trkpt lat="41.85422" lon="9.09725">
        <ele>1055</ele>
        <time>2021-06-03T09:43:08Z</time>
      </trkpt>
      <trkpt lat="41.85421" lon="9.09722">
        <ele>1055.2</ele>
        <time>2021-06-03T09:43:09Z</time>
      </trkpt>
      <trkpt lat="41.8542" lon="9.09719">
        <ele>1055.2</ele>
        <time>2021-06-03T09:43:10Z</time>
      </trkpt>
      <trkpt lat="41.85419" lon="9.09718">
        <ele>1055.2</ele>
        <time>2021-06-03T09:43:11Z</time>
      </trkpt>
      <trkpt lat="41.85418" lon="9.09716">
        <ele>1055.2</ele>
        <time>2021-06-03T09:43:12Z</time>
      </trkpt>
      <trkpt lat="41.85417" lon="9.09713">
        <ele>1055.4</ele>
        <time>2021-06-03T09:43:13Z</time>
      </trkpt>
      <trkpt lat="41.85416" lon="9.09711">
        <ele>1055.4</ele>
        <time>2021-06-03T09:43:14Z</time>
      </trkpt>
      <trkpt lat="41.85415" lon="9.09708">
        <ele>1055.4</ele>
        <time>2021-06-03T09:43:15Z</time>
      </trkpt>
      <trkpt lat="41.85414" lon="9.09706">
        <ele>1055.4</ele>
        <time>2021-06-03T09:43:16Z</time>
      </trkpt>
      <trkpt lat="41.85413" lon="9.09703">
        <ele>1055.4</ele>
        <time>2021-06-03T09:43:17Z</time>
      </trkpt>
      <trkpt lat="41.85412" lon="9.097">
        <ele>1055.4</ele>
        <time>2021-06-03T09:43:18Z</time>
      </trkpt>
      <trkpt lat="41.85411" lon="9.09698">
        <ele>1055.4</ele>
        <time>2021-06-03T09:43:19Z</time>
      </trkpt>
      <trkpt lat="41.8541" lon="9.09695">
        <ele>1056.2</ele>
        <time>2021-06-03T09:43:20Z</time>
      </trkpt>
      <trkpt lat="41.85409" lon="9.09693">
        <ele>1056.2</ele>
        <time>2021-06-03T09:43:21Z</time>
      </trkpt>
      <trkpt lat="41.85408" lon="9.0969">
        <ele>1056.2</ele>
        <time>2021-06-03T09:43:22Z</time>
      </trkpt>
      <trkpt lat="41.85406" lon="9.09688">
        <ele>1056.2</ele>
        <time>2021-06-03T09:43:23Z</time>
      </trkpt>
      <trkpt lat="41.85405" lon="9.09686">
        <ele>1056.2</ele>
        <time>2021-06-03T09:43:24Z</time>
      </trkpt>
      <trkpt lat="41.85404" lon="9.09684">
        <ele>1056</ele>
        <time>2021-06-03T09:43:25Z</time>
      </trkpt>
      <trkpt lat="41.85402" lon="9.09681">
        <ele>1056</ele>
        <time>2021-06-03T09:43:26Z</time>
      </trkpt>
      <trkpt lat="41.854" lon="9.09679">
        <ele>1056</ele>
        <time>2021-06-03T09:43:27Z</time>
      </trkpt>
      <trkpt lat="41.85398" lon="9.09678">
        <ele>1056</ele>
        <time>2021-06-03T09:43:28Z</time>
      </trkpt>
      <trkpt lat="41.85396" lon="9.09676">
        <ele>1056.2</ele>
        <time>2021-06-03T09:43:29Z</time>
      </trkpt>
      <trkpt lat="41.85394" lon="9.09674">
        <ele>1056.2</ele>
        <time>2021-06-03T09:43:30Z</time>
      </trkpt>
      <trkpt lat="41.85392" lon="9.09672">
        <ele>1056.2</ele>
        <time>2021-06-03T09:43:31Z</time>
      </trkpt>
      <trkpt lat="41.8539" lon="9.09671">
        <ele>1056.4</ele>
        <time>2021-06-03T09:43:32Z</time>
      </trkpt>
      <trkpt lat="41.85388" lon="9.09669">
        <ele>1056.8</ele>
        <time>2021-06-03T09:43:33Z</time>
      </trkpt>
      <trkpt lat="41.85386" lon="9.09668">
        <ele>1056.8</ele>
        <time>2021-06-03T09:43:34Z</time>
      </trkpt>
      <trkpt lat="41.85383" lon="9.09667">
        <ele>1056.8</ele>
        <time>2021-06-03T09:43:35Z</time>
      </trkpt>
      <trkpt lat="41.85381" lon="9.09666">
        <ele>1056.8</ele>
        <time>2021-06-03T09:43:36Z</time>
      </trkpt>
      <trkpt lat="41.85379" lon="9.09665">
        <ele>1056.6</ele>
        <time>2021-06-03T09:43:37Z</time>
      </trkpt>
      <trkpt lat="41.85376" lon="9.09664">
        <ele>1056.6</ele>
        <time>2021-06-03T09:43:38Z</time>
      </trkpt>
      <trkpt lat="41.85374" lon="9.09663">
        <ele>1056.6</ele>
        <time>2021-06-03T09:43:39Z</time>
      </trkpt>
      <trkpt lat="41.85372" lon="9.09662">
        <ele>1056.8</ele>
        <time>2021-06-03T09:43:40Z</time>
      </trkpt>
      <trkpt lat="41.8537" lon="9.0966">
        <ele>1056.8</ele>
        <time>2021-06-03T09:43:41Z</time>
      </trkpt>
      <trkpt lat="41.85367" lon="9.09659">
        <ele>1056.8</ele>
        <time>2021-06-03T09:43:42Z</time>
      </trkpt>
      <trkpt lat="41.85365" lon="9.09658">
        <ele>1056.8</ele>
        <time>2021-06-03T09:43:43Z</time>
      </trkpt>
      <trkpt lat="41.85363" lon="9.09657">
        <ele>1056.8</ele>
        <time>2021-06-03T09:43:44Z</time>
      </trkpt>
      <trkpt lat="41.8536" lon="9.09657">
        <ele>1056.8</ele>
        <time>2021-06-03T09:43:45Z</time>
      </trkpt>
      <trkpt lat="41.85358" lon="9.09656">
        <ele>1056.8</ele>
        <time>2021-06-03T09:43:46Z</time>
      </trkpt>
      <trkpt lat="41.85356" lon="9.09654">
        <ele>1056.8</ele>
        <time>2021-06-03T09:43:47Z</time>
      </trkpt>
      <trkpt lat="41.85354" lon="9.09653">
        <ele>1057</ele>
        <time>2021-06-03T09:43:48Z</time>
      </trkpt>
      <trkpt lat="41.85352" lon="9.09651">
        <ele>1057</ele>
        <time>2021-06-03T09:43:49Z</time>
      </trkpt>
      <trkpt lat="41.8535" lon="9.09649">
        <ele>1057</ele>
        <time>2021-06-03T09:43:50Z</time>
      </trkpt>
      <trkpt lat="41.85348" lon="9.09648">
        <ele>1057</ele>
        <time>2021-06-03T09:43:51Z</time>
      </trkpt>
      <trkpt lat="41.85346" lon="9.09646">
        <ele>1057</ele>
        <time>2021-06-03T09:43:52Z</time>
      </trkpt>
      <trkpt lat="41.85344" lon="9.09645">
        <ele>1057.4</ele>
        <time>2021-06-03T09:43:53Z</time>
      </trkpt>
      <trkpt lat="41.85341" lon="9.09644">
        <ele>1057.4</ele>
        <time>2021-06-03T09:43:54Z</time>
      </trkpt>
      <trkpt lat="41.85339" lon="9.09642">
        <ele>1057.4</ele>
        <time>2021-06-03T09:43:55Z</time>
      </trkpt>
      <trkpt lat="41.85337" lon="9.09641">
        <ele>1057.8</ele>
        <time>2021-06-03T09:43:56Z</time>
      </trkpt>
      <trkpt lat="41.85335" lon="9.0964">
        <ele>1057.8</ele>
        <time>2021-06-03T09:43:57Z</time>
      </trkpt>
      <trkpt lat="41.85333" lon="9.09638">
        <ele>1057.8</ele>
        <time>2021-06-03T09:43:58Z</time>
      </trkpt>
      <trkpt lat="41.85331" lon="9.09637">
        <ele>1057.8</ele>
        <time>2021-06-03T09:43:59Z</time>
      </trkpt>
      <trkpt lat="41.85329" lon="9.09635">
        <ele>1058</ele>
        <time>2021-06-03T09:44:00Z</time>
      </trkpt>
      <trkpt lat="41.85327" lon="9.09633">
        <ele>1058.2</ele>
        <time>2021-06-03T09:44:01Z</time>
      </trkpt>
      <trkpt lat="41.85325" lon="9.09632">
        <ele>1058.2</ele>
        <time>2021-06-03T09:44:02Z</time>
      </trkpt>
      <trkpt lat="41.85323" lon="9.09631">
        <ele>1058.2</ele>
        <time>2021-06-03T09:44:03Z</time>
      </trkpt>
      <trkpt lat="41.85321" lon="9.09629">
        <ele>1058.2</ele>
        <time>2021-06-03T09:44:04Z</time>
      </trkpt>
      <trkpt lat="41.85319" lon="9.09628">
        <ele>1058.4</ele>
        <time>2021-06-03T09:44:05Z</time>
      </trkpt>
      <trkpt lat="41.85317" lon="9.09627">
        <ele>1058.4</ele>
        <time>2021-06-03T09:44:06Z</time>
      </trkpt>
      <trkpt lat="41.85315" lon="9.09626">
        <ele>1058.4</ele>
        <time>2021-06-03T09:44:07Z</time>
      </trkpt>
      <trkpt lat="41.85313" lon="9.09624">
        <ele>1058.4</ele>
        <time>2021-06-03T09:44:08Z</time>
      </trkpt>
      <trkpt lat="41.85311" lon="9.09623">
        <ele>1059</ele>
        <time>2021-06-03T09:44:09Z</time>
      </trkpt>
      <trkpt lat="41.85309" lon="9.09622">
        <ele>1059</ele>
        <time>2021-06-03T09:44:10Z</time>
      </trkpt>
      <trkpt lat="41.85307" lon="9.09621">
        <ele>1059</ele>
        <time>2021-06-03T09:44:11Z</time>
      </trkpt>
      <trkpt lat="41.85305" lon="9.0962">
        <ele>1059</ele>
        <time>2021-06-03T09:44:12Z</time>
      </trkpt>
      <trkpt lat="41.85302" lon="9.09619">
        <ele>1059.4</ele>
        <time>2021-06-03T09:44:13Z</time>
      </trkpt>
      <trkpt lat="41.853" lon="9.09618">
        <ele>1059.4</ele>
        <time>2021-06-03T09:44:14Z</time>
      </trkpt>
      <trkpt lat="41.85298" lon="9.09617">
        <ele>1059.4</ele>
        <time>2021-06-03T09:44:15Z</time>
      </trkpt>
      <trkpt lat="41.85296" lon="9.09617">
        <ele>1059.4</ele>
        <time>2021-06-03T09:44:16Z</time>
      </trkpt>
      <trkpt lat="41.85294" lon="9.09617">
        <ele>1059.8</ele>
        <time>2021-06-03T09:44:17Z</time>
      </trkpt>
      <trkpt lat="41.85292" lon="9.09617">
        <ele>1059.8</ele>
        <time>2021-06-03T09:44:18Z</time>
      </trkpt>
      <trkpt lat="41.85289" lon="9.09617">
        <ele>1059.8</ele>
        <time>2021-06-03T09:44:19Z</time>
      </trkpt>
      <trkpt lat="41.85287" lon="9.09617">
        <ele>1059.8</ele>
        <time>2021-06-03T09:44:20Z</time>
      </trkpt>
      <trkpt lat="41.85285" lon="9.09617">
        <ele>1060</ele>
        <time>2021-06-03T09:44:21Z</time>
      </trkpt>
      <trkpt lat="41.85283" lon="9.09618">
        <ele>1060</ele>
        <time>2021-06-03T09:44:22Z</time>
      </trkpt>
      <trkpt lat="41.8528" lon="9.09618">
        <ele>1060</ele>
        <time>2021-06-03T09:44:23Z</time>
      </trkpt>
      <trkpt lat="41.85278" lon="9.09619">
        <ele>1060</ele>
        <time>2021-06-03T09:44:24Z</time>
      </trkpt>
      <trkpt lat="41.85276" lon="9.09619">
        <ele>1060</ele>
        <time>2021-06-03T09:44:25Z</time>
      </trkpt>
      <trkpt lat="41.85274" lon="9.0962">
        <ele>1060</ele>
        <time>2021-06-03T09:44:26Z</time>
      </trkpt>
      <trkpt lat="41.85272" lon="9.09621">
        <ele>1060</ele>
        <time>2021-06-03T09:44:27Z</time>
      </trkpt>
      <trkpt lat="41.85269" lon="9.09623">
        <ele>1060</ele>
        <time>2021-06-03T09:44:28Z</time>
      </trkpt>
      <trkpt lat="41.85267" lon="9.09624">
        <ele>1060</ele>
        <time>2021-06-03T09:44:29Z</time>
      </trkpt>
      <trkpt lat="41.85265" lon="9.09625">
        <ele>1060</ele>
        <time>2021-06-03T09:44:30Z</time>
      </trkpt>
      <trkpt lat="41.85263" lon="9.09626">
        <ele>1060</ele>
        <time>2021-06-03T09:44:31Z</time>
      </trkpt>
      <trkpt lat="41.85261" lon="9.09628">
        <ele>1060</ele>
        <time>2021-06-03T09:44:32Z</time>
      </trkpt>
      <trkpt lat="41.85259" lon="9.09629">
        <ele>1060.4</ele>
        <time>2021-06-03T09:44:33Z</time>
      </trkpt>
      <trkpt lat="41.85257" lon="9.0963">
        <ele>1060.4</ele>
        <time>2021-06-03T09:44:34Z</time>
      </trkpt>
      <trkpt lat="41.85255" lon="9.09631">
        <ele>1060.4</ele>
        <time>2021-06-03T09:44:35Z</time>
      </trkpt>
      <trkpt lat="41.85253" lon="9.09632">
        <ele>1060.4</ele>
        <time>2021-06-03T09:44:36Z</time>
      </trkpt>
      <trkpt lat="41.85251" lon="9.09633">
        <ele>1060.8</ele>
        <time>2021-06-03T09:44:37Z</time>
      </trkpt>
      <trkpt lat="41.85248" lon="9.09634">
        <ele>1060.8</ele>
        <time>2021-06-03T09:44:38Z</time>
      </trkpt>
      <trkpt lat="41.85246" lon="9.09635">
        <ele>1060.8</ele>
        <time>2021-06-03T09:44:39Z</time>
      </trkpt>
      <trkpt lat="41.85244" lon="9.09635">
        <ele>1060.8</ele>
        <time>2021-06-03T09:44:40Z</time>
      </trkpt>
      <trkpt lat="41.85242" lon="9.09637">
        <ele>1061.2</ele>
        <time>2021-06-03T09:44:41Z</time>
      </trkpt>
      <trkpt lat="41.8524" lon="9.09638">
        <ele>1061.2</ele>
        <time>2021-06-03T09:44:42Z</time>
      </trkpt>
      <trkpt lat="41.85238" lon="9.09639">
        <ele>1061.2</ele>
        <time>2021-06-03T09:44:43Z</time>
      </trkpt>
      <trkpt lat="41.85236" lon="9.09641">
        <ele>1061.2</ele>
        <time>2021-06-03T09:44:44Z</time>
      </trkpt>
      <trkpt lat="41.85233" lon="9.09642">
        <ele>1061.2</ele>
        <time>2021-06-03T09:44:45Z</time>
      </trkpt>
      <trkpt lat="41.85231" lon="9.09644">
        <ele>1061.2</ele>
        <time>2021-06-03T09:44:46Z</time>
      </trkpt>
      <trkpt lat="41.85229" lon="9.09645">
        <ele>1061.2</ele>
        <time>2021-06-03T09:44:47Z</time>
      </trkpt>
      <trkpt lat="41.85227" lon="9.09647">
        <ele>1061.4</ele>
        <time>2021-06-03T09:44:48Z</time>
      </trkpt>
      <trkpt lat="41.85225" lon="9.09648">
        <ele>1061.2</ele>
        <time>2021-06-03T09:44:49Z</time>
      </trkpt>
      <trkpt lat="41.85222" lon="9.0965">
        <ele>1061.2</ele>
        <time>2021-06-03T09:44:50Z</time>
      </trkpt>
      <trkpt lat="41.8522" lon="9.09652">
        <ele>1061.2</ele>
        <time>2021-06-03T09:44:51Z</time>
      </trkpt>
      <trkpt lat="41.85218" lon="9.09653">
        <ele>1061.2</ele>
        <time>2021-06-03T09:44:52Z</time>
      </trkpt>
      <trkpt lat="41.85216" lon="9.09654">
        <ele>1061</ele>
        <time>2021-06-03T09:44:53Z</time>
      </trkpt>
      <trkpt lat="41.85213" lon="9.09655">
        <ele>1061</ele>
        <time>2021-06-03T09:44:54Z</time>
      </trkpt>
      <trkpt lat="41.85211" lon="9.09656">
        <ele>1061</ele>
        <time>2021-06-03T09:44:55Z</time>
      </trkpt>
      <trkpt lat="41.85209" lon="9.09658">
        <ele>1062</ele>
        <time>2021-06-03T09:44:56Z</time>
      </trkpt>
      <trkpt lat="41.85207" lon="9.09659">
        <ele>1062.2</ele>
        <time>2021-06-03T09:44:57Z</time>
      </trkpt>
      <trkpt lat="41.85204" lon="9.09661">
        <ele>1062.2</ele>
        <time>2021-06-03T09:44:58Z</time>
      </trkpt>
      <trkpt lat="41.85202" lon="9.09662">
        <ele>1062.2</ele>
        <time>2021-06-03T09:44:59Z</time>
      </trkpt>
      <trkpt lat="41.852" lon="9.09664">
        <ele>1062.2</ele>
        <time>2021-06-03T09:45:00Z</time>
      </trkpt>
      <trkpt lat="41.85197" lon="9.09665">
        <ele>1062</ele>
        <time>2021-06-03T09:45:01Z</time>
      </trkpt>
      <trkpt lat="41.85195" lon="9.09666">
        <ele>1062</ele>
        <time>2021-06-03T09:45:02Z</time>
      </trkpt>
      <trkpt lat="41.85193" lon="9.09668">
        <ele>1062</ele>
        <time>2021-06-03T09:45:03Z</time>
      </trkpt>
      <trkpt lat="41.85191" lon="9.09669">
        <ele>1062.6</ele>
        <time>2021-06-03T09:45:04Z</time>
      </trkpt>
      <trkpt lat="41.85188" lon="9.09671">
        <ele>1062.8</ele>
        <time>2021-06-03T09:45:05Z</time>
      </trkpt>
      <trkpt lat="41.85186" lon="9.09672">
        <ele>1062.8</ele>
        <time>2021-06-03T09:45:06Z</time>
      </trkpt>
      <trkpt lat="41.85184" lon="9.09674">
        <ele>1062.8</ele>
        <time>2021-06-03T09:45:07Z</time>
      </trkpt>
      <trkpt lat="41.85182" lon="9.09675">
        <ele>1062.8</ele>
        <time>2021-06-03T09:45:08Z</time>
      </trkpt>
      <trkpt lat="41.85179" lon="9.09677">
        <ele>1062.8</ele>
        <time>2021-06-03T09:45:09Z</time>
      </trkpt>
      <trkpt lat="41.85177" lon="9.09678">
        <ele>1062.8</ele>
        <time>2021-06-03T09:45:10Z</time>
      </trkpt>
      <trkpt lat="41.85175" lon="9.0968">
        <ele>1062.8</ele>
        <time>2021-06-03T09:45:11Z</time>
      </trkpt>
      <trkpt lat="41.85173" lon="9.09682">
        <ele>1063.2</ele>
        <time>2021-06-03T09:45:12Z</time>
      </trkpt>
      <trkpt lat="41.85171" lon="9.09684">
        <ele>1063.8</ele>
        <time>2021-06-03T09:45:13Z</time>
      </trkpt>
      <trkpt lat="41.85169" lon="9.09685">
        <ele>1063.8</ele>
        <time>2021-06-03T09:45:14Z</time>
      </trkpt>
      <trkpt lat="41.85167" lon="9.09688">
        <ele>1063.8</ele>
        <time>2021-06-03T09:45:15Z</time>
      </trkpt>
      <trkpt lat="41.85165" lon="9.0969">
        <ele>1063.4</ele>
        <time>2021-06-03T09:45:16Z</time>
      </trkpt>
      <trkpt lat="41.85163" lon="9.09692">
        <ele>1063.8</ele>
        <time>2021-06-03T09:45:17Z</time>
      </trkpt>
      <trkpt lat="41.85161" lon="9.09695">
        <ele>1063.8</ele>
        <time>2021-06-03T09:45:18Z</time>
      </trkpt>
      <trkpt lat="41.8516" lon="9.09697">
        <ele>1063.8</ele>
        <time>2021-06-03T09:45:19Z</time>
      </trkpt>
      <trkpt lat="41.85158" lon="9.097">
        <ele>1063.8</ele>
        <time>2021-06-03T09:45:20Z</time>
      </trkpt>
      <trkpt lat="41.85157" lon="9.09703">
        <ele>1064.2</ele>
        <time>2021-06-03T09:45:21Z</time>
      </trkpt>
      <trkpt lat="41.85156" lon="9.09706">
        <ele>1064.2</ele>
        <time>2021-06-03T09:45:22Z</time>
      </trkpt>
      <trkpt lat="41.85155" lon="9.09709">
        <ele>1064.2</ele>
        <time>2021-06-03T09:45:23Z</time>
      </trkpt>
      <trkpt lat="41.85154" lon="9.09712">
        <ele>1064.2</ele>
        <time>2021-06-03T09:45:24Z</time>
      </trkpt>
      <trkpt lat="41.85153" lon="9.09715">
        <ele>1063.8</ele>
        <time>2021-06-03T09:45:25Z</time>
      </trkpt>
      <trkpt lat="41.85153" lon="9.09719">
        <ele>1063.8</ele>
        <time>2021-06-03T09:45:26Z</time>
      </trkpt>
      <trkpt lat="41.85153" lon="9.09722">
        <ele>1063.8</ele>
        <time>2021-06-03T09:45:27Z</time>
      </trkpt>
      <trkpt lat="41.85153" lon="9.09725">
        <ele>1063.8</ele>
        <time>2021-06-03T09:45:28Z</time>
      </trkpt>
      <trkpt lat="41.85152" lon="9.09728">
        <ele>1064.2</ele>
        <time>2021-06-03T09:45:29Z</time>
      </trkpt>
      <trkpt lat="41.85153" lon="9.09731">
        <ele>1064.2</ele>
        <time>2021-06-03T09:45:30Z</time>
      </trkpt>
      <trkpt lat="41.85153" lon="9.09734">
        <ele>1064.2</ele>
        <time>2021-06-03T09:45:31Z</time>
      </trkpt>
      <trkpt lat="41.85154" lon="9.09738">
        <ele>1065</ele>
        <time>2021-06-03T09:45:32Z</time>
      </trkpt>
      <trkpt lat="41.85154" lon="9.09741">
        <ele>1065</ele>
        <time>2021-06-03T09:45:33Z</time>
      </trkpt>
      <trkpt lat="41.85155" lon="9.09744">
        <ele>1065</ele>
        <time>2021-06-03T09:45:34Z</time>
      </trkpt>
      <trkpt lat="41.85157" lon="9.09748">
        <ele>1065</ele>
        <time>2021-06-03T09:45:35Z</time>
      </trkpt>
      <trkpt lat="41.85158" lon="9.09751">
        <ele>1065</ele>
        <time>2021-06-03T09:45:36Z</time>
      </trkpt>
      <trkpt lat="41.85159" lon="9.09754">
        <ele>1065</ele>
        <time>2021-06-03T09:45:37Z</time>
      </trkpt>
      <trkpt lat="41.8516" lon="9.09757">
        <ele>1065</ele>
        <time>2021-06-03T09:45:38Z</time>
      </trkpt>
      <trkpt lat="41.85161" lon="9.09759">
        <ele>1065</ele>
        <time>2021-06-03T09:45:39Z</time>
      </trkpt>
      <trkpt lat="41.85163" lon="9.09762">
        <ele>1065.4</ele>
        <time>2021-06-03T09:45:40Z</time>
      </trkpt>
      <trkpt lat="41.85164" lon="9.09765">
        <ele>1065.6</ele>
        <time>2021-06-03T09:45:41Z</time>
      </trkpt>
      <trkpt lat="41.85165" lon="9.09767">
        <ele>1065.6</ele>
        <time>2021-06-03T09:45:42Z</time>
      </trkpt>
      <trkpt lat="41.85167" lon="9.0977">
        <ele>1065.6</ele>
        <time>2021-06-03T09:45:43Z</time>
      </trkpt>
      <trkpt lat="41.85168" lon="9.09773">
        <ele>1065.2</ele>
        <time>2021-06-03T09:45:44Z</time>
      </trkpt>
      <trkpt lat="41.85169" lon="9.09775">
        <ele>1065.6</ele>
        <time>2021-06-03T09:45:45Z</time>
      </trkpt>
      <trkpt lat="41.8517" lon="9.09778">
        <ele>1065.6</ele>
        <time>2021-06-03T09:45:46Z</time>
      </trkpt>
      <trkpt lat="41.85172" lon="9.09781">
        <ele>1065.6</ele>
        <time>2021-06-03T09:45:47Z</time>
      </trkpt>
      <trkpt lat="41.85173" lon="9.09784">
        <ele>1065.6</ele>
        <time>2021-06-03T09:45:48Z</time>
      </trkpt>
      <trkpt lat="41.85174" lon="9.09787">
        <ele>1066</ele>
        <time>2021-06-03T09:45:49Z</time>
      </trkpt>
      <trkpt lat="41.85174" lon="9.0979">
        <ele>1066</ele>
        <time>2021-06-03T09:45:50Z</time>
      </trkpt>
      <trkpt lat="41.85175" lon="9.09793">
        <ele>1066</ele>
        <time>2021-06-03T09:45:51Z</time>
      </trkpt>
      <trkpt lat="41.85175" lon="9.09797">
        <ele>1066</ele>
        <time>2021-06-03T09:45:52Z</time>
      </trkpt>
      <trkpt lat="41.85175" lon="9.098">
        <ele>1066.2</ele>
        <time>2021-06-03T09:45:53Z</time>
      </trkpt>
      <trkpt lat="41.85174" lon="9.09803">
        <ele>1066.2</ele>
        <time>2021-06-03T09:45:54Z</time>
      </trkpt>
      <trkpt lat="41.85174" lon="9.09806">
        <ele>1066.2</ele>
        <time>2021-06-03T09:45:55Z</time>
      </trkpt>
      <trkpt lat="41.85173" lon="9.0981">
        <ele>1066.2</ele>
        <time>2021-06-03T09:45:56Z</time>
      </trkpt>
      <trkpt lat="41.85172" lon="9.09813">
        <ele>1066.2</ele>
        <time>2021-06-03T09:45:57Z</time>
      </trkpt>
      <trkpt lat="41.8517" lon="9.09816">
        <ele>1066.2</ele>
        <time>2021-06-03T09:45:58Z</time>
      </trkpt>
      <trkpt lat="41.85169" lon="9.09819">
        <ele>1066.2</ele>
        <time>2021-06-03T09:45:59Z</time>
      </trkpt>
      <trkpt lat="41.85167" lon="9.09822">
        <ele>1066.4</ele>
        <time>2021-06-03T09:46:00Z</time>
      </trkpt>
      <trkpt lat="41.85166" lon="9.09824">
        <ele>1066.4</ele>
        <time>2021-06-03T09:46:01Z</time>
      </trkpt>
      <trkpt lat="41.85164" lon="9.09827">
        <ele>1066.4</ele>
        <time>2021-06-03T09:46:02Z</time>
      </trkpt>
      <trkpt lat="41.85163" lon="9.0983">
        <ele>1066.4</ele>
        <time>2021-06-03T09:46:03Z</time>
      </trkpt>
      <trkpt lat="41.85162" lon="9.09834">
        <ele>1066.4</ele>
        <time>2021-06-03T09:46:04Z</time>
      </trkpt>
      <trkpt lat="41.85161" lon="9.09837">
        <ele>1066.4</ele>
        <time>2021-06-03T09:46:05Z</time>
      </trkpt>
      <trkpt lat="41.8516" lon="9.09841">
        <ele>1066.4</ele>
        <time>2021-06-03T09:46:06Z</time>
      </trkpt>
      <trkpt lat="41.85159" lon="9.09844">
        <ele>1066.4</ele>
        <time>2021-06-03T09:46:07Z</time>
      </trkpt>
      <trkpt lat="41.85158" lon="9.09848">
        <ele>1067.2</ele>
        <time>2021-06-03T09:46:08Z</time>
      </trkpt>
      <trkpt lat="41.85157" lon="9.09852">
        <ele>1066.6</ele>
        <time>2021-06-03T09:46:09Z</time>
      </trkpt>
      <trkpt lat="41.85157" lon="9.09856">
        <ele>1066.6</ele>
        <time>2021-06-03T09:46:10Z</time>
      </trkpt>
      <trkpt lat="41.85156" lon="9.09859">
        <ele>1066.6</ele>
        <time>2021-06-03T09:46:11Z</time>
      </trkpt>
      <trkpt lat="41.85156" lon="9.09863">
        <ele>1066.6</ele>
        <time>2021-06-03T09:46:12Z</time>
      </trkpt>
      <trkpt lat="41.85156" lon="9.09867">
        <ele>1067.6</ele>
        <time>2021-06-03T09:46:13Z</time>
      </trkpt>
      <trkpt lat="41.85157" lon="9.09871">
        <ele>1067.6</ele>
        <time>2021-06-03T09:46:14Z</time>
      </trkpt>
      <trkpt lat="41.85157" lon="9.09875">
        <ele>1067.6</ele>
        <time>2021-06-03T09:46:15Z</time>
      </trkpt>
      <trkpt lat="41.85157" lon="9.09878">
        <ele>1067.6</ele>
        <time>2021-06-03T09:46:16Z</time>
      </trkpt>
      <trkpt lat="41.85158" lon="9.09882">
        <ele>1067.6</ele>
        <time>2021-06-03T09:46:17Z</time>
      </trkpt>
      <trkpt lat="41.85158" lon="9.09886">
        <ele>1067.6</ele>
        <time>2021-06-03T09:46:18Z</time>
      </trkpt>
      <trkpt lat="41.85159" lon="9.09889">
        <ele>1067.6</ele>
        <time>2021-06-03T09:46:19Z</time>
      </trkpt>
      <trkpt lat="41.8516" lon="9.09893">
        <ele>1068</ele>
        <time>2021-06-03T09:46:20Z</time>
      </trkpt>
      <trkpt lat="41.8516" lon="9.09897">
        <ele>1067.8</ele>
        <time>2021-06-03T09:46:21Z</time>
      </trkpt>
      <trkpt lat="41.8516" lon="9.09901">
        <ele>1067.8</ele>
        <time>2021-06-03T09:46:22Z</time>
      </trkpt>
      <trkpt lat="41.85161" lon="9.09904">
        <ele>1067.8</ele>
        <time>2021-06-03T09:46:23Z</time>
      </trkpt>
      <trkpt lat="41.85161" lon="9.09908">
        <ele>1068.4</ele>
        <time>2021-06-03T09:46:24Z</time>
      </trkpt>
      <trkpt lat="41.8516" lon="9.09912">
        <ele>1068.4</ele>
        <time>2021-06-03T09:46:25Z</time>
      </trkpt>
      <trkpt lat="41.85159" lon="9.09916">
        <ele>1068.4</ele>
        <time>2021-06-03T09:46:26Z</time>
      </trkpt>
      <trkpt lat="41.85159" lon="9.09919">
        <ele>1068.4</ele>
        <time>2021-06-03T09:46:27Z</time>
      </trkpt>
      <trkpt lat="41.85158" lon="9.09923">
        <ele>1068</ele>
        <time>2021-06-03T09:46:28Z</time>
      </trkpt>
      <trkpt lat="41.85157" lon="9.09926">
        <ele>1068</ele>
        <time>2021-06-03T09:46:29Z</time>
      </trkpt>
      <trkpt lat="41.85155" lon="9.09929">
        <ele>1068</ele>
        <time>2021-06-03T09:46:30Z</time>
      </trkpt>
      <trkpt lat="41.85153" lon="9.09932">
        <ele>1068</ele>
        <time>2021-06-03T09:46:31Z</time>
      </trkpt>
      <trkpt lat="41.85151" lon="9.09935">
        <ele>1068</ele>
        <time>2021-06-03T09:46:32Z</time>
      </trkpt>
      <trkpt lat="41.8515" lon="9.09938">
        <ele>1068.6</ele>
        <time>2021-06-03T09:46:33Z</time>
      </trkpt>
      <trkpt lat="41.85148" lon="9.09941">
        <ele>1068.6</ele>
        <time>2021-06-03T09:46:34Z</time>
      </trkpt>
      <trkpt lat="41.85146" lon="9.09943">
        <ele>1068.6</ele>
        <time>2021-06-03T09:46:35Z</time>
      </trkpt>
      <trkpt lat="41.85144" lon="9.09946">
        <ele>1069.4</ele>
        <time>2021-06-03T09:46:36Z</time>
      </trkpt>
      <trkpt lat="41.85142" lon="9.09948">
        <ele>1069.6</ele>
        <time>2021-06-03T09:46:37Z</time>
      </trkpt>
      <trkpt lat="41.85141" lon="9.09951">
        <ele>1069.6</ele>
        <time>2021-06-03T09:46:38Z</time>
      </trkpt>
      <trkpt lat="41.85139" lon="9.09953">
        <ele>1069.6</ele>
        <time>2021-06-03T09:46:39Z</time>
      </trkpt>
      <trkpt lat="41.85137" lon="9.09955">
        <ele>1070</ele>
        <time>2021-06-03T09:46:40Z</time>
      </trkpt>
      <trkpt lat="41.85135" lon="9.09957">
        <ele>1070</ele>
        <time>2021-06-03T09:46:41Z</time>
      </trkpt>
      <trkpt lat="41.85134" lon="9.09959">
        <ele>1070</ele>
        <time>2021-06-03T09:46:42Z</time>
      </trkpt>
      <trkpt lat="41.85132" lon="9.09961">
        <ele>1070</ele>
        <time>2021-06-03T09:46:43Z</time>
      </trkpt>
      <trkpt lat="41.8513" lon="9.09964">
        <ele>1070.8</ele>
        <time>2021-06-03T09:46:44Z</time>
      </trkpt>
      <trkpt lat="41.85129" lon="9.09966">
        <ele>1070.2</ele>
        <time>2021-06-03T09:46:45Z</time>
      </trkpt>
      <trkpt lat="41.85127" lon="9.09968">
        <ele>1070.2</ele>
        <time>2021-06-03T09:46:46Z</time>
      </trkpt>
      <trkpt lat="41.85125" lon="9.0997">
        <ele>1070.2</ele>
        <time>2021-06-03T09:46:47Z</time>
      </trkpt>
      <trkpt lat="41.85124" lon="9.09973">
        <ele>1070.8</ele>
        <time>2021-06-03T09:46:48Z</time>
      </trkpt>
      <trkpt lat="41.85122" lon="9.09975">
        <ele>1071</ele>
        <time>2021-06-03T09:46:49Z</time>
      </trkpt>
      <trkpt lat="41.8512" lon="9.09977">
        <ele>1071</ele>
        <time>2021-06-03T09:46:50Z</time>
      </trkpt>
      <trkpt lat="41.85118" lon="9.09979">
        <ele>1071</ele>
        <time>2021-06-03T09:46:51Z</time>
      </trkpt>
      <trkpt lat="41.85116" lon="9.09981">
        <ele>1071.2</ele>
        <time>2021-06-03T09:46:52Z</time>
      </trkpt>
      <trkpt lat="41.85114" lon="9.09983">
        <ele>1071.4</ele>
        <time>2021-06-03T09:46:53Z</time>
      </trkpt>
      <trkpt lat="41.85112" lon="9.09985">
        <ele>1071.4</ele>
        <time>2021-06-03T09:46:54Z</time>
      </trkpt>
      <trkpt lat="41.85111" lon="9.09988">
        <ele>1071.4</ele>
        <time>2021-06-03T09:46:55Z</time>
      </trkpt>
      <trkpt lat="41.85109" lon="9.0999">
        <ele>1071.4</ele>
        <time>2021-06-03T09:46:56Z</time>
      </trkpt>
      <trkpt lat="41.85108" lon="9.09993">
        <ele>1071.6</ele>
        <time>2021-06-03T09:46:57Z</time>
      </trkpt>
      <trkpt lat="41.85106" lon="9.09995">
        <ele>1071.6</ele>
        <time>2021-06-03T09:46:58Z</time>
      </trkpt>
      <trkpt lat="41.85104" lon="9.09997">
        <ele>1071.6</ele>
        <time>2021-06-03T09:46:59Z</time>
      </trkpt>
      <trkpt lat="41.85103" lon="9.09999">
        <ele>1072</ele>
        <time>2021-06-03T09:47:00Z</time>
      </trkpt>
      <trkpt lat="41.85101" lon="9.10001">
        <ele>1072.4</ele>
        <time>2021-06-03T09:47:01Z</time>
      </trkpt>
      <trkpt lat="41.85099" lon="9.10003">
        <ele>1072.4</ele>
        <time>2021-06-03T09:47:02Z</time>
      </trkpt>
      <trkpt lat="41.85098" lon="9.10005">
        <ele>1072.4</ele>
        <time>2021-06-03T09:47:03Z</time>
      </trkpt>
      <trkpt lat="41.85096" lon="9.10007">
        <ele>1072.4</ele>
        <time>2021-06-03T09:47:04Z</time>
      </trkpt>
      <trkpt lat="41.85094" lon="9.10009">
        <ele>1072.6</ele>
        <time>2021-06-03T09:47:05Z</time>
      </trkpt>
      <trkpt lat="41.85093" lon="9.10011">
        <ele>1072.6</ele>
        <time>2021-06-03T09:47:06Z</time>
      </trkpt>
      <trkpt lat="41.85091" lon="9.10013">
        <ele>1072.6</ele>
        <time>2021-06-03T09:47:07Z</time>
      </trkpt>
      <trkpt lat="41.8509" lon="9.10015">
        <ele>1073.2</ele>
        <time>2021-06-03T09:47:08Z</time>
      </trkpt>
      <trkpt lat="41.85088" lon="9.10016">
        <ele>1073.2</ele>
        <time>2021-06-03T09:47:09Z</time>
      </trkpt>
      <trkpt lat="41.85086" lon="9.10017">
        <ele>1073.2</ele>
        <time>2021-06-03T09:47:10Z</time>
      </trkpt>
      <trkpt lat="41.85084" lon="9.1002">
        <ele>1073.2</ele>
        <time>2021-06-03T09:47:11Z</time>
      </trkpt>
      <trkpt lat="41.85083" lon="9.10022">
        <ele>1073.2</ele>
        <time>2021-06-03T09:47:12Z</time>
      </trkpt>
      <trkpt lat="41.85081" lon="9.10024">
        <ele>1073.2</ele>
        <time>2021-06-03T09:47:13Z</time>
      </trkpt>
      <trkpt lat="41.8508" lon="9.10026">
        <ele>1073.2</ele>
        <time>2021-06-03T09:47:14Z</time>
      </trkpt>
      <trkpt lat="41.85078" lon="9.10027">
        <ele>1073.2</ele>
        <time>2021-06-03T09:47:15Z</time>
      </trkpt>
      <trkpt lat="41.85076" lon="9.10029">
        <ele>1073.6</ele>
        <time>2021-06-03T09:47:16Z</time>
      </trkpt>
      <trkpt lat="41.85074" lon="9.1003">
        <ele>1073.2</ele>
        <time>2021-06-03T09:47:17Z</time>
      </trkpt>
      <trkpt lat="41.85071" lon="9.10031">
        <ele>1073.2</ele>
        <time>2021-06-03T09:47:18Z</time>
      </trkpt>
      <trkpt lat="41.85069" lon="9.10033">
        <ele>1073.2</ele>
        <time>2021-06-03T09:47:19Z</time>
      </trkpt>
      <trkpt lat="41.85067" lon="9.10034">
        <ele>1073.2</ele>
        <time>2021-06-03T09:47:20Z</time>
      </trkpt>
      <trkpt lat="41.85065" lon="9.10035">
        <ele>1073.2</ele>
        <time>2021-06-03T09:47:21Z</time>
      </trkpt>
      <trkpt lat="41.85063" lon="9.10036">
        <ele>1073.2</ele>
        <time>2021-06-03T09:47:22Z</time>
      </trkpt>
      <trkpt lat="41.85061" lon="9.10036">
        <ele>1073.2</ele>
        <time>2021-06-03T09:47:23Z</time>
      </trkpt>
      <trkpt lat="41.85058" lon="9.10037">
        <ele>1073.2</ele>
        <time>2021-06-03T09:47:24Z</time>
      </trkpt>
      <trkpt lat="41.85056" lon="9.10038">
        <ele>1073.4</ele>
        <time>2021-06-03T09:47:25Z</time>
      </trkpt>
      <trkpt lat="41.85054" lon="9.10038">
        <ele>1073.4</ele>
        <time>2021-06-03T09:47:26Z</time>
      </trkpt>
      <trkpt lat="41.85052" lon="9.10039">
        <ele>1073.4</ele>
        <time>2021-06-03T09:47:27Z</time>
      </trkpt>
      <trkpt lat="41.8505" lon="9.10039">
        <ele>1073.4</ele>
        <time>2021-06-03T09:47:28Z</time>
      </trkpt>
      <trkpt lat="41.85047" lon="9.10039">
        <ele>1074.4</ele>
        <time>2021-06-03T09:47:29Z</time>
      </trkpt>
      <trkpt lat="41.85045" lon="9.1004">
        <ele>1074.4</ele>
        <time>2021-06-03T09:47:30Z</time>
      </trkpt>
      <trkpt lat="41.85043" lon="9.1004">
        <ele>1074.4</ele>
        <time>2021-06-03T09:47:31Z</time>
      </trkpt>
      <trkpt lat="41.8504" lon="9.1004">
        <ele>1074.4</ele>
        <time>2021-06-03T09:47:32Z</time>
      </trkpt>
      <trkpt lat="41.85038" lon="9.10041">
        <ele>1074.2</ele>
        <time>2021-06-03T09:47:33Z</time>
      </trkpt>
      <trkpt lat="41.85036" lon="9.10041">
        <ele>1074.2</ele>
        <time>2021-06-03T09:47:34Z</time>
      </trkpt>
      <trkpt lat="41.85034" lon="9.10042">
        <ele>1074.2</ele>
        <time>2021-06-03T09:47:35Z</time>
      </trkpt>
      <trkpt lat="41.85031" lon="9.10043">
        <ele>1074.6</ele>
        <time>2021-06-03T09:47:36Z</time>
      </trkpt>
      <trkpt lat="41.85029" lon="9.10044">
        <ele>1075</ele>
        <time>2021-06-03T09:47:37Z</time>
      </trkpt>
      <trkpt lat="41.85027" lon="9.10045">
        <ele>1075</ele>
        <time>2021-06-03T09:47:38Z</time>
      </trkpt>
      <trkpt lat="41.85025" lon="9.10045">
        <ele>1075</ele>
        <time>2021-06-03T09:47:39Z</time>
      </trkpt>
      <trkpt lat="41.85023" lon="9.10046">
        <ele>1075</ele>
        <time>2021-06-03T09:47:40Z</time>
      </trkpt>
      <trkpt lat="41.8502" lon="9.10048">
        <ele>1075</ele>
        <time>2021-06-03T09:47:41Z</time>
      </trkpt>
      <trkpt lat="41.85018" lon="9.1005">
        <ele>1075</ele>
        <time>2021-06-03T09:47:42Z</time>
      </trkpt>
      <trkpt lat="41.85016" lon="9.10051">
        <ele>1075</ele>
        <time>2021-06-03T09:47:43Z</time>
      </trkpt>
      <trkpt lat="41.85014" lon="9.10053">
        <ele>1075</ele>
        <time>2021-06-03T09:47:44Z</time>
      </trkpt>
      <trkpt lat="41.85012" lon="9.10054">
        <ele>1075.2</ele>
        <time>2021-06-03T09:47:45Z</time>
      </trkpt>
      <trkpt lat="41.8501" lon="9.10055">
        <ele>1075.2</ele>
        <time>2021-06-03T09:47:46Z</time>
      </trkpt>
      <trkpt lat="41.85008" lon="9.10057">
        <ele>1075.2</ele>
        <time>2021-06-03T09:47:47Z</time>
      </trkpt>
      <trkpt lat="41.85006" lon="9.10058">
        <ele>1075.2</ele>
        <time>2021-06-03T09:47:48Z</time>
      </trkpt>
      <trkpt lat="41.85003" lon="9.10059">
        <ele>1075</ele>
        <time>2021-06-03T09:47:49Z</time>
      </trkpt>
      <trkpt lat="41.85001" lon="9.1006">
        <ele>1075</ele>
        <time>2021-06-03T09:47:50Z</time>
      </trkpt>
      <trkpt lat="41.84999" lon="9.10061">
        <ele>1075</ele>
        <time>2021-06-03T09:47:51Z</time>
      </trkpt>
      <trkpt lat="41.84997" lon="9.10062">
        <ele>1075.8</ele>
        <time>2021-06-03T09:47:52Z</time>
      </trkpt>
      <trkpt lat="41.84995" lon="9.10063">
        <ele>1075.8</ele>
        <time>2021-06-03T09:47:53Z</time>
      </trkpt>
      <trkpt lat="41.84993" lon="9.10063">
        <ele>1075.8</ele>
        <time>2021-06-03T09:47:54Z</time>
      </trkpt>
      <trkpt lat="41.8499" lon="9.10064">
        <ele>1075.8</ele>
        <time>2021-06-03T09:47:55Z</time>
      </trkpt>
      <trkpt lat="41.84988" lon="9.10064">
        <ele>1075.2</ele>
        <time>2021-06-03T09:47:56Z</time>
      </trkpt>
      <trkpt lat="41.84986" lon="9.10065">
        <ele>1075.4</ele>
        <time>2021-06-03T09:47:57Z</time>
      </trkpt>
      <trkpt lat="41.84983" lon="9.10065">
        <ele>1075.4</ele>
        <time>2021-06-03T09:47:58Z</time>
      </trkpt>
      <trkpt lat="41.84981" lon="9.10065">
        <ele>1075.4</ele>
        <time>2021-06-03T09:47:59Z</time>
      </trkpt>
      <trkpt lat="41.84978" lon="9.10065">
        <ele>1076</ele>
        <time>2021-06-03T09:48:00Z</time>
      </trkpt>
      <trkpt lat="41.84976" lon="9.10065">
        <ele>1076</ele>
        <time>2021-06-03T09:48:01Z</time>
      </trkpt>
      <trkpt lat="41.84973" lon="9.10065">
        <ele>1076</ele>
        <time>2021-06-03T09:48:02Z</time>
      </trkpt>
      <trkpt lat="41.84971" lon="9.10065">
        <ele>1076</ele>
        <time>2021-06-03T09:48:03Z</time>
      </trkpt>
      <trkpt lat="41.84968" lon="9.10064">
        <ele>1076</ele>
        <time>2021-06-03T09:48:04Z</time>
      </trkpt>
      <trkpt lat="41.84965" lon="9.10064">
        <ele>1076.2</ele>
        <time>2021-06-03T09:48:05Z</time>
      </trkpt>
      <trkpt lat="41.84963" lon="9.10065">
        <ele>1076.2</ele>
        <time>2021-06-03T09:48:06Z</time>
      </trkpt>
      <trkpt lat="41.8496" lon="9.10066">
        <ele>1076.2</ele>
        <time>2021-06-03T09:48:07Z</time>
      </trkpt>
      <trkpt lat="41.84957" lon="9.10066">
        <ele>1076.4</ele>
        <time>2021-06-03T09:48:08Z</time>
      </trkpt>
      <trkpt lat="41.84955" lon="9.10067">
        <ele>1076.2</ele>
        <time>2021-06-03T09:48:09Z</time>
      </trkpt>
      <trkpt lat="41.84952" lon="9.10068">
        <ele>1076.2</ele>
        <time>2021-06-03T09:48:10Z</time>
      </trkpt>
      <trkpt lat="41.84949" lon="9.10069">
        <ele>1076.2</ele>
        <time>2021-06-03T09:48:11Z</time>
      </trkpt>
      <trkpt lat="41.84947" lon="9.10069">
        <ele>1076.6</ele>
        <time>2021-06-03T09:48:12Z</time>
      </trkpt>
      <trkpt lat="41.84944" lon="9.1007">
        <ele>1076.8</ele>
        <time>2021-06-03T09:48:13Z</time>
      </trkpt>
      <trkpt lat="41.84942" lon="9.1007">
        <ele>1076.8</ele>
        <time>2021-06-03T09:48:14Z</time>
      </trkpt>
      <trkpt lat="41.84939" lon="9.10072">
        <ele>1076.8</ele>
        <time>2021-06-03T09:48:15Z</time>
      </trkpt>
      <trkpt lat="41.84936" lon="9.10073">
        <ele>1076.8</ele>
        <time>2021-06-03T09:48:16Z</time>
      </trkpt>
      <trkpt lat="41.84934" lon="9.10074">
        <ele>1077.6</ele>
        <time>2021-06-03T09:48:17Z</time>
      </trkpt>
      <trkpt lat="41.84931" lon="9.10075">
        <ele>1077.6</ele>
        <time>2021-06-03T09:48:18Z</time>
      </trkpt>
      <trkpt lat="41.84929" lon="9.10077">
        <ele>1077.6</ele>
        <time>2021-06-03T09:48:19Z</time>
      </trkpt>
      <trkpt lat="41.84927" lon="9.10078">
        <ele>1077.6</ele>
        <time>2021-06-03T09:48:20Z</time>
      </trkpt>
      <trkpt lat="41.84924" lon="9.10079">
        <ele>1077.8</ele>
        <time>2021-06-03T09:48:21Z</time>
      </trkpt>
      <trkpt lat="41.84922" lon="9.1008">
        <ele>1077.8</ele>
        <time>2021-06-03T09:48:22Z</time>
      </trkpt>
      <trkpt lat="41.8492" lon="9.10082">
        <ele>1077.8</ele>
        <time>2021-06-03T09:48:23Z</time>
      </trkpt>
      <trkpt lat="41.84917" lon="9.10083">
        <ele>1077.8</ele>
        <time>2021-06-03T09:48:24Z</time>
      </trkpt>
      <trkpt lat="41.84915" lon="9.10085">
        <ele>1077.8</ele>
        <time>2021-06-03T09:48:25Z</time>
      </trkpt>
      <trkpt lat="41.84913" lon="9.10087">
        <ele>1077.8</ele>
        <time>2021-06-03T09:48:26Z</time>
      </trkpt>
      <trkpt lat="41.8491" lon="9.10088">
        <ele>1077.8</ele>
        <time>2021-06-03T09:48:27Z</time>
      </trkpt>
      <trkpt lat="41.84908" lon="9.1009">
        <ele>1078.4</ele>
        <time>2021-06-03T09:48:28Z</time>
      </trkpt>
      <trkpt lat="41.84906" lon="9.10091">
        <ele>1078.4</ele>
        <time>2021-06-03T09:48:29Z</time>
      </trkpt>
      <trkpt lat="41.84903" lon="9.10093">
        <ele>1078.4</ele>
        <time>2021-06-03T09:48:30Z</time>
      </trkpt>
      <trkpt lat="41.84901" lon="9.10095">
        <ele>1078.4</ele>
        <time>2021-06-03T09:48:31Z</time>
      </trkpt>
      <trkpt lat="41.84898" lon="9.10096">
        <ele>1078.4</ele>
        <time>2021-06-03T09:48:32Z</time>
      </trkpt>
      <trkpt lat="41.84896" lon="9.10098">
        <ele>1078.8</ele>
        <time>2021-06-03T09:48:33Z</time>
      </trkpt>
      <trkpt lat="41.84894" lon="9.101">
        <ele>1078.8</ele>
        <time>2021-06-03T09:48:34Z</time>
      </trkpt>
      <trkpt lat="41.84891" lon="9.10102">
        <ele>1078.8</ele>
        <time>2021-06-03T09:48:35Z</time>
      </trkpt>
      <trkpt lat="41.84889" lon="9.10103">
        <ele>1078.8</ele>
        <time>2021-06-03T09:48:36Z</time>
      </trkpt>
      <trkpt lat="41.84886" lon="9.10105">
        <ele>1079</ele>
        <time>2021-06-03T09:48:37Z</time>
      </trkpt>
      <trkpt lat="41.84884" lon="9.10106">
        <ele>1079</ele>
        <time>2021-06-03T09:48:38Z</time>
      </trkpt>
      <trkpt lat="41.84881" lon="9.10107">
        <ele>1079</ele>
        <time>2021-06-03T09:48:39Z</time>
      </trkpt>
      <trkpt lat="41.84879" lon="9.10109">
        <ele>1079</ele>
        <time>2021-06-03T09:48:40Z</time>
      </trkpt>
      <trkpt lat="41.84876" lon="9.1011">
        <ele>1079</ele>
        <time>2021-06-03T09:48:41Z</time>
      </trkpt>
      <trkpt lat="41.84874" lon="9.10112">
        <ele>1079</ele>
        <time>2021-06-03T09:48:42Z</time>
      </trkpt>
      <trkpt lat="41.84871" lon="9.10113">
        <ele>1079</ele>
        <time>2021-06-03T09:48:43Z</time>
      </trkpt>
      <trkpt lat="41.84869" lon="9.10115">
        <ele>1079</ele>
        <time>2021-06-03T09:48:44Z</time>
      </trkpt>
      <trkpt lat="41.84866" lon="9.10116">
        <ele>1079.2</ele>
        <time>2021-06-03T09:48:45Z</time>
      </trkpt>
      <trkpt lat="41.84864" lon="9.10118">
        <ele>1079.2</ele>
        <time>2021-06-03T09:48:46Z</time>
      </trkpt>
      <trkpt lat="41.84862" lon="9.1012">
        <ele>1079.2</ele>
        <time>2021-06-03T09:48:47Z</time>
      </trkpt>
      <trkpt lat="41.84859" lon="9.10121">
        <ele>1079.2</ele>
        <time>2021-06-03T09:48:48Z</time>
      </trkpt>
      <trkpt lat="41.84857" lon="9.10123">
        <ele>1079.4</ele>
        <time>2021-06-03T09:48:49Z</time>
      </trkpt>
      <trkpt lat="41.84854" lon="9.10124">
        <ele>1079.4</ele>
        <time>2021-06-03T09:48:50Z</time>
      </trkpt>
      <trkpt lat="41.84852" lon="9.10126">
        <ele>1079.4</ele>
        <time>2021-06-03T09:48:51Z</time>
      </trkpt>
      <trkpt lat="41.84849" lon="9.10127">
        <ele>1079.4</ele>
        <time>2021-06-03T09:48:52Z</time>
      </trkpt>
      <trkpt lat="41.84847" lon="9.10129">
        <ele>1079.8</ele>
        <time>2021-06-03T09:48:53Z</time>
      </trkpt>
      <trkpt lat="41.84844" lon="9.1013">
        <ele>1079.8</ele>
        <time>2021-06-03T09:48:54Z</time>
      </trkpt>
      <trkpt lat="41.84842" lon="9.10132">
        <ele>1079.8</ele>
        <time>2021-06-03T09:48:55Z</time>
      </trkpt>
      <trkpt lat="41.84839" lon="9.10133">
        <ele>1079.8</ele>
        <time>2021-06-03T09:48:56Z</time>
      </trkpt>
      <trkpt lat="41.84836" lon="9.10135">
        <ele>1079.6</ele>
        <time>2021-06-03T09:48:57Z</time>
      </trkpt>
      <trkpt lat="41.84834" lon="9.10136">
        <ele>1079.6</ele>
        <time>2021-06-03T09:48:58Z</time>
      </trkpt>
      <trkpt lat="41.84831" lon="9.10138">
        <ele>1079.6</ele>
        <time>2021-06-03T09:48:59Z</time>
      </trkpt>
      <trkpt lat="41.84828" lon="9.1014">
        <ele>1079.6</ele>
        <time>2021-06-03T09:49:00Z</time>
      </trkpt>
      <trkpt lat="41.84825" lon="9.10141">
        <ele>1080</ele>
        <time>2021-06-03T09:49:01Z</time>
      </trkpt>
      <trkpt lat="41.84822" lon="9.10143">
        <ele>1080</ele>
        <time>2021-06-03T09:49:02Z</time>
      </trkpt>
      <trkpt lat="41.84819" lon="9.10143">
        <ele>1080</ele>
        <time>2021-06-03T09:49:03Z</time>
      </trkpt>
      <trkpt lat="41.84816" lon="9.10143">
        <ele>1079.8</ele>
        <time>2021-06-03T09:49:04Z</time>
      </trkpt>
      <trkpt lat="41.84813" lon="9.10143">
        <ele>1080.2</ele>
        <time>2021-06-03T09:49:05Z</time>
      </trkpt>
      <trkpt lat="41.8481" lon="9.10143">
        <ele>1080.2</ele>
        <time>2021-06-03T09:49:06Z</time>
      </trkpt>
      <trkpt lat="41.84807" lon="9.10141">
        <ele>1080.2</ele>
        <time>2021-06-03T09:49:07Z</time>
      </trkpt>
      <trkpt lat="41.84804" lon="9.1014">
        <ele>1080.2</ele>
        <time>2021-06-03T09:49:08Z</time>
      </trkpt>
      <trkpt lat="41.84802" lon="9.10139">
        <ele>1080.2</ele>
        <time>2021-06-03T09:49:09Z</time>
      </trkpt>
      <trkpt lat="41.84799" lon="9.10137">
        <ele>1080.2</ele>
        <time>2021-06-03T09:49:10Z</time>
      </trkpt>
      <trkpt lat="41.84796" lon="9.10135">
        <ele>1080.2</ele>
        <time>2021-06-03T09:49:11Z</time>
      </trkpt>
      <trkpt lat="41.84793" lon="9.10133">
        <ele>1080.2</ele>
        <time>2021-06-03T09:49:12Z</time>
      </trkpt>
      <trkpt lat="41.8479" lon="9.10131">
        <ele>1080</ele>
        <time>2021-06-03T09:49:13Z</time>
      </trkpt>
      <trkpt lat="41.84787" lon="9.10129">
        <ele>1080</ele>
        <time>2021-06-03T09:49:14Z</time>
      </trkpt>
      <trkpt lat="41.84785" lon="9.10127">
        <ele>1080</ele>
        <time>2021-06-03T09:49:15Z</time>
      </trkpt>
      <trkpt lat="41.84782" lon="9.10125">
        <ele>1080</ele>
        <time>2021-06-03T09:49:16Z</time>
      </trkpt>
      <trkpt lat="41.84779" lon="9.10123">
        <ele>1081.2</ele>
        <time>2021-06-03T09:49:17Z</time>
      </trkpt>
      <trkpt lat="41.84776" lon="9.10121">
        <ele>1081.2</ele>
        <time>2021-06-03T09:49:18Z</time>
      </trkpt>
      <trkpt lat="41.84773" lon="9.1012">
        <ele>1081.2</ele>
        <time>2021-06-03T09:49:19Z</time>
      </trkpt>
      <trkpt lat="41.84771" lon="9.10119">
        <ele>1081.6</ele>
        <time>2021-06-03T09:49:20Z</time>
      </trkpt>
      <trkpt lat="41.84768" lon="9.10118">
        <ele>1081.4</ele>
        <time>2021-06-03T09:49:21Z</time>
      </trkpt>
      <trkpt lat="41.84765" lon="9.10118">
        <ele>1081.4</ele>
        <time>2021-06-03T09:49:22Z</time>
      </trkpt>
      <trkpt lat="41.84762" lon="9.10118">
        <ele>1081.4</ele>
        <time>2021-06-03T09:49:23Z</time>
      </trkpt>
      <trkpt lat="41.84759" lon="9.10118">
        <ele>1081.8</ele>
        <time>2021-06-03T09:49:24Z</time>
      </trkpt>
      <trkpt lat="41.84756" lon="9.10118">
        <ele>1081.8</ele>
        <time>2021-06-03T09:49:25Z</time>
      </trkpt>
      <trkpt lat="41.84753" lon="9.10119">
        <ele>1081.8</ele>
        <time>2021-06-03T09:49:26Z</time>
      </trkpt>
      <trkpt lat="41.8475" lon="9.10119">
        <ele>1081.8</ele>
        <time>2021-06-03T09:49:27Z</time>
      </trkpt>
      <trkpt lat="41.84747" lon="9.1012">
        <ele>1081.8</ele>
        <time>2021-06-03T09:49:28Z</time>
      </trkpt>
      <trkpt lat="41.84744" lon="9.10121">
        <ele>1082.6</ele>
        <time>2021-06-03T09:49:29Z</time>
      </trkpt>
      <trkpt lat="41.84741" lon="9.10122">
        <ele>1082.6</ele>
        <time>2021-06-03T09:49:30Z</time>
      </trkpt>
      <trkpt lat="41.84739" lon="9.10123">
        <ele>1082.6</ele>
        <time>2021-06-03T09:49:31Z</time>
      </trkpt>
      <trkpt lat="41.84736" lon="9.10124">
        <ele>1082.6</ele>
        <time>2021-06-03T09:49:32Z</time>
      </trkpt>
      <trkpt lat="41.84733" lon="9.10125">
        <ele>1082.6</ele>
        <time>2021-06-03T09:49:33Z</time>
      </trkpt>
      <trkpt lat="41.84731" lon="9.10126">
        <ele>1082.6</ele>
        <time>2021-06-03T09:49:34Z</time>
      </trkpt>
      <trkpt lat="41.84728" lon="9.10127">
        <ele>1082.6</ele>
        <time>2021-06-03T09:49:35Z</time>
      </trkpt>
      <trkpt lat="41.84725" lon="9.10127">
        <ele>1082.6</ele>
        <time>2021-06-03T09:49:36Z</time>
      </trkpt>
      <trkpt lat="41.84722" lon="9.10127">
        <ele>1083</ele>
        <time>2021-06-03T09:49:37Z</time>
      </trkpt>
      <trkpt lat="41.8472" lon="9.10126">
        <ele>1083</ele>
        <time>2021-06-03T09:49:38Z</time>
      </trkpt>
      <trkpt lat="41.84717" lon="9.10125">
        <ele>1083</ele>
        <time>2021-06-03T09:49:39Z</time>
      </trkpt>
      <trkpt lat="41.84714" lon="9.10124">
        <ele>1083.2</ele>
        <time>2021-06-03T09:49:40Z</time>
      </trkpt>
      <trkpt lat="41.84711" lon="9.10122">
        <ele>1083.6</ele>
        <time>2021-06-03T09:49:41Z</time>
      </trkpt>
      <trkpt lat="41.84709" lon="9.10119">
        <ele>1083.6</ele>
        <time>2021-06-03T09:49:42Z</time>
      </trkpt>
      <trkpt lat="41.84707" lon="9.10117">
        <ele>1083.6</ele>
        <time>2021-06-03T09:49:43Z</time>
      </trkpt>
      <trkpt lat="41.84705" lon="9.10114">
        <ele>1084.2</ele>
        <time>2021-06-03T09:49:44Z</time>
      </trkpt>
      <trkpt lat="41.84703" lon="9.10111">
        <ele>1084.2</ele>
        <time>2021-06-03T09:49:45Z</time>
      </trkpt>
      <trkpt lat="41.84702" lon="9.10108">
        <ele>1084.2</ele>
        <time>2021-06-03T09:49:46Z</time>
      </trkpt>
      <trkpt lat="41.847" lon="9.10104">
        <ele>1084.2</ele>
        <time>2021-06-03T09:49:47Z</time>
      </trkpt>
      <trkpt lat="41.847" lon="9.101">
        <ele>1084.2</ele>
        <time>2021-06-03T09:49:48Z</time>
      </trkpt>
      <trkpt lat="41.84699" lon="9.10097">
        <ele>1084</ele>
        <time>2021-06-03T09:49:49Z</time>
      </trkpt>
      <trkpt lat="41.84699" lon="9.10093">
        <ele>1084</ele>
        <time>2021-06-03T09:49:50Z</time>
      </trkpt>
      <trkpt lat="41.84698" lon="9.1009">
        <ele>1084</ele>
        <time>2021-06-03T09:49:51Z</time>
      </trkpt>
      <trkpt lat="41.84698" lon="9.10086">
        <ele>1084.6</ele>
        <time>2021-06-03T09:49:52Z</time>
      </trkpt>
      <trkpt lat="41.84697" lon="9.10082">
        <ele>1084.4</ele>
        <time>2021-06-03T09:49:53Z</time>
      </trkpt>
      <trkpt lat="41.84697" lon="9.10079">
        <ele>1084.4</ele>
        <time>2021-06-03T09:49:54Z</time>
      </trkpt>
      <trkpt lat="41.84697" lon="9.10075">
        <ele>1084.4</ele>
        <time>2021-06-03T09:49:55Z</time>
      </trkpt>
      <trkpt lat="41.84696" lon="9.10072">
        <ele>1085</ele>
        <time>2021-06-03T09:49:56Z</time>
      </trkpt>
      <trkpt lat="41.84696" lon="9.10068">
        <ele>1084.8</ele>
        <time>2021-06-03T09:49:57Z</time>
      </trkpt>
      <trkpt lat="41.84696" lon="9.10064">
        <ele>1084.8</ele>
        <time>2021-06-03T09:49:58Z</time>
      </trkpt>
      <trkpt lat="41.84696" lon="9.1006">
        <ele>1084.8</ele>
        <time>2021-06-03T09:49:59Z</time>
      </trkpt>
      <trkpt lat="41.84695" lon="9.10057">
        <ele>1085.8</ele>
        <time>2021-06-03T09:50:00Z</time>
      </trkpt>
      <trkpt lat="41.84695" lon="9.10053">
        <ele>1085.6</ele>
        <time>2021-06-03T09:50:01Z</time>
      </trkpt>
      <trkpt lat="41.84694" lon="9.10049">
        <ele>1085.6</ele>
        <time>2021-06-03T09:50:02Z</time>
      </trkpt>
      <trkpt lat="41.84694" lon="9.10045">
        <ele>1085.6</ele>
        <time>2021-06-03T09:50:03Z</time>
      </trkpt>
      <trkpt lat="41.84693" lon="9.10042">
        <ele>1085.6</ele>
        <time>2021-06-03T09:50:04Z</time>
      </trkpt>
      <trkpt lat="41.84693" lon="9.10038">
        <ele>1085.2</ele>
        <time>2021-06-03T09:50:05Z</time>
      </trkpt>
      <trkpt lat="41.84692" lon="9.10035">
        <ele>1085.2</ele>
        <time>2021-06-03T09:50:06Z</time>
      </trkpt>
      <trkpt lat="41.84691" lon="9.10031">
        <ele>1085.2</ele>
        <time>2021-06-03T09:50:07Z</time>
      </trkpt>
      <trkpt lat="41.84691" lon="9.10027">
        <ele>1085.8</ele>
        <time>2021-06-03T09:50:08Z</time>
      </trkpt>
      <trkpt lat="41.8469" lon="9.10023">
        <ele>1085.4</ele>
        <time>2021-06-03T09:50:09Z</time>
      </trkpt>
      <trkpt lat="41.84689" lon="9.10019">
        <ele>1085.4</ele>
        <time>2021-06-03T09:50:10Z</time>
      </trkpt>
      <trkpt lat="41.84688" lon="9.10016">
        <ele>1085.4</ele>
        <time>2021-06-03T09:50:11Z</time>
      </trkpt>
      <trkpt lat="41.84687" lon="9.10012">
        <ele>1086.4</ele>
        <time>2021-06-03T09:50:12Z</time>
      </trkpt>
      <trkpt lat="41.84686" lon="9.10008">
        <ele>1086.4</ele>
        <time>2021-06-03T09:50:13Z</time>
      </trkpt>
      <trkpt lat="41.84685" lon="9.10005">
        <ele>1086.4</ele>
        <time>2021-06-03T09:50:14Z</time>
      </trkpt>
      <trkpt lat="41.84683" lon="9.10001">
        <ele>1086.4</ele>
        <time>2021-06-03T09:50:15Z</time>
      </trkpt>
      <trkpt lat="41.84682" lon="9.09998">
        <ele>1086.4</ele>
        <time>2021-06-03T09:50:16Z</time>
      </trkpt>
      <trkpt lat="41.8468" lon="9.09995">
        <ele>1086.2</ele>
        <time>2021-06-03T09:50:17Z</time>
      </trkpt>
      <trkpt lat="41.84679" lon="9.09992">
        <ele>1086.2</ele>
        <time>2021-06-03T09:50:18Z</time>
      </trkpt>
      <trkpt lat="41.84677" lon="9.09988">
        <ele>1086.2</ele>
        <time>2021-06-03T09:50:19Z</time>
      </trkpt>
      <trkpt lat="41.84675" lon="9.09985">
        <ele>1087</ele>
        <time>2021-06-03T09:50:20Z</time>
      </trkpt>
      <trkpt lat="41.84674" lon="9.09981">
        <ele>1086.8</ele>
        <time>2021-06-03T09:50:21Z</time>
      </trkpt>
      <trkpt lat="41.84672" lon="9.09978">
        <ele>1086.8</ele>
        <time>2021-06-03T09:50:22Z</time>
      </trkpt>
      <trkpt lat="41.84671" lon="9.09974">
        <ele>1086.8</ele>
        <time>2021-06-03T09:50:23Z</time>
      </trkpt>
      <trkpt lat="41.84669" lon="9.0997">
        <ele>1086.8</ele>
        <time>2021-06-03T09:50:24Z</time>
      </trkpt>
      <trkpt lat="41.84668" lon="9.09966">
        <ele>1087.4</ele>
        <time>2021-06-03T09:50:25Z</time>
      </trkpt>
      <trkpt lat="41.84668" lon="9.09962">
        <ele>1087.4</ele>
        <time>2021-06-03T09:50:26Z</time>
      </trkpt>
      <trkpt lat="41.84667" lon="9.09958">
        <ele>1087.4</ele>
        <time>2021-06-03T09:50:27Z</time>
      </trkpt>
      <trkpt lat="41.84666" lon="9.09954">
        <ele>1087</ele>
        <time>2021-06-03T09:50:28Z</time>
      </trkpt>
      <trkpt lat="41.84666" lon="9.0995">
        <ele>1087</ele>
        <time>2021-06-03T09:50:29Z</time>
      </trkpt>
      <trkpt lat="41.84666" lon="9.09946">
        <ele>1087</ele>
        <time>2021-06-03T09:50:30Z</time>
      </trkpt>
      <trkpt lat="41.84666" lon="9.09942">
        <ele>1087</ele>
        <time>2021-06-03T09:50:31Z</time>
      </trkpt>
      <trkpt lat="41.84665" lon="9.09938">
        <ele>1087.4</ele>
        <time>2021-06-03T09:50:32Z</time>
      </trkpt>
      <trkpt lat="41.84665" lon="9.09934">
        <ele>1087.6</ele>
        <time>2021-06-03T09:50:33Z</time>
      </trkpt>
      <trkpt lat="41.84665" lon="9.09931">
        <ele>1087.6</ele>
        <time>2021-06-03T09:50:34Z</time>
      </trkpt>
      <trkpt lat="41.84666" lon="9.09927">
        <ele>1087.6</ele>
        <time>2021-06-03T09:50:35Z</time>
      </trkpt>
      <trkpt lat="41.84666" lon="9.09923">
        <ele>1088.2</ele>
        <time>2021-06-03T09:50:36Z</time>
      </trkpt>
      <trkpt lat="41.84666" lon="9.09919">
        <ele>1088.4</ele>
        <time>2021-06-03T09:50:37Z</time>
      </trkpt>
      <trkpt lat="41.84666" lon="9.09915">
        <ele>1088.4</ele>
        <time>2021-06-03T09:50:38Z</time>
      </trkpt>
      <trkpt lat="41.84666" lon="9.09911">
        <ele>1088.4</ele>
        <time>2021-06-03T09:50:39Z</time>
      </trkpt>
      <trkpt lat="41.84665" lon="9.09907">
        <ele>1088.4</ele>
        <time>2021-06-03T09:50:40Z</time>
      </trkpt>
      <trkpt lat="41.84665" lon="9.09903">
        <ele>1089</ele>
        <time>2021-06-03T09:50:41Z</time>
      </trkpt>
      <trkpt lat="41.84665" lon="9.09899">
        <ele>1089</ele>
        <time>2021-06-03T09:50:42Z</time>
      </trkpt>
      <trkpt lat="41.84665" lon="9.09895">
        <ele>1089</ele>
        <time>2021-06-03T09:50:43Z</time>
      </trkpt>
      <trkpt lat="41.84665" lon="9.09892">
        <ele>1089.2</ele>
        <time>2021-06-03T09:50:44Z</time>
      </trkpt>
      <trkpt lat="41.84664" lon="9.09888">
        <ele>1089.8</ele>
        <time>2021-06-03T09:50:45Z</time>
      </trkpt>
      <trkpt lat="41.84664" lon="9.09884">
        <ele>1089.8</ele>
        <time>2021-06-03T09:50:46Z</time>
      </trkpt>
      <trkpt lat="41.84663" lon="9.0988">
        <ele>1089.8</ele>
        <time>2021-06-03T09:50:47Z</time>
      </trkpt>
      <trkpt lat="41.84662" lon="9.09877">
        <ele>1090</ele>
        <time>2021-06-03T09:50:48Z</time>
      </trkpt>
      <trkpt lat="41.84661" lon="9.09873">
        <ele>1090.6</ele>
        <time>2021-06-03T09:50:49Z</time>
      </trkpt>
      <trkpt lat="41.84661" lon="9.09869">
        <ele>1090.6</ele>
        <time>2021-06-03T09:50:50Z</time>
      </trkpt>
      <trkpt lat="41.84659" lon="9.09866">
        <ele>1090.6</ele>
        <time>2021-06-03T09:50:51Z</time>
      </trkpt>
      <trkpt lat="41.84658" lon="9.09862">
        <ele>1090.6</ele>
        <time>2021-06-03T09:50:52Z</time>
      </trkpt>
      <trkpt lat="41.84657" lon="9.09858">
        <ele>1091</ele>
        <time>2021-06-03T09:50:53Z</time>
      </trkpt>
      <trkpt lat="41.84655" lon="9.09855">
        <ele>1091</ele>
        <time>2021-06-03T09:50:54Z</time>
      </trkpt>
      <trkpt lat="41.84653" lon="9.09852">
        <ele>1091</ele>
        <time>2021-06-03T09:50:55Z</time>
      </trkpt>
      <trkpt lat="41.84651" lon="9.09849">
        <ele>1091</ele>
        <time>2021-06-03T09:50:56Z</time>
      </trkpt>
      <trkpt lat="41.8465" lon="9.09846">
        <ele>1090.6</ele>
        <time>2021-06-03T09:50:57Z</time>
      </trkpt>
      <trkpt lat="41.84648" lon="9.09843">
        <ele>1090.6</ele>
        <time>2021-06-03T09:50:58Z</time>
      </trkpt>
      <trkpt lat="41.84646" lon="9.0984">
        <ele>1090.6</ele>
        <time>2021-06-03T09:50:59Z</time>
      </trkpt>
      <trkpt lat="41.84643" lon="9.09837">
        <ele>1091.4</ele>
        <time>2021-06-03T09:51:00Z</time>
      </trkpt>
      <trkpt lat="41.84641" lon="9.09835">
        <ele>1091.2</ele>
        <time>2021-06-03T09:51:01Z</time>
      </trkpt>
      <trkpt lat="41.84639" lon="9.09832">
        <ele>1091.2</ele>
        <time>2021-06-03T09:51:02Z</time>
      </trkpt>
      <trkpt lat="41.84636" lon="9.0983">
        <ele>1091.2</ele>
        <time>2021-06-03T09:51:03Z</time>
      </trkpt>
      <trkpt lat="41.84634" lon="9.09828">
        <ele>1091.4</ele>
        <time>2021-06-03T09:51:04Z</time>
      </trkpt>
      <trkpt lat="41.84632" lon="9.09826">
        <ele>1091.2</ele>
        <time>2021-06-03T09:51:05Z</time>
      </trkpt>
      <trkpt lat="41.84629" lon="9.09824">
        <ele>1091.2</ele>
        <time>2021-06-03T09:51:06Z</time>
      </trkpt>
      <trkpt lat="41.84627" lon="9.09822">
        <ele>1091.2</ele>
        <time>2021-06-03T09:51:07Z</time>
      </trkpt>
      <trkpt lat="41.84624" lon="9.09821">
        <ele>1092</ele>
        <time>2021-06-03T09:51:08Z</time>
      </trkpt>
      <trkpt lat="41.84622" lon="9.09819">
        <ele>1092.2</ele>
        <time>2021-06-03T09:51:09Z</time>
      </trkpt>
      <trkpt lat="41.84619" lon="9.09818">
        <ele>1092.2</ele>
        <time>2021-06-03T09:51:10Z</time>
      </trkpt>
      <trkpt lat="41.84616" lon="9.09817">
        <ele>1092.2</ele>
        <time>2021-06-03T09:51:11Z</time>
      </trkpt>
      <trkpt lat="41.84613" lon="9.09816">
        <ele>1092.2</ele>
        <time>2021-06-03T09:51:12Z</time>
      </trkpt>
      <trkpt lat="41.8461" lon="9.09815">
        <ele>1092.6</ele>
        <time>2021-06-03T09:51:13Z</time>
      </trkpt>
      <trkpt lat="41.84607" lon="9.09814">
        <ele>1092.6</ele>
        <time>2021-06-03T09:51:14Z</time>
      </trkpt>
      <trkpt lat="41.84604" lon="9.09814">
        <ele>1092.6</ele>
        <time>2021-06-03T09:51:15Z</time>
      </trkpt>
      <trkpt lat="41.84601" lon="9.09813">
        <ele>1092.6</ele>
        <time>2021-06-03T09:51:16Z</time>
      </trkpt>
      <trkpt lat="41.84598" lon="9.09812">
        <ele>1093.8</ele>
        <time>2021-06-03T09:51:17Z</time>
      </trkpt>
      <trkpt lat="41.84596" lon="9.09811">
        <ele>1093.8</ele>
        <time>2021-06-03T09:51:18Z</time>
      </trkpt>
      <trkpt lat="41.84593" lon="9.09809">
        <ele>1093.8</ele>
        <time>2021-06-03T09:51:19Z</time>
      </trkpt>
      <trkpt lat="41.8459" lon="9.09808">
        <ele>1093.8</ele>
        <time>2021-06-03T09:51:20Z</time>
      </trkpt>
      <trkpt lat="41.84588" lon="9.09807">
        <ele>1093.4</ele>
        <time>2021-06-03T09:51:21Z</time>
      </trkpt>
      <trkpt lat="41.84585" lon="9.09807">
        <ele>1093.4</ele>
        <time>2021-06-03T09:51:22Z</time>
      </trkpt>
      <trkpt lat="41.84581" lon="9.09806">
        <ele>1093.4</ele>
        <time>2021-06-03T09:51:23Z</time>
      </trkpt>
      <trkpt lat="41.84578" lon="9.09806">
        <ele>1094.2</ele>
        <time>2021-06-03T09:51:24Z</time>
      </trkpt>
      <trkpt lat="41.84576" lon="9.09805">
        <ele>1094.2</ele>
        <time>2021-06-03T09:51:25Z</time>
      </trkpt>
      <trkpt lat="41.84573" lon="9.09805">
        <ele>1094.2</ele>
        <time>2021-06-03T09:51:26Z</time>
      </trkpt>
      <trkpt lat="41.8457" lon="9.09805">
        <ele>1094.2</ele>
        <time>2021-06-03T09:51:27Z</time>
      </trkpt>
      <trkpt lat="41.84566" lon="9.09805">
        <ele>1094.2</ele>
        <time>2021-06-03T09:51:28Z</time>
      </trkpt>
      <trkpt lat="41.84563" lon="9.09806">
        <ele>1094.6</ele>
        <time>2021-06-03T09:51:29Z</time>
      </trkpt>
      <trkpt lat="41.8456" lon="9.09807">
        <ele>1094.6</ele>
        <time>2021-06-03T09:51:30Z</time>
      </trkpt>
      <trkpt lat="41.84557" lon="9.09808">
        <ele>1094.6</ele>
        <time>2021-06-03T09:51:31Z</time>
      </trkpt>
      <trkpt lat="41.84554" lon="9.09808">
        <ele>1094.8</ele>
        <time>2021-06-03T09:51:32Z</time>
      </trkpt>
      <trkpt lat="41.84551" lon="9.09807">
        <ele>1094.8</ele>
        <time>2021-06-03T09:51:33Z</time>
      </trkpt>
      <trkpt lat="41.84548" lon="9.09808">
        <ele>1094.8</ele>
        <time>2021-06-03T09:51:34Z</time>
      </trkpt>
      <trkpt lat="41.84545" lon="9.09807">
        <ele>1094.8</ele>
        <time>2021-06-03T09:51:35Z</time>
      </trkpt>
      <trkpt lat="41.84542" lon="9.09807">
        <ele>1094.8</ele>
        <time>2021-06-03T09:51:36Z</time>
      </trkpt>
      <trkpt lat="41.84539" lon="9.09806">
        <ele>1094.6</ele>
        <time>2021-06-03T09:51:37Z</time>
      </trkpt>
      <trkpt lat="41.84536" lon="9.09807">
        <ele>1094.6</ele>
        <time>2021-06-03T09:51:38Z</time>
      </trkpt>
      <trkpt lat="41.84533" lon="9.09806">
        <ele>1094.6</ele>
        <time>2021-06-03T09:51:39Z</time>
      </trkpt>
      <trkpt lat="41.8453" lon="9.09806">
        <ele>1094.6</ele>
        <time>2021-06-03T09:51:40Z</time>
      </trkpt>
      <trkpt lat="41.84527" lon="9.09806">
        <ele>1094.2</ele>
        <time>2021-06-03T09:51:41Z</time>
      </trkpt>
      <trkpt lat="41.84525" lon="9.09806">
        <ele>1094.2</ele>
        <time>2021-06-03T09:51:42Z</time>
      </trkpt>
      <trkpt lat="41.84521" lon="9.09807">
        <ele>1094.2</ele>
        <time>2021-06-03T09:51:43Z</time>
      </trkpt>
      <trkpt lat="41.84518" lon="9.09806">
        <ele>1094.2</ele>
        <time>2021-06-03T09:51:44Z</time>
      </trkpt>
      <trkpt lat="41.84515" lon="9.09806">
        <ele>1095</ele>
        <time>2021-06-03T09:51:45Z</time>
      </trkpt>
      <trkpt lat="41.84513" lon="9.09806">
        <ele>1095</ele>
        <time>2021-06-03T09:51:46Z</time>
      </trkpt>
      <trkpt lat="41.8451" lon="9.09806">
        <ele>1095</ele>
        <time>2021-06-03T09:51:47Z</time>
      </trkpt>
      <trkpt lat="41.84507" lon="9.09805">
        <ele>1095</ele>
        <time>2021-06-03T09:51:48Z</time>
      </trkpt>
      <trkpt lat="41.84504" lon="9.09803">
        <ele>1095</ele>
        <time>2021-06-03T09:51:49Z</time>
      </trkpt>
      <trkpt lat="41.84501" lon="9.09801">
        <ele>1095</ele>
        <time>2021-06-03T09:51:50Z</time>
      </trkpt>
      <trkpt lat="41.84499" lon="9.098">
        <ele>1095</ele>
        <time>2021-06-03T09:51:51Z</time>
      </trkpt>
      <trkpt lat="41.84496" lon="9.09798">
        <ele>1094.4</ele>
        <time>2021-06-03T09:51:52Z</time>
      </trkpt>
      <trkpt lat="41.84494" lon="9.09797">
        <ele>1094.8</ele>
        <time>2021-06-03T09:51:53Z</time>
      </trkpt>
      <trkpt lat="41.84491" lon="9.09796">
        <ele>1094.8</ele>
        <time>2021-06-03T09:51:54Z</time>
      </trkpt>
      <trkpt lat="41.84488" lon="9.09794">
        <ele>1094.8</ele>
        <time>2021-06-03T09:51:55Z</time>
      </trkpt>
      <trkpt lat="41.84486" lon="9.09792">
        <ele>1094.8</ele>
        <time>2021-06-03T09:51:56Z</time>
      </trkpt>
      <trkpt lat="41.84484" lon="9.09789">
        <ele>1095.2</ele>
        <time>2021-06-03T09:51:57Z</time>
      </trkpt>
      <trkpt lat="41.84482" lon="9.09787">
        <ele>1095.2</ele>
        <time>2021-06-03T09:51:58Z</time>
      </trkpt>
      <trkpt lat="41.8448" lon="9.09784">
        <ele>1095.2</ele>
        <time>2021-06-03T09:51:59Z</time>
      </trkpt>
      <trkpt lat="41.84479" lon="9.0978">
        <ele>1095.2</ele>
        <time>2021-06-03T09:52:00Z</time>
      </trkpt>
      <trkpt lat="41.84477" lon="9.09777">
        <ele>1095.4</ele>
        <time>2021-06-03T09:52:01Z</time>
      </trkpt>
      <trkpt lat="41.84476" lon="9.09773">
        <ele>1095.4</ele>
        <time>2021-06-03T09:52:02Z</time>
      </trkpt>
      <trkpt lat="41.84475" lon="9.0977">
        <ele>1095.4</ele>
        <time>2021-06-03T09:52:03Z</time>
      </trkpt>
      <trkpt lat="41.84474" lon="9.09767">
        <ele>1096.2</ele>
        <time>2021-06-03T09:52:04Z</time>
      </trkpt>
      <trkpt lat="41.84474" lon="9.09763">
        <ele>1096.2</ele>
        <time>2021-06-03T09:52:05Z</time>
      </trkpt>
      <trkpt lat="41.84473" lon="9.0976">
        <ele>1096.2</ele>
        <time>2021-06-03T09:52:06Z</time>
      </trkpt>
      <trkpt lat="41.84473" lon="9.09756">
        <ele>1096.2</ele>
        <time>2021-06-03T09:52:07Z</time>
      </trkpt>
      <trkpt lat="41.84472" lon="9.09753">
        <ele>1096.2</ele>
        <time>2021-06-03T09:52:08Z</time>
      </trkpt>
      <trkpt lat="41.84471" lon="9.0975">
        <ele>1096.6</ele>
        <time>2021-06-03T09:52:09Z</time>
      </trkpt>
      <trkpt lat="41.8447" lon="9.09746">
        <ele>1096.6</ele>
        <time>2021-06-03T09:52:10Z</time>
      </trkpt>
      <trkpt lat="41.84469" lon="9.09742">
        <ele>1096.6</ele>
        <time>2021-06-03T09:52:11Z</time>
      </trkpt>
      <trkpt lat="41.84468" lon="9.09739">
        <ele>1096.6</ele>
        <time>2021-06-03T09:52:12Z</time>
      </trkpt>
      <trkpt lat="41.84467" lon="9.09735">
        <ele>1096.4</ele>
        <time>2021-06-03T09:52:13Z</time>
      </trkpt>
      <trkpt lat="41.84466" lon="9.09731">
        <ele>1096.4</ele>
        <time>2021-06-03T09:52:14Z</time>
      </trkpt>
      <trkpt lat="41.84465" lon="9.09727">
        <ele>1096.4</ele>
        <time>2021-06-03T09:52:15Z</time>
      </trkpt>
      <trkpt lat="41.84464" lon="9.09723">
        <ele>1095.8</ele>
        <time>2021-06-03T09:52:16Z</time>
      </trkpt>
      <trkpt lat="41.84462" lon="9.0972">
        <ele>1095.6</ele>
        <time>2021-06-03T09:52:17Z</time>
      </trkpt>
      <trkpt lat="41.84461" lon="9.09717">
        <ele>1095.6</ele>
        <time>2021-06-03T09:52:18Z</time>
      </trkpt>
      <trkpt lat="41.84458" lon="9.09713">
        <ele>1095.6</ele>
        <time>2021-06-03T09:52:19Z</time>
      </trkpt>
      <trkpt lat="41.84456" lon="9.09711">
        <ele>1096.6</ele>
        <time>2021-06-03T09:52:20Z</time>
      </trkpt>
      <trkpt lat="41.84453" lon="9.09709">
        <ele>1097</ele>
        <time>2021-06-03T09:52:21Z</time>
      </trkpt>
      <trkpt lat="41.8445" lon="9.09707">
        <ele>1097</ele>
        <time>2021-06-03T09:52:22Z</time>
      </trkpt>
      <trkpt lat="41.84448" lon="9.09706">
        <ele>1097</ele>
        <time>2021-06-03T09:52:23Z</time>
      </trkpt>
      <trkpt lat="41.84445" lon="9.09705">
        <ele>1097.8</ele>
        <time>2021-06-03T09:52:24Z</time>
      </trkpt>
      <trkpt lat="41.84442" lon="9.09705">
        <ele>1098</ele>
        <time>2021-06-03T09:52:25Z</time>
      </trkpt>
      <trkpt lat="41.84439" lon="9.09704">
        <ele>1098</ele>
        <time>2021-06-03T09:52:26Z</time>
      </trkpt>
      <trkpt lat="41.84436" lon="9.09704">
        <ele>1098</ele>
        <time>2021-06-03T09:52:27Z</time>
      </trkpt>
      <trkpt lat="41.84433" lon="9.09703">
        <ele>1098.6</ele>
        <time>2021-06-03T09:52:28Z</time>
      </trkpt>
      <trkpt lat="41.84429" lon="9.09702">
        <ele>1098.2</ele>
        <time>2021-06-03T09:52:29Z</time>
      </trkpt>
      <trkpt lat="41.84426" lon="9.09701">
        <ele>1098.2</ele>
        <time>2021-06-03T09:52:30Z</time>
      </trkpt>
      <trkpt lat="41.84423" lon="9.097">
        <ele>1098.2</ele>
        <time>2021-06-03T09:52:31Z</time>
      </trkpt>
      <trkpt lat="41.8442" lon="9.09698">
        <ele>1098.8</ele>
        <time>2021-06-03T09:52:32Z</time>
      </trkpt>
      <trkpt lat="41.84418" lon="9.09696">
        <ele>1098.4</ele>
        <time>2021-06-03T09:52:33Z</time>
      </trkpt>
      <trkpt lat="41.84416" lon="9.09693">
        <ele>1098.4</ele>
        <time>2021-06-03T09:52:34Z</time>
      </trkpt>
      <trkpt lat="41.84414" lon="9.0969">
        <ele>1098.4</ele>
        <time>2021-06-03T09:52:35Z</time>
      </trkpt>
      <trkpt lat="41.84412" lon="9.09687">
        <ele>1098.6</ele>
        <time>2021-06-03T09:52:36Z</time>
      </trkpt>
      <trkpt lat="41.84411" lon="9.09683">
        <ele>1099.2</ele>
        <time>2021-06-03T09:52:37Z</time>
      </trkpt>
      <trkpt lat="41.8441" lon="9.0968">
        <ele>1099.2</ele>
        <time>2021-06-03T09:52:38Z</time>
      </trkpt>
      <trkpt lat="41.84409" lon="9.09676">
        <ele>1099.2</ele>
        <time>2021-06-03T09:52:39Z</time>
      </trkpt>
      <trkpt lat="41.84408" lon="9.09672">
        <ele>1099.2</ele>
        <time>2021-06-03T09:52:40Z</time>
      </trkpt>
      <trkpt lat="41.84407" lon="9.09669">
        <ele>1099</ele>
        <time>2021-06-03T09:52:41Z</time>
      </trkpt>
      <trkpt lat="41.84405" lon="9.09665">
        <ele>1099</ele>
        <time>2021-06-03T09:52:42Z</time>
      </trkpt>
      <trkpt lat="41.84405" lon="9.09662">
        <ele>1099</ele>
        <time>2021-06-03T09:52:43Z</time>
      </trkpt>
      <trkpt lat="41.84403" lon="9.09658">
        <ele>1099.8</ele>
        <time>2021-06-03T09:52:44Z</time>
      </trkpt>
      <trkpt lat="41.84402" lon="9.09654">
        <ele>1099.4</ele>
        <time>2021-06-03T09:52:45Z</time>
      </trkpt>
      <trkpt lat="41.84401" lon="9.0965">
        <ele>1099.4</ele>
        <time>2021-06-03T09:52:46Z</time>
      </trkpt>
      <trkpt lat="41.844" lon="9.09647">
        <ele>1099.4</ele>
        <time>2021-06-03T09:52:47Z</time>
      </trkpt>
      <trkpt lat="41.84399" lon="9.09643">
        <ele>1100.4</ele>
        <time>2021-06-03T09:52:48Z</time>
      </trkpt>
      <trkpt lat="41.84397" lon="9.09639">
        <ele>1099.8</ele>
        <time>2021-06-03T09:52:49Z</time>
      </trkpt>
      <trkpt lat="41.84396" lon="9.09636">
        <ele>1099.8</ele>
        <time>2021-06-03T09:52:50Z</time>
      </trkpt>
      <trkpt lat="41.84394" lon="9.09632">
        <ele>1099.8</ele>
        <time>2021-06-03T09:52:51Z</time>
      </trkpt>
      <trkpt lat="41.84392" lon="9.09629">
        <ele>1100.2</ele>
        <time>2021-06-03T09:52:52Z</time>
      </trkpt>
      <trkpt lat="41.8439" lon="9.09626">
        <ele>1100</ele>
        <time>2021-06-03T09:52:53Z</time>
      </trkpt>
      <trkpt lat="41.84388" lon="9.09623">
        <ele>1100</ele>
        <time>2021-06-03T09:52:54Z</time>
      </trkpt>
      <trkpt lat="41.84386" lon="9.09621">
        <ele>1100</ele>
        <time>2021-06-03T09:52:55Z</time>
      </trkpt>
      <trkpt lat="41.84383" lon="9.09619">
        <ele>1100</ele>
        <time>2021-06-03T09:52:56Z</time>
      </trkpt>
      <trkpt lat="41.84381" lon="9.09617">
        <ele>1100.6</ele>
        <time>2021-06-03T09:52:57Z</time>
      </trkpt>
      <trkpt lat="41.84378" lon="9.09616">
        <ele>1100.6</ele>
        <time>2021-06-03T09:52:58Z</time>
      </trkpt>
      <trkpt lat="41.84375" lon="9.09615">
        <ele>1100.6</ele>
        <time>2021-06-03T09:52:59Z</time>
      </trkpt>
      <trkpt lat="41.84373" lon="9.09614">
        <ele>1100.6</ele>
        <time>2021-06-03T09:53:00Z</time>
      </trkpt>
      <trkpt lat="41.8437" lon="9.09612">
        <ele>1101.2</ele>
        <time>2021-06-03T09:53:01Z</time>
      </trkpt>
      <trkpt lat="41.84367" lon="9.09612">
        <ele>1101.2</ele>
        <time>2021-06-03T09:53:02Z</time>
      </trkpt>
      <trkpt lat="41.84364" lon="9.09611">
        <ele>1101.2</ele>
        <time>2021-06-03T09:53:03Z</time>
      </trkpt>
      <trkpt lat="41.84361" lon="9.0961">
        <ele>1101.2</ele>
        <time>2021-06-03T09:53:04Z</time>
      </trkpt>
      <trkpt lat="41.84359" lon="9.09609">
        <ele>1101.4</ele>
        <time>2021-06-03T09:53:05Z</time>
      </trkpt>
      <trkpt lat="41.84356" lon="9.09607">
        <ele>1101.4</ele>
        <time>2021-06-03T09:53:06Z</time>
      </trkpt>
      <trkpt lat="41.84353" lon="9.09606">
        <ele>1101.4</ele>
        <time>2021-06-03T09:53:07Z</time>
      </trkpt>
      <trkpt lat="41.84351" lon="9.09605">
        <ele>1101.6</ele>
        <time>2021-06-03T09:53:08Z</time>
      </trkpt>
      <trkpt lat="41.84348" lon="9.09603">
        <ele>1102.2</ele>
        <time>2021-06-03T09:53:09Z</time>
      </trkpt>
      <trkpt lat="41.84346" lon="9.09602">
        <ele>1102.2</ele>
        <time>2021-06-03T09:53:10Z</time>
      </trkpt>
      <trkpt lat="41.84343" lon="9.096">
        <ele>1102.2</ele>
        <time>2021-06-03T09:53:11Z</time>
      </trkpt>
      <trkpt lat="41.84341" lon="9.09599">
        <ele>1102.2</ele>
        <time>2021-06-03T09:53:12Z</time>
      </trkpt>
      <trkpt lat="41.84338" lon="9.09597">
        <ele>1102.4</ele>
        <time>2021-06-03T09:53:13Z</time>
      </trkpt>
      <trkpt lat="41.84336" lon="9.09594">
        <ele>1102.4</ele>
        <time>2021-06-03T09:53:14Z</time>
      </trkpt>
      <trkpt lat="41.84334" lon="9.09591">
        <ele>1102.4</ele>
        <time>2021-06-03T09:53:15Z</time>
      </trkpt>
      <trkpt lat="41.84332" lon="9.09589">
        <ele>1102.4</ele>
        <time>2021-06-03T09:53:16Z</time>
      </trkpt>
      <trkpt lat="41.84331" lon="9.09586">
        <ele>1102.6</ele>
        <time>2021-06-03T09:53:17Z</time>
      </trkpt>
      <trkpt lat="41.84329" lon="9.09583">
        <ele>1102.6</ele>
        <time>2021-06-03T09:53:18Z</time>
      </trkpt>
      <trkpt lat="41.84327" lon="9.0958">
        <ele>1102.6</ele>
        <time>2021-06-03T09:53:19Z</time>
      </trkpt>
      <trkpt lat="41.84325" lon="9.09577">
        <ele>1102.6</ele>
        <time>2021-06-03T09:53:20Z</time>
      </trkpt>
      <trkpt lat="41.84324" lon="9.09574">
        <ele>1103</ele>
        <time>2021-06-03T09:53:21Z</time>
      </trkpt>
      <trkpt lat="41.84322" lon="9.0957">
        <ele>1103</ele>
        <time>2021-06-03T09:53:22Z</time>
      </trkpt>
      <trkpt lat="41.84321" lon="9.09567">
        <ele>1103</ele>
        <time>2021-06-03T09:53:23Z</time>
      </trkpt>
      <trkpt lat="41.84319" lon="9.09564">
        <ele>1102.8</ele>
        <time>2021-06-03T09:53:24Z</time>
      </trkpt>
      <trkpt lat="41.84317" lon="9.09561">
        <ele>1102.6</ele>
        <time>2021-06-03T09:53:25Z</time>
      </trkpt>
      <trkpt lat="41.84316" lon="9.09558">
        <ele>1102.6</ele>
        <time>2021-06-03T09:53:26Z</time>
      </trkpt>
      <trkpt lat="41.84314" lon="9.09555">
        <ele>1102.6</ele>
        <time>2021-06-03T09:53:27Z</time>
      </trkpt>
      <trkpt lat="41.84312" lon="9.09552">
        <ele>1103.2</ele>
        <time>2021-06-03T09:53:28Z</time>
      </trkpt>
      <trkpt lat="41.84311" lon="9.09548">
        <ele>1103.4</ele>
        <time>2021-06-03T09:53:29Z</time>
      </trkpt>
      <trkpt lat="41.84309" lon="9.09545">
        <ele>1103.4</ele>
        <time>2021-06-03T09:53:30Z</time>
      </trkpt>
      <trkpt lat="41.84308" lon="9.09541">
        <ele>1103.4</ele>
        <time>2021-06-03T09:53:31Z</time>
      </trkpt>
      <trkpt lat="41.84307" lon="9.09537">
        <ele>1103.8</ele>
        <time>2021-06-03T09:53:32Z</time>
      </trkpt>
      <trkpt lat="41.84305" lon="9.09534">
        <ele>1104</ele>
        <time>2021-06-03T09:53:33Z</time>
      </trkpt>
      <trkpt lat="41.84304" lon="9.09531">
        <ele>1104</ele>
        <time>2021-06-03T09:53:34Z</time>
      </trkpt>
      <trkpt lat="41.84303" lon="9.09528">
        <ele>1104</ele>
        <time>2021-06-03T09:53:35Z</time>
      </trkpt>
      <trkpt lat="41.84301" lon="9.09524">
        <ele>1104</ele>
        <time>2021-06-03T09:53:36Z</time>
      </trkpt>
      <trkpt lat="41.843" lon="9.09521">
        <ele>1104</ele>
        <time>2021-06-03T09:53:37Z</time>
      </trkpt>
      <trkpt lat="41.84299" lon="9.09518">
        <ele>1104</ele>
        <time>2021-06-03T09:53:38Z</time>
      </trkpt>
      <trkpt lat="41.84298" lon="9.09515">
        <ele>1104</ele>
        <time>2021-06-03T09:53:39Z</time>
      </trkpt>
      <trkpt lat="41.84296" lon="9.09511">
        <ele>1104.8</ele>
        <time>2021-06-03T09:53:40Z</time>
      </trkpt>
      <trkpt lat="41.84295" lon="9.09508">
        <ele>1104.6</ele>
        <time>2021-06-03T09:53:41Z</time>
      </trkpt>
      <trkpt lat="41.84293" lon="9.09505">
        <ele>1104.6</ele>
        <time>2021-06-03T09:53:42Z</time>
      </trkpt>
      <trkpt lat="41.84291" lon="9.09502">
        <ele>1104.6</ele>
        <time>2021-06-03T09:53:43Z</time>
      </trkpt>
      <trkpt lat="41.84288" lon="9.095">
        <ele>1103.8</ele>
        <time>2021-06-03T09:53:44Z</time>
      </trkpt>
      <trkpt lat="41.84286" lon="9.09497">
        <ele>1104.2</ele>
        <time>2021-06-03T09:53:45Z</time>
      </trkpt>
      <trkpt lat="41.84284" lon="9.09494">
        <ele>1104.2</ele>
        <time>2021-06-03T09:53:46Z</time>
      </trkpt>
      <trkpt lat="41.84282" lon="9.09492">
        <ele>1104.2</ele>
        <time>2021-06-03T09:53:47Z</time>
      </trkpt>
      <trkpt lat="41.8428" lon="9.09488">
        <ele>1104.2</ele>
        <time>2021-06-03T09:53:48Z</time>
      </trkpt>
      <trkpt lat="41.84278" lon="9.09486">
        <ele>1105.4</ele>
        <time>2021-06-03T09:53:49Z</time>
      </trkpt>
      <trkpt lat="41.84276" lon="9.09483">
        <ele>1105.4</ele>
        <time>2021-06-03T09:53:50Z</time>
      </trkpt>
      <trkpt lat="41.84274" lon="9.09479">
        <ele>1105.4</ele>
        <time>2021-06-03T09:53:51Z</time>
      </trkpt>
      <trkpt lat="41.84272" lon="9.09476">
        <ele>1104.4</ele>
        <time>2021-06-03T09:53:52Z</time>
      </trkpt>
      <trkpt lat="41.8427" lon="9.09473">
        <ele>1104.4</ele>
        <time>2021-06-03T09:53:53Z</time>
      </trkpt>
      <trkpt lat="41.84269" lon="9.0947">
        <ele>1104.4</ele>
        <time>2021-06-03T09:53:54Z</time>
      </trkpt>
      <trkpt lat="41.84267" lon="9.09466">
        <ele>1104.4</ele>
        <time>2021-06-03T09:53:55Z</time>
      </trkpt>
      <trkpt lat="41.84266" lon="9.09463">
        <ele>1104.4</ele>
        <time>2021-06-03T09:53:56Z</time>
      </trkpt>
      <trkpt lat="41.84264" lon="9.0946">
        <ele>1104.8</ele>
        <time>2021-06-03T09:53:57Z</time>
      </trkpt>
      <trkpt lat="41.84262" lon="9.09457">
        <ele>1104.8</ele>
        <time>2021-06-03T09:53:58Z</time>
      </trkpt>
      <trkpt lat="41.8426" lon="9.09455">
        <ele>1104.8</ele>
        <time>2021-06-03T09:53:59Z</time>
      </trkpt>
      <trkpt lat="41.84258" lon="9.09452">
        <ele>1104.8</ele>
        <time>2021-06-03T09:54:00Z</time>
      </trkpt>
      <trkpt lat="41.84256" lon="9.09449">
        <ele>1105</ele>
        <time>2021-06-03T09:54:01Z</time>
      </trkpt>
      <trkpt lat="41.84254" lon="9.09447">
        <ele>1105</ele>
        <time>2021-06-03T09:54:02Z</time>
      </trkpt>
      <trkpt lat="41.84251" lon="9.09445">
        <ele>1105</ele>
        <time>2021-06-03T09:54:03Z</time>
      </trkpt>
      <trkpt lat="41.84249" lon="9.09443">
        <ele>1105</ele>
        <time>2021-06-03T09:54:04Z</time>
      </trkpt>
      <trkpt lat="41.84246" lon="9.09441">
        <ele>1105.2</ele>
        <time>2021-06-03T09:54:05Z</time>
      </trkpt>
      <trkpt lat="41.84243" lon="9.0944">
        <ele>1105.2</ele>
        <time>2021-06-03T09:54:06Z</time>
      </trkpt>
      <trkpt lat="41.8424" lon="9.09439">
        <ele>1105.2</ele>
        <time>2021-06-03T09:54:07Z</time>
      </trkpt>
      <trkpt lat="41.84237" lon="9.09438">
        <ele>1105.6</ele>
        <time>2021-06-03T09:54:08Z</time>
      </trkpt>
      <trkpt lat="41.84234" lon="9.09437">
        <ele>1105.8</ele>
        <time>2021-06-03T09:54:09Z</time>
      </trkpt>
      <trkpt lat="41.84231" lon="9.09437">
        <ele>1105.8</ele>
        <time>2021-06-03T09:54:10Z</time>
      </trkpt>
      <trkpt lat="41.84229" lon="9.09437">
        <ele>1105.8</ele>
        <time>2021-06-03T09:54:11Z</time>
      </trkpt>
      <trkpt lat="41.84226" lon="9.09437">
        <ele>1105.8</ele>
        <time>2021-06-03T09:54:12Z</time>
      </trkpt>
      <trkpt lat="41.84223" lon="9.09438">
        <ele>1105.6</ele>
        <time>2021-06-03T09:54:13Z</time>
      </trkpt>
      <trkpt lat="41.8422" lon="9.09438">
        <ele>1105.6</ele>
        <time>2021-06-03T09:54:14Z</time>
      </trkpt>
      <trkpt lat="41.84217" lon="9.09439">
        <ele>1105.6</ele>
        <time>2021-06-03T09:54:15Z</time>
      </trkpt>
      <trkpt lat="41.84215" lon="9.09439">
        <ele>1105.8</ele>
        <time>2021-06-03T09:54:16Z</time>
      </trkpt>
      <trkpt lat="41.84212" lon="9.0944">
        <ele>1106</ele>
        <time>2021-06-03T09:54:17Z</time>
      </trkpt>
      <trkpt lat="41.84209" lon="9.09441">
        <ele>1106</ele>
        <time>2021-06-03T09:54:18Z</time>
      </trkpt>
      <trkpt lat="41.84206" lon="9.09442">
        <ele>1106</ele>
        <time>2021-06-03T09:54:19Z</time>
      </trkpt>
      <trkpt lat="41.84204" lon="9.09443">
        <ele>1105.6</ele>
        <time>2021-06-03T09:54:20Z</time>
      </trkpt>
      <trkpt lat="41.84201" lon="9.09444">
        <ele>1105.4</ele>
        <time>2021-06-03T09:54:21Z</time>
      </trkpt>
      <trkpt lat="41.84198" lon="9.09445">
        <ele>1105.4</ele>
        <time>2021-06-03T09:54:22Z</time>
      </trkpt>
      <trkpt lat="41.84195" lon="9.09445">
        <ele>1105.4</ele>
        <time>2021-06-03T09:54:23Z</time>
      </trkpt>
      <trkpt lat="41.84193" lon="9.09446">
        <ele>1106.4</ele>
        <time>2021-06-03T09:54:24Z</time>
      </trkpt>
      <trkpt lat="41.8419" lon="9.09447">
        <ele>1106.4</ele>
        <time>2021-06-03T09:54:25Z</time>
      </trkpt>
      <trkpt lat="41.84187" lon="9.09447">
        <ele>1106.4</ele>
        <time>2021-06-03T09:54:26Z</time>
      </trkpt>
      <trkpt lat="41.84185" lon="9.09448">
        <ele>1106.4</ele>
        <time>2021-06-03T09:54:27Z</time>
      </trkpt>
      <trkpt lat="41.84182" lon="9.09449">
        <ele>1107.4</ele>
        <time>2021-06-03T09:54:28Z</time>
      </trkpt>
      <trkpt lat="41.84179" lon="9.09449">
        <ele>1107.2</ele>
        <time>2021-06-03T09:54:29Z</time>
      </trkpt>
      <trkpt lat="41.84177" lon="9.09451">
        <ele>1107.2</ele>
        <time>2021-06-03T09:54:30Z</time>
      </trkpt>
      <trkpt lat="41.84174" lon="9.09452">
        <ele>1107.2</ele>
        <time>2021-06-03T09:54:31Z</time>
      </trkpt>
      <trkpt lat="41.84171" lon="9.09452">
        <ele>1107.8</ele>
        <time>2021-06-03T09:54:32Z</time>
      </trkpt>
      <trkpt lat="41.84169" lon="9.09453">
        <ele>1107.8</ele>
        <time>2021-06-03T09:54:33Z</time>
      </trkpt>
      <trkpt lat="41.84166" lon="9.09453">
        <ele>1107.8</ele>
        <time>2021-06-03T09:54:34Z</time>
      </trkpt>
      <trkpt lat="41.84163" lon="9.09454">
        <ele>1107.8</ele>
        <time>2021-06-03T09:54:35Z</time>
      </trkpt>
      <trkpt lat="41.84161" lon="9.09455">
        <ele>1107.8</ele>
        <time>2021-06-03T09:54:36Z</time>
      </trkpt>
      <trkpt lat="41.84158" lon="9.09456">
        <ele>1108</ele>
        <time>2021-06-03T09:54:37Z</time>
      </trkpt>
      <trkpt lat="41.84155" lon="9.09456">
        <ele>1108</ele>
        <time>2021-06-03T09:54:38Z</time>
      </trkpt>
      <trkpt lat="41.84153" lon="9.09457">
        <ele>1108</ele>
        <time>2021-06-03T09:54:39Z</time>
      </trkpt>
      <trkpt lat="41.8415" lon="9.09458">
        <ele>1108.2</ele>
        <time>2021-06-03T09:54:40Z</time>
      </trkpt>
      <trkpt lat="41.84147" lon="9.0946">
        <ele>1108.4</ele>
        <time>2021-06-03T09:54:41Z</time>
      </trkpt>
      <trkpt lat="41.84145" lon="9.09461">
        <ele>1108.4</ele>
        <time>2021-06-03T09:54:42Z</time>
      </trkpt>
      <trkpt lat="41.84142" lon="9.09462">
        <ele>1108.4</ele>
        <time>2021-06-03T09:54:43Z</time>
      </trkpt>
      <trkpt lat="41.84139" lon="9.09463">
        <ele>1108.4</ele>
        <time>2021-06-03T09:54:44Z</time>
      </trkpt>
      <trkpt lat="41.84136" lon="9.09464">
        <ele>1108.8</ele>
        <time>2021-06-03T09:54:45Z</time>
      </trkpt>
      <trkpt lat="41.84134" lon="9.09465">
        <ele>1108.8</ele>
        <time>2021-06-03T09:54:46Z</time>
      </trkpt>
      <trkpt lat="41.84131" lon="9.09466">
        <ele>1108.8</ele>
        <time>2021-06-03T09:54:47Z</time>
      </trkpt>
      <trkpt lat="41.84128" lon="9.09467">
        <ele>1108.8</ele>
        <time>2021-06-03T09:54:48Z</time>
      </trkpt>
      <trkpt lat="41.84125" lon="9.09467">
        <ele>1109.2</ele>
        <time>2021-06-03T09:54:49Z</time>
      </trkpt>
      <trkpt lat="41.84122" lon="9.09468">
        <ele>1109.2</ele>
        <time>2021-06-03T09:54:50Z</time>
      </trkpt>
      <trkpt lat="41.84119" lon="9.09469">
        <ele>1109.2</ele>
        <time>2021-06-03T09:54:51Z</time>
      </trkpt>
      <trkpt lat="41.84117" lon="9.09469">
        <ele>1109.2</ele>
        <time>2021-06-03T09:54:52Z</time>
      </trkpt>
      <trkpt lat="41.84114" lon="9.0947">
        <ele>1109.4</ele>
        <time>2021-06-03T09:54:53Z</time>
      </trkpt>
      <trkpt lat="41.84111" lon="9.09471">
        <ele>1109.4</ele>
        <time>2021-06-03T09:54:54Z</time>
      </trkpt>
      <trkpt lat="41.84108" lon="9.09472">
        <ele>1109.4</ele>
        <time>2021-06-03T09:54:55Z</time>
      </trkpt>
      <trkpt lat="41.84105" lon="9.09473">
        <ele>1109.4</ele>
        <time>2021-06-03T09:54:56Z</time>
      </trkpt>
      <trkpt lat="41.84102" lon="9.09474">
        <ele>1109.4</ele>
        <time>2021-06-03T09:54:57Z</time>
      </trkpt>
      <trkpt lat="41.84099" lon="9.09474">
        <ele>1109.4</ele>
        <time>2021-06-03T09:54:58Z</time>
      </trkpt>
      <trkpt lat="41.84096" lon="9.09475">
        <ele>1109.4</ele>
        <time>2021-06-03T09:54:59Z</time>
      </trkpt>
      <trkpt lat="41.84093" lon="9.09475">
        <ele>1109.4</ele>
        <time>2021-06-03T09:55:00Z</time>
      </trkpt>
      <trkpt lat="41.8409" lon="9.09476">
        <ele>1109.8</ele>
        <time>2021-06-03T09:55:01Z</time>
      </trkpt>
      <trkpt lat="41.84088" lon="9.09478">
        <ele>1109.8</ele>
        <time>2021-06-03T09:55:02Z</time>
      </trkpt>
      <trkpt lat="41.84085" lon="9.09479">
        <ele>1109.8</ele>
        <time>2021-06-03T09:55:03Z</time>
      </trkpt>
      <trkpt lat="41.84082" lon="9.09479">
        <ele>1110.2</ele>
        <time>2021-06-03T09:55:04Z</time>
      </trkpt>
      <trkpt lat="41.84079" lon="9.0948">
        <ele>1110.4</ele>
        <time>2021-06-03T09:55:05Z</time>
      </trkpt>
      <trkpt lat="41.84077" lon="9.09481">
        <ele>1110.4</ele>
        <time>2021-06-03T09:55:06Z</time>
      </trkpt>
      <trkpt lat="41.84074" lon="9.09482">
        <ele>1110.4</ele>
        <time>2021-06-03T09:55:07Z</time>
      </trkpt>
      <trkpt lat="41.84071" lon="9.09484">
        <ele>1110.4</ele>
        <time>2021-06-03T09:55:08Z</time>
      </trkpt>
      <trkpt lat="41.84068" lon="9.09484">
        <ele>1110.4</ele>
        <time>2021-06-03T09:55:09Z</time>
      </trkpt>
      <trkpt lat="41.84065" lon="9.09485">
        <ele>1110.4</ele>
        <time>2021-06-03T09:55:10Z</time>
      </trkpt>
      <trkpt lat="41.84062" lon="9.09486">
        <ele>1110.4</ele>
        <time>2021-06-03T09:55:11Z</time>
      </trkpt>
      <trkpt lat="41.8406" lon="9.09487">
        <ele>1110.4</ele>
        <time>2021-06-03T09:55:12Z</time>
      </trkpt>
      <trkpt lat="41.84057" lon="9.09488">
        <ele>1111</ele>
        <time>2021-06-03T09:55:13Z</time>
      </trkpt>
      <trkpt lat="41.84054" lon="9.09489">
        <ele>1111</ele>
        <time>2021-06-03T09:55:14Z</time>
      </trkpt>
      <trkpt lat="41.84051" lon="9.0949">
        <ele>1111</ele>
        <time>2021-06-03T09:55:15Z</time>
      </trkpt>
      <trkpt lat="41.84048" lon="9.09491">
        <ele>1111</ele>
        <time>2021-06-03T09:55:16Z</time>
      </trkpt>
      <trkpt lat="41.84045" lon="9.09492">
        <ele>1111.4</ele>
        <time>2021-06-03T09:55:17Z</time>
      </trkpt>
      <trkpt lat="41.84042" lon="9.09493">
        <ele>1111.4</ele>
        <time>2021-06-03T09:55:18Z</time>
      </trkpt>
      <trkpt lat="41.84039" lon="9.09493">
        <ele>1111.4</ele>
        <time>2021-06-03T09:55:19Z</time>
      </trkpt>
      <trkpt lat="41.84036" lon="9.09494">
        <ele>1110.4</ele>
        <time>2021-06-03T09:55:20Z</time>
      </trkpt>
      <trkpt lat="41.84033" lon="9.09494">
        <ele>1111.2</ele>
        <time>2021-06-03T09:55:21Z</time>
      </trkpt>
      <trkpt lat="41.8403" lon="9.09495">
        <ele>1111.2</ele>
        <time>2021-06-03T09:55:22Z</time>
      </trkpt>
      <trkpt lat="41.84027" lon="9.09495">
        <ele>1111.2</ele>
        <time>2021-06-03T09:55:23Z</time>
      </trkpt>
      <trkpt lat="41.84024" lon="9.09496">
        <ele>1111.2</ele>
        <time>2021-06-03T09:55:24Z</time>
      </trkpt>
      <trkpt lat="41.84021" lon="9.09496">
        <ele>1111</ele>
        <time>2021-06-03T09:55:25Z</time>
      </trkpt>
      <trkpt lat="41.84018" lon="9.09496">
        <ele>1111</ele>
        <time>2021-06-03T09:55:26Z</time>
      </trkpt>
      <trkpt lat="41.84015" lon="9.09495">
        <ele>1111</ele>
        <time>2021-06-03T09:55:27Z</time>
      </trkpt>
      <trkpt lat="41.84012" lon="9.09495">
        <ele>1111.6</ele>
        <time>2021-06-03T09:55:28Z</time>
      </trkpt>
      <trkpt lat="41.84009" lon="9.09494">
        <ele>1111.4</ele>
        <time>2021-06-03T09:55:29Z</time>
      </trkpt>
      <trkpt lat="41.84006" lon="9.09493">
        <ele>1111.4</ele>
        <time>2021-06-03T09:55:30Z</time>
      </trkpt>
      <trkpt lat="41.84004" lon="9.09492">
        <ele>1111.4</ele>
        <time>2021-06-03T09:55:31Z</time>
      </trkpt>
      <trkpt lat="41.84001" lon="9.09491">
        <ele>1111.4</ele>
        <time>2021-06-03T09:55:32Z</time>
      </trkpt>
      <trkpt lat="41.83998" lon="9.0949">
        <ele>1111.6</ele>
        <time>2021-06-03T09:55:33Z</time>
      </trkpt>
      <trkpt lat="41.83995" lon="9.09489">
        <ele>1111.6</ele>
        <time>2021-06-03T09:55:34Z</time>
      </trkpt>
      <trkpt lat="41.83993" lon="9.09488">
        <ele>1111.6</ele>
        <time>2021-06-03T09:55:35Z</time>
      </trkpt>
      <trkpt lat="41.8399" lon="9.09487">
        <ele>1112.2</ele>
        <time>2021-06-03T09:55:36Z</time>
      </trkpt>
      <trkpt lat="41.83987" lon="9.09486">
        <ele>1112.8</ele>
        <time>2021-06-03T09:55:37Z</time>
      </trkpt>
      <trkpt lat="41.83984" lon="9.09485">
        <ele>1112.8</ele>
        <time>2021-06-03T09:55:38Z</time>
      </trkpt>
      <trkpt lat="41.83981" lon="9.09483">
        <ele>1112.8</ele>
        <time>2021-06-03T09:55:39Z</time>
      </trkpt>
      <trkpt lat="41.83978" lon="9.09482">
        <ele>1112.8</ele>
        <time>2021-06-03T09:55:40Z</time>
      </trkpt>
      <trkpt lat="41.83975" lon="9.09481">
        <ele>1112.8</ele>
        <time>2021-06-03T09:55:41Z</time>
      </trkpt>
      <trkpt lat="41.83972" lon="9.09481">
        <ele>1112.8</ele>
        <time>2021-06-03T09:55:42Z</time>
      </trkpt>
      <trkpt lat="41.83969" lon="9.0948">
        <ele>1112.8</ele>
        <time>2021-06-03T09:55:43Z</time>
      </trkpt>
      <trkpt lat="41.83966" lon="9.0948">
        <ele>1112.8</ele>
        <time>2021-06-03T09:55:44Z</time>
      </trkpt>
      <trkpt lat="41.83963" lon="9.0948">
        <ele>1113</ele>
        <time>2021-06-03T09:55:45Z</time>
      </trkpt>
      <trkpt lat="41.8396" lon="9.0948">
        <ele>1113</ele>
        <time>2021-06-03T09:55:46Z</time>
      </trkpt>
      <trkpt lat="41.83957" lon="9.09481">
        <ele>1113</ele>
        <time>2021-06-03T09:55:47Z</time>
      </trkpt>
      <trkpt lat="41.83954" lon="9.09483">
        <ele>1113</ele>
        <time>2021-06-03T09:55:48Z</time>
      </trkpt>
      <trkpt lat="41.83951" lon="9.09485">
        <ele>1113.2</ele>
        <time>2021-06-03T09:55:49Z</time>
      </trkpt>
      <trkpt lat="41.83949" lon="9.09487">
        <ele>1113.2</ele>
        <time>2021-06-03T09:55:50Z</time>
      </trkpt>
      <trkpt lat="41.83946" lon="9.09489">
        <ele>1113.2</ele>
        <time>2021-06-03T09:55:51Z</time>
      </trkpt>
      <trkpt lat="41.83944" lon="9.09492">
        <ele>1113.2</ele>
        <time>2021-06-03T09:55:52Z</time>
      </trkpt>
      <trkpt lat="41.83941" lon="9.09494">
        <ele>1113.6</ele>
        <time>2021-06-03T09:55:53Z</time>
      </trkpt>
      <trkpt lat="41.83939" lon="9.09496">
        <ele>1113.6</ele>
        <time>2021-06-03T09:55:54Z</time>
      </trkpt>
      <trkpt lat="41.83937" lon="9.09499">
        <ele>1113.6</ele>
        <time>2021-06-03T09:55:55Z</time>
      </trkpt>
      <trkpt lat="41.83935" lon="9.09502">
        <ele>1113.6</ele>
        <time>2021-06-03T09:55:56Z</time>
      </trkpt>
      <trkpt lat="41.83933" lon="9.09505">
        <ele>1114.2</ele>
        <time>2021-06-03T09:55:57Z</time>
      </trkpt>
      <trkpt lat="41.83931" lon="9.09507">
        <ele>1114.2</ele>
        <time>2021-06-03T09:55:58Z</time>
      </trkpt>
      <trkpt lat="41.83929" lon="9.0951">
        <ele>1114.2</ele>
        <time>2021-06-03T09:55:59Z</time>
      </trkpt>
      <trkpt lat="41.83927" lon="9.09513">
        <ele>1114.2</ele>
        <time>2021-06-03T09:56:00Z</time>
      </trkpt>
      <trkpt lat="41.83925" lon="9.09516">
        <ele>1114</ele>
        <time>2021-06-03T09:56:01Z</time>
      </trkpt>
      <trkpt lat="41.83923" lon="9.09519">
        <ele>1114</ele>
        <time>2021-06-03T09:56:02Z</time>
      </trkpt>
      <trkpt lat="41.83921" lon="9.09522">
        <ele>1114</ele>
        <time>2021-06-03T09:56:03Z</time>
      </trkpt>
      <trkpt lat="41.83919" lon="9.09524">
        <ele>1114</ele>
        <time>2021-06-03T09:56:04Z</time>
      </trkpt>
      <trkpt lat="41.83917" lon="9.09527">
        <ele>1114</ele>
        <time>2021-06-03T09:56:05Z</time>
      </trkpt>
      <trkpt lat="41.83914" lon="9.0953">
        <ele>1114</ele>
        <time>2021-06-03T09:56:06Z</time>
      </trkpt>
      <trkpt lat="41.83912" lon="9.09532">
        <ele>1114</ele>
        <time>2021-06-03T09:56:07Z</time>
      </trkpt>
      <trkpt lat="41.8391" lon="9.09535">
        <ele>1115</ele>
        <time>2021-06-03T09:56:08Z</time>
      </trkpt>
      <trkpt lat="41.83907" lon="9.09537">
        <ele>1114.8</ele>
        <time>2021-06-03T09:56:09Z</time>
      </trkpt>
      <trkpt lat="41.83905" lon="9.09539">
        <ele>1114.8</ele>
        <time>2021-06-03T09:56:10Z</time>
      </trkpt>
      <trkpt lat="41.83902" lon="9.09541">
        <ele>1114.8</ele>
        <time>2021-06-03T09:56:11Z</time>
      </trkpt>
      <trkpt lat="41.839" lon="9.09543">
        <ele>1115.4</ele>
        <time>2021-06-03T09:56:12Z</time>
      </trkpt>
      <trkpt lat="41.83897" lon="9.09546">
        <ele>1115.4</ele>
        <time>2021-06-03T09:56:13Z</time>
      </trkpt>
      <trkpt lat="41.83895" lon="9.09547">
        <ele>1115.4</ele>
        <time>2021-06-03T09:56:14Z</time>
      </trkpt>
      <trkpt lat="41.83892" lon="9.09549">
        <ele>1115.4</ele>
        <time>2021-06-03T09:56:15Z</time>
      </trkpt>
      <trkpt lat="41.83889" lon="9.0955">
        <ele>1116.2</ele>
        <time>2021-06-03T09:56:16Z</time>
      </trkpt>
      <trkpt lat="41.83886" lon="9.09552">
        <ele>1115.6</ele>
        <time>2021-06-03T09:56:17Z</time>
      </trkpt>
      <trkpt lat="41.83884" lon="9.09554">
        <ele>1115.6</ele>
        <time>2021-06-03T09:56:18Z</time>
      </trkpt>
      <trkpt lat="41.83881" lon="9.09555">
        <ele>1115.6</ele>
        <time>2021-06-03T09:56:19Z</time>
      </trkpt>
      <trkpt lat="41.83878" lon="9.09557">
        <ele>1115.4</ele>
        <time>2021-06-03T09:56:20Z</time>
      </trkpt>
      <trkpt lat="41.83876" lon="9.09558">
        <ele>1116.2</ele>
        <time>2021-06-03T09:56:21Z</time>
      </trkpt>
      <trkpt lat="41.83873" lon="9.0956">
        <ele>1116.2</ele>
        <time>2021-06-03T09:56:22Z</time>
      </trkpt>
      <trkpt lat="41.8387" lon="9.09561">
        <ele>1116.2</ele>
        <time>2021-06-03T09:56:23Z</time>
      </trkpt>
      <trkpt lat="41.83868" lon="9.09563">
        <ele>1115.4</ele>
        <time>2021-06-03T09:56:24Z</time>
      </trkpt>
      <trkpt lat="41.83865" lon="9.09564">
        <ele>1115.4</ele>
        <time>2021-06-03T09:56:25Z</time>
      </trkpt>
      <trkpt lat="41.83862" lon="9.09566">
        <ele>1115.4</ele>
        <time>2021-06-03T09:56:26Z</time>
      </trkpt>
      <trkpt lat="41.83859" lon="9.09567">
        <ele>1115.4</ele>
        <time>2021-06-03T09:56:27Z</time>
      </trkpt>
      <trkpt lat="41.83856" lon="9.09568">
        <ele>1115.4</ele>
        <time>2021-06-03T09:56:28Z</time>
      </trkpt>
      <trkpt lat="41.83854" lon="9.09569">
        <ele>1116.6</ele>
        <time>2021-06-03T09:56:29Z</time>
      </trkpt>
      <trkpt lat="41.83851" lon="9.09569">
        <ele>1116.6</ele>
        <time>2021-06-03T09:56:30Z</time>
      </trkpt>
      <trkpt lat="41.83848" lon="9.0957">
        <ele>1116.6</ele>
        <time>2021-06-03T09:56:31Z</time>
      </trkpt>
      <trkpt lat="41.83845" lon="9.0957">
        <ele>1117.6</ele>
        <time>2021-06-03T09:56:32Z</time>
      </trkpt>
      <trkpt lat="41.83842" lon="9.09569">
        <ele>1117.2</ele>
        <time>2021-06-03T09:56:33Z</time>
      </trkpt>
      <trkpt lat="41.8384" lon="9.09569">
        <ele>1117.2</ele>
        <time>2021-06-03T09:56:34Z</time>
      </trkpt>
      <trkpt lat="41.83837" lon="9.09568">
        <ele>1117.2</ele>
        <time>2021-06-03T09:56:35Z</time>
      </trkpt>
      <trkpt lat="41.83834" lon="9.09567">
        <ele>1117.8</ele>
        <time>2021-06-03T09:56:36Z</time>
      </trkpt>
      <trkpt lat="41.83831" lon="9.09567">
        <ele>1117.4</ele>
        <time>2021-06-03T09:56:37Z</time>
      </trkpt>
      <trkpt lat="41.83828" lon="9.09566">
        <ele>1117.4</ele>
        <time>2021-06-03T09:56:38Z</time>
      </trkpt>
      <trkpt lat="41.83825" lon="9.09566">
        <ele>1117.4</ele>
        <time>2021-06-03T09:56:39Z</time>
      </trkpt>
      <trkpt lat="41.83823" lon="9.09565">
        <ele>1117.8</ele>
        <time>2021-06-03T09:56:40Z</time>
      </trkpt>
      <trkpt lat="41.8382" lon="9.09564">
        <ele>1117.8</ele>
        <time>2021-06-03T09:56:41Z</time>
      </trkpt>
      <trkpt lat="41.83817" lon="9.09563">
        <ele>1117.8</ele>
        <time>2021-06-03T09:56:42Z</time>
      </trkpt>
      <trkpt lat="41.83814" lon="9.09562">
        <ele>1117.8</ele>
        <time>2021-06-03T09:56:43Z</time>
      </trkpt>
      <trkpt lat="41.83811" lon="9.09561">
        <ele>1117.8</ele>
        <time>2021-06-03T09:56:44Z</time>
      </trkpt>
      <trkpt lat="41.83808" lon="9.0956">
        <ele>1117.8</ele>
        <time>2021-06-03T09:56:45Z</time>
      </trkpt>
      <trkpt lat="41.83805" lon="9.09559">
        <ele>1117.8</ele>
        <time>2021-06-03T09:56:46Z</time>
      </trkpt>
      <trkpt lat="41.83802" lon="9.09557">
        <ele>1117.8</ele>
        <time>2021-06-03T09:56:47Z</time>
      </trkpt>
      <trkpt lat="41.838" lon="9.09556">
        <ele>1117.8</ele>
        <time>2021-06-03T09:56:48Z</time>
      </trkpt>
      <trkpt lat="41.83797" lon="9.09555">
        <ele>1117.6</ele>
        <time>2021-06-03T09:56:49Z</time>
      </trkpt>
      <trkpt lat="41.83794" lon="9.09553">
        <ele>1117.6</ele>
        <time>2021-06-03T09:56:50Z</time>
      </trkpt>
      <trkpt lat="41.83791" lon="9.09552">
        <ele>1117.6</ele>
        <time>2021-06-03T09:56:51Z</time>
      </trkpt>
      <trkpt lat="41.83788" lon="9.09551">
        <ele>1117.6</ele>
        <time>2021-06-03T09:56:52Z</time>
      </trkpt>
      <trkpt lat="41.83785" lon="9.0955">
        <ele>1117.8</ele>
        <time>2021-06-03T09:56:53Z</time>
      </trkpt>
      <trkpt lat="41.83783" lon="9.09549">
        <ele>1117.8</ele>
        <time>2021-06-03T09:56:54Z</time>
      </trkpt>
      <trkpt lat="41.8378" lon="9.09548">
        <ele>1117.8</ele>
        <time>2021-06-03T09:56:55Z</time>
      </trkpt>
      <trkpt lat="41.83777" lon="9.09546">
        <ele>1117.8</ele>
        <time>2021-06-03T09:56:56Z</time>
      </trkpt>
      <trkpt lat="41.83774" lon="9.09545">
        <ele>1118.2</ele>
        <time>2021-06-03T09:56:57Z</time>
      </trkpt>
      <trkpt lat="41.83771" lon="9.09544">
        <ele>1118.2</ele>
        <time>2021-06-03T09:56:58Z</time>
      </trkpt>
      <trkpt lat="41.83769" lon="9.09542">
        <ele>1118.2</ele>
        <time>2021-06-03T09:56:59Z</time>
      </trkpt>
      <trkpt lat="41.83766" lon="9.0954">
        <ele>1118.2</ele>
        <time>2021-06-03T09:57:00Z</time>
      </trkpt>
      <trkpt lat="41.83764" lon="9.09537">
        <ele>1118.4</ele>
        <time>2021-06-03T09:57:01Z</time>
      </trkpt>
      <trkpt lat="41.83763" lon="9.09534">
        <ele>1118.4</ele>
        <time>2021-06-03T09:57:02Z</time>
      </trkpt>
      <trkpt lat="41.83761" lon="9.0953">
        <ele>1118.4</ele>
        <time>2021-06-03T09:57:03Z</time>
      </trkpt>
      <trkpt lat="41.8376" lon="9.09527">
        <ele>1118</ele>
        <time>2021-06-03T09:57:04Z</time>
      </trkpt>
      <trkpt lat="41.83759" lon="9.09523">
        <ele>1118.6</ele>
        <time>2021-06-03T09:57:05Z</time>
      </trkpt>
      <trkpt lat="41.83757" lon="9.0952">
        <ele>1118.6</ele>
        <time>2021-06-03T09:57:06Z</time>
      </trkpt>
      <trkpt lat="41.83757" lon="9.09516">
        <ele>1118.6</ele>
        <time>2021-06-03T09:57:07Z</time>
      </trkpt>
      <trkpt lat="41.83756" lon="9.09512">
        <ele>1119.4</ele>
        <time>2021-06-03T09:57:08Z</time>
      </trkpt>
      <trkpt lat="41.83755" lon="9.09509">
        <ele>1119.2</ele>
        <time>2021-06-03T09:57:09Z</time>
      </trkpt>
      <trkpt lat="41.83755" lon="9.09505">
        <ele>1119.2</ele>
        <time>2021-06-03T09:57:10Z</time>
      </trkpt>
      <trkpt lat="41.83754" lon="9.09501">
        <ele>1119.2</ele>
        <time>2021-06-03T09:57:11Z</time>
      </trkpt>
      <trkpt lat="41.83754" lon="9.09498">
        <ele>1119.2</ele>
        <time>2021-06-03T09:57:12Z</time>
      </trkpt>
      <trkpt lat="41.83754" lon="9.09494">
        <ele>1119</ele>
        <time>2021-06-03T09:57:13Z</time>
      </trkpt>
      <trkpt lat="41.83754" lon="9.0949">
        <ele>1119</ele>
        <time>2021-06-03T09:57:14Z</time>
      </trkpt>
      <trkpt lat="41.83754" lon="9.09486">
        <ele>1119</ele>
        <time>2021-06-03T09:57:15Z</time>
      </trkpt>
      <trkpt lat="41.83754" lon="9.09481">
        <ele>1119</ele>
        <time>2021-06-03T09:57:16Z</time>
      </trkpt>
      <trkpt lat="41.83755" lon="9.09477">
        <ele>1119.6</ele>
        <time>2021-06-03T09:57:17Z</time>
      </trkpt>
      <trkpt lat="41.83756" lon="9.09473">
        <ele>1119.6</ele>
        <time>2021-06-03T09:57:18Z</time>
      </trkpt>
      <trkpt lat="41.83757" lon="9.09469">
        <ele>1119.6</ele>
        <time>2021-06-03T09:57:19Z</time>
      </trkpt>
      <trkpt lat="41.83758" lon="9.09466">
        <ele>1119.8</ele>
        <time>2021-06-03T09:57:20Z</time>
      </trkpt>
      <trkpt lat="41.83759" lon="9.09462">
        <ele>1120</ele>
        <time>2021-06-03T09:57:21Z</time>
      </trkpt>
      <trkpt lat="41.8376" lon="9.09458">
        <ele>1120</ele>
        <time>2021-06-03T09:57:22Z</time>
      </trkpt>
      <trkpt lat="41.83761" lon="9.09455">
        <ele>1120</ele>
        <time>2021-06-03T09:57:23Z</time>
      </trkpt>
      <trkpt lat="41.83762" lon="9.09451">
        <ele>1120</ele>
        <time>2021-06-03T09:57:24Z</time>
      </trkpt>
      <trkpt lat="41.83763" lon="9.09448">
        <ele>1120.4</ele>
        <time>2021-06-03T09:57:25Z</time>
      </trkpt>
      <trkpt lat="41.83764" lon="9.09444">
        <ele>1120.4</ele>
        <time>2021-06-03T09:57:26Z</time>
      </trkpt>
      <trkpt lat="41.83765" lon="9.09441">
        <ele>1120.4</ele>
        <time>2021-06-03T09:57:27Z</time>
      </trkpt>
      <trkpt lat="41.83766" lon="9.09437">
        <ele>1120.8</ele>
        <time>2021-06-03T09:57:28Z</time>
      </trkpt>
      <trkpt lat="41.83767" lon="9.09433">
        <ele>1120.8</ele>
        <time>2021-06-03T09:57:29Z</time>
      </trkpt>
      <trkpt lat="41.83768" lon="9.0943">
        <ele>1120.8</ele>
        <time>2021-06-03T09:57:30Z</time>
      </trkpt>
      <trkpt lat="41.8377" lon="9.09426">
        <ele>1120.8</ele>
        <time>2021-06-03T09:57:31Z</time>
      </trkpt>
      <trkpt lat="41.83771" lon="9.09423">
        <ele>1120.8</ele>
        <time>2021-06-03T09:57:32Z</time>
      </trkpt>
      <trkpt lat="41.83772" lon="9.09419">
        <ele>1121.2</ele>
        <time>2021-06-03T09:57:33Z</time>
      </trkpt>
      <trkpt lat="41.83773" lon="9.09416">
        <ele>1121.2</ele>
        <time>2021-06-03T09:57:34Z</time>
      </trkpt>
      <trkpt lat="41.83774" lon="9.09412">
        <ele>1121.2</ele>
        <time>2021-06-03T09:57:35Z</time>
      </trkpt>
      <trkpt lat="41.83776" lon="9.09409">
        <ele>1121.4</ele>
        <time>2021-06-03T09:57:36Z</time>
      </trkpt>
      <trkpt lat="41.83776" lon="9.09405">
        <ele>1121.6</ele>
        <time>2021-06-03T09:57:37Z</time>
      </trkpt>
      <trkpt lat="41.83777" lon="9.09401">
        <ele>1121.6</ele>
        <time>2021-06-03T09:57:38Z</time>
      </trkpt>
      <trkpt lat="41.83778" lon="9.09397">
        <ele>1121.6</ele>
        <time>2021-06-03T09:57:39Z</time>
      </trkpt>
      <trkpt lat="41.83778" lon="9.09393">
        <ele>1121.8</ele>
        <time>2021-06-03T09:57:40Z</time>
      </trkpt>
      <trkpt lat="41.83779" lon="9.09389">
        <ele>1122</ele>
        <time>2021-06-03T09:57:41Z</time>
      </trkpt>
      <trkpt lat="41.83779" lon="9.09385">
        <ele>1122</ele>
        <time>2021-06-03T09:57:42Z</time>
      </trkpt>
      <trkpt lat="41.83779" lon="9.09381">
        <ele>1122</ele>
        <time>2021-06-03T09:57:43Z</time>
      </trkpt>
      <trkpt lat="41.83779" lon="9.09377">
        <ele>1122.2</ele>
        <time>2021-06-03T09:57:44Z</time>
      </trkpt>
      <trkpt lat="41.83778" lon="9.09373">
        <ele>1122.2</ele>
        <time>2021-06-03T09:57:45Z</time>
      </trkpt>
      <trkpt lat="41.83777" lon="9.09369">
        <ele>1122.2</ele>
        <time>2021-06-03T09:57:46Z</time>
      </trkpt>
      <trkpt lat="41.83777" lon="9.09365">
        <ele>1122.2</ele>
        <time>2021-06-03T09:57:47Z</time>
      </trkpt>
      <trkpt lat="41.83776" lon="9.09362">
        <ele>1122.6</ele>
        <time>2021-06-03T09:57:48Z</time>
      </trkpt>
      <trkpt lat="41.83775" lon="9.09358">
        <ele>1122.8</ele>
        <time>2021-06-03T09:57:49Z</time>
      </trkpt>
      <trkpt lat="41.83775" lon="9.09354">
        <ele>1122.8</ele>
        <time>2021-06-03T09:57:50Z</time>
      </trkpt>
      <trkpt lat="41.83773" lon="9.0935">
        <ele>1122.8</ele>
        <time>2021-06-03T09:57:51Z</time>
      </trkpt>
      <trkpt lat="41.83772" lon="9.09347">
        <ele>1122.8</ele>
        <time>2021-06-03T09:57:52Z</time>
      </trkpt>
      <trkpt lat="41.83771" lon="9.09343">
        <ele>1122.6</ele>
        <time>2021-06-03T09:57:53Z</time>
      </trkpt>
      <trkpt lat="41.8377" lon="9.09339">
        <ele>1122.6</ele>
        <time>2021-06-03T09:57:54Z</time>
      </trkpt>
      <trkpt lat="41.83768" lon="9.09336">
        <ele>1122.6</ele>
        <time>2021-06-03T09:57:55Z</time>
      </trkpt>
      <trkpt lat="41.83766" lon="9.09332">
        <ele>1123.2</ele>
        <time>2021-06-03T09:57:56Z</time>
      </trkpt>
      <trkpt lat="41.83764" lon="9.09329">
        <ele>1123.8</ele>
        <time>2021-06-03T09:57:57Z</time>
      </trkpt>
      <trkpt lat="41.83762" lon="9.09326">
        <ele>1123.8</ele>
        <time>2021-06-03T09:57:58Z</time>
      </trkpt>
      <trkpt lat="41.8376" lon="9.09323">
        <ele>1123.8</ele>
        <time>2021-06-03T09:57:59Z</time>
      </trkpt>
      <trkpt lat="41.83757" lon="9.09321">
        <ele>1123.8</ele>
        <time>2021-06-03T09:58:00Z</time>
      </trkpt>
      <trkpt lat="41.83755" lon="9.09319">
        <ele>1123.4</ele>
        <time>2021-06-03T09:58:01Z</time>
      </trkpt>
      <trkpt lat="41.83752" lon="9.09318">
        <ele>1123.4</ele>
        <time>2021-06-03T09:58:02Z</time>
      </trkpt>
      <trkpt lat="41.83749" lon="9.09317">
        <ele>1123.4</ele>
        <time>2021-06-03T09:58:03Z</time>
      </trkpt>
      <trkpt lat="41.83746" lon="9.09316">
        <ele>1123.4</ele>
        <time>2021-06-03T09:58:04Z</time>
      </trkpt>
      <trkpt lat="41.83743" lon="9.09315">
        <ele>1123.2</ele>
        <time>2021-06-03T09:58:05Z</time>
      </trkpt>
      <trkpt lat="41.8374" lon="9.09314">
        <ele>1123.2</ele>
        <time>2021-06-03T09:58:06Z</time>
      </trkpt>
      <trkpt lat="41.83738" lon="9.09313">
        <ele>1123.2</ele>
        <time>2021-06-03T09:58:07Z</time>
      </trkpt>
      <trkpt lat="41.83735" lon="9.09313">
        <ele>1123.4</ele>
        <time>2021-06-03T09:58:08Z</time>
      </trkpt>
      <trkpt lat="41.83732" lon="9.09312">
        <ele>1123.2</ele>
        <time>2021-06-03T09:58:09Z</time>
      </trkpt>
      <trkpt lat="41.83729" lon="9.09312">
        <ele>1123.2</ele>
        <time>2021-06-03T09:58:10Z</time>
      </trkpt>
      <trkpt lat="41.83727" lon="9.09312">
        <ele>1123.2</ele>
        <time>2021-06-03T09:58:11Z</time>
      </trkpt>
      <trkpt lat="41.83724" lon="9.09312">
        <ele>1123.8</ele>
        <time>2021-06-03T09:58:12Z</time>
      </trkpt>
      <trkpt lat="41.83721" lon="9.09312">
        <ele>1123.8</ele>
        <time>2021-06-03T09:58:13Z</time>
      </trkpt>
      <trkpt lat="41.83718" lon="9.09312">
        <ele>1123.8</ele>
        <time>2021-06-03T09:58:14Z</time>
      </trkpt>
      <trkpt lat="41.83716" lon="9.09312">
        <ele>1123.8</ele>
        <time>2021-06-03T09:58:15Z</time>
      </trkpt>
      <trkpt lat="41.83713" lon="9.09312">
        <ele>1123.8</ele>
        <time>2021-06-03T09:58:16Z</time>
      </trkpt>
      <trkpt lat="41.8371" lon="9.09312">
        <ele>1124.4</ele>
        <time>2021-06-03T09:58:17Z</time>
      </trkpt>
      <trkpt lat="41.83707" lon="9.09313">
        <ele>1124.4</ele>
        <time>2021-06-03T09:58:18Z</time>
      </trkpt>
      <trkpt lat="41.83704" lon="9.09313">
        <ele>1124.4</ele>
        <time>2021-06-03T09:58:19Z</time>
      </trkpt>
      <trkpt lat="41.83701" lon="9.09313">
        <ele>1124.6</ele>
        <time>2021-06-03T09:58:20Z</time>
      </trkpt>
      <trkpt lat="41.83698" lon="9.09313">
        <ele>1124.6</ele>
        <time>2021-06-03T09:58:21Z</time>
      </trkpt>
      <trkpt lat="41.83695" lon="9.09314">
        <ele>1124.6</ele>
        <time>2021-06-03T09:58:22Z</time>
      </trkpt>
      <trkpt lat="41.83692" lon="9.09314">
        <ele>1124.6</ele>
        <time>2021-06-03T09:58:23Z</time>
      </trkpt>
      <trkpt lat="41.8369" lon="9.09315">
        <ele>1124.6</ele>
        <time>2021-06-03T09:58:24Z</time>
      </trkpt>
      <trkpt lat="41.83687" lon="9.09315">
        <ele>1124.8</ele>
        <time>2021-06-03T09:58:25Z</time>
      </trkpt>
      <trkpt lat="41.83684" lon="9.09316">
        <ele>1124.8</ele>
        <time>2021-06-03T09:58:26Z</time>
      </trkpt>
      <trkpt lat="41.83681" lon="9.09318">
        <ele>1124.8</ele>
        <time>2021-06-03T09:58:27Z</time>
      </trkpt>
      <trkpt lat="41.83679" lon="9.09319">
        <ele>1125.4</ele>
        <time>2021-06-03T09:58:28Z</time>
      </trkpt>
      <trkpt lat="41.83676" lon="9.09321">
        <ele>1125.6</ele>
        <time>2021-06-03T09:58:29Z</time>
      </trkpt>
      <trkpt lat="41.83673" lon="9.09322">
        <ele>1125.6</ele>
        <time>2021-06-03T09:58:30Z</time>
      </trkpt>
      <trkpt lat="41.83671" lon="9.09324">
        <ele>1125.6</ele>
        <time>2021-06-03T09:58:31Z</time>
      </trkpt>
      <trkpt lat="41.83668" lon="9.09326">
        <ele>1125.6</ele>
        <time>2021-06-03T09:58:32Z</time>
      </trkpt>
      <trkpt lat="41.83666" lon="9.09328">
        <ele>1126.2</ele>
        <time>2021-06-03T09:58:33Z</time>
      </trkpt>
      <trkpt lat="41.83663" lon="9.0933">
        <ele>1126.2</ele>
        <time>2021-06-03T09:58:34Z</time>
      </trkpt>
      <trkpt lat="41.83661" lon="9.09333">
        <ele>1126.2</ele>
        <time>2021-06-03T09:58:35Z</time>
      </trkpt>
      <trkpt lat="41.83659" lon="9.09335">
        <ele>1126.6</ele>
        <time>2021-06-03T09:58:36Z</time>
      </trkpt>
      <trkpt lat="41.83657" lon="9.09338">
        <ele>1126.4</ele>
        <time>2021-06-03T09:58:37Z</time>
      </trkpt>
      <trkpt lat="41.83655" lon="9.0934">
        <ele>1126.4</ele>
        <time>2021-06-03T09:58:38Z</time>
      </trkpt>
      <trkpt lat="41.83652" lon="9.09342">
        <ele>1126.4</ele>
        <time>2021-06-03T09:58:39Z</time>
      </trkpt>
      <trkpt lat="41.8365" lon="9.09345">
        <ele>1126.6</ele>
        <time>2021-06-03T09:58:40Z</time>
      </trkpt>
      <trkpt lat="41.83648" lon="9.09348">
        <ele>1126.8</ele>
        <time>2021-06-03T09:58:41Z</time>
      </trkpt>
      <trkpt lat="41.83646" lon="9.0935">
        <ele>1126.8</ele>
        <time>2021-06-03T09:58:42Z</time>
      </trkpt>
      <trkpt lat="41.83644" lon="9.09353">
        <ele>1126.8</ele>
        <time>2021-06-03T09:58:43Z</time>
      </trkpt>
      <trkpt lat="41.83641" lon="9.09355">
        <ele>1126.8</ele>
        <time>2021-06-03T09:58:44Z</time>
      </trkpt>
      <trkpt lat="41.83639" lon="9.09358">
        <ele>1126.6</ele>
        <time>2021-06-03T09:58:45Z</time>
      </trkpt>
      <trkpt lat="41.83637" lon="9.0936">
        <ele>1126.6</ele>
        <time>2021-06-03T09:58:46Z</time>
      </trkpt>
      <trkpt lat="41.83635" lon="9.09362">
        <ele>1126.6</ele>
        <time>2021-06-03T09:58:47Z</time>
      </trkpt>
      <trkpt lat="41.83632" lon="9.09364">
        <ele>1126.8</ele>
        <time>2021-06-03T09:58:48Z</time>
      </trkpt>
      <trkpt lat="41.8363" lon="9.09366">
        <ele>1126.8</ele>
        <time>2021-06-03T09:58:49Z</time>
      </trkpt>
      <trkpt lat="41.83627" lon="9.09368">
        <ele>1126.8</ele>
        <time>2021-06-03T09:58:50Z</time>
      </trkpt>
      <trkpt lat="41.83625" lon="9.0937">
        <ele>1126.8</ele>
        <time>2021-06-03T09:58:51Z</time>
      </trkpt>
      <trkpt lat="41.83622" lon="9.09371">
        <ele>1127.4</ele>
        <time>2021-06-03T09:58:52Z</time>
      </trkpt>
      <trkpt lat="41.8362" lon="9.09372">
        <ele>1127.4</ele>
        <time>2021-06-03T09:58:53Z</time>
      </trkpt>
      <trkpt lat="41.83617" lon="9.09374">
        <ele>1127.4</ele>
        <time>2021-06-03T09:58:54Z</time>
      </trkpt>
      <trkpt lat="41.83614" lon="9.09375">
        <ele>1127.4</ele>
        <time>2021-06-03T09:58:55Z</time>
      </trkpt>
      <trkpt lat="41.83611" lon="9.09376">
        <ele>1127.8</ele>
        <time>2021-06-03T09:58:56Z</time>
      </trkpt>
      <trkpt lat="41.83609" lon="9.09377">
        <ele>1128</ele>
        <time>2021-06-03T09:58:57Z</time>
      </trkpt>
      <trkpt lat="41.83606" lon="9.09378">
        <ele>1128</ele>
        <time>2021-06-03T09:58:58Z</time>
      </trkpt>
      <trkpt lat="41.83603" lon="9.09378">
        <ele>1128</ele>
        <time>2021-06-03T09:58:59Z</time>
      </trkpt>
      <trkpt lat="41.836" lon="9.09379">
        <ele>1128</ele>
        <time>2021-06-03T09:59:00Z</time>
      </trkpt>
      <trkpt lat="41.83597" lon="9.09379">
        <ele>1128.2</ele>
        <time>2021-06-03T09:59:01Z</time>
      </trkpt>
      <trkpt lat="41.83594" lon="9.09379">
        <ele>1128.2</ele>
        <time>2021-06-03T09:59:02Z</time>
      </trkpt>
      <trkpt lat="41.83591" lon="9.09379">
        <ele>1128.2</ele>
        <time>2021-06-03T09:59:03Z</time>
      </trkpt>
      <trkpt lat="41.83588" lon="9.09378">
        <ele>1128.2</ele>
        <time>2021-06-03T09:59:04Z</time>
      </trkpt>
      <trkpt lat="41.83586" lon="9.09376">
        <ele>1128.4</ele>
        <time>2021-06-03T09:59:05Z</time>
      </trkpt>
      <trkpt lat="41.83583" lon="9.09374">
        <ele>1128.4</ele>
        <time>2021-06-03T09:59:06Z</time>
      </trkpt>
      <trkpt lat="41.83581" lon="9.09371">
        <ele>1128.4</ele>
        <time>2021-06-03T09:59:07Z</time>
      </trkpt>
      <trkpt lat="41.83579" lon="9.09368">
        <ele>1128.4</ele>
        <time>2021-06-03T09:59:08Z</time>
      </trkpt>
      <trkpt lat="41.83578" lon="9.09366">
        <ele>1128.6</ele>
        <time>2021-06-03T09:59:09Z</time>
      </trkpt>
      <trkpt lat="41.83577" lon="9.09362">
        <ele>1128.6</ele>
        <time>2021-06-03T09:59:10Z</time>
      </trkpt>
      <trkpt lat="41.83576" lon="9.09359">
        <ele>1128.6</ele>
        <time>2021-06-03T09:59:11Z</time>
      </trkpt>
      <trkpt lat="41.83575" lon="9.09355">
        <ele>1129</ele>
        <time>2021-06-03T09:59:12Z</time>
      </trkpt>
      <trkpt lat="41.83574" lon="9.09351">
        <ele>1129.2</ele>
        <time>2021-06-03T09:59:13Z</time>
      </trkpt>
      <trkpt lat="41.83573" lon="9.09347">
        <ele>1129.2</ele>
        <time>2021-06-03T09:59:14Z</time>
      </trkpt>
      <trkpt lat="41.83572" lon="9.09344">
        <ele>1129.2</ele>
        <time>2021-06-03T09:59:15Z</time>
      </trkpt>
      <trkpt lat="41.83572" lon="9.0934">
        <ele>1129.2</ele>
        <time>2021-06-03T09:59:16Z</time>
      </trkpt>
      <trkpt lat="41.83571" lon="9.09336">
        <ele>1129.2</ele>
        <time>2021-06-03T09:59:17Z</time>
      </trkpt>
      <trkpt lat="41.83571" lon="9.09332">
        <ele>1129.2</ele>
        <time>2021-06-03T09:59:18Z</time>
      </trkpt>
      <trkpt lat="41.83571" lon="9.09329">
        <ele>1129.2</ele>
        <time>2021-06-03T09:59:19Z</time>
      </trkpt>
      <trkpt lat="41.8357" lon="9.09325">
        <ele>1129.6</ele>
        <time>2021-06-03T09:59:20Z</time>
      </trkpt>
      <trkpt lat="41.83569" lon="9.09321">
        <ele>1129.8</ele>
        <time>2021-06-03T09:59:21Z</time>
      </trkpt>
      <trkpt lat="41.83568" lon="9.09318">
        <ele>1129.8</ele>
        <time>2021-06-03T09:59:22Z</time>
      </trkpt>
      <trkpt lat="41.83567" lon="9.09314">
        <ele>1129.8</ele>
        <time>2021-06-03T09:59:23Z</time>
      </trkpt>
      <trkpt lat="41.83566" lon="9.0931">
        <ele>1129.8</ele>
        <time>2021-06-03T09:59:24Z</time>
      </trkpt>
      <trkpt lat="41.83564" lon="9.09307">
        <ele>1129.6</ele>
        <time>2021-06-03T09:59:25Z</time>
      </trkpt>
      <trkpt lat="41.83563" lon="9.09303">
        <ele>1129.6</ele>
        <time>2021-06-03T09:59:26Z</time>
      </trkpt>
      <trkpt lat="41.83562" lon="9.093">
        <ele>1129.6</ele>
        <time>2021-06-03T09:59:27Z</time>
      </trkpt>
      <trkpt lat="41.8356" lon="9.09296">
        <ele>1129.6</ele>
        <time>2021-06-03T09:59:28Z</time>
      </trkpt>
      <trkpt lat="41.83559" lon="9.09293">
        <ele>1130.2</ele>
        <time>2021-06-03T09:59:29Z</time>
      </trkpt>
      <trkpt lat="41.83557" lon="9.09289">
        <ele>1130.2</ele>
        <time>2021-06-03T09:59:30Z</time>
      </trkpt>
      <trkpt lat="41.83556" lon="9.09286">
        <ele>1130.2</ele>
        <time>2021-06-03T09:59:31Z</time>
      </trkpt>
      <trkpt lat="41.83554" lon="9.09283">
        <ele>1130.2</ele>
        <time>2021-06-03T09:59:32Z</time>
      </trkpt>
      <trkpt lat="41.83553" lon="9.09279">
        <ele>1130</ele>
        <time>2021-06-03T09:59:33Z</time>
      </trkpt>
      <trkpt lat="41.83551" lon="9.09276">
        <ele>1130</ele>
        <time>2021-06-03T09:59:34Z</time>
      </trkpt>
      <trkpt lat="41.8355" lon="9.09272">
        <ele>1130</ele>
        <time>2021-06-03T09:59:35Z</time>
      </trkpt>
      <trkpt lat="41.83549" lon="9.09269">
        <ele>1130.8</ele>
        <time>2021-06-03T09:59:36Z</time>
      </trkpt>
      <trkpt lat="41.83547" lon="9.09266">
        <ele>1130.6</ele>
        <time>2021-06-03T09:59:37Z</time>
      </trkpt>
      <trkpt lat="41.83545" lon="9.09263">
        <ele>1130.6</ele>
        <time>2021-06-03T09:59:38Z</time>
      </trkpt>
      <trkpt lat="41.83543" lon="9.0926">
        <ele>1130.6</ele>
        <time>2021-06-03T09:59:39Z</time>
      </trkpt>
      <trkpt lat="41.83541" lon="9.09257">
        <ele>1131.2</ele>
        <time>2021-06-03T09:59:40Z</time>
      </trkpt>
      <trkpt lat="41.83539" lon="9.09254">
        <ele>1131.2</ele>
        <time>2021-06-03T09:59:41Z</time>
      </trkpt>
      <trkpt lat="41.83537" lon="9.09251">
        <ele>1131.2</ele>
        <time>2021-06-03T09:59:42Z</time>
      </trkpt>
      <trkpt lat="41.83535" lon="9.09248">
        <ele>1131.2</ele>
        <time>2021-06-03T09:59:43Z</time>
      </trkpt>
      <trkpt lat="41.83533" lon="9.09246">
        <ele>1131.4</ele>
        <time>2021-06-03T09:59:44Z</time>
      </trkpt>
      <trkpt lat="41.83531" lon="9.09244">
        <ele>1131.4</ele>
        <time>2021-06-03T09:59:45Z</time>
      </trkpt>
      <trkpt lat="41.83528" lon="9.09242">
        <ele>1131.4</ele>
        <time>2021-06-03T09:59:46Z</time>
      </trkpt>
      <trkpt lat="41.83526" lon="9.0924">
        <ele>1131.4</ele>
        <time>2021-06-03T09:59:47Z</time>
      </trkpt>
      <trkpt lat="41.83523" lon="9.09238">
        <ele>1131.4</ele>
        <time>2021-06-03T09:59:48Z</time>
      </trkpt>
      <trkpt lat="41.83521" lon="9.09236">
        <ele>1131.6</ele>
        <time>2021-06-03T09:59:49Z</time>
      </trkpt>
      <trkpt lat="41.83518" lon="9.09235">
        <ele>1131.6</ele>
        <time>2021-06-03T09:59:50Z</time>
      </trkpt>
      <trkpt lat="41.83515" lon="9.09234">
        <ele>1131.6</ele>
        <time>2021-06-03T09:59:51Z</time>
      </trkpt>
      <trkpt lat="41.83512" lon="9.09232">
        <ele>1131.6</ele>
        <time>2021-06-03T09:59:52Z</time>
      </trkpt>
      <trkpt lat="41.8351" lon="9.09231">
        <ele>1132</ele>
        <time>2021-06-03T09:59:53Z</time>
      </trkpt>
      <trkpt lat="41.83507" lon="9.0923">
        <ele>1132</ele>
        <time>2021-06-03T09:59:54Z</time>
      </trkpt>
      <trkpt lat="41.83504" lon="9.09229">
        <ele>1132</ele>
        <time>2021-06-03T09:59:55Z</time>
      </trkpt>
      <trkpt lat="41.83501" lon="9.09228">
        <ele>1132.4</ele>
        <time>2021-06-03T09:59:56Z</time>
      </trkpt>
      <trkpt lat="41.83498" lon="9.09227">
        <ele>1132.8</ele>
        <time>2021-06-03T09:59:57Z</time>
      </trkpt>
      <trkpt lat="41.83495" lon="9.09227">
        <ele>1132.8</ele>
        <time>2021-06-03T09:59:58Z</time>
      </trkpt>
      <trkpt lat="41.83492" lon="9.09226">
        <ele>1132.8</ele>
        <time>2021-06-03T09:59:59Z</time>
      </trkpt>
      <trkpt lat="41.8349" lon="9.09225">
        <ele>1133</ele>
        <time>2021-06-03T10:00:00Z</time>
      </trkpt>
      <trkpt lat="41.83487" lon="9.09224">
        <ele>1132.6</ele>
        <time>2021-06-03T10:00:01Z</time>
      </trkpt>
      <trkpt lat="41.83484" lon="9.09223">
        <ele>1132.6</ele>
        <time>2021-06-03T10:00:02Z</time>
      </trkpt>
      <trkpt lat="41.83481" lon="9.09222">
        <ele>1132.6</ele>
        <time>2021-06-03T10:00:03Z</time>
      </trkpt>
      <trkpt lat="41.83478" lon="9.09222">
        <ele>1133.2</ele>
        <time>2021-06-03T10:00:04Z</time>
      </trkpt>
      <trkpt lat="41.83475" lon="9.09221">
        <ele>1132.8</ele>
        <time>2021-06-03T10:00:05Z</time>
      </trkpt>
      <trkpt lat="41.83473" lon="9.0922">
        <ele>1132.8</ele>
        <time>2021-06-03T10:00:06Z</time>
      </trkpt>
      <trkpt lat="41.8347" lon="9.09219">
        <ele>1132.8</ele>
        <time>2021-06-03T10:00:07Z</time>
      </trkpt>
      <trkpt lat="41.83467" lon="9.09218">
        <ele>1133.4</ele>
        <time>2021-06-03T10:00:08Z</time>
      </trkpt>
      <trkpt lat="41.83464" lon="9.09218">
        <ele>1133.2</ele>
        <time>2021-06-03T10:00:09Z</time>
      </trkpt>
      <trkpt lat="41.83461" lon="9.09217">
        <ele>1133.2</ele>
        <time>2021-06-03T10:00:10Z</time>
      </trkpt>
      <trkpt lat="41.83458" lon="9.09216">
        <ele>1133.2</ele>
        <time>2021-06-03T10:00:11Z</time>
      </trkpt>
      <trkpt lat="41.83455" lon="9.09215">
        <ele>1133.6</ele>
        <time>2021-06-03T10:00:12Z</time>
      </trkpt>
      <trkpt lat="41.83452" lon="9.09215">
        <ele>1133.6</ele>
        <time>2021-06-03T10:00:13Z</time>
      </trkpt>
      <trkpt lat="41.83449" lon="9.09214">
        <ele>1133.6</ele>
        <time>2021-06-03T10:00:14Z</time>
      </trkpt>
      <trkpt lat="41.83446" lon="9.09213">
        <ele>1133.6</ele>
        <time>2021-06-03T10:00:15Z</time>
      </trkpt>
      <trkpt lat="41.83443" lon="9.09212">
        <ele>1133.6</ele>
        <time>2021-06-03T10:00:16Z</time>
      </trkpt>
      <trkpt lat="41.8344" lon="9.09211">
        <ele>1133.8</ele>
        <time>2021-06-03T10:00:17Z</time>
      </trkpt>
      <trkpt lat="41.83438" lon="9.0921">
        <ele>1133.8</ele>
        <time>2021-06-03T10:00:18Z</time>
      </trkpt>
      <trkpt lat="41.83435" lon="9.09209">
        <ele>1133.8</ele>
        <time>2021-06-03T10:00:19Z</time>
      </trkpt>
      <trkpt lat="41.83432" lon="9.09208">
        <ele>1133.8</ele>
        <time>2021-06-03T10:00:20Z</time>
      </trkpt>
      <trkpt lat="41.83429" lon="9.09207">
        <ele>1133.4</ele>
        <time>2021-06-03T10:00:21Z</time>
      </trkpt>
      <trkpt lat="41.83426" lon="9.09206">
        <ele>1133.4</ele>
        <time>2021-06-03T10:00:22Z</time>
      </trkpt>
      <trkpt lat="41.83423" lon="9.09205">
        <ele>1133.4</ele>
        <time>2021-06-03T10:00:23Z</time>
      </trkpt>
      <trkpt lat="41.8342" lon="9.09204">
        <ele>1133.4</ele>
        <time>2021-06-03T10:00:24Z</time>
      </trkpt>
      <trkpt lat="41.83417" lon="9.09202">
        <ele>1134.2</ele>
        <time>2021-06-03T10:00:25Z</time>
      </trkpt>
      <trkpt lat="41.83414" lon="9.09201">
        <ele>1134.2</ele>
        <time>2021-06-03T10:00:26Z</time>
      </trkpt>
      <trkpt lat="41.83412" lon="9.09199">
        <ele>1134.2</ele>
        <time>2021-06-03T10:00:27Z</time>
      </trkpt>
      <trkpt lat="41.83409" lon="9.09196">
        <ele>1135</ele>
        <time>2021-06-03T10:00:28Z</time>
      </trkpt>
      <trkpt lat="41.83407" lon="9.09194">
        <ele>1134.8</ele>
        <time>2021-06-03T10:00:29Z</time>
      </trkpt>
      <trkpt lat="41.83405" lon="9.09191">
        <ele>1134.8</ele>
        <time>2021-06-03T10:00:30Z</time>
      </trkpt>
      <trkpt lat="41.83403" lon="9.09188">
        <ele>1134.8</ele>
        <time>2021-06-03T10:00:31Z</time>
      </trkpt>
      <trkpt lat="41.83401" lon="9.09185">
        <ele>1134.8</ele>
        <time>2021-06-03T10:00:32Z</time>
      </trkpt>
      <trkpt lat="41.83399" lon="9.09181">
        <ele>1134.2</ele>
        <time>2021-06-03T10:00:33Z</time>
      </trkpt>
      <trkpt lat="41.83398" lon="9.09178">
        <ele>1134.2</ele>
        <time>2021-06-03T10:00:34Z</time>
      </trkpt>
      <trkpt lat="41.83396" lon="9.09174">
        <ele>1134.2</ele>
        <time>2021-06-03T10:00:35Z</time>
      </trkpt>
      <trkpt lat="41.83395" lon="9.09171">
        <ele>1134.2</ele>
        <time>2021-06-03T10:00:36Z</time>
      </trkpt>
      <trkpt lat="41.83393" lon="9.09167">
        <ele>1133.2</ele>
        <time>2021-06-03T10:00:37Z</time>
      </trkpt>
      <trkpt lat="41.83393" lon="9.09163">
        <ele>1133.2</ele>
        <time>2021-06-03T10:00:38Z</time>
      </trkpt>
      <trkpt lat="41.83392" lon="9.09159">
        <ele>1133.2</ele>
        <time>2021-06-03T10:00:39Z</time>
      </trkpt>
      <trkpt lat="41.83391" lon="9.09155">
        <ele>1133.2</ele>
        <time>2021-06-03T10:00:40Z</time>
      </trkpt>
      <trkpt lat="41.83391" lon="9.09151">
        <ele>1133.4</ele>
        <time>2021-06-03T10:00:41Z</time>
      </trkpt>
      <trkpt lat="41.8339" lon="9.09147">
        <ele>1133.4</ele>
        <time>2021-06-03T10:00:42Z</time>
      </trkpt>
      <trkpt lat="41.83389" lon="9.09144">
        <ele>1133.4</ele>
        <time>2021-06-03T10:00:43Z</time>
      </trkpt>
      <trkpt lat="41.83389" lon="9.0914">
        <ele>1134.4</ele>
        <time>2021-06-03T10:00:44Z</time>
      </trkpt>
      <trkpt lat="41.83388" lon="9.09137">
        <ele>1135.4</ele>
        <time>2021-06-03T10:00:45Z</time>
      </trkpt>
      <trkpt lat="41.83387" lon="9.09133">
        <ele>1135.4</ele>
        <time>2021-06-03T10:00:46Z</time>
      </trkpt>
      <trkpt lat="41.83387" lon="9.0913">
        <ele>1135.4</ele>
        <time>2021-06-03T10:00:47Z</time>
      </trkpt>
      <trkpt lat="41.83386" lon="9.09127">
        <ele>1136</ele>
        <time>2021-06-03T10:00:48Z</time>
      </trkpt>
      <trkpt lat="41.83385" lon="9.09123">
        <ele>1136</ele>
        <time>2021-06-03T10:00:49Z</time>
      </trkpt>
      <trkpt lat="41.83383" lon="9.0912">
        <ele>1136</ele>
        <time>2021-06-03T10:00:50Z</time>
      </trkpt>
      <trkpt lat="41.83382" lon="9.09117">
        <ele>1136</ele>
        <time>2021-06-03T10:00:51Z</time>
      </trkpt>
      <trkpt lat="41.83381" lon="9.09114">
        <ele>1136.4</ele>
        <time>2021-06-03T10:00:52Z</time>
      </trkpt>
      <trkpt lat="41.83379" lon="9.0911">
        <ele>1136.8</ele>
        <time>2021-06-03T10:00:53Z</time>
      </trkpt>
      <trkpt lat="41.83377" lon="9.09107">
        <ele>1136.8</ele>
        <time>2021-06-03T10:00:54Z</time>
      </trkpt>
      <trkpt lat="41.83375" lon="9.09104">
        <ele>1136.8</ele>
        <time>2021-06-03T10:00:55Z</time>
      </trkpt>
      <trkpt lat="41.83373" lon="9.09101">
        <ele>1136.8</ele>
        <time>2021-06-03T10:00:56Z</time>
      </trkpt>
      <trkpt lat="41.83371" lon="9.09098">
        <ele>1137</ele>
        <time>2021-06-03T10:00:57Z</time>
      </trkpt>
      <trkpt lat="41.83369" lon="9.09096">
        <ele>1137</ele>
        <time>2021-06-03T10:00:58Z</time>
      </trkpt>
      <trkpt lat="41.83367" lon="9.09093">
        <ele>1137</ele>
        <time>2021-06-03T10:00:59Z</time>
      </trkpt>
      <trkpt lat="41.83365" lon="9.09091">
        <ele>1137</ele>
        <time>2021-06-03T10:01:00Z</time>
      </trkpt>
      <trkpt lat="41.83362" lon="9.09089">
        <ele>1137</ele>
        <time>2021-06-03T10:01:01Z</time>
      </trkpt>
      <trkpt lat="41.8336" lon="9.09086">
        <ele>1137</ele>
        <time>2021-06-03T10:01:02Z</time>
      </trkpt>
      <trkpt lat="41.83358" lon="9.09084">
        <ele>1137</ele>
        <time>2021-06-03T10:01:03Z</time>
      </trkpt>
      <trkpt lat="41.83356" lon="9.09081">
        <ele>1137</ele>
        <time>2021-06-03T10:01:04Z</time>
      </trkpt>
      <trkpt lat="41.83354" lon="9.09079">
        <ele>1136.6</ele>
        <time>2021-06-03T10:01:05Z</time>
      </trkpt>
      <trkpt lat="41.83351" lon="9.09077">
        <ele>1136.6</ele>
        <time>2021-06-03T10:01:06Z</time>
      </trkpt>
      <trkpt lat="41.83349" lon="9.09075">
        <ele>1136.6</ele>
        <time>2021-06-03T10:01:07Z</time>
      </trkpt>
      <trkpt lat="41.83347" lon="9.09073">
        <ele>1137.6</ele>
        <time>2021-06-03T10:01:08Z</time>
      </trkpt>
      <trkpt lat="41.83345" lon="9.0907">
        <ele>1137.8</ele>
        <time>2021-06-03T10:01:09Z</time>
      </trkpt>
      <trkpt lat="41.83343" lon="9.09067">
        <ele>1137.8</ele>
        <time>2021-06-03T10:01:10Z</time>
      </trkpt>
      <trkpt lat="41.83341" lon="9.09065">
        <ele>1137.8</ele>
        <time>2021-06-03T10:01:11Z</time>
      </trkpt>
      <trkpt lat="41.83339" lon="9.09062">
        <ele>1138.2</ele>
        <time>2021-06-03T10:01:12Z</time>
      </trkpt>
      <trkpt lat="41.83337" lon="9.0906">
        <ele>1138.6</ele>
        <time>2021-06-03T10:01:13Z</time>
      </trkpt>
      <trkpt lat="41.83334" lon="9.09059">
        <ele>1138.6</ele>
        <time>2021-06-03T10:01:14Z</time>
      </trkpt>
      <trkpt lat="41.83331" lon="9.09057">
        <ele>1138.6</ele>
        <time>2021-06-03T10:01:15Z</time>
      </trkpt>
      <trkpt lat="41.83329" lon="9.09055">
        <ele>1139</ele>
        <time>2021-06-03T10:01:16Z</time>
      </trkpt>
      <trkpt lat="41.83326" lon="9.09054">
        <ele>1139.6</ele>
        <time>2021-06-03T10:01:17Z</time>
      </trkpt>
      <trkpt lat="41.83324" lon="9.09052">
        <ele>1139.6</ele>
        <time>2021-06-03T10:01:18Z</time>
      </trkpt>
      <trkpt lat="41.83321" lon="9.0905">
        <ele>1139.6</ele>
        <time>2021-06-03T10:01:19Z</time>
      </trkpt>
      <trkpt lat="41.83319" lon="9.09049">
        <ele>1138.6</ele>
        <time>2021-06-03T10:01:20Z</time>
      </trkpt>
      <trkpt lat="41.83316" lon="9.09047">
        <ele>1138.2</ele>
        <time>2021-06-03T10:01:21Z</time>
      </trkpt>
      <trkpt lat="41.83314" lon="9.09045">
        <ele>1138.2</ele>
        <time>2021-06-03T10:01:22Z</time>
      </trkpt>
      <trkpt lat="41.83312" lon="9.09043">
        <ele>1138.2</ele>
        <time>2021-06-03T10:01:23Z</time>
      </trkpt>
      <trkpt lat="41.8331" lon="9.09041">
        <ele>1138.2</ele>
        <time>2021-06-03T10:01:24Z</time>
      </trkpt>
      <trkpt lat="41.83308" lon="9.0904">
        <ele>1138.8</ele>
        <time>2021-06-03T10:01:25Z</time>
      </trkpt>
      <trkpt lat="41.83306" lon="9.09038">
        <ele>1138.8</ele>
        <time>2021-06-03T10:01:26Z</time>
      </trkpt>
      <trkpt lat="41.83304" lon="9.09037">
        <ele>1138.8</ele>
        <time>2021-06-03T10:01:27Z</time>
      </trkpt>
      <trkpt lat="41.83303" lon="9.09035">
        <ele>1139.8</ele>
        <time>2021-06-03T10:01:28Z</time>
      </trkpt>
      <trkpt lat="41.83301" lon="9.09034">
        <ele>1139.4</ele>
        <time>2021-06-03T10:01:29Z</time>
      </trkpt>
      <trkpt lat="41.83299" lon="9.09033">
        <ele>1139.4</ele>
        <time>2021-06-03T10:01:30Z</time>
      </trkpt>
      <trkpt lat="41.83297" lon="9.09032">
        <ele>1139.4</ele>
        <time>2021-06-03T10:01:31Z</time>
      </trkpt>
      <trkpt lat="41.83295" lon="9.0903">
        <ele>1139.4</ele>
        <time>2021-06-03T10:01:32Z</time>
      </trkpt>
      <trkpt lat="41.83294" lon="9.09029">
        <ele>1139.8</ele>
        <time>2021-06-03T10:01:33Z</time>
      </trkpt>
      <trkpt lat="41.83292" lon="9.09027">
        <ele>1139.8</ele>
        <time>2021-06-03T10:01:34Z</time>
      </trkpt>
      <trkpt lat="41.83289" lon="9.09026">
        <ele>1139.8</ele>
        <time>2021-06-03T10:01:35Z</time>
      </trkpt>
      <trkpt lat="41.83287" lon="9.09025">
        <ele>1139.8</ele>
        <time>2021-06-03T10:01:36Z</time>
      </trkpt>
      <trkpt lat="41.83285" lon="9.09024">
        <ele>1139.8</ele>
        <time>2021-06-03T10:01:37Z</time>
      </trkpt>
      <trkpt lat="41.83282" lon="9.09023">
        <ele>1139.8</ele>
        <time>2021-06-03T10:01:38Z</time>
      </trkpt>
      <trkpt lat="41.8328" lon="9.09021">
        <ele>1139.8</ele>
        <time>2021-06-03T10:01:39Z</time>
      </trkpt>
      <trkpt lat="41.83277" lon="9.0902">
        <ele>1140</ele>
        <time>2021-06-03T10:01:40Z</time>
      </trkpt>
      <trkpt lat="41.83275" lon="9.09018">
        <ele>1139.6</ele>
        <time>2021-06-03T10:01:41Z</time>
      </trkpt>
      <trkpt lat="41.83272" lon="9.09017">
        <ele>1139.6</ele>
        <time>2021-06-03T10:01:42Z</time>
      </trkpt>
      <trkpt lat="41.8327" lon="9.09015">
        <ele>1139.6</ele>
        <time>2021-06-03T10:01:43Z</time>
      </trkpt>
      <trkpt lat="41.83267" lon="9.09014">
        <ele>1140.6</ele>
        <time>2021-06-03T10:01:44Z</time>
      </trkpt>
      <trkpt lat="41.83265" lon="9.09013">
        <ele>1140.6</ele>
        <time>2021-06-03T10:01:45Z</time>
      </trkpt>
      <trkpt lat="41.83262" lon="9.09012">
        <ele>1140.6</ele>
        <time>2021-06-03T10:01:46Z</time>
      </trkpt>
      <trkpt lat="41.8326" lon="9.0901">
        <ele>1140.6</ele>
        <time>2021-06-03T10:01:47Z</time>
      </trkpt>
      <trkpt lat="41.83257" lon="9.09009">
        <ele>1141</ele>
        <time>2021-06-03T10:01:48Z</time>
      </trkpt>
      <trkpt lat="41.83254" lon="9.09008">
        <ele>1140.8</ele>
        <time>2021-06-03T10:01:49Z</time>
      </trkpt>
      <trkpt lat="41.83252" lon="9.09007">
        <ele>1140.8</ele>
        <time>2021-06-03T10:01:50Z</time>
      </trkpt>
      <trkpt lat="41.83249" lon="9.09006">
        <ele>1140.8</ele>
        <time>2021-06-03T10:01:51Z</time>
      </trkpt>
      <trkpt lat="41.83247" lon="9.09005">
        <ele>1140.8</ele>
        <time>2021-06-03T10:01:52Z</time>
      </trkpt>
      <trkpt lat="41.83244" lon="9.09004">
        <ele>1140.8</ele>
        <time>2021-06-03T10:01:53Z</time>
      </trkpt>
      <trkpt lat="41.83241" lon="9.09004">
        <ele>1140.8</ele>
        <time>2021-06-03T10:01:54Z</time>
      </trkpt>
      <trkpt lat="41.83239" lon="9.09003">
        <ele>1140.8</ele>
        <time>2021-06-03T10:01:55Z</time>
      </trkpt>
      <trkpt lat="41.83236" lon="9.09003">
        <ele>1140.4</ele>
        <time>2021-06-03T10:01:56Z</time>
      </trkpt>
      <trkpt lat="41.83233" lon="9.09002">
        <ele>1140.2</ele>
        <time>2021-06-03T10:01:57Z</time>
      </trkpt>
      <trkpt lat="41.8323" lon="9.09001">
        <ele>1140.2</ele>
        <time>2021-06-03T10:01:58Z</time>
      </trkpt>
      <trkpt lat="41.83227" lon="9.09001">
        <ele>1140.2</ele>
        <time>2021-06-03T10:01:59Z</time>
      </trkpt>
      <trkpt lat="41.83225" lon="9.09">
        <ele>1140.2</ele>
        <time>2021-06-03T10:02:00Z</time>
      </trkpt>
      <trkpt lat="41.83222" lon="9.08999">
        <ele>1140.2</ele>
        <time>2021-06-03T10:02:01Z</time>
      </trkpt>
      <trkpt lat="41.83219" lon="9.08998">
        <ele>1140.2</ele>
        <time>2021-06-03T10:02:02Z</time>
      </trkpt>
      <trkpt lat="41.83216" lon="9.08997">
        <ele>1140.2</ele>
        <time>2021-06-03T10:02:03Z</time>
      </trkpt>
      <trkpt lat="41.83214" lon="9.08996">
        <ele>1139.2</ele>
        <time>2021-06-03T10:02:04Z</time>
      </trkpt>
      <trkpt lat="41.83211" lon="9.08996">
        <ele>1139.2</ele>
        <time>2021-06-03T10:02:05Z</time>
      </trkpt>
      <trkpt lat="41.83208" lon="9.08995">
        <ele>1139.2</ele>
        <time>2021-06-03T10:02:06Z</time>
      </trkpt>
      <trkpt lat="41.83205" lon="9.08995">
        <ele>1139.2</ele>
        <time>2021-06-03T10:02:07Z</time>
      </trkpt>
      <trkpt lat="41.83203" lon="9.08994">
        <ele>1139.2</ele>
        <time>2021-06-03T10:02:08Z</time>
      </trkpt>
      <trkpt lat="41.832" lon="9.08993">
        <ele>1139.8</ele>
        <time>2021-06-03T10:02:09Z</time>
      </trkpt>
      <trkpt lat="41.83197" lon="9.08993">
        <ele>1139.8</ele>
        <time>2021-06-03T10:02:10Z</time>
      </trkpt>
      <trkpt lat="41.83194" lon="9.08992">
        <ele>1139.8</ele>
        <time>2021-06-03T10:02:11Z</time>
      </trkpt>
      <trkpt lat="41.83192" lon="9.08991">
        <ele>1140.8</ele>
        <time>2021-06-03T10:02:12Z</time>
      </trkpt>
      <trkpt lat="41.83189" lon="9.0899">
        <ele>1141.2</ele>
        <time>2021-06-03T10:02:13Z</time>
      </trkpt>
      <trkpt lat="41.83186" lon="9.0899">
        <ele>1141.2</ele>
        <time>2021-06-03T10:02:14Z</time>
      </trkpt>
      <trkpt lat="41.83184" lon="9.08989">
        <ele>1141.2</ele>
        <time>2021-06-03T10:02:15Z</time>
      </trkpt>
      <trkpt lat="41.83181" lon="9.08988">
        <ele>1141.2</ele>
        <time>2021-06-03T10:02:16Z</time>
      </trkpt>
      <trkpt lat="41.83179" lon="9.08988">
        <ele>1141.4</ele>
        <time>2021-06-03T10:02:17Z</time>
      </trkpt>
      <trkpt lat="41.83176" lon="9.08987">
        <ele>1141.4</ele>
        <time>2021-06-03T10:02:18Z</time>
      </trkpt>
      <trkpt lat="41.83173" lon="9.08987">
        <ele>1141.4</ele>
        <time>2021-06-03T10:02:19Z</time>
      </trkpt>
      <trkpt lat="41.83171" lon="9.08986">
        <ele>1141.4</ele>
        <time>2021-06-03T10:02:20Z</time>
      </trkpt>
      <trkpt lat="41.83168" lon="9.08986">
        <ele>1141.8</ele>
        <time>2021-06-03T10:02:21Z</time>
      </trkpt>
      <trkpt lat="41.83165" lon="9.08985">
        <ele>1141.8</ele>
        <time>2021-06-03T10:02:22Z</time>
      </trkpt>
      <trkpt lat="41.83162" lon="9.08984">
        <ele>1141.8</ele>
        <time>2021-06-03T10:02:23Z</time>
      </trkpt>
      <trkpt lat="41.83159" lon="9.08984">
        <ele>1141.8</ele>
        <time>2021-06-03T10:02:24Z</time>
      </trkpt>
      <trkpt lat="41.83157" lon="9.08983">
        <ele>1142.6</ele>
        <time>2021-06-03T10:02:25Z</time>
      </trkpt>
      <trkpt lat="41.83154" lon="9.08983">
        <ele>1142.6</ele>
        <time>2021-06-03T10:02:26Z</time>
      </trkpt>
      <trkpt lat="41.83151" lon="9.08982">
        <ele>1142.6</ele>
        <time>2021-06-03T10:02:27Z</time>
      </trkpt>
      <trkpt lat="41.83148" lon="9.08981">
        <ele>1142.6</ele>
        <time>2021-06-03T10:02:28Z</time>
      </trkpt>
      <trkpt lat="41.83146" lon="9.0898">
        <ele>1142.6</ele>
        <time>2021-06-03T10:02:29Z</time>
      </trkpt>
      <trkpt lat="41.83143" lon="9.08979">
        <ele>1142.6</ele>
        <time>2021-06-03T10:02:30Z</time>
      </trkpt>
      <trkpt lat="41.8314" lon="9.08979">
        <ele>1142.6</ele>
        <time>2021-06-03T10:02:31Z</time>
      </trkpt>
      <trkpt lat="41.83138" lon="9.08978">
        <ele>1143.6</ele>
        <time>2021-06-03T10:02:32Z</time>
      </trkpt>
      <trkpt lat="41.83135" lon="9.08978">
        <ele>1144.2</ele>
        <time>2021-06-03T10:02:33Z</time>
      </trkpt>
      <trkpt lat="41.83132" lon="9.08977">
        <ele>1144.2</ele>
        <time>2021-06-03T10:02:34Z</time>
      </trkpt>
      <trkpt lat="41.8313" lon="9.08977">
        <ele>1144.2</ele>
        <time>2021-06-03T10:02:35Z</time>
      </trkpt>
      <trkpt lat="41.83127" lon="9.08976">
        <ele>1144.4</ele>
        <time>2021-06-03T10:02:36Z</time>
      </trkpt>
      <trkpt lat="41.83124" lon="9.08975">
        <ele>1144</ele>
        <time>2021-06-03T10:02:37Z</time>
      </trkpt>
      <trkpt lat="41.83122" lon="9.08974">
        <ele>1144</ele>
        <time>2021-06-03T10:02:38Z</time>
      </trkpt>
      <trkpt lat="41.83119" lon="9.08973">
        <ele>1144</ele>
        <time>2021-06-03T10:02:39Z</time>
      </trkpt>
      <trkpt lat="41.83116" lon="9.08972">
        <ele>1144.8</ele>
        <time>2021-06-03T10:02:40Z</time>
      </trkpt>
      <trkpt lat="41.83113" lon="9.0897">
        <ele>1144.8</ele>
        <time>2021-06-03T10:02:41Z</time>
      </trkpt>
      <trkpt lat="41.83111" lon="9.08967">
        <ele>1144.8</ele>
        <time>2021-06-03T10:02:42Z</time>
      </trkpt>
      <trkpt lat="41.83109" lon="9.08965">
        <ele>1144.8</ele>
        <time>2021-06-03T10:02:43Z</time>
      </trkpt>
      <trkpt lat="41.83106" lon="9.08961">
        <ele>1144.8</ele>
        <time>2021-06-03T10:02:44Z</time>
      </trkpt>
      <trkpt lat="41.83105" lon="9.08958">
        <ele>1145</ele>
        <time>2021-06-03T10:02:45Z</time>
      </trkpt>
      <trkpt lat="41.83103" lon="9.08955">
        <ele>1145</ele>
        <time>2021-06-03T10:02:46Z</time>
      </trkpt>
      <trkpt lat="41.83102" lon="9.08951">
        <ele>1145</ele>
        <time>2021-06-03T10:02:47Z</time>
      </trkpt>
      <trkpt lat="41.83101" lon="9.08948">
        <ele>1145</ele>
        <time>2021-06-03T10:02:48Z</time>
      </trkpt>
      <trkpt lat="41.831" lon="9.08945">
        <ele>1145.4</ele>
        <time>2021-06-03T10:02:49Z</time>
      </trkpt>
      <trkpt lat="41.83099" lon="9.08941">
        <ele>1145.4</ele>
        <time>2021-06-03T10:02:50Z</time>
      </trkpt>
      <trkpt lat="41.83099" lon="9.08938">
        <ele>1145.4</ele>
        <time>2021-06-03T10:02:51Z</time>
      </trkpt>
      <trkpt lat="41.83099" lon="9.08934">
        <ele>1145.4</ele>
        <time>2021-06-03T10:02:52Z</time>
      </trkpt>
      <trkpt lat="41.83099" lon="9.0893">
        <ele>1146.2</ele>
        <time>2021-06-03T10:02:53Z</time>
      </trkpt>
      <trkpt lat="41.83098" lon="9.08926">
        <ele>1146.2</ele>
        <time>2021-06-03T10:02:54Z</time>
      </trkpt>
      <trkpt lat="41.83098" lon="9.08922">
        <ele>1146.2</ele>
        <time>2021-06-03T10:02:55Z</time>
      </trkpt>
      <trkpt lat="41.83098" lon="9.08919">
        <ele>1146.2</ele>
        <time>2021-06-03T10:02:56Z</time>
      </trkpt>
      <trkpt lat="41.83098" lon="9.08915">
        <ele>1146.2</ele>
        <time>2021-06-03T10:02:57Z</time>
      </trkpt>
      <trkpt lat="41.83098" lon="9.08911">
        <ele>1146.2</ele>
        <time>2021-06-03T10:02:58Z</time>
      </trkpt>
      <trkpt lat="41.83098" lon="9.08907">
        <ele>1146.2</ele>
        <time>2021-06-03T10:02:59Z</time>
      </trkpt>
      <trkpt lat="41.83097" lon="9.08903">
        <ele>1146.2</ele>
        <time>2021-06-03T10:03:00Z</time>
      </trkpt>
      <trkpt lat="41.83097" lon="9.08899">
        <ele>1146.8</ele>
        <time>2021-06-03T10:03:01Z</time>
      </trkpt>
      <trkpt lat="41.83097" lon="9.08896">
        <ele>1146.8</ele>
        <time>2021-06-03T10:03:02Z</time>
      </trkpt>
      <trkpt lat="41.83097" lon="9.08892">
        <ele>1146.8</ele>
        <time>2021-06-03T10:03:03Z</time>
      </trkpt>
      <trkpt lat="41.83097" lon="9.08888">
        <ele>1147</ele>
        <time>2021-06-03T10:03:04Z</time>
      </trkpt>
      <trkpt lat="41.83096" lon="9.08883">
        <ele>1147.2</ele>
        <time>2021-06-03T10:03:05Z</time>
      </trkpt>
      <trkpt lat="41.83096" lon="9.08879">
        <ele>1147.2</ele>
        <time>2021-06-03T10:03:06Z</time>
      </trkpt>
      <trkpt lat="41.83096" lon="9.08875">
        <ele>1147.2</ele>
        <time>2021-06-03T10:03:07Z</time>
      </trkpt>
      <trkpt lat="41.83096" lon="9.08871">
        <ele>1147.4</ele>
        <time>2021-06-03T10:03:08Z</time>
      </trkpt>
      <trkpt lat="41.83095" lon="9.08867">
        <ele>1147.6</ele>
        <time>2021-06-03T10:03:09Z</time>
      </trkpt>
      <trkpt lat="41.83095" lon="9.08863">
        <ele>1147.6</ele>
        <time>2021-06-03T10:03:10Z</time>
      </trkpt>
      <trkpt lat="41.83094" lon="9.08859">
        <ele>1147.6</ele>
        <time>2021-06-03T10:03:11Z</time>
      </trkpt>
      <trkpt lat="41.83093" lon="9.08855">
        <ele>1147</ele>
        <time>2021-06-03T10:03:12Z</time>
      </trkpt>
      <trkpt lat="41.83092" lon="9.08851">
        <ele>1147.2</ele>
        <time>2021-06-03T10:03:13Z</time>
      </trkpt>
      <trkpt lat="41.83091" lon="9.08847">
        <ele>1147.2</ele>
        <time>2021-06-03T10:03:14Z</time>
      </trkpt>
      <trkpt lat="41.83089" lon="9.08843">
        <ele>1147.2</ele>
        <time>2021-06-03T10:03:15Z</time>
      </trkpt>
      <trkpt lat="41.83087" lon="9.0884">
        <ele>1147.2</ele>
        <time>2021-06-03T10:03:16Z</time>
      </trkpt>
      <trkpt lat="41.83085" lon="9.08837">
        <ele>1148</ele>
        <time>2021-06-03T10:03:17Z</time>
      </trkpt>
      <trkpt lat="41.83083" lon="9.08834">
        <ele>1148</ele>
        <time>2021-06-03T10:03:18Z</time>
      </trkpt>
      <trkpt lat="41.83081" lon="9.08831">
        <ele>1148</ele>
        <time>2021-06-03T10:03:19Z</time>
      </trkpt>
      <trkpt lat="41.83078" lon="9.08829">
        <ele>1147.4</ele>
        <time>2021-06-03T10:03:20Z</time>
      </trkpt>
      <trkpt lat="41.83076" lon="9.08827">
        <ele>1147.6</ele>
        <time>2021-06-03T10:03:21Z</time>
      </trkpt>
      <trkpt lat="41.83073" lon="9.08825">
        <ele>1147.6</ele>
        <time>2021-06-03T10:03:22Z</time>
      </trkpt>
      <trkpt lat="41.83071" lon="9.08824">
        <ele>1147.6</ele>
        <time>2021-06-03T10:03:23Z</time>
      </trkpt>
      <trkpt lat="41.83068" lon="9.08822">
        <ele>1147.6</ele>
        <time>2021-06-03T10:03:24Z</time>
      </trkpt>
      <trkpt lat="41.83066" lon="9.08822">
        <ele>1148.2</ele>
        <time>2021-06-03T10:03:25Z</time>
      </trkpt>
      <trkpt lat="41.83063" lon="9.08821">
        <ele>1148.2</ele>
        <time>2021-06-03T10:03:26Z</time>
      </trkpt>
      <trkpt lat="41.8306" lon="9.0882">
        <ele>1148.2</ele>
        <time>2021-06-03T10:03:27Z</time>
      </trkpt>
      <trkpt lat="41.83057" lon="9.08819">
        <ele>1148.2</ele>
        <time>2021-06-03T10:03:28Z</time>
      </trkpt>
      <trkpt lat="41.83055" lon="9.08818">
        <ele>1148.8</ele>
        <time>2021-06-03T10:03:29Z</time>
      </trkpt>
      <trkpt lat="41.83052" lon="9.08818">
        <ele>1148.8</ele>
        <time>2021-06-03T10:03:30Z</time>
      </trkpt>
      <trkpt lat="41.83049" lon="9.08818">
        <ele>1148.8</ele>
        <time>2021-06-03T10:03:31Z</time>
      </trkpt>
      <trkpt lat="41.83047" lon="9.08818">
        <ele>1148.8</ele>
        <time>2021-06-03T10:03:32Z</time>
      </trkpt>
      <trkpt lat="41.83044" lon="9.08818">
        <ele>1148.6</ele>
        <time>2021-06-03T10:03:33Z</time>
      </trkpt>
      <trkpt lat="41.83041" lon="9.0882">
        <ele>1148.6</ele>
        <time>2021-06-03T10:03:34Z</time>
      </trkpt>
      <trkpt lat="41.83039" lon="9.08821">
        <ele>1148.6</ele>
        <time>2021-06-03T10:03:35Z</time>
      </trkpt>
      <trkpt lat="41.83036" lon="9.08821">
        <ele>1148.6</ele>
        <time>2021-06-03T10:03:36Z</time>
      </trkpt>
      <trkpt lat="41.83034" lon="9.08822">
        <ele>1149.4</ele>
        <time>2021-06-03T10:03:37Z</time>
      </trkpt>
      <trkpt lat="41.83031" lon="9.08823">
        <ele>1149.4</ele>
        <time>2021-06-03T10:03:38Z</time>
      </trkpt>
      <trkpt lat="41.83028" lon="9.08824">
        <ele>1149.4</ele>
        <time>2021-06-03T10:03:39Z</time>
      </trkpt>
      <trkpt lat="41.83026" lon="9.08825">
        <ele>1149.4</ele>
        <time>2021-06-03T10:03:40Z</time>
      </trkpt>
      <trkpt lat="41.83023" lon="9.08826">
        <ele>1150</ele>
        <time>2021-06-03T10:03:41Z</time>
      </trkpt>
      <trkpt lat="41.8302" lon="9.08827">
        <ele>1150</ele>
        <time>2021-06-03T10:03:42Z</time>
      </trkpt>
      <trkpt lat="41.83018" lon="9.08828">
        <ele>1150</ele>
        <time>2021-06-03T10:03:43Z</time>
      </trkpt>
      <trkpt lat="41.83015" lon="9.08829">
        <ele>1150.2</ele>
        <time>2021-06-03T10:03:44Z</time>
      </trkpt>
      <trkpt lat="41.83012" lon="9.0883">
        <ele>1150</ele>
        <time>2021-06-03T10:03:45Z</time>
      </trkpt>
      <trkpt lat="41.83009" lon="9.08831">
        <ele>1150</ele>
        <time>2021-06-03T10:03:46Z</time>
      </trkpt>
      <trkpt lat="41.83006" lon="9.08831">
        <ele>1150</ele>
        <time>2021-06-03T10:03:47Z</time>
      </trkpt>
      <trkpt lat="41.83003" lon="9.08831">
        <ele>1150</ele>
        <time>2021-06-03T10:03:48Z</time>
      </trkpt>
      <trkpt lat="41.83001" lon="9.08831">
        <ele>1149.8</ele>
        <time>2021-06-03T10:03:49Z</time>
      </trkpt>
      <trkpt lat="41.82998" lon="9.08832">
        <ele>1149.8</ele>
        <time>2021-06-03T10:03:50Z</time>
      </trkpt>
      <trkpt lat="41.82995" lon="9.08832">
        <ele>1149.8</ele>
        <time>2021-06-03T10:03:51Z</time>
      </trkpt>
      <trkpt lat="41.82992" lon="9.08832">
        <ele>1149.8</ele>
        <time>2021-06-03T10:03:52Z</time>
      </trkpt>
      <trkpt lat="41.82989" lon="9.08831">
        <ele>1150</ele>
        <time>2021-06-03T10:03:53Z</time>
      </trkpt>
      <trkpt lat="41.82986" lon="9.08831">
        <ele>1150</ele>
        <time>2021-06-03T10:03:54Z</time>
      </trkpt>
      <trkpt lat="41.82983" lon="9.08831">
        <ele>1150</ele>
        <time>2021-06-03T10:03:55Z</time>
      </trkpt>
      <trkpt lat="41.8298" lon="9.08831">
        <ele>1150</ele>
        <time>2021-06-03T10:03:56Z</time>
      </trkpt>
      <trkpt lat="41.82977" lon="9.08831">
        <ele>1150.8</ele>
        <time>2021-06-03T10:03:57Z</time>
      </trkpt>
      <trkpt lat="41.82974" lon="9.08831">
        <ele>1150.8</ele>
        <time>2021-06-03T10:03:58Z</time>
      </trkpt>
      <trkpt lat="41.82972" lon="9.08831">
        <ele>1150.8</ele>
        <time>2021-06-03T10:03:59Z</time>
      </trkpt>
      <trkpt lat="41.82969" lon="9.08831">
        <ele>1150.8</ele>
        <time>2021-06-03T10:04:00Z</time>
      </trkpt>
      <trkpt lat="41.82966" lon="9.08831">
        <ele>1151.4</ele>
        <time>2021-06-03T10:04:01Z</time>
      </trkpt>
      <trkpt lat="41.82963" lon="9.08831">
        <ele>1151.4</ele>
        <time>2021-06-03T10:04:02Z</time>
      </trkpt>
      <trkpt lat="41.8296" lon="9.08831">
        <ele>1151.4</ele>
        <time>2021-06-03T10:04:03Z</time>
      </trkpt>
      <trkpt lat="41.82958" lon="9.08831">
        <ele>1151</ele>
        <time>2021-06-03T10:04:04Z</time>
      </trkpt>
      <trkpt lat="41.82955" lon="9.08831">
        <ele>1150.8</ele>
        <time>2021-06-03T10:04:05Z</time>
      </trkpt>
      <trkpt lat="41.82952" lon="9.08831">
        <ele>1150.8</ele>
        <time>2021-06-03T10:04:06Z</time>
      </trkpt>
      <trkpt lat="41.8295" lon="9.08831">
        <ele>1150.8</ele>
        <time>2021-06-03T10:04:07Z</time>
      </trkpt>
      <trkpt lat="41.82947" lon="9.0883">
        <ele>1151.8</ele>
        <time>2021-06-03T10:04:08Z</time>
      </trkpt>
      <trkpt lat="41.82944" lon="9.0883">
        <ele>1151.6</ele>
        <time>2021-06-03T10:04:09Z</time>
      </trkpt>
      <trkpt lat="41.82942" lon="9.0883">
        <ele>1151.6</ele>
        <time>2021-06-03T10:04:10Z</time>
      </trkpt>
      <trkpt lat="41.82939" lon="9.0883">
        <ele>1151.6</ele>
        <time>2021-06-03T10:04:11Z</time>
      </trkpt>
      <trkpt lat="41.82936" lon="9.0883">
        <ele>1151.6</ele>
        <time>2021-06-03T10:04:12Z</time>
      </trkpt>
      <trkpt lat="41.82934" lon="9.0883">
        <ele>1152.2</ele>
        <time>2021-06-03T10:04:13Z</time>
      </trkpt>
      <trkpt lat="41.82931" lon="9.0883">
        <ele>1152.2</ele>
        <time>2021-06-03T10:04:14Z</time>
      </trkpt>
      <trkpt lat="41.82928" lon="9.0883">
        <ele>1152.2</ele>
        <time>2021-06-03T10:04:15Z</time>
      </trkpt>
      <trkpt lat="41.82926" lon="9.0883">
        <ele>1152.4</ele>
        <time>2021-06-03T10:04:16Z</time>
      </trkpt>
      <trkpt lat="41.82923" lon="9.08831">
        <ele>1152.4</ele>
        <time>2021-06-03T10:04:17Z</time>
      </trkpt>
      <trkpt lat="41.82921" lon="9.08831">
        <ele>1152.4</ele>
        <time>2021-06-03T10:04:18Z</time>
      </trkpt>
      <trkpt lat="41.82918" lon="9.08831">
        <ele>1152.4</ele>
        <time>2021-06-03T10:04:19Z</time>
      </trkpt>
      <trkpt lat="41.82915" lon="9.08831">
        <ele>1152.6</ele>
        <time>2021-06-03T10:04:20Z</time>
      </trkpt>
      <trkpt lat="41.82913" lon="9.08832">
        <ele>1153</ele>
        <time>2021-06-03T10:04:21Z</time>
      </trkpt>
      <trkpt lat="41.8291" lon="9.08833">
        <ele>1153</ele>
        <time>2021-06-03T10:04:22Z</time>
      </trkpt>
      <trkpt lat="41.82907" lon="9.08833">
        <ele>1153</ele>
        <time>2021-06-03T10:04:23Z</time>
      </trkpt>
      <trkpt lat="41.82904" lon="9.08834">
        <ele>1153</ele>
        <time>2021-06-03T10:04:24Z</time>
      </trkpt>
      <trkpt lat="41.82902" lon="9.08834">
        <ele>1153.4</ele>
        <time>2021-06-03T10:04:25Z</time>
      </trkpt>
      <trkpt lat="41.82899" lon="9.08835">
        <ele>1153.4</ele>
        <time>2021-06-03T10:04:26Z</time>
      </trkpt>
      <trkpt lat="41.82896" lon="9.08836">
        <ele>1153.4</ele>
        <time>2021-06-03T10:04:27Z</time>
      </trkpt>
      <trkpt lat="41.82894" lon="9.08836">
        <ele>1153.8</ele>
        <time>2021-06-03T10:04:28Z</time>
      </trkpt>
      <trkpt lat="41.82891" lon="9.08837">
        <ele>1153.6</ele>
        <time>2021-06-03T10:04:29Z</time>
      </trkpt>
      <trkpt lat="41.82889" lon="9.08838">
        <ele>1153.6</ele>
        <time>2021-06-03T10:04:30Z</time>
      </trkpt>
      <trkpt lat="41.82886" lon="9.08839">
        <ele>1153.6</ele>
        <time>2021-06-03T10:04:31Z</time>
      </trkpt>
      <trkpt lat="41.82883" lon="9.0884">
        <ele>1153.6</ele>
        <time>2021-06-03T10:04:32Z</time>
      </trkpt>
      <trkpt lat="41.82881" lon="9.08841">
        <ele>1153.6</ele>
        <time>2021-06-03T10:04:33Z</time>
      </trkpt>
      <trkpt lat="41.82878" lon="9.08843">
        <ele>1153.6</ele>
        <time>2021-06-03T10:04:34Z</time>
      </trkpt>
      <trkpt lat="41.82875" lon="9.08844">
        <ele>1153.6</ele>
        <time>2021-06-03T10:04:35Z</time>
      </trkpt>
      <trkpt lat="41.82872" lon="9.08844">
        <ele>1153.6</ele>
        <time>2021-06-03T10:04:36Z</time>
      </trkpt>
      <trkpt lat="41.8287" lon="9.08845">
        <ele>1154</ele>
        <time>2021-06-03T10:04:37Z</time>
      </trkpt>
      <trkpt lat="41.82867" lon="9.08845">
        <ele>1154</ele>
        <time>2021-06-03T10:04:38Z</time>
      </trkpt>
      <trkpt lat="41.82865" lon="9.08845">
        <ele>1154</ele>
        <time>2021-06-03T10:04:39Z</time>
      </trkpt>
      <trkpt lat="41.82862" lon="9.08845">
        <ele>1154</ele>
        <time>2021-06-03T10:04:40Z</time>
      </trkpt>
      <trkpt lat="41.8286" lon="9.08845">
        <ele>1154</ele>
        <time>2021-06-03T10:04:41Z</time>
      </trkpt>
      <trkpt lat="41.82857" lon="9.08845">
        <ele>1154</ele>
        <time>2021-06-03T10:04:42Z</time>
      </trkpt>
      <trkpt lat="41.82854" lon="9.08844">
        <ele>1154</ele>
        <time>2021-06-03T10:04:43Z</time>
      </trkpt>
      <trkpt lat="41.82852" lon="9.08844">
        <ele>1154</ele>
        <time>2021-06-03T10:04:44Z</time>
      </trkpt>
      <trkpt lat="41.82849" lon="9.08843">
        <ele>1154.6</ele>
        <time>2021-06-03T10:04:45Z</time>
      </trkpt>
      <trkpt lat="41.82846" lon="9.08842">
        <ele>1154.6</ele>
        <time>2021-06-03T10:04:46Z</time>
      </trkpt>
      <trkpt lat="41.82844" lon="9.0884">
        <ele>1154.6</ele>
        <time>2021-06-03T10:04:47Z</time>
      </trkpt>
      <trkpt lat="41.82841" lon="9.08838">
        <ele>1154.6</ele>
        <time>2021-06-03T10:04:48Z</time>
      </trkpt>
      <trkpt lat="41.82839" lon="9.08837">
        <ele>1154.2</ele>
        <time>2021-06-03T10:04:49Z</time>
      </trkpt>
      <trkpt lat="41.82837" lon="9.08835">
        <ele>1154.2</ele>
        <time>2021-06-03T10:04:50Z</time>
      </trkpt>
      <trkpt lat="41.82835" lon="9.08833">
        <ele>1154.2</ele>
        <time>2021-06-03T10:04:51Z</time>
      </trkpt>
      <trkpt lat="41.82833" lon="9.0883">
        <ele>1155</ele>
        <time>2021-06-03T10:04:52Z</time>
      </trkpt>
      <trkpt lat="41.82831" lon="9.08828">
        <ele>1154.6</ele>
        <time>2021-06-03T10:04:53Z</time>
      </trkpt>
      <trkpt lat="41.82829" lon="9.08825">
        <ele>1154.6</ele>
        <time>2021-06-03T10:04:54Z</time>
      </trkpt>
      <trkpt lat="41.82826" lon="9.08823">
        <ele>1154.6</ele>
        <time>2021-06-03T10:04:55Z</time>
      </trkpt>
      <trkpt lat="41.82824" lon="9.08821">
        <ele>1154.8</ele>
        <time>2021-06-03T10:04:56Z</time>
      </trkpt>
      <trkpt lat="41.82822" lon="9.08819">
        <ele>1154.8</ele>
        <time>2021-06-03T10:04:57Z</time>
      </trkpt>
      <trkpt lat="41.82819" lon="9.08817">
        <ele>1154.8</ele>
        <time>2021-06-03T10:04:58Z</time>
      </trkpt>
      <trkpt lat="41.82817" lon="9.08815">
        <ele>1154.8</ele>
        <time>2021-06-03T10:04:59Z</time>
      </trkpt>
      <trkpt lat="41.82814" lon="9.08814">
        <ele>1154.6</ele>
        <time>2021-06-03T10:05:00Z</time>
      </trkpt>
      <trkpt lat="41.82811" lon="9.08813">
        <ele>1154.8</ele>
        <time>2021-06-03T10:05:01Z</time>
      </trkpt>
      <trkpt lat="41.82809" lon="9.08811">
        <ele>1154.8</ele>
        <time>2021-06-03T10:05:02Z</time>
      </trkpt>
      <trkpt lat="41.82806" lon="9.0881">
        <ele>1154.8</ele>
        <time>2021-06-03T10:05:03Z</time>
      </trkpt>
      <trkpt lat="41.82804" lon="9.08808">
        <ele>1155.4</ele>
        <time>2021-06-03T10:05:04Z</time>
      </trkpt>
      <trkpt lat="41.82801" lon="9.08807">
        <ele>1155.8</ele>
        <time>2021-06-03T10:05:05Z</time>
      </trkpt>
      <trkpt lat="41.82799" lon="9.08806">
        <ele>1155.8</ele>
        <time>2021-06-03T10:05:06Z</time>
      </trkpt>
      <trkpt lat="41.82796" lon="9.08804">
        <ele>1155.8</ele>
        <time>2021-06-03T10:05:07Z</time>
      </trkpt>
      <trkpt lat="41.82793" lon="9.08803">
        <ele>1155.8</ele>
        <time>2021-06-03T10:05:08Z</time>
      </trkpt>
      <trkpt lat="41.82791" lon="9.08802">
        <ele>1155.4</ele>
        <time>2021-06-03T10:05:09Z</time>
      </trkpt>
      <trkpt lat="41.82788" lon="9.088">
        <ele>1155.4</ele>
        <time>2021-06-03T10:05:10Z</time>
      </trkpt>
      <trkpt lat="41.82785" lon="9.08798">
        <ele>1155.4</ele>
        <time>2021-06-03T10:05:11Z</time>
      </trkpt>
      <trkpt lat="41.82783" lon="9.08796">
        <ele>1155.8</ele>
        <time>2021-06-03T10:05:12Z</time>
      </trkpt>
      <trkpt lat="41.8278" lon="9.08793">
        <ele>1155.8</ele>
        <time>2021-06-03T10:05:13Z</time>
      </trkpt>
      <trkpt lat="41.82778" lon="9.08791">
        <ele>1155.8</ele>
        <time>2021-06-03T10:05:14Z</time>
      </trkpt>
      <trkpt lat="41.82775" lon="9.08788">
        <ele>1155.8</ele>
        <time>2021-06-03T10:05:15Z</time>
      </trkpt>
      <trkpt lat="41.82773" lon="9.08785">
        <ele>1156.2</ele>
        <time>2021-06-03T10:05:16Z</time>
      </trkpt>
      <trkpt lat="41.82771" lon="9.08783">
        <ele>1156</ele>
        <time>2021-06-03T10:05:17Z</time>
      </trkpt>
      <trkpt lat="41.82769" lon="9.0878">
        <ele>1156</ele>
        <time>2021-06-03T10:05:18Z</time>
      </trkpt>
      <trkpt lat="41.82767" lon="9.08777">
        <ele>1156</ele>
        <time>2021-06-03T10:05:19Z</time>
      </trkpt>
      <trkpt lat="41.82765" lon="9.08774">
        <ele>1156</ele>
        <time>2021-06-03T10:05:20Z</time>
      </trkpt>
      <trkpt lat="41.82763" lon="9.08771">
        <ele>1155.8</ele>
        <time>2021-06-03T10:05:21Z</time>
      </trkpt>
      <trkpt lat="41.82761" lon="9.08768">
        <ele>1155.8</ele>
        <time>2021-06-03T10:05:22Z</time>
      </trkpt>
      <trkpt lat="41.82759" lon="9.08765">
        <ele>1155.8</ele>
        <time>2021-06-03T10:05:23Z</time>
      </trkpt>
      <trkpt lat="41.82757" lon="9.08762">
        <ele>1155.8</ele>
        <time>2021-06-03T10:05:24Z</time>
      </trkpt>
      <trkpt lat="41.82755" lon="9.0876">
        <ele>1156.6</ele>
        <time>2021-06-03T10:05:25Z</time>
      </trkpt>
      <trkpt lat="41.82752" lon="9.08757">
        <ele>1156.6</ele>
        <time>2021-06-03T10:05:26Z</time>
      </trkpt>
      <trkpt lat="41.8275" lon="9.08755">
        <ele>1156.6</ele>
        <time>2021-06-03T10:05:27Z</time>
      </trkpt>
      <trkpt lat="41.82747" lon="9.08753">
        <ele>1157</ele>
        <time>2021-06-03T10:05:28Z</time>
      </trkpt>
      <trkpt lat="41.82745" lon="9.08751">
        <ele>1157.6</ele>
        <time>2021-06-03T10:05:29Z</time>
      </trkpt>
      <trkpt lat="41.82742" lon="9.08749">
        <ele>1157.6</ele>
        <time>2021-06-03T10:05:30Z</time>
      </trkpt>
      <trkpt lat="41.8274" lon="9.08747">
        <ele>1157.6</ele>
        <time>2021-06-03T10:05:31Z</time>
      </trkpt>
      <trkpt lat="41.82737" lon="9.08746">
        <ele>1156.6</ele>
        <time>2021-06-03T10:05:32Z</time>
      </trkpt>
      <trkpt lat="41.82734" lon="9.08745">
        <ele>1156.8</ele>
        <time>2021-06-03T10:05:33Z</time>
      </trkpt>
      <trkpt lat="41.82731" lon="9.08744">
        <ele>1156.8</ele>
        <time>2021-06-03T10:05:34Z</time>
      </trkpt>
      <trkpt lat="41.82728" lon="9.08743">
        <ele>1156.8</ele>
        <time>2021-06-03T10:05:35Z</time>
      </trkpt>
      <trkpt lat="41.82726" lon="9.08742">
        <ele>1157.2</ele>
        <time>2021-06-03T10:05:36Z</time>
      </trkpt>
      <trkpt lat="41.82723" lon="9.0874">
        <ele>1157.6</ele>
        <time>2021-06-03T10:05:37Z</time>
      </trkpt>
      <trkpt lat="41.8272" lon="9.08739">
        <ele>1157.6</ele>
        <time>2021-06-03T10:05:38Z</time>
      </trkpt>
      <trkpt lat="41.82717" lon="9.08738">
        <ele>1157.6</ele>
        <time>2021-06-03T10:05:39Z</time>
      </trkpt>
      <trkpt lat="41.82714" lon="9.08736">
        <ele>1157.6</ele>
        <time>2021-06-03T10:05:40Z</time>
      </trkpt>
      <trkpt lat="41.82712" lon="9.08735">
        <ele>1158.6</ele>
        <time>2021-06-03T10:05:41Z</time>
      </trkpt>
      <trkpt lat="41.82709" lon="9.08733">
        <ele>1158.6</ele>
        <time>2021-06-03T10:05:42Z</time>
      </trkpt>
      <trkpt lat="41.82706" lon="9.08732">
        <ele>1158.6</ele>
        <time>2021-06-03T10:05:43Z</time>
      </trkpt>
      <trkpt lat="41.82704" lon="9.0873">
        <ele>1158.6</ele>
        <time>2021-06-03T10:05:44Z</time>
      </trkpt>
      <trkpt lat="41.82701" lon="9.08729">
        <ele>1158.6</ele>
        <time>2021-06-03T10:05:45Z</time>
      </trkpt>
      <trkpt lat="41.82698" lon="9.08727">
        <ele>1158.6</ele>
        <time>2021-06-03T10:05:46Z</time>
      </trkpt>
      <trkpt lat="41.82695" lon="9.08726">
        <ele>1158.6</ele>
        <time>2021-06-03T10:05:47Z</time>
      </trkpt>
      <trkpt lat="41.82692" lon="9.08724">
        <ele>1159.6</ele>
        <time>2021-06-03T10:05:48Z</time>
      </trkpt>
      <trkpt lat="41.8269" lon="9.08723">
        <ele>1159.6</ele>
        <time>2021-06-03T10:05:49Z</time>
      </trkpt>
      <trkpt lat="41.82687" lon="9.08722">
        <ele>1159.6</ele>
        <time>2021-06-03T10:05:50Z</time>
      </trkpt>
      <trkpt lat="41.82684" lon="9.08721">
        <ele>1159.6</ele>
        <time>2021-06-03T10:05:51Z</time>
      </trkpt>
      <trkpt lat="41.82681" lon="9.08721">
        <ele>1159.6</ele>
        <time>2021-06-03T10:05:52Z</time>
      </trkpt>
      <trkpt lat="41.82678" lon="9.08721">
        <ele>1159.6</ele>
        <time>2021-06-03T10:05:53Z</time>
      </trkpt>
      <trkpt lat="41.82676" lon="9.08721">
        <ele>1159.6</ele>
        <time>2021-06-03T10:05:54Z</time>
      </trkpt>
      <trkpt lat="41.82673" lon="9.08721">
        <ele>1159.6</ele>
        <time>2021-06-03T10:05:55Z</time>
      </trkpt>
      <trkpt lat="41.8267" lon="9.08722">
        <ele>1159.6</ele>
        <time>2021-06-03T10:05:56Z</time>
      </trkpt>
      <trkpt lat="41.82667" lon="9.08723">
        <ele>1159.4</ele>
        <time>2021-06-03T10:05:57Z</time>
      </trkpt>
      <trkpt lat="41.82664" lon="9.08725">
        <ele>1159.4</ele>
        <time>2021-06-03T10:05:58Z</time>
      </trkpt>
      <trkpt lat="41.82662" lon="9.08726">
        <ele>1159.4</ele>
        <time>2021-06-03T10:05:59Z</time>
      </trkpt>
      <trkpt lat="41.82659" lon="9.08728">
        <ele>1159.8</ele>
        <time>2021-06-03T10:06:00Z</time>
      </trkpt>
      <trkpt lat="41.82657" lon="9.08731">
        <ele>1160.2</ele>
        <time>2021-06-03T10:06:01Z</time>
      </trkpt>
      <trkpt lat="41.82655" lon="9.08733">
        <ele>1160.2</ele>
        <time>2021-06-03T10:06:02Z</time>
      </trkpt>
      <trkpt lat="41.82652" lon="9.08736">
        <ele>1160.2</ele>
        <time>2021-06-03T10:06:03Z</time>
      </trkpt>
      <trkpt lat="41.8265" lon="9.08738">
        <ele>1160.2</ele>
        <time>2021-06-03T10:06:04Z</time>
      </trkpt>
      <trkpt lat="41.82648" lon="9.0874">
        <ele>1160</ele>
        <time>2021-06-03T10:06:05Z</time>
      </trkpt>
      <trkpt lat="41.82645" lon="9.08743">
        <ele>1160</ele>
        <time>2021-06-03T10:06:06Z</time>
      </trkpt>
      <trkpt lat="41.82643" lon="9.08745">
        <ele>1160</ele>
        <time>2021-06-03T10:06:07Z</time>
      </trkpt>
      <trkpt lat="41.82641" lon="9.08748">
        <ele>1160.2</ele>
        <time>2021-06-03T10:06:08Z</time>
      </trkpt>
      <trkpt lat="41.82639" lon="9.0875">
        <ele>1160.8</ele>
        <time>2021-06-03T10:06:09Z</time>
      </trkpt>
      <trkpt lat="41.82636" lon="9.08752">
        <ele>1160.8</ele>
        <time>2021-06-03T10:06:10Z</time>
      </trkpt>
      <trkpt lat="41.82634" lon="9.08754">
        <ele>1160.8</ele>
        <time>2021-06-03T10:06:11Z</time>
      </trkpt>
      <trkpt lat="41.82631" lon="9.08756">
        <ele>1160.8</ele>
        <time>2021-06-03T10:06:12Z</time>
      </trkpt>
      <trkpt lat="41.82629" lon="9.08758">
        <ele>1161.4</ele>
        <time>2021-06-03T10:06:13Z</time>
      </trkpt>
      <trkpt lat="41.82626" lon="9.08759">
        <ele>1161.4</ele>
        <time>2021-06-03T10:06:14Z</time>
      </trkpt>
      <trkpt lat="41.82624" lon="9.0876">
        <ele>1161.4</ele>
        <time>2021-06-03T10:06:15Z</time>
      </trkpt>
      <trkpt lat="41.82621" lon="9.08762">
        <ele>1161.4</ele>
        <time>2021-06-03T10:06:16Z</time>
      </trkpt>
      <trkpt lat="41.82618" lon="9.08763">
        <ele>1161</ele>
        <time>2021-06-03T10:06:17Z</time>
      </trkpt>
      <trkpt lat="41.82616" lon="9.08764">
        <ele>1161</ele>
        <time>2021-06-03T10:06:18Z</time>
      </trkpt>
      <trkpt lat="41.82613" lon="9.08765">
        <ele>1161</ele>
        <time>2021-06-03T10:06:19Z</time>
      </trkpt>
      <trkpt lat="41.82611" lon="9.08766">
        <ele>1161.4</ele>
        <time>2021-06-03T10:06:20Z</time>
      </trkpt>
      <trkpt lat="41.82608" lon="9.08767">
        <ele>1161.6</ele>
        <time>2021-06-03T10:06:21Z</time>
      </trkpt>
      <trkpt lat="41.82605" lon="9.08768">
        <ele>1161.6</ele>
        <time>2021-06-03T10:06:22Z</time>
      </trkpt>
      <trkpt lat="41.82602" lon="9.08769">
        <ele>1161.6</ele>
        <time>2021-06-03T10:06:23Z</time>
      </trkpt>
      <trkpt lat="41.826" lon="9.0877">
        <ele>1161.6</ele>
        <time>2021-06-03T10:06:24Z</time>
      </trkpt>
      <trkpt lat="41.82597" lon="9.0877">
        <ele>1161.4</ele>
        <time>2021-06-03T10:06:25Z</time>
      </trkpt>
      <trkpt lat="41.82594" lon="9.08771">
        <ele>1161.4</ele>
        <time>2021-06-03T10:06:26Z</time>
      </trkpt>
      <trkpt lat="41.82591" lon="9.08771">
        <ele>1161.4</ele>
        <time>2021-06-03T10:06:27Z</time>
      </trkpt>
      <trkpt lat="41.82588" lon="9.0877">
        <ele>1162.4</ele>
        <time>2021-06-03T10:06:28Z</time>
      </trkpt>
      <trkpt lat="41.82586" lon="9.08769">
        <ele>1162.8</ele>
        <time>2021-06-03T10:06:29Z</time>
      </trkpt>
      <trkpt lat="41.82583" lon="9.08768">
        <ele>1162.8</ele>
        <time>2021-06-03T10:06:30Z</time>
      </trkpt>
      <trkpt lat="41.82581" lon="9.08767">
        <ele>1162.8</ele>
        <time>2021-06-03T10:06:31Z</time>
      </trkpt>
      <trkpt lat="41.82578" lon="9.08764">
        <ele>1162.8</ele>
        <time>2021-06-03T10:06:32Z</time>
      </trkpt>
      <trkpt lat="41.82576" lon="9.08762">
        <ele>1162.2</ele>
        <time>2021-06-03T10:06:33Z</time>
      </trkpt>
      <trkpt lat="41.82574" lon="9.08759">
        <ele>1162.2</ele>
        <time>2021-06-03T10:06:34Z</time>
      </trkpt>
      <trkpt lat="41.82572" lon="9.08756">
        <ele>1162.2</ele>
        <time>2021-06-03T10:06:35Z</time>
      </trkpt>
      <trkpt lat="41.82571" lon="9.08753">
        <ele>1162.2</ele>
        <time>2021-06-03T10:06:36Z</time>
      </trkpt>
      <trkpt lat="41.82569" lon="9.0875">
        <ele>1162.8</ele>
        <time>2021-06-03T10:06:37Z</time>
      </trkpt>
      <trkpt lat="41.82568" lon="9.08747">
        <ele>1162.8</ele>
        <time>2021-06-03T10:06:38Z</time>
      </trkpt>
      <trkpt lat="41.82566" lon="9.08743">
        <ele>1162.8</ele>
        <time>2021-06-03T10:06:39Z</time>
      </trkpt>
      <trkpt lat="41.82564" lon="9.08741">
        <ele>1163.8</ele>
        <time>2021-06-03T10:06:40Z</time>
      </trkpt>
      <trkpt lat="41.82562" lon="9.08738">
        <ele>1164.2</ele>
        <time>2021-06-03T10:06:41Z</time>
      </trkpt>
      <trkpt lat="41.8256" lon="9.08736">
        <ele>1164.2</ele>
        <time>2021-06-03T10:06:42Z</time>
      </trkpt>
      <trkpt lat="41.82558" lon="9.08733">
        <ele>1164.2</ele>
        <time>2021-06-03T10:06:43Z</time>
      </trkpt>
      <trkpt lat="41.82556" lon="9.0873">
        <ele>1164.2</ele>
        <time>2021-06-03T10:06:44Z</time>
      </trkpt>
      <trkpt lat="41.82554" lon="9.08727">
        <ele>1163.6</ele>
        <time>2021-06-03T10:06:45Z</time>
      </trkpt>
      <trkpt lat="41.82552" lon="9.08725">
        <ele>1163.6</ele>
        <time>2021-06-03T10:06:46Z</time>
      </trkpt>
      <trkpt lat="41.82549" lon="9.08722">
        <ele>1163.6</ele>
        <time>2021-06-03T10:06:47Z</time>
      </trkpt>
      <trkpt lat="41.82547" lon="9.0872">
        <ele>1163.8</ele>
        <time>2021-06-03T10:06:48Z</time>
      </trkpt>
      <trkpt lat="41.82544" lon="9.08718">
        <ele>1163.6</ele>
        <time>2021-06-03T10:06:49Z</time>
      </trkpt>
      <trkpt lat="41.82542" lon="9.08716">
        <ele>1163.6</ele>
        <time>2021-06-03T10:06:50Z</time>
      </trkpt>
      <trkpt lat="41.82539" lon="9.08714">
        <ele>1163.6</ele>
        <time>2021-06-03T10:06:51Z</time>
      </trkpt>
      <trkpt lat="41.82536" lon="9.08712">
        <ele>1163.6</ele>
        <time>2021-06-03T10:06:52Z</time>
      </trkpt>
      <trkpt lat="41.82534" lon="9.0871">
        <ele>1164.4</ele>
        <time>2021-06-03T10:06:53Z</time>
      </trkpt>
      <trkpt lat="41.82531" lon="9.08708">
        <ele>1164.4</ele>
        <time>2021-06-03T10:06:54Z</time>
      </trkpt>
      <trkpt lat="41.82528" lon="9.08706">
        <ele>1164.4</ele>
        <time>2021-06-03T10:06:55Z</time>
      </trkpt>
      <trkpt lat="41.82526" lon="9.08705">
        <ele>1165</ele>
        <time>2021-06-03T10:06:56Z</time>
      </trkpt>
      <trkpt lat="41.82523" lon="9.08702">
        <ele>1164.8</ele>
        <time>2021-06-03T10:06:57Z</time>
      </trkpt>
      <trkpt lat="41.8252" lon="9.087">
        <ele>1164.8</ele>
        <time>2021-06-03T10:06:58Z</time>
      </trkpt>
      <trkpt lat="41.82518" lon="9.08697">
        <ele>1164.8</ele>
        <time>2021-06-03T10:06:59Z</time>
      </trkpt>
      <trkpt lat="41.82516" lon="9.08694">
        <ele>1164.8</ele>
        <time>2021-06-03T10:07:00Z</time>
      </trkpt>
      <trkpt lat="41.82514" lon="9.0869">
        <ele>1164.8</ele>
        <time>2021-06-03T10:07:01Z</time>
      </trkpt>
      <trkpt lat="41.82513" lon="9.08687">
        <ele>1164.8</ele>
        <time>2021-06-03T10:07:02Z</time>
      </trkpt>
      <trkpt lat="41.82512" lon="9.08683">
        <ele>1164.8</ele>
        <time>2021-06-03T10:07:03Z</time>
      </trkpt>
      <trkpt lat="41.82511" lon="9.08679">
        <ele>1164.8</ele>
        <time>2021-06-03T10:07:04Z</time>
      </trkpt>
      <trkpt lat="41.82511" lon="9.08675">
        <ele>1165</ele>
        <time>2021-06-03T10:07:05Z</time>
      </trkpt>
      <trkpt lat="41.82512" lon="9.08672">
        <ele>1165</ele>
        <time>2021-06-03T10:07:06Z</time>
      </trkpt>
      <trkpt lat="41.82512" lon="9.08668">
        <ele>1165</ele>
        <time>2021-06-03T10:07:07Z</time>
      </trkpt>
      <trkpt lat="41.82512" lon="9.08665">
        <ele>1165</ele>
        <time>2021-06-03T10:07:08Z</time>
      </trkpt>
      <trkpt lat="41.82512" lon="9.08661">
        <ele>1165</ele>
        <time>2021-06-03T10:07:09Z</time>
      </trkpt>
      <trkpt lat="41.82513" lon="9.08658">
        <ele>1165</ele>
        <time>2021-06-03T10:07:10Z</time>
      </trkpt>
      <trkpt lat="41.82513" lon="9.08654">
        <ele>1165</ele>
        <time>2021-06-03T10:07:11Z</time>
      </trkpt>
      <trkpt lat="41.82513" lon="9.08651">
        <ele>1165</ele>
        <time>2021-06-03T10:07:12Z</time>
      </trkpt>
      <trkpt lat="41.82514" lon="9.08647">
        <ele>1165</ele>
        <time>2021-06-03T10:07:13Z</time>
      </trkpt>
      <trkpt lat="41.82514" lon="9.08644">
        <ele>1165</ele>
        <time>2021-06-03T10:07:14Z</time>
      </trkpt>
      <trkpt lat="41.82515" lon="9.0864">
        <ele>1165</ele>
        <time>2021-06-03T10:07:15Z</time>
      </trkpt>
      <trkpt lat="41.82515" lon="9.08636">
        <ele>1165</ele>
        <time>2021-06-03T10:07:16Z</time>
      </trkpt>
      <trkpt lat="41.82515" lon="9.08633">
        <ele>1164.8</ele>
        <time>2021-06-03T10:07:17Z</time>
      </trkpt>
      <trkpt lat="41.82516" lon="9.08629">
        <ele>1164.8</ele>
        <time>2021-06-03T10:07:18Z</time>
      </trkpt>
      <trkpt lat="41.82516" lon="9.08626">
        <ele>1164.8</ele>
        <time>2021-06-03T10:07:19Z</time>
      </trkpt>
      <trkpt lat="41.82516" lon="9.08622">
        <ele>1165</ele>
        <time>2021-06-03T10:07:20Z</time>
      </trkpt>
      <trkpt lat="41.82516" lon="9.08618">
        <ele>1165.2</ele>
        <time>2021-06-03T10:07:21Z</time>
      </trkpt>
      <trkpt lat="41.82515" lon="9.08615">
        <ele>1165.2</ele>
        <time>2021-06-03T10:07:22Z</time>
      </trkpt>
      <trkpt lat="41.82515" lon="9.08611">
        <ele>1165.2</ele>
        <time>2021-06-03T10:07:23Z</time>
      </trkpt>
      <trkpt lat="41.82514" lon="9.08607">
        <ele>1165.8</ele>
        <time>2021-06-03T10:07:24Z</time>
      </trkpt>
      <trkpt lat="41.82513" lon="9.08604">
        <ele>1165.8</ele>
        <time>2021-06-03T10:07:25Z</time>
      </trkpt>
      <trkpt lat="41.82512" lon="9.086">
        <ele>1165.8</ele>
        <time>2021-06-03T10:07:26Z</time>
      </trkpt>
      <trkpt lat="41.8251" lon="9.08597">
        <ele>1165.8</ele>
        <time>2021-06-03T10:07:27Z</time>
      </trkpt>
      <trkpt lat="41.82509" lon="9.08594">
        <ele>1165.8</ele>
        <time>2021-06-03T10:07:28Z</time>
      </trkpt>
      <trkpt lat="41.82507" lon="9.08591">
        <ele>1166.4</ele>
        <time>2021-06-03T10:07:29Z</time>
      </trkpt>
      <trkpt lat="41.82506" lon="9.08589">
        <ele>1166.4</ele>
        <time>2021-06-03T10:07:30Z</time>
      </trkpt>
      <trkpt lat="41.82504" lon="9.08586">
        <ele>1166.4</ele>
        <time>2021-06-03T10:07:31Z</time>
      </trkpt>
      <trkpt lat="41.82501" lon="9.08584">
        <ele>1166.4</ele>
        <time>2021-06-03T10:07:32Z</time>
      </trkpt>
      <trkpt lat="41.82499" lon="9.08582">
        <ele>1167</ele>
        <time>2021-06-03T10:07:33Z</time>
      </trkpt>
      <trkpt lat="41.82497" lon="9.0858">
        <ele>1167</ele>
        <time>2021-06-03T10:07:34Z</time>
      </trkpt>
      <trkpt lat="41.82495" lon="9.08579">
        <ele>1167</ele>
        <time>2021-06-03T10:07:35Z</time>
      </trkpt>
      <trkpt lat="41.82492" lon="9.08577">
        <ele>1167</ele>
        <time>2021-06-03T10:07:36Z</time>
      </trkpt>
      <trkpt lat="41.8249" lon="9.08575">
        <ele>1167.4</ele>
        <time>2021-06-03T10:07:37Z</time>
      </trkpt>
      <trkpt lat="41.82487" lon="9.08574">
        <ele>1167.4</ele>
        <time>2021-06-03T10:07:38Z</time>
      </trkpt>
      <trkpt lat="41.82485" lon="9.08572">
        <ele>1167.4</ele>
        <time>2021-06-03T10:07:39Z</time>
      </trkpt>
      <trkpt lat="41.82483" lon="9.08571">
        <ele>1167.4</ele>
        <time>2021-06-03T10:07:40Z</time>
      </trkpt>
      <trkpt lat="41.8248" lon="9.08569">
        <ele>1167.8</ele>
        <time>2021-06-03T10:07:41Z</time>
      </trkpt>
      <trkpt lat="41.82478" lon="9.08568">
        <ele>1167.8</ele>
        <time>2021-06-03T10:07:42Z</time>
      </trkpt>
      <trkpt lat="41.82476" lon="9.08566">
        <ele>1167.8</ele>
        <time>2021-06-03T10:07:43Z</time>
      </trkpt>
      <trkpt lat="41.82474" lon="9.08565">
        <ele>1168.2</ele>
        <time>2021-06-03T10:07:44Z</time>
      </trkpt>
      <trkpt lat="41.82471" lon="9.08564">
        <ele>1167.6</ele>
        <time>2021-06-03T10:07:45Z</time>
      </trkpt>
      <trkpt lat="41.82469" lon="9.08562">
        <ele>1167.6</ele>
        <time>2021-06-03T10:07:46Z</time>
      </trkpt>
      <trkpt lat="41.82467" lon="9.08561">
        <ele>1167.6</ele>
        <time>2021-06-03T10:07:47Z</time>
      </trkpt>
      <trkpt lat="41.82464" lon="9.0856">
        <ele>1167.6</ele>
        <time>2021-06-03T10:07:48Z</time>
      </trkpt>
      <trkpt lat="41.82462" lon="9.08559">
        <ele>1167.6</ele>
        <time>2021-06-03T10:07:49Z</time>
      </trkpt>
      <trkpt lat="41.8246" lon="9.08557">
        <ele>1167.6</ele>
        <time>2021-06-03T10:07:50Z</time>
      </trkpt>
      <trkpt lat="41.82457" lon="9.08556">
        <ele>1167.6</ele>
        <time>2021-06-03T10:07:51Z</time>
      </trkpt>
      <trkpt lat="41.82455" lon="9.08555">
        <ele>1166.6</ele>
        <time>2021-06-03T10:07:52Z</time>
      </trkpt>
      <trkpt lat="41.82453" lon="9.08553">
        <ele>1166.4</ele>
        <time>2021-06-03T10:07:53Z</time>
      </trkpt>
      <trkpt lat="41.8245" lon="9.08551">
        <ele>1166.4</ele>
        <time>2021-06-03T10:07:54Z</time>
      </trkpt>
      <trkpt lat="41.82448" lon="9.0855">
        <ele>1166.4</ele>
        <time>2021-06-03T10:07:55Z</time>
      </trkpt>
      <trkpt lat="41.82446" lon="9.08548">
        <ele>1167.4</ele>
        <time>2021-06-03T10:07:56Z</time>
      </trkpt>
      <trkpt lat="41.82443" lon="9.08546">
        <ele>1168</ele>
        <time>2021-06-03T10:07:57Z</time>
      </trkpt>
      <trkpt lat="41.82441" lon="9.08544">
        <ele>1168</ele>
        <time>2021-06-03T10:07:58Z</time>
      </trkpt>
      <trkpt lat="41.82439" lon="9.08542">
        <ele>1168</ele>
        <time>2021-06-03T10:07:59Z</time>
      </trkpt>
      <trkpt lat="41.82437" lon="9.08539">
        <ele>1168.4</ele>
        <time>2021-06-03T10:08:00Z</time>
      </trkpt>
      <trkpt lat="41.82435" lon="9.08537">
        <ele>1168.8</ele>
        <time>2021-06-03T10:08:01Z</time>
      </trkpt>
      <trkpt lat="41.82433" lon="9.08535">
        <ele>1168.8</ele>
        <time>2021-06-03T10:08:02Z</time>
      </trkpt>
      <trkpt lat="41.82432" lon="9.08532">
        <ele>1168.8</ele>
        <time>2021-06-03T10:08:03Z</time>
      </trkpt>
      <trkpt lat="41.8243" lon="9.08529">
        <ele>1169.4</ele>
        <time>2021-06-03T10:08:04Z</time>
      </trkpt>
      <trkpt lat="41.82429" lon="9.08526">
        <ele>1169.4</ele>
        <time>2021-06-03T10:08:05Z</time>
      </trkpt>
      <trkpt lat="41.82428" lon="9.08522">
        <ele>1169.4</ele>
        <time>2021-06-03T10:08:06Z</time>
      </trkpt>
      <trkpt lat="41.82426" lon="9.08519">
        <ele>1169.4</ele>
        <time>2021-06-03T10:08:07Z</time>
      </trkpt>
      <trkpt lat="41.82425" lon="9.08516">
        <ele>1169.4</ele>
        <time>2021-06-03T10:08:08Z</time>
      </trkpt>
      <trkpt lat="41.82424" lon="9.08513">
        <ele>1169.4</ele>
        <time>2021-06-03T10:08:09Z</time>
      </trkpt>
      <trkpt lat="41.82423" lon="9.0851">
        <ele>1169.4</ele>
        <time>2021-06-03T10:08:10Z</time>
      </trkpt>
      <trkpt lat="41.82422" lon="9.08506">
        <ele>1169.4</ele>
        <time>2021-06-03T10:08:11Z</time>
      </trkpt>
      <trkpt lat="41.82421" lon="9.08503">
        <ele>1169.4</ele>
        <time>2021-06-03T10:08:12Z</time>
      </trkpt>
      <trkpt lat="41.8242" lon="9.085">
        <ele>1169.6</ele>
        <time>2021-06-03T10:08:13Z</time>
      </trkpt>
      <trkpt lat="41.82419" lon="9.08497">
        <ele>1169.6</ele>
        <time>2021-06-03T10:08:14Z</time>
      </trkpt>
      <trkpt lat="41.82418" lon="9.08494">
        <ele>1169.6</ele>
        <time>2021-06-03T10:08:15Z</time>
      </trkpt>
      <trkpt lat="41.82417" lon="9.08491">
        <ele>1170.6</ele>
        <time>2021-06-03T10:08:16Z</time>
      </trkpt>
      <trkpt lat="41.82416" lon="9.08488">
        <ele>1170.8</ele>
        <time>2021-06-03T10:08:17Z</time>
      </trkpt>
      <trkpt lat="41.82414" lon="9.08484">
        <ele>1170.8</ele>
        <time>2021-06-03T10:08:18Z</time>
      </trkpt>
      <trkpt lat="41.82414" lon="9.08481">
        <ele>1170.8</ele>
        <time>2021-06-03T10:08:19Z</time>
      </trkpt>
      <trkpt lat="41.82413" lon="9.08478">
        <ele>1170.8</ele>
        <time>2021-06-03T10:08:20Z</time>
      </trkpt>
      <trkpt lat="41.82412" lon="9.08475">
        <ele>1171.4</ele>
        <time>2021-06-03T10:08:21Z</time>
      </trkpt>
      <trkpt lat="41.82411" lon="9.08472">
        <ele>1171.4</ele>
        <time>2021-06-03T10:08:22Z</time>
      </trkpt>
      <trkpt lat="41.8241" lon="9.08469">
        <ele>1171.4</ele>
        <time>2021-06-03T10:08:23Z</time>
      </trkpt>
      <trkpt lat="41.82409" lon="9.08466">
        <ele>1171.2</ele>
        <time>2021-06-03T10:08:24Z</time>
      </trkpt>
      <trkpt lat="41.82408" lon="9.08463">
        <ele>1171</ele>
        <time>2021-06-03T10:08:25Z</time>
      </trkpt>
      <trkpt lat="41.82406" lon="9.0846">
        <ele>1171</ele>
        <time>2021-06-03T10:08:26Z</time>
      </trkpt>
      <trkpt lat="41.82405" lon="9.08456">
        <ele>1171</ele>
        <time>2021-06-03T10:08:27Z</time>
      </trkpt>
      <trkpt lat="41.82404" lon="9.08453">
        <ele>1171</ele>
        <time>2021-06-03T10:08:28Z</time>
      </trkpt>
      <trkpt lat="41.82403" lon="9.0845">
        <ele>1172.2</ele>
        <time>2021-06-03T10:08:29Z</time>
      </trkpt>
      <trkpt lat="41.82402" lon="9.08447">
        <ele>1172.2</ele>
        <time>2021-06-03T10:08:30Z</time>
      </trkpt>
      <trkpt lat="41.82401" lon="9.08444">
        <ele>1172.2</ele>
        <time>2021-06-03T10:08:31Z</time>
      </trkpt>
      <trkpt lat="41.824" lon="9.08441">
        <ele>1171.6</ele>
        <time>2021-06-03T10:08:32Z</time>
      </trkpt>
      <trkpt lat="41.82398" lon="9.08438">
        <ele>1171.8</ele>
        <time>2021-06-03T10:08:33Z</time>
      </trkpt>
      <trkpt lat="41.82397" lon="9.08436">
        <ele>1171.8</ele>
        <time>2021-06-03T10:08:34Z</time>
      </trkpt>
      <trkpt lat="41.82395" lon="9.08433">
        <ele>1171.8</ele>
        <time>2021-06-03T10:08:35Z</time>
      </trkpt>
      <trkpt lat="41.82394" lon="9.0843">
        <ele>1172</ele>
        <time>2021-06-03T10:08:36Z</time>
      </trkpt>
      <trkpt lat="41.82393" lon="9.08427">
        <ele>1172.2</ele>
        <time>2021-06-03T10:08:37Z</time>
      </trkpt>
      <trkpt lat="41.82391" lon="9.08425">
        <ele>1172.2</ele>
        <time>2021-06-03T10:08:38Z</time>
      </trkpt>
      <trkpt lat="41.8239" lon="9.08422">
        <ele>1172.2</ele>
        <time>2021-06-03T10:08:39Z</time>
      </trkpt>
      <trkpt lat="41.82389" lon="9.0842">
        <ele>1172.2</ele>
        <time>2021-06-03T10:08:40Z</time>
      </trkpt>
      <trkpt lat="41.82387" lon="9.08417">
        <ele>1172.2</ele>
        <time>2021-06-03T10:08:41Z</time>
      </trkpt>
      <trkpt lat="41.82386" lon="9.08415">
        <ele>1172.2</ele>
        <time>2021-06-03T10:08:42Z</time>
      </trkpt>
      <trkpt lat="41.82384" lon="9.08414">
        <ele>1172.2</ele>
        <time>2021-06-03T10:08:43Z</time>
      </trkpt>
      <trkpt lat="41.82383" lon="9.08412">
        <ele>1172.8</ele>
        <time>2021-06-03T10:08:44Z</time>
      </trkpt>
      <trkpt lat="41.82381" lon="9.08411">
        <ele>1172.8</ele>
        <time>2021-06-03T10:08:45Z</time>
      </trkpt>
      <trkpt lat="41.8238" lon="9.08409">
        <ele>1172.8</ele>
        <time>2021-06-03T10:08:46Z</time>
      </trkpt>
      <trkpt lat="41.82379" lon="9.08408">
        <ele>1172.8</ele>
        <time>2021-06-03T10:08:47Z</time>
      </trkpt>
      <trkpt lat="41.82377" lon="9.08406">
        <ele>1172.8</ele>
        <time>2021-06-03T10:08:48Z</time>
      </trkpt>
      <trkpt lat="41.82376" lon="9.08405">
        <ele>1172.8</ele>
        <time>2021-06-03T10:08:49Z</time>
      </trkpt>
      <trkpt lat="41.82374" lon="9.08403">
        <ele>1172.8</ele>
        <time>2021-06-03T10:08:50Z</time>
      </trkpt>
      <trkpt lat="41.82372" lon="9.08402">
        <ele>1172.8</ele>
        <time>2021-06-03T10:08:51Z</time>
      </trkpt>
      <trkpt lat="41.82371" lon="9.08401">
        <ele>1173.8</ele>
        <time>2021-06-03T10:08:52Z</time>
      </trkpt>
      <trkpt lat="41.82369" lon="9.08398">
        <ele>1174</ele>
        <time>2021-06-03T10:08:53Z</time>
      </trkpt>
      <trkpt lat="41.82369" lon="9.08397">
        <ele>1174</ele>
        <time>2021-06-03T10:08:54Z</time>
      </trkpt>
      <trkpt lat="41.82369" lon="9.08396">
        <ele>1174</ele>
        <time>2021-06-03T10:08:55Z</time>
      </trkpt>
      <trkpt lat="41.82369" lon="9.08396">
        <ele>1174.4</ele>
        <time>2021-06-03T10:08:56Z</time>
      </trkpt>
      <trkpt lat="41.82368" lon="9.08399">
        <ele>1171</ele>
        <time>2021-06-03T11:20:20Z</time>
      </trkpt>
      <trkpt lat="41.82366" lon="9.08399">
        <ele>1171</ele>
        <time>2021-06-03T11:20:21Z</time>
      </trkpt>
      <trkpt lat="41.82363" lon="9.08398">
        <ele>1170.4</ele>
        <time>2021-06-03T11:20:22Z</time>
      </trkpt>
      <trkpt lat="41.82361" lon="9.08398">
        <ele>1170.4</ele>
        <time>2021-06-03T11:20:23Z</time>
      </trkpt>
      <trkpt lat="41.82358" lon="9.08397">
        <ele>1170.4</ele>
        <time>2021-06-03T11:20:24Z</time>
      </trkpt>
      <trkpt lat="41.82356" lon="9.08397">
        <ele>1170.4</ele>
        <time>2021-06-03T11:20:25Z</time>
      </trkpt>
      <trkpt lat="41.82354" lon="9.08397">
        <ele>1169.6</ele>
        <time>2021-06-03T11:20:26Z</time>
      </trkpt>
      <trkpt lat="41.82351" lon="9.08397">
        <ele>1169.6</ele>
        <time>2021-06-03T11:20:27Z</time>
      </trkpt>
      <trkpt lat="41.82349" lon="9.08397">
        <ele>1169.6</ele>
        <time>2021-06-03T11:20:28Z</time>
      </trkpt>
      <trkpt lat="41.82346" lon="9.08397">
        <ele>1169.6</ele>
        <time>2021-06-03T11:20:29Z</time>
      </trkpt>
      <trkpt lat="41.82344" lon="9.08398">
        <ele>1170</ele>
        <time>2021-06-03T11:20:30Z</time>
      </trkpt>
      <trkpt lat="41.82341" lon="9.08398">
        <ele>1170</ele>
        <time>2021-06-03T11:20:31Z</time>
      </trkpt>
      <trkpt lat="41.82339" lon="9.08398">
        <ele>1170</ele>
        <time>2021-06-03T11:20:32Z</time>
      </trkpt>
      <trkpt lat="41.82336" lon="9.08399">
        <ele>1170</ele>
        <time>2021-06-03T11:20:33Z</time>
      </trkpt>
      <trkpt lat="41.82334" lon="9.084">
        <ele>1171.4</ele>
        <time>2021-06-03T11:20:34Z</time>
      </trkpt>
      <trkpt lat="41.82331" lon="9.08401">
        <ele>1171.4</ele>
        <time>2021-06-03T11:20:35Z</time>
      </trkpt>
      <trkpt lat="41.82329" lon="9.08402">
        <ele>1171.4</ele>
        <time>2021-06-03T11:20:36Z</time>
      </trkpt>
      <trkpt lat="41.82326" lon="9.08402">
        <ele>1172</ele>
        <time>2021-06-03T11:20:37Z</time>
      </trkpt>
      <trkpt lat="41.82324" lon="9.08403">
        <ele>1172.6</ele>
        <time>2021-06-03T11:20:38Z</time>
      </trkpt>
      <trkpt lat="41.82321" lon="9.08404">
        <ele>1172.6</ele>
        <time>2021-06-03T11:20:39Z</time>
      </trkpt>
      <trkpt lat="41.82319" lon="9.08405">
        <ele>1172.6</ele>
        <time>2021-06-03T11:20:40Z</time>
      </trkpt>
      <trkpt lat="41.82316" lon="9.08406">
        <ele>1171.6</ele>
        <time>2021-06-03T11:20:41Z</time>
      </trkpt>
      <trkpt lat="41.82314" lon="9.08406">
        <ele>1170.8</ele>
        <time>2021-06-03T11:20:42Z</time>
      </trkpt>
      <trkpt lat="41.82311" lon="9.08407">
        <ele>1170.8</ele>
        <time>2021-06-03T11:20:43Z</time>
      </trkpt>
      <trkpt lat="41.82308" lon="9.08408">
        <ele>1170.8</ele>
        <time>2021-06-03T11:20:44Z</time>
      </trkpt>
      <trkpt lat="41.82306" lon="9.08409">
        <ele>1170.8</ele>
        <time>2021-06-03T11:20:45Z</time>
      </trkpt>
      <trkpt lat="41.82303" lon="9.0841">
        <ele>1170.6</ele>
        <time>2021-06-03T11:20:46Z</time>
      </trkpt>
      <trkpt lat="41.823" lon="9.08411">
        <ele>1170.6</ele>
        <time>2021-06-03T11:20:47Z</time>
      </trkpt>
      <trkpt lat="41.82297" lon="9.08412">
        <ele>1170.6</ele>
        <time>2021-06-03T11:20:48Z</time>
      </trkpt>
      <trkpt lat="41.82294" lon="9.08413">
        <ele>1171.2</ele>
        <time>2021-06-03T11:20:49Z</time>
      </trkpt>
      <trkpt lat="41.82292" lon="9.08414">
        <ele>1172</ele>
        <time>2021-06-03T11:20:50Z</time>
      </trkpt>
      <trkpt lat="41.82289" lon="9.08414">
        <ele>1172</ele>
        <time>2021-06-03T11:20:51Z</time>
      </trkpt>
      <trkpt lat="41.82286" lon="9.08415">
        <ele>1172</ele>
        <time>2021-06-03T11:20:52Z</time>
      </trkpt>
      <trkpt lat="41.82283" lon="9.08416">
        <ele>1171</ele>
        <time>2021-06-03T11:20:53Z</time>
      </trkpt>
      <trkpt lat="41.8228" lon="9.08418">
        <ele>1170</ele>
        <time>2021-06-03T11:20:54Z</time>
      </trkpt>
      <trkpt lat="41.82278" lon="9.08418">
        <ele>1170</ele>
        <time>2021-06-03T11:20:55Z</time>
      </trkpt>
      <trkpt lat="41.82275" lon="9.08419">
        <ele>1170</ele>
        <time>2021-06-03T11:20:56Z</time>
      </trkpt>
      <trkpt lat="41.82272" lon="9.0842">
        <ele>1169</ele>
        <time>2021-06-03T11:20:57Z</time>
      </trkpt>
      <trkpt lat="41.82269" lon="9.08421">
        <ele>1169</ele>
        <time>2021-06-03T11:20:58Z</time>
      </trkpt>
      <trkpt lat="41.82267" lon="9.08422">
        <ele>1169</ele>
        <time>2021-06-03T11:20:59Z</time>
      </trkpt>
      <trkpt lat="41.82264" lon="9.08423">
        <ele>1169</ele>
        <time>2021-06-03T11:21:00Z</time>
      </trkpt>
      <trkpt lat="41.82261" lon="9.08424">
        <ele>1169.6</ele>
        <time>2021-06-03T11:21:01Z</time>
      </trkpt>
      <trkpt lat="41.82259" lon="9.08425">
        <ele>1169.8</ele>
        <time>2021-06-03T11:21:02Z</time>
      </trkpt>
      <trkpt lat="41.82256" lon="9.08426">
        <ele>1169.8</ele>
        <time>2021-06-03T11:21:03Z</time>
      </trkpt>
      <trkpt lat="41.82253" lon="9.08427">
        <ele>1169.8</ele>
        <time>2021-06-03T11:21:04Z</time>
      </trkpt>
      <trkpt lat="41.8225" lon="9.08428">
        <ele>1170.2</ele>
        <time>2021-06-03T11:21:05Z</time>
      </trkpt>
      <trkpt lat="41.82247" lon="9.08429">
        <ele>1170.2</ele>
        <time>2021-06-03T11:21:06Z</time>
      </trkpt>
      <trkpt lat="41.82245" lon="9.0843">
        <ele>1170.2</ele>
        <time>2021-06-03T11:21:07Z</time>
      </trkpt>
      <trkpt lat="41.82242" lon="9.08431">
        <ele>1170.2</ele>
        <time>2021-06-03T11:21:08Z</time>
      </trkpt>
      <trkpt lat="41.82239" lon="9.08432">
        <ele>1170.2</ele>
        <time>2021-06-03T11:21:09Z</time>
      </trkpt>
      <trkpt lat="41.82236" lon="9.08433">
        <ele>1170.2</ele>
        <time>2021-06-03T11:21:10Z</time>
      </trkpt>
      <trkpt lat="41.82234" lon="9.08434">
        <ele>1170.2</ele>
        <time>2021-06-03T11:21:11Z</time>
      </trkpt>
      <trkpt lat="41.82231" lon="9.08435">
        <ele>1170.2</ele>
        <time>2021-06-03T11:21:12Z</time>
      </trkpt>
      <trkpt lat="41.82228" lon="9.08436">
        <ele>1169.8</ele>
        <time>2021-06-03T11:21:13Z</time>
      </trkpt>
      <trkpt lat="41.82225" lon="9.08437">
        <ele>1169.4</ele>
        <time>2021-06-03T11:21:14Z</time>
      </trkpt>
      <trkpt lat="41.82222" lon="9.08438">
        <ele>1169.4</ele>
        <time>2021-06-03T11:21:15Z</time>
      </trkpt>
      <trkpt lat="41.82219" lon="9.08439">
        <ele>1169.4</ele>
        <time>2021-06-03T11:21:16Z</time>
      </trkpt>
      <trkpt lat="41.82216" lon="9.0844">
        <ele>1169.4</ele>
        <time>2021-06-03T11:21:17Z</time>
      </trkpt>
      <trkpt lat="41.82213" lon="9.08441">
        <ele>1168.4</ele>
        <time>2021-06-03T11:21:18Z</time>
      </trkpt>
      <trkpt lat="41.8221" lon="9.08443">
        <ele>1168.4</ele>
        <time>2021-06-03T11:21:19Z</time>
      </trkpt>
      <trkpt lat="41.82207" lon="9.08444">
        <ele>1168.4</ele>
        <time>2021-06-03T11:21:20Z</time>
      </trkpt>
      <trkpt lat="41.82203" lon="9.08445">
        <ele>1168.4</ele>
        <time>2021-06-03T11:21:21Z</time>
      </trkpt>
      <trkpt lat="41.822" lon="9.08446">
        <ele>1168.8</ele>
        <time>2021-06-03T11:21:22Z</time>
      </trkpt>
      <trkpt lat="41.82197" lon="9.08447">
        <ele>1168.8</ele>
        <time>2021-06-03T11:21:23Z</time>
      </trkpt>
      <trkpt lat="41.82193" lon="9.08448">
        <ele>1168.8</ele>
        <time>2021-06-03T11:21:24Z</time>
      </trkpt>
      <trkpt lat="41.82189" lon="9.08449">
        <ele>1168.8</ele>
        <time>2021-06-03T11:21:25Z</time>
      </trkpt>
      <trkpt lat="41.82186" lon="9.0845">
        <ele>1168.2</ele>
        <time>2021-06-03T11:21:26Z</time>
      </trkpt>
      <trkpt lat="41.82182" lon="9.08452">
        <ele>1168.2</ele>
        <time>2021-06-03T11:21:27Z</time>
      </trkpt>
      <trkpt lat="41.82178" lon="9.08453">
        <ele>1168.2</ele>
        <time>2021-06-03T11:21:28Z</time>
      </trkpt>
      <trkpt lat="41.82175" lon="9.08454">
        <ele>1168.8</ele>
        <time>2021-06-03T11:21:29Z</time>
      </trkpt>
      <trkpt lat="41.82171" lon="9.08456">
        <ele>1168.6</ele>
        <time>2021-06-03T11:21:30Z</time>
      </trkpt>
      <trkpt lat="41.82167" lon="9.08458">
        <ele>1168.6</ele>
        <time>2021-06-03T11:21:31Z</time>
      </trkpt>
      <trkpt lat="41.82163" lon="9.08459">
        <ele>1168.6</ele>
        <time>2021-06-03T11:21:32Z</time>
      </trkpt>
      <trkpt lat="41.82159" lon="9.08462">
        <ele>1168.6</ele>
        <time>2021-06-03T11:21:33Z</time>
      </trkpt>
      <trkpt lat="41.82156" lon="9.08465">
        <ele>1168.2</ele>
        <time>2021-06-03T11:21:34Z</time>
      </trkpt>
      <trkpt lat="41.82152" lon="9.08468">
        <ele>1168.2</ele>
        <time>2021-06-03T11:21:35Z</time>
      </trkpt>
      <trkpt lat="41.82149" lon="9.08473">
        <ele>1168.2</ele>
        <time>2021-06-03T11:21:36Z</time>
      </trkpt>
      <trkpt lat="41.82146" lon="9.08478">
        <ele>1168.2</ele>
        <time>2021-06-03T11:21:37Z</time>
      </trkpt>
      <trkpt lat="41.82144" lon="9.08483">
        <ele>1167.2</ele>
        <time>2021-06-03T11:21:38Z</time>
      </trkpt>
      <trkpt lat="41.82141" lon="9.08489">
        <ele>1167.2</ele>
        <time>2021-06-03T11:21:39Z</time>
      </trkpt>
      <trkpt lat="41.82139" lon="9.08495">
        <ele>1167.2</ele>
        <time>2021-06-03T11:21:40Z</time>
      </trkpt>
      <trkpt lat="41.82137" lon="9.08501">
        <ele>1166.2</ele>
        <time>2021-06-03T11:21:41Z</time>
      </trkpt>
      <trkpt lat="41.82135" lon="9.08508">
        <ele>1165.2</ele>
        <time>2021-06-03T11:21:42Z</time>
      </trkpt>
      <trkpt lat="41.82133" lon="9.08515">
        <ele>1165.2</ele>
        <time>2021-06-03T11:21:43Z</time>
      </trkpt>
      <trkpt lat="41.82131" lon="9.08522">
        <ele>1165.2</ele>
        <time>2021-06-03T11:21:44Z</time>
      </trkpt>
      <trkpt lat="41.82129" lon="9.08529">
        <ele>1165.2</ele>
        <time>2021-06-03T11:21:45Z</time>
      </trkpt>
      <trkpt lat="41.82126" lon="9.08536">
        <ele>1163.6</ele>
        <time>2021-06-03T11:21:46Z</time>
      </trkpt>
      <trkpt lat="41.82123" lon="9.08542">
        <ele>1163.6</ele>
        <time>2021-06-03T11:21:47Z</time>
      </trkpt>
      <trkpt lat="41.82119" lon="9.08548">
        <ele>1163.6</ele>
        <time>2021-06-03T11:21:48Z</time>
      </trkpt>
      <trkpt lat="41.82114" lon="9.08554">
        <ele>1163.6</ele>
        <time>2021-06-03T11:21:49Z</time>
      </trkpt>
      <trkpt lat="41.82109" lon="9.08559">
        <ele>1162.8</ele>
        <time>2021-06-03T11:21:50Z</time>
      </trkpt>
      <trkpt lat="41.82103" lon="9.08563">
        <ele>1162.8</ele>
        <time>2021-06-03T11:21:51Z</time>
      </trkpt>
      <trkpt lat="41.82097" lon="9.08567">
        <ele>1162.8</ele>
        <time>2021-06-03T11:21:52Z</time>
      </trkpt>
      <trkpt lat="41.82091" lon="9.08571">
        <ele>1161.8</ele>
        <time>2021-06-03T11:21:53Z</time>
      </trkpt>
      <trkpt lat="41.82086" lon="9.08576">
        <ele>1161</ele>
        <time>2021-06-03T11:21:54Z</time>
      </trkpt>
      <trkpt lat="41.8208" lon="9.08581">
        <ele>1161</ele>
        <time>2021-06-03T11:21:55Z</time>
      </trkpt>
      <trkpt lat="41.82075" lon="9.08588">
        <ele>1161</ele>
        <time>2021-06-03T11:21:56Z</time>
      </trkpt>
      <trkpt lat="41.82071" lon="9.08595">
        <ele>1161</ele>
        <time>2021-06-03T11:21:57Z</time>
      </trkpt>
      <trkpt lat="41.82067" lon="9.08603">
        <ele>1160.6</ele>
        <time>2021-06-03T11:21:58Z</time>
      </trkpt>
      <trkpt lat="41.82063" lon="9.08612">
        <ele>1160.6</ele>
        <time>2021-06-03T11:21:59Z</time>
      </trkpt>
      <trkpt lat="41.82059" lon="9.0862">
        <ele>1160.6</ele>
        <time>2021-06-03T11:22:00Z</time>
      </trkpt>
      <trkpt lat="41.82056" lon="9.08629">
        <ele>1159.6</ele>
        <time>2021-06-03T11:22:01Z</time>
      </trkpt>
      <trkpt lat="41.82053" lon="9.08638">
        <ele>1158.4</ele>
        <time>2021-06-03T11:22:02Z</time>
      </trkpt>
      <trkpt lat="41.8205" lon="9.08648">
        <ele>1158.4</ele>
        <time>2021-06-03T11:22:03Z</time>
      </trkpt>
      <trkpt lat="41.82049" lon="9.08658">
        <ele>1158.4</ele>
        <time>2021-06-03T11:22:04Z</time>
      </trkpt>
      <trkpt lat="41.82047" lon="9.08669">
        <ele>1158.4</ele>
        <time>2021-06-03T11:22:05Z</time>
      </trkpt>
      <trkpt lat="41.82045" lon="9.08679">
        <ele>1156.8</ele>
        <time>2021-06-03T11:22:06Z</time>
      </trkpt>
      <trkpt lat="41.82044" lon="9.0869">
        <ele>1156.8</ele>
        <time>2021-06-03T11:22:07Z</time>
      </trkpt>
      <trkpt lat="41.82042" lon="9.08701">
        <ele>1156.8</ele>
        <time>2021-06-03T11:22:08Z</time>
      </trkpt>
      <trkpt lat="41.82041" lon="9.08713">
        <ele>1155.8</ele>
        <time>2021-06-03T11:22:09Z</time>
      </trkpt>
      <trkpt lat="41.82039" lon="9.08725">
        <ele>1154.2</ele>
        <time>2021-06-03T11:22:10Z</time>
      </trkpt>
      <trkpt lat="41.82037" lon="9.08736">
        <ele>1154.2</ele>
        <time>2021-06-03T11:22:11Z</time>
      </trkpt>
      <trkpt lat="41.82034" lon="9.08748">
        <ele>1154.2</ele>
        <time>2021-06-03T11:22:12Z</time>
      </trkpt>
      <trkpt lat="41.82031" lon="9.0876">
        <ele>1153.2</ele>
        <time>2021-06-03T11:22:13Z</time>
      </trkpt>
      <trkpt lat="41.82027" lon="9.08772">
        <ele>1152.6</ele>
        <time>2021-06-03T11:22:14Z</time>
      </trkpt>
      <trkpt lat="41.82023" lon="9.08784">
        <ele>1152.6</ele>
        <time>2021-06-03T11:22:15Z</time>
      </trkpt>
      <trkpt lat="41.82018" lon="9.08796">
        <ele>1152.6</ele>
        <time>2021-06-03T11:22:16Z</time>
      </trkpt>
      <trkpt lat="41.82013" lon="9.08807">
        <ele>1151.6</ele>
        <time>2021-06-03T11:22:17Z</time>
      </trkpt>
      <trkpt lat="41.8201" lon="9.0882">
        <ele>1146.4</ele>
        <time>2021-06-03T11:22:18Z</time>
      </trkpt>
      <trkpt lat="41.82009" lon="9.08833">
        <ele>1146.4</ele>
        <time>2021-06-03T11:22:19Z</time>
      </trkpt>
      <trkpt lat="41.8201" lon="9.08846">
        <ele>1146.4</ele>
        <time>2021-06-03T11:22:20Z</time>
      </trkpt>
      <trkpt lat="41.82015" lon="9.08859">
        <ele>1146.4</ele>
        <time>2021-06-03T11:22:21Z</time>
      </trkpt>
      <trkpt lat="41.82021" lon="9.08871">
        <ele>1144.2</ele>
        <time>2021-06-03T11:22:22Z</time>
      </trkpt>
      <trkpt lat="41.8203" lon="9.08881">
        <ele>1144.2</ele>
        <time>2021-06-03T11:22:23Z</time>
      </trkpt>
      <trkpt lat="41.82038" lon="9.08891">
        <ele>1144.2</ele>
        <time>2021-06-03T11:22:24Z</time>
      </trkpt>
      <trkpt lat="41.82047" lon="9.08901">
        <ele>1144.8</ele>
        <time>2021-06-03T11:22:25Z</time>
      </trkpt>
      <trkpt lat="41.82055" lon="9.08911">
        <ele>1143.8</ele>
        <time>2021-06-03T11:22:26Z</time>
      </trkpt>
      <trkpt lat="41.82065" lon="9.08921">
        <ele>1143.8</ele>
        <time>2021-06-03T11:22:27Z</time>
      </trkpt>
      <trkpt lat="41.82074" lon="9.0893">
        <ele>1143.8</ele>
        <time>2021-06-03T11:22:28Z</time>
      </trkpt>
      <trkpt lat="41.82085" lon="9.08938">
        <ele>1142.8</ele>
        <time>2021-06-03T11:22:29Z</time>
      </trkpt>
      <trkpt lat="41.82095" lon="9.08945">
        <ele>1141.2</ele>
        <time>2021-06-03T11:22:30Z</time>
      </trkpt>
      <trkpt lat="41.82105" lon="9.0895">
        <ele>1141.2</ele>
        <time>2021-06-03T11:22:31Z</time>
      </trkpt>
      <trkpt lat="41.82115" lon="9.08951">
        <ele>1141.2</ele>
        <time>2021-06-03T11:22:32Z</time>
      </trkpt>
      <trkpt lat="41.82125" lon="9.08949">
        <ele>1141.4</ele>
        <time>2021-06-03T11:22:33Z</time>
      </trkpt>
      <trkpt lat="41.82136" lon="9.08947">
        <ele>1140.4</ele>
        <time>2021-06-03T11:22:34Z</time>
      </trkpt>
      <trkpt lat="41.82146" lon="9.08947">
        <ele>1140.4</ele>
        <time>2021-06-03T11:22:35Z</time>
      </trkpt>
      <trkpt lat="41.82156" lon="9.08952">
        <ele>1140.4</ele>
        <time>2021-06-03T11:22:36Z</time>
      </trkpt>
      <trkpt lat="41.82166" lon="9.08958">
        <ele>1139.4</ele>
        <time>2021-06-03T11:22:37Z</time>
      </trkpt>
      <trkpt lat="41.82175" lon="9.08966">
        <ele>1137.2</ele>
        <time>2021-06-03T11:22:38Z</time>
      </trkpt>
      <trkpt lat="41.82185" lon="9.08973">
        <ele>1137.2</ele>
        <time>2021-06-03T11:22:39Z</time>
      </trkpt>
      <trkpt lat="41.82194" lon="9.0898">
        <ele>1137.2</ele>
        <time>2021-06-03T11:22:40Z</time>
      </trkpt>
      <trkpt lat="41.82204" lon="9.08987">
        <ele>1136.2</ele>
        <time>2021-06-03T11:22:41Z</time>
      </trkpt>
      <trkpt lat="41.82214" lon="9.08994">
        <ele>1133.2</ele>
        <time>2021-06-03T11:22:42Z</time>
      </trkpt>
      <trkpt lat="41.82224" lon="9.09002">
        <ele>1133.2</ele>
        <time>2021-06-03T11:22:43Z</time>
      </trkpt>
      <trkpt lat="41.82233" lon="9.09009">
        <ele>1133.2</ele>
        <time>2021-06-03T11:22:44Z</time>
      </trkpt>
      <trkpt lat="41.82243" lon="9.09017">
        <ele>1133.2</ele>
        <time>2021-06-03T11:22:45Z</time>
      </trkpt>
      <trkpt lat="41.82253" lon="9.09024">
        <ele>1132</ele>
        <time>2021-06-03T11:22:46Z</time>
      </trkpt>
      <trkpt lat="41.8226" lon="9.09031">
        <ele>1132</ele>
        <time>2021-06-03T11:22:47Z</time>
      </trkpt>
      <trkpt lat="41.82267" lon="9.0904">
        <ele>1132</ele>
        <time>2021-06-03T11:22:48Z</time>
      </trkpt>
      <trkpt lat="41.8227" lon="9.09051">
        <ele>1131</ele>
        <time>2021-06-03T11:22:49Z</time>
      </trkpt>
      <trkpt lat="41.82271" lon="9.09063">
        <ele>1129.6</ele>
        <time>2021-06-03T11:22:50Z</time>
      </trkpt>
      <trkpt lat="41.82268" lon="9.09074">
        <ele>1129.6</ele>
        <time>2021-06-03T11:22:51Z</time>
      </trkpt>
      <trkpt lat="41.82263" lon="9.09084">
        <ele>1129.6</ele>
        <time>2021-06-03T11:22:52Z</time>
      </trkpt>
      <trkpt lat="41.82258" lon="9.09095">
        <ele>1129.6</ele>
        <time>2021-06-03T11:22:53Z</time>
      </trkpt>
      <trkpt lat="41.82256" lon="9.09107">
        <ele>1131.2</ele>
        <time>2021-06-03T11:22:54Z</time>
      </trkpt>
      <trkpt lat="41.82256" lon="9.09119">
        <ele>1131.2</ele>
        <time>2021-06-03T11:22:55Z</time>
      </trkpt>
      <trkpt lat="41.82257" lon="9.09132">
        <ele>1131.2</ele>
        <time>2021-06-03T11:22:56Z</time>
      </trkpt>
      <trkpt lat="41.82261" lon="9.09144">
        <ele>1131.2</ele>
        <time>2021-06-03T11:22:57Z</time>
      </trkpt>
      <trkpt lat="41.82267" lon="9.09156">
        <ele>1127.2</ele>
        <time>2021-06-03T11:22:58Z</time>
      </trkpt>
      <trkpt lat="41.82273" lon="9.09166">
        <ele>1127.2</ele>
        <time>2021-06-03T11:22:59Z</time>
      </trkpt>
      <trkpt lat="41.82281" lon="9.09175">
        <ele>1127.2</ele>
        <time>2021-06-03T11:23:00Z</time>
      </trkpt>
      <trkpt lat="41.8229" lon="9.09181">
        <ele>1127.2</ele>
        <time>2021-06-03T11:23:01Z</time>
      </trkpt>
      <trkpt lat="41.82299" lon="9.09186">
        <ele>1125.8</ele>
        <time>2021-06-03T11:23:02Z</time>
      </trkpt>
      <trkpt lat="41.82309" lon="9.09192">
        <ele>1125.8</ele>
        <time>2021-06-03T11:23:03Z</time>
      </trkpt>
      <trkpt lat="41.82316" lon="9.09201">
        <ele>1125.8</ele>
        <time>2021-06-03T11:23:04Z</time>
      </trkpt>
      <trkpt lat="41.82323" lon="9.09213">
        <ele>1124.8</ele>
        <time>2021-06-03T11:23:05Z</time>
      </trkpt>
      <trkpt lat="41.82326" lon="9.09226">
        <ele>1121</ele>
        <time>2021-06-03T11:23:06Z</time>
      </trkpt>
      <trkpt lat="41.82326" lon="9.0924">
        <ele>1121</ele>
        <time>2021-06-03T11:23:07Z</time>
      </trkpt>
      <trkpt lat="41.82324" lon="9.09254">
        <ele>1121</ele>
        <time>2021-06-03T11:23:08Z</time>
      </trkpt>
      <trkpt lat="41.8232" lon="9.09268">
        <ele>1120</ele>
        <time>2021-06-03T11:23:09Z</time>
      </trkpt>
      <trkpt lat="41.82315" lon="9.0928">
        <ele>1118.4</ele>
        <time>2021-06-03T11:23:10Z</time>
      </trkpt>
      <trkpt lat="41.82311" lon="9.09294">
        <ele>1118.4</ele>
        <time>2021-06-03T11:23:11Z</time>
      </trkpt>
      <trkpt lat="41.82311" lon="9.09308">
        <ele>1118.4</ele>
        <time>2021-06-03T11:23:12Z</time>
      </trkpt>
      <trkpt lat="41.82312" lon="9.09321">
        <ele>1117.4</ele>
        <time>2021-06-03T11:23:13Z</time>
      </trkpt>
      <trkpt lat="41.82316" lon="9.09334">
        <ele>1117.6</ele>
        <time>2021-06-03T11:23:14Z</time>
      </trkpt>
      <trkpt lat="41.82321" lon="9.09347">
        <ele>1117.6</ele>
        <time>2021-06-03T11:23:15Z</time>
      </trkpt>
      <trkpt lat="41.82325" lon="9.09359">
        <ele>1117.6</ele>
        <time>2021-06-03T11:23:16Z</time>
      </trkpt>
      <trkpt lat="41.8233" lon="9.09371">
        <ele>1116.6</ele>
        <time>2021-06-03T11:23:17Z</time>
      </trkpt>
      <trkpt lat="41.82336" lon="9.09384">
        <ele>1115.6</ele>
        <time>2021-06-03T11:23:18Z</time>
      </trkpt>
      <trkpt lat="41.8234" lon="9.09396">
        <ele>1115.6</ele>
        <time>2021-06-03T11:23:19Z</time>
      </trkpt>
      <trkpt lat="41.82346" lon="9.09408">
        <ele>1115.6</ele>
        <time>2021-06-03T11:23:20Z</time>
      </trkpt>
      <trkpt lat="41.82351" lon="9.0942">
        <ele>1114.6</ele>
        <time>2021-06-03T11:23:21Z</time>
      </trkpt>
      <trkpt lat="41.82357" lon="9.09432">
        <ele>1112.4</ele>
        <time>2021-06-03T11:23:22Z</time>
      </trkpt>
      <trkpt lat="41.82362" lon="9.09445">
        <ele>1112.4</ele>
        <time>2021-06-03T11:23:23Z</time>
      </trkpt>
      <trkpt lat="41.82366" lon="9.09458">
        <ele>1112.4</ele>
        <time>2021-06-03T11:23:24Z</time>
      </trkpt>
      <trkpt lat="41.82369" lon="9.09472">
        <ele>1111.4</ele>
        <time>2021-06-03T11:23:25Z</time>
      </trkpt>
      <trkpt lat="41.82371" lon="9.09486">
        <ele>1109.2</ele>
        <time>2021-06-03T11:23:26Z</time>
      </trkpt>
      <trkpt lat="41.82371" lon="9.095">
        <ele>1109.2</ele>
        <time>2021-06-03T11:23:27Z</time>
      </trkpt>
      <trkpt lat="41.82371" lon="9.09514">
        <ele>1109.2</ele>
        <time>2021-06-03T11:23:28Z</time>
      </trkpt>
      <trkpt lat="41.82371" lon="9.09528">
        <ele>1109.2</ele>
        <time>2021-06-03T11:23:29Z</time>
      </trkpt>
      <trkpt lat="41.82374" lon="9.09542">
        <ele>1109.2</ele>
        <time>2021-06-03T11:23:30Z</time>
      </trkpt>
      <trkpt lat="41.82379" lon="9.09555">
        <ele>1109.2</ele>
        <time>2021-06-03T11:23:31Z</time>
      </trkpt>
      <trkpt lat="41.82387" lon="9.09566">
        <ele>1109.2</ele>
        <time>2021-06-03T11:23:32Z</time>
      </trkpt>
      <trkpt lat="41.82396" lon="9.09574">
        <ele>1108.2</ele>
        <time>2021-06-03T11:23:33Z</time>
      </trkpt>
      <trkpt lat="41.82406" lon="9.09579">
        <ele>1105.8</ele>
        <time>2021-06-03T11:23:34Z</time>
      </trkpt>
      <trkpt lat="41.82417" lon="9.09581">
        <ele>1105.8</ele>
        <time>2021-06-03T11:23:35Z</time>
      </trkpt>
      <trkpt lat="41.82428" lon="9.0958">
        <ele>1105.8</ele>
        <time>2021-06-03T11:23:36Z</time>
      </trkpt>
      <trkpt lat="41.82439" lon="9.0958">
        <ele>1105.8</ele>
        <time>2021-06-03T11:23:37Z</time>
      </trkpt>
      <trkpt lat="41.8245" lon="9.09581">
        <ele>1105.4</ele>
        <time>2021-06-03T11:23:38Z</time>
      </trkpt>
      <trkpt lat="41.82461" lon="9.09583">
        <ele>1105.4</ele>
        <time>2021-06-03T11:23:39Z</time>
      </trkpt>
      <trkpt lat="41.82472" lon="9.09586">
        <ele>1105.4</ele>
        <time>2021-06-03T11:23:40Z</time>
      </trkpt>
      <trkpt lat="41.82483" lon="9.09591">
        <ele>1104.4</ele>
        <time>2021-06-03T11:23:41Z</time>
      </trkpt>
      <trkpt lat="41.82492" lon="9.09599">
        <ele>1099.6</ele>
        <time>2021-06-03T11:23:42Z</time>
      </trkpt>
      <trkpt lat="41.825" lon="9.09609">
        <ele>1099.6</ele>
        <time>2021-06-03T11:23:43Z</time>
      </trkpt>
      <trkpt lat="41.82506" lon="9.09622">
        <ele>1099.6</ele>
        <time>2021-06-03T11:23:44Z</time>
      </trkpt>
      <trkpt lat="41.82511" lon="9.09635">
        <ele>1099.6</ele>
        <time>2021-06-03T11:23:45Z</time>
      </trkpt>
      <trkpt lat="41.82517" lon="9.09648">
        <ele>1098.4</ele>
        <time>2021-06-03T11:23:46Z</time>
      </trkpt>
      <trkpt lat="41.82525" lon="9.09658">
        <ele>1098.4</ele>
        <time>2021-06-03T11:23:47Z</time>
      </trkpt>
      <trkpt lat="41.82533" lon="9.09666">
        <ele>1098.4</ele>
        <time>2021-06-03T11:23:48Z</time>
      </trkpt>
      <trkpt lat="41.82542" lon="9.09675">
        <ele>1097.4</ele>
        <time>2021-06-03T11:23:49Z</time>
      </trkpt>
      <trkpt lat="41.82549" lon="9.09687">
        <ele>1095.2</ele>
        <time>2021-06-03T11:23:50Z</time>
      </trkpt>
      <trkpt lat="41.82554" lon="9.097">
        <ele>1095.2</ele>
        <time>2021-06-03T11:23:51Z</time>
      </trkpt>
      <trkpt lat="41.82555" lon="9.09715">
        <ele>1095.2</ele>
        <time>2021-06-03T11:23:52Z</time>
      </trkpt>
      <trkpt lat="41.82555" lon="9.09729">
        <ele>1095.2</ele>
        <time>2021-06-03T11:23:53Z</time>
      </trkpt>
      <trkpt lat="41.82555" lon="9.09744">
        <ele>1094.2</ele>
        <time>2021-06-03T11:23:54Z</time>
      </trkpt>
      <trkpt lat="41.82555" lon="9.09758">
        <ele>1094.2</ele>
        <time>2021-06-03T11:23:55Z</time>
      </trkpt>
      <trkpt lat="41.82555" lon="9.09772">
        <ele>1094.2</ele>
        <time>2021-06-03T11:23:56Z</time>
      </trkpt>
      <trkpt lat="41.82555" lon="9.09786">
        <ele>1093.2</ele>
        <time>2021-06-03T11:23:57Z</time>
      </trkpt>
      <trkpt lat="41.82557" lon="9.098">
        <ele>1092</ele>
        <time>2021-06-03T11:23:58Z</time>
      </trkpt>
      <trkpt lat="41.82563" lon="9.09811">
        <ele>1092</ele>
        <time>2021-06-03T11:23:59Z</time>
      </trkpt>
      <trkpt lat="41.82572" lon="9.09819">
        <ele>1092</ele>
        <time>2021-06-03T11:24:00Z</time>
      </trkpt>
      <trkpt lat="41.82581" lon="9.09823">
        <ele>1092.2</ele>
        <time>2021-06-03T11:24:01Z</time>
      </trkpt>
      <trkpt lat="41.82591" lon="9.0983">
        <ele>1090.6</ele>
        <time>2021-06-03T11:24:02Z</time>
      </trkpt>
      <trkpt lat="41.82599" lon="9.09839">
        <ele>1090.6</ele>
        <time>2021-06-03T11:24:03Z</time>
      </trkpt>
      <trkpt lat="41.82604" lon="9.0985">
        <ele>1090.6</ele>
        <time>2021-06-03T11:24:04Z</time>
      </trkpt>
      <trkpt lat="41.82608" lon="9.09863">
        <ele>1090.6</ele>
        <time>2021-06-03T11:24:05Z</time>
      </trkpt>
      <trkpt lat="41.8261" lon="9.09877">
        <ele>1090.6</ele>
        <time>2021-06-03T11:24:06Z</time>
      </trkpt>
      <trkpt lat="41.82612" lon="9.09891">
        <ele>1090.6</ele>
        <time>2021-06-03T11:24:07Z</time>
      </trkpt>
      <trkpt lat="41.82616" lon="9.09904">
        <ele>1090.6</ele>
        <time>2021-06-03T11:24:08Z</time>
      </trkpt>
      <trkpt lat="41.82621" lon="9.09916">
        <ele>1089.6</ele>
        <time>2021-06-03T11:24:09Z</time>
      </trkpt>
      <trkpt lat="41.82626" lon="9.09929">
        <ele>1087.4</ele>
        <time>2021-06-03T11:24:10Z</time>
      </trkpt>
      <trkpt lat="41.8263" lon="9.09942">
        <ele>1087.4</ele>
        <time>2021-06-03T11:24:11Z</time>
      </trkpt>
      <trkpt lat="41.82633" lon="9.09956">
        <ele>1087.4</ele>
        <time>2021-06-03T11:24:12Z</time>
      </trkpt>
      <trkpt lat="41.82638" lon="9.09969">
        <ele>1087.4</ele>
        <time>2021-06-03T11:24:13Z</time>
      </trkpt>
      <trkpt lat="41.82644" lon="9.09981">
        <ele>1084.8</ele>
        <time>2021-06-03T11:24:14Z</time>
      </trkpt>
      <trkpt lat="41.82651" lon="9.09993">
        <ele>1084.8</ele>
        <time>2021-06-03T11:24:15Z</time>
      </trkpt>
      <trkpt lat="41.82658" lon="9.10005">
        <ele>1084.8</ele>
        <time>2021-06-03T11:24:16Z</time>
      </trkpt>
      <trkpt lat="41.82666" lon="9.10016">
        <ele>1083.8</ele>
        <time>2021-06-03T11:24:17Z</time>
      </trkpt>
      <trkpt lat="41.82672" lon="9.10028">
        <ele>1082.6</ele>
        <time>2021-06-03T11:24:18Z</time>
      </trkpt>
      <trkpt lat="41.82677" lon="9.10041">
        <ele>1082.6</ele>
        <time>2021-06-03T11:24:19Z</time>
      </trkpt>
      <trkpt lat="41.82679" lon="9.10056">
        <ele>1082.6</ele>
        <time>2021-06-03T11:24:20Z</time>
      </trkpt>
      <trkpt lat="41.82678" lon="9.1007">
        <ele>1082.6</ele>
        <time>2021-06-03T11:24:21Z</time>
      </trkpt>
      <trkpt lat="41.82675" lon="9.10085">
        <ele>1078.4</ele>
        <time>2021-06-03T11:24:22Z</time>
      </trkpt>
      <trkpt lat="41.82672" lon="9.10099">
        <ele>1078.4</ele>
        <time>2021-06-03T11:24:23Z</time>
      </trkpt>
      <trkpt lat="41.82672" lon="9.10113">
        <ele>1078.4</ele>
        <time>2021-06-03T11:24:24Z</time>
      </trkpt>
      <trkpt lat="41.82673" lon="9.10128">
        <ele>1078.4</ele>
        <time>2021-06-03T11:24:25Z</time>
      </trkpt>
      <trkpt lat="41.82673" lon="9.10142">
        <ele>1077.4</ele>
        <time>2021-06-03T11:24:26Z</time>
      </trkpt>
      <trkpt lat="41.82675" lon="9.10157">
        <ele>1077.4</ele>
        <time>2021-06-03T11:24:27Z</time>
      </trkpt>
      <trkpt lat="41.82679" lon="9.10171">
        <ele>1077.4</ele>
        <time>2021-06-03T11:24:28Z</time>
      </trkpt>
      <trkpt lat="41.82685" lon="9.10183">
        <ele>1077.4</ele>
        <time>2021-06-03T11:24:29Z</time>
      </trkpt>
      <trkpt lat="41.82693" lon="9.10193">
        <ele>1076</ele>
        <time>2021-06-03T11:24:30Z</time>
      </trkpt>
      <trkpt lat="41.82702" lon="9.10202">
        <ele>1076</ele>
        <time>2021-06-03T11:24:31Z</time>
      </trkpt>
      <trkpt lat="41.8271" lon="9.10213">
        <ele>1076</ele>
        <time>2021-06-03T11:24:32Z</time>
      </trkpt>
      <trkpt lat="41.82718" lon="9.10223">
        <ele>1076</ele>
        <time>2021-06-03T11:24:33Z</time>
      </trkpt>
      <trkpt lat="41.82724" lon="9.10236">
        <ele>1072.6</ele>
        <time>2021-06-03T11:24:34Z</time>
      </trkpt>
      <trkpt lat="41.8273" lon="9.10249">
        <ele>1072.6</ele>
        <time>2021-06-03T11:24:35Z</time>
      </trkpt>
      <trkpt lat="41.82734" lon="9.10263">
        <ele>1072.6</ele>
        <time>2021-06-03T11:24:36Z</time>
      </trkpt>
      <trkpt lat="41.82737" lon="9.10278">
        <ele>1072.6</ele>
        <time>2021-06-03T11:24:37Z</time>
      </trkpt>
      <trkpt lat="41.8274" lon="9.10292">
        <ele>1072.6</ele>
        <time>2021-06-03T11:24:38Z</time>
      </trkpt>
      <trkpt lat="41.82745" lon="9.10306">
        <ele>1072.6</ele>
        <time>2021-06-03T11:24:39Z</time>
      </trkpt>
      <trkpt lat="41.82751" lon="9.10319">
        <ele>1072.6</ele>
        <time>2021-06-03T11:24:40Z</time>
      </trkpt>
      <trkpt lat="41.82757" lon="9.10332">
        <ele>1071.6</ele>
        <time>2021-06-03T11:24:41Z</time>
      </trkpt>
      <trkpt lat="41.82762" lon="9.10347">
        <ele>1069.6</ele>
        <time>2021-06-03T11:24:42Z</time>
      </trkpt>
      <trkpt lat="41.82765" lon="9.10362">
        <ele>1069.6</ele>
        <time>2021-06-03T11:24:43Z</time>
      </trkpt>
      <trkpt lat="41.82767" lon="9.10378">
        <ele>1069.6</ele>
        <time>2021-06-03T11:24:44Z</time>
      </trkpt>
      <trkpt lat="41.82769" lon="9.10393">
        <ele>1069.6</ele>
        <time>2021-06-03T11:24:45Z</time>
      </trkpt>
      <trkpt lat="41.82772" lon="9.10409">
        <ele>1068.8</ele>
        <time>2021-06-03T11:24:46Z</time>
      </trkpt>
      <trkpt lat="41.82777" lon="9.10423">
        <ele>1068.8</ele>
        <time>2021-06-03T11:24:47Z</time>
      </trkpt>
      <trkpt lat="41.82785" lon="9.10435">
        <ele>1068.8</ele>
        <time>2021-06-03T11:24:48Z</time>
      </trkpt>
      <trkpt lat="41.82795" lon="9.10445">
        <ele>1067.8</ele>
        <time>2021-06-03T11:24:49Z</time>
      </trkpt>
      <trkpt lat="41.82805" lon="9.10454">
        <ele>1063.8</ele>
        <time>2021-06-03T11:24:50Z</time>
      </trkpt>
      <trkpt lat="41.82814" lon="9.10463">
        <ele>1063.8</ele>
        <time>2021-06-03T11:24:51Z</time>
      </trkpt>
      <trkpt lat="41.82821" lon="9.10476">
        <ele>1063.8</ele>
        <time>2021-06-03T11:24:52Z</time>
      </trkpt>
      <trkpt lat="41.82826" lon="9.1049">
        <ele>1063.8</ele>
        <time>2021-06-03T11:24:53Z</time>
      </trkpt>
      <trkpt lat="41.82827" lon="9.10506">
        <ele>1061.8</ele>
        <time>2021-06-03T11:24:54Z</time>
      </trkpt>
      <trkpt lat="41.82827" lon="9.10522">
        <ele>1061.8</ele>
        <time>2021-06-03T11:24:55Z</time>
      </trkpt>
      <trkpt lat="41.82831" lon="9.10537">
        <ele>1061.8</ele>
        <time>2021-06-03T11:24:56Z</time>
      </trkpt>
      <trkpt lat="41.82837" lon="9.1055">
        <ele>1061.2</ele>
        <time>2021-06-03T11:24:57Z</time>
      </trkpt>
      <trkpt lat="41.82845" lon="9.10562">
        <ele>1060.2</ele>
        <time>2021-06-03T11:24:58Z</time>
      </trkpt>
      <trkpt lat="41.82854" lon="9.10574">
        <ele>1060.2</ele>
        <time>2021-06-03T11:24:59Z</time>
      </trkpt>
      <trkpt lat="41.82864" lon="9.10585">
        <ele>1060.2</ele>
        <time>2021-06-03T11:25:00Z</time>
      </trkpt>
      <trkpt lat="41.82874" lon="9.10594">
        <ele>1059.2</ele>
        <time>2021-06-03T11:25:01Z</time>
      </trkpt>
      <trkpt lat="41.82884" lon="9.10603">
        <ele>1057.4</ele>
        <time>2021-06-03T11:25:02Z</time>
      </trkpt>
      <trkpt lat="41.82894" lon="9.10613">
        <ele>1057.4</ele>
        <time>2021-06-03T11:25:03Z</time>
      </trkpt>
      <trkpt lat="41.82905" lon="9.10621">
        <ele>1057.4</ele>
        <time>2021-06-03T11:25:04Z</time>
      </trkpt>
      <trkpt lat="41.82916" lon="9.10628">
        <ele>1056.4</ele>
        <time>2021-06-03T11:25:05Z</time>
      </trkpt>
      <trkpt lat="41.82927" lon="9.10634">
        <ele>1057</ele>
        <time>2021-06-03T11:25:06Z</time>
      </trkpt>
      <trkpt lat="41.82938" lon="9.10643">
        <ele>1057</ele>
        <time>2021-06-03T11:25:07Z</time>
      </trkpt>
      <trkpt lat="41.82948" lon="9.10653">
        <ele>1057</ele>
        <time>2021-06-03T11:25:08Z</time>
      </trkpt>
      <trkpt lat="41.82958" lon="9.10662">
        <ele>1056</ele>
        <time>2021-06-03T11:25:09Z</time>
      </trkpt>
      <trkpt lat="41.82968" lon="9.1067">
        <ele>1053.2</ele>
        <time>2021-06-03T11:25:10Z</time>
      </trkpt>
      <trkpt lat="41.82976" lon="9.10677">
        <ele>1053.2</ele>
        <time>2021-06-03T11:25:11Z</time>
      </trkpt>
      <trkpt lat="41.82983" lon="9.10686">
        <ele>1053.2</ele>
        <time>2021-06-03T11:25:12Z</time>
      </trkpt>
      <trkpt lat="41.82986" lon="9.10698">
        <ele>1054.2</ele>
        <time>2021-06-03T11:25:13Z</time>
      </trkpt>
      <trkpt lat="41.82986" lon="9.1071">
        <ele>1052.8</ele>
        <time>2021-06-03T11:25:14Z</time>
      </trkpt>
      <trkpt lat="41.82981" lon="9.10721">
        <ele>1052.8</ele>
        <time>2021-06-03T11:25:15Z</time>
      </trkpt>
      <trkpt lat="41.82974" lon="9.10728">
        <ele>1052.8</ele>
        <time>2021-06-03T11:25:16Z</time>
      </trkpt>
      <trkpt lat="41.82965" lon="9.10732">
        <ele>1051.8</ele>
        <time>2021-06-03T11:25:17Z</time>
      </trkpt>
      <trkpt lat="41.82956" lon="9.10735">
        <ele>1049.6</ele>
        <time>2021-06-03T11:25:18Z</time>
      </trkpt>
      <trkpt lat="41.82947" lon="9.10737">
        <ele>1049.6</ele>
        <time>2021-06-03T11:25:19Z</time>
      </trkpt>
      <trkpt lat="41.82937" lon="9.10739">
        <ele>1049.6</ele>
        <time>2021-06-03T11:25:20Z</time>
      </trkpt>
      <trkpt lat="41.82928" lon="9.10741">
        <ele>1048.6</ele>
        <time>2021-06-03T11:25:21Z</time>
      </trkpt>
      <trkpt lat="41.82919" lon="9.10743">
        <ele>1048.4</ele>
        <time>2021-06-03T11:25:22Z</time>
      </trkpt>
      <trkpt lat="41.82909" lon="9.10745">
        <ele>1048.4</ele>
        <time>2021-06-03T11:25:23Z</time>
      </trkpt>
      <trkpt lat="41.829" lon="9.10748">
        <ele>1048.4</ele>
        <time>2021-06-03T11:25:24Z</time>
      </trkpt>
      <trkpt lat="41.82891" lon="9.10753">
        <ele>1048.4</ele>
        <time>2021-06-03T11:25:25Z</time>
      </trkpt>
      <trkpt lat="41.82884" lon="9.10762">
        <ele>1048.2</ele>
        <time>2021-06-03T11:25:26Z</time>
      </trkpt>
      <trkpt lat="41.82879" lon="9.10773">
        <ele>1048.2</ele>
        <time>2021-06-03T11:25:27Z</time>
      </trkpt>
      <trkpt lat="41.82876" lon="9.10785">
        <ele>1048.2</ele>
        <time>2021-06-03T11:25:28Z</time>
      </trkpt>
      <trkpt lat="41.82872" lon="9.10797">
        <ele>1047.2</ele>
        <time>2021-06-03T11:25:29Z</time>
      </trkpt>
      <trkpt lat="41.82869" lon="9.10809">
        <ele>1046.2</ele>
        <time>2021-06-03T11:25:30Z</time>
      </trkpt>
      <trkpt lat="41.82866" lon="9.10822">
        <ele>1046.2</ele>
        <time>2021-06-03T11:25:31Z</time>
      </trkpt>
      <trkpt lat="41.82862" lon="9.10833">
        <ele>1046.2</ele>
        <time>2021-06-03T11:25:32Z</time>
      </trkpt>
      <trkpt lat="41.82855" lon="9.10843">
        <ele>1046.2</ele>
        <time>2021-06-03T11:25:33Z</time>
      </trkpt>
      <trkpt lat="41.82846" lon="9.10849">
        <ele>1045.6</ele>
        <time>2021-06-03T11:25:34Z</time>
      </trkpt>
      <trkpt lat="41.82836" lon="9.1085">
        <ele>1045.6</ele>
        <time>2021-06-03T11:25:35Z</time>
      </trkpt>
      <trkpt lat="41.82826" lon="9.10845">
        <ele>1045.6</ele>
        <time>2021-06-03T11:25:36Z</time>
      </trkpt>
      <trkpt lat="41.82817" lon="9.10842">
        <ele>1044.6</ele>
        <time>2021-06-03T11:25:37Z</time>
      </trkpt>
      <trkpt lat="41.82807" lon="9.10844">
        <ele>1042.2</ele>
        <time>2021-06-03T11:25:38Z</time>
      </trkpt>
      <trkpt lat="41.82798" lon="9.10848">
        <ele>1042.2</ele>
        <time>2021-06-03T11:25:39Z</time>
      </trkpt>
      <trkpt lat="41.8279" lon="9.10853">
        <ele>1042.2</ele>
        <time>2021-06-03T11:25:40Z</time>
      </trkpt>
      <trkpt lat="41.8278" lon="9.10858">
        <ele>1041.2</ele>
        <time>2021-06-03T11:25:41Z</time>
      </trkpt>
      <trkpt lat="41.82771" lon="9.10862">
        <ele>1041.2</ele>
        <time>2021-06-03T11:25:42Z</time>
      </trkpt>
      <trkpt lat="41.82762" lon="9.10867">
        <ele>1041.2</ele>
        <time>2021-06-03T11:25:43Z</time>
      </trkpt>
      <trkpt lat="41.82753" lon="9.10872">
        <ele>1041.2</ele>
        <time>2021-06-03T11:25:44Z</time>
      </trkpt>
      <trkpt lat="41.82744" lon="9.10877">
        <ele>1040.2</ele>
        <time>2021-06-03T11:25:45Z</time>
      </trkpt>
      <trkpt lat="41.82735" lon="9.10883">
        <ele>1038.8</ele>
        <time>2021-06-03T11:25:46Z</time>
      </trkpt>
      <trkpt lat="41.82728" lon="9.10892">
        <ele>1038.8</ele>
        <time>2021-06-03T11:25:47Z</time>
      </trkpt>
      <trkpt lat="41.82723" lon="9.10904">
        <ele>1038.8</ele>
        <time>2021-06-03T11:25:48Z</time>
      </trkpt>
      <trkpt lat="41.8272" lon="9.10917">
        <ele>1037.8</ele>
        <time>2021-06-03T11:25:49Z</time>
      </trkpt>
      <trkpt lat="41.82718" lon="9.1093">
        <ele>1037.6</ele>
        <time>2021-06-03T11:25:50Z</time>
      </trkpt>
      <trkpt lat="41.82716" lon="9.10943">
        <ele>1037.6</ele>
        <time>2021-06-03T11:25:51Z</time>
      </trkpt>
      <trkpt lat="41.82715" lon="9.10954">
        <ele>1037.6</ele>
        <time>2021-06-03T11:25:52Z</time>
      </trkpt>
      <trkpt lat="41.82715" lon="9.10964">
        <ele>1037.6</ele>
        <time>2021-06-03T11:25:53Z</time>
      </trkpt>
      <trkpt lat="41.82718" lon="9.10974">
        <ele>1038.8</ele>
        <time>2021-06-03T11:25:54Z</time>
      </trkpt>
      <trkpt lat="41.82723" lon="9.10984">
        <ele>1038.8</ele>
        <time>2021-06-03T11:25:55Z</time>
      </trkpt>
      <trkpt lat="41.82729" lon="9.10991">
        <ele>1038.8</ele>
        <time>2021-06-03T11:25:56Z</time>
      </trkpt>
      <trkpt lat="41.82735" lon="9.10997">
        <ele>1039.4</ele>
        <time>2021-06-03T11:25:57Z</time>
      </trkpt>
      <trkpt lat="41.82742" lon="9.11002">
        <ele>1039.6</ele>
        <time>2021-06-03T11:25:58Z</time>
      </trkpt>
      <trkpt lat="41.82748" lon="9.11006">
        <ele>1039.6</ele>
        <time>2021-06-03T11:25:59Z</time>
      </trkpt>
      <trkpt lat="41.82753" lon="9.11013">
        <ele>1039.6</ele>
        <time>2021-06-03T11:26:00Z</time>
      </trkpt>
      <trkpt lat="41.82757" lon="9.1102">
        <ele>1040.6</ele>
        <time>2021-06-03T11:26:01Z</time>
      </trkpt>
      <trkpt lat="41.82758" lon="9.11029">
        <ele>1040.4</ele>
        <time>2021-06-03T11:26:02Z</time>
      </trkpt>
      <trkpt lat="41.82758" lon="9.11038">
        <ele>1040.4</ele>
        <time>2021-06-03T11:26:03Z</time>
      </trkpt>
      <trkpt lat="41.82757" lon="9.11047">
        <ele>1040.4</ele>
        <time>2021-06-03T11:26:04Z</time>
      </trkpt>
      <trkpt lat="41.82757" lon="9.11055">
        <ele>1041.2</ele>
        <time>2021-06-03T11:26:05Z</time>
      </trkpt>
      <trkpt lat="41.82756" lon="9.11064">
        <ele>1041</ele>
        <time>2021-06-03T11:26:06Z</time>
      </trkpt>
      <trkpt lat="41.82755" lon="9.11072">
        <ele>1041</ele>
        <time>2021-06-03T11:26:07Z</time>
      </trkpt>
      <trkpt lat="41.82753" lon="9.1108">
        <ele>1041</ele>
        <time>2021-06-03T11:26:08Z</time>
      </trkpt>
      <trkpt lat="41.82749" lon="9.11087">
        <ele>1040.4</ele>
        <time>2021-06-03T11:26:09Z</time>
      </trkpt>
      <trkpt lat="41.82745" lon="9.11092">
        <ele>1037.4</ele>
        <time>2021-06-03T11:26:10Z</time>
      </trkpt>
      <trkpt lat="41.82741" lon="9.11095">
        <ele>1037.4</ele>
        <time>2021-06-03T11:26:11Z</time>
      </trkpt>
      <trkpt lat="41.82736" lon="9.11098">
        <ele>1037.4</ele>
        <time>2021-06-03T11:26:12Z</time>
      </trkpt>
      <trkpt lat="41.82731" lon="9.11099">
        <ele>1038.4</ele>
        <time>2021-06-03T11:26:13Z</time>
      </trkpt>
      <trkpt lat="41.82726" lon="9.111">
        <ele>1040</ele>
        <time>2021-06-03T11:26:14Z</time>
      </trkpt>
      <trkpt lat="41.82721" lon="9.11101">
        <ele>1040</ele>
        <time>2021-06-03T11:26:15Z</time>
      </trkpt>
      <trkpt lat="41.82716" lon="9.11103">
        <ele>1040</ele>
        <time>2021-06-03T11:26:16Z</time>
      </trkpt>
      <trkpt lat="41.82712" lon="9.11104">
        <ele>1041</ele>
        <time>2021-06-03T11:26:17Z</time>
      </trkpt>
      <trkpt lat="41.82707" lon="9.11105">
        <ele>1041.4</ele>
        <time>2021-06-03T11:26:18Z</time>
      </trkpt>
      <trkpt lat="41.82702" lon="9.11106">
        <ele>1041.4</ele>
        <time>2021-06-03T11:26:19Z</time>
      </trkpt>
      <trkpt lat="41.82697" lon="9.11107">
        <ele>1041.4</ele>
        <time>2021-06-03T11:26:20Z</time>
      </trkpt>
      <trkpt lat="41.82693" lon="9.11108">
        <ele>1041.4</ele>
        <time>2021-06-03T11:26:21Z</time>
      </trkpt>
      <trkpt lat="41.82688" lon="9.11108">
        <ele>1042</ele>
        <time>2021-06-03T11:26:22Z</time>
      </trkpt>
      <trkpt lat="41.82683" lon="9.11107">
        <ele>1042</ele>
        <time>2021-06-03T11:26:23Z</time>
      </trkpt>
      <trkpt lat="41.82678" lon="9.11106">
        <ele>1042</ele>
        <time>2021-06-03T11:26:24Z</time>
      </trkpt>
      <trkpt lat="41.82673" lon="9.11105">
        <ele>1042</ele>
        <time>2021-06-03T11:26:25Z</time>
      </trkpt>
      <trkpt lat="41.82669" lon="9.11103">
        <ele>1041</ele>
        <time>2021-06-03T11:26:26Z</time>
      </trkpt>
      <trkpt lat="41.82664" lon="9.111">
        <ele>1041</ele>
        <time>2021-06-03T11:26:27Z</time>
      </trkpt>
      <trkpt lat="41.82659" lon="9.11098">
        <ele>1041</ele>
        <time>2021-06-03T11:26:28Z</time>
      </trkpt>
      <trkpt lat="41.82655" lon="9.11095">
        <ele>1041</ele>
        <time>2021-06-03T11:26:29Z</time>
      </trkpt>
      <trkpt lat="41.8265" lon="9.11092">
        <ele>1041</ele>
        <time>2021-06-03T11:26:30Z</time>
      </trkpt>
      <trkpt lat="41.82646" lon="9.11088">
        <ele>1041</ele>
        <time>2021-06-03T11:26:31Z</time>
      </trkpt>
      <trkpt lat="41.82641" lon="9.11084">
        <ele>1041</ele>
        <time>2021-06-03T11:26:32Z</time>
      </trkpt>
      <trkpt lat="41.82636" lon="9.1108">
        <ele>1040</ele>
        <time>2021-06-03T11:26:33Z</time>
      </trkpt>
      <trkpt lat="41.82631" lon="9.11076">
        <ele>1039.2</ele>
        <time>2021-06-03T11:26:34Z</time>
      </trkpt>
      <trkpt lat="41.82626" lon="9.11071">
        <ele>1039.2</ele>
        <time>2021-06-03T11:26:35Z</time>
      </trkpt>
      <trkpt lat="41.8262" lon="9.11067">
        <ele>1039.2</ele>
        <time>2021-06-03T11:26:36Z</time>
      </trkpt>
      <trkpt lat="41.82615" lon="9.11062">
        <ele>1038.2</ele>
        <time>2021-06-03T11:26:37Z</time>
      </trkpt>
      <trkpt lat="41.82609" lon="9.11058">
        <ele>1036.6</ele>
        <time>2021-06-03T11:26:38Z</time>
      </trkpt>
      <trkpt lat="41.82604" lon="9.11053">
        <ele>1036.6</ele>
        <time>2021-06-03T11:26:39Z</time>
      </trkpt>
      <trkpt lat="41.82598" lon="9.11048">
        <ele>1036.6</ele>
        <time>2021-06-03T11:26:40Z</time>
      </trkpt>
      <trkpt lat="41.82592" lon="9.11043">
        <ele>1036</ele>
        <time>2021-06-03T11:26:41Z</time>
      </trkpt>
      <trkpt lat="41.82586" lon="9.11038">
        <ele>1035.8</ele>
        <time>2021-06-03T11:26:42Z</time>
      </trkpt>
      <trkpt lat="41.8258" lon="9.11032">
        <ele>1035.8</ele>
        <time>2021-06-03T11:26:43Z</time>
      </trkpt>
      <trkpt lat="41.82574" lon="9.11027">
        <ele>1035.8</ele>
        <time>2021-06-03T11:26:44Z</time>
      </trkpt>
      <trkpt lat="41.82567" lon="9.11022">
        <ele>1035.8</ele>
        <time>2021-06-03T11:26:45Z</time>
      </trkpt>
      <trkpt lat="41.82561" lon="9.11016">
        <ele>1032.8</ele>
        <time>2021-06-03T11:26:46Z</time>
      </trkpt>
      <trkpt lat="41.82555" lon="9.11011">
        <ele>1032.8</ele>
        <time>2021-06-03T11:26:47Z</time>
      </trkpt>
      <trkpt lat="41.82549" lon="9.11004">
        <ele>1032.8</ele>
        <time>2021-06-03T11:26:48Z</time>
      </trkpt>
      <trkpt lat="41.82543" lon="9.10998">
        <ele>1032.8</ele>
        <time>2021-06-03T11:26:49Z</time>
      </trkpt>
      <trkpt lat="41.82537" lon="9.10991">
        <ele>1033.6</ele>
        <time>2021-06-03T11:26:50Z</time>
      </trkpt>
      <trkpt lat="41.82533" lon="9.10982">
        <ele>1033.6</ele>
        <time>2021-06-03T11:26:51Z</time>
      </trkpt>
      <trkpt lat="41.82532" lon="9.10972">
        <ele>1033.6</ele>
        <time>2021-06-03T11:26:52Z</time>
      </trkpt>
      <trkpt lat="41.82532" lon="9.10962">
        <ele>1033.6</ele>
        <time>2021-06-03T11:26:53Z</time>
      </trkpt>
      <trkpt lat="41.82533" lon="9.10951">
        <ele>1031.6</ele>
        <time>2021-06-03T11:26:54Z</time>
      </trkpt>
      <trkpt lat="41.82532" lon="9.10941">
        <ele>1031.6</ele>
        <time>2021-06-03T11:26:55Z</time>
      </trkpt>
      <trkpt lat="41.82529" lon="9.10932">
        <ele>1031.6</ele>
        <time>2021-06-03T11:26:56Z</time>
      </trkpt>
      <trkpt lat="41.82525" lon="9.10923">
        <ele>1031.6</ele>
        <time>2021-06-03T11:26:57Z</time>
      </trkpt>
      <trkpt lat="41.8252" lon="9.10914">
        <ele>1030.4</ele>
        <time>2021-06-03T11:26:58Z</time>
      </trkpt>
      <trkpt lat="41.82514" lon="9.10905">
        <ele>1030.4</ele>
        <time>2021-06-03T11:26:59Z</time>
      </trkpt>
      <trkpt lat="41.82508" lon="9.10896">
        <ele>1030.4</ele>
        <time>2021-06-03T11:27:00Z</time>
      </trkpt>
      <trkpt lat="41.82501" lon="9.10888">
        <ele>1029.4</ele>
        <time>2021-06-03T11:27:01Z</time>
      </trkpt>
      <trkpt lat="41.82494" lon="9.10881">
        <ele>1027.2</ele>
        <time>2021-06-03T11:27:02Z</time>
      </trkpt>
      <trkpt lat="41.82486" lon="9.10874">
        <ele>1027.2</ele>
        <time>2021-06-03T11:27:03Z</time>
      </trkpt>
      <trkpt lat="41.8248" lon="9.10865">
        <ele>1027.2</ele>
        <time>2021-06-03T11:27:04Z</time>
      </trkpt>
      <trkpt lat="41.82476" lon="9.10854">
        <ele>1027.2</ele>
        <time>2021-06-03T11:27:05Z</time>
      </trkpt>
      <trkpt lat="41.82473" lon="9.10842">
        <ele>1026.4</ele>
        <time>2021-06-03T11:27:06Z</time>
      </trkpt>
      <trkpt lat="41.82469" lon="9.10831">
        <ele>1026.4</ele>
        <time>2021-06-03T11:27:07Z</time>
      </trkpt>
      <trkpt lat="41.82463" lon="9.10821">
        <ele>1026.4</ele>
        <time>2021-06-03T11:27:08Z</time>
      </trkpt>
      <trkpt lat="41.82456" lon="9.10812">
        <ele>1025.4</ele>
        <time>2021-06-03T11:27:09Z</time>
      </trkpt>
      <trkpt lat="41.82448" lon="9.10804">
        <ele>1023.8</ele>
        <time>2021-06-03T11:27:10Z</time>
      </trkpt>
      <trkpt lat="41.82441" lon="9.10795">
        <ele>1023.8</ele>
        <time>2021-06-03T11:27:11Z</time>
      </trkpt>
      <trkpt lat="41.82434" lon="9.10786">
        <ele>1023.8</ele>
        <time>2021-06-03T11:27:12Z</time>
      </trkpt>
      <trkpt lat="41.82429" lon="9.10775">
        <ele>1022.8</ele>
        <time>2021-06-03T11:27:13Z</time>
      </trkpt>
      <trkpt lat="41.82425" lon="9.10764">
        <ele>1021.6</ele>
        <time>2021-06-03T11:27:14Z</time>
      </trkpt>
      <trkpt lat="41.8242" lon="9.10753">
        <ele>1021.6</ele>
        <time>2021-06-03T11:27:15Z</time>
      </trkpt>
      <trkpt lat="41.82414" lon="9.10742">
        <ele>1021.6</ele>
        <time>2021-06-03T11:27:16Z</time>
      </trkpt>
      <trkpt lat="41.82409" lon="9.10731">
        <ele>1021</ele>
        <time>2021-06-03T11:27:17Z</time>
      </trkpt>
      <trkpt lat="41.82403" lon="9.1072">
        <ele>1020.2</ele>
        <time>2021-06-03T11:27:18Z</time>
      </trkpt>
      <trkpt lat="41.82395" lon="9.10712">
        <ele>1020.2</ele>
        <time>2021-06-03T11:27:19Z</time>
      </trkpt>
      <trkpt lat="41.82386" lon="9.10707">
        <ele>1020.2</ele>
        <time>2021-06-03T11:27:20Z</time>
      </trkpt>
      <trkpt lat="41.82377" lon="9.10706">
        <ele>1020.2</ele>
        <time>2021-06-03T11:27:21Z</time>
      </trkpt>
      <trkpt lat="41.82367" lon="9.10709">
        <ele>1018.2</ele>
        <time>2021-06-03T11:27:22Z</time>
      </trkpt>
      <trkpt lat="41.8236" lon="9.10714">
        <ele>1018.2</ele>
        <time>2021-06-03T11:27:23Z</time>
      </trkpt>
      <trkpt lat="41.82352" lon="9.1072">
        <ele>1018.2</ele>
        <time>2021-06-03T11:27:24Z</time>
      </trkpt>
      <trkpt lat="41.82345" lon="9.10721">
        <ele>1018.2</ele>
        <time>2021-06-03T11:27:25Z</time>
      </trkpt>
      <trkpt lat="41.82338" lon="9.10719">
        <ele>1015.8</ele>
        <time>2021-06-03T11:27:26Z</time>
      </trkpt>
      <trkpt lat="41.82332" lon="9.10716">
        <ele>1015.8</ele>
        <time>2021-06-03T11:27:27Z</time>
      </trkpt>
      <trkpt lat="41.82325" lon="9.10713">
        <ele>1015.8</ele>
        <time>2021-06-03T11:27:28Z</time>
      </trkpt>
      <trkpt lat="41.82318" lon="9.10713">
        <ele>1015.4</ele>
        <time>2021-06-03T11:27:29Z</time>
      </trkpt>
      <trkpt lat="41.8231" lon="9.10714">
        <ele>1013.6</ele>
        <time>2021-06-03T11:27:30Z</time>
      </trkpt>
      <trkpt lat="41.82302" lon="9.10715">
        <ele>1013.6</ele>
        <time>2021-06-03T11:27:31Z</time>
      </trkpt>
      <trkpt lat="41.82293" lon="9.10716">
        <ele>1013.6</ele>
        <time>2021-06-03T11:27:32Z</time>
      </trkpt>
      <trkpt lat="41.82285" lon="9.10716">
        <ele>1014.2</ele>
        <time>2021-06-03T11:27:33Z</time>
      </trkpt>
      <trkpt lat="41.82276" lon="9.10715">
        <ele>1014.2</ele>
        <time>2021-06-03T11:27:34Z</time>
      </trkpt>
      <trkpt lat="41.82267" lon="9.10714">
        <ele>1014.2</ele>
        <time>2021-06-03T11:27:35Z</time>
      </trkpt>
      <trkpt lat="41.82258" lon="9.10712">
        <ele>1014.2</ele>
        <time>2021-06-03T11:27:36Z</time>
      </trkpt>
      <trkpt lat="41.8225" lon="9.10709">
        <ele>1014.2</ele>
        <time>2021-06-03T11:27:37Z</time>
      </trkpt>
      <trkpt lat="41.82241" lon="9.10707">
        <ele>1012.8</ele>
        <time>2021-06-03T11:27:38Z</time>
      </trkpt>
      <trkpt lat="41.82232" lon="9.10706">
        <ele>1012.8</ele>
        <time>2021-06-03T11:27:39Z</time>
      </trkpt>
      <trkpt lat="41.82223" lon="9.10704">
        <ele>1012.8</ele>
        <time>2021-06-03T11:27:40Z</time>
      </trkpt>
      <trkpt lat="41.82215" lon="9.10701">
        <ele>1011.8</ele>
        <time>2021-06-03T11:27:41Z</time>
      </trkpt>
      <trkpt lat="41.82206" lon="9.107">
        <ele>1010.8</ele>
        <time>2021-06-03T11:27:42Z</time>
      </trkpt>
      <trkpt lat="41.82197" lon="9.107">
        <ele>1010.8</ele>
        <time>2021-06-03T11:27:43Z</time>
      </trkpt>
      <trkpt lat="41.82188" lon="9.10702">
        <ele>1010.8</ele>
        <time>2021-06-03T11:27:44Z</time>
      </trkpt>
      <trkpt lat="41.82179" lon="9.10707">
        <ele>1010.8</ele>
        <time>2021-06-03T11:27:45Z</time>
      </trkpt>
      <trkpt lat="41.82171" lon="9.10712">
        <ele>1012.2</ele>
        <time>2021-06-03T11:27:46Z</time>
      </trkpt>
      <trkpt lat="41.82163" lon="9.10716">
        <ele>1012.2</ele>
        <time>2021-06-03T11:27:47Z</time>
      </trkpt>
      <trkpt lat="41.82155" lon="9.1072">
        <ele>1012.2</ele>
        <time>2021-06-03T11:27:48Z</time>
      </trkpt>
      <trkpt lat="41.82147" lon="9.10719">
        <ele>1011.4</ele>
        <time>2021-06-03T11:27:49Z</time>
      </trkpt>
      <trkpt lat="41.8214" lon="9.10716">
        <ele>1011.2</ele>
        <time>2021-06-03T11:27:50Z</time>
      </trkpt>
      <trkpt lat="41.82133" lon="9.10709">
        <ele>1011.2</ele>
        <time>2021-06-03T11:27:51Z</time>
      </trkpt>
      <trkpt lat="41.82128" lon="9.107">
        <ele>1011.2</ele>
        <time>2021-06-03T11:27:52Z</time>
      </trkpt>
      <trkpt lat="41.82125" lon="9.1069">
        <ele>1010.2</ele>
        <time>2021-06-03T11:27:53Z</time>
      </trkpt>
      <trkpt lat="41.82121" lon="9.1068">
        <ele>1008.6</ele>
        <time>2021-06-03T11:27:54Z</time>
      </trkpt>
      <trkpt lat="41.82118" lon="9.1067">
        <ele>1008.6</ele>
        <time>2021-06-03T11:27:55Z</time>
      </trkpt>
      <trkpt lat="41.82115" lon="9.10659">
        <ele>1008.6</ele>
        <time>2021-06-03T11:27:56Z</time>
      </trkpt>
      <trkpt lat="41.82111" lon="9.10648">
        <ele>1008.6</ele>
        <time>2021-06-03T11:27:57Z</time>
      </trkpt>
      <trkpt lat="41.82107" lon="9.10638">
        <ele>1007.2</ele>
        <time>2021-06-03T11:27:58Z</time>
      </trkpt>
      <trkpt lat="41.82102" lon="9.10629">
        <ele>1007.2</ele>
        <time>2021-06-03T11:27:59Z</time>
      </trkpt>
      <trkpt lat="41.82096" lon="9.1062">
        <ele>1007.2</ele>
        <time>2021-06-03T11:28:00Z</time>
      </trkpt>
      <trkpt lat="41.8209" lon="9.10611">
        <ele>1006.2</ele>
        <time>2021-06-03T11:28:01Z</time>
      </trkpt>
      <trkpt lat="41.82083" lon="9.10604">
        <ele>1005.2</ele>
        <time>2021-06-03T11:28:02Z</time>
      </trkpt>
      <trkpt lat="41.82075" lon="9.10597">
        <ele>1005.2</ele>
        <time>2021-06-03T11:28:03Z</time>
      </trkpt>
      <trkpt lat="41.82067" lon="9.1059">
        <ele>1005.2</ele>
        <time>2021-06-03T11:28:04Z</time>
      </trkpt>
      <trkpt lat="41.8206" lon="9.10584">
        <ele>1004.2</ele>
        <time>2021-06-03T11:28:05Z</time>
      </trkpt>
      <trkpt lat="41.82052" lon="9.10577">
        <ele>1003.2</ele>
        <time>2021-06-03T11:28:06Z</time>
      </trkpt>
      <trkpt lat="41.82044" lon="9.10572">
        <ele>1003.2</ele>
        <time>2021-06-03T11:28:07Z</time>
      </trkpt>
      <trkpt lat="41.82035" lon="9.10567">
        <ele>1003.2</ele>
        <time>2021-06-03T11:28:08Z</time>
      </trkpt>
      <trkpt lat="41.82027" lon="9.10563">
        <ele>1003.2</ele>
        <time>2021-06-03T11:28:09Z</time>
      </trkpt>
      <trkpt lat="41.82018" lon="9.10558">
        <ele>1003.8</ele>
        <time>2021-06-03T11:28:10Z</time>
      </trkpt>
      <trkpt lat="41.82009" lon="9.10553">
        <ele>1003.8</ele>
        <time>2021-06-03T11:28:11Z</time>
      </trkpt>
      <trkpt lat="41.82002" lon="9.10546">
        <ele>1003.8</ele>
        <time>2021-06-03T11:28:12Z</time>
      </trkpt>
      <trkpt lat="41.81995" lon="9.10537">
        <ele>1002.8</ele>
        <time>2021-06-03T11:28:13Z</time>
      </trkpt>
      <trkpt lat="41.81989" lon="9.10527">
        <ele>1000</ele>
        <time>2021-06-03T11:28:14Z</time>
      </trkpt>
      <trkpt lat="41.81983" lon="9.10518">
        <ele>1000</ele>
        <time>2021-06-03T11:28:15Z</time>
      </trkpt>
      <trkpt lat="41.81976" lon="9.10509">
        <ele>1000</ele>
        <time>2021-06-03T11:28:16Z</time>
      </trkpt>
      <trkpt lat="41.81968" lon="9.10504">
        <ele>999</ele>
        <time>2021-06-03T11:28:17Z</time>
      </trkpt>
      <trkpt lat="41.81959" lon="9.10503">
        <ele>999</ele>
        <time>2021-06-03T11:28:18Z</time>
      </trkpt>
      <trkpt lat="41.81949" lon="9.10504">
        <ele>999</ele>
        <time>2021-06-03T11:28:19Z</time>
      </trkpt>
      <trkpt lat="41.8194" lon="9.10503">
        <ele>999</ele>
        <time>2021-06-03T11:28:20Z</time>
      </trkpt>
      <trkpt lat="41.81931" lon="9.10498">
        <ele>999.2</ele>
        <time>2021-06-03T11:28:21Z</time>
      </trkpt>
      <trkpt lat="41.81924" lon="9.1049">
        <ele>995.8</ele>
        <time>2021-06-03T11:28:22Z</time>
      </trkpt>
      <trkpt lat="41.81917" lon="9.10481">
        <ele>995.8</ele>
        <time>2021-06-03T11:28:23Z</time>
      </trkpt>
      <trkpt lat="41.81909" lon="9.10474">
        <ele>995.8</ele>
        <time>2021-06-03T11:28:24Z</time>
      </trkpt>
      <trkpt lat="41.81901" lon="9.10468">
        <ele>995.8</ele>
        <time>2021-06-03T11:28:25Z</time>
      </trkpt>
      <trkpt lat="41.81892" lon="9.10465">
        <ele>994.8</ele>
        <time>2021-06-03T11:28:26Z</time>
      </trkpt>
      <trkpt lat="41.81882" lon="9.10464">
        <ele>994.8</ele>
        <time>2021-06-03T11:28:27Z</time>
      </trkpt>
      <trkpt lat="41.81873" lon="9.10462">
        <ele>994.8</ele>
        <time>2021-06-03T11:28:28Z</time>
      </trkpt>
      <trkpt lat="41.81864" lon="9.1046">
        <ele>994.8</ele>
        <time>2021-06-03T11:28:29Z</time>
      </trkpt>
      <trkpt lat="41.81855" lon="9.10456">
        <ele>992.4</ele>
        <time>2021-06-03T11:28:30Z</time>
      </trkpt>
      <trkpt lat="41.81846" lon="9.10452">
        <ele>992.4</ele>
        <time>2021-06-03T11:28:31Z</time>
      </trkpt>
      <trkpt lat="41.81838" lon="9.1045">
        <ele>992.4</ele>
        <time>2021-06-03T11:28:32Z</time>
      </trkpt>
      <trkpt lat="41.81829" lon="9.10449">
        <ele>992.4</ele>
        <time>2021-06-03T11:28:33Z</time>
      </trkpt>
      <trkpt lat="41.8182" lon="9.10447">
        <ele>990.4</ele>
        <time>2021-06-03T11:28:34Z</time>
      </trkpt>
      <trkpt lat="41.81812" lon="9.10442">
        <ele>990.4</ele>
        <time>2021-06-03T11:28:35Z</time>
      </trkpt>
      <trkpt lat="41.81805" lon="9.10435">
        <ele>990.4</ele>
        <time>2021-06-03T11:28:36Z</time>
      </trkpt>
      <trkpt lat="41.81798" lon="9.10426">
        <ele>989.4</ele>
        <time>2021-06-03T11:28:37Z</time>
      </trkpt>
      <trkpt lat="41.81793" lon="9.10417">
        <ele>989</ele>
        <time>2021-06-03T11:28:38Z</time>
      </trkpt>
      <trkpt lat="41.81787" lon="9.10408">
        <ele>989</ele>
        <time>2021-06-03T11:28:39Z</time>
      </trkpt>
      <trkpt lat="41.81781" lon="9.10399">
        <ele>989</ele>
        <time>2021-06-03T11:28:40Z</time>
      </trkpt>
      <trkpt lat="41.81774" lon="9.10392">
        <ele>989</ele>
        <time>2021-06-03T11:28:41Z</time>
      </trkpt>
      <trkpt lat="41.81766" lon="9.10386">
        <ele>988.8</ele>
        <time>2021-06-03T11:28:42Z</time>
      </trkpt>
      <trkpt lat="41.81758" lon="9.1038">
        <ele>988.8</ele>
        <time>2021-06-03T11:28:43Z</time>
      </trkpt>
      <trkpt lat="41.8175" lon="9.10374">
        <ele>988.8</ele>
        <time>2021-06-03T11:28:44Z</time>
      </trkpt>
      <trkpt lat="41.81742" lon="9.10367">
        <ele>988.8</ele>
        <time>2021-06-03T11:28:45Z</time>
      </trkpt>
      <trkpt lat="41.81735" lon="9.10359">
        <ele>986.4</ele>
        <time>2021-06-03T11:28:46Z</time>
      </trkpt>
      <trkpt lat="41.81729" lon="9.10349">
        <ele>986.4</ele>
        <time>2021-06-03T11:28:47Z</time>
      </trkpt>
      <trkpt lat="41.81724" lon="9.10339">
        <ele>986.4</ele>
        <time>2021-06-03T11:28:48Z</time>
      </trkpt>
      <trkpt lat="41.81719" lon="9.10329">
        <ele>986.4</ele>
        <time>2021-06-03T11:28:49Z</time>
      </trkpt>
      <trkpt lat="41.81713" lon="9.1032">
        <ele>984.4</ele>
        <time>2021-06-03T11:28:50Z</time>
      </trkpt>
      <trkpt lat="41.81705" lon="9.10313">
        <ele>984.4</ele>
        <time>2021-06-03T11:28:51Z</time>
      </trkpt>
      <trkpt lat="41.81696" lon="9.10309">
        <ele>984.4</ele>
        <time>2021-06-03T11:28:52Z</time>
      </trkpt>
      <trkpt lat="41.81687" lon="9.10306">
        <ele>983.4</ele>
        <time>2021-06-03T11:28:53Z</time>
      </trkpt>
      <trkpt lat="41.81678" lon="9.10305">
        <ele>982.6</ele>
        <time>2021-06-03T11:28:54Z</time>
      </trkpt>
      <trkpt lat="41.81669" lon="9.10305">
        <ele>982.6</ele>
        <time>2021-06-03T11:28:55Z</time>
      </trkpt>
      <trkpt lat="41.8166" lon="9.10307">
        <ele>982.6</ele>
        <time>2021-06-03T11:28:56Z</time>
      </trkpt>
      <trkpt lat="41.81651" lon="9.10308">
        <ele>981.6</ele>
        <time>2021-06-03T11:28:57Z</time>
      </trkpt>
      <trkpt lat="41.81642" lon="9.1031">
        <ele>978</ele>
        <time>2021-06-03T11:28:58Z</time>
      </trkpt>
      <trkpt lat="41.81633" lon="9.10312">
        <ele>978</ele>
        <time>2021-06-03T11:28:59Z</time>
      </trkpt>
      <trkpt lat="41.81624" lon="9.10313">
        <ele>978</ele>
        <time>2021-06-03T11:29:00Z</time>
      </trkpt>
      <trkpt lat="41.81616" lon="9.10315">
        <ele>979</ele>
        <time>2021-06-03T11:29:01Z</time>
      </trkpt>
      <trkpt lat="41.81608" lon="9.10319">
        <ele>979.6</ele>
        <time>2021-06-03T11:29:02Z</time>
      </trkpt>
      <trkpt lat="41.81601" lon="9.10325">
        <ele>979.6</ele>
        <time>2021-06-03T11:29:03Z</time>
      </trkpt>
      <trkpt lat="41.81595" lon="9.10333">
        <ele>979.6</ele>
        <time>2021-06-03T11:29:04Z</time>
      </trkpt>
      <trkpt lat="41.81591" lon="9.10343">
        <ele>979.6</ele>
        <time>2021-06-03T11:29:05Z</time>
      </trkpt>
      <trkpt lat="41.81586" lon="9.10352">
        <ele>980</ele>
        <time>2021-06-03T11:29:06Z</time>
      </trkpt>
      <trkpt lat="41.81582" lon="9.10361">
        <ele>980</ele>
        <time>2021-06-03T11:29:07Z</time>
      </trkpt>
      <trkpt lat="41.81576" lon="9.10369">
        <ele>980</ele>
        <time>2021-06-03T11:29:08Z</time>
      </trkpt>
      <trkpt lat="41.81568" lon="9.10374">
        <ele>981</ele>
        <time>2021-06-03T11:29:09Z</time>
      </trkpt>
      <trkpt lat="41.8156" lon="9.10377">
        <ele>981</ele>
        <time>2021-06-03T11:29:10Z</time>
      </trkpt>
      <trkpt lat="41.81552" lon="9.10377">
        <ele>979.8</ele>
        <time>2021-06-03T11:29:11Z</time>
      </trkpt>
      <trkpt lat="41.81543" lon="9.10377">
        <ele>979.8</ele>
        <time>2021-06-03T11:29:12Z</time>
      </trkpt>
      <trkpt lat="41.81534" lon="9.10377">
        <ele>978.8</ele>
        <time>2021-06-03T11:29:13Z</time>
      </trkpt>
      <trkpt lat="41.81524" lon="9.10377">
        <ele>978</ele>
        <time>2021-06-03T11:29:14Z</time>
      </trkpt>
      <trkpt lat="41.81516" lon="9.10376">
        <ele>978</ele>
        <time>2021-06-03T11:29:15Z</time>
      </trkpt>
      <trkpt lat="41.8151" lon="9.10375">
        <ele>978</ele>
        <time>2021-06-03T11:29:16Z</time>
      </trkpt>
      <trkpt lat="41.81504" lon="9.10374">
        <ele>978</ele>
        <time>2021-06-03T11:29:17Z</time>
      </trkpt>
      <trkpt lat="41.81496" lon="9.10372">
        <ele>977.8</ele>
        <time>2021-06-03T11:29:18Z</time>
      </trkpt>
      <trkpt lat="41.81489" lon="9.10368">
        <ele>977.8</ele>
        <time>2021-06-03T11:29:19Z</time>
      </trkpt>
      <trkpt lat="41.81482" lon="9.10364">
        <ele>977.8</ele>
        <time>2021-06-03T11:29:20Z</time>
      </trkpt>
      <trkpt lat="41.81474" lon="9.10361">
        <ele>976.8</ele>
        <time>2021-06-03T11:29:21Z</time>
      </trkpt>
      <trkpt lat="41.81465" lon="9.10358">
        <ele>975.6</ele>
        <time>2021-06-03T11:29:22Z</time>
      </trkpt>
      <trkpt lat="41.81456" lon="9.10354">
        <ele>975.6</ele>
        <time>2021-06-03T11:29:23Z</time>
      </trkpt>
      <trkpt lat="41.81449" lon="9.10349">
        <ele>975.6</ele>
        <time>2021-06-03T11:29:24Z</time>
      </trkpt>
      <trkpt lat="41.81441" lon="9.10344">
        <ele>975.2</ele>
        <time>2021-06-03T11:29:25Z</time>
      </trkpt>
      <trkpt lat="41.81434" lon="9.10338">
        <ele>974.4</ele>
        <time>2021-06-03T11:29:26Z</time>
      </trkpt>
      <trkpt lat="41.81427" lon="9.10332">
        <ele>974.4</ele>
        <time>2021-06-03T11:29:27Z</time>
      </trkpt>
      <trkpt lat="41.81419" lon="9.10326">
        <ele>974.4</ele>
        <time>2021-06-03T11:29:28Z</time>
      </trkpt>
      <trkpt lat="41.81411" lon="9.1032">
        <ele>973.4</ele>
        <time>2021-06-03T11:29:29Z</time>
      </trkpt>
      <trkpt lat="41.81403" lon="9.10315">
        <ele>971.6</ele>
        <time>2021-06-03T11:29:30Z</time>
      </trkpt>
      <trkpt lat="41.81395" lon="9.10309">
        <ele>971.6</ele>
        <time>2021-06-03T11:29:31Z</time>
      </trkpt>
      <trkpt lat="41.81387" lon="9.10304">
        <ele>971.6</ele>
        <time>2021-06-03T11:29:32Z</time>
      </trkpt>
      <trkpt lat="41.81379" lon="9.10299">
        <ele>971.6</ele>
        <time>2021-06-03T11:29:33Z</time>
      </trkpt>
      <trkpt lat="41.8137" lon="9.10294">
        <ele>970.2</ele>
        <time>2021-06-03T11:29:34Z</time>
      </trkpt>
      <trkpt lat="41.81362" lon="9.1029">
        <ele>970.2</ele>
        <time>2021-06-03T11:29:35Z</time>
      </trkpt>
      <trkpt lat="41.81353" lon="9.10287">
        <ele>970.2</ele>
        <time>2021-06-03T11:29:36Z</time>
      </trkpt>
      <trkpt lat="41.81344" lon="9.10285">
        <ele>969.2</ele>
        <time>2021-06-03T11:29:37Z</time>
      </trkpt>
      <trkpt lat="41.81334" lon="9.10284">
        <ele>967.8</ele>
        <time>2021-06-03T11:29:38Z</time>
      </trkpt>
      <trkpt lat="41.81325" lon="9.10283">
        <ele>967.8</ele>
        <time>2021-06-03T11:29:39Z</time>
      </trkpt>
      <trkpt lat="41.81315" lon="9.10281">
        <ele>967.8</ele>
        <time>2021-06-03T11:29:40Z</time>
      </trkpt>
      <trkpt lat="41.81306" lon="9.10279">
        <ele>967.8</ele>
        <time>2021-06-03T11:29:41Z</time>
      </trkpt>
      <trkpt lat="41.81296" lon="9.10278">
        <ele>966.8</ele>
        <time>2021-06-03T11:29:42Z</time>
      </trkpt>
      <trkpt lat="41.81287" lon="9.10276">
        <ele>966.8</ele>
        <time>2021-06-03T11:29:43Z</time>
      </trkpt>
      <trkpt lat="41.81277" lon="9.10276">
        <ele>966.8</ele>
        <time>2021-06-03T11:29:44Z</time>
      </trkpt>
      <trkpt lat="41.81267" lon="9.10278">
        <ele>965.8</ele>
        <time>2021-06-03T11:29:45Z</time>
      </trkpt>
      <trkpt lat="41.81257" lon="9.10283">
        <ele>964.4</ele>
        <time>2021-06-03T11:29:46Z</time>
      </trkpt>
      <trkpt lat="41.81247" lon="9.10288">
        <ele>964.4</ele>
        <time>2021-06-03T11:29:47Z</time>
      </trkpt>
      <trkpt lat="41.81238" lon="9.10293">
        <ele>964.4</ele>
        <time>2021-06-03T11:29:48Z</time>
      </trkpt>
      <trkpt lat="41.8123" lon="9.10298">
        <ele>964.4</ele>
        <time>2021-06-03T11:29:49Z</time>
      </trkpt>
      <trkpt lat="41.81222" lon="9.10301">
        <ele>964</ele>
        <time>2021-06-03T11:29:50Z</time>
      </trkpt>
      <trkpt lat="41.81213" lon="9.10302">
        <ele>964</ele>
        <time>2021-06-03T11:29:51Z</time>
      </trkpt>
      <trkpt lat="41.81203" lon="9.10301">
        <ele>964</ele>
        <time>2021-06-03T11:29:52Z</time>
      </trkpt>
      <trkpt lat="41.81194" lon="9.103">
        <ele>964</ele>
        <time>2021-06-03T11:29:53Z</time>
      </trkpt>
      <trkpt lat="41.81184" lon="9.10298">
        <ele>964</ele>
        <time>2021-06-03T11:29:54Z</time>
      </trkpt>
      <trkpt lat="41.81175" lon="9.10296">
        <ele>964</ele>
        <time>2021-06-03T11:29:55Z</time>
      </trkpt>
      <trkpt lat="41.81166" lon="9.10293">
        <ele>964</ele>
        <time>2021-06-03T11:29:56Z</time>
      </trkpt>
      <trkpt lat="41.81158" lon="9.10288">
        <ele>965</ele>
        <time>2021-06-03T11:29:57Z</time>
      </trkpt>
      <trkpt lat="41.81152" lon="9.10282">
        <ele>964.8</ele>
        <time>2021-06-03T11:29:58Z</time>
      </trkpt>
      <trkpt lat="41.81146" lon="9.10274">
        <ele>964.8</ele>
        <time>2021-06-03T11:29:59Z</time>
      </trkpt>
      <trkpt lat="41.81142" lon="9.10265">
        <ele>964.8</ele>
        <time>2021-06-03T11:30:00Z</time>
      </trkpt>
      <trkpt lat="41.81139" lon="9.10255">
        <ele>964.8</ele>
        <time>2021-06-03T11:30:01Z</time>
      </trkpt>
      <trkpt lat="41.81134" lon="9.10246">
        <ele>964.6</ele>
        <time>2021-06-03T11:30:02Z</time>
      </trkpt>
      <trkpt lat="41.81128" lon="9.10239">
        <ele>964.6</ele>
        <time>2021-06-03T11:30:03Z</time>
      </trkpt>
      <trkpt lat="41.81121" lon="9.10234">
        <ele>964.6</ele>
        <time>2021-06-03T11:30:04Z</time>
      </trkpt>
      <trkpt lat="41.81114" lon="9.10231">
        <ele>964.6</ele>
        <time>2021-06-03T11:30:05Z</time>
      </trkpt>
      <trkpt lat="41.81106" lon="9.10231">
        <ele>963.4</ele>
        <time>2021-06-03T11:30:06Z</time>
      </trkpt>
      <trkpt lat="41.81098" lon="9.10233">
        <ele>963.4</ele>
        <time>2021-06-03T11:30:07Z</time>
      </trkpt>
      <trkpt lat="41.8109" lon="9.10234">
        <ele>963.4</ele>
        <time>2021-06-03T11:30:08Z</time>
      </trkpt>
      <trkpt lat="41.81081" lon="9.10234">
        <ele>963</ele>
        <time>2021-06-03T11:30:09Z</time>
      </trkpt>
      <trkpt lat="41.81073" lon="9.10233">
        <ele>963.2</ele>
        <time>2021-06-03T11:30:10Z</time>
      </trkpt>
      <trkpt lat="41.81065" lon="9.10231">
        <ele>963.2</ele>
        <time>2021-06-03T11:30:11Z</time>
      </trkpt>
      <trkpt lat="41.81058" lon="9.10227">
        <ele>963.2</ele>
        <time>2021-06-03T11:30:12Z</time>
      </trkpt>
      <trkpt lat="41.81051" lon="9.10222">
        <ele>963.6</ele>
        <time>2021-06-03T11:30:13Z</time>
      </trkpt>
      <trkpt lat="41.81044" lon="9.10217">
        <ele>962.8</ele>
        <time>2021-06-03T11:30:14Z</time>
      </trkpt>
      <trkpt lat="41.81038" lon="9.10211">
        <ele>962.8</ele>
        <time>2021-06-03T11:30:15Z</time>
      </trkpt>
      <trkpt lat="41.81031" lon="9.10207">
        <ele>962.8</ele>
        <time>2021-06-03T11:30:16Z</time>
      </trkpt>
      <trkpt lat="41.81024" lon="9.10202">
        <ele>962.8</ele>
        <time>2021-06-03T11:30:17Z</time>
      </trkpt>
      <trkpt lat="41.81017" lon="9.10197">
        <ele>962.8</ele>
        <time>2021-06-03T11:30:18Z</time>
      </trkpt>
      <trkpt lat="41.8101" lon="9.10192">
        <ele>962.8</ele>
        <time>2021-06-03T11:30:19Z</time>
      </trkpt>
      <trkpt lat="41.81004" lon="9.10187">
        <ele>962.8</ele>
        <time>2021-06-03T11:30:20Z</time>
      </trkpt>
      <trkpt lat="41.80997" lon="9.10181">
        <ele>961.8</ele>
        <time>2021-06-03T11:30:21Z</time>
      </trkpt>
      <trkpt lat="41.80991" lon="9.10175">
        <ele>960.4</ele>
        <time>2021-06-03T11:30:22Z</time>
      </trkpt>
      <trkpt lat="41.80986" lon="9.10167">
        <ele>960.4</ele>
        <time>2021-06-03T11:30:23Z</time>
      </trkpt>
      <trkpt lat="41.80982" lon="9.10159">
        <ele>960.4</ele>
        <time>2021-06-03T11:30:24Z</time>
      </trkpt>
      <trkpt lat="41.80977" lon="9.1015">
        <ele>960.4</ele>
        <time>2021-06-03T11:30:25Z</time>
      </trkpt>
      <trkpt lat="41.80971" lon="9.10143">
        <ele>959.4</ele>
        <time>2021-06-03T11:30:26Z</time>
      </trkpt>
      <trkpt lat="41.80964" lon="9.10138">
        <ele>959.4</ele>
        <time>2021-06-03T11:30:27Z</time>
      </trkpt>
      <trkpt lat="41.80956" lon="9.10136">
        <ele>959.4</ele>
        <time>2021-06-03T11:30:28Z</time>
      </trkpt>
      <trkpt lat="41.80949" lon="9.10135">
        <ele>959.4</ele>
        <time>2021-06-03T11:30:29Z</time>
      </trkpt>
      <trkpt lat="41.80942" lon="9.10132">
        <ele>959.2</ele>
        <time>2021-06-03T11:30:30Z</time>
      </trkpt>
      <trkpt lat="41.80935" lon="9.10129">
        <ele>959.2</ele>
        <time>2021-06-03T11:30:31Z</time>
      </trkpt>
      <trkpt lat="41.80928" lon="9.10124">
        <ele>959.2</ele>
        <time>2021-06-03T11:30:32Z</time>
      </trkpt>
      <trkpt lat="41.80921" lon="9.10119">
        <ele>958.4</ele>
        <time>2021-06-03T11:30:33Z</time>
      </trkpt>
      <trkpt lat="41.80915" lon="9.10113">
        <ele>957.8</ele>
        <time>2021-06-03T11:30:34Z</time>
      </trkpt>
      <trkpt lat="41.80908" lon="9.10108">
        <ele>957.8</ele>
        <time>2021-06-03T11:30:35Z</time>
      </trkpt>
      <trkpt lat="41.80902" lon="9.10101">
        <ele>957.8</ele>
        <time>2021-06-03T11:30:36Z</time>
      </trkpt>
      <trkpt lat="41.80897" lon="9.10094">
        <ele>957.8</ele>
        <time>2021-06-03T11:30:37Z</time>
      </trkpt>
      <trkpt lat="41.80892" lon="9.10087">
        <ele>957.2</ele>
        <time>2021-06-03T11:30:38Z</time>
      </trkpt>
      <trkpt lat="41.80887" lon="9.10079">
        <ele>957.2</ele>
        <time>2021-06-03T11:30:39Z</time>
      </trkpt>
      <trkpt lat="41.80881" lon="9.10072">
        <ele>957.2</ele>
        <time>2021-06-03T11:30:40Z</time>
      </trkpt>
      <trkpt lat="41.80875" lon="9.10066">
        <ele>957.2</ele>
        <time>2021-06-03T11:30:41Z</time>
      </trkpt>
      <trkpt lat="41.80868" lon="9.1006">
        <ele>956.8</ele>
        <time>2021-06-03T11:30:42Z</time>
      </trkpt>
      <trkpt lat="41.80862" lon="9.10055">
        <ele>956.8</ele>
        <time>2021-06-03T11:30:43Z</time>
      </trkpt>
      <trkpt lat="41.80856" lon="9.10049">
        <ele>956.8</ele>
        <time>2021-06-03T11:30:44Z</time>
      </trkpt>
      <trkpt lat="41.8085" lon="9.10044">
        <ele>955.8</ele>
        <time>2021-06-03T11:30:45Z</time>
      </trkpt>
      <trkpt lat="41.80844" lon="9.10039">
        <ele>954.8</ele>
        <time>2021-06-03T11:30:46Z</time>
      </trkpt>
      <trkpt lat="41.80838" lon="9.10035">
        <ele>954.8</ele>
        <time>2021-06-03T11:30:47Z</time>
      </trkpt>
      <trkpt lat="41.80831" lon="9.1003">
        <ele>954.8</ele>
        <time>2021-06-03T11:30:48Z</time>
      </trkpt>
      <trkpt lat="41.80824" lon="9.10025">
        <ele>954.8</ele>
        <time>2021-06-03T11:30:49Z</time>
      </trkpt>
      <trkpt lat="41.80818" lon="9.10021">
        <ele>954.6</ele>
        <time>2021-06-03T11:30:50Z</time>
      </trkpt>
      <trkpt lat="41.80811" lon="9.10017">
        <ele>954.6</ele>
        <time>2021-06-03T11:30:51Z</time>
      </trkpt>
      <trkpt lat="41.80803" lon="9.10015">
        <ele>954.6</ele>
        <time>2021-06-03T11:30:52Z</time>
      </trkpt>
      <trkpt lat="41.80795" lon="9.10012">
        <ele>954.6</ele>
        <time>2021-06-03T11:30:53Z</time>
      </trkpt>
      <trkpt lat="41.80788" lon="9.10009">
        <ele>952.8</ele>
        <time>2021-06-03T11:30:54Z</time>
      </trkpt>
      <trkpt lat="41.80781" lon="9.10007">
        <ele>952.8</ele>
        <time>2021-06-03T11:30:55Z</time>
      </trkpt>
      <trkpt lat="41.80774" lon="9.10004">
        <ele>952.8</ele>
        <time>2021-06-03T11:30:56Z</time>
      </trkpt>
      <trkpt lat="41.80767" lon="9.10001">
        <ele>952.8</ele>
        <time>2021-06-03T11:30:57Z</time>
      </trkpt>
      <trkpt lat="41.80761" lon="9.09997">
        <ele>951.6</ele>
        <time>2021-06-03T11:30:58Z</time>
      </trkpt>
      <trkpt lat="41.80754" lon="9.09994">
        <ele>951.6</ele>
        <time>2021-06-03T11:30:59Z</time>
      </trkpt>
      <trkpt lat="41.80747" lon="9.09991">
        <ele>951.6</ele>
        <time>2021-06-03T11:31:00Z</time>
      </trkpt>
      <trkpt lat="41.80741" lon="9.09988">
        <ele>951.6</ele>
        <time>2021-06-03T11:31:01Z</time>
      </trkpt>
      <trkpt lat="41.80735" lon="9.09985">
        <ele>950.2</ele>
        <time>2021-06-03T11:31:02Z</time>
      </trkpt>
      <trkpt lat="41.80729" lon="9.09983">
        <ele>950.2</ele>
        <time>2021-06-03T11:31:03Z</time>
      </trkpt>
      <trkpt lat="41.80721" lon="9.09981">
        <ele>950.2</ele>
        <time>2021-06-03T11:31:04Z</time>
      </trkpt>
      <trkpt lat="41.80714" lon="9.09979">
        <ele>950.4</ele>
        <time>2021-06-03T11:31:05Z</time>
      </trkpt>
      <trkpt lat="41.80707" lon="9.09978">
        <ele>950.8</ele>
        <time>2021-06-03T11:31:06Z</time>
      </trkpt>
      <trkpt lat="41.807" lon="9.09978">
        <ele>950.8</ele>
        <time>2021-06-03T11:31:07Z</time>
      </trkpt>
      <trkpt lat="41.80693" lon="9.09979">
        <ele>950.8</ele>
        <time>2021-06-03T11:31:08Z</time>
      </trkpt>
      <trkpt lat="41.80686" lon="9.0998">
        <ele>950.4</ele>
        <time>2021-06-03T11:31:09Z</time>
      </trkpt>
      <trkpt lat="41.80679" lon="9.09983">
        <ele>950</ele>
        <time>2021-06-03T11:31:10Z</time>
      </trkpt>
      <trkpt lat="41.80673" lon="9.09985">
        <ele>950</ele>
        <time>2021-06-03T11:31:11Z</time>
      </trkpt>
      <trkpt lat="41.80667" lon="9.09989">
        <ele>950</ele>
        <time>2021-06-03T11:31:12Z</time>
      </trkpt>
      <trkpt lat="41.80661" lon="9.09992">
        <ele>951</ele>
        <time>2021-06-03T11:31:13Z</time>
      </trkpt>
      <trkpt lat="41.80655" lon="9.09996">
        <ele>951.6</ele>
        <time>2021-06-03T11:31:14Z</time>
      </trkpt>
      <trkpt lat="41.8065" lon="9.10001">
        <ele>951.6</ele>
        <time>2021-06-03T11:31:15Z</time>
      </trkpt>
      <trkpt lat="41.80644" lon="9.10006">
        <ele>951.6</ele>
        <time>2021-06-03T11:31:16Z</time>
      </trkpt>
      <trkpt lat="41.80638" lon="9.1001">
        <ele>951.6</ele>
        <time>2021-06-03T11:31:17Z</time>
      </trkpt>
      <trkpt lat="41.80633" lon="9.10014">
        <ele>952</ele>
        <time>2021-06-03T11:31:18Z</time>
      </trkpt>
      <trkpt lat="41.80628" lon="9.10019">
        <ele>952</ele>
        <time>2021-06-03T11:31:19Z</time>
      </trkpt>
      <trkpt lat="41.80622" lon="9.10024">
        <ele>952</ele>
        <time>2021-06-03T11:31:20Z</time>
      </trkpt>
      <trkpt lat="41.80616" lon="9.10029">
        <ele>952</ele>
        <time>2021-06-03T11:31:21Z</time>
      </trkpt>
      <trkpt lat="41.8061" lon="9.10034">
        <ele>949.6</ele>
        <time>2021-06-03T11:31:22Z</time>
      </trkpt>
      <trkpt lat="41.80604" lon="9.10039">
        <ele>949.6</ele>
        <time>2021-06-03T11:31:23Z</time>
      </trkpt>
      <trkpt lat="41.80598" lon="9.10045">
        <ele>949.6</ele>
        <time>2021-06-03T11:31:24Z</time>
      </trkpt>
      <trkpt lat="41.80592" lon="9.10051">
        <ele>949.6</ele>
        <time>2021-06-03T11:31:25Z</time>
      </trkpt>
      <trkpt lat="41.80586" lon="9.10056">
        <ele>947.6</ele>
        <time>2021-06-03T11:31:26Z</time>
      </trkpt>
      <trkpt lat="41.8058" lon="9.10062">
        <ele>947.6</ele>
        <time>2021-06-03T11:31:27Z</time>
      </trkpt>
      <trkpt lat="41.80574" lon="9.10067">
        <ele>947.6</ele>
        <time>2021-06-03T11:31:28Z</time>
      </trkpt>
      <trkpt lat="41.80568" lon="9.10072">
        <ele>947.6</ele>
        <time>2021-06-03T11:31:29Z</time>
      </trkpt>
      <trkpt lat="41.80563" lon="9.10077">
        <ele>947.2</ele>
        <time>2021-06-03T11:31:30Z</time>
      </trkpt>
      <trkpt lat="41.80557" lon="9.10082">
        <ele>947.2</ele>
        <time>2021-06-03T11:31:31Z</time>
      </trkpt>
      <trkpt lat="41.8055" lon="9.10087">
        <ele>947.2</ele>
        <time>2021-06-03T11:31:32Z</time>
      </trkpt>
      <trkpt lat="41.80544" lon="9.10092">
        <ele>946.2</ele>
        <time>2021-06-03T11:31:33Z</time>
      </trkpt>
      <trkpt lat="41.80538" lon="9.10097">
        <ele>946.6</ele>
        <time>2021-06-03T11:31:34Z</time>
      </trkpt>
      <trkpt lat="41.80532" lon="9.10102">
        <ele>946.6</ele>
        <time>2021-06-03T11:31:35Z</time>
      </trkpt>
      <trkpt lat="41.80525" lon="9.10106">
        <ele>946.6</ele>
        <time>2021-06-03T11:31:36Z</time>
      </trkpt>
      <trkpt lat="41.80518" lon="9.10108">
        <ele>946.6</ele>
        <time>2021-06-03T11:31:37Z</time>
      </trkpt>
      <trkpt lat="41.80511" lon="9.10108">
        <ele>945.8</ele>
        <time>2021-06-03T11:31:38Z</time>
      </trkpt>
      <trkpt lat="41.80504" lon="9.10107">
        <ele>945.8</ele>
        <time>2021-06-03T11:31:39Z</time>
      </trkpt>
      <trkpt lat="41.80497" lon="9.10104">
        <ele>945.8</ele>
        <time>2021-06-03T11:31:40Z</time>
      </trkpt>
      <trkpt lat="41.8049" lon="9.10101">
        <ele>945.4</ele>
        <time>2021-06-03T11:31:41Z</time>
      </trkpt>
      <trkpt lat="41.80484" lon="9.10097">
        <ele>945</ele>
        <time>2021-06-03T11:31:42Z</time>
      </trkpt>
      <trkpt lat="41.80477" lon="9.10094">
        <ele>945</ele>
        <time>2021-06-03T11:31:43Z</time>
      </trkpt>
      <trkpt lat="41.8047" lon="9.1009">
        <ele>945</ele>
        <time>2021-06-03T11:31:44Z</time>
      </trkpt>
      <trkpt lat="41.80463" lon="9.10088">
        <ele>945</ele>
        <time>2021-06-03T11:31:45Z</time>
      </trkpt>
      <trkpt lat="41.80456" lon="9.10085">
        <ele>945</ele>
        <time>2021-06-03T11:31:46Z</time>
      </trkpt>
      <trkpt lat="41.80448" lon="9.10083">
        <ele>945</ele>
        <time>2021-06-03T11:31:47Z</time>
      </trkpt>
      <trkpt lat="41.80441" lon="9.10079">
        <ele>945</ele>
        <time>2021-06-03T11:31:48Z</time>
      </trkpt>
      <trkpt lat="41.80435" lon="9.10075">
        <ele>944</ele>
        <time>2021-06-03T11:31:49Z</time>
      </trkpt>
      <trkpt lat="41.80428" lon="9.10072">
        <ele>943.6</ele>
        <time>2021-06-03T11:31:50Z</time>
      </trkpt>
      <trkpt lat="41.80421" lon="9.10069">
        <ele>943.6</ele>
        <time>2021-06-03T11:31:51Z</time>
      </trkpt>
      <trkpt lat="41.80414" lon="9.10066">
        <ele>943.6</ele>
        <time>2021-06-03T11:31:52Z</time>
      </trkpt>
      <trkpt lat="41.80407" lon="9.10064">
        <ele>943.6</ele>
        <time>2021-06-03T11:31:53Z</time>
      </trkpt>
      <trkpt lat="41.804" lon="9.1006">
        <ele>942.8</ele>
        <time>2021-06-03T11:31:54Z</time>
      </trkpt>
      <trkpt lat="41.80393" lon="9.10057">
        <ele>942.8</ele>
        <time>2021-06-03T11:31:55Z</time>
      </trkpt>
      <trkpt lat="41.80386" lon="9.10053">
        <ele>942.8</ele>
        <time>2021-06-03T11:31:56Z</time>
      </trkpt>
      <trkpt lat="41.80379" lon="9.10049">
        <ele>942.8</ele>
        <time>2021-06-03T11:31:57Z</time>
      </trkpt>
      <trkpt lat="41.80374" lon="9.10043">
        <ele>942.6</ele>
        <time>2021-06-03T11:31:58Z</time>
      </trkpt>
      <trkpt lat="41.80367" lon="9.10039">
        <ele>942.6</ele>
        <time>2021-06-03T11:31:59Z</time>
      </trkpt>
      <trkpt lat="41.8036" lon="9.10035">
        <ele>942.6</ele>
        <time>2021-06-03T11:32:00Z</time>
      </trkpt>
      <trkpt lat="41.80354" lon="9.1003">
        <ele>941.6</ele>
        <time>2021-06-03T11:32:01Z</time>
      </trkpt>
      <trkpt lat="41.80347" lon="9.10025">
        <ele>940.6</ele>
        <time>2021-06-03T11:32:02Z</time>
      </trkpt>
      <trkpt lat="41.80341" lon="9.10019">
        <ele>940.6</ele>
        <time>2021-06-03T11:32:03Z</time>
      </trkpt>
      <trkpt lat="41.80334" lon="9.10014">
        <ele>940.6</ele>
        <time>2021-06-03T11:32:04Z</time>
      </trkpt>
      <trkpt lat="41.80327" lon="9.10008">
        <ele>940.6</ele>
        <time>2021-06-03T11:32:05Z</time>
      </trkpt>
      <trkpt lat="41.80322" lon="9.10002">
        <ele>939.6</ele>
        <time>2021-06-03T11:32:06Z</time>
      </trkpt>
      <trkpt lat="41.80315" lon="9.09996">
        <ele>939.6</ele>
        <time>2021-06-03T11:32:07Z</time>
      </trkpt>
      <trkpt lat="41.80309" lon="9.09991">
        <ele>939.6</ele>
        <time>2021-06-03T11:32:08Z</time>
      </trkpt>
      <trkpt lat="41.80302" lon="9.09986">
        <ele>939.6</ele>
        <time>2021-06-03T11:32:09Z</time>
      </trkpt>
      <trkpt lat="41.80295" lon="9.09984">
        <ele>939</ele>
        <time>2021-06-03T11:32:10Z</time>
      </trkpt>
      <trkpt lat="41.80287" lon="9.09984">
        <ele>939</ele>
        <time>2021-06-03T11:32:11Z</time>
      </trkpt>
      <trkpt lat="41.8028" lon="9.09986">
        <ele>939</ele>
        <time>2021-06-03T11:32:12Z</time>
      </trkpt>
      <trkpt lat="41.80273" lon="9.09987">
        <ele>938.2</ele>
        <time>2021-06-03T11:32:13Z</time>
      </trkpt>
      <trkpt lat="41.80266" lon="9.0999">
        <ele>937.6</ele>
        <time>2021-06-03T11:32:14Z</time>
      </trkpt>
      <trkpt lat="41.80258" lon="9.09992">
        <ele>937.6</ele>
        <time>2021-06-03T11:32:15Z</time>
      </trkpt>
      <trkpt lat="41.80251" lon="9.09994">
        <ele>937.6</ele>
        <time>2021-06-03T11:32:16Z</time>
      </trkpt>
      <trkpt lat="41.80244" lon="9.09996">
        <ele>937.6</ele>
        <time>2021-06-03T11:32:17Z</time>
      </trkpt>
      <trkpt lat="41.80237" lon="9.09999">
        <ele>936</ele>
        <time>2021-06-03T11:32:18Z</time>
      </trkpt>
      <trkpt lat="41.80229" lon="9.10002">
        <ele>936</ele>
        <time>2021-06-03T11:32:19Z</time>
      </trkpt>
      <trkpt lat="41.80221" lon="9.10005">
        <ele>936</ele>
        <time>2021-06-03T11:32:20Z</time>
      </trkpt>
      <trkpt lat="41.80214" lon="9.10005">
        <ele>936</ele>
        <time>2021-06-03T11:32:21Z</time>
      </trkpt>
      <trkpt lat="41.80206" lon="9.10003">
        <ele>937.8</ele>
        <time>2021-06-03T11:32:22Z</time>
      </trkpt>
      <trkpt lat="41.80201" lon="9.09996">
        <ele>937.8</ele>
        <time>2021-06-03T11:32:23Z</time>
      </trkpt>
      <trkpt lat="41.80196" lon="9.09988">
        <ele>937.8</ele>
        <time>2021-06-03T11:32:24Z</time>
      </trkpt>
      <trkpt lat="41.80191" lon="9.0998">
        <ele>936.8</ele>
        <time>2021-06-03T11:32:25Z</time>
      </trkpt>
      <trkpt lat="41.80186" lon="9.09972">
        <ele>935.2</ele>
        <time>2021-06-03T11:32:26Z</time>
      </trkpt>
      <trkpt lat="41.80182" lon="9.09965">
        <ele>935.2</ele>
        <time>2021-06-03T11:32:27Z</time>
      </trkpt>
      <trkpt lat="41.80177" lon="9.09958">
        <ele>935.2</ele>
        <time>2021-06-03T11:32:28Z</time>
      </trkpt>
      <trkpt lat="41.80172" lon="9.09951">
        <ele>935.8</ele>
        <time>2021-06-03T11:32:29Z</time>
      </trkpt>
      <trkpt lat="41.80167" lon="9.09944">
        <ele>935.6</ele>
        <time>2021-06-03T11:32:30Z</time>
      </trkpt>
      <trkpt lat="41.80162" lon="9.09938">
        <ele>935.6</ele>
        <time>2021-06-03T11:32:31Z</time>
      </trkpt>
      <trkpt lat="41.80155" lon="9.09933">
        <ele>935.6</ele>
        <time>2021-06-03T11:32:32Z</time>
      </trkpt>
      <trkpt lat="41.80149" lon="9.09928">
        <ele>935.6</ele>
        <time>2021-06-03T11:32:33Z</time>
      </trkpt>
      <trkpt lat="41.80141" lon="9.09926">
        <ele>935.8</ele>
        <time>2021-06-03T11:32:34Z</time>
      </trkpt>
      <trkpt lat="41.80135" lon="9.09923">
        <ele>935.8</ele>
        <time>2021-06-03T11:32:35Z</time>
      </trkpt>
      <trkpt lat="41.80128" lon="9.09921">
        <ele>935.8</ele>
        <time>2021-06-03T11:32:36Z</time>
      </trkpt>
      <trkpt lat="41.80122" lon="9.09917">
        <ele>934.8</ele>
        <time>2021-06-03T11:32:37Z</time>
      </trkpt>
      <trkpt lat="41.80116" lon="9.09913">
        <ele>934</ele>
        <time>2021-06-03T11:32:38Z</time>
      </trkpt>
      <trkpt lat="41.8011" lon="9.09907">
        <ele>934</ele>
        <time>2021-06-03T11:32:39Z</time>
      </trkpt>
      <trkpt lat="41.80105" lon="9.099">
        <ele>934</ele>
        <time>2021-06-03T11:32:40Z</time>
      </trkpt>
      <trkpt lat="41.80099" lon="9.09894">
        <ele>934</ele>
        <time>2021-06-03T11:32:41Z</time>
      </trkpt>
      <trkpt lat="41.80093" lon="9.09888">
        <ele>934.2</ele>
        <time>2021-06-03T11:32:42Z</time>
      </trkpt>
      <trkpt lat="41.80088" lon="9.09881">
        <ele>934.2</ele>
        <time>2021-06-03T11:32:43Z</time>
      </trkpt>
      <trkpt lat="41.80084" lon="9.09872">
        <ele>934.2</ele>
        <time>2021-06-03T11:32:44Z</time>
      </trkpt>
      <trkpt lat="41.80076" lon="9.09867">
        <ele>933.2</ele>
        <time>2021-06-03T11:32:45Z</time>
      </trkpt>
      <trkpt lat="41.80073" lon="9.09857">
        <ele>932.8</ele>
        <time>2021-06-03T11:32:46Z</time>
      </trkpt>
      <trkpt lat="41.80067" lon="9.0985">
        <ele>932.8</ele>
        <time>2021-06-03T11:32:47Z</time>
      </trkpt>
      <trkpt lat="41.8006" lon="9.09844">
        <ele>932.8</ele>
        <time>2021-06-03T11:32:48Z</time>
      </trkpt>
      <trkpt lat="41.80054" lon="9.09839">
        <ele>931.8</ele>
        <time>2021-06-03T11:32:49Z</time>
      </trkpt>
      <trkpt lat="41.80046" lon="9.09835">
        <ele>931.6</ele>
        <time>2021-06-03T11:32:50Z</time>
      </trkpt>
      <trkpt lat="41.80038" lon="9.09832">
        <ele>931.6</ele>
        <time>2021-06-03T11:32:51Z</time>
      </trkpt>
      <trkpt lat="41.8003" lon="9.09829">
        <ele>931.6</ele>
        <time>2021-06-03T11:32:52Z</time>
      </trkpt>
      <trkpt lat="41.80022" lon="9.09824">
        <ele>930.8</ele>
        <time>2021-06-03T11:32:53Z</time>
      </trkpt>
      <trkpt lat="41.80016" lon="9.09817">
        <ele>930.6</ele>
        <time>2021-06-03T11:32:54Z</time>
      </trkpt>
      <trkpt lat="41.80011" lon="9.09809">
        <ele>930.6</ele>
        <time>2021-06-03T11:32:55Z</time>
      </trkpt>
      <trkpt lat="41.80007" lon="9.09799">
        <ele>930.6</ele>
        <time>2021-06-03T11:32:56Z</time>
      </trkpt>
      <trkpt lat="41.80005" lon="9.09789">
        <ele>930.4</ele>
        <time>2021-06-03T11:32:57Z</time>
      </trkpt>
      <trkpt lat="41.80003" lon="9.09779">
        <ele>929.2</ele>
        <time>2021-06-03T11:32:58Z</time>
      </trkpt>
      <trkpt lat="41.79998" lon="9.09772">
        <ele>929.2</ele>
        <time>2021-06-03T11:32:59Z</time>
      </trkpt>
      <trkpt lat="41.79991" lon="9.09766">
        <ele>929.2</ele>
        <time>2021-06-03T11:33:00Z</time>
      </trkpt>
      <trkpt lat="41.79984" lon="9.09763">
        <ele>929.2</ele>
        <time>2021-06-03T11:33:01Z</time>
      </trkpt>
      <trkpt lat="41.79976" lon="9.09761">
        <ele>928.4</ele>
        <time>2021-06-03T11:33:02Z</time>
      </trkpt>
      <trkpt lat="41.79968" lon="9.09762">
        <ele>928.4</ele>
        <time>2021-06-03T11:33:03Z</time>
      </trkpt>
      <trkpt lat="41.79961" lon="9.09763">
        <ele>928.4</ele>
        <time>2021-06-03T11:33:04Z</time>
      </trkpt>
      <trkpt lat="41.79954" lon="9.09763">
        <ele>928.2</ele>
        <time>2021-06-03T11:33:05Z</time>
      </trkpt>
      <trkpt lat="41.79946" lon="9.09761">
        <ele>927.2</ele>
        <time>2021-06-03T11:33:06Z</time>
      </trkpt>
      <trkpt lat="41.79939" lon="9.09758">
        <ele>927.2</ele>
        <time>2021-06-03T11:33:07Z</time>
      </trkpt>
      <trkpt lat="41.79932" lon="9.09753">
        <ele>927.2</ele>
        <time>2021-06-03T11:33:08Z</time>
      </trkpt>
      <trkpt lat="41.79925" lon="9.09748">
        <ele>928.2</ele>
        <time>2021-06-03T11:33:09Z</time>
      </trkpt>
      <trkpt lat="41.79917" lon="9.09744">
        <ele>928.4</ele>
        <time>2021-06-03T11:33:10Z</time>
      </trkpt>
      <trkpt lat="41.79909" lon="9.09739">
        <ele>928.4</ele>
        <time>2021-06-03T11:33:11Z</time>
      </trkpt>
      <trkpt lat="41.79902" lon="9.09733">
        <ele>928.4</ele>
        <time>2021-06-03T11:33:12Z</time>
      </trkpt>
      <trkpt lat="41.79895" lon="9.09727">
        <ele>927.4</ele>
        <time>2021-06-03T11:33:13Z</time>
      </trkpt>
      <trkpt lat="41.79888" lon="9.09722">
        <ele>925.4</ele>
        <time>2021-06-03T11:33:14Z</time>
      </trkpt>
      <trkpt lat="41.79881" lon="9.09715">
        <ele>925.4</ele>
        <time>2021-06-03T11:33:15Z</time>
      </trkpt>
      <trkpt lat="41.79875" lon="9.09708">
        <ele>925.4</ele>
        <time>2021-06-03T11:33:16Z</time>
      </trkpt>
      <trkpt lat="41.79871" lon="9.097">
        <ele>925.6</ele>
        <time>2021-06-03T11:33:17Z</time>
      </trkpt>
      <trkpt lat="41.79869" lon="9.09691">
        <ele>925.2</ele>
        <time>2021-06-03T11:33:18Z</time>
      </trkpt>
      <trkpt lat="41.79866" lon="9.09682">
        <ele>925.2</ele>
        <time>2021-06-03T11:33:19Z</time>
      </trkpt>
      <trkpt lat="41.79863" lon="9.09673">
        <ele>925.2</ele>
        <time>2021-06-03T11:33:20Z</time>
      </trkpt>
      <trkpt lat="41.7986" lon="9.09666">
        <ele>926.2</ele>
        <time>2021-06-03T11:33:21Z</time>
      </trkpt>
      <trkpt lat="41.79858" lon="9.09659">
        <ele>926.6</ele>
        <time>2021-06-03T11:33:22Z</time>
      </trkpt>
      <trkpt lat="41.79854" lon="9.0965">
        <ele>926.6</ele>
        <time>2021-06-03T11:33:23Z</time>
      </trkpt>
      <trkpt lat="41.79852" lon="9.09641">
        <ele>926.6</ele>
        <time>2021-06-03T11:33:24Z</time>
      </trkpt>
      <trkpt lat="41.79849" lon="9.09632">
        <ele>926.4</ele>
        <time>2021-06-03T11:33:25Z</time>
      </trkpt>
      <trkpt lat="41.79847" lon="9.09624">
        <ele>926.2</ele>
        <time>2021-06-03T11:33:26Z</time>
      </trkpt>
      <trkpt lat="41.79845" lon="9.09616">
        <ele>926.2</ele>
        <time>2021-06-03T11:33:27Z</time>
      </trkpt>
      <trkpt lat="41.79843" lon="9.09605">
        <ele>926.2</ele>
        <time>2021-06-03T11:33:28Z</time>
      </trkpt>
      <trkpt lat="41.7984" lon="9.09596">
        <ele>925.2</ele>
        <time>2021-06-03T11:33:29Z</time>
      </trkpt>
      <trkpt lat="41.79837" lon="9.09587">
        <ele>923.8</ele>
        <time>2021-06-03T11:33:30Z</time>
      </trkpt>
      <trkpt lat="41.79832" lon="9.09577">
        <ele>923.8</ele>
        <time>2021-06-03T11:33:31Z</time>
      </trkpt>
      <trkpt lat="41.7983" lon="9.09571">
        <ele>923.8</ele>
        <time>2021-06-03T11:33:32Z</time>
      </trkpt>
      <trkpt lat="41.79826" lon="9.09559">
        <ele>923.4</ele>
        <time>2021-06-03T11:33:33Z</time>
      </trkpt>
      <trkpt lat="41.79821" lon="9.09548">
        <ele>923.2</ele>
        <time>2021-06-03T11:33:34Z</time>
      </trkpt>
      <trkpt lat="41.79819" lon="9.09539">
        <ele>923.2</ele>
        <time>2021-06-03T11:33:35Z</time>
      </trkpt>
      <trkpt lat="41.79816" lon="9.0953">
        <ele>923.2</ele>
        <time>2021-06-03T11:33:36Z</time>
      </trkpt>
      <trkpt lat="41.79813" lon="9.09521">
        <ele>922.2</ele>
        <time>2021-06-03T11:33:37Z</time>
      </trkpt>
      <trkpt lat="41.79809" lon="9.09512">
        <ele>922.2</ele>
        <time>2021-06-03T11:33:38Z</time>
      </trkpt>
      <trkpt lat="41.79804" lon="9.09502">
        <ele>922.2</ele>
        <time>2021-06-03T11:33:39Z</time>
      </trkpt>
      <trkpt lat="41.79799" lon="9.09493">
        <ele>922.2</ele>
        <time>2021-06-03T11:33:40Z</time>
      </trkpt>
      <trkpt lat="41.79791" lon="9.09487">
        <ele>923</ele>
        <time>2021-06-03T11:33:41Z</time>
      </trkpt>
      <trkpt lat="41.79783" lon="9.09484">
        <ele>923.8</ele>
        <time>2021-06-03T11:33:42Z</time>
      </trkpt>
      <trkpt lat="41.79775" lon="9.09484">
        <ele>923.8</ele>
        <time>2021-06-03T11:33:43Z</time>
      </trkpt>
      <trkpt lat="41.79768" lon="9.09486">
        <ele>923.8</ele>
        <time>2021-06-03T11:33:44Z</time>
      </trkpt>
      <trkpt lat="41.79759" lon="9.09486">
        <ele>922.8</ele>
        <time>2021-06-03T11:33:45Z</time>
      </trkpt>
      <trkpt lat="41.79751" lon="9.09485">
        <ele>921.6</ele>
        <time>2021-06-03T11:33:46Z</time>
      </trkpt>
      <trkpt lat="41.79744" lon="9.09479">
        <ele>921.6</ele>
        <time>2021-06-03T11:33:47Z</time>
      </trkpt>
      <trkpt lat="41.79739" lon="9.0947">
        <ele>921.6</ele>
        <time>2021-06-03T11:33:48Z</time>
      </trkpt>
      <trkpt lat="41.79734" lon="9.0946">
        <ele>920.8</ele>
        <time>2021-06-03T11:33:49Z</time>
      </trkpt>
      <trkpt lat="41.7973" lon="9.0945">
        <ele>920.2</ele>
        <time>2021-06-03T11:33:50Z</time>
      </trkpt>
      <trkpt lat="41.79726" lon="9.09439">
        <ele>920.2</ele>
        <time>2021-06-03T11:33:51Z</time>
      </trkpt>
      <trkpt lat="41.79721" lon="9.0943">
        <ele>920.2</ele>
        <time>2021-06-03T11:33:52Z</time>
      </trkpt>
      <trkpt lat="41.79715" lon="9.09422">
        <ele>920.2</ele>
        <time>2021-06-03T11:33:53Z</time>
      </trkpt>
      <trkpt lat="41.79708" lon="9.09415">
        <ele>919.4</ele>
        <time>2021-06-03T11:33:54Z</time>
      </trkpt>
      <trkpt lat="41.79701" lon="9.09408">
        <ele>919.4</ele>
        <time>2021-06-03T11:33:55Z</time>
      </trkpt>
      <trkpt lat="41.79694" lon="9.09401">
        <ele>919.4</ele>
        <time>2021-06-03T11:33:56Z</time>
      </trkpt>
      <trkpt lat="41.79686" lon="9.09393">
        <ele>918.4</ele>
        <time>2021-06-03T11:33:57Z</time>
      </trkpt>
      <trkpt lat="41.79679" lon="9.09384">
        <ele>918.2</ele>
        <time>2021-06-03T11:33:58Z</time>
      </trkpt>
      <trkpt lat="41.79672" lon="9.09377">
        <ele>918.2</ele>
        <time>2021-06-03T11:33:59Z</time>
      </trkpt>
      <trkpt lat="41.79665" lon="9.0937">
        <ele>918.2</ele>
        <time>2021-06-03T11:34:00Z</time>
      </trkpt>
      <trkpt lat="41.79658" lon="9.09363">
        <ele>917.2</ele>
        <time>2021-06-03T11:34:01Z</time>
      </trkpt>
      <trkpt lat="41.79651" lon="9.09356">
        <ele>917.6</ele>
        <time>2021-06-03T11:34:02Z</time>
      </trkpt>
      <trkpt lat="41.79644" lon="9.0935">
        <ele>917.6</ele>
        <time>2021-06-03T11:34:03Z</time>
      </trkpt>
      <trkpt lat="41.79637" lon="9.09343">
        <ele>917.6</ele>
        <time>2021-06-03T11:34:04Z</time>
      </trkpt>
      <trkpt lat="41.7963" lon="9.09336">
        <ele>917.4</ele>
        <time>2021-06-03T11:34:05Z</time>
      </trkpt>
      <trkpt lat="41.79624" lon="9.09328">
        <ele>917.2</ele>
        <time>2021-06-03T11:34:06Z</time>
      </trkpt>
      <trkpt lat="41.7962" lon="9.09319">
        <ele>917.2</ele>
        <time>2021-06-03T11:34:07Z</time>
      </trkpt>
      <trkpt lat="41.79618" lon="9.09308">
        <ele>917.2</ele>
        <time>2021-06-03T11:34:08Z</time>
      </trkpt>
      <trkpt lat="41.7962" lon="9.09297">
        <ele>916.2</ele>
        <time>2021-06-03T11:34:09Z</time>
      </trkpt>
      <trkpt lat="41.79623" lon="9.09288">
        <ele>915.8</ele>
        <time>2021-06-03T11:34:10Z</time>
      </trkpt>
      <trkpt lat="41.79629" lon="9.0928">
        <ele>915.8</ele>
        <time>2021-06-03T11:34:11Z</time>
      </trkpt>
      <trkpt lat="41.79634" lon="9.09272">
        <ele>915.8</ele>
        <time>2021-06-03T11:34:12Z</time>
      </trkpt>
      <trkpt lat="41.7964" lon="9.09264">
        <ele>915.8</ele>
        <time>2021-06-03T11:34:13Z</time>
      </trkpt>
      <trkpt lat="41.79645" lon="9.09256">
        <ele>914</ele>
        <time>2021-06-03T11:34:14Z</time>
      </trkpt>
      <trkpt lat="41.79649" lon="9.09247">
        <ele>914</ele>
        <time>2021-06-03T11:34:15Z</time>
      </trkpt>
      <trkpt lat="41.79651" lon="9.09237">
        <ele>914</ele>
        <time>2021-06-03T11:34:16Z</time>
      </trkpt>
      <trkpt lat="41.7965" lon="9.09226">
        <ele>914</ele>
        <time>2021-06-03T11:34:17Z</time>
      </trkpt>
      <trkpt lat="41.79646" lon="9.09217">
        <ele>913.6</ele>
        <time>2021-06-03T11:34:18Z</time>
      </trkpt>
      <trkpt lat="41.7964" lon="9.0921">
        <ele>913.6</ele>
        <time>2021-06-03T11:34:19Z</time>
      </trkpt>
      <trkpt lat="41.79633" lon="9.09204">
        <ele>913.6</ele>
        <time>2021-06-03T11:34:20Z</time>
      </trkpt>
      <trkpt lat="41.79626" lon="9.09199">
        <ele>912.6</ele>
        <time>2021-06-03T11:34:21Z</time>
      </trkpt>
      <trkpt lat="41.79618" lon="9.09198">
        <ele>911.2</ele>
        <time>2021-06-03T11:34:22Z</time>
      </trkpt>
      <trkpt lat="41.7961" lon="9.092">
        <ele>911.2</ele>
        <time>2021-06-03T11:34:23Z</time>
      </trkpt>
      <trkpt lat="41.79604" lon="9.09205">
        <ele>911.2</ele>
        <time>2021-06-03T11:34:24Z</time>
      </trkpt>
      <trkpt lat="41.79599" lon="9.09212">
        <ele>912.2</ele>
        <time>2021-06-03T11:34:25Z</time>
      </trkpt>
      <trkpt lat="41.79593" lon="9.09218">
        <ele>912.8</ele>
        <time>2021-06-03T11:34:26Z</time>
      </trkpt>
      <trkpt lat="41.79587" lon="9.09223">
        <ele>912.8</ele>
        <time>2021-06-03T11:34:27Z</time>
      </trkpt>
      <trkpt lat="41.7958" lon="9.09226">
        <ele>912.8</ele>
        <time>2021-06-03T11:34:28Z</time>
      </trkpt>
      <trkpt lat="41.79573" lon="9.09226">
        <ele>912.2</ele>
        <time>2021-06-03T11:34:29Z</time>
      </trkpt>
      <trkpt lat="41.79566" lon="9.09225">
        <ele>912.2</ele>
        <time>2021-06-03T11:34:30Z</time>
      </trkpt>
      <trkpt lat="41.79558" lon="9.09223">
        <ele>912.2</ele>
        <time>2021-06-03T11:34:31Z</time>
      </trkpt>
      <trkpt lat="41.7955" lon="9.09223">
        <ele>912.2</ele>
        <time>2021-06-03T11:34:32Z</time>
      </trkpt>
      <trkpt lat="41.79543" lon="9.09225">
        <ele>911.2</ele>
        <time>2021-06-03T11:34:33Z</time>
      </trkpt>
      <trkpt lat="41.79535" lon="9.09228">
        <ele>910</ele>
        <time>2021-06-03T11:34:34Z</time>
      </trkpt>
      <trkpt lat="41.79527" lon="9.09231">
        <ele>910</ele>
        <time>2021-06-03T11:34:35Z</time>
      </trkpt>
      <trkpt lat="41.7952" lon="9.09233">
        <ele>910</ele>
        <time>2021-06-03T11:34:36Z</time>
      </trkpt>
      <trkpt lat="41.79512" lon="9.09231">
        <ele>910</ele>
        <time>2021-06-03T11:34:37Z</time>
      </trkpt>
      <trkpt lat="41.79505" lon="9.09225">
        <ele>911.8</ele>
        <time>2021-06-03T11:34:38Z</time>
      </trkpt>
      <trkpt lat="41.79501" lon="9.09216">
        <ele>911.8</ele>
        <time>2021-06-03T11:34:39Z</time>
      </trkpt>
      <trkpt lat="41.79498" lon="9.09206">
        <ele>911.8</ele>
        <time>2021-06-03T11:34:40Z</time>
      </trkpt>
      <trkpt lat="41.79497" lon="9.09196">
        <ele>911.8</ele>
        <time>2021-06-03T11:34:41Z</time>
      </trkpt>
      <trkpt lat="41.79495" lon="9.09186">
        <ele>911</ele>
        <time>2021-06-03T11:34:42Z</time>
      </trkpt>
      <trkpt lat="41.7949" lon="9.09177">
        <ele>911</ele>
        <time>2021-06-03T11:34:43Z</time>
      </trkpt>
      <trkpt lat="41.79484" lon="9.09171">
        <ele>911</ele>
        <time>2021-06-03T11:34:44Z</time>
      </trkpt>
      <trkpt lat="41.79477" lon="9.09167">
        <ele>910</ele>
        <time>2021-06-03T11:34:45Z</time>
      </trkpt>
      <trkpt lat="41.79469" lon="9.09166">
        <ele>904.8</ele>
        <time>2021-06-03T11:34:46Z</time>
      </trkpt>
      <trkpt lat="41.79462" lon="9.09165">
        <ele>904.8</ele>
        <time>2021-06-03T11:34:47Z</time>
      </trkpt>
      <trkpt lat="41.79454" lon="9.09164">
        <ele>904.8</ele>
        <time>2021-06-03T11:34:48Z</time>
      </trkpt>
      <trkpt lat="41.79446" lon="9.09164">
        <ele>905.2</ele>
        <time>2021-06-03T11:34:49Z</time>
      </trkpt>
      <trkpt lat="41.7944" lon="9.09163">
        <ele>904.8</ele>
        <time>2021-06-03T11:34:50Z</time>
      </trkpt>
      <trkpt lat="41.79432" lon="9.09162">
        <ele>904.8</ele>
        <time>2021-06-03T11:34:51Z</time>
      </trkpt>
      <trkpt lat="41.79425" lon="9.09161">
        <ele>904.8</ele>
        <time>2021-06-03T11:34:52Z</time>
      </trkpt>
      <trkpt lat="41.79418" lon="9.0916">
        <ele>904.8</ele>
        <time>2021-06-03T11:34:53Z</time>
      </trkpt>
      <trkpt lat="41.79411" lon="9.09158">
        <ele>905</ele>
        <time>2021-06-03T11:34:54Z</time>
      </trkpt>
      <trkpt lat="41.79404" lon="9.09157">
        <ele>905</ele>
        <time>2021-06-03T11:34:55Z</time>
      </trkpt>
      <trkpt lat="41.79397" lon="9.09156">
        <ele>905</ele>
        <time>2021-06-03T11:34:56Z</time>
      </trkpt>
      <trkpt lat="41.7939" lon="9.09156">
        <ele>905</ele>
        <time>2021-06-03T11:34:57Z</time>
      </trkpt>
      <trkpt lat="41.79383" lon="9.09153">
        <ele>904.8</ele>
        <time>2021-06-03T11:34:58Z</time>
      </trkpt>
      <trkpt lat="41.79376" lon="9.09148">
        <ele>904.8</ele>
        <time>2021-06-03T11:34:59Z</time>
      </trkpt>
      <trkpt lat="41.79369" lon="9.09142">
        <ele>904.8</ele>
        <time>2021-06-03T11:35:00Z</time>
      </trkpt>
      <trkpt lat="41.79362" lon="9.09136">
        <ele>904.6</ele>
        <time>2021-06-03T11:35:01Z</time>
      </trkpt>
      <trkpt lat="41.79356" lon="9.09129">
        <ele>904.4</ele>
        <time>2021-06-03T11:35:02Z</time>
      </trkpt>
      <trkpt lat="41.79349" lon="9.09124">
        <ele>904.4</ele>
        <time>2021-06-03T11:35:03Z</time>
      </trkpt>
      <trkpt lat="41.79341" lon="9.09119">
        <ele>904.4</ele>
        <time>2021-06-03T11:35:04Z</time>
      </trkpt>
      <trkpt lat="41.79334" lon="9.09115">
        <ele>903.4</ele>
        <time>2021-06-03T11:35:05Z</time>
      </trkpt>
      <trkpt lat="41.79327" lon="9.09112">
        <ele>903.2</ele>
        <time>2021-06-03T11:35:06Z</time>
      </trkpt>
      <trkpt lat="41.79319" lon="9.09109">
        <ele>903.2</ele>
        <time>2021-06-03T11:35:07Z</time>
      </trkpt>
      <trkpt lat="41.79311" lon="9.09105">
        <ele>903.2</ele>
        <time>2021-06-03T11:35:08Z</time>
      </trkpt>
      <trkpt lat="41.79304" lon="9.091">
        <ele>903.2</ele>
        <time>2021-06-03T11:35:09Z</time>
      </trkpt>
      <trkpt lat="41.79299" lon="9.09091">
        <ele>903.2</ele>
        <time>2021-06-03T11:35:10Z</time>
      </trkpt>
      <trkpt lat="41.79295" lon="9.09082">
        <ele>903.2</ele>
        <time>2021-06-03T11:35:11Z</time>
      </trkpt>
      <trkpt lat="41.79292" lon="9.09073">
        <ele>903.2</ele>
        <time>2021-06-03T11:35:12Z</time>
      </trkpt>
      <trkpt lat="41.79287" lon="9.09066">
        <ele>902.2</ele>
        <time>2021-06-03T11:35:13Z</time>
      </trkpt>
      <trkpt lat="41.79281" lon="9.09059">
        <ele>901</ele>
        <time>2021-06-03T11:35:14Z</time>
      </trkpt>
      <trkpt lat="41.79275" lon="9.09052">
        <ele>901</ele>
        <time>2021-06-03T11:35:15Z</time>
      </trkpt>
      <trkpt lat="41.79267" lon="9.09049">
        <ele>901</ele>
        <time>2021-06-03T11:35:16Z</time>
      </trkpt>
      <trkpt lat="41.79259" lon="9.09049">
        <ele>900.6</ele>
        <time>2021-06-03T11:35:17Z</time>
      </trkpt>
      <trkpt lat="41.79252" lon="9.09051">
        <ele>900.6</ele>
        <time>2021-06-03T11:35:18Z</time>
      </trkpt>
      <trkpt lat="41.79244" lon="9.09055">
        <ele>900.6</ele>
        <time>2021-06-03T11:35:19Z</time>
      </trkpt>
      <trkpt lat="41.79237" lon="9.0906">
        <ele>900.6</ele>
        <time>2021-06-03T11:35:20Z</time>
      </trkpt>
      <trkpt lat="41.7923" lon="9.09065">
        <ele>900</ele>
        <time>2021-06-03T11:35:21Z</time>
      </trkpt>
      <trkpt lat="41.79222" lon="9.0907">
        <ele>899.8</ele>
        <time>2021-06-03T11:35:22Z</time>
      </trkpt>
      <trkpt lat="41.79215" lon="9.09075">
        <ele>899.8</ele>
        <time>2021-06-03T11:35:23Z</time>
      </trkpt>
      <trkpt lat="41.79207" lon="9.0908">
        <ele>899.8</ele>
        <time>2021-06-03T11:35:24Z</time>
      </trkpt>
      <trkpt lat="41.792" lon="9.09085">
        <ele>900.8</ele>
        <time>2021-06-03T11:35:25Z</time>
      </trkpt>
      <trkpt lat="41.79193" lon="9.0909">
        <ele>901.6</ele>
        <time>2021-06-03T11:35:26Z</time>
      </trkpt>
      <trkpt lat="41.79185" lon="9.09094">
        <ele>901.6</ele>
        <time>2021-06-03T11:35:27Z</time>
      </trkpt>
      <trkpt lat="41.79178" lon="9.09095">
        <ele>901.6</ele>
        <time>2021-06-03T11:35:28Z</time>
      </trkpt>
      <trkpt lat="41.79171" lon="9.09092">
        <ele>900.6</ele>
        <time>2021-06-03T11:35:29Z</time>
      </trkpt>
      <trkpt lat="41.79164" lon="9.0909">
        <ele>899</ele>
        <time>2021-06-03T11:35:30Z</time>
      </trkpt>
      <trkpt lat="41.79157" lon="9.09085">
        <ele>899</ele>
        <time>2021-06-03T11:35:31Z</time>
      </trkpt>
      <trkpt lat="41.79151" lon="9.09077">
        <ele>899</ele>
        <time>2021-06-03T11:35:32Z</time>
      </trkpt>
      <trkpt lat="41.79146" lon="9.0907">
        <ele>898</ele>
        <time>2021-06-03T11:35:33Z</time>
      </trkpt>
      <trkpt lat="41.7914" lon="9.09062">
        <ele>895.2</ele>
        <time>2021-06-03T11:35:34Z</time>
      </trkpt>
      <trkpt lat="41.79134" lon="9.09056">
        <ele>895.2</ele>
        <time>2021-06-03T11:35:35Z</time>
      </trkpt>
      <trkpt lat="41.79127" lon="9.09051">
        <ele>895.2</ele>
        <time>2021-06-03T11:35:36Z</time>
      </trkpt>
      <trkpt lat="41.7912" lon="9.09049">
        <ele>895.2</ele>
        <time>2021-06-03T11:35:37Z</time>
      </trkpt>
      <trkpt lat="41.79112" lon="9.09051">
        <ele>895.6</ele>
        <time>2021-06-03T11:35:38Z</time>
      </trkpt>
      <trkpt lat="41.79105" lon="9.09056">
        <ele>895.6</ele>
        <time>2021-06-03T11:35:39Z</time>
      </trkpt>
      <trkpt lat="41.791" lon="9.09063">
        <ele>895.6</ele>
        <time>2021-06-03T11:35:40Z</time>
      </trkpt>
      <trkpt lat="41.79095" lon="9.0907">
        <ele>894.6</ele>
        <time>2021-06-03T11:35:41Z</time>
      </trkpt>
      <trkpt lat="41.7909" lon="9.09077">
        <ele>895.6</ele>
        <time>2021-06-03T11:35:42Z</time>
      </trkpt>
      <trkpt lat="41.79084" lon="9.09084">
        <ele>895.6</ele>
        <time>2021-06-03T11:35:43Z</time>
      </trkpt>
      <trkpt lat="41.79078" lon="9.0909">
        <ele>895.6</ele>
        <time>2021-06-03T11:35:44Z</time>
      </trkpt>
      <trkpt lat="41.79071" lon="9.09095">
        <ele>895</ele>
        <time>2021-06-03T11:35:45Z</time>
      </trkpt>
      <trkpt lat="41.79064" lon="9.09098">
        <ele>895.4</ele>
        <time>2021-06-03T11:35:46Z</time>
      </trkpt>
      <trkpt lat="41.79058" lon="9.09098">
        <ele>895.4</ele>
        <time>2021-06-03T11:35:47Z</time>
      </trkpt>
      <trkpt lat="41.7905" lon="9.09099">
        <ele>895.4</ele>
        <time>2021-06-03T11:35:48Z</time>
      </trkpt>
      <trkpt lat="41.79042" lon="9.09099">
        <ele>894.4</ele>
        <time>2021-06-03T11:35:49Z</time>
      </trkpt>
      <trkpt lat="41.79035" lon="9.09097">
        <ele>892.8</ele>
        <time>2021-06-03T11:35:50Z</time>
      </trkpt>
      <trkpt lat="41.79028" lon="9.09092">
        <ele>892.8</ele>
        <time>2021-06-03T11:35:51Z</time>
      </trkpt>
      <trkpt lat="41.79021" lon="9.09085">
        <ele>892.8</ele>
        <time>2021-06-03T11:35:52Z</time>
      </trkpt>
      <trkpt lat="41.79015" lon="9.09077">
        <ele>891.8</ele>
        <time>2021-06-03T11:35:53Z</time>
      </trkpt>
      <trkpt lat="41.7901" lon="9.09068">
        <ele>892.6</ele>
        <time>2021-06-03T11:35:54Z</time>
      </trkpt>
      <trkpt lat="41.79004" lon="9.0906">
        <ele>892.6</ele>
        <time>2021-06-03T11:35:55Z</time>
      </trkpt>
      <trkpt lat="41.78997" lon="9.09052">
        <ele>892.6</ele>
        <time>2021-06-03T11:35:56Z</time>
      </trkpt>
      <trkpt lat="41.7899" lon="9.09045">
        <ele>892.6</ele>
        <time>2021-06-03T11:35:57Z</time>
      </trkpt>
      <trkpt lat="41.78984" lon="9.09036">
        <ele>891.2</ele>
        <time>2021-06-03T11:35:58Z</time>
      </trkpt>
      <trkpt lat="41.78978" lon="9.09028">
        <ele>891.2</ele>
        <time>2021-06-03T11:35:59Z</time>
      </trkpt>
      <trkpt lat="41.78971" lon="9.09021">
        <ele>891.2</ele>
        <time>2021-06-03T11:36:00Z</time>
      </trkpt>
      <trkpt lat="41.78965" lon="9.09013">
        <ele>891.2</ele>
        <time>2021-06-03T11:36:01Z</time>
      </trkpt>
      <trkpt lat="41.78959" lon="9.09004">
        <ele>891</ele>
        <time>2021-06-03T11:36:02Z</time>
      </trkpt>
      <trkpt lat="41.78954" lon="9.08995">
        <ele>891</ele>
        <time>2021-06-03T11:36:03Z</time>
      </trkpt>
      <trkpt lat="41.78953" lon="9.08985">
        <ele>891</ele>
        <time>2021-06-03T11:36:04Z</time>
      </trkpt>
      <trkpt lat="41.78955" lon="9.08976">
        <ele>890</ele>
        <time>2021-06-03T11:36:05Z</time>
      </trkpt>
      <trkpt lat="41.78956" lon="9.08967">
        <ele>888.2</ele>
        <time>2021-06-03T11:36:06Z</time>
      </trkpt>
      <trkpt lat="41.78954" lon="9.08958">
        <ele>888.2</ele>
        <time>2021-06-03T11:36:07Z</time>
      </trkpt>
      <trkpt lat="41.78949" lon="9.08948">
        <ele>888.2</ele>
        <time>2021-06-03T11:36:08Z</time>
      </trkpt>
      <trkpt lat="41.78944" lon="9.0894">
        <ele>888.2</ele>
        <time>2021-06-03T11:36:09Z</time>
      </trkpt>
      <trkpt lat="41.78938" lon="9.08932">
        <ele>888.4</ele>
        <time>2021-06-03T11:36:10Z</time>
      </trkpt>
      <trkpt lat="41.78931" lon="9.08925">
        <ele>888.4</ele>
        <time>2021-06-03T11:36:11Z</time>
      </trkpt>
      <trkpt lat="41.78925" lon="9.08917">
        <ele>888.4</ele>
        <time>2021-06-03T11:36:12Z</time>
      </trkpt>
      <trkpt lat="41.78918" lon="9.0891">
        <ele>889.4</ele>
        <time>2021-06-03T11:36:13Z</time>
      </trkpt>
      <trkpt lat="41.78912" lon="9.08903">
        <ele>888.6</ele>
        <time>2021-06-03T11:36:14Z</time>
      </trkpt>
      <trkpt lat="41.78905" lon="9.08897">
        <ele>888.6</ele>
        <time>2021-06-03T11:36:15Z</time>
      </trkpt>
      <trkpt lat="41.78897" lon="9.08893">
        <ele>888.6</ele>
        <time>2021-06-03T11:36:16Z</time>
      </trkpt>
      <trkpt lat="41.78889" lon="9.08892">
        <ele>887.6</ele>
        <time>2021-06-03T11:36:17Z</time>
      </trkpt>
      <trkpt lat="41.78881" lon="9.08892">
        <ele>886.8</ele>
        <time>2021-06-03T11:36:18Z</time>
      </trkpt>
      <trkpt lat="41.78872" lon="9.08894">
        <ele>886.8</ele>
        <time>2021-06-03T11:36:19Z</time>
      </trkpt>
      <trkpt lat="41.78864" lon="9.08895">
        <ele>886.8</ele>
        <time>2021-06-03T11:36:20Z</time>
      </trkpt>
      <trkpt lat="41.78857" lon="9.08897">
        <ele>887</ele>
        <time>2021-06-03T11:36:21Z</time>
      </trkpt>
      <trkpt lat="41.78849" lon="9.089">
        <ele>887</ele>
        <time>2021-06-03T11:36:22Z</time>
      </trkpt>
      <trkpt lat="41.78841" lon="9.08902">
        <ele>887</ele>
        <time>2021-06-03T11:36:23Z</time>
      </trkpt>
      <trkpt lat="41.78833" lon="9.08905">
        <ele>887</ele>
        <time>2021-06-03T11:36:24Z</time>
      </trkpt>
      <trkpt lat="41.78825" lon="9.08907">
        <ele>886</ele>
        <time>2021-06-03T11:36:25Z</time>
      </trkpt>
      <trkpt lat="41.78817" lon="9.08907">
        <ele>885.2</ele>
        <time>2021-06-03T11:36:26Z</time>
      </trkpt>
      <trkpt lat="41.78809" lon="9.08905">
        <ele>885.2</ele>
        <time>2021-06-03T11:36:27Z</time>
      </trkpt>
      <trkpt lat="41.78802" lon="9.08899">
        <ele>885.2</ele>
        <time>2021-06-03T11:36:28Z</time>
      </trkpt>
      <trkpt lat="41.78794" lon="9.08895">
        <ele>885.2</ele>
        <time>2021-06-03T11:36:29Z</time>
      </trkpt>
      <trkpt lat="41.78786" lon="9.08893">
        <ele>886.4</ele>
        <time>2021-06-03T11:36:30Z</time>
      </trkpt>
      <trkpt lat="41.78779" lon="9.08894">
        <ele>886.4</ele>
        <time>2021-06-03T11:36:31Z</time>
      </trkpt>
      <trkpt lat="41.78772" lon="9.08898">
        <ele>886.4</ele>
        <time>2021-06-03T11:36:32Z</time>
      </trkpt>
      <trkpt lat="41.78765" lon="9.08904">
        <ele>887.4</ele>
        <time>2021-06-03T11:36:33Z</time>
      </trkpt>
      <trkpt lat="41.7876" lon="9.08911">
        <ele>886.4</ele>
        <time>2021-06-03T11:36:34Z</time>
      </trkpt>
      <trkpt lat="41.78755" lon="9.08918">
        <ele>886.4</ele>
        <time>2021-06-03T11:36:35Z</time>
      </trkpt>
      <trkpt lat="41.78749" lon="9.08925">
        <ele>886.4</ele>
        <time>2021-06-03T11:36:36Z</time>
      </trkpt>
      <trkpt lat="41.78743" lon="9.08932">
        <ele>885.4</ele>
        <time>2021-06-03T11:36:37Z</time>
      </trkpt>
      <trkpt lat="41.78735" lon="9.08936">
        <ele>884</ele>
        <time>2021-06-03T11:36:38Z</time>
      </trkpt>
      <trkpt lat="41.78727" lon="9.08938">
        <ele>884</ele>
        <time>2021-06-03T11:36:39Z</time>
      </trkpt>
      <trkpt lat="41.78719" lon="9.08938">
        <ele>884</ele>
        <time>2021-06-03T11:36:40Z</time>
      </trkpt>
      <trkpt lat="41.78711" lon="9.08939">
        <ele>883</ele>
        <time>2021-06-03T11:36:41Z</time>
      </trkpt>
      <trkpt lat="41.78703" lon="9.08939">
        <ele>882.8</ele>
        <time>2021-06-03T11:36:42Z</time>
      </trkpt>
      <trkpt lat="41.78695" lon="9.08938">
        <ele>882.8</ele>
        <time>2021-06-03T11:36:43Z</time>
      </trkpt>
      <trkpt lat="41.78686" lon="9.08938">
        <ele>882.8</ele>
        <time>2021-06-03T11:36:44Z</time>
      </trkpt>
      <trkpt lat="41.78677" lon="9.08937">
        <ele>882.8</ele>
        <time>2021-06-03T11:36:45Z</time>
      </trkpt>
      <trkpt lat="41.7867" lon="9.08935">
        <ele>882.8</ele>
        <time>2021-06-03T11:36:46Z</time>
      </trkpt>
      <trkpt lat="41.78662" lon="9.08932">
        <ele>882.8</ele>
        <time>2021-06-03T11:36:47Z</time>
      </trkpt>
      <trkpt lat="41.78653" lon="9.08927">
        <ele>882.8</ele>
        <time>2021-06-03T11:36:48Z</time>
      </trkpt>
      <trkpt lat="41.78646" lon="9.08922">
        <ele>882</ele>
        <time>2021-06-03T11:36:49Z</time>
      </trkpt>
      <trkpt lat="41.78639" lon="9.08916">
        <ele>881.8</ele>
        <time>2021-06-03T11:36:50Z</time>
      </trkpt>
      <trkpt lat="41.78632" lon="9.0891">
        <ele>881.8</ele>
        <time>2021-06-03T11:36:51Z</time>
      </trkpt>
      <trkpt lat="41.78626" lon="9.08903">
        <ele>881.8</ele>
        <time>2021-06-03T11:36:52Z</time>
      </trkpt>
      <trkpt lat="41.78618" lon="9.08897">
        <ele>881.2</ele>
        <time>2021-06-03T11:36:53Z</time>
      </trkpt>
      <trkpt lat="41.7861" lon="9.08896">
        <ele>880.8</ele>
        <time>2021-06-03T11:36:54Z</time>
      </trkpt>
      <trkpt lat="41.78603" lon="9.08897">
        <ele>880.8</ele>
        <time>2021-06-03T11:36:55Z</time>
      </trkpt>
      <trkpt lat="41.78596" lon="9.08901">
        <ele>880.8</ele>
        <time>2021-06-03T11:36:56Z</time>
      </trkpt>
      <trkpt lat="41.7859" lon="9.08906">
        <ele>880</ele>
        <time>2021-06-03T11:36:57Z</time>
      </trkpt>
      <trkpt lat="41.78583" lon="9.08912">
        <ele>879</ele>
        <time>2021-06-03T11:36:58Z</time>
      </trkpt>
      <trkpt lat="41.78575" lon="9.08918">
        <ele>879</ele>
        <time>2021-06-03T11:36:59Z</time>
      </trkpt>
      <trkpt lat="41.78567" lon="9.08924">
        <ele>879</ele>
        <time>2021-06-03T11:37:00Z</time>
      </trkpt>
      <trkpt lat="41.78559" lon="9.0893">
        <ele>878.4</ele>
        <time>2021-06-03T11:37:01Z</time>
      </trkpt>
      <trkpt lat="41.78552" lon="9.08936">
        <ele>878.4</ele>
        <time>2021-06-03T11:37:02Z</time>
      </trkpt>
      <trkpt lat="41.78545" lon="9.0894">
        <ele>878.4</ele>
        <time>2021-06-03T11:37:03Z</time>
      </trkpt>
      <trkpt lat="41.78538" lon="9.08946">
        <ele>878.4</ele>
        <time>2021-06-03T11:37:04Z</time>
      </trkpt>
      <trkpt lat="41.78531" lon="9.0895">
        <ele>878.4</ele>
        <time>2021-06-03T11:37:05Z</time>
      </trkpt>
      <trkpt lat="41.78524" lon="9.08955">
        <ele>877.2</ele>
        <time>2021-06-03T11:37:06Z</time>
      </trkpt>
      <trkpt lat="41.78517" lon="9.08962">
        <ele>877.2</ele>
        <time>2021-06-03T11:37:07Z</time>
      </trkpt>
      <trkpt lat="41.78509" lon="9.08968">
        <ele>877.2</ele>
        <time>2021-06-03T11:37:08Z</time>
      </trkpt>
      <trkpt lat="41.78501" lon="9.08973">
        <ele>877.2</ele>
        <time>2021-06-03T11:37:09Z</time>
      </trkpt>
      <trkpt lat="41.78493" lon="9.08979">
        <ele>876</ele>
        <time>2021-06-03T11:37:10Z</time>
      </trkpt>
      <trkpt lat="41.78485" lon="9.08985">
        <ele>876</ele>
        <time>2021-06-03T11:37:11Z</time>
      </trkpt>
      <trkpt lat="41.78477" lon="9.08991">
        <ele>876</ele>
        <time>2021-06-03T11:37:12Z</time>
      </trkpt>
      <trkpt lat="41.78469" lon="9.08997">
        <ele>877</ele>
        <time>2021-06-03T11:37:13Z</time>
      </trkpt>
      <trkpt lat="41.78461" lon="9.09003">
        <ele>877.6</ele>
        <time>2021-06-03T11:37:14Z</time>
      </trkpt>
      <trkpt lat="41.78452" lon="9.09007">
        <ele>877.6</ele>
        <time>2021-06-03T11:37:15Z</time>
      </trkpt>
      <trkpt lat="41.78444" lon="9.09008">
        <ele>877.6</ele>
        <time>2021-06-03T11:37:16Z</time>
      </trkpt>
      <trkpt lat="41.78435" lon="9.09009">
        <ele>876.6</ele>
        <time>2021-06-03T11:37:17Z</time>
      </trkpt>
      <trkpt lat="41.78426" lon="9.09009">
        <ele>875.8</ele>
        <time>2021-06-03T11:37:18Z</time>
      </trkpt>
      <trkpt lat="41.78417" lon="9.0901">
        <ele>875.8</ele>
        <time>2021-06-03T11:37:19Z</time>
      </trkpt>
      <trkpt lat="41.78407" lon="9.0901">
        <ele>875.8</ele>
        <time>2021-06-03T11:37:20Z</time>
      </trkpt>
      <trkpt lat="41.78398" lon="9.09009">
        <ele>875.8</ele>
        <time>2021-06-03T11:37:21Z</time>
      </trkpt>
      <trkpt lat="41.78391" lon="9.09009">
        <ele>874.4</ele>
        <time>2021-06-03T11:37:22Z</time>
      </trkpt>
      <trkpt lat="41.78382" lon="9.09008">
        <ele>874.4</ele>
        <time>2021-06-03T11:37:23Z</time>
      </trkpt>
      <trkpt lat="41.78374" lon="9.09007">
        <ele>874.4</ele>
        <time>2021-06-03T11:37:24Z</time>
      </trkpt>
      <trkpt lat="41.78366" lon="9.09006">
        <ele>873.4</ele>
        <time>2021-06-03T11:37:25Z</time>
      </trkpt>
      <trkpt lat="41.78359" lon="9.09005">
        <ele>872.2</ele>
        <time>2021-06-03T11:37:26Z</time>
      </trkpt>
      <trkpt lat="41.78349" lon="9.09007">
        <ele>872.2</ele>
        <time>2021-06-03T11:37:27Z</time>
      </trkpt>
      <trkpt lat="41.78342" lon="9.0901">
        <ele>872.2</ele>
        <time>2021-06-03T11:37:28Z</time>
      </trkpt>
      <trkpt lat="41.78337" lon="9.09016">
        <ele>871.6</ele>
        <time>2021-06-03T11:37:29Z</time>
      </trkpt>
      <trkpt lat="41.78334" lon="9.09024">
        <ele>871.6</ele>
        <time>2021-06-03T11:37:30Z</time>
      </trkpt>
      <trkpt lat="41.78332" lon="9.09034">
        <ele>871.6</ele>
        <time>2021-06-03T11:37:31Z</time>
      </trkpt>
      <trkpt lat="41.78328" lon="9.09045">
        <ele>871.6</ele>
        <time>2021-06-03T11:37:32Z</time>
      </trkpt>
      <trkpt lat="41.78326" lon="9.09055">
        <ele>872.6</ele>
        <time>2021-06-03T11:37:33Z</time>
      </trkpt>
      <trkpt lat="41.78324" lon="9.09066">
        <ele>872.6</ele>
        <time>2021-06-03T11:37:34Z</time>
      </trkpt>
      <trkpt lat="41.78322" lon="9.09077">
        <ele>872.6</ele>
        <time>2021-06-03T11:37:35Z</time>
      </trkpt>
      <trkpt lat="41.7832" lon="9.09087">
        <ele>872.6</ele>
        <time>2021-06-03T11:37:36Z</time>
      </trkpt>
      <trkpt lat="41.78316" lon="9.09097">
        <ele>871.6</ele>
        <time>2021-06-03T11:37:37Z</time>
      </trkpt>
      <trkpt lat="41.7831" lon="9.09106">
        <ele>870.6</ele>
        <time>2021-06-03T11:37:38Z</time>
      </trkpt>
      <trkpt lat="41.78304" lon="9.09115">
        <ele>870.6</ele>
        <time>2021-06-03T11:37:39Z</time>
      </trkpt>
      <trkpt lat="41.78299" lon="9.09124">
        <ele>870.6</ele>
        <time>2021-06-03T11:37:40Z</time>
      </trkpt>
      <trkpt lat="41.78293" lon="9.09132">
        <ele>869.6</ele>
        <time>2021-06-03T11:37:41Z</time>
      </trkpt>
      <trkpt lat="41.78288" lon="9.0914">
        <ele>868.8</ele>
        <time>2021-06-03T11:37:42Z</time>
      </trkpt>
      <trkpt lat="41.78283" lon="9.0915">
        <ele>868.8</ele>
        <time>2021-06-03T11:37:43Z</time>
      </trkpt>
      <trkpt lat="41.78278" lon="9.09158">
        <ele>868.8</ele>
        <time>2021-06-03T11:37:44Z</time>
      </trkpt>
      <trkpt lat="41.78272" lon="9.09166">
        <ele>867.8</ele>
        <time>2021-06-03T11:37:45Z</time>
      </trkpt>
      <trkpt lat="41.78265" lon="9.09172">
        <ele>868.6</ele>
        <time>2021-06-03T11:37:46Z</time>
      </trkpt>
      <trkpt lat="41.78255" lon="9.09177">
        <ele>868.6</ele>
        <time>2021-06-03T11:37:47Z</time>
      </trkpt>
      <trkpt lat="41.78247" lon="9.09177">
        <ele>868.6</ele>
        <time>2021-06-03T11:37:48Z</time>
      </trkpt>
      <trkpt lat="41.7824" lon="9.09176">
        <ele>867.6</ele>
        <time>2021-06-03T11:37:49Z</time>
      </trkpt>
      <trkpt lat="41.78231" lon="9.09175">
        <ele>866.4</ele>
        <time>2021-06-03T11:37:50Z</time>
      </trkpt>
      <trkpt lat="41.78223" lon="9.09174">
        <ele>866.4</ele>
        <time>2021-06-03T11:37:51Z</time>
      </trkpt>
      <trkpt lat="41.78215" lon="9.09173">
        <ele>866.4</ele>
        <time>2021-06-03T11:37:52Z</time>
      </trkpt>
      <trkpt lat="41.78207" lon="9.09174">
        <ele>866.2</ele>
        <time>2021-06-03T11:37:53Z</time>
      </trkpt>
      <trkpt lat="41.782" lon="9.09177">
        <ele>867</ele>
        <time>2021-06-03T11:37:54Z</time>
      </trkpt>
      <trkpt lat="41.78194" lon="9.09183">
        <ele>867</ele>
        <time>2021-06-03T11:37:55Z</time>
      </trkpt>
      <trkpt lat="41.7819" lon="9.09191">
        <ele>867</ele>
        <time>2021-06-03T11:37:56Z</time>
      </trkpt>
      <trkpt lat="41.78184" lon="9.092">
        <ele>867</ele>
        <time>2021-06-03T11:37:57Z</time>
      </trkpt>
      <trkpt lat="41.78179" lon="9.0921">
        <ele>866.6</ele>
        <time>2021-06-03T11:37:58Z</time>
      </trkpt>
      <trkpt lat="41.78173" lon="9.09221">
        <ele>866.6</ele>
        <time>2021-06-03T11:37:59Z</time>
      </trkpt>
      <trkpt lat="41.78168" lon="9.0923">
        <ele>866.6</ele>
        <time>2021-06-03T11:38:00Z</time>
      </trkpt>
      <trkpt lat="41.78161" lon="9.09235">
        <ele>866.4</ele>
        <time>2021-06-03T11:38:01Z</time>
      </trkpt>
      <trkpt lat="41.78154" lon="9.09237">
        <ele>866.4</ele>
        <time>2021-06-03T11:38:02Z</time>
      </trkpt>
      <trkpt lat="41.78146" lon="9.09239">
        <ele>866.4</ele>
        <time>2021-06-03T11:38:03Z</time>
      </trkpt>
      <trkpt lat="41.78137" lon="9.09239">
        <ele>866.4</ele>
        <time>2021-06-03T11:38:04Z</time>
      </trkpt>
      <trkpt lat="41.78129" lon="9.09239">
        <ele>866.4</ele>
        <time>2021-06-03T11:38:05Z</time>
      </trkpt>
      <trkpt lat="41.78121" lon="9.0924">
        <ele>865.2</ele>
        <time>2021-06-03T11:38:06Z</time>
      </trkpt>
      <trkpt lat="41.78112" lon="9.09243">
        <ele>865.2</ele>
        <time>2021-06-03T11:38:07Z</time>
      </trkpt>
      <trkpt lat="41.78105" lon="9.09246">
        <ele>865.2</ele>
        <time>2021-06-03T11:38:08Z</time>
      </trkpt>
      <trkpt lat="41.78097" lon="9.0925">
        <ele>865.2</ele>
        <time>2021-06-03T11:38:09Z</time>
      </trkpt>
      <trkpt lat="41.78089" lon="9.09253">
        <ele>864.8</ele>
        <time>2021-06-03T11:38:10Z</time>
      </trkpt>
      <trkpt lat="41.78081" lon="9.09256">
        <ele>864.8</ele>
        <time>2021-06-03T11:38:11Z</time>
      </trkpt>
      <trkpt lat="41.78073" lon="9.09256">
        <ele>864.8</ele>
        <time>2021-06-03T11:38:12Z</time>
      </trkpt>
      <trkpt lat="41.78066" lon="9.09252">
        <ele>863.8</ele>
        <time>2021-06-03T11:38:13Z</time>
      </trkpt>
      <trkpt lat="41.78058" lon="9.09247">
        <ele>863.2</ele>
        <time>2021-06-03T11:38:14Z</time>
      </trkpt>
      <trkpt lat="41.7805" lon="9.09242">
        <ele>863.2</ele>
        <time>2021-06-03T11:38:15Z</time>
      </trkpt>
      <trkpt lat="41.78042" lon="9.09236">
        <ele>863.2</ele>
        <time>2021-06-03T11:38:16Z</time>
      </trkpt>
      <trkpt lat="41.78037" lon="9.09228">
        <ele>863.2</ele>
        <time>2021-06-03T11:38:17Z</time>
      </trkpt>
      <trkpt lat="41.78033" lon="9.09218">
        <ele>862</ele>
        <time>2021-06-03T11:38:18Z</time>
      </trkpt>
      <trkpt lat="41.78029" lon="9.09209">
        <ele>862</ele>
        <time>2021-06-03T11:38:19Z</time>
      </trkpt>
      <trkpt lat="41.78025" lon="9.092">
        <ele>862</ele>
        <time>2021-06-03T11:38:20Z</time>
      </trkpt>
      <trkpt lat="41.78021" lon="9.09191">
        <ele>861</ele>
        <time>2021-06-03T11:38:21Z</time>
      </trkpt>
      <trkpt lat="41.78017" lon="9.09182">
        <ele>859.6</ele>
        <time>2021-06-03T11:38:22Z</time>
      </trkpt>
      <trkpt lat="41.78014" lon="9.09175">
        <ele>859.6</ele>
        <time>2021-06-03T11:38:23Z</time>
      </trkpt>
      <trkpt lat="41.7801" lon="9.09166">
        <ele>859.6</ele>
        <time>2021-06-03T11:38:24Z</time>
      </trkpt>
      <trkpt lat="41.78005" lon="9.09157">
        <ele>859.6</ele>
        <time>2021-06-03T11:38:25Z</time>
      </trkpt>
      <trkpt lat="41.78" lon="9.0915">
        <ele>860.2</ele>
        <time>2021-06-03T11:38:26Z</time>
      </trkpt>
      <trkpt lat="41.77994" lon="9.09144">
        <ele>860.2</ele>
        <time>2021-06-03T11:38:27Z</time>
      </trkpt>
      <trkpt lat="41.77987" lon="9.09137">
        <ele>860.2</ele>
        <time>2021-06-03T11:38:28Z</time>
      </trkpt>
      <trkpt lat="41.7798" lon="9.09131">
        <ele>859.4</ele>
        <time>2021-06-03T11:38:29Z</time>
      </trkpt>
      <trkpt lat="41.77974" lon="9.09124">
        <ele>858.8</ele>
        <time>2021-06-03T11:38:30Z</time>
      </trkpt>
      <trkpt lat="41.77967" lon="9.09117">
        <ele>858.8</ele>
        <time>2021-06-03T11:38:31Z</time>
      </trkpt>
      <trkpt lat="41.77961" lon="9.09111">
        <ele>858.8</ele>
        <time>2021-06-03T11:38:32Z</time>
      </trkpt>
      <trkpt lat="41.77954" lon="9.09106">
        <ele>859.8</ele>
        <time>2021-06-03T11:38:33Z</time>
      </trkpt>
      <trkpt lat="41.77946" lon="9.091">
        <ele>859.6</ele>
        <time>2021-06-03T11:38:34Z</time>
      </trkpt>
      <trkpt lat="41.7794" lon="9.09094">
        <ele>859.6</ele>
        <time>2021-06-03T11:38:35Z</time>
      </trkpt>
      <trkpt lat="41.77932" lon="9.09088">
        <ele>859.6</ele>
        <time>2021-06-03T11:38:36Z</time>
      </trkpt>
      <trkpt lat="41.77925" lon="9.09082">
        <ele>859</ele>
        <time>2021-06-03T11:38:37Z</time>
      </trkpt>
      <trkpt lat="41.77919" lon="9.09076">
        <ele>858.4</ele>
        <time>2021-06-03T11:38:38Z</time>
      </trkpt>
      <trkpt lat="41.77913" lon="9.09069">
        <ele>858.4</ele>
        <time>2021-06-03T11:38:39Z</time>
      </trkpt>
      <trkpt lat="41.7791" lon="9.09062">
        <ele>858.4</ele>
        <time>2021-06-03T11:38:40Z</time>
      </trkpt>
      <trkpt lat="41.77905" lon="9.09053">
        <ele>857.4</ele>
        <time>2021-06-03T11:38:41Z</time>
      </trkpt>
      <trkpt lat="41.779" lon="9.09044">
        <ele>856.6</ele>
        <time>2021-06-03T11:38:42Z</time>
      </trkpt>
      <trkpt lat="41.77893" lon="9.09039">
        <ele>856.6</ele>
        <time>2021-06-03T11:38:43Z</time>
      </trkpt>
      <trkpt lat="41.77885" lon="9.09037">
        <ele>856.6</ele>
        <time>2021-06-03T11:38:44Z</time>
      </trkpt>
      <trkpt lat="41.77878" lon="9.09037">
        <ele>855.6</ele>
        <time>2021-06-03T11:38:45Z</time>
      </trkpt>
      <trkpt lat="41.7787" lon="9.09038">
        <ele>855.4</ele>
        <time>2021-06-03T11:38:46Z</time>
      </trkpt>
      <trkpt lat="41.77862" lon="9.0904">
        <ele>855.4</ele>
        <time>2021-06-03T11:38:47Z</time>
      </trkpt>
      <trkpt lat="41.77854" lon="9.09042">
        <ele>855.4</ele>
        <time>2021-06-03T11:38:48Z</time>
      </trkpt>
      <trkpt lat="41.77846" lon="9.09043">
        <ele>855.4</ele>
        <time>2021-06-03T11:38:49Z</time>
      </trkpt>
      <trkpt lat="41.77838" lon="9.09043">
        <ele>855.4</ele>
        <time>2021-06-03T11:38:50Z</time>
      </trkpt>
      <trkpt lat="41.7783" lon="9.0904">
        <ele>855.4</ele>
        <time>2021-06-03T11:38:51Z</time>
      </trkpt>
      <trkpt lat="41.77822" lon="9.09035">
        <ele>855.4</ele>
        <time>2021-06-03T11:38:52Z</time>
      </trkpt>
      <trkpt lat="41.77816" lon="9.09027">
        <ele>855.4</ele>
        <time>2021-06-03T11:38:53Z</time>
      </trkpt>
      <trkpt lat="41.77811" lon="9.0902">
        <ele>854.4</ele>
        <time>2021-06-03T11:38:54Z</time>
      </trkpt>
      <trkpt lat="41.77807" lon="9.09011">
        <ele>854.4</ele>
        <time>2021-06-03T11:38:55Z</time>
      </trkpt>
      <trkpt lat="41.77801" lon="9.09005">
        <ele>854.4</ele>
        <time>2021-06-03T11:38:56Z</time>
      </trkpt>
      <trkpt lat="41.77794" lon="9.08998">
        <ele>853.4</ele>
        <time>2021-06-03T11:38:57Z</time>
      </trkpt>
      <trkpt lat="41.77786" lon="9.08993">
        <ele>852.8</ele>
        <time>2021-06-03T11:38:58Z</time>
      </trkpt>
      <trkpt lat="41.77778" lon="9.0899">
        <ele>852.8</ele>
        <time>2021-06-03T11:38:59Z</time>
      </trkpt>
      <trkpt lat="41.77769" lon="9.08988">
        <ele>852.8</ele>
        <time>2021-06-03T11:39:00Z</time>
      </trkpt>
      <trkpt lat="41.77761" lon="9.08985">
        <ele>852.8</ele>
        <time>2021-06-03T11:39:01Z</time>
      </trkpt>
      <trkpt lat="41.77752" lon="9.08983">
        <ele>852.4</ele>
        <time>2021-06-03T11:39:02Z</time>
      </trkpt>
      <trkpt lat="41.77743" lon="9.08981">
        <ele>852.4</ele>
        <time>2021-06-03T11:39:03Z</time>
      </trkpt>
      <trkpt lat="41.77735" lon="9.0898">
        <ele>852.4</ele>
        <time>2021-06-03T11:39:04Z</time>
      </trkpt>
      <trkpt lat="41.77726" lon="9.08978">
        <ele>852.4</ele>
        <time>2021-06-03T11:39:05Z</time>
      </trkpt>
      <trkpt lat="41.77717" lon="9.08976">
        <ele>851.8</ele>
        <time>2021-06-03T11:39:06Z</time>
      </trkpt>
      <trkpt lat="41.77709" lon="9.08975">
        <ele>851.8</ele>
        <time>2021-06-03T11:39:07Z</time>
      </trkpt>
      <trkpt lat="41.77701" lon="9.08972">
        <ele>851.8</ele>
        <time>2021-06-03T11:39:08Z</time>
      </trkpt>
      <trkpt lat="41.77693" lon="9.0897">
        <ele>850.8</ele>
        <time>2021-06-03T11:39:09Z</time>
      </trkpt>
      <trkpt lat="41.77684" lon="9.08968">
        <ele>847.8</ele>
        <time>2021-06-03T11:39:10Z</time>
      </trkpt>
      <trkpt lat="41.77676" lon="9.08966">
        <ele>847.8</ele>
        <time>2021-06-03T11:39:11Z</time>
      </trkpt>
      <trkpt lat="41.77668" lon="9.08965">
        <ele>847.8</ele>
        <time>2021-06-03T11:39:12Z</time>
      </trkpt>
      <trkpt lat="41.77658" lon="9.08964">
        <ele>847.8</ele>
        <time>2021-06-03T11:39:13Z</time>
      </trkpt>
      <trkpt lat="41.7765" lon="9.08961">
        <ele>847</ele>
        <time>2021-06-03T11:39:14Z</time>
      </trkpt>
      <trkpt lat="41.7764" lon="9.08957">
        <ele>847</ele>
        <time>2021-06-03T11:39:15Z</time>
      </trkpt>
      <trkpt lat="41.77631" lon="9.08952">
        <ele>847</ele>
        <time>2021-06-03T11:39:16Z</time>
      </trkpt>
      <trkpt lat="41.77623" lon="9.08946">
        <ele>847</ele>
        <time>2021-06-03T11:39:17Z</time>
      </trkpt>
      <trkpt lat="41.77615" lon="9.08938">
        <ele>844.8</ele>
        <time>2021-06-03T11:39:18Z</time>
      </trkpt>
      <trkpt lat="41.77609" lon="9.08928">
        <ele>844.8</ele>
        <time>2021-06-03T11:39:19Z</time>
      </trkpt>
      <trkpt lat="41.77604" lon="9.08921">
        <ele>844.8</ele>
        <time>2021-06-03T11:39:20Z</time>
      </trkpt>
      <trkpt lat="41.77598" lon="9.0891">
        <ele>844.8</ele>
        <time>2021-06-03T11:39:21Z</time>
      </trkpt>
      <trkpt lat="41.77593" lon="9.08901">
        <ele>845.2</ele>
        <time>2021-06-03T11:39:22Z</time>
      </trkpt>
      <trkpt lat="41.77587" lon="9.08894">
        <ele>845.2</ele>
        <time>2021-06-03T11:39:23Z</time>
      </trkpt>
      <trkpt lat="41.77579" lon="9.08893">
        <ele>845.2</ele>
        <time>2021-06-03T11:39:24Z</time>
      </trkpt>
      <trkpt lat="41.77571" lon="9.08894">
        <ele>844.2</ele>
        <time>2021-06-03T11:39:25Z</time>
      </trkpt>
      <trkpt lat="41.77563" lon="9.08898">
        <ele>844</ele>
        <time>2021-06-03T11:39:26Z</time>
      </trkpt>
      <trkpt lat="41.77556" lon="9.08902">
        <ele>844</ele>
        <time>2021-06-03T11:39:27Z</time>
      </trkpt>
      <trkpt lat="41.77552" lon="9.08905">
        <ele>844</ele>
        <time>2021-06-03T11:39:28Z</time>
      </trkpt>
      <trkpt lat="41.77549" lon="9.08907">
        <ele>845</ele>
        <time>2021-06-03T11:39:29Z</time>
      </trkpt>
      <trkpt lat="41.77546" lon="9.0891">
        <ele>846</ele>
        <time>2021-06-03T11:39:30Z</time>
      </trkpt>
      <trkpt lat="41.77543" lon="9.08913">
        <ele>846</ele>
        <time>2021-06-03T11:39:31Z</time>
      </trkpt>
      <trkpt lat="41.7754" lon="9.08916">
        <ele>846</ele>
        <time>2021-06-03T11:39:32Z</time>
      </trkpt>
      <trkpt lat="41.77536" lon="9.08919">
        <ele>846</ele>
        <time>2021-06-03T11:39:33Z</time>
      </trkpt>
      <trkpt lat="41.77532" lon="9.08923">
        <ele>845</ele>
        <time>2021-06-03T11:39:34Z</time>
      </trkpt>
      <trkpt lat="41.77528" lon="9.08926">
        <ele>845</ele>
        <time>2021-06-03T11:39:35Z</time>
      </trkpt>
      <trkpt lat="41.77523" lon="9.0893">
        <ele>845</ele>
        <time>2021-06-03T11:39:36Z</time>
      </trkpt>
      <trkpt lat="41.77519" lon="9.08934">
        <ele>844.4</ele>
        <time>2021-06-03T11:39:37Z</time>
      </trkpt>
      <trkpt lat="41.77515" lon="9.08937">
        <ele>844</ele>
        <time>2021-06-03T11:39:38Z</time>
      </trkpt>
      <trkpt lat="41.77511" lon="9.0894">
        <ele>844</ele>
        <time>2021-06-03T11:39:39Z</time>
      </trkpt>
      <trkpt lat="41.77507" lon="9.08945">
        <ele>844</ele>
        <time>2021-06-03T11:39:40Z</time>
      </trkpt>
      <trkpt lat="41.77502" lon="9.0895">
        <ele>843</ele>
        <time>2021-06-03T11:39:41Z</time>
      </trkpt>
      <trkpt lat="41.77498" lon="9.08953">
        <ele>842.2</ele>
        <time>2021-06-03T11:39:42Z</time>
      </trkpt>
      <trkpt lat="41.77493" lon="9.08956">
        <ele>842.2</ele>
        <time>2021-06-03T11:39:43Z</time>
      </trkpt>
      <trkpt lat="41.77488" lon="9.08959">
        <ele>842.2</ele>
        <time>2021-06-03T11:39:44Z</time>
      </trkpt>
      <trkpt lat="41.77482" lon="9.08962">
        <ele>841.4</ele>
        <time>2021-06-03T11:39:45Z</time>
      </trkpt>
      <trkpt lat="41.77477" lon="9.08965">
        <ele>841.4</ele>
        <time>2021-06-03T11:39:46Z</time>
      </trkpt>
      <trkpt lat="41.77472" lon="9.08969">
        <ele>841.4</ele>
        <time>2021-06-03T11:39:47Z</time>
      </trkpt>
      <trkpt lat="41.77468" lon="9.08973">
        <ele>841.4</ele>
        <time>2021-06-03T11:39:48Z</time>
      </trkpt>
      <trkpt lat="41.77459" lon="9.08977">
        <ele>840.4</ele>
        <time>2021-06-03T11:39:49Z</time>
      </trkpt>
      <trkpt lat="41.77453" lon="9.08981">
        <ele>839.8</ele>
        <time>2021-06-03T11:39:50Z</time>
      </trkpt>
      <trkpt lat="41.77447" lon="9.08986">
        <ele>839.8</ele>
        <time>2021-06-03T11:39:51Z</time>
      </trkpt>
      <trkpt lat="41.7744" lon="9.08989">
        <ele>839.8</ele>
        <time>2021-06-03T11:39:52Z</time>
      </trkpt>
      <trkpt lat="41.77435" lon="9.08992">
        <ele>839.8</ele>
        <time>2021-06-03T11:39:53Z</time>
      </trkpt>
      <trkpt lat="41.7743" lon="9.08994">
        <ele>839.8</ele>
        <time>2021-06-03T11:39:54Z</time>
      </trkpt>
      <trkpt lat="41.77425" lon="9.08996">
        <ele>839.8</ele>
        <time>2021-06-03T11:39:55Z</time>
      </trkpt>
      <trkpt lat="41.77421" lon="9.08998">
        <ele>839.8</ele>
        <time>2021-06-03T11:39:56Z</time>
      </trkpt>
      <trkpt lat="41.77416" lon="9.09">
        <ele>839.8</ele>
        <time>2021-06-03T11:39:57Z</time>
      </trkpt>
      <trkpt lat="41.77412" lon="9.09002">
        <ele>839.6</ele>
        <time>2021-06-03T11:39:58Z</time>
      </trkpt>
      <trkpt lat="41.77406" lon="9.09007">
        <ele>839.6</ele>
        <time>2021-06-03T11:39:59Z</time>
      </trkpt>
      <trkpt lat="41.77401" lon="9.09011">
        <ele>839.6</ele>
        <time>2021-06-03T11:40:00Z</time>
      </trkpt>
      <trkpt lat="41.77397" lon="9.09013">
        <ele>838.8</ele>
        <time>2021-06-03T11:40:01Z</time>
      </trkpt>
      <trkpt lat="41.77393" lon="9.09015">
        <ele>838.8</ele>
        <time>2021-06-03T11:40:02Z</time>
      </trkpt>
      <trkpt lat="41.7739" lon="9.09018">
        <ele>838.8</ele>
        <time>2021-06-03T11:40:03Z</time>
      </trkpt>
      <trkpt lat="41.77387" lon="9.0902">
        <ele>838.8</ele>
        <time>2021-06-03T11:40:04Z</time>
      </trkpt>
      <trkpt lat="41.77382" lon="9.09023">
        <ele>838.8</ele>
        <time>2021-06-03T11:40:05Z</time>
      </trkpt>
      <trkpt lat="41.77378" lon="9.09025">
        <ele>838.2</ele>
        <time>2021-06-03T11:40:06Z</time>
      </trkpt>
      <trkpt lat="41.77373" lon="9.09026">
        <ele>838.2</ele>
        <time>2021-06-03T11:40:07Z</time>
      </trkpt>
      <trkpt lat="41.77368" lon="9.09026">
        <ele>838.2</ele>
        <time>2021-06-03T11:40:08Z</time>
      </trkpt>
      <trkpt lat="41.77363" lon="9.09025">
        <ele>837.2</ele>
        <time>2021-06-03T11:40:09Z</time>
      </trkpt>
      <trkpt lat="41.77355" lon="9.09026">
        <ele>835.2</ele>
        <time>2021-06-03T11:40:10Z</time>
      </trkpt>
      <trkpt lat="41.7735" lon="9.09023">
        <ele>835.2</ele>
        <time>2021-06-03T11:40:11Z</time>
      </trkpt>
      <trkpt lat="41.77344" lon="9.0902">
        <ele>835.2</ele>
        <time>2021-06-03T11:40:12Z</time>
      </trkpt>
      <trkpt lat="41.77337" lon="9.09017">
        <ele>835.2</ele>
        <time>2021-06-03T11:40:13Z</time>
      </trkpt>
      <trkpt lat="41.77332" lon="9.09012">
        <ele>835.6</ele>
        <time>2021-06-03T11:40:14Z</time>
      </trkpt>
      <trkpt lat="41.7733" lon="9.09006">
        <ele>835.6</ele>
        <time>2021-06-03T11:40:15Z</time>
      </trkpt>
      <trkpt lat="41.77329" lon="9.09">
        <ele>835.6</ele>
        <time>2021-06-03T11:40:16Z</time>
      </trkpt>
      <trkpt lat="41.7733" lon="9.08994">
        <ele>834.8</ele>
        <time>2021-06-03T11:40:17Z</time>
      </trkpt>
      <trkpt lat="41.77332" lon="9.08989">
        <ele>835.2</ele>
        <time>2021-06-03T11:40:18Z</time>
      </trkpt>
      <trkpt lat="41.77334" lon="9.08984">
        <ele>835.2</ele>
        <time>2021-06-03T11:40:19Z</time>
      </trkpt>
      <trkpt lat="41.77336" lon="9.08979">
        <ele>835.2</ele>
        <time>2021-06-03T11:40:20Z</time>
      </trkpt>
      <trkpt lat="41.77339" lon="9.08974">
        <ele>835.2</ele>
        <time>2021-06-03T11:40:21Z</time>
      </trkpt>
      <trkpt lat="41.77341" lon="9.08969">
        <ele>835.2</ele>
        <time>2021-06-03T11:40:22Z</time>
      </trkpt>
      <trkpt lat="41.77344" lon="9.08965">
        <ele>835.2</ele>
        <time>2021-06-03T11:40:23Z</time>
      </trkpt>
      <trkpt lat="41.77348" lon="9.0896">
        <ele>835.2</ele>
        <time>2021-06-03T11:40:24Z</time>
      </trkpt>
      <trkpt lat="41.7735" lon="9.08955">
        <ele>835.2</ele>
        <time>2021-06-03T11:40:25Z</time>
      </trkpt>
      <trkpt lat="41.77351" lon="9.08949">
        <ele>834.4</ele>
        <time>2021-06-03T11:40:26Z</time>
      </trkpt>
      <trkpt lat="41.77352" lon="9.08943">
        <ele>834.4</ele>
        <time>2021-06-03T11:40:27Z</time>
      </trkpt>
      <trkpt lat="41.77353" lon="9.08936">
        <ele>834.4</ele>
        <time>2021-06-03T11:40:28Z</time>
      </trkpt>
      <trkpt lat="41.77352" lon="9.0893">
        <ele>834.4</ele>
        <time>2021-06-03T11:40:29Z</time>
      </trkpt>
      <trkpt lat="41.77353" lon="9.08923">
        <ele>833.8</ele>
        <time>2021-06-03T11:40:30Z</time>
      </trkpt>
      <trkpt lat="41.77352" lon="9.08915">
        <ele>833.8</ele>
        <time>2021-06-03T11:40:31Z</time>
      </trkpt>
      <trkpt lat="41.77352" lon="9.08908">
        <ele>833.8</ele>
        <time>2021-06-03T11:40:32Z</time>
      </trkpt>
      <trkpt lat="41.77353" lon="9.08903">
        <ele>833.8</ele>
        <time>2021-06-03T11:40:33Z</time>
      </trkpt>
      <trkpt lat="41.77354" lon="9.08897">
        <ele>832</ele>
        <time>2021-06-03T11:40:34Z</time>
      </trkpt>
      <trkpt lat="41.77355" lon="9.08893">
        <ele>832</ele>
        <time>2021-06-03T11:40:35Z</time>
      </trkpt>
      <trkpt lat="41.77355" lon="9.08888">
        <ele>832</ele>
        <time>2021-06-03T11:40:36Z</time>
      </trkpt>
      <trkpt lat="41.77354" lon="9.0888">
        <ele>832</ele>
        <time>2021-06-03T11:40:37Z</time>
      </trkpt>
      <trkpt lat="41.77354" lon="9.08873">
        <ele>832.8</ele>
        <time>2021-06-03T11:40:38Z</time>
      </trkpt>
      <trkpt lat="41.77355" lon="9.08854">
        <ele>832.8</ele>
        <time>2021-06-03T11:40:39Z</time>
      </trkpt>
      <trkpt lat="41.77356" lon="9.08843">
        <ele>832.8</ele>
        <time>2021-06-03T11:40:40Z</time>
      </trkpt>
      <trkpt lat="41.77358" lon="9.08832">
        <ele>832.8</ele>
        <time>2021-06-03T11:40:41Z</time>
      </trkpt>
      <trkpt lat="41.77362" lon="9.088">
        <ele>832.2</ele>
        <time>2021-06-03T11:40:42Z</time>
      </trkpt>
      <trkpt lat="41.77366" lon="9.08794">
        <ele>832.2</ele>
        <time>2021-06-03T11:40:43Z</time>
      </trkpt>
      <trkpt lat="41.7737" lon="9.08789">
        <ele>832.2</ele>
        <time>2021-06-03T11:40:44Z</time>
      </trkpt>
      <trkpt lat="41.77375" lon="9.08785">
        <ele>832.2</ele>
        <time>2021-06-03T11:40:45Z</time>
      </trkpt>
      <trkpt lat="41.77382" lon="9.08781">
        <ele>830.8</ele>
        <time>2021-06-03T11:40:46Z</time>
      </trkpt>
      <trkpt lat="41.77387" lon="9.08777">
        <ele>830.8</ele>
        <time>2021-06-03T11:40:47Z</time>
      </trkpt>
      <trkpt lat="41.77392" lon="9.08772">
        <ele>830.8</ele>
        <time>2021-06-03T11:40:48Z</time>
      </trkpt>
      <trkpt lat="41.77396" lon="9.08765">
        <ele>831.8</ele>
        <time>2021-06-03T11:40:49Z</time>
      </trkpt>
      <trkpt lat="41.77399" lon="9.08758">
        <ele>832.8</ele>
        <time>2021-06-03T11:40:50Z</time>
      </trkpt>
      <trkpt lat="41.77403" lon="9.08751">
        <ele>832.8</ele>
        <time>2021-06-03T11:40:51Z</time>
      </trkpt>
      <trkpt lat="41.77406" lon="9.08743">
        <ele>832.8</ele>
        <time>2021-06-03T11:40:52Z</time>
      </trkpt>
      <trkpt lat="41.77409" lon="9.08735">
        <ele>832.8</ele>
        <time>2021-06-03T11:40:53Z</time>
      </trkpt>
      <trkpt lat="41.77412" lon="9.08727">
        <ele>832.2</ele>
        <time>2021-06-03T11:40:54Z</time>
      </trkpt>
      <trkpt lat="41.77414" lon="9.08719">
        <ele>832.2</ele>
        <time>2021-06-03T11:40:55Z</time>
      </trkpt>
      <trkpt lat="41.77415" lon="9.08711">
        <ele>832.2</ele>
        <time>2021-06-03T11:40:56Z</time>
      </trkpt>
      <trkpt lat="41.77416" lon="9.08702">
        <ele>832.4</ele>
        <time>2021-06-03T11:40:57Z</time>
      </trkpt>
      <trkpt lat="41.77415" lon="9.08695">
        <ele>831.8</ele>
        <time>2021-06-03T11:40:58Z</time>
      </trkpt>
      <trkpt lat="41.77416" lon="9.08687">
        <ele>831.8</ele>
        <time>2021-06-03T11:40:59Z</time>
      </trkpt>
      <trkpt lat="41.77416" lon="9.0868">
        <ele>831.8</ele>
        <time>2021-06-03T11:41:00Z</time>
      </trkpt>
      <trkpt lat="41.77417" lon="9.08673">
        <ele>831</ele>
        <time>2021-06-03T11:41:01Z</time>
      </trkpt>
      <trkpt lat="41.77419" lon="9.08664">
        <ele>830.4</ele>
        <time>2021-06-03T11:41:02Z</time>
      </trkpt>
      <trkpt lat="41.77421" lon="9.08657">
        <ele>830.4</ele>
        <time>2021-06-03T11:41:03Z</time>
      </trkpt>
      <trkpt lat="41.77425" lon="9.0865">
        <ele>830.4</ele>
        <time>2021-06-03T11:41:04Z</time>
      </trkpt>
      <trkpt lat="41.77429" lon="9.08645">
        <ele>830</ele>
        <time>2021-06-03T11:41:05Z</time>
      </trkpt>
      <trkpt lat="41.77433" lon="9.08639">
        <ele>830</ele>
        <time>2021-06-03T11:41:06Z</time>
      </trkpt>
      <trkpt lat="41.77435" lon="9.08631">
        <ele>830</ele>
        <time>2021-06-03T11:41:07Z</time>
      </trkpt>
      <trkpt lat="41.77436" lon="9.08623">
        <ele>830</ele>
        <time>2021-06-03T11:41:08Z</time>
      </trkpt>
      <trkpt lat="41.77435" lon="9.08615">
        <ele>829.6</ele>
        <time>2021-06-03T11:41:09Z</time>
      </trkpt>
      <trkpt lat="41.77434" lon="9.08606">
        <ele>829.6</ele>
        <time>2021-06-03T11:41:10Z</time>
      </trkpt>
      <trkpt lat="41.77432" lon="9.08598">
        <ele>829.6</ele>
        <time>2021-06-03T11:41:11Z</time>
      </trkpt>
      <trkpt lat="41.7743" lon="9.0859">
        <ele>829.6</ele>
        <time>2021-06-03T11:41:12Z</time>
      </trkpt>
      <trkpt lat="41.77429" lon="9.08582">
        <ele>829.6</ele>
        <time>2021-06-03T11:41:13Z</time>
      </trkpt>
      <trkpt lat="41.77427" lon="9.08574">
        <ele>829</ele>
        <time>2021-06-03T11:41:14Z</time>
      </trkpt>
      <trkpt lat="41.77426" lon="9.08566">
        <ele>829</ele>
        <time>2021-06-03T11:41:15Z</time>
      </trkpt>
      <trkpt lat="41.77424" lon="9.08559">
        <ele>829</ele>
        <time>2021-06-03T11:41:16Z</time>
      </trkpt>
      <trkpt lat="41.77422" lon="9.08552">
        <ele>829</ele>
        <time>2021-06-03T11:41:17Z</time>
      </trkpt>
      <trkpt lat="41.77421" lon="9.08545">
        <ele>829.6</ele>
        <time>2021-06-03T11:41:18Z</time>
      </trkpt>
      <trkpt lat="41.77419" lon="9.08537">
        <ele>829.6</ele>
        <time>2021-06-03T11:41:19Z</time>
      </trkpt>
      <trkpt lat="41.7742" lon="9.08529">
        <ele>829.6</ele>
        <time>2021-06-03T11:41:20Z</time>
      </trkpt>
      <trkpt lat="41.77421" lon="9.08521">
        <ele>829.6</ele>
        <time>2021-06-03T11:41:21Z</time>
      </trkpt>
      <trkpt lat="41.77424" lon="9.08515">
        <ele>829</ele>
        <time>2021-06-03T11:41:22Z</time>
      </trkpt>
      <trkpt lat="41.77428" lon="9.08509">
        <ele>829</ele>
        <time>2021-06-03T11:41:23Z</time>
      </trkpt>
      <trkpt lat="41.77433" lon="9.08505">
        <ele>829</ele>
        <time>2021-06-03T11:41:24Z</time>
      </trkpt>
      <trkpt lat="41.77438" lon="9.08502">
        <ele>829</ele>
        <time>2021-06-03T11:41:25Z</time>
      </trkpt>
      <trkpt lat="41.77443" lon="9.085">
        <ele>830</ele>
        <time>2021-06-03T11:41:26Z</time>
      </trkpt>
      <trkpt lat="41.77448" lon="9.08498">
        <ele>830</ele>
        <time>2021-06-03T11:41:27Z</time>
      </trkpt>
      <trkpt lat="41.77453" lon="9.08494">
        <ele>830</ele>
        <time>2021-06-03T11:41:28Z</time>
      </trkpt>
      <trkpt lat="41.77457" lon="9.08489">
        <ele>830</ele>
        <time>2021-06-03T11:41:29Z</time>
      </trkpt>
      <trkpt lat="41.7746" lon="9.08483">
        <ele>829.4</ele>
        <time>2021-06-03T11:41:30Z</time>
      </trkpt>
      <trkpt lat="41.77461" lon="9.08477">
        <ele>829.4</ele>
        <time>2021-06-03T11:41:31Z</time>
      </trkpt>
      <trkpt lat="41.77461" lon="9.0847">
        <ele>829.4</ele>
        <time>2021-06-03T11:41:32Z</time>
      </trkpt>
      <trkpt lat="41.7746" lon="9.08463">
        <ele>829</ele>
        <time>2021-06-03T11:41:33Z</time>
      </trkpt>
      <trkpt lat="41.77459" lon="9.08456">
        <ele>829.4</ele>
        <time>2021-06-03T11:41:34Z</time>
      </trkpt>
      <trkpt lat="41.77457" lon="9.0845">
        <ele>829.4</ele>
        <time>2021-06-03T11:41:35Z</time>
      </trkpt>
      <trkpt lat="41.77455" lon="9.08444">
        <ele>829.4</ele>
        <time>2021-06-03T11:41:36Z</time>
      </trkpt>
      <trkpt lat="41.77452" lon="9.08437">
        <ele>828.4</ele>
        <time>2021-06-03T11:41:37Z</time>
      </trkpt>
      <trkpt lat="41.7745" lon="9.0843">
        <ele>828</ele>
        <time>2021-06-03T11:41:38Z</time>
      </trkpt>
      <trkpt lat="41.77448" lon="9.08424">
        <ele>828</ele>
        <time>2021-06-03T11:41:39Z</time>
      </trkpt>
      <trkpt lat="41.77447" lon="9.08416">
        <ele>828</ele>
        <time>2021-06-03T11:41:40Z</time>
      </trkpt>
      <trkpt lat="41.77445" lon="9.08409">
        <ele>827</ele>
        <time>2021-06-03T11:41:41Z</time>
      </trkpt>
      <trkpt lat="41.77444" lon="9.08403">
        <ele>826.4</ele>
        <time>2021-06-03T11:41:42Z</time>
      </trkpt>
      <trkpt lat="41.77444" lon="9.08395">
        <ele>826.4</ele>
        <time>2021-06-03T11:41:43Z</time>
      </trkpt>
      <trkpt lat="41.77443" lon="9.08388">
        <ele>826.4</ele>
        <time>2021-06-03T11:41:44Z</time>
      </trkpt>
      <trkpt lat="41.77443" lon="9.08381">
        <ele>827.4</ele>
        <time>2021-06-03T11:41:45Z</time>
      </trkpt>
      <trkpt lat="41.77442" lon="9.08374">
        <ele>827.2</ele>
        <time>2021-06-03T11:41:46Z</time>
      </trkpt>
      <trkpt lat="41.77441" lon="9.08366">
        <ele>827.2</ele>
        <time>2021-06-03T11:41:47Z</time>
      </trkpt>
      <trkpt lat="41.7744" lon="9.08359">
        <ele>827.2</ele>
        <time>2021-06-03T11:41:48Z</time>
      </trkpt>
      <trkpt lat="41.77438" lon="9.08353">
        <ele>826.2</ele>
        <time>2021-06-03T11:41:49Z</time>
      </trkpt>
      <trkpt lat="41.77434" lon="9.08347">
        <ele>825.4</ele>
        <time>2021-06-03T11:41:50Z</time>
      </trkpt>
      <trkpt lat="41.77431" lon="9.08341">
        <ele>825.4</ele>
        <time>2021-06-03T11:41:51Z</time>
      </trkpt>
      <trkpt lat="41.77428" lon="9.08335">
        <ele>825.4</ele>
        <time>2021-06-03T11:41:52Z</time>
      </trkpt>
      <trkpt lat="41.77425" lon="9.08329">
        <ele>825.8</ele>
        <time>2021-06-03T11:41:53Z</time>
      </trkpt>
      <trkpt lat="41.77424" lon="9.08321">
        <ele>825.2</ele>
        <time>2021-06-03T11:41:54Z</time>
      </trkpt>
      <trkpt lat="41.77423" lon="9.08314">
        <ele>825.2</ele>
        <time>2021-06-03T11:41:55Z</time>
      </trkpt>
      <trkpt lat="41.77423" lon="9.08307">
        <ele>825.2</ele>
        <time>2021-06-03T11:41:56Z</time>
      </trkpt>
      <trkpt lat="41.77424" lon="9.08299">
        <ele>826</ele>
        <time>2021-06-03T11:41:57Z</time>
      </trkpt>
      <trkpt lat="41.77424" lon="9.08292">
        <ele>826</ele>
        <time>2021-06-03T11:41:58Z</time>
      </trkpt>
      <trkpt lat="41.77425" lon="9.08284">
        <ele>826</ele>
        <time>2021-06-03T11:41:59Z</time>
      </trkpt>
      <trkpt lat="41.77426" lon="9.08277">
        <ele>826</ele>
        <time>2021-06-03T11:42:00Z</time>
      </trkpt>
      <trkpt lat="41.77425" lon="9.08269">
        <ele>826</ele>
        <time>2021-06-03T11:42:01Z</time>
      </trkpt>
      <trkpt lat="41.77424" lon="9.08262">
        <ele>825.4</ele>
        <time>2021-06-03T11:42:02Z</time>
      </trkpt>
      <trkpt lat="41.77423" lon="9.08255">
        <ele>825.4</ele>
        <time>2021-06-03T11:42:03Z</time>
      </trkpt>
      <trkpt lat="41.77421" lon="9.08247">
        <ele>825.4</ele>
        <time>2021-06-03T11:42:04Z</time>
      </trkpt>
      <trkpt lat="41.77418" lon="9.0824">
        <ele>825.4</ele>
        <time>2021-06-03T11:42:05Z</time>
      </trkpt>
      <trkpt lat="41.77416" lon="9.08233">
        <ele>824.6</ele>
        <time>2021-06-03T11:42:06Z</time>
      </trkpt>
      <trkpt lat="41.77413" lon="9.08226">
        <ele>824.6</ele>
        <time>2021-06-03T11:42:07Z</time>
      </trkpt>
      <trkpt lat="41.7741" lon="9.0822">
        <ele>824.6</ele>
        <time>2021-06-03T11:42:08Z</time>
      </trkpt>
      <trkpt lat="41.77407" lon="9.08214">
        <ele>825.4</ele>
        <time>2021-06-03T11:42:09Z</time>
      </trkpt>
      <trkpt lat="41.77404" lon="9.08208">
        <ele>824.2</ele>
        <time>2021-06-03T11:42:10Z</time>
      </trkpt>
      <trkpt lat="41.77401" lon="9.08202">
        <ele>824.2</ele>
        <time>2021-06-03T11:42:11Z</time>
      </trkpt>
      <trkpt lat="41.77398" lon="9.08195">
        <ele>824.2</ele>
        <time>2021-06-03T11:42:12Z</time>
      </trkpt>
      <trkpt lat="41.77394" lon="9.08188">
        <ele>824.8</ele>
        <time>2021-06-03T11:42:13Z</time>
      </trkpt>
      <trkpt lat="41.77391" lon="9.08182">
        <ele>824</ele>
        <time>2021-06-03T11:42:14Z</time>
      </trkpt>
      <trkpt lat="41.77387" lon="9.08176">
        <ele>824</ele>
        <time>2021-06-03T11:42:15Z</time>
      </trkpt>
      <trkpt lat="41.77384" lon="9.0817">
        <ele>824</ele>
        <time>2021-06-03T11:42:16Z</time>
      </trkpt>
      <trkpt lat="41.77381" lon="9.08163">
        <ele>824</ele>
        <time>2021-06-03T11:42:17Z</time>
      </trkpt>
      <trkpt lat="41.77378" lon="9.08157">
        <ele>823.6</ele>
        <time>2021-06-03T11:42:18Z</time>
      </trkpt>
      <trkpt lat="41.77374" lon="9.08151">
        <ele>823.6</ele>
        <time>2021-06-03T11:42:19Z</time>
      </trkpt>
      <trkpt lat="41.77371" lon="9.08144">
        <ele>823.6</ele>
        <time>2021-06-03T11:42:20Z</time>
      </trkpt>
      <trkpt lat="41.77368" lon="9.08138">
        <ele>823.4</ele>
        <time>2021-06-03T11:42:21Z</time>
      </trkpt>
      <trkpt lat="41.77364" lon="9.08131">
        <ele>823</ele>
        <time>2021-06-03T11:42:22Z</time>
      </trkpt>
      <trkpt lat="41.77361" lon="9.08125">
        <ele>823</ele>
        <time>2021-06-03T11:42:23Z</time>
      </trkpt>
      <trkpt lat="41.77357" lon="9.08118">
        <ele>823</ele>
        <time>2021-06-03T11:42:24Z</time>
      </trkpt>
      <trkpt lat="41.77353" lon="9.08112">
        <ele>824</ele>
        <time>2021-06-03T11:42:25Z</time>
      </trkpt>
      <trkpt lat="41.77349" lon="9.08107">
        <ele>823.6</ele>
        <time>2021-06-03T11:42:26Z</time>
      </trkpt>
      <trkpt lat="41.77344" lon="9.08102">
        <ele>823.6</ele>
        <time>2021-06-03T11:42:27Z</time>
      </trkpt>
      <trkpt lat="41.77338" lon="9.08099">
        <ele>823.6</ele>
        <time>2021-06-03T11:42:28Z</time>
      </trkpt>
      <trkpt lat="41.77333" lon="9.08096">
        <ele>823.4</ele>
        <time>2021-06-03T11:42:29Z</time>
      </trkpt>
      <trkpt lat="41.77327" lon="9.08094">
        <ele>823.2</ele>
        <time>2021-06-03T11:42:30Z</time>
      </trkpt>
      <trkpt lat="41.77322" lon="9.08092">
        <ele>823.2</ele>
        <time>2021-06-03T11:42:31Z</time>
      </trkpt>
      <trkpt lat="41.77317" lon="9.08091">
        <ele>823.2</ele>
        <time>2021-06-03T11:42:32Z</time>
      </trkpt>
      <trkpt lat="41.77311" lon="9.08089">
        <ele>823.2</ele>
        <time>2021-06-03T11:42:33Z</time>
      </trkpt>
      <trkpt lat="41.77306" lon="9.08088">
        <ele>823.4</ele>
        <time>2021-06-03T11:42:34Z</time>
      </trkpt>
      <trkpt lat="41.77301" lon="9.08087">
        <ele>823.4</ele>
        <time>2021-06-03T11:42:35Z</time>
      </trkpt>
      <trkpt lat="41.77296" lon="9.08086">
        <ele>823.4</ele>
        <time>2021-06-03T11:42:36Z</time>
      </trkpt>
      <trkpt lat="41.7729" lon="9.08085">
        <ele>823.4</ele>
        <time>2021-06-03T11:42:37Z</time>
      </trkpt>
      <trkpt lat="41.77286" lon="9.08084">
        <ele>822.6</ele>
        <time>2021-06-03T11:42:38Z</time>
      </trkpt>
      <trkpt lat="41.77281" lon="9.08083">
        <ele>822.6</ele>
        <time>2021-06-03T11:42:39Z</time>
      </trkpt>
      <trkpt lat="41.77276" lon="9.08082">
        <ele>822.6</ele>
        <time>2021-06-03T11:42:40Z</time>
      </trkpt>
      <trkpt lat="41.77272" lon="9.0808">
        <ele>822.6</ele>
        <time>2021-06-03T11:42:41Z</time>
      </trkpt>
      <trkpt lat="41.77268" lon="9.08078">
        <ele>823</ele>
        <time>2021-06-03T11:42:42Z</time>
      </trkpt>
      <trkpt lat="41.77265" lon="9.08076">
        <ele>823</ele>
        <time>2021-06-03T11:42:43Z</time>
      </trkpt>
      <trkpt lat="41.77264" lon="9.08073">
        <ele>823</ele>
        <time>2021-06-03T11:42:44Z</time>
      </trkpt>
      <trkpt lat="41.77262" lon="9.08072">
        <ele>823.4</ele>
        <time>2021-06-03T11:42:45Z</time>
      </trkpt>
      <trkpt lat="41.77261" lon="9.0807">
        <ele>823.6</ele>
        <time>2021-06-03T11:42:46Z</time>
      </trkpt>
      <trkpt lat="41.77259" lon="9.08069">
        <ele>823.6</ele>
        <time>2021-06-03T11:42:47Z</time>
      </trkpt>
      <trkpt lat="41.77258" lon="9.08069">
        <ele>823.6</ele>
        <time>2021-06-03T11:42:48Z</time>
      </trkpt>
      <trkpt lat="41.77257" lon="9.08069">
        <ele>823.6</ele>
        <time>2021-06-03T11:42:49Z</time>
      </trkpt>
      <trkpt lat="41.77257" lon="9.08069">
        <ele>824.6</ele>
        <time>2021-06-03T11:42:50Z</time>
      </trkpt>
      <trkpt lat="41.77252" lon="9.08045">
        <ele>824.6</ele>
        <time>2021-06-03T12:19:35Z</time>
      </trkpt>
      <trkpt lat="41.77251" lon="9.08042">
        <ele>824.6</ele>
        <time>2021-06-03T12:19:36Z</time>
      </trkpt>
      <trkpt lat="41.7725" lon="9.08038">
        <ele>824.2</ele>
        <time>2021-06-03T12:19:37Z</time>
      </trkpt>
      <trkpt lat="41.77249" lon="9.08035">
        <ele>824.2</ele>
        <time>2021-06-03T12:19:38Z</time>
      </trkpt>
      <trkpt lat="41.77248" lon="9.08031">
        <ele>824.2</ele>
        <time>2021-06-03T12:19:39Z</time>
      </trkpt>
      <trkpt lat="41.77247" lon="9.08027">
        <ele>824.2</ele>
        <time>2021-06-03T12:19:40Z</time>
      </trkpt>
      <trkpt lat="41.77245" lon="9.08023">
        <ele>823.8</ele>
        <time>2021-06-03T12:19:41Z</time>
      </trkpt>
      <trkpt lat="41.77244" lon="9.08019">
        <ele>823.8</ele>
        <time>2021-06-03T12:19:42Z</time>
      </trkpt>
      <trkpt lat="41.77241" lon="9.08016">
        <ele>823.8</ele>
        <time>2021-06-03T12:19:43Z</time>
      </trkpt>
      <trkpt lat="41.77239" lon="9.08012">
        <ele>823.8</ele>
        <time>2021-06-03T12:19:44Z</time>
      </trkpt>
      <trkpt lat="41.77236" lon="9.08009">
        <ele>823.8</ele>
        <time>2021-06-03T12:19:45Z</time>
      </trkpt>
      <trkpt lat="41.77232" lon="9.08007">
        <ele>823.4</ele>
        <time>2021-06-03T12:19:46Z</time>
      </trkpt>
      <trkpt lat="41.77229" lon="9.08005">
        <ele>823.4</ele>
        <time>2021-06-03T12:19:47Z</time>
      </trkpt>
      <trkpt lat="41.77227" lon="9.08004">
        <ele>823.4</ele>
        <time>2021-06-03T12:19:48Z</time>
      </trkpt>
      <trkpt lat="41.77225" lon="9.08003">
        <ele>823.4</ele>
        <time>2021-06-03T12:19:49Z</time>
      </trkpt>
      <trkpt lat="41.77222" lon="9.08002">
        <ele>823.8</ele>
        <time>2021-06-03T12:19:50Z</time>
      </trkpt>
      <trkpt lat="41.77219" lon="9.08003">
        <ele>823.8</ele>
        <time>2021-06-03T12:19:51Z</time>
      </trkpt>
      <trkpt lat="41.77216" lon="9.08004">
        <ele>823.8</ele>
        <time>2021-06-03T12:19:52Z</time>
      </trkpt>
      <trkpt lat="41.77214" lon="9.08007">
        <ele>823</ele>
        <time>2021-06-03T12:19:53Z</time>
      </trkpt>
      <trkpt lat="41.77212" lon="9.08009">
        <ele>823</ele>
        <time>2021-06-03T12:19:54Z</time>
      </trkpt>
      <trkpt lat="41.77211" lon="9.08011">
        <ele>823</ele>
        <time>2021-06-03T12:19:55Z</time>
      </trkpt>
      <trkpt lat="41.77209" lon="9.08014">
        <ele>823</ele>
        <time>2021-06-03T12:19:56Z</time>
      </trkpt>
      <trkpt lat="41.77208" lon="9.08015">
        <ele>823.8</ele>
        <time>2021-06-03T12:19:57Z</time>
      </trkpt>
      <trkpt lat="41.77206" lon="9.08017">
        <ele>824</ele>
        <time>2021-06-03T12:19:58Z</time>
      </trkpt>
      <trkpt lat="41.77204" lon="9.08018">
        <ele>824</ele>
        <time>2021-06-03T12:19:59Z</time>
      </trkpt>
      <trkpt lat="41.77203" lon="9.08019">
        <ele>824</ele>
        <time>2021-06-03T12:20:00Z</time>
      </trkpt>
      <trkpt lat="41.77201" lon="9.0802">
        <ele>824.2</ele>
        <time>2021-06-03T12:20:01Z</time>
      </trkpt>
      <trkpt lat="41.77199" lon="9.08021">
        <ele>824.4</ele>
        <time>2021-06-03T12:20:02Z</time>
      </trkpt>
      <trkpt lat="41.77198" lon="9.08022">
        <ele>824.4</ele>
        <time>2021-06-03T12:20:03Z</time>
      </trkpt>
      <trkpt lat="41.77196" lon="9.08022">
        <ele>824.4</ele>
        <time>2021-06-03T12:20:04Z</time>
      </trkpt>
      <trkpt lat="41.77194" lon="9.08023">
        <ele>825</ele>
        <time>2021-06-03T12:20:05Z</time>
      </trkpt>
      <trkpt lat="41.77192" lon="9.08023">
        <ele>824.8</ele>
        <time>2021-06-03T12:20:06Z</time>
      </trkpt>
      <trkpt lat="41.7719" lon="9.08025">
        <ele>824.8</ele>
        <time>2021-06-03T12:20:07Z</time>
      </trkpt>
      <trkpt lat="41.77188" lon="9.08026">
        <ele>824.8</ele>
        <time>2021-06-03T12:20:08Z</time>
      </trkpt>
      <trkpt lat="41.77186" lon="9.08026">
        <ele>824.8</ele>
        <time>2021-06-03T12:20:09Z</time>
      </trkpt>
      <trkpt lat="41.77184" lon="9.08027">
        <ele>825.4</ele>
        <time>2021-06-03T12:20:10Z</time>
      </trkpt>
      <trkpt lat="41.77183" lon="9.08027">
        <ele>825.4</ele>
        <time>2021-06-03T12:20:11Z</time>
      </trkpt>
      <trkpt lat="41.77181" lon="9.08027">
        <ele>825.4</ele>
        <time>2021-06-03T12:20:12Z</time>
      </trkpt>
      <trkpt lat="41.77179" lon="9.08028">
        <ele>825.4</ele>
        <time>2021-06-03T12:20:13Z</time>
      </trkpt>
      <trkpt lat="41.77177" lon="9.08028">
        <ele>825.6</ele>
        <time>2021-06-03T12:20:14Z</time>
      </trkpt>
      <trkpt lat="41.77175" lon="9.08028">
        <ele>825.6</ele>
        <time>2021-06-03T12:20:15Z</time>
      </trkpt>
      <trkpt lat="41.77174" lon="9.08028">
        <ele>825.6</ele>
        <time>2021-06-03T12:20:16Z</time>
      </trkpt>
      <trkpt lat="41.77172" lon="9.08029">
        <ele>825.6</ele>
        <time>2021-06-03T12:20:17Z</time>
      </trkpt>
      <trkpt lat="41.77171" lon="9.08029">
        <ele>826.2</ele>
        <time>2021-06-03T12:20:18Z</time>
      </trkpt>
      <trkpt lat="41.77169" lon="9.08029">
        <ele>826.2</ele>
        <time>2021-06-03T12:20:19Z</time>
      </trkpt>
      <trkpt lat="41.77167" lon="9.08029">
        <ele>826.2</ele>
        <time>2021-06-03T12:20:20Z</time>
      </trkpt>
      <trkpt lat="41.77166" lon="9.08029">
        <ele>826.2</ele>
        <time>2021-06-03T12:20:21Z</time>
      </trkpt>
      <trkpt lat="41.77164" lon="9.08029">
        <ele>826.2</ele>
        <time>2021-06-03T12:20:22Z</time>
      </trkpt>
      <trkpt lat="41.77162" lon="9.08029">
        <ele>827</ele>
        <time>2021-06-03T12:20:23Z</time>
      </trkpt>
      <trkpt lat="41.77161" lon="9.08029">
        <ele>827</ele>
        <time>2021-06-03T12:20:24Z</time>
      </trkpt>
      <trkpt lat="41.77159" lon="9.08029">
        <ele>827</ele>
        <time>2021-06-03T12:20:25Z</time>
      </trkpt>
      <trkpt lat="41.77157" lon="9.08029">
        <ele>827.2</ele>
        <time>2021-06-03T12:20:26Z</time>
      </trkpt>
      <trkpt lat="41.77156" lon="9.08029">
        <ele>827.2</ele>
        <time>2021-06-03T12:20:27Z</time>
      </trkpt>
      <trkpt lat="41.77154" lon="9.08029">
        <ele>827.2</ele>
        <time>2021-06-03T12:20:28Z</time>
      </trkpt>
      <trkpt lat="41.77153" lon="9.08029">
        <ele>827.4</ele>
        <time>2021-06-03T12:20:29Z</time>
      </trkpt>
      <trkpt lat="41.77151" lon="9.08029">
        <ele>827.6</ele>
        <time>2021-06-03T12:20:30Z</time>
      </trkpt>
      <trkpt lat="41.7715" lon="9.08029">
        <ele>827.6</ele>
        <time>2021-06-03T12:20:31Z</time>
      </trkpt>
      <trkpt lat="41.77148" lon="9.0803">
        <ele>827.6</ele>
        <time>2021-06-03T12:20:32Z</time>
      </trkpt>
      <trkpt lat="41.77146" lon="9.0803">
        <ele>828</ele>
        <time>2021-06-03T12:20:33Z</time>
      </trkpt>
      <trkpt lat="41.77144" lon="9.0803">
        <ele>827.6</ele>
        <time>2021-06-03T12:20:34Z</time>
      </trkpt>
      <trkpt lat="41.77143" lon="9.0803">
        <ele>827.6</ele>
        <time>2021-06-03T12:20:35Z</time>
      </trkpt>
      <trkpt lat="41.77141" lon="9.08031">
        <ele>827.6</ele>
        <time>2021-06-03T12:20:36Z</time>
      </trkpt>
      <trkpt lat="41.77139" lon="9.08031">
        <ele>827.8</ele>
        <time>2021-06-03T12:20:37Z</time>
      </trkpt>
      <trkpt lat="41.77138" lon="9.08031">
        <ele>828.2</ele>
        <time>2021-06-03T12:20:38Z</time>
      </trkpt>
      <trkpt lat="41.77136" lon="9.08031">
        <ele>828.2</ele>
        <time>2021-06-03T12:20:39Z</time>
      </trkpt>
      <trkpt lat="41.77134" lon="9.08031">
        <ele>828.2</ele>
        <time>2021-06-03T12:20:40Z</time>
      </trkpt>
      <trkpt lat="41.77132" lon="9.08031">
        <ele>828.4</ele>
        <time>2021-06-03T12:20:41Z</time>
      </trkpt>
      <trkpt lat="41.77131" lon="9.0803">
        <ele>828.4</ele>
        <time>2021-06-03T12:20:42Z</time>
      </trkpt>
      <trkpt lat="41.77129" lon="9.0803">
        <ele>828.4</ele>
        <time>2021-06-03T12:20:43Z</time>
      </trkpt>
      <trkpt lat="41.77128" lon="9.08029">
        <ele>828.4</ele>
        <time>2021-06-03T12:20:44Z</time>
      </trkpt>
      <trkpt lat="41.77126" lon="9.08029">
        <ele>829.4</ele>
        <time>2021-06-03T12:20:45Z</time>
      </trkpt>
      <trkpt lat="41.77124" lon="9.08029">
        <ele>829.8</ele>
        <time>2021-06-03T12:20:46Z</time>
      </trkpt>
      <trkpt lat="41.77123" lon="9.08029">
        <ele>829.8</ele>
        <time>2021-06-03T12:20:47Z</time>
      </trkpt>
      <trkpt lat="41.77121" lon="9.08029">
        <ele>829.8</ele>
        <time>2021-06-03T12:20:48Z</time>
      </trkpt>
      <trkpt lat="41.77119" lon="9.0803">
        <ele>829.6</ele>
        <time>2021-06-03T12:20:49Z</time>
      </trkpt>
      <trkpt lat="41.77118" lon="9.0803">
        <ele>830</ele>
        <time>2021-06-03T12:20:50Z</time>
      </trkpt>
      <trkpt lat="41.77116" lon="9.0803">
        <ele>830</ele>
        <time>2021-06-03T12:20:51Z</time>
      </trkpt>
      <trkpt lat="41.77114" lon="9.0803">
        <ele>830</ele>
        <time>2021-06-03T12:20:52Z</time>
      </trkpt>
      <trkpt lat="41.77112" lon="9.0803">
        <ele>830</ele>
        <time>2021-06-03T12:20:53Z</time>
      </trkpt>
      <trkpt lat="41.77111" lon="9.0803">
        <ele>830.4</ele>
        <time>2021-06-03T12:20:54Z</time>
      </trkpt>
      <trkpt lat="41.77109" lon="9.08029">
        <ele>830.4</ele>
        <time>2021-06-03T12:20:55Z</time>
      </trkpt>
      <trkpt lat="41.77108" lon="9.08029">
        <ele>830.4</ele>
        <time>2021-06-03T12:20:56Z</time>
      </trkpt>
      <trkpt lat="41.77106" lon="9.08029">
        <ele>830.4</ele>
        <time>2021-06-03T12:20:57Z</time>
      </trkpt>
      <trkpt lat="41.77104" lon="9.08029">
        <ele>831</ele>
        <time>2021-06-03T12:20:58Z</time>
      </trkpt>
      <trkpt lat="41.77102" lon="9.08029">
        <ele>831</ele>
        <time>2021-06-03T12:20:59Z</time>
      </trkpt>
      <trkpt lat="41.77101" lon="9.08029">
        <ele>831</ele>
        <time>2021-06-03T12:21:00Z</time>
      </trkpt>
      <trkpt lat="41.77099" lon="9.08029">
        <ele>830.8</ele>
        <time>2021-06-03T12:21:01Z</time>
      </trkpt>
      <trkpt lat="41.77097" lon="9.08028">
        <ele>831.2</ele>
        <time>2021-06-03T12:21:02Z</time>
      </trkpt>
      <trkpt lat="41.77095" lon="9.08028">
        <ele>831.2</ele>
        <time>2021-06-03T12:21:03Z</time>
      </trkpt>
      <trkpt lat="41.77094" lon="9.08028">
        <ele>831.2</ele>
        <time>2021-06-03T12:21:04Z</time>
      </trkpt>
      <trkpt lat="41.77092" lon="9.08028">
        <ele>831.4</ele>
        <time>2021-06-03T12:21:05Z</time>
      </trkpt>
      <trkpt lat="41.7709" lon="9.08028">
        <ele>831.6</ele>
        <time>2021-06-03T12:21:06Z</time>
      </trkpt>
      <trkpt lat="41.77089" lon="9.08029">
        <ele>831.6</ele>
        <time>2021-06-03T12:21:07Z</time>
      </trkpt>
      <trkpt lat="41.77087" lon="9.08029">
        <ele>831.6</ele>
        <time>2021-06-03T12:21:08Z</time>
      </trkpt>
      <trkpt lat="41.77085" lon="9.08029">
        <ele>831.6</ele>
        <time>2021-06-03T12:21:09Z</time>
      </trkpt>
      <trkpt lat="41.77084" lon="9.08029">
        <ele>831.8</ele>
        <time>2021-06-03T12:21:10Z</time>
      </trkpt>
      <trkpt lat="41.77082" lon="9.08029">
        <ele>831.8</ele>
        <time>2021-06-03T12:21:11Z</time>
      </trkpt>
      <trkpt lat="41.7708" lon="9.08028">
        <ele>831.8</ele>
        <time>2021-06-03T12:21:12Z</time>
      </trkpt>
      <trkpt lat="41.77079" lon="9.08029">
        <ele>831.8</ele>
        <time>2021-06-03T12:21:13Z</time>
      </trkpt>
      <trkpt lat="41.77077" lon="9.08029">
        <ele>832.6</ele>
        <time>2021-06-03T12:21:14Z</time>
      </trkpt>
      <trkpt lat="41.77075" lon="9.08029">
        <ele>832.6</ele>
        <time>2021-06-03T12:21:15Z</time>
      </trkpt>
      <trkpt lat="41.77073" lon="9.08029">
        <ele>832.6</ele>
        <time>2021-06-03T12:21:16Z</time>
      </trkpt>
      <trkpt lat="41.77072" lon="9.08028">
        <ele>832.6</ele>
        <time>2021-06-03T12:21:17Z</time>
      </trkpt>
      <trkpt lat="41.7707" lon="9.08028">
        <ele>832.6</ele>
        <time>2021-06-03T12:21:18Z</time>
      </trkpt>
      <trkpt lat="41.77068" lon="9.08028">
        <ele>832.6</ele>
        <time>2021-06-03T12:21:19Z</time>
      </trkpt>
      <trkpt lat="41.77066" lon="9.08028">
        <ele>832.6</ele>
        <time>2021-06-03T12:21:20Z</time>
      </trkpt>
      <trkpt lat="41.77064" lon="9.08028">
        <ele>833.6</ele>
        <time>2021-06-03T12:21:21Z</time>
      </trkpt>
      <trkpt lat="41.77062" lon="9.08027">
        <ele>833.6</ele>
        <time>2021-06-03T12:21:22Z</time>
      </trkpt>
      <trkpt lat="41.77061" lon="9.08027">
        <ele>833.6</ele>
        <time>2021-06-03T12:21:23Z</time>
      </trkpt>
      <trkpt lat="41.77059" lon="9.08027">
        <ele>833.6</ele>
        <time>2021-06-03T12:21:24Z</time>
      </trkpt>
      <trkpt lat="41.77057" lon="9.08026">
        <ele>833.6</ele>
        <time>2021-06-03T12:21:25Z</time>
      </trkpt>
      <trkpt lat="41.77055" lon="9.08026">
        <ele>833.6</ele>
        <time>2021-06-03T12:21:26Z</time>
      </trkpt>
      <trkpt lat="41.77053" lon="9.08026">
        <ele>833.6</ele>
        <time>2021-06-03T12:21:27Z</time>
      </trkpt>
      <trkpt lat="41.77052" lon="9.08025">
        <ele>833.6</ele>
        <time>2021-06-03T12:21:28Z</time>
      </trkpt>
      <trkpt lat="41.7705" lon="9.08025">
        <ele>834.2</ele>
        <time>2021-06-03T12:21:29Z</time>
      </trkpt>
      <trkpt lat="41.77048" lon="9.08025">
        <ele>834.4</ele>
        <time>2021-06-03T12:21:30Z</time>
      </trkpt>
      <trkpt lat="41.77046" lon="9.08025">
        <ele>834.4</ele>
        <time>2021-06-03T12:21:31Z</time>
      </trkpt>
      <trkpt lat="41.77044" lon="9.08024">
        <ele>834.4</ele>
        <time>2021-06-03T12:21:32Z</time>
      </trkpt>
      <trkpt lat="41.77042" lon="9.08024">
        <ele>834.6</ele>
        <time>2021-06-03T12:21:33Z</time>
      </trkpt>
      <trkpt lat="41.7704" lon="9.08024">
        <ele>834.6</ele>
        <time>2021-06-03T12:21:34Z</time>
      </trkpt>
      <trkpt lat="41.77038" lon="9.08024">
        <ele>834.6</ele>
        <time>2021-06-03T12:21:35Z</time>
      </trkpt>
      <trkpt lat="41.77036" lon="9.08024">
        <ele>834.6</ele>
        <time>2021-06-03T12:21:36Z</time>
      </trkpt>
      <trkpt lat="41.77034" lon="9.08024">
        <ele>834.6</ele>
        <time>2021-06-03T12:21:37Z</time>
      </trkpt>
      <trkpt lat="41.77032" lon="9.08024">
        <ele>834.6</ele>
        <time>2021-06-03T12:21:38Z</time>
      </trkpt>
      <trkpt lat="41.7703" lon="9.08023">
        <ele>834.6</ele>
        <time>2021-06-03T12:21:39Z</time>
      </trkpt>
      <trkpt lat="41.77028" lon="9.08023">
        <ele>834.6</ele>
        <time>2021-06-03T12:21:40Z</time>
      </trkpt>
      <trkpt lat="41.77026" lon="9.08023">
        <ele>834.4</ele>
        <time>2021-06-03T12:21:41Z</time>
      </trkpt>
      <trkpt lat="41.77024" lon="9.08023">
        <ele>834.6</ele>
        <time>2021-06-03T12:21:42Z</time>
      </trkpt>
      <trkpt lat="41.77022" lon="9.08023">
        <ele>834.6</ele>
        <time>2021-06-03T12:21:43Z</time>
      </trkpt>
      <trkpt lat="41.77021" lon="9.08022">
        <ele>834.6</ele>
        <time>2021-06-03T12:21:44Z</time>
      </trkpt>
      <trkpt lat="41.77019" lon="9.08022">
        <ele>834.6</ele>
        <time>2021-06-03T12:21:45Z</time>
      </trkpt>
      <trkpt lat="41.77017" lon="9.08021">
        <ele>835</ele>
        <time>2021-06-03T12:21:46Z</time>
      </trkpt>
      <trkpt lat="41.77015" lon="9.08021">
        <ele>835</ele>
        <time>2021-06-03T12:21:47Z</time>
      </trkpt>
      <trkpt lat="41.77013" lon="9.08021">
        <ele>835</ele>
        <time>2021-06-03T12:21:48Z</time>
      </trkpt>
      <trkpt lat="41.77011" lon="9.0802">
        <ele>835.6</ele>
        <time>2021-06-03T12:21:49Z</time>
      </trkpt>
      <trkpt lat="41.77009" lon="9.0802">
        <ele>835.6</ele>
        <time>2021-06-03T12:21:50Z</time>
      </trkpt>
      <trkpt lat="41.77007" lon="9.08019">
        <ele>835.6</ele>
        <time>2021-06-03T12:21:51Z</time>
      </trkpt>
      <trkpt lat="41.77005" lon="9.08019">
        <ele>835.6</ele>
        <time>2021-06-03T12:21:52Z</time>
      </trkpt>
      <trkpt lat="41.77003" lon="9.08019">
        <ele>835.6</ele>
        <time>2021-06-03T12:21:53Z</time>
      </trkpt>
      <trkpt lat="41.77001" lon="9.08018">
        <ele>835.8</ele>
        <time>2021-06-03T12:21:54Z</time>
      </trkpt>
      <trkpt lat="41.76999" lon="9.08017">
        <ele>835.8</ele>
        <time>2021-06-03T12:21:55Z</time>
      </trkpt>
      <trkpt lat="41.76997" lon="9.08017">
        <ele>835.8</ele>
        <time>2021-06-03T12:21:56Z</time>
      </trkpt>
      <trkpt lat="41.76995" lon="9.08016">
        <ele>835.8</ele>
        <time>2021-06-03T12:21:57Z</time>
      </trkpt>
      <trkpt lat="41.76993" lon="9.08015">
        <ele>836</ele>
        <time>2021-06-03T12:21:58Z</time>
      </trkpt>
      <trkpt lat="41.76991" lon="9.08015">
        <ele>836</ele>
        <time>2021-06-03T12:21:59Z</time>
      </trkpt>
      <trkpt lat="41.76989" lon="9.08014">
        <ele>836</ele>
        <time>2021-06-03T12:22:00Z</time>
      </trkpt>
      <trkpt lat="41.76987" lon="9.08013">
        <ele>836</ele>
        <time>2021-06-03T12:22:01Z</time>
      </trkpt>
      <trkpt lat="41.76985" lon="9.08013">
        <ele>836.2</ele>
        <time>2021-06-03T12:22:02Z</time>
      </trkpt>
      <trkpt lat="41.76983" lon="9.08012">
        <ele>836.2</ele>
        <time>2021-06-03T12:22:03Z</time>
      </trkpt>
      <trkpt lat="41.7698" lon="9.08011">
        <ele>836.2</ele>
        <time>2021-06-03T12:22:04Z</time>
      </trkpt>
      <trkpt lat="41.76978" lon="9.08011">
        <ele>836.2</ele>
        <time>2021-06-03T12:22:05Z</time>
      </trkpt>
      <trkpt lat="41.76976" lon="9.0801">
        <ele>837</ele>
        <time>2021-06-03T12:22:06Z</time>
      </trkpt>
      <trkpt lat="41.76973" lon="9.08009">
        <ele>837</ele>
        <time>2021-06-03T12:22:07Z</time>
      </trkpt>
      <trkpt lat="41.76971" lon="9.08008">
        <ele>837</ele>
        <time>2021-06-03T12:22:08Z</time>
      </trkpt>
      <trkpt lat="41.76969" lon="9.08007">
        <ele>837</ele>
        <time>2021-06-03T12:22:09Z</time>
      </trkpt>
      <trkpt lat="41.76967" lon="9.08006">
        <ele>837.2</ele>
        <time>2021-06-03T12:22:10Z</time>
      </trkpt>
      <trkpt lat="41.76965" lon="9.08005">
        <ele>837.2</ele>
        <time>2021-06-03T12:22:11Z</time>
      </trkpt>
      <trkpt lat="41.76963" lon="9.08004">
        <ele>837.2</ele>
        <time>2021-06-03T12:22:12Z</time>
      </trkpt>
      <trkpt lat="41.7696" lon="9.08004">
        <ele>837.2</ele>
        <time>2021-06-03T12:22:13Z</time>
      </trkpt>
      <trkpt lat="41.76958" lon="9.08003">
        <ele>837.4</ele>
        <time>2021-06-03T12:22:14Z</time>
      </trkpt>
      <trkpt lat="41.76955" lon="9.08002">
        <ele>837.4</ele>
        <time>2021-06-03T12:22:15Z</time>
      </trkpt>
      <trkpt lat="41.76953" lon="9.08001">
        <ele>837.4</ele>
        <time>2021-06-03T12:22:16Z</time>
      </trkpt>
      <trkpt lat="41.7695" lon="9.08">
        <ele>837.2</ele>
        <time>2021-06-03T12:22:17Z</time>
      </trkpt>
      <trkpt lat="41.76948" lon="9.07999">
        <ele>837.2</ele>
        <time>2021-06-03T12:22:18Z</time>
      </trkpt>
      <trkpt lat="41.76946" lon="9.07998">
        <ele>837.2</ele>
        <time>2021-06-03T12:22:19Z</time>
      </trkpt>
      <trkpt lat="41.76943" lon="9.07997">
        <ele>837.2</ele>
        <time>2021-06-03T12:22:20Z</time>
      </trkpt>
      <trkpt lat="41.76941" lon="9.07996">
        <ele>837.2</ele>
        <time>2021-06-03T12:22:21Z</time>
      </trkpt>
      <trkpt lat="41.76939" lon="9.07995">
        <ele>837</ele>
        <time>2021-06-03T12:22:22Z</time>
      </trkpt>
      <trkpt lat="41.76937" lon="9.07995">
        <ele>837</ele>
        <time>2021-06-03T12:22:23Z</time>
      </trkpt>
      <trkpt lat="41.76935" lon="9.07994">
        <ele>837</ele>
        <time>2021-06-03T12:22:24Z</time>
      </trkpt>
      <trkpt lat="41.76933" lon="9.07993">
        <ele>837</ele>
        <time>2021-06-03T12:22:25Z</time>
      </trkpt>
      <trkpt lat="41.76931" lon="9.07992">
        <ele>837</ele>
        <time>2021-06-03T12:22:26Z</time>
      </trkpt>
      <trkpt lat="41.76929" lon="9.0799">
        <ele>837</ele>
        <time>2021-06-03T12:22:27Z</time>
      </trkpt>
      <trkpt lat="41.76926" lon="9.07989">
        <ele>837</ele>
        <time>2021-06-03T12:22:28Z</time>
      </trkpt>
      <trkpt lat="41.76924" lon="9.07988">
        <ele>838</ele>
        <time>2021-06-03T12:22:29Z</time>
      </trkpt>
      <trkpt lat="41.76922" lon="9.07986">
        <ele>838</ele>
        <time>2021-06-03T12:22:30Z</time>
      </trkpt>
      <trkpt lat="41.7692" lon="9.07985">
        <ele>838</ele>
        <time>2021-06-03T12:22:31Z</time>
      </trkpt>
      <trkpt lat="41.76917" lon="9.07985">
        <ele>838</ele>
        <time>2021-06-03T12:22:32Z</time>
      </trkpt>
      <trkpt lat="41.76915" lon="9.07985">
        <ele>837.6</ele>
        <time>2021-06-03T12:22:33Z</time>
      </trkpt>
      <trkpt lat="41.76912" lon="9.07986">
        <ele>837.4</ele>
        <time>2021-06-03T12:22:34Z</time>
      </trkpt>
      <trkpt lat="41.7691" lon="9.07988">
        <ele>837.4</ele>
        <time>2021-06-03T12:22:35Z</time>
      </trkpt>
      <trkpt lat="41.76908" lon="9.0799">
        <ele>837.4</ele>
        <time>2021-06-03T12:22:36Z</time>
      </trkpt>
      <trkpt lat="41.76907" lon="9.07993">
        <ele>837.2</ele>
        <time>2021-06-03T12:22:37Z</time>
      </trkpt>
      <trkpt lat="41.76906" lon="9.07996">
        <ele>837.6</ele>
        <time>2021-06-03T12:22:38Z</time>
      </trkpt>
      <trkpt lat="41.76904" lon="9.08">
        <ele>837.6</ele>
        <time>2021-06-03T12:22:39Z</time>
      </trkpt>
      <trkpt lat="41.76903" lon="9.08004">
        <ele>837.6</ele>
        <time>2021-06-03T12:22:40Z</time>
      </trkpt>
      <trkpt lat="41.76902" lon="9.08008">
        <ele>836.8</ele>
        <time>2021-06-03T12:22:41Z</time>
      </trkpt>
      <trkpt lat="41.76902" lon="9.08012">
        <ele>837</ele>
        <time>2021-06-03T12:22:42Z</time>
      </trkpt>
      <trkpt lat="41.76901" lon="9.08016">
        <ele>837</ele>
        <time>2021-06-03T12:22:43Z</time>
      </trkpt>
      <trkpt lat="41.769" lon="9.0802">
        <ele>837</ele>
        <time>2021-06-03T12:22:44Z</time>
      </trkpt>
      <trkpt lat="41.76899" lon="9.08025">
        <ele>837</ele>
        <time>2021-06-03T12:22:45Z</time>
      </trkpt>
      <trkpt lat="41.76898" lon="9.08029">
        <ele>836</ele>
        <time>2021-06-03T12:22:46Z</time>
      </trkpt>
      <trkpt lat="41.76897" lon="9.08033">
        <ele>836</ele>
        <time>2021-06-03T12:22:47Z</time>
      </trkpt>
      <trkpt lat="41.76896" lon="9.08037">
        <ele>836</ele>
        <time>2021-06-03T12:22:48Z</time>
      </trkpt>
      <trkpt lat="41.76895" lon="9.0804">
        <ele>837</ele>
        <time>2021-06-03T12:22:49Z</time>
      </trkpt>
      <trkpt lat="41.76894" lon="9.08044">
        <ele>836.4</ele>
        <time>2021-06-03T12:22:50Z</time>
      </trkpt>
      <trkpt lat="41.76893" lon="9.08048">
        <ele>836.4</ele>
        <time>2021-06-03T12:22:51Z</time>
      </trkpt>
      <trkpt lat="41.76892" lon="9.08051">
        <ele>836.4</ele>
        <time>2021-06-03T12:22:52Z</time>
      </trkpt>
      <trkpt lat="41.76891" lon="9.08055">
        <ele>837</ele>
        <time>2021-06-03T12:22:53Z</time>
      </trkpt>
      <trkpt lat="41.7689" lon="9.08058">
        <ele>837.6</ele>
        <time>2021-06-03T12:22:54Z</time>
      </trkpt>
      <trkpt lat="41.76889" lon="9.08062">
        <ele>837.6</ele>
        <time>2021-06-03T12:22:55Z</time>
      </trkpt>
      <trkpt lat="41.76887" lon="9.08066">
        <ele>837.6</ele>
        <time>2021-06-03T12:22:56Z</time>
      </trkpt>
      <trkpt lat="41.76886" lon="9.0807">
        <ele>836.8</ele>
        <time>2021-06-03T12:22:57Z</time>
      </trkpt>
      <trkpt lat="41.76885" lon="9.08073">
        <ele>836.8</ele>
        <time>2021-06-03T12:22:58Z</time>
      </trkpt>
      <trkpt lat="41.76884" lon="9.08077">
        <ele>836.8</ele>
        <time>2021-06-03T12:22:59Z</time>
      </trkpt>
      <trkpt lat="41.76883" lon="9.08081">
        <ele>836.8</ele>
        <time>2021-06-03T12:23:00Z</time>
      </trkpt>
      <trkpt lat="41.76882" lon="9.08084">
        <ele>837.8</ele>
        <time>2021-06-03T12:23:01Z</time>
      </trkpt>
      <trkpt lat="41.76881" lon="9.08088">
        <ele>837.6</ele>
        <time>2021-06-03T12:23:02Z</time>
      </trkpt>
      <trkpt lat="41.7688" lon="9.08091">
        <ele>837.6</ele>
        <time>2021-06-03T12:23:03Z</time>
      </trkpt>
      <trkpt lat="41.7688" lon="9.08095">
        <ele>837.6</ele>
        <time>2021-06-03T12:23:04Z</time>
      </trkpt>
      <trkpt lat="41.76879" lon="9.08098">
        <ele>837.6</ele>
        <time>2021-06-03T12:23:05Z</time>
      </trkpt>
      <trkpt lat="41.76879" lon="9.08102">
        <ele>838.4</ele>
        <time>2021-06-03T12:23:06Z</time>
      </trkpt>
      <trkpt lat="41.76878" lon="9.08105">
        <ele>838.4</ele>
        <time>2021-06-03T12:23:07Z</time>
      </trkpt>
      <trkpt lat="41.76878" lon="9.08109">
        <ele>838.4</ele>
        <time>2021-06-03T12:23:08Z</time>
      </trkpt>
      <trkpt lat="41.76878" lon="9.08113">
        <ele>837.8</ele>
        <time>2021-06-03T12:23:09Z</time>
      </trkpt>
      <trkpt lat="41.76878" lon="9.08117">
        <ele>837.8</ele>
        <time>2021-06-03T12:23:10Z</time>
      </trkpt>
      <trkpt lat="41.76878" lon="9.08122">
        <ele>837.8</ele>
        <time>2021-06-03T12:23:11Z</time>
      </trkpt>
      <trkpt lat="41.76878" lon="9.08126">
        <ele>837.8</ele>
        <time>2021-06-03T12:23:12Z</time>
      </trkpt>
      <trkpt lat="41.76877" lon="9.0813">
        <ele>837.8</ele>
        <time>2021-06-03T12:23:13Z</time>
      </trkpt>
      <trkpt lat="41.76877" lon="9.08134">
        <ele>837.6</ele>
        <time>2021-06-03T12:23:14Z</time>
      </trkpt>
      <trkpt lat="41.76877" lon="9.08138">
        <ele>837.6</ele>
        <time>2021-06-03T12:23:15Z</time>
      </trkpt>
      <trkpt lat="41.76877" lon="9.08142">
        <ele>837.6</ele>
        <time>2021-06-03T12:23:16Z</time>
      </trkpt>
      <trkpt lat="41.76877" lon="9.08146">
        <ele>837.6</ele>
        <time>2021-06-03T12:23:17Z</time>
      </trkpt>
      <trkpt lat="41.76878" lon="9.08151">
        <ele>837.4</ele>
        <time>2021-06-03T12:23:18Z</time>
      </trkpt>
      <trkpt lat="41.76878" lon="9.08156">
        <ele>837.4</ele>
        <time>2021-06-03T12:23:19Z</time>
      </trkpt>
      <trkpt lat="41.76877" lon="9.08161">
        <ele>837.4</ele>
        <time>2021-06-03T12:23:20Z</time>
      </trkpt>
      <trkpt lat="41.76877" lon="9.08165">
        <ele>837.4</ele>
        <time>2021-06-03T12:23:21Z</time>
      </trkpt>
      <trkpt lat="41.76877" lon="9.0817">
        <ele>836.6</ele>
        <time>2021-06-03T12:23:22Z</time>
      </trkpt>
      <trkpt lat="41.76877" lon="9.08176">
        <ele>836.6</ele>
        <time>2021-06-03T12:23:23Z</time>
      </trkpt>
      <trkpt lat="41.76878" lon="9.08182">
        <ele>836.6</ele>
        <time>2021-06-03T12:23:24Z</time>
      </trkpt>
      <trkpt lat="41.76878" lon="9.08187">
        <ele>836.6</ele>
        <time>2021-06-03T12:23:25Z</time>
      </trkpt>
      <trkpt lat="41.76878" lon="9.08194">
        <ele>836</ele>
        <time>2021-06-03T12:23:26Z</time>
      </trkpt>
      <trkpt lat="41.76878" lon="9.082">
        <ele>836</ele>
        <time>2021-06-03T12:23:27Z</time>
      </trkpt>
      <trkpt lat="41.76878" lon="9.08206">
        <ele>836</ele>
        <time>2021-06-03T12:23:28Z</time>
      </trkpt>
      <trkpt lat="41.76878" lon="9.08212">
        <ele>836</ele>
        <time>2021-06-03T12:23:29Z</time>
      </trkpt>
      <trkpt lat="41.76878" lon="9.08218">
        <ele>835.2</ele>
        <time>2021-06-03T12:23:30Z</time>
      </trkpt>
      <trkpt lat="41.76878" lon="9.08223">
        <ele>835.2</ele>
        <time>2021-06-03T12:23:31Z</time>
      </trkpt>
      <trkpt lat="41.76878" lon="9.08229">
        <ele>835.2</ele>
        <time>2021-06-03T12:23:32Z</time>
      </trkpt>
      <trkpt lat="41.76878" lon="9.08235">
        <ele>836</ele>
        <time>2021-06-03T12:23:33Z</time>
      </trkpt>
      <trkpt lat="41.76877" lon="9.0824">
        <ele>836.4</ele>
        <time>2021-06-03T12:23:34Z</time>
      </trkpt>
      <trkpt lat="41.76876" lon="9.08246">
        <ele>836.4</ele>
        <time>2021-06-03T12:23:35Z</time>
      </trkpt>
      <trkpt lat="41.76875" lon="9.0825">
        <ele>836.4</ele>
        <time>2021-06-03T12:23:36Z</time>
      </trkpt>
      <trkpt lat="41.76873" lon="9.08256">
        <ele>836.4</ele>
        <time>2021-06-03T12:23:37Z</time>
      </trkpt>
      <trkpt lat="41.76871" lon="9.0826">
        <ele>834.6</ele>
        <time>2021-06-03T12:23:38Z</time>
      </trkpt>
      <trkpt lat="41.76869" lon="9.08265">
        <ele>834.6</ele>
        <time>2021-06-03T12:23:39Z</time>
      </trkpt>
      <trkpt lat="41.76868" lon="9.0827">
        <ele>834.6</ele>
        <time>2021-06-03T12:23:40Z</time>
      </trkpt>
      <trkpt lat="41.76866" lon="9.08276">
        <ele>834.6</ele>
        <time>2021-06-03T12:23:41Z</time>
      </trkpt>
      <trkpt lat="41.76864" lon="9.08282">
        <ele>833.6</ele>
        <time>2021-06-03T12:23:42Z</time>
      </trkpt>
      <trkpt lat="41.76862" lon="9.08287">
        <ele>833.6</ele>
        <time>2021-06-03T12:23:43Z</time>
      </trkpt>
      <trkpt lat="41.7686" lon="9.08293">
        <ele>833.6</ele>
        <time>2021-06-03T12:23:44Z</time>
      </trkpt>
      <trkpt lat="41.76859" lon="9.08299">
        <ele>833.6</ele>
        <time>2021-06-03T12:23:45Z</time>
      </trkpt>
      <trkpt lat="41.76857" lon="9.08304">
        <ele>834.6</ele>
        <time>2021-06-03T12:23:46Z</time>
      </trkpt>
      <trkpt lat="41.76856" lon="9.0831">
        <ele>834.6</ele>
        <time>2021-06-03T12:23:47Z</time>
      </trkpt>
      <trkpt lat="41.76855" lon="9.08316">
        <ele>834.6</ele>
        <time>2021-06-03T12:23:48Z</time>
      </trkpt>
      <trkpt lat="41.76854" lon="9.08322">
        <ele>834.6</ele>
        <time>2021-06-03T12:23:49Z</time>
      </trkpt>
      <trkpt lat="41.76853" lon="9.08329">
        <ele>832.6</ele>
        <time>2021-06-03T12:23:50Z</time>
      </trkpt>
      <trkpt lat="41.76853" lon="9.08335">
        <ele>832.6</ele>
        <time>2021-06-03T12:23:51Z</time>
      </trkpt>
      <trkpt lat="41.76853" lon="9.08341">
        <ele>832.6</ele>
        <time>2021-06-03T12:23:52Z</time>
      </trkpt>
      <trkpt lat="41.76853" lon="9.08347">
        <ele>832.6</ele>
        <time>2021-06-03T12:23:53Z</time>
      </trkpt>
      <trkpt lat="41.76853" lon="9.08353">
        <ele>832.6</ele>
        <time>2021-06-03T12:23:54Z</time>
      </trkpt>
      <trkpt lat="41.76853" lon="9.0836">
        <ele>832.6</ele>
        <time>2021-06-03T12:23:55Z</time>
      </trkpt>
      <trkpt lat="41.76853" lon="9.08365">
        <ele>832.6</ele>
        <time>2021-06-03T12:23:56Z</time>
      </trkpt>
      <trkpt lat="41.76853" lon="9.08371">
        <ele>832.6</ele>
        <time>2021-06-03T12:23:57Z</time>
      </trkpt>
      <trkpt lat="41.76853" lon="9.08377">
        <ele>833.6</ele>
        <time>2021-06-03T12:23:58Z</time>
      </trkpt>
      <trkpt lat="41.76853" lon="9.08384">
        <ele>833.6</ele>
        <time>2021-06-03T12:23:59Z</time>
      </trkpt>
      <trkpt lat="41.76853" lon="9.0839">
        <ele>833.6</ele>
        <time>2021-06-03T12:24:00Z</time>
      </trkpt>
      <trkpt lat="41.76853" lon="9.08397">
        <ele>833.6</ele>
        <time>2021-06-03T12:24:01Z</time>
      </trkpt>
      <trkpt lat="41.76853" lon="9.08404">
        <ele>833</ele>
        <time>2021-06-03T12:24:02Z</time>
      </trkpt>
      <trkpt lat="41.76853" lon="9.08411">
        <ele>833</ele>
        <time>2021-06-03T12:24:03Z</time>
      </trkpt>
      <trkpt lat="41.76853" lon="9.08418">
        <ele>833</ele>
        <time>2021-06-03T12:24:04Z</time>
      </trkpt>
      <trkpt lat="41.76853" lon="9.08424">
        <ele>834</ele>
        <time>2021-06-03T12:24:05Z</time>
      </trkpt>
      <trkpt lat="41.76854" lon="9.08431">
        <ele>834.2</ele>
        <time>2021-06-03T12:24:06Z</time>
      </trkpt>
      <trkpt lat="41.76854" lon="9.08438">
        <ele>834.2</ele>
        <time>2021-06-03T12:24:07Z</time>
      </trkpt>
      <trkpt lat="41.76855" lon="9.08445">
        <ele>834.2</ele>
        <time>2021-06-03T12:24:08Z</time>
      </trkpt>
      <trkpt lat="41.76856" lon="9.08452">
        <ele>834.2</ele>
        <time>2021-06-03T12:24:09Z</time>
      </trkpt>
      <trkpt lat="41.76858" lon="9.08458">
        <ele>834.8</ele>
        <time>2021-06-03T12:24:10Z</time>
      </trkpt>
      <trkpt lat="41.76859" lon="9.08466">
        <ele>834.8</ele>
        <time>2021-06-03T12:24:11Z</time>
      </trkpt>
      <trkpt lat="41.76861" lon="9.08472">
        <ele>834.8</ele>
        <time>2021-06-03T12:24:12Z</time>
      </trkpt>
      <trkpt lat="41.76863" lon="9.08479">
        <ele>834.8</ele>
        <time>2021-06-03T12:24:13Z</time>
      </trkpt>
      <trkpt lat="41.76866" lon="9.08485">
        <ele>834.8</ele>
        <time>2021-06-03T12:24:14Z</time>
      </trkpt>
      <trkpt lat="41.76869" lon="9.0849">
        <ele>834</ele>
        <time>2021-06-03T12:24:15Z</time>
      </trkpt>
      <trkpt lat="41.76873" lon="9.08496">
        <ele>834</ele>
        <time>2021-06-03T12:24:16Z</time>
      </trkpt>
      <trkpt lat="41.76876" lon="9.08501">
        <ele>833.6</ele>
        <time>2021-06-03T12:24:17Z</time>
      </trkpt>
      <trkpt lat="41.7688" lon="9.08507">
        <ele>833.4</ele>
        <time>2021-06-03T12:24:18Z</time>
      </trkpt>
      <trkpt lat="41.76883" lon="9.08513">
        <ele>833.4</ele>
        <time>2021-06-03T12:24:19Z</time>
      </trkpt>
      <trkpt lat="41.76886" lon="9.08518">
        <ele>833.4</ele>
        <time>2021-06-03T12:24:20Z</time>
      </trkpt>
      <trkpt lat="41.76889" lon="9.08524">
        <ele>833.6</ele>
        <time>2021-06-03T12:24:21Z</time>
      </trkpt>
      <trkpt lat="41.76892" lon="9.0853">
        <ele>833.6</ele>
        <time>2021-06-03T12:24:22Z</time>
      </trkpt>
      <trkpt lat="41.76893" lon="9.08537">
        <ele>834.2</ele>
        <time>2021-06-03T12:24:23Z</time>
      </trkpt>
      <trkpt lat="41.76894" lon="9.08544">
        <ele>834.2</ele>
        <time>2021-06-03T12:24:24Z</time>
      </trkpt>
      <trkpt lat="41.76894" lon="9.08552">
        <ele>834.4</ele>
        <time>2021-06-03T12:24:25Z</time>
      </trkpt>
      <trkpt lat="41.76891" lon="9.08558">
        <ele>833.6</ele>
        <time>2021-06-03T12:24:26Z</time>
      </trkpt>
      <trkpt lat="41.76887" lon="9.08562">
        <ele>833.6</ele>
        <time>2021-06-03T12:24:27Z</time>
      </trkpt>
      <trkpt lat="41.76882" lon="9.08563">
        <ele>833.6</ele>
        <time>2021-06-03T12:24:28Z</time>
      </trkpt>
      <trkpt lat="41.76876" lon="9.08563">
        <ele>833.6</ele>
        <time>2021-06-03T12:24:29Z</time>
      </trkpt>
      <trkpt lat="41.76871" lon="9.08564">
        <ele>833.6</ele>
        <time>2021-06-03T12:24:30Z</time>
      </trkpt>
      <trkpt lat="41.76867" lon="9.08565">
        <ele>834.2</ele>
        <time>2021-06-03T12:24:31Z</time>
      </trkpt>
      <trkpt lat="41.76862" lon="9.08567">
        <ele>834.2</ele>
        <time>2021-06-03T12:24:32Z</time>
      </trkpt>
      <trkpt lat="41.76857" lon="9.08569">
        <ele>834.8</ele>
        <time>2021-06-03T12:24:33Z</time>
      </trkpt>
      <trkpt lat="41.76853" lon="9.08571">
        <ele>834.8</ele>
        <time>2021-06-03T12:24:34Z</time>
      </trkpt>
      <trkpt lat="41.76848" lon="9.08573">
        <ele>834.8</ele>
        <time>2021-06-03T12:24:35Z</time>
      </trkpt>
      <trkpt lat="41.76843" lon="9.08574">
        <ele>834.8</ele>
        <time>2021-06-03T12:24:36Z</time>
      </trkpt>
      <trkpt lat="41.76839" lon="9.08576">
        <ele>834.8</ele>
        <time>2021-06-03T12:24:37Z</time>
      </trkpt>
      <trkpt lat="41.76834" lon="9.08577">
        <ele>833.6</ele>
        <time>2021-06-03T12:24:38Z</time>
      </trkpt>
      <trkpt lat="41.7683" lon="9.08577">
        <ele>833.6</ele>
        <time>2021-06-03T12:24:39Z</time>
      </trkpt>
      <trkpt lat="41.76825" lon="9.08577">
        <ele>833.6</ele>
        <time>2021-06-03T12:24:40Z</time>
      </trkpt>
      <trkpt lat="41.76821" lon="9.08577">
        <ele>834.6</ele>
        <time>2021-06-03T12:24:41Z</time>
      </trkpt>
      <trkpt lat="41.76818" lon="9.08576">
        <ele>835</ele>
        <time>2021-06-03T12:24:42Z</time>
      </trkpt>
      <trkpt lat="41.76814" lon="9.08575">
        <ele>835</ele>
        <time>2021-06-03T12:24:43Z</time>
      </trkpt>
      <trkpt lat="41.76811" lon="9.08573">
        <ele>835</ele>
        <time>2021-06-03T12:24:44Z</time>
      </trkpt>
      <trkpt lat="41.76807" lon="9.08572">
        <ele>835</ele>
        <time>2021-06-03T12:24:45Z</time>
      </trkpt>
      <trkpt lat="41.76804" lon="9.08569">
        <ele>835.2</ele>
        <time>2021-06-03T12:24:46Z</time>
      </trkpt>
      <trkpt lat="41.76802" lon="9.08568">
        <ele>835.2</ele>
        <time>2021-06-03T12:24:47Z</time>
      </trkpt>
      <trkpt lat="41.76799" lon="9.08565">
        <ele>835.2</ele>
        <time>2021-06-03T12:24:48Z</time>
      </trkpt>
      <trkpt lat="41.76795" lon="9.08563">
        <ele>835.8</ele>
        <time>2021-06-03T12:24:49Z</time>
      </trkpt>
      <trkpt lat="41.76793" lon="9.08561">
        <ele>835.4</ele>
        <time>2021-06-03T12:24:50Z</time>
      </trkpt>
      <trkpt lat="41.7679" lon="9.08559">
        <ele>835.4</ele>
        <time>2021-06-03T12:24:51Z</time>
      </trkpt>
      <trkpt lat="41.76787" lon="9.08557">
        <ele>835.4</ele>
        <time>2021-06-03T12:24:52Z</time>
      </trkpt>
      <trkpt lat="41.76784" lon="9.08555">
        <ele>835.4</ele>
        <time>2021-06-03T12:24:53Z</time>
      </trkpt>
      <trkpt lat="41.76781" lon="9.08552">
        <ele>835.8</ele>
        <time>2021-06-03T12:24:54Z</time>
      </trkpt>
      <trkpt lat="41.76778" lon="9.08549">
        <ele>835.8</ele>
        <time>2021-06-03T12:24:55Z</time>
      </trkpt>
      <trkpt lat="41.76775" lon="9.08547">
        <ele>835.8</ele>
        <time>2021-06-03T12:24:56Z</time>
      </trkpt>
      <trkpt lat="41.76772" lon="9.08545">
        <ele>835.8</ele>
        <time>2021-06-03T12:24:57Z</time>
      </trkpt>
      <trkpt lat="41.76768" lon="9.08542">
        <ele>835.6</ele>
        <time>2021-06-03T12:24:58Z</time>
      </trkpt>
      <trkpt lat="41.76765" lon="9.0854">
        <ele>835.6</ele>
        <time>2021-06-03T12:24:59Z</time>
      </trkpt>
      <trkpt lat="41.76762" lon="9.08538">
        <ele>835.6</ele>
        <time>2021-06-03T12:25:00Z</time>
      </trkpt>
      <trkpt lat="41.76758" lon="9.08537">
        <ele>836.2</ele>
        <time>2021-06-03T12:25:01Z</time>
      </trkpt>
      <trkpt lat="41.76755" lon="9.08537">
        <ele>836</ele>
        <time>2021-06-03T12:25:02Z</time>
      </trkpt>
      <trkpt lat="41.76751" lon="9.08537">
        <ele>836</ele>
        <time>2021-06-03T12:25:03Z</time>
      </trkpt>
      <trkpt lat="41.76748" lon="9.08538">
        <ele>836</ele>
        <time>2021-06-03T12:25:04Z</time>
      </trkpt>
      <trkpt lat="41.76744" lon="9.08539">
        <ele>836</ele>
        <time>2021-06-03T12:25:05Z</time>
      </trkpt>
      <trkpt lat="41.76741" lon="9.08542">
        <ele>836.2</ele>
        <time>2021-06-03T12:25:06Z</time>
      </trkpt>
      <trkpt lat="41.76738" lon="9.08544">
        <ele>836.2</ele>
        <time>2021-06-03T12:25:07Z</time>
      </trkpt>
      <trkpt lat="41.76734" lon="9.08546">
        <ele>836.2</ele>
        <time>2021-06-03T12:25:08Z</time>
      </trkpt>
      <trkpt lat="41.76731" lon="9.08549">
        <ele>836.2</ele>
        <time>2021-06-03T12:25:09Z</time>
      </trkpt>
      <trkpt lat="41.76729" lon="9.08552">
        <ele>836.6</ele>
        <time>2021-06-03T12:25:10Z</time>
      </trkpt>
      <trkpt lat="41.76726" lon="9.08555">
        <ele>836.6</ele>
        <time>2021-06-03T12:25:11Z</time>
      </trkpt>
      <trkpt lat="41.76723" lon="9.08558">
        <ele>836.6</ele>
        <time>2021-06-03T12:25:12Z</time>
      </trkpt>
      <trkpt lat="41.76721" lon="9.08561">
        <ele>836.6</ele>
        <time>2021-06-03T12:25:13Z</time>
      </trkpt>
      <trkpt lat="41.76719" lon="9.08565">
        <ele>837</ele>
        <time>2021-06-03T12:25:14Z</time>
      </trkpt>
      <trkpt lat="41.76716" lon="9.08567">
        <ele>837</ele>
        <time>2021-06-03T12:25:15Z</time>
      </trkpt>
      <trkpt lat="41.76714" lon="9.0857">
        <ele>837</ele>
        <time>2021-06-03T12:25:16Z</time>
      </trkpt>
      <trkpt lat="41.76712" lon="9.08572">
        <ele>838</ele>
        <time>2021-06-03T12:25:17Z</time>
      </trkpt>
      <trkpt lat="41.76709" lon="9.08574">
        <ele>837.4</ele>
        <time>2021-06-03T12:25:18Z</time>
      </trkpt>
      <trkpt lat="41.76707" lon="9.08576">
        <ele>837.4</ele>
        <time>2021-06-03T12:25:19Z</time>
      </trkpt>
      <trkpt lat="41.76704" lon="9.08577">
        <ele>837.4</ele>
        <time>2021-06-03T12:25:20Z</time>
      </trkpt>
      <trkpt lat="41.76702" lon="9.0858">
        <ele>837.4</ele>
        <time>2021-06-03T12:25:21Z</time>
      </trkpt>
      <trkpt lat="41.76699" lon="9.08583">
        <ele>838.4</ele>
        <time>2021-06-03T12:25:22Z</time>
      </trkpt>
      <trkpt lat="41.76697" lon="9.08586">
        <ele>838.4</ele>
        <time>2021-06-03T12:25:23Z</time>
      </trkpt>
      <trkpt lat="41.76695" lon="9.08588">
        <ele>838.4</ele>
        <time>2021-06-03T12:25:24Z</time>
      </trkpt>
      <trkpt lat="41.76693" lon="9.08591">
        <ele>838.4</ele>
        <time>2021-06-03T12:25:25Z</time>
      </trkpt>
      <trkpt lat="41.76691" lon="9.08593">
        <ele>839.6</ele>
        <time>2021-06-03T12:25:26Z</time>
      </trkpt>
      <trkpt lat="41.76689" lon="9.08595">
        <ele>839.6</ele>
        <time>2021-06-03T12:25:27Z</time>
      </trkpt>
      <trkpt lat="41.76687" lon="9.08598">
        <ele>839.6</ele>
        <time>2021-06-03T12:25:28Z</time>
      </trkpt>
      <trkpt lat="41.76684" lon="9.086">
        <ele>840</ele>
        <time>2021-06-03T12:25:29Z</time>
      </trkpt>
      <trkpt lat="41.76682" lon="9.08603">
        <ele>840</ele>
        <time>2021-06-03T12:25:30Z</time>
      </trkpt>
      <trkpt lat="41.76679" lon="9.08606">
        <ele>839.8</ele>
        <time>2021-06-03T12:25:31Z</time>
      </trkpt>
      <trkpt lat="41.76677" lon="9.08608">
        <ele>839.8</ele>
        <time>2021-06-03T12:25:32Z</time>
      </trkpt>
      <trkpt lat="41.76674" lon="9.08611">
        <ele>840.2</ele>
        <time>2021-06-03T12:25:33Z</time>
      </trkpt>
      <trkpt lat="41.76671" lon="9.08614">
        <ele>840.4</ele>
        <time>2021-06-03T12:25:34Z</time>
      </trkpt>
      <trkpt lat="41.76669" lon="9.08617">
        <ele>840.4</ele>
        <time>2021-06-03T12:25:35Z</time>
      </trkpt>
      <trkpt lat="41.76666" lon="9.08619">
        <ele>840.4</ele>
        <time>2021-06-03T12:25:36Z</time>
      </trkpt>
      <trkpt lat="41.76664" lon="9.08622">
        <ele>840.2</ele>
        <time>2021-06-03T12:25:37Z</time>
      </trkpt>
      <trkpt lat="41.76661" lon="9.08625">
        <ele>840.2</ele>
        <time>2021-06-03T12:25:38Z</time>
      </trkpt>
      <trkpt lat="41.76659" lon="9.08628">
        <ele>840.2</ele>
        <time>2021-06-03T12:25:39Z</time>
      </trkpt>
      <trkpt lat="41.76657" lon="9.08631">
        <ele>840.2</ele>
        <time>2021-06-03T12:25:40Z</time>
      </trkpt>
      <trkpt lat="41.76654" lon="9.08634">
        <ele>840</ele>
        <time>2021-06-03T12:25:41Z</time>
      </trkpt>
      <trkpt lat="41.76652" lon="9.08636">
        <ele>840</ele>
        <time>2021-06-03T12:25:42Z</time>
      </trkpt>
      <trkpt lat="41.76649" lon="9.08639">
        <ele>840</ele>
        <time>2021-06-03T12:25:43Z</time>
      </trkpt>
      <trkpt lat="41.76647" lon="9.08642">
        <ele>840</ele>
        <time>2021-06-03T12:25:44Z</time>
      </trkpt>
      <trkpt lat="41.76644" lon="9.08645">
        <ele>840</ele>
        <time>2021-06-03T12:25:45Z</time>
      </trkpt>
      <trkpt lat="41.76642" lon="9.08647">
        <ele>839.8</ele>
        <time>2021-06-03T12:25:46Z</time>
      </trkpt>
      <trkpt lat="41.76641" lon="9.0865">
        <ele>839.8</ele>
        <time>2021-06-03T12:25:47Z</time>
      </trkpt>
      <trkpt lat="41.76639" lon="9.08653">
        <ele>839.8</ele>
        <time>2021-06-03T12:25:48Z</time>
      </trkpt>
      <trkpt lat="41.76637" lon="9.08656">
        <ele>839.8</ele>
        <time>2021-06-03T12:25:49Z</time>
      </trkpt>
      <trkpt lat="41.76635" lon="9.08658">
        <ele>839.8</ele>
        <time>2021-06-03T12:25:50Z</time>
      </trkpt>
      <trkpt lat="41.76633" lon="9.08661">
        <ele>839.6</ele>
        <time>2021-06-03T12:25:51Z</time>
      </trkpt>
      <trkpt lat="41.76631" lon="9.08664">
        <ele>839.6</ele>
        <time>2021-06-03T12:25:52Z</time>
      </trkpt>
      <trkpt lat="41.76629" lon="9.08666">
        <ele>839.6</ele>
        <time>2021-06-03T12:25:53Z</time>
      </trkpt>
      <trkpt lat="41.76627" lon="9.08669">
        <ele>839.4</ele>
        <time>2021-06-03T12:25:54Z</time>
      </trkpt>
      <trkpt lat="41.76625" lon="9.08672">
        <ele>839.4</ele>
        <time>2021-06-03T12:25:55Z</time>
      </trkpt>
      <trkpt lat="41.76623" lon="9.08675">
        <ele>839.4</ele>
        <time>2021-06-03T12:25:56Z</time>
      </trkpt>
      <trkpt lat="41.76621" lon="9.08678">
        <ele>839.4</ele>
        <time>2021-06-03T12:25:57Z</time>
      </trkpt>
      <trkpt lat="41.76619" lon="9.08681">
        <ele>841.2</ele>
        <time>2021-06-03T12:25:58Z</time>
      </trkpt>
      <trkpt lat="41.76617" lon="9.08684">
        <ele>841.2</ele>
        <time>2021-06-03T12:25:59Z</time>
      </trkpt>
      <trkpt lat="41.76615" lon="9.08687">
        <ele>841.2</ele>
        <time>2021-06-03T12:26:00Z</time>
      </trkpt>
      <trkpt lat="41.76613" lon="9.0869">
        <ele>841.2</ele>
        <time>2021-06-03T12:26:01Z</time>
      </trkpt>
      <trkpt lat="41.76611" lon="9.08694">
        <ele>840.6</ele>
        <time>2021-06-03T12:26:02Z</time>
      </trkpt>
      <trkpt lat="41.7661" lon="9.08698">
        <ele>840.6</ele>
        <time>2021-06-03T12:26:03Z</time>
      </trkpt>
      <trkpt lat="41.76608" lon="9.08702">
        <ele>840.6</ele>
        <time>2021-06-03T12:26:04Z</time>
      </trkpt>
      <trkpt lat="41.76606" lon="9.08707">
        <ele>840.6</ele>
        <time>2021-06-03T12:26:05Z</time>
      </trkpt>
      <trkpt lat="41.76604" lon="9.08712">
        <ele>840.2</ele>
        <time>2021-06-03T12:26:06Z</time>
      </trkpt>
      <trkpt lat="41.76602" lon="9.08718">
        <ele>840.2</ele>
        <time>2021-06-03T12:26:07Z</time>
      </trkpt>
      <trkpt lat="41.76601" lon="9.08724">
        <ele>840.2</ele>
        <time>2021-06-03T12:26:08Z</time>
      </trkpt>
      <trkpt lat="41.766" lon="9.0873">
        <ele>840.2</ele>
        <time>2021-06-03T12:26:09Z</time>
      </trkpt>
      <trkpt lat="41.766" lon="9.08737">
        <ele>840.2</ele>
        <time>2021-06-03T12:26:10Z</time>
      </trkpt>
      <trkpt lat="41.766" lon="9.08744">
        <ele>838.8</ele>
        <time>2021-06-03T12:26:11Z</time>
      </trkpt>
      <trkpt lat="41.766" lon="9.08751">
        <ele>838.8</ele>
        <time>2021-06-03T12:26:12Z</time>
      </trkpt>
      <trkpt lat="41.76601" lon="9.08759">
        <ele>837.8</ele>
        <time>2021-06-03T12:26:13Z</time>
      </trkpt>
      <trkpt lat="41.76603" lon="9.08767">
        <ele>836.6</ele>
        <time>2021-06-03T12:26:14Z</time>
      </trkpt>
      <trkpt lat="41.76604" lon="9.08776">
        <ele>836.6</ele>
        <time>2021-06-03T12:26:15Z</time>
      </trkpt>
      <trkpt lat="41.76606" lon="9.08785">
        <ele>836.6</ele>
        <time>2021-06-03T12:26:16Z</time>
      </trkpt>
      <trkpt lat="41.76607" lon="9.08795">
        <ele>836.6</ele>
        <time>2021-06-03T12:26:17Z</time>
      </trkpt>
      <trkpt lat="41.76609" lon="9.08804">
        <ele>836.6</ele>
        <time>2021-06-03T12:26:18Z</time>
      </trkpt>
      <trkpt lat="41.7661" lon="9.08813">
        <ele>836.6</ele>
        <time>2021-06-03T12:26:19Z</time>
      </trkpt>
      <trkpt lat="41.76612" lon="9.08823">
        <ele>836.6</ele>
        <time>2021-06-03T12:26:20Z</time>
      </trkpt>
      <trkpt lat="41.76613" lon="9.08833">
        <ele>836.6</ele>
        <time>2021-06-03T12:26:21Z</time>
      </trkpt>
      <trkpt lat="41.76614" lon="9.08842">
        <ele>836.8</ele>
        <time>2021-06-03T12:26:22Z</time>
      </trkpt>
      <trkpt lat="41.76614" lon="9.08851">
        <ele>836.8</ele>
        <time>2021-06-03T12:26:23Z</time>
      </trkpt>
      <trkpt lat="41.76611" lon="9.0886">
        <ele>836.8</ele>
        <time>2021-06-03T12:26:24Z</time>
      </trkpt>
      <trkpt lat="41.76606" lon="9.08865">
        <ele>836.8</ele>
        <time>2021-06-03T12:26:25Z</time>
      </trkpt>
      <trkpt lat="41.766" lon="9.08865">
        <ele>836.8</ele>
        <time>2021-06-03T12:26:26Z</time>
      </trkpt>
      <trkpt lat="41.76594" lon="9.08863">
        <ele>836.8</ele>
        <time>2021-06-03T12:26:27Z</time>
      </trkpt>
      <trkpt lat="41.76589" lon="9.0886">
        <ele>836.8</ele>
        <time>2021-06-03T12:26:28Z</time>
      </trkpt>
      <trkpt lat="41.76584" lon="9.08858">
        <ele>836.8</ele>
        <time>2021-06-03T12:26:29Z</time>
      </trkpt>
      <trkpt lat="41.76579" lon="9.08859">
        <ele>837</ele>
        <time>2021-06-03T12:26:30Z</time>
      </trkpt>
      <trkpt lat="41.76574" lon="9.08858">
        <ele>837</ele>
        <time>2021-06-03T12:26:31Z</time>
      </trkpt>
      <trkpt lat="41.76569" lon="9.08858">
        <ele>837</ele>
        <time>2021-06-03T12:26:32Z</time>
      </trkpt>
      <trkpt lat="41.76564" lon="9.08859">
        <ele>837</ele>
        <time>2021-06-03T12:26:33Z</time>
      </trkpt>
      <trkpt lat="41.76559" lon="9.08861">
        <ele>837.2</ele>
        <time>2021-06-03T12:26:34Z</time>
      </trkpt>
      <trkpt lat="41.76555" lon="9.08863">
        <ele>837.2</ele>
        <time>2021-06-03T12:26:35Z</time>
      </trkpt>
      <trkpt lat="41.76551" lon="9.08866">
        <ele>837.2</ele>
        <time>2021-06-03T12:26:36Z</time>
      </trkpt>
      <trkpt lat="41.76547" lon="9.08869">
        <ele>837.2</ele>
        <time>2021-06-03T12:26:37Z</time>
      </trkpt>
      <trkpt lat="41.76543" lon="9.08872">
        <ele>838.4</ele>
        <time>2021-06-03T12:26:38Z</time>
      </trkpt>
      <trkpt lat="41.76539" lon="9.08874">
        <ele>838.4</ele>
        <time>2021-06-03T12:26:39Z</time>
      </trkpt>
      <trkpt lat="41.76536" lon="9.08877">
        <ele>838.4</ele>
        <time>2021-06-03T12:26:40Z</time>
      </trkpt>
      <trkpt lat="41.76533" lon="9.08879">
        <ele>838.8</ele>
        <time>2021-06-03T12:26:41Z</time>
      </trkpt>
      <trkpt lat="41.76529" lon="9.08882">
        <ele>839.6</ele>
        <time>2021-06-03T12:26:42Z</time>
      </trkpt>
      <trkpt lat="41.76526" lon="9.08884">
        <ele>839.6</ele>
        <time>2021-06-03T12:26:43Z</time>
      </trkpt>
      <trkpt lat="41.76523" lon="9.08887">
        <ele>839.6</ele>
        <time>2021-06-03T12:26:44Z</time>
      </trkpt>
      <trkpt lat="41.76519" lon="9.08889">
        <ele>840.6</ele>
        <time>2021-06-03T12:26:45Z</time>
      </trkpt>
      <trkpt lat="41.76516" lon="9.08891">
        <ele>840.2</ele>
        <time>2021-06-03T12:26:46Z</time>
      </trkpt>
      <trkpt lat="41.76513" lon="9.08893">
        <ele>840.2</ele>
        <time>2021-06-03T12:26:47Z</time>
      </trkpt>
      <trkpt lat="41.7651" lon="9.08895">
        <ele>840.2</ele>
        <time>2021-06-03T12:26:48Z</time>
      </trkpt>
      <trkpt lat="41.76506" lon="9.08897">
        <ele>840.2</ele>
        <time>2021-06-03T12:26:49Z</time>
      </trkpt>
      <trkpt lat="41.76503" lon="9.08899">
        <ele>840.4</ele>
        <time>2021-06-03T12:26:50Z</time>
      </trkpt>
      <trkpt lat="41.765" lon="9.08901">
        <ele>840.4</ele>
        <time>2021-06-03T12:26:51Z</time>
      </trkpt>
      <trkpt lat="41.76497" lon="9.08904">
        <ele>840.4</ele>
        <time>2021-06-03T12:26:52Z</time>
      </trkpt>
      <trkpt lat="41.76494" lon="9.08907">
        <ele>841.2</ele>
        <time>2021-06-03T12:26:53Z</time>
      </trkpt>
      <trkpt lat="41.76491" lon="9.0891">
        <ele>841.2</ele>
        <time>2021-06-03T12:26:54Z</time>
      </trkpt>
      <trkpt lat="41.76489" lon="9.08913">
        <ele>840.8</ele>
        <time>2021-06-03T12:26:55Z</time>
      </trkpt>
      <trkpt lat="41.76487" lon="9.08917">
        <ele>840.8</ele>
        <time>2021-06-03T12:26:56Z</time>
      </trkpt>
      <trkpt lat="41.76485" lon="9.08921">
        <ele>841.8</ele>
        <time>2021-06-03T12:26:57Z</time>
      </trkpt>
      <trkpt lat="41.76483" lon="9.08925">
        <ele>841.2</ele>
        <time>2021-06-03T12:26:58Z</time>
      </trkpt>
      <trkpt lat="41.76481" lon="9.08929">
        <ele>841.2</ele>
        <time>2021-06-03T12:26:59Z</time>
      </trkpt>
      <trkpt lat="41.76479" lon="9.08933">
        <ele>841.2</ele>
        <time>2021-06-03T12:27:00Z</time>
      </trkpt>
      <trkpt lat="41.76477" lon="9.08937">
        <ele>842.2</ele>
        <time>2021-06-03T12:27:01Z</time>
      </trkpt>
      <trkpt lat="41.76475" lon="9.0894">
        <ele>842.2</ele>
        <time>2021-06-03T12:27:02Z</time>
      </trkpt>
      <trkpt lat="41.76473" lon="9.08944">
        <ele>842.2</ele>
        <time>2021-06-03T12:27:03Z</time>
      </trkpt>
      <trkpt lat="41.7647" lon="9.08947">
        <ele>842.2</ele>
        <time>2021-06-03T12:27:04Z</time>
      </trkpt>
      <trkpt lat="41.76467" lon="9.0895">
        <ele>842.4</ele>
        <time>2021-06-03T12:27:05Z</time>
      </trkpt>
      <trkpt lat="41.76464" lon="9.08952">
        <ele>842.6</ele>
        <time>2021-06-03T12:27:06Z</time>
      </trkpt>
      <trkpt lat="41.76461" lon="9.08954">
        <ele>842.6</ele>
        <time>2021-06-03T12:27:07Z</time>
      </trkpt>
      <trkpt lat="41.76458" lon="9.08956">
        <ele>842.6</ele>
        <time>2021-06-03T12:27:08Z</time>
      </trkpt>
      <trkpt lat="41.76454" lon="9.08958">
        <ele>842.6</ele>
        <time>2021-06-03T12:27:09Z</time>
      </trkpt>
      <trkpt lat="41.76451" lon="9.08958">
        <ele>843.4</ele>
        <time>2021-06-03T12:27:10Z</time>
      </trkpt>
      <trkpt lat="41.76448" lon="9.08959">
        <ele>843.4</ele>
        <time>2021-06-03T12:27:11Z</time>
      </trkpt>
      <trkpt lat="41.76445" lon="9.0896">
        <ele>843.4</ele>
        <time>2021-06-03T12:27:12Z</time>
      </trkpt>
      <trkpt lat="41.76441" lon="9.0896">
        <ele>842.8</ele>
        <time>2021-06-03T12:27:13Z</time>
      </trkpt>
      <trkpt lat="41.76438" lon="9.08961">
        <ele>842.8</ele>
        <time>2021-06-03T12:27:14Z</time>
      </trkpt>
      <trkpt lat="41.76435" lon="9.08962">
        <ele>843.2</ele>
        <time>2021-06-03T12:27:15Z</time>
      </trkpt>
      <trkpt lat="41.76433" lon="9.08963">
        <ele>843.2</ele>
        <time>2021-06-03T12:27:16Z</time>
      </trkpt>
      <trkpt lat="41.7643" lon="9.08964">
        <ele>844.2</ele>
        <time>2021-06-03T12:27:17Z</time>
      </trkpt>
      <trkpt lat="41.76427" lon="9.08965">
        <ele>843.8</ele>
        <time>2021-06-03T12:27:18Z</time>
      </trkpt>
      <trkpt lat="41.76424" lon="9.08966">
        <ele>843.8</ele>
        <time>2021-06-03T12:27:19Z</time>
      </trkpt>
      <trkpt lat="41.76422" lon="9.08967">
        <ele>843.8</ele>
        <time>2021-06-03T12:27:20Z</time>
      </trkpt>
      <trkpt lat="41.76419" lon="9.08968">
        <ele>844.2</ele>
        <time>2021-06-03T12:27:21Z</time>
      </trkpt>
      <trkpt lat="41.76417" lon="9.08969">
        <ele>844.6</ele>
        <time>2021-06-03T12:27:22Z</time>
      </trkpt>
      <trkpt lat="41.76414" lon="9.0897">
        <ele>844.6</ele>
        <time>2021-06-03T12:27:23Z</time>
      </trkpt>
      <trkpt lat="41.76411" lon="9.08971">
        <ele>844.6</ele>
        <time>2021-06-03T12:27:24Z</time>
      </trkpt>
      <trkpt lat="41.76409" lon="9.08972">
        <ele>845.6</ele>
        <time>2021-06-03T12:27:25Z</time>
      </trkpt>
      <trkpt lat="41.76406" lon="9.08972">
        <ele>845.6</ele>
        <time>2021-06-03T12:27:26Z</time>
      </trkpt>
      <trkpt lat="41.76404" lon="9.08973">
        <ele>845.6</ele>
        <time>2021-06-03T12:27:27Z</time>
      </trkpt>
      <trkpt lat="41.76401" lon="9.08972">
        <ele>845.6</ele>
        <time>2021-06-03T12:27:28Z</time>
      </trkpt>
      <trkpt lat="41.76398" lon="9.08971">
        <ele>845.6</ele>
        <time>2021-06-03T12:27:29Z</time>
      </trkpt>
      <trkpt lat="41.76395" lon="9.0897">
        <ele>845.8</ele>
        <time>2021-06-03T12:27:30Z</time>
      </trkpt>
      <trkpt lat="41.76393" lon="9.08968">
        <ele>845.8</ele>
        <time>2021-06-03T12:27:31Z</time>
      </trkpt>
      <trkpt lat="41.76392" lon="9.08966">
        <ele>845.8</ele>
        <time>2021-06-03T12:27:32Z</time>
      </trkpt>
      <trkpt lat="41.76391" lon="9.08964">
        <ele>845.8</ele>
        <time>2021-06-03T12:27:33Z</time>
      </trkpt>
      <trkpt lat="41.7639" lon="9.0896">
        <ele>846</ele>
        <time>2021-06-03T12:27:34Z</time>
      </trkpt>
      <trkpt lat="41.76389" lon="9.08957">
        <ele>846</ele>
        <time>2021-06-03T12:27:35Z</time>
      </trkpt>
      <trkpt lat="41.76388" lon="9.08954">
        <ele>846</ele>
        <time>2021-06-03T12:27:36Z</time>
      </trkpt>
      <trkpt lat="41.76387" lon="9.08951">
        <ele>846</ele>
        <time>2021-06-03T12:27:37Z</time>
      </trkpt>
      <trkpt lat="41.76387" lon="9.08947">
        <ele>846</ele>
        <time>2021-06-03T12:27:38Z</time>
      </trkpt>
      <trkpt lat="41.76387" lon="9.08944">
        <ele>846</ele>
        <time>2021-06-03T12:27:39Z</time>
      </trkpt>
      <trkpt lat="41.76387" lon="9.0894">
        <ele>846</ele>
        <time>2021-06-03T12:27:40Z</time>
      </trkpt>
      <trkpt lat="41.76387" lon="9.08937">
        <ele>846.2</ele>
        <time>2021-06-03T12:27:41Z</time>
      </trkpt>
      <trkpt lat="41.76386" lon="9.08934">
        <ele>846.4</ele>
        <time>2021-06-03T12:27:42Z</time>
      </trkpt>
      <trkpt lat="41.76385" lon="9.08931">
        <ele>846.4</ele>
        <time>2021-06-03T12:27:43Z</time>
      </trkpt>
      <trkpt lat="41.76386" lon="9.08928">
        <ele>846.4</ele>
        <time>2021-06-03T12:27:44Z</time>
      </trkpt>
      <trkpt lat="41.76386" lon="9.08925">
        <ele>846.4</ele>
        <time>2021-06-03T12:27:45Z</time>
      </trkpt>
      <trkpt lat="41.76386" lon="9.08923">
        <ele>846.8</ele>
        <time>2021-06-03T12:27:46Z</time>
      </trkpt>
      <trkpt lat="41.76386" lon="9.0892">
        <ele>846.8</ele>
        <time>2021-06-03T12:27:47Z</time>
      </trkpt>
      <trkpt lat="41.76386" lon="9.08916">
        <ele>846.8</ele>
        <time>2021-06-03T12:27:48Z</time>
      </trkpt>
      <trkpt lat="41.76386" lon="9.08913">
        <ele>847</ele>
        <time>2021-06-03T12:27:49Z</time>
      </trkpt>
      <trkpt lat="41.76385" lon="9.0891">
        <ele>847.2</ele>
        <time>2021-06-03T12:27:50Z</time>
      </trkpt>
      <trkpt lat="41.76384" lon="9.08907">
        <ele>847.2</ele>
        <time>2021-06-03T12:27:51Z</time>
      </trkpt>
      <trkpt lat="41.76383" lon="9.08904">
        <ele>847.2</ele>
        <time>2021-06-03T12:27:52Z</time>
      </trkpt>
      <trkpt lat="41.76383" lon="9.08901">
        <ele>847.8</ele>
        <time>2021-06-03T12:27:53Z</time>
      </trkpt>
      <trkpt lat="41.76382" lon="9.08898">
        <ele>847.8</ele>
        <time>2021-06-03T12:27:54Z</time>
      </trkpt>
      <trkpt lat="41.76381" lon="9.08895">
        <ele>847.8</ele>
        <time>2021-06-03T12:27:55Z</time>
      </trkpt>
      <trkpt lat="41.7638" lon="9.08892">
        <ele>847.8</ele>
        <time>2021-06-03T12:27:56Z</time>
      </trkpt>
      <trkpt lat="41.76378" lon="9.08889">
        <ele>847.8</ele>
        <time>2021-06-03T12:27:57Z</time>
      </trkpt>
      <trkpt lat="41.76378" lon="9.08885">
        <ele>848</ele>
        <time>2021-06-03T12:27:58Z</time>
      </trkpt>
      <trkpt lat="41.76377" lon="9.08882">
        <ele>848</ele>
        <time>2021-06-03T12:27:59Z</time>
      </trkpt>
      <trkpt lat="41.76376" lon="9.0888">
        <ele>848</ele>
        <time>2021-06-03T12:28:00Z</time>
      </trkpt>
      <trkpt lat="41.76376" lon="9.08877">
        <ele>848</ele>
        <time>2021-06-03T12:28:01Z</time>
      </trkpt>
      <trkpt lat="41.76377" lon="9.08873">
        <ele>847.8</ele>
        <time>2021-06-03T12:28:02Z</time>
      </trkpt>
      <trkpt lat="41.76377" lon="9.08869">
        <ele>847.8</ele>
        <time>2021-06-03T12:28:03Z</time>
      </trkpt>
      <trkpt lat="41.76377" lon="9.08866">
        <ele>847.8</ele>
        <time>2021-06-03T12:28:04Z</time>
      </trkpt>
      <trkpt lat="41.76377" lon="9.08862">
        <ele>847.8</ele>
        <time>2021-06-03T12:28:05Z</time>
      </trkpt>
      <trkpt lat="41.76377" lon="9.08859">
        <ele>847.8</ele>
        <time>2021-06-03T12:28:06Z</time>
      </trkpt>
      <trkpt lat="41.76377" lon="9.08856">
        <ele>847.8</ele>
        <time>2021-06-03T12:28:07Z</time>
      </trkpt>
      <trkpt lat="41.76378" lon="9.08852">
        <ele>847.8</ele>
        <time>2021-06-03T12:28:08Z</time>
      </trkpt>
      <trkpt lat="41.76378" lon="9.08848">
        <ele>847.8</ele>
        <time>2021-06-03T12:28:09Z</time>
      </trkpt>
      <trkpt lat="41.76378" lon="9.08845">
        <ele>848</ele>
        <time>2021-06-03T12:28:10Z</time>
      </trkpt>
      <trkpt lat="41.76378" lon="9.08842">
        <ele>848</ele>
        <time>2021-06-03T12:28:11Z</time>
      </trkpt>
      <trkpt lat="41.76377" lon="9.08839">
        <ele>848</ele>
        <time>2021-06-03T12:28:12Z</time>
      </trkpt>
      <trkpt lat="41.76376" lon="9.08837">
        <ele>848</ele>
        <time>2021-06-03T12:28:13Z</time>
      </trkpt>
      <trkpt lat="41.76375" lon="9.08833">
        <ele>848</ele>
        <time>2021-06-03T12:28:14Z</time>
      </trkpt>
      <trkpt lat="41.76373" lon="9.08831">
        <ele>848</ele>
        <time>2021-06-03T12:28:15Z</time>
      </trkpt>
      <trkpt lat="41.76372" lon="9.08827">
        <ele>848</ele>
        <time>2021-06-03T12:28:16Z</time>
      </trkpt>
      <trkpt lat="41.76372" lon="9.08825">
        <ele>848</ele>
        <time>2021-06-03T12:28:17Z</time>
      </trkpt>
      <trkpt lat="41.76372" lon="9.08822">
        <ele>848</ele>
        <time>2021-06-03T12:28:18Z</time>
      </trkpt>
      <trkpt lat="41.76371" lon="9.08818">
        <ele>848</ele>
        <time>2021-06-03T12:28:19Z</time>
      </trkpt>
      <trkpt lat="41.76371" lon="9.08815">
        <ele>848</ele>
        <time>2021-06-03T12:28:20Z</time>
      </trkpt>
      <trkpt lat="41.76371" lon="9.08811">
        <ele>848</ele>
        <time>2021-06-03T12:28:21Z</time>
      </trkpt>
      <trkpt lat="41.7637" lon="9.0881">
        <ele>848</ele>
        <time>2021-06-03T12:28:22Z</time>
      </trkpt>
      <trkpt lat="41.7637" lon="9.08807">
        <ele>848</ele>
        <time>2021-06-03T12:28:23Z</time>
      </trkpt>
      <trkpt lat="41.76368" lon="9.08803">
        <ele>848</ele>
        <time>2021-06-03T12:28:24Z</time>
      </trkpt>
      <trkpt lat="41.76367" lon="9.08799">
        <ele>849</ele>
        <time>2021-06-03T12:28:25Z</time>
      </trkpt>
      <trkpt lat="41.76367" lon="9.08796">
        <ele>849</ele>
        <time>2021-06-03T12:28:26Z</time>
      </trkpt>
      <trkpt lat="41.76366" lon="9.08793">
        <ele>849.4</ele>
        <time>2021-06-03T12:28:27Z</time>
      </trkpt>
      <trkpt lat="41.76366" lon="9.0879">
        <ele>849.4</ele>
        <time>2021-06-03T12:28:28Z</time>
      </trkpt>
      <trkpt lat="41.76365" lon="9.08787">
        <ele>849.6</ele>
        <time>2021-06-03T12:28:29Z</time>
      </trkpt>
      <trkpt lat="41.76364" lon="9.08784">
        <ele>849.8</ele>
        <time>2021-06-03T12:28:30Z</time>
      </trkpt>
      <trkpt lat="41.76363" lon="9.08781">
        <ele>849.8</ele>
        <time>2021-06-03T12:28:31Z</time>
      </trkpt>
      <trkpt lat="41.76362" lon="9.08778">
        <ele>849.8</ele>
        <time>2021-06-03T12:28:32Z</time>
      </trkpt>
      <trkpt lat="41.76361" lon="9.08774">
        <ele>849.8</ele>
        <time>2021-06-03T12:28:33Z</time>
      </trkpt>
      <trkpt lat="41.76359" lon="9.08769">
        <ele>849.8</ele>
        <time>2021-06-03T12:28:34Z</time>
      </trkpt>
      <trkpt lat="41.76358" lon="9.08766">
        <ele>850.4</ele>
        <time>2021-06-03T12:28:35Z</time>
      </trkpt>
      <trkpt lat="41.76357" lon="9.08762">
        <ele>850.4</ele>
        <time>2021-06-03T12:28:36Z</time>
      </trkpt>
      <trkpt lat="41.76356" lon="9.08758">
        <ele>850.6</ele>
        <time>2021-06-03T12:28:37Z</time>
      </trkpt>
      <trkpt lat="41.76354" lon="9.08755">
        <ele>850.8</ele>
        <time>2021-06-03T12:28:38Z</time>
      </trkpt>
      <trkpt lat="41.76353" lon="9.08751">
        <ele>850.8</ele>
        <time>2021-06-03T12:28:39Z</time>
      </trkpt>
      <trkpt lat="41.76351" lon="9.08748">
        <ele>850.8</ele>
        <time>2021-06-03T12:28:40Z</time>
      </trkpt>
      <trkpt lat="41.7635" lon="9.08744">
        <ele>850.8</ele>
        <time>2021-06-03T12:28:41Z</time>
      </trkpt>
      <trkpt lat="41.76349" lon="9.08739">
        <ele>850.8</ele>
        <time>2021-06-03T12:28:42Z</time>
      </trkpt>
      <trkpt lat="41.76347" lon="9.08734">
        <ele>850.8</ele>
        <time>2021-06-03T12:28:43Z</time>
      </trkpt>
      <trkpt lat="41.76346" lon="9.08729">
        <ele>850.8</ele>
        <time>2021-06-03T12:28:44Z</time>
      </trkpt>
      <trkpt lat="41.76344" lon="9.08726">
        <ele>850.8</ele>
        <time>2021-06-03T12:28:45Z</time>
      </trkpt>
      <trkpt lat="41.76343" lon="9.08722">
        <ele>850.6</ele>
        <time>2021-06-03T12:28:46Z</time>
      </trkpt>
      <trkpt lat="41.76341" lon="9.08718">
        <ele>850.6</ele>
        <time>2021-06-03T12:28:47Z</time>
      </trkpt>
      <trkpt lat="41.7634" lon="9.08714">
        <ele>850.6</ele>
        <time>2021-06-03T12:28:48Z</time>
      </trkpt>
      <trkpt lat="41.76338" lon="9.08711">
        <ele>850.6</ele>
        <time>2021-06-03T12:28:49Z</time>
      </trkpt>
      <trkpt lat="41.76337" lon="9.08708">
        <ele>850.8</ele>
        <time>2021-06-03T12:28:50Z</time>
      </trkpt>
      <trkpt lat="41.76335" lon="9.08705">
        <ele>850.8</ele>
        <time>2021-06-03T12:28:51Z</time>
      </trkpt>
      <trkpt lat="41.76333" lon="9.08702">
        <ele>850.8</ele>
        <time>2021-06-03T12:28:52Z</time>
      </trkpt>
      <trkpt lat="41.76331" lon="9.08698">
        <ele>850.8</ele>
        <time>2021-06-03T12:28:53Z</time>
      </trkpt>
      <trkpt lat="41.7633" lon="9.08695">
        <ele>850.8</ele>
        <time>2021-06-03T12:28:54Z</time>
      </trkpt>
      <trkpt lat="41.76328" lon="9.08692">
        <ele>850.6</ele>
        <time>2021-06-03T12:28:55Z</time>
      </trkpt>
      <trkpt lat="41.76326" lon="9.08687">
        <ele>850.6</ele>
        <time>2021-06-03T12:28:56Z</time>
      </trkpt>
      <trkpt lat="41.76325" lon="9.08683">
        <ele>850.8</ele>
        <time>2021-06-03T12:28:57Z</time>
      </trkpt>
      <trkpt lat="41.76323" lon="9.08679">
        <ele>851</ele>
        <time>2021-06-03T12:28:58Z</time>
      </trkpt>
      <trkpt lat="41.76321" lon="9.08676">
        <ele>851</ele>
        <time>2021-06-03T12:28:59Z</time>
      </trkpt>
      <trkpt lat="41.76319" lon="9.08672">
        <ele>851</ele>
        <time>2021-06-03T12:29:00Z</time>
      </trkpt>
      <trkpt lat="41.76317" lon="9.08667">
        <ele>851.2</ele>
        <time>2021-06-03T12:29:01Z</time>
      </trkpt>
      <trkpt lat="41.76316" lon="9.08663">
        <ele>851.2</ele>
        <time>2021-06-03T12:29:02Z</time>
      </trkpt>
      <trkpt lat="41.76314" lon="9.08659">
        <ele>852</ele>
        <time>2021-06-03T12:29:03Z</time>
      </trkpt>
      <trkpt lat="41.76312" lon="9.08655">
        <ele>852</ele>
        <time>2021-06-03T12:29:04Z</time>
      </trkpt>
      <trkpt lat="41.76311" lon="9.08651">
        <ele>852.4</ele>
        <time>2021-06-03T12:29:05Z</time>
      </trkpt>
      <trkpt lat="41.76309" lon="9.08647">
        <ele>852.6</ele>
        <time>2021-06-03T12:29:06Z</time>
      </trkpt>
      <trkpt lat="41.76308" lon="9.08643">
        <ele>852.6</ele>
        <time>2021-06-03T12:29:07Z</time>
      </trkpt>
      <trkpt lat="41.76306" lon="9.08639">
        <ele>852.6</ele>
        <time>2021-06-03T12:29:08Z</time>
      </trkpt>
      <trkpt lat="41.76305" lon="9.08636">
        <ele>853</ele>
        <time>2021-06-03T12:29:09Z</time>
      </trkpt>
      <trkpt lat="41.76304" lon="9.08632">
        <ele>853.2</ele>
        <time>2021-06-03T12:29:10Z</time>
      </trkpt>
      <trkpt lat="41.76302" lon="9.08629">
        <ele>853.2</ele>
        <time>2021-06-03T12:29:11Z</time>
      </trkpt>
      <trkpt lat="41.76301" lon="9.08625">
        <ele>853.2</ele>
        <time>2021-06-03T12:29:12Z</time>
      </trkpt>
      <trkpt lat="41.76299" lon="9.08621">
        <ele>853.4</ele>
        <time>2021-06-03T12:29:13Z</time>
      </trkpt>
      <trkpt lat="41.76298" lon="9.08617">
        <ele>853.4</ele>
        <time>2021-06-03T12:29:14Z</time>
      </trkpt>
      <trkpt lat="41.76297" lon="9.08613">
        <ele>853.4</ele>
        <time>2021-06-03T12:29:15Z</time>
      </trkpt>
      <trkpt lat="41.76295" lon="9.08609">
        <ele>853.4</ele>
        <time>2021-06-03T12:29:16Z</time>
      </trkpt>
      <trkpt lat="41.76294" lon="9.08605">
        <ele>853.4</ele>
        <time>2021-06-03T12:29:17Z</time>
      </trkpt>
      <trkpt lat="41.76293" lon="9.08601">
        <ele>854</ele>
        <time>2021-06-03T12:29:18Z</time>
      </trkpt>
      <trkpt lat="41.76292" lon="9.08598">
        <ele>854</ele>
        <time>2021-06-03T12:29:19Z</time>
      </trkpt>
      <trkpt lat="41.76291" lon="9.08595">
        <ele>854</ele>
        <time>2021-06-03T12:29:20Z</time>
      </trkpt>
      <trkpt lat="41.76289" lon="9.08591">
        <ele>854.6</ele>
        <time>2021-06-03T12:29:21Z</time>
      </trkpt>
      <trkpt lat="41.76288" lon="9.08588">
        <ele>854.2</ele>
        <time>2021-06-03T12:29:22Z</time>
      </trkpt>
      <trkpt lat="41.76287" lon="9.08584">
        <ele>854.2</ele>
        <time>2021-06-03T12:29:23Z</time>
      </trkpt>
      <trkpt lat="41.76286" lon="9.08581">
        <ele>854.2</ele>
        <time>2021-06-03T12:29:24Z</time>
      </trkpt>
      <trkpt lat="41.76285" lon="9.08577">
        <ele>855</ele>
        <time>2021-06-03T12:29:25Z</time>
      </trkpt>
      <trkpt lat="41.76284" lon="9.08574">
        <ele>855</ele>
        <time>2021-06-03T12:29:26Z</time>
      </trkpt>
      <trkpt lat="41.76283" lon="9.08571">
        <ele>855</ele>
        <time>2021-06-03T12:29:27Z</time>
      </trkpt>
      <trkpt lat="41.76282" lon="9.08568">
        <ele>855</ele>
        <time>2021-06-03T12:29:28Z</time>
      </trkpt>
      <trkpt lat="41.76282" lon="9.08565">
        <ele>855</ele>
        <time>2021-06-03T12:29:29Z</time>
      </trkpt>
      <trkpt lat="41.76282" lon="9.08562">
        <ele>855.6</ele>
        <time>2021-06-03T12:29:30Z</time>
      </trkpt>
      <trkpt lat="41.76281" lon="9.0856">
        <ele>855.6</ele>
        <time>2021-06-03T12:29:31Z</time>
      </trkpt>
      <trkpt lat="41.76281" lon="9.08556">
        <ele>855.6</ele>
        <time>2021-06-03T12:29:32Z</time>
      </trkpt>
      <trkpt lat="41.7628" lon="9.08552">
        <ele>855.6</ele>
        <time>2021-06-03T12:29:33Z</time>
      </trkpt>
      <trkpt lat="41.76279" lon="9.08548">
        <ele>856.2</ele>
        <time>2021-06-03T12:29:34Z</time>
      </trkpt>
      <trkpt lat="41.76279" lon="9.08544">
        <ele>856.2</ele>
        <time>2021-06-03T12:29:35Z</time>
      </trkpt>
      <trkpt lat="41.76278" lon="9.08541">
        <ele>856.2</ele>
        <time>2021-06-03T12:29:36Z</time>
      </trkpt>
      <trkpt lat="41.76278" lon="9.08539">
        <ele>855.8</ele>
        <time>2021-06-03T12:29:37Z</time>
      </trkpt>
      <trkpt lat="41.76277" lon="9.08537">
        <ele>856</ele>
        <time>2021-06-03T12:29:38Z</time>
      </trkpt>
      <trkpt lat="41.76277" lon="9.08533">
        <ele>856</ele>
        <time>2021-06-03T12:29:39Z</time>
      </trkpt>
      <trkpt lat="41.76278" lon="9.08528">
        <ele>856</ele>
        <time>2021-06-03T12:29:40Z</time>
      </trkpt>
      <trkpt lat="41.76277" lon="9.08524">
        <ele>856.2</ele>
        <time>2021-06-03T12:29:41Z</time>
      </trkpt>
      <trkpt lat="41.76277" lon="9.0852">
        <ele>856.2</ele>
        <time>2021-06-03T12:29:42Z</time>
      </trkpt>
      <trkpt lat="41.76277" lon="9.08516">
        <ele>856.8</ele>
        <time>2021-06-03T12:29:43Z</time>
      </trkpt>
      <trkpt lat="41.76276" lon="9.08512">
        <ele>856.8</ele>
        <time>2021-06-03T12:29:44Z</time>
      </trkpt>
      <trkpt lat="41.76276" lon="9.08509">
        <ele>856.8</ele>
        <time>2021-06-03T12:29:45Z</time>
      </trkpt>
      <trkpt lat="41.76276" lon="9.08505">
        <ele>857.2</ele>
        <time>2021-06-03T12:29:46Z</time>
      </trkpt>
      <trkpt lat="41.76276" lon="9.08503">
        <ele>857.2</ele>
        <time>2021-06-03T12:29:47Z</time>
      </trkpt>
      <trkpt lat="41.76274" lon="9.08498">
        <ele>857.2</ele>
        <time>2021-06-03T12:29:48Z</time>
      </trkpt>
      <trkpt lat="41.76273" lon="9.08494">
        <ele>857.8</ele>
        <time>2021-06-03T12:29:49Z</time>
      </trkpt>
      <trkpt lat="41.76272" lon="9.0849">
        <ele>857.8</ele>
        <time>2021-06-03T12:29:50Z</time>
      </trkpt>
      <trkpt lat="41.76271" lon="9.08486">
        <ele>857.8</ele>
        <time>2021-06-03T12:29:51Z</time>
      </trkpt>
      <trkpt lat="41.76269" lon="9.08481">
        <ele>857.8</ele>
        <time>2021-06-03T12:29:52Z</time>
      </trkpt>
      <trkpt lat="41.76268" lon="9.08477">
        <ele>857.4</ele>
        <time>2021-06-03T12:29:53Z</time>
      </trkpt>
      <trkpt lat="41.76266" lon="9.08474">
        <ele>857.6</ele>
        <time>2021-06-03T12:29:54Z</time>
      </trkpt>
      <trkpt lat="41.76264" lon="9.0847">
        <ele>857.6</ele>
        <time>2021-06-03T12:29:55Z</time>
      </trkpt>
      <trkpt lat="41.76262" lon="9.08465">
        <ele>857.6</ele>
        <time>2021-06-03T12:29:56Z</time>
      </trkpt>
      <trkpt lat="41.76259" lon="9.0846">
        <ele>857.8</ele>
        <time>2021-06-03T12:29:57Z</time>
      </trkpt>
      <trkpt lat="41.76258" lon="9.08456">
        <ele>858.2</ele>
        <time>2021-06-03T12:29:58Z</time>
      </trkpt>
      <trkpt lat="41.76256" lon="9.08452">
        <ele>858.2</ele>
        <time>2021-06-03T12:29:59Z</time>
      </trkpt>
      <trkpt lat="41.76254" lon="9.08449">
        <ele>858.2</ele>
        <time>2021-06-03T12:30:00Z</time>
      </trkpt>
      <trkpt lat="41.76252" lon="9.08446">
        <ele>858.2</ele>
        <time>2021-06-03T12:30:01Z</time>
      </trkpt>
      <trkpt lat="41.76251" lon="9.08443">
        <ele>858.4</ele>
        <time>2021-06-03T12:30:02Z</time>
      </trkpt>
      <trkpt lat="41.7625" lon="9.0844">
        <ele>858.4</ele>
        <time>2021-06-03T12:30:03Z</time>
      </trkpt>
      <trkpt lat="41.76248" lon="9.08437">
        <ele>858.4</ele>
        <time>2021-06-03T12:30:04Z</time>
      </trkpt>
      <trkpt lat="41.76246" lon="9.08434">
        <ele>858.4</ele>
        <time>2021-06-03T12:30:05Z</time>
      </trkpt>
      <trkpt lat="41.76245" lon="9.0843">
        <ele>858.4</ele>
        <time>2021-06-03T12:30:06Z</time>
      </trkpt>
      <trkpt lat="41.76243" lon="9.08427">
        <ele>858.4</ele>
        <time>2021-06-03T12:30:07Z</time>
      </trkpt>
      <trkpt lat="41.76242" lon="9.08424">
        <ele>858.4</ele>
        <time>2021-06-03T12:30:08Z</time>
      </trkpt>
      <trkpt lat="41.76241" lon="9.08421">
        <ele>858.4</ele>
        <time>2021-06-03T12:30:09Z</time>
      </trkpt>
      <trkpt lat="41.76239" lon="9.08418">
        <ele>858.4</ele>
        <time>2021-06-03T12:30:10Z</time>
      </trkpt>
      <trkpt lat="41.76238" lon="9.08416">
        <ele>858.6</ele>
        <time>2021-06-03T12:30:11Z</time>
      </trkpt>
      <trkpt lat="41.76237" lon="9.08412">
        <ele>858.6</ele>
        <time>2021-06-03T12:30:12Z</time>
      </trkpt>
      <trkpt lat="41.76236" lon="9.08409">
        <ele>858.6</ele>
        <time>2021-06-03T12:30:13Z</time>
      </trkpt>
      <trkpt lat="41.76236" lon="9.08405">
        <ele>859</ele>
        <time>2021-06-03T12:30:14Z</time>
      </trkpt>
      <trkpt lat="41.76235" lon="9.08403">
        <ele>859</ele>
        <time>2021-06-03T12:30:15Z</time>
      </trkpt>
      <trkpt lat="41.76234" lon="9.084">
        <ele>859</ele>
        <time>2021-06-03T12:30:16Z</time>
      </trkpt>
      <trkpt lat="41.76233" lon="9.08396">
        <ele>859.6</ele>
        <time>2021-06-03T12:30:17Z</time>
      </trkpt>
      <trkpt lat="41.76232" lon="9.08393">
        <ele>859.2</ele>
        <time>2021-06-03T12:30:18Z</time>
      </trkpt>
      <trkpt lat="41.76231" lon="9.0839">
        <ele>859.2</ele>
        <time>2021-06-03T12:30:19Z</time>
      </trkpt>
      <trkpt lat="41.76229" lon="9.08386">
        <ele>859.2</ele>
        <time>2021-06-03T12:30:20Z</time>
      </trkpt>
      <trkpt lat="41.76227" lon="9.08382">
        <ele>859</ele>
        <time>2021-06-03T12:30:21Z</time>
      </trkpt>
      <trkpt lat="41.76226" lon="9.08379">
        <ele>859.2</ele>
        <time>2021-06-03T12:30:22Z</time>
      </trkpt>
      <trkpt lat="41.76224" lon="9.08376">
        <ele>859.2</ele>
        <time>2021-06-03T12:30:23Z</time>
      </trkpt>
      <trkpt lat="41.76222" lon="9.08373">
        <ele>859.2</ele>
        <time>2021-06-03T12:30:24Z</time>
      </trkpt>
      <trkpt lat="41.7622" lon="9.0837">
        <ele>859.2</ele>
        <time>2021-06-03T12:30:25Z</time>
      </trkpt>
      <trkpt lat="41.76218" lon="9.08368">
        <ele>859.4</ele>
        <time>2021-06-03T12:30:26Z</time>
      </trkpt>
      <trkpt lat="41.76217" lon="9.08366">
        <ele>859.4</ele>
        <time>2021-06-03T12:30:27Z</time>
      </trkpt>
      <trkpt lat="41.76215" lon="9.08363">
        <ele>859.4</ele>
        <time>2021-06-03T12:30:28Z</time>
      </trkpt>
      <trkpt lat="41.76213" lon="9.08361">
        <ele>860.2</ele>
        <time>2021-06-03T12:30:29Z</time>
      </trkpt>
      <trkpt lat="41.7621" lon="9.08359">
        <ele>860.2</ele>
        <time>2021-06-03T12:30:30Z</time>
      </trkpt>
      <trkpt lat="41.76208" lon="9.08357">
        <ele>860.2</ele>
        <time>2021-06-03T12:30:31Z</time>
      </trkpt>
      <trkpt lat="41.76206" lon="9.08355">
        <ele>860.2</ele>
        <time>2021-06-03T12:30:32Z</time>
      </trkpt>
      <trkpt lat="41.76203" lon="9.08352">
        <ele>860.2</ele>
        <time>2021-06-03T12:30:33Z</time>
      </trkpt>
      <trkpt lat="41.76201" lon="9.0835">
        <ele>860</ele>
        <time>2021-06-03T12:30:34Z</time>
      </trkpt>
      <trkpt lat="41.76199" lon="9.08347">
        <ele>860</ele>
        <time>2021-06-03T12:30:35Z</time>
      </trkpt>
      <trkpt lat="41.76197" lon="9.08345">
        <ele>860</ele>
        <time>2021-06-03T12:30:36Z</time>
      </trkpt>
      <trkpt lat="41.76194" lon="9.08343">
        <ele>860</ele>
        <time>2021-06-03T12:30:37Z</time>
      </trkpt>
      <trkpt lat="41.76192" lon="9.08341">
        <ele>860</ele>
        <time>2021-06-03T12:30:38Z</time>
      </trkpt>
      <trkpt lat="41.7619" lon="9.08339">
        <ele>860</ele>
        <time>2021-06-03T12:30:39Z</time>
      </trkpt>
      <trkpt lat="41.76187" lon="9.08338">
        <ele>860</ele>
        <time>2021-06-03T12:30:40Z</time>
      </trkpt>
      <trkpt lat="41.76185" lon="9.08336">
        <ele>860</ele>
        <time>2021-06-03T12:30:41Z</time>
      </trkpt>
      <trkpt lat="41.76183" lon="9.08334">
        <ele>860.4</ele>
        <time>2021-06-03T12:30:42Z</time>
      </trkpt>
      <trkpt lat="41.76181" lon="9.08331">
        <ele>860.4</ele>
        <time>2021-06-03T12:30:43Z</time>
      </trkpt>
      <trkpt lat="41.76179" lon="9.08329">
        <ele>860.4</ele>
        <time>2021-06-03T12:30:44Z</time>
      </trkpt>
      <trkpt lat="41.76177" lon="9.08328">
        <ele>860.4</ele>
        <time>2021-06-03T12:30:45Z</time>
      </trkpt>
      <trkpt lat="41.76175" lon="9.08325">
        <ele>861</ele>
        <time>2021-06-03T12:30:46Z</time>
      </trkpt>
      <trkpt lat="41.76173" lon="9.08323">
        <ele>861</ele>
        <time>2021-06-03T12:30:47Z</time>
      </trkpt>
      <trkpt lat="41.7617" lon="9.0832">
        <ele>861</ele>
        <time>2021-06-03T12:30:48Z</time>
      </trkpt>
      <trkpt lat="41.76168" lon="9.08318">
        <ele>861</ele>
        <time>2021-06-03T12:30:49Z</time>
      </trkpt>
      <trkpt lat="41.76166" lon="9.08316">
        <ele>861</ele>
        <time>2021-06-03T12:30:50Z</time>
      </trkpt>
      <trkpt lat="41.76164" lon="9.08314">
        <ele>861.4</ele>
        <time>2021-06-03T12:30:51Z</time>
      </trkpt>
      <trkpt lat="41.76161" lon="9.08312">
        <ele>861.4</ele>
        <time>2021-06-03T12:30:52Z</time>
      </trkpt>
      <trkpt lat="41.76159" lon="9.08311">
        <ele>861.4</ele>
        <time>2021-06-03T12:30:53Z</time>
      </trkpt>
      <trkpt lat="41.76156" lon="9.08309">
        <ele>861.6</ele>
        <time>2021-06-03T12:30:54Z</time>
      </trkpt>
      <trkpt lat="41.76154" lon="9.08308">
        <ele>861.6</ele>
        <time>2021-06-03T12:30:55Z</time>
      </trkpt>
      <trkpt lat="41.76151" lon="9.08306">
        <ele>861.6</ele>
        <time>2021-06-03T12:30:56Z</time>
      </trkpt>
      <trkpt lat="41.76149" lon="9.08304">
        <ele>861.6</ele>
        <time>2021-06-03T12:30:57Z</time>
      </trkpt>
      <trkpt lat="41.76146" lon="9.08302">
        <ele>862</ele>
        <time>2021-06-03T12:30:58Z</time>
      </trkpt>
      <trkpt lat="41.76144" lon="9.083">
        <ele>862</ele>
        <time>2021-06-03T12:30:59Z</time>
      </trkpt>
      <trkpt lat="41.76141" lon="9.08298">
        <ele>862</ele>
        <time>2021-06-03T12:31:00Z</time>
      </trkpt>
      <trkpt lat="41.76138" lon="9.08296">
        <ele>862</ele>
        <time>2021-06-03T12:31:01Z</time>
      </trkpt>
      <trkpt lat="41.76136" lon="9.08295">
        <ele>861.6</ele>
        <time>2021-06-03T12:31:02Z</time>
      </trkpt>
      <trkpt lat="41.76133" lon="9.08293">
        <ele>861.6</ele>
        <time>2021-06-03T12:31:03Z</time>
      </trkpt>
      <trkpt lat="41.7613" lon="9.08292">
        <ele>861.6</ele>
        <time>2021-06-03T12:31:04Z</time>
      </trkpt>
      <trkpt lat="41.76127" lon="9.0829">
        <ele>862</ele>
        <time>2021-06-03T12:31:05Z</time>
      </trkpt>
      <trkpt lat="41.76124" lon="9.08288">
        <ele>862</ele>
        <time>2021-06-03T12:31:06Z</time>
      </trkpt>
      <trkpt lat="41.76121" lon="9.08288">
        <ele>862</ele>
        <time>2021-06-03T12:31:07Z</time>
      </trkpt>
      <trkpt lat="41.76118" lon="9.08286">
        <ele>862</ele>
        <time>2021-06-03T12:31:08Z</time>
      </trkpt>
      <trkpt lat="41.76115" lon="9.08285">
        <ele>862</ele>
        <time>2021-06-03T12:31:09Z</time>
      </trkpt>
      <trkpt lat="41.76112" lon="9.08285">
        <ele>862.4</ele>
        <time>2021-06-03T12:31:10Z</time>
      </trkpt>
      <trkpt lat="41.76109" lon="9.08284">
        <ele>862.4</ele>
        <time>2021-06-03T12:31:11Z</time>
      </trkpt>
      <trkpt lat="41.76106" lon="9.08283">
        <ele>862.4</ele>
        <time>2021-06-03T12:31:12Z</time>
      </trkpt>
      <trkpt lat="41.76103" lon="9.08282">
        <ele>862.8</ele>
        <time>2021-06-03T12:31:13Z</time>
      </trkpt>
      <trkpt lat="41.761" lon="9.08281">
        <ele>863</ele>
        <time>2021-06-03T12:31:14Z</time>
      </trkpt>
      <trkpt lat="41.76098" lon="9.0828">
        <ele>863</ele>
        <time>2021-06-03T12:31:15Z</time>
      </trkpt>
      <trkpt lat="41.76095" lon="9.0828">
        <ele>863</ele>
        <time>2021-06-03T12:31:16Z</time>
      </trkpt>
      <trkpt lat="41.76092" lon="9.0828">
        <ele>862.8</ele>
        <time>2021-06-03T12:31:17Z</time>
      </trkpt>
      <trkpt lat="41.76089" lon="9.08279">
        <ele>863.2</ele>
        <time>2021-06-03T12:31:18Z</time>
      </trkpt>
      <trkpt lat="41.76086" lon="9.08279">
        <ele>863.2</ele>
        <time>2021-06-03T12:31:19Z</time>
      </trkpt>
      <trkpt lat="41.76083" lon="9.08278">
        <ele>863.2</ele>
        <time>2021-06-03T12:31:20Z</time>
      </trkpt>
      <trkpt lat="41.7608" lon="9.08276">
        <ele>863.4</ele>
        <time>2021-06-03T12:31:21Z</time>
      </trkpt>
      <trkpt lat="41.76077" lon="9.08275">
        <ele>863.2</ele>
        <time>2021-06-03T12:31:22Z</time>
      </trkpt>
      <trkpt lat="41.76074" lon="9.08273">
        <ele>863.2</ele>
        <time>2021-06-03T12:31:23Z</time>
      </trkpt>
      <trkpt lat="41.76071" lon="9.08271">
        <ele>863.2</ele>
        <time>2021-06-03T12:31:24Z</time>
      </trkpt>
      <trkpt lat="41.76069" lon="9.08269">
        <ele>863.2</ele>
        <time>2021-06-03T12:31:25Z</time>
      </trkpt>
      <trkpt lat="41.76067" lon="9.08267">
        <ele>863.6</ele>
        <time>2021-06-03T12:31:26Z</time>
      </trkpt>
      <trkpt lat="41.76064" lon="9.08265">
        <ele>863.6</ele>
        <time>2021-06-03T12:31:27Z</time>
      </trkpt>
      <trkpt lat="41.76062" lon="9.08263">
        <ele>863.6</ele>
        <time>2021-06-03T12:31:28Z</time>
      </trkpt>
      <trkpt lat="41.7606" lon="9.0826">
        <ele>863.6</ele>
        <time>2021-06-03T12:31:29Z</time>
      </trkpt>
      <trkpt lat="41.76057" lon="9.08258">
        <ele>864.4</ele>
        <time>2021-06-03T12:31:30Z</time>
      </trkpt>
      <trkpt lat="41.76055" lon="9.08255">
        <ele>864.4</ele>
        <time>2021-06-03T12:31:31Z</time>
      </trkpt>
      <trkpt lat="41.76053" lon="9.08253">
        <ele>864.4</ele>
        <time>2021-06-03T12:31:32Z</time>
      </trkpt>
      <trkpt lat="41.76051" lon="9.08251">
        <ele>864.4</ele>
        <time>2021-06-03T12:31:33Z</time>
      </trkpt>
      <trkpt lat="41.7605" lon="9.08249">
        <ele>864.6</ele>
        <time>2021-06-03T12:31:34Z</time>
      </trkpt>
      <trkpt lat="41.76048" lon="9.08246">
        <ele>864.6</ele>
        <time>2021-06-03T12:31:35Z</time>
      </trkpt>
      <trkpt lat="41.76047" lon="9.08244">
        <ele>864.6</ele>
        <time>2021-06-03T12:31:36Z</time>
      </trkpt>
      <trkpt lat="41.76045" lon="9.08242">
        <ele>864.6</ele>
        <time>2021-06-03T12:31:37Z</time>
      </trkpt>
      <trkpt lat="41.76043" lon="9.0824">
        <ele>864.6</ele>
        <time>2021-06-03T12:31:38Z</time>
      </trkpt>
      <trkpt lat="41.7604" lon="9.08237">
        <ele>864.4</ele>
        <time>2021-06-03T12:31:39Z</time>
      </trkpt>
      <trkpt lat="41.76038" lon="9.08234">
        <ele>864.4</ele>
        <time>2021-06-03T12:31:40Z</time>
      </trkpt>
      <trkpt lat="41.76036" lon="9.08232">
        <ele>864.4</ele>
        <time>2021-06-03T12:31:41Z</time>
      </trkpt>
      <trkpt lat="41.76034" lon="9.0823">
        <ele>864.6</ele>
        <time>2021-06-03T12:31:42Z</time>
      </trkpt>
      <trkpt lat="41.76032" lon="9.08229">
        <ele>864.6</ele>
        <time>2021-06-03T12:31:43Z</time>
      </trkpt>
      <trkpt lat="41.76029" lon="9.08228">
        <ele>864.6</ele>
        <time>2021-06-03T12:31:44Z</time>
      </trkpt>
      <trkpt lat="41.76027" lon="9.08226">
        <ele>864.8</ele>
        <time>2021-06-03T12:31:45Z</time>
      </trkpt>
      <trkpt lat="41.76024" lon="9.08225">
        <ele>864.8</ele>
        <time>2021-06-03T12:31:46Z</time>
      </trkpt>
      <trkpt lat="41.76021" lon="9.08224">
        <ele>864.8</ele>
        <time>2021-06-03T12:31:47Z</time>
      </trkpt>
      <trkpt lat="41.76018" lon="9.08223">
        <ele>864.8</ele>
        <time>2021-06-03T12:31:48Z</time>
      </trkpt>
      <trkpt lat="41.76016" lon="9.08222">
        <ele>865.6</ele>
        <time>2021-06-03T12:31:49Z</time>
      </trkpt>
      <trkpt lat="41.76013" lon="9.08221">
        <ele>865.6</ele>
        <time>2021-06-03T12:31:50Z</time>
      </trkpt>
      <trkpt lat="41.7601" lon="9.0822">
        <ele>865.6</ele>
        <time>2021-06-03T12:31:51Z</time>
      </trkpt>
      <trkpt lat="41.76007" lon="9.0822">
        <ele>865.6</ele>
        <time>2021-06-03T12:31:52Z</time>
      </trkpt>
      <trkpt lat="41.76005" lon="9.08219">
        <ele>865.6</ele>
        <time>2021-06-03T12:31:53Z</time>
      </trkpt>
      <trkpt lat="41.76002" lon="9.08219">
        <ele>866.2</ele>
        <time>2021-06-03T12:31:54Z</time>
      </trkpt>
      <trkpt lat="41.75999" lon="9.08218">
        <ele>866.2</ele>
        <time>2021-06-03T12:31:55Z</time>
      </trkpt>
      <trkpt lat="41.75996" lon="9.08218">
        <ele>866.2</ele>
        <time>2021-06-03T12:31:56Z</time>
      </trkpt>
      <trkpt lat="41.75993" lon="9.08218">
        <ele>865.8</ele>
        <time>2021-06-03T12:31:57Z</time>
      </trkpt>
      <trkpt lat="41.7599" lon="9.08218">
        <ele>865.8</ele>
        <time>2021-06-03T12:31:58Z</time>
      </trkpt>
      <trkpt lat="41.75987" lon="9.08218">
        <ele>865.8</ele>
        <time>2021-06-03T12:31:59Z</time>
      </trkpt>
      <trkpt lat="41.75984" lon="9.08218">
        <ele>865.8</ele>
        <time>2021-06-03T12:32:00Z</time>
      </trkpt>
      <trkpt lat="41.7598" lon="9.08217">
        <ele>866.4</ele>
        <time>2021-06-03T12:32:01Z</time>
      </trkpt>
      <trkpt lat="41.75977" lon="9.08216">
        <ele>866.6</ele>
        <time>2021-06-03T12:32:02Z</time>
      </trkpt>
      <trkpt lat="41.75974" lon="9.08215">
        <ele>866.6</ele>
        <time>2021-06-03T12:32:03Z</time>
      </trkpt>
      <trkpt lat="41.75971" lon="9.08213">
        <ele>866.6</ele>
        <time>2021-06-03T12:32:04Z</time>
      </trkpt>
      <trkpt lat="41.75968" lon="9.08212">
        <ele>867.2</ele>
        <time>2021-06-03T12:32:05Z</time>
      </trkpt>
      <trkpt lat="41.75965" lon="9.0821">
        <ele>866.8</ele>
        <time>2021-06-03T12:32:06Z</time>
      </trkpt>
      <trkpt lat="41.75962" lon="9.08208">
        <ele>866.8</ele>
        <time>2021-06-03T12:32:07Z</time>
      </trkpt>
      <trkpt lat="41.75959" lon="9.08206">
        <ele>866.8</ele>
        <time>2021-06-03T12:32:08Z</time>
      </trkpt>
      <trkpt lat="41.75957" lon="9.08203">
        <ele>867.8</ele>
        <time>2021-06-03T12:32:09Z</time>
      </trkpt>
      <trkpt lat="41.75955" lon="9.082">
        <ele>868</ele>
        <time>2021-06-03T12:32:10Z</time>
      </trkpt>
      <trkpt lat="41.75954" lon="9.08197">
        <ele>868</ele>
        <time>2021-06-03T12:32:11Z</time>
      </trkpt>
      <trkpt lat="41.75952" lon="9.08194">
        <ele>868</ele>
        <time>2021-06-03T12:32:12Z</time>
      </trkpt>
      <trkpt lat="41.7595" lon="9.08191">
        <ele>868</ele>
        <time>2021-06-03T12:32:13Z</time>
      </trkpt>
      <trkpt lat="41.75948" lon="9.08188">
        <ele>867.8</ele>
        <time>2021-06-03T12:32:14Z</time>
      </trkpt>
      <trkpt lat="41.75946" lon="9.08186">
        <ele>867.8</ele>
        <time>2021-06-03T12:32:15Z</time>
      </trkpt>
      <trkpt lat="41.75944" lon="9.08183">
        <ele>867.8</ele>
        <time>2021-06-03T12:32:16Z</time>
      </trkpt>
      <trkpt lat="41.75942" lon="9.0818">
        <ele>867.8</ele>
        <time>2021-06-03T12:32:17Z</time>
      </trkpt>
      <trkpt lat="41.7594" lon="9.08177">
        <ele>868.4</ele>
        <time>2021-06-03T12:32:18Z</time>
      </trkpt>
      <trkpt lat="41.75937" lon="9.08175">
        <ele>868.4</ele>
        <time>2021-06-03T12:32:19Z</time>
      </trkpt>
      <trkpt lat="41.75935" lon="9.08175">
        <ele>868.4</ele>
        <time>2021-06-03T12:32:20Z</time>
      </trkpt>
      <trkpt lat="41.75932" lon="9.08173">
        <ele>868.4</ele>
        <time>2021-06-03T12:32:21Z</time>
      </trkpt>
      <trkpt lat="41.75929" lon="9.08171">
        <ele>869</ele>
        <time>2021-06-03T12:32:22Z</time>
      </trkpt>
      <trkpt lat="41.75926" lon="9.0817">
        <ele>869</ele>
        <time>2021-06-03T12:32:23Z</time>
      </trkpt>
      <trkpt lat="41.75924" lon="9.08169">
        <ele>869</ele>
        <time>2021-06-03T12:32:24Z</time>
      </trkpt>
      <trkpt lat="41.75921" lon="9.08168">
        <ele>869.6</ele>
        <time>2021-06-03T12:32:25Z</time>
      </trkpt>
      <trkpt lat="41.75919" lon="9.08167">
        <ele>869.6</ele>
        <time>2021-06-03T12:32:26Z</time>
      </trkpt>
      <trkpt lat="41.75916" lon="9.08165">
        <ele>869.6</ele>
        <time>2021-06-03T12:32:27Z</time>
      </trkpt>
      <trkpt lat="41.75912" lon="9.08163">
        <ele>869.6</ele>
        <time>2021-06-03T12:32:28Z</time>
      </trkpt>
      <trkpt lat="41.75909" lon="9.08161">
        <ele>869.6</ele>
        <time>2021-06-03T12:32:29Z</time>
      </trkpt>
      <trkpt lat="41.75907" lon="9.0816">
        <ele>869.4</ele>
        <time>2021-06-03T12:32:30Z</time>
      </trkpt>
      <trkpt lat="41.75904" lon="9.08158">
        <ele>869.4</ele>
        <time>2021-06-03T12:32:31Z</time>
      </trkpt>
      <trkpt lat="41.75901" lon="9.08156">
        <ele>869.4</ele>
        <time>2021-06-03T12:32:32Z</time>
      </trkpt>
      <trkpt lat="41.75898" lon="9.08155">
        <ele>869.6</ele>
        <time>2021-06-03T12:32:33Z</time>
      </trkpt>
      <trkpt lat="41.75895" lon="9.08154">
        <ele>869.6</ele>
        <time>2021-06-03T12:32:34Z</time>
      </trkpt>
      <trkpt lat="41.75892" lon="9.08153">
        <ele>869.6</ele>
        <time>2021-06-03T12:32:35Z</time>
      </trkpt>
      <trkpt lat="41.75889" lon="9.08152">
        <ele>869.6</ele>
        <time>2021-06-03T12:32:36Z</time>
      </trkpt>
      <trkpt lat="41.75886" lon="9.08152">
        <ele>869.6</ele>
        <time>2021-06-03T12:32:37Z</time>
      </trkpt>
      <trkpt lat="41.75884" lon="9.08151">
        <ele>870</ele>
        <time>2021-06-03T12:32:38Z</time>
      </trkpt>
      <trkpt lat="41.75881" lon="9.0815">
        <ele>870</ele>
        <time>2021-06-03T12:32:39Z</time>
      </trkpt>
      <trkpt lat="41.75879" lon="9.08148">
        <ele>870</ele>
        <time>2021-06-03T12:32:40Z</time>
      </trkpt>
      <trkpt lat="41.75876" lon="9.08147">
        <ele>870</ele>
        <time>2021-06-03T12:32:41Z</time>
      </trkpt>
      <trkpt lat="41.75874" lon="9.08145">
        <ele>869.6</ele>
        <time>2021-06-03T12:32:42Z</time>
      </trkpt>
      <trkpt lat="41.75871" lon="9.08144">
        <ele>869.6</ele>
        <time>2021-06-03T12:32:43Z</time>
      </trkpt>
      <trkpt lat="41.75868" lon="9.08142">
        <ele>869.6</ele>
        <time>2021-06-03T12:32:44Z</time>
      </trkpt>
      <trkpt lat="41.75866" lon="9.0814">
        <ele>870</ele>
        <time>2021-06-03T12:32:45Z</time>
      </trkpt>
      <trkpt lat="41.75864" lon="9.08137">
        <ele>870</ele>
        <time>2021-06-03T12:32:46Z</time>
      </trkpt>
      <trkpt lat="41.75861" lon="9.08135">
        <ele>870</ele>
        <time>2021-06-03T12:32:47Z</time>
      </trkpt>
      <trkpt lat="41.7586" lon="9.08132">
        <ele>870</ele>
        <time>2021-06-03T12:32:48Z</time>
      </trkpt>
      <trkpt lat="41.75858" lon="9.08129">
        <ele>870</ele>
        <time>2021-06-03T12:32:49Z</time>
      </trkpt>
      <trkpt lat="41.75856" lon="9.08128">
        <ele>870.8</ele>
        <time>2021-06-03T12:32:50Z</time>
      </trkpt>
      <trkpt lat="41.75853" lon="9.08126">
        <ele>870.8</ele>
        <time>2021-06-03T12:32:51Z</time>
      </trkpt>
      <trkpt lat="41.75852" lon="9.08125">
        <ele>870.8</ele>
        <time>2021-06-03T12:32:52Z</time>
      </trkpt>
      <trkpt lat="41.7585" lon="9.08123">
        <ele>870.4</ele>
        <time>2021-06-03T12:32:53Z</time>
      </trkpt>
      <trkpt lat="41.75847" lon="9.08121">
        <ele>870.4</ele>
        <time>2021-06-03T12:32:54Z</time>
      </trkpt>
      <trkpt lat="41.75845" lon="9.0812">
        <ele>870.4</ele>
        <time>2021-06-03T12:32:55Z</time>
      </trkpt>
      <trkpt lat="41.75843" lon="9.08118">
        <ele>870.4</ele>
        <time>2021-06-03T12:32:56Z</time>
      </trkpt>
      <trkpt lat="41.75841" lon="9.08116">
        <ele>871.4</ele>
        <time>2021-06-03T12:32:57Z</time>
      </trkpt>
      <trkpt lat="41.75839" lon="9.08114">
        <ele>871.8</ele>
        <time>2021-06-03T12:32:58Z</time>
      </trkpt>
      <trkpt lat="41.75837" lon="9.08112">
        <ele>871.8</ele>
        <time>2021-06-03T12:32:59Z</time>
      </trkpt>
      <trkpt lat="41.75834" lon="9.0811">
        <ele>871.8</ele>
        <time>2021-06-03T12:33:00Z</time>
      </trkpt>
      <trkpt lat="41.75832" lon="9.08108">
        <ele>872</ele>
        <time>2021-06-03T12:33:01Z</time>
      </trkpt>
      <trkpt lat="41.75829" lon="9.08106">
        <ele>872.2</ele>
        <time>2021-06-03T12:33:02Z</time>
      </trkpt>
      <trkpt lat="41.75827" lon="9.08104">
        <ele>872.2</ele>
        <time>2021-06-03T12:33:03Z</time>
      </trkpt>
      <trkpt lat="41.75824" lon="9.08101">
        <ele>872.2</ele>
        <time>2021-06-03T12:33:04Z</time>
      </trkpt>
      <trkpt lat="41.75822" lon="9.08099">
        <ele>873</ele>
        <time>2021-06-03T12:33:05Z</time>
      </trkpt>
      <trkpt lat="41.75819" lon="9.08097">
        <ele>873.4</ele>
        <time>2021-06-03T12:33:06Z</time>
      </trkpt>
      <trkpt lat="41.75817" lon="9.08095">
        <ele>873.4</ele>
        <time>2021-06-03T12:33:07Z</time>
      </trkpt>
      <trkpt lat="41.75814" lon="9.08093">
        <ele>873.4</ele>
        <time>2021-06-03T12:33:08Z</time>
      </trkpt>
      <trkpt lat="41.75812" lon="9.08091">
        <ele>873.6</ele>
        <time>2021-06-03T12:33:09Z</time>
      </trkpt>
      <trkpt lat="41.7581" lon="9.08088">
        <ele>873.8</ele>
        <time>2021-06-03T12:33:10Z</time>
      </trkpt>
      <trkpt lat="41.75808" lon="9.08086">
        <ele>873.8</ele>
        <time>2021-06-03T12:33:11Z</time>
      </trkpt>
      <trkpt lat="41.75806" lon="9.08084">
        <ele>873.8</ele>
        <time>2021-06-03T12:33:12Z</time>
      </trkpt>
      <trkpt lat="41.75804" lon="9.08082">
        <ele>873.8</ele>
        <time>2021-06-03T12:33:13Z</time>
      </trkpt>
      <trkpt lat="41.75802" lon="9.0808">
        <ele>873.8</ele>
        <time>2021-06-03T12:33:14Z</time>
      </trkpt>
      <trkpt lat="41.758" lon="9.08077">
        <ele>874.2</ele>
        <time>2021-06-03T12:33:15Z</time>
      </trkpt>
      <trkpt lat="41.75799" lon="9.08075">
        <ele>874.2</ele>
        <time>2021-06-03T12:33:16Z</time>
      </trkpt>
      <trkpt lat="41.75797" lon="9.08073">
        <ele>874.2</ele>
        <time>2021-06-03T12:33:17Z</time>
      </trkpt>
      <trkpt lat="41.75795" lon="9.0807">
        <ele>873.8</ele>
        <time>2021-06-03T12:33:18Z</time>
      </trkpt>
      <trkpt lat="41.75794" lon="9.08068">
        <ele>873.8</ele>
        <time>2021-06-03T12:33:19Z</time>
      </trkpt>
      <trkpt lat="41.75793" lon="9.08066">
        <ele>873.8</ele>
        <time>2021-06-03T12:33:20Z</time>
      </trkpt>
      <trkpt lat="41.75791" lon="9.08064">
        <ele>874.8</ele>
        <time>2021-06-03T12:33:21Z</time>
      </trkpt>
      <trkpt lat="41.75789" lon="9.08062">
        <ele>874.6</ele>
        <time>2021-06-03T12:33:22Z</time>
      </trkpt>
      <trkpt lat="41.75788" lon="9.0806">
        <ele>874.6</ele>
        <time>2021-06-03T12:33:23Z</time>
      </trkpt>
      <trkpt lat="41.75786" lon="9.08059">
        <ele>874.6</ele>
        <time>2021-06-03T12:33:24Z</time>
      </trkpt>
      <trkpt lat="41.75784" lon="9.08058">
        <ele>875.4</ele>
        <time>2021-06-03T12:33:25Z</time>
      </trkpt>
      <trkpt lat="41.75782" lon="9.08056">
        <ele>875.2</ele>
        <time>2021-06-03T12:33:26Z</time>
      </trkpt>
      <trkpt lat="41.7578" lon="9.08055">
        <ele>875.2</ele>
        <time>2021-06-03T12:33:27Z</time>
      </trkpt>
      <trkpt lat="41.75778" lon="9.08054">
        <ele>875.2</ele>
        <time>2021-06-03T12:33:28Z</time>
      </trkpt>
      <trkpt lat="41.75775" lon="9.08054">
        <ele>876</ele>
        <time>2021-06-03T12:33:29Z</time>
      </trkpt>
      <trkpt lat="41.75773" lon="9.08054">
        <ele>876.4</ele>
        <time>2021-06-03T12:33:30Z</time>
      </trkpt>
      <trkpt lat="41.75771" lon="9.08054">
        <ele>876.4</ele>
        <time>2021-06-03T12:33:31Z</time>
      </trkpt>
      <trkpt lat="41.75769" lon="9.08053">
        <ele>876.4</ele>
        <time>2021-06-03T12:33:32Z</time>
      </trkpt>
      <trkpt lat="41.75767" lon="9.08053">
        <ele>876.6</ele>
        <time>2021-06-03T12:33:33Z</time>
      </trkpt>
      <trkpt lat="41.75765" lon="9.08054">
        <ele>876.6</ele>
        <time>2021-06-03T12:33:34Z</time>
      </trkpt>
      <trkpt lat="41.75763" lon="9.08054">
        <ele>876.6</ele>
        <time>2021-06-03T12:33:35Z</time>
      </trkpt>
      <trkpt lat="41.75761" lon="9.08055">
        <ele>876.6</ele>
        <time>2021-06-03T12:33:36Z</time>
      </trkpt>
      <trkpt lat="41.75759" lon="9.08055">
        <ele>876.6</ele>
        <time>2021-06-03T12:33:37Z</time>
      </trkpt>
      <trkpt lat="41.75756" lon="9.08055">
        <ele>877.2</ele>
        <time>2021-06-03T12:33:38Z</time>
      </trkpt>
      <trkpt lat="41.75754" lon="9.08056">
        <ele>877.2</ele>
        <time>2021-06-03T12:33:39Z</time>
      </trkpt>
      <trkpt lat="41.75752" lon="9.08056">
        <ele>877.2</ele>
        <time>2021-06-03T12:33:40Z</time>
      </trkpt>
      <trkpt lat="41.7575" lon="9.08057">
        <ele>877.6</ele>
        <time>2021-06-03T12:33:41Z</time>
      </trkpt>
      <trkpt lat="41.75748" lon="9.08057">
        <ele>877.8</ele>
        <time>2021-06-03T12:33:42Z</time>
      </trkpt>
      <trkpt lat="41.75746" lon="9.08058">
        <ele>877.8</ele>
        <time>2021-06-03T12:33:43Z</time>
      </trkpt>
      <trkpt lat="41.75744" lon="9.08059">
        <ele>877.8</ele>
        <time>2021-06-03T12:33:44Z</time>
      </trkpt>
      <trkpt lat="41.75741" lon="9.08059">
        <ele>877.8</ele>
        <time>2021-06-03T12:33:45Z</time>
      </trkpt>
      <trkpt lat="41.75739" lon="9.0806">
        <ele>878.2</ele>
        <time>2021-06-03T12:33:46Z</time>
      </trkpt>
      <trkpt lat="41.75737" lon="9.08061">
        <ele>878.2</ele>
        <time>2021-06-03T12:33:47Z</time>
      </trkpt>
      <trkpt lat="41.75735" lon="9.08061">
        <ele>878.2</ele>
        <time>2021-06-03T12:33:48Z</time>
      </trkpt>
      <trkpt lat="41.75733" lon="9.08061">
        <ele>878.2</ele>
        <time>2021-06-03T12:33:49Z</time>
      </trkpt>
      <trkpt lat="41.75731" lon="9.08061">
        <ele>878.4</ele>
        <time>2021-06-03T12:33:50Z</time>
      </trkpt>
      <trkpt lat="41.75729" lon="9.08061">
        <ele>878.4</ele>
        <time>2021-06-03T12:33:51Z</time>
      </trkpt>
      <trkpt lat="41.75727" lon="9.08061">
        <ele>878.4</ele>
        <time>2021-06-03T12:33:52Z</time>
      </trkpt>
      <trkpt lat="41.75725" lon="9.08061">
        <ele>878.4</ele>
        <time>2021-06-03T12:33:53Z</time>
      </trkpt>
      <trkpt lat="41.75723" lon="9.08062">
        <ele>878.6</ele>
        <time>2021-06-03T12:33:54Z</time>
      </trkpt>
      <trkpt lat="41.75721" lon="9.08062">
        <ele>878.6</ele>
        <time>2021-06-03T12:33:55Z</time>
      </trkpt>
      <trkpt lat="41.75718" lon="9.08062">
        <ele>878.6</ele>
        <time>2021-06-03T12:33:56Z</time>
      </trkpt>
      <trkpt lat="41.75716" lon="9.08062">
        <ele>879.4</ele>
        <time>2021-06-03T12:33:57Z</time>
      </trkpt>
      <trkpt lat="41.75714" lon="9.08062">
        <ele>879.6</ele>
        <time>2021-06-03T12:33:58Z</time>
      </trkpt>
      <trkpt lat="41.75712" lon="9.08062">
        <ele>879.6</ele>
        <time>2021-06-03T12:33:59Z</time>
      </trkpt>
      <trkpt lat="41.75709" lon="9.08062">
        <ele>879.6</ele>
        <time>2021-06-03T12:34:00Z</time>
      </trkpt>
      <trkpt lat="41.75707" lon="9.08062">
        <ele>879.6</ele>
        <time>2021-06-03T12:34:01Z</time>
      </trkpt>
      <trkpt lat="41.75705" lon="9.08063">
        <ele>880.2</ele>
        <time>2021-06-03T12:34:02Z</time>
      </trkpt>
      <trkpt lat="41.75702" lon="9.08063">
        <ele>880.2</ele>
        <time>2021-06-03T12:34:03Z</time>
      </trkpt>
      <trkpt lat="41.757" lon="9.08063">
        <ele>880.2</ele>
        <time>2021-06-03T12:34:04Z</time>
      </trkpt>
      <trkpt lat="41.75698" lon="9.08063">
        <ele>880.2</ele>
        <time>2021-06-03T12:34:05Z</time>
      </trkpt>
      <trkpt lat="41.75696" lon="9.08062">
        <ele>880.8</ele>
        <time>2021-06-03T12:34:06Z</time>
      </trkpt>
      <trkpt lat="41.75693" lon="9.08062">
        <ele>880.8</ele>
        <time>2021-06-03T12:34:07Z</time>
      </trkpt>
      <trkpt lat="41.75692" lon="9.08061">
        <ele>880.8</ele>
        <time>2021-06-03T12:34:08Z</time>
      </trkpt>
      <trkpt lat="41.7569" lon="9.0806">
        <ele>880.8</ele>
        <time>2021-06-03T12:34:09Z</time>
      </trkpt>
      <trkpt lat="41.75688" lon="9.0806">
        <ele>880.8</ele>
        <time>2021-06-03T12:34:10Z</time>
      </trkpt>
      <trkpt lat="41.75686" lon="9.08059">
        <ele>880.8</ele>
        <time>2021-06-03T12:34:11Z</time>
      </trkpt>
      <trkpt lat="41.75684" lon="9.08059">
        <ele>880.8</ele>
        <time>2021-06-03T12:34:12Z</time>
      </trkpt>
      <trkpt lat="41.75682" lon="9.08058">
        <ele>880.8</ele>
        <time>2021-06-03T12:34:13Z</time>
      </trkpt>
      <trkpt lat="41.7568" lon="9.08057">
        <ele>880.4</ele>
        <time>2021-06-03T12:34:14Z</time>
      </trkpt>
      <trkpt lat="41.75678" lon="9.08057">
        <ele>880.4</ele>
        <time>2021-06-03T12:34:15Z</time>
      </trkpt>
      <trkpt lat="41.75676" lon="9.08056">
        <ele>880.4</ele>
        <time>2021-06-03T12:34:16Z</time>
      </trkpt>
      <trkpt lat="41.75674" lon="9.08055">
        <ele>880.4</ele>
        <time>2021-06-03T12:34:17Z</time>
      </trkpt>
      <trkpt lat="41.75671" lon="9.08054">
        <ele>881.8</ele>
        <time>2021-06-03T12:34:18Z</time>
      </trkpt>
      <trkpt lat="41.75669" lon="9.08054">
        <ele>881.8</ele>
        <time>2021-06-03T12:34:19Z</time>
      </trkpt>
      <trkpt lat="41.75667" lon="9.08053">
        <ele>881.8</ele>
        <time>2021-06-03T12:34:20Z</time>
      </trkpt>
      <trkpt lat="41.75665" lon="9.08053">
        <ele>881.8</ele>
        <time>2021-06-03T12:34:21Z</time>
      </trkpt>
      <trkpt lat="41.75663" lon="9.08052">
        <ele>882.4</ele>
        <time>2021-06-03T12:34:22Z</time>
      </trkpt>
      <trkpt lat="41.75661" lon="9.08051">
        <ele>882.4</ele>
        <time>2021-06-03T12:34:23Z</time>
      </trkpt>
      <trkpt lat="41.75659" lon="9.08051">
        <ele>882.4</ele>
        <time>2021-06-03T12:34:24Z</time>
      </trkpt>
      <trkpt lat="41.75657" lon="9.08049">
        <ele>882.6</ele>
        <time>2021-06-03T12:34:25Z</time>
      </trkpt>
      <trkpt lat="41.75654" lon="9.08049">
        <ele>882.6</ele>
        <time>2021-06-03T12:34:26Z</time>
      </trkpt>
      <trkpt lat="41.75652" lon="9.08049">
        <ele>882.4</ele>
        <time>2021-06-03T12:34:27Z</time>
      </trkpt>
      <trkpt lat="41.7565" lon="9.08048">
        <ele>882.4</ele>
        <time>2021-06-03T12:34:28Z</time>
      </trkpt>
      <trkpt lat="41.75648" lon="9.08047">
        <ele>883.4</ele>
        <time>2021-06-03T12:34:29Z</time>
      </trkpt>
      <trkpt lat="41.75646" lon="9.08047">
        <ele>884.4</ele>
        <time>2021-06-03T12:34:30Z</time>
      </trkpt>
      <trkpt lat="41.75644" lon="9.08046">
        <ele>884.4</ele>
        <time>2021-06-03T12:34:31Z</time>
      </trkpt>
      <trkpt lat="41.75642" lon="9.08045">
        <ele>884.4</ele>
        <time>2021-06-03T12:34:32Z</time>
      </trkpt>
      <trkpt lat="41.7564" lon="9.08045">
        <ele>883.8</ele>
        <time>2021-06-03T12:34:33Z</time>
      </trkpt>
      <trkpt lat="41.75637" lon="9.08044">
        <ele>883.8</ele>
        <time>2021-06-03T12:34:34Z</time>
      </trkpt>
      <trkpt lat="41.75635" lon="9.08043">
        <ele>883.8</ele>
        <time>2021-06-03T12:34:35Z</time>
      </trkpt>
      <trkpt lat="41.75633" lon="9.08043">
        <ele>883.8</ele>
        <time>2021-06-03T12:34:36Z</time>
      </trkpt>
      <trkpt lat="41.75631" lon="9.08043">
        <ele>883.8</ele>
        <time>2021-06-03T12:34:37Z</time>
      </trkpt>
      <trkpt lat="41.75629" lon="9.08042">
        <ele>884.6</ele>
        <time>2021-06-03T12:34:38Z</time>
      </trkpt>
      <trkpt lat="41.75627" lon="9.08042">
        <ele>884.6</ele>
        <time>2021-06-03T12:34:39Z</time>
      </trkpt>
      <trkpt lat="41.75625" lon="9.08041">
        <ele>884.6</ele>
        <time>2021-06-03T12:34:40Z</time>
      </trkpt>
      <trkpt lat="41.75623" lon="9.08041">
        <ele>884.4</ele>
        <time>2021-06-03T12:34:41Z</time>
      </trkpt>
      <trkpt lat="41.75621" lon="9.08041">
        <ele>884.6</ele>
        <time>2021-06-03T12:34:42Z</time>
      </trkpt>
      <trkpt lat="41.75618" lon="9.08041">
        <ele>884.6</ele>
        <time>2021-06-03T12:34:43Z</time>
      </trkpt>
      <trkpt lat="41.75616" lon="9.08041">
        <ele>884.6</ele>
        <time>2021-06-03T12:34:44Z</time>
      </trkpt>
      <trkpt lat="41.75614" lon="9.08041">
        <ele>884.8</ele>
        <time>2021-06-03T12:34:45Z</time>
      </trkpt>
      <trkpt lat="41.75612" lon="9.0804">
        <ele>885</ele>
        <time>2021-06-03T12:34:46Z</time>
      </trkpt>
      <trkpt lat="41.7561" lon="9.08041">
        <ele>885</ele>
        <time>2021-06-03T12:34:47Z</time>
      </trkpt>
      <trkpt lat="41.75608" lon="9.08041">
        <ele>885</ele>
        <time>2021-06-03T12:34:48Z</time>
      </trkpt>
      <trkpt lat="41.75605" lon="9.0804">
        <ele>885</ele>
        <time>2021-06-03T12:34:49Z</time>
      </trkpt>
      <trkpt lat="41.75603" lon="9.0804">
        <ele>885.6</ele>
        <time>2021-06-03T12:34:50Z</time>
      </trkpt>
      <trkpt lat="41.75601" lon="9.0804">
        <ele>885.6</ele>
        <time>2021-06-03T12:34:51Z</time>
      </trkpt>
      <trkpt lat="41.75599" lon="9.0804">
        <ele>885.6</ele>
        <time>2021-06-03T12:34:52Z</time>
      </trkpt>
      <trkpt lat="41.75597" lon="9.08041">
        <ele>885.2</ele>
        <time>2021-06-03T12:34:53Z</time>
      </trkpt>
      <trkpt lat="41.75595" lon="9.08041">
        <ele>885.4</ele>
        <time>2021-06-03T12:34:54Z</time>
      </trkpt>
      <trkpt lat="41.75593" lon="9.08041">
        <ele>885.4</ele>
        <time>2021-06-03T12:34:55Z</time>
      </trkpt>
      <trkpt lat="41.75591" lon="9.08041">
        <ele>885.4</ele>
        <time>2021-06-03T12:34:56Z</time>
      </trkpt>
      <trkpt lat="41.75589" lon="9.08041">
        <ele>885.4</ele>
        <time>2021-06-03T12:34:57Z</time>
      </trkpt>
      <trkpt lat="41.75587" lon="9.08041">
        <ele>885.6</ele>
        <time>2021-06-03T12:34:58Z</time>
      </trkpt>
      <trkpt lat="41.75585" lon="9.08042">
        <ele>885.6</ele>
        <time>2021-06-03T12:34:59Z</time>
      </trkpt>
      <trkpt lat="41.75583" lon="9.08042">
        <ele>885.6</ele>
        <time>2021-06-03T12:35:00Z</time>
      </trkpt>
      <trkpt lat="41.75581" lon="9.08043">
        <ele>885.6</ele>
        <time>2021-06-03T12:35:01Z</time>
      </trkpt>
      <trkpt lat="41.75579" lon="9.08044">
        <ele>886</ele>
        <time>2021-06-03T12:35:02Z</time>
      </trkpt>
      <trkpt lat="41.75577" lon="9.08045">
        <ele>886</ele>
        <time>2021-06-03T12:35:03Z</time>
      </trkpt>
      <trkpt lat="41.75575" lon="9.08046">
        <ele>886</ele>
        <time>2021-06-03T12:35:04Z</time>
      </trkpt>
      <trkpt lat="41.75573" lon="9.08047">
        <ele>886.4</ele>
        <time>2021-06-03T12:35:05Z</time>
      </trkpt>
      <trkpt lat="41.75571" lon="9.08048">
        <ele>886.4</ele>
        <time>2021-06-03T12:35:06Z</time>
      </trkpt>
      <trkpt lat="41.7557" lon="9.0805">
        <ele>886.6</ele>
        <time>2021-06-03T12:35:07Z</time>
      </trkpt>
      <trkpt lat="41.75568" lon="9.08051">
        <ele>886.6</ele>
        <time>2021-06-03T12:35:08Z</time>
      </trkpt>
      <trkpt lat="41.75566" lon="9.08052">
        <ele>887.6</ele>
        <time>2021-06-03T12:35:09Z</time>
      </trkpt>
      <trkpt lat="41.75565" lon="9.08054">
        <ele>888</ele>
        <time>2021-06-03T12:35:10Z</time>
      </trkpt>
      <trkpt lat="41.75563" lon="9.08055">
        <ele>888</ele>
        <time>2021-06-03T12:35:11Z</time>
      </trkpt>
      <trkpt lat="41.75561" lon="9.08057">
        <ele>888</ele>
        <time>2021-06-03T12:35:12Z</time>
      </trkpt>
      <trkpt lat="41.7556" lon="9.08058">
        <ele>888</ele>
        <time>2021-06-03T12:35:13Z</time>
      </trkpt>
      <trkpt lat="41.75558" lon="9.0806">
        <ele>888.6</ele>
        <time>2021-06-03T12:35:14Z</time>
      </trkpt>
      <trkpt lat="41.75557" lon="9.08062">
        <ele>888.6</ele>
        <time>2021-06-03T12:35:15Z</time>
      </trkpt>
      <trkpt lat="41.75556" lon="9.08064">
        <ele>888.6</ele>
        <time>2021-06-03T12:35:16Z</time>
      </trkpt>
      <trkpt lat="41.75554" lon="9.08066">
        <ele>889</ele>
        <time>2021-06-03T12:35:17Z</time>
      </trkpt>
      <trkpt lat="41.75553" lon="9.08068">
        <ele>889.2</ele>
        <time>2021-06-03T12:35:18Z</time>
      </trkpt>
      <trkpt lat="41.75552" lon="9.0807">
        <ele>889.2</ele>
        <time>2021-06-03T12:35:19Z</time>
      </trkpt>
      <trkpt lat="41.75551" lon="9.08072">
        <ele>889.2</ele>
        <time>2021-06-03T12:35:20Z</time>
      </trkpt>
      <trkpt lat="41.75549" lon="9.08074">
        <ele>889.2</ele>
        <time>2021-06-03T12:35:21Z</time>
      </trkpt>
      <trkpt lat="41.75548" lon="9.08076">
        <ele>889.6</ele>
        <time>2021-06-03T12:35:22Z</time>
      </trkpt>
      <trkpt lat="41.75547" lon="9.08078">
        <ele>889.6</ele>
        <time>2021-06-03T12:35:23Z</time>
      </trkpt>
      <trkpt lat="41.75546" lon="9.08081">
        <ele>889.6</ele>
        <time>2021-06-03T12:35:24Z</time>
      </trkpt>
      <trkpt lat="41.75545" lon="9.08083">
        <ele>889.6</ele>
        <time>2021-06-03T12:35:25Z</time>
      </trkpt>
      <trkpt lat="41.75544" lon="9.08086">
        <ele>889.6</ele>
        <time>2021-06-03T12:35:26Z</time>
      </trkpt>
      <trkpt lat="41.75543" lon="9.08088">
        <ele>890.4</ele>
        <time>2021-06-03T12:35:27Z</time>
      </trkpt>
      <trkpt lat="41.75542" lon="9.08091">
        <ele>890.4</ele>
        <time>2021-06-03T12:35:28Z</time>
      </trkpt>
      <trkpt lat="41.75541" lon="9.08093">
        <ele>890.2</ele>
        <time>2021-06-03T12:35:29Z</time>
      </trkpt>
      <trkpt lat="41.7554" lon="9.08095">
        <ele>890.4</ele>
        <time>2021-06-03T12:35:30Z</time>
      </trkpt>
      <trkpt lat="41.75539" lon="9.08098">
        <ele>890.4</ele>
        <time>2021-06-03T12:35:31Z</time>
      </trkpt>
      <trkpt lat="41.75538" lon="9.08101">
        <ele>890.4</ele>
        <time>2021-06-03T12:35:32Z</time>
      </trkpt>
      <trkpt lat="41.75537" lon="9.08103">
        <ele>890.4</ele>
        <time>2021-06-03T12:35:33Z</time>
      </trkpt>
      <trkpt lat="41.75536" lon="9.08105">
        <ele>890.6</ele>
        <time>2021-06-03T12:35:34Z</time>
      </trkpt>
      <trkpt lat="41.75535" lon="9.08107">
        <ele>890.6</ele>
        <time>2021-06-03T12:35:35Z</time>
      </trkpt>
      <trkpt lat="41.75534" lon="9.0811">
        <ele>890.6</ele>
        <time>2021-06-03T12:35:36Z</time>
      </trkpt>
      <trkpt lat="41.75533" lon="9.08112">
        <ele>891.2</ele>
        <time>2021-06-03T12:35:37Z</time>
      </trkpt>
      <trkpt lat="41.75532" lon="9.08114">
        <ele>891.2</ele>
        <time>2021-06-03T12:35:38Z</time>
      </trkpt>
      <trkpt lat="41.75532" lon="9.08117">
        <ele>891.2</ele>
        <time>2021-06-03T12:35:39Z</time>
      </trkpt>
      <trkpt lat="41.75531" lon="9.08119">
        <ele>891.2</ele>
        <time>2021-06-03T12:35:40Z</time>
      </trkpt>
      <trkpt lat="41.7553" lon="9.08122">
        <ele>891.2</ele>
        <time>2021-06-03T12:35:41Z</time>
      </trkpt>
      <trkpt lat="41.75529" lon="9.08124">
        <ele>891.4</ele>
        <time>2021-06-03T12:35:42Z</time>
      </trkpt>
      <trkpt lat="41.75528" lon="9.08127">
        <ele>891.4</ele>
        <time>2021-06-03T12:35:43Z</time>
      </trkpt>
      <trkpt lat="41.75528" lon="9.08129">
        <ele>891.4</ele>
        <time>2021-06-03T12:35:44Z</time>
      </trkpt>
      <trkpt lat="41.75527" lon="9.08132">
        <ele>892</ele>
        <time>2021-06-03T12:35:45Z</time>
      </trkpt>
      <trkpt lat="41.75526" lon="9.08134">
        <ele>892</ele>
        <time>2021-06-03T12:35:46Z</time>
      </trkpt>
      <trkpt lat="41.75525" lon="9.08137">
        <ele>892</ele>
        <time>2021-06-03T12:35:47Z</time>
      </trkpt>
      <trkpt lat="41.75524" lon="9.08139">
        <ele>892</ele>
        <time>2021-06-03T12:35:48Z</time>
      </trkpt>
      <trkpt lat="41.75523" lon="9.08141">
        <ele>892.4</ele>
        <time>2021-06-03T12:35:49Z</time>
      </trkpt>
      <trkpt lat="41.75523" lon="9.08144">
        <ele>892.6</ele>
        <time>2021-06-03T12:35:50Z</time>
      </trkpt>
      <trkpt lat="41.75522" lon="9.08146">
        <ele>892.6</ele>
        <time>2021-06-03T12:35:51Z</time>
      </trkpt>
      <trkpt lat="41.75521" lon="9.08149">
        <ele>892.6</ele>
        <time>2021-06-03T12:35:52Z</time>
      </trkpt>
      <trkpt lat="41.7552" lon="9.08151">
        <ele>892.6</ele>
        <time>2021-06-03T12:35:53Z</time>
      </trkpt>
      <trkpt lat="41.75519" lon="9.08154">
        <ele>892.8</ele>
        <time>2021-06-03T12:35:54Z</time>
      </trkpt>
      <trkpt lat="41.75519" lon="9.08156">
        <ele>892.8</ele>
        <time>2021-06-03T12:35:55Z</time>
      </trkpt>
      <trkpt lat="41.75518" lon="9.08158">
        <ele>892.8</ele>
        <time>2021-06-03T12:35:56Z</time>
      </trkpt>
      <trkpt lat="41.75517" lon="9.08161">
        <ele>892.8</ele>
        <time>2021-06-03T12:35:57Z</time>
      </trkpt>
      <trkpt lat="41.75516" lon="9.08163">
        <ele>893.4</ele>
        <time>2021-06-03T12:35:58Z</time>
      </trkpt>
      <trkpt lat="41.75515" lon="9.08166">
        <ele>893.4</ele>
        <time>2021-06-03T12:35:59Z</time>
      </trkpt>
      <trkpt lat="41.75514" lon="9.08168">
        <ele>893.4</ele>
        <time>2021-06-03T12:36:00Z</time>
      </trkpt>
      <trkpt lat="41.75513" lon="9.0817">
        <ele>893.4</ele>
        <time>2021-06-03T12:36:01Z</time>
      </trkpt>
      <trkpt lat="41.75512" lon="9.08172">
        <ele>894</ele>
        <time>2021-06-03T12:36:02Z</time>
      </trkpt>
      <trkpt lat="41.75511" lon="9.08175">
        <ele>894</ele>
        <time>2021-06-03T12:36:03Z</time>
      </trkpt>
      <trkpt lat="41.75511" lon="9.08177">
        <ele>894</ele>
        <time>2021-06-03T12:36:04Z</time>
      </trkpt>
      <trkpt lat="41.7551" lon="9.0818">
        <ele>894</ele>
        <time>2021-06-03T12:36:05Z</time>
      </trkpt>
      <trkpt lat="41.75509" lon="9.08183">
        <ele>894</ele>
        <time>2021-06-03T12:36:06Z</time>
      </trkpt>
      <trkpt lat="41.75508" lon="9.08185">
        <ele>894.6</ele>
        <time>2021-06-03T12:36:07Z</time>
      </trkpt>
      <trkpt lat="41.75507" lon="9.08188">
        <ele>894.6</ele>
        <time>2021-06-03T12:36:08Z</time>
      </trkpt>
      <trkpt lat="41.75507" lon="9.0819">
        <ele>894.6</ele>
        <time>2021-06-03T12:36:09Z</time>
      </trkpt>
      <trkpt lat="41.75506" lon="9.08192">
        <ele>894.6</ele>
        <time>2021-06-03T12:36:10Z</time>
      </trkpt>
      <trkpt lat="41.75505" lon="9.08195">
        <ele>894.6</ele>
        <time>2021-06-03T12:36:11Z</time>
      </trkpt>
      <trkpt lat="41.75504" lon="9.08197">
        <ele>894.6</ele>
        <time>2021-06-03T12:36:12Z</time>
      </trkpt>
      <trkpt lat="41.75503" lon="9.082">
        <ele>895</ele>
        <time>2021-06-03T12:36:13Z</time>
      </trkpt>
      <trkpt lat="41.75502" lon="9.08203">
        <ele>895.2</ele>
        <time>2021-06-03T12:36:14Z</time>
      </trkpt>
      <trkpt lat="41.75501" lon="9.08205">
        <ele>895.2</ele>
        <time>2021-06-03T12:36:15Z</time>
      </trkpt>
      <trkpt lat="41.75501" lon="9.08207">
        <ele>895.2</ele>
        <time>2021-06-03T12:36:16Z</time>
      </trkpt>
      <trkpt lat="41.755" lon="9.0821">
        <ele>895.4</ele>
        <time>2021-06-03T12:36:17Z</time>
      </trkpt>
      <trkpt lat="41.75499" lon="9.08213">
        <ele>895.6</ele>
        <time>2021-06-03T12:36:18Z</time>
      </trkpt>
      <trkpt lat="41.75498" lon="9.08215">
        <ele>895.6</ele>
        <time>2021-06-03T12:36:19Z</time>
      </trkpt>
      <trkpt lat="41.75498" lon="9.08218">
        <ele>895.6</ele>
        <time>2021-06-03T12:36:20Z</time>
      </trkpt>
      <trkpt lat="41.75497" lon="9.0822">
        <ele>895.6</ele>
        <time>2021-06-03T12:36:21Z</time>
      </trkpt>
      <trkpt lat="41.75496" lon="9.08223">
        <ele>895.6</ele>
        <time>2021-06-03T12:36:22Z</time>
      </trkpt>
      <trkpt lat="41.75495" lon="9.08225">
        <ele>895.6</ele>
        <time>2021-06-03T12:36:23Z</time>
      </trkpt>
      <trkpt lat="41.75495" lon="9.08227">
        <ele>895.6</ele>
        <time>2021-06-03T12:36:24Z</time>
      </trkpt>
      <trkpt lat="41.75494" lon="9.0823">
        <ele>895.6</ele>
        <time>2021-06-03T12:36:25Z</time>
      </trkpt>
      <trkpt lat="41.75493" lon="9.08232">
        <ele>896</ele>
        <time>2021-06-03T12:36:26Z</time>
      </trkpt>
      <trkpt lat="41.75493" lon="9.08234">
        <ele>896</ele>
        <time>2021-06-03T12:36:27Z</time>
      </trkpt>
      <trkpt lat="41.75492" lon="9.08237">
        <ele>896</ele>
        <time>2021-06-03T12:36:28Z</time>
      </trkpt>
      <trkpt lat="41.75491" lon="9.08239">
        <ele>896</ele>
        <time>2021-06-03T12:36:29Z</time>
      </trkpt>
      <trkpt lat="41.7549" lon="9.08241">
        <ele>896.6</ele>
        <time>2021-06-03T12:36:30Z</time>
      </trkpt>
      <trkpt lat="41.7549" lon="9.08244">
        <ele>896.6</ele>
        <time>2021-06-03T12:36:31Z</time>
      </trkpt>
      <trkpt lat="41.75489" lon="9.08246">
        <ele>896.6</ele>
        <time>2021-06-03T12:36:32Z</time>
      </trkpt>
      <trkpt lat="41.75489" lon="9.08249">
        <ele>896.6</ele>
        <time>2021-06-03T12:36:33Z</time>
      </trkpt>
      <trkpt lat="41.75488" lon="9.08251">
        <ele>896.6</ele>
        <time>2021-06-03T12:36:34Z</time>
      </trkpt>
      <trkpt lat="41.75487" lon="9.08253">
        <ele>897.2</ele>
        <time>2021-06-03T12:36:35Z</time>
      </trkpt>
      <trkpt lat="41.75486" lon="9.08256">
        <ele>897.2</ele>
        <time>2021-06-03T12:36:36Z</time>
      </trkpt>
      <trkpt lat="41.75485" lon="9.08259">
        <ele>897.2</ele>
        <time>2021-06-03T12:36:37Z</time>
      </trkpt>
      <trkpt lat="41.75485" lon="9.08261">
        <ele>897.2</ele>
        <time>2021-06-03T12:36:38Z</time>
      </trkpt>
      <trkpt lat="41.75484" lon="9.08264">
        <ele>897.2</ele>
        <time>2021-06-03T12:36:39Z</time>
      </trkpt>
      <trkpt lat="41.75483" lon="9.08266">
        <ele>897.2</ele>
        <time>2021-06-03T12:36:40Z</time>
      </trkpt>
      <trkpt lat="41.75481" lon="9.08268">
        <ele>897</ele>
        <time>2021-06-03T12:36:41Z</time>
      </trkpt>
      <trkpt lat="41.7548" lon="9.0827">
        <ele>897</ele>
        <time>2021-06-03T12:36:42Z</time>
      </trkpt>
      <trkpt lat="41.75479" lon="9.08272">
        <ele>897</ele>
        <time>2021-06-03T12:36:43Z</time>
      </trkpt>
      <trkpt lat="41.75477" lon="9.08275">
        <ele>897</ele>
        <time>2021-06-03T12:36:44Z</time>
      </trkpt>
      <trkpt lat="41.75476" lon="9.08277">
        <ele>898</ele>
        <time>2021-06-03T12:36:45Z</time>
      </trkpt>
      <trkpt lat="41.75475" lon="9.08279">
        <ele>897.8</ele>
        <time>2021-06-03T12:36:46Z</time>
      </trkpt>
      <trkpt lat="41.75473" lon="9.08281">
        <ele>897.8</ele>
        <time>2021-06-03T12:36:47Z</time>
      </trkpt>
      <trkpt lat="41.75472" lon="9.08283">
        <ele>897.8</ele>
        <time>2021-06-03T12:36:48Z</time>
      </trkpt>
      <trkpt lat="41.7547" lon="9.08285">
        <ele>898.8</ele>
        <time>2021-06-03T12:36:49Z</time>
      </trkpt>
      <trkpt lat="41.75469" lon="9.08287">
        <ele>899</ele>
        <time>2021-06-03T12:36:50Z</time>
      </trkpt>
      <trkpt lat="41.75468" lon="9.08289">
        <ele>899</ele>
        <time>2021-06-03T12:36:51Z</time>
      </trkpt>
      <trkpt lat="41.75466" lon="9.08291">
        <ele>899</ele>
        <time>2021-06-03T12:36:52Z</time>
      </trkpt>
      <trkpt lat="41.75465" lon="9.08294">
        <ele>900</ele>
        <time>2021-06-03T12:36:53Z</time>
      </trkpt>
      <trkpt lat="41.75464" lon="9.08296">
        <ele>900.4</ele>
        <time>2021-06-03T12:36:54Z</time>
      </trkpt>
      <trkpt lat="41.75463" lon="9.08299">
        <ele>900.4</ele>
        <time>2021-06-03T12:36:55Z</time>
      </trkpt>
      <trkpt lat="41.75461" lon="9.08301">
        <ele>900.4</ele>
        <time>2021-06-03T12:36:56Z</time>
      </trkpt>
      <trkpt lat="41.7546" lon="9.08303">
        <ele>900.4</ele>
        <time>2021-06-03T12:36:57Z</time>
      </trkpt>
      <trkpt lat="41.75459" lon="9.08305">
        <ele>900.4</ele>
        <time>2021-06-03T12:36:58Z</time>
      </trkpt>
      <trkpt lat="41.75458" lon="9.08307">
        <ele>900.4</ele>
        <time>2021-06-03T12:36:59Z</time>
      </trkpt>
      <trkpt lat="41.75457" lon="9.08309">
        <ele>900.4</ele>
        <time>2021-06-03T12:37:00Z</time>
      </trkpt>
      <trkpt lat="41.75455" lon="9.08312">
        <ele>900.4</ele>
        <time>2021-06-03T12:37:01Z</time>
      </trkpt>
      <trkpt lat="41.75454" lon="9.08314">
        <ele>900.4</ele>
        <time>2021-06-03T12:37:02Z</time>
      </trkpt>
      <trkpt lat="41.75453" lon="9.08316">
        <ele>901.2</ele>
        <time>2021-06-03T12:37:03Z</time>
      </trkpt>
      <trkpt lat="41.75451" lon="9.08318">
        <ele>901.2</ele>
        <time>2021-06-03T12:37:04Z</time>
      </trkpt>
      <trkpt lat="41.7545" lon="9.0832">
        <ele>901.2</ele>
        <time>2021-06-03T12:37:05Z</time>
      </trkpt>
      <trkpt lat="41.75449" lon="9.08323">
        <ele>901.4</ele>
        <time>2021-06-03T12:37:06Z</time>
      </trkpt>
      <trkpt lat="41.75447" lon="9.08325">
        <ele>901.4</ele>
        <time>2021-06-03T12:37:07Z</time>
      </trkpt>
      <trkpt lat="41.75446" lon="9.08327">
        <ele>901.4</ele>
        <time>2021-06-03T12:37:08Z</time>
      </trkpt>
      <trkpt lat="41.75445" lon="9.08329">
        <ele>901.4</ele>
        <time>2021-06-03T12:37:09Z</time>
      </trkpt>
      <trkpt lat="41.75443" lon="9.08332">
        <ele>901.6</ele>
        <time>2021-06-03T12:37:10Z</time>
      </trkpt>
      <trkpt lat="41.75442" lon="9.08334">
        <ele>901.6</ele>
        <time>2021-06-03T12:37:11Z</time>
      </trkpt>
      <trkpt lat="41.75441" lon="9.08336">
        <ele>901.6</ele>
        <time>2021-06-03T12:37:12Z</time>
      </trkpt>
      <trkpt lat="41.75439" lon="9.08338">
        <ele>902.2</ele>
        <time>2021-06-03T12:37:13Z</time>
      </trkpt>
      <trkpt lat="41.75438" lon="9.0834">
        <ele>902.4</ele>
        <time>2021-06-03T12:37:14Z</time>
      </trkpt>
      <trkpt lat="41.75436" lon="9.08342">
        <ele>902.4</ele>
        <time>2021-06-03T12:37:15Z</time>
      </trkpt>
      <trkpt lat="41.75435" lon="9.08344">
        <ele>902.4</ele>
        <time>2021-06-03T12:37:16Z</time>
      </trkpt>
      <trkpt lat="41.75434" lon="9.08346">
        <ele>903.2</ele>
        <time>2021-06-03T12:37:17Z</time>
      </trkpt>
      <trkpt lat="41.75432" lon="9.08348">
        <ele>903</ele>
        <time>2021-06-03T12:37:18Z</time>
      </trkpt>
      <trkpt lat="41.75431" lon="9.0835">
        <ele>903</ele>
        <time>2021-06-03T12:37:19Z</time>
      </trkpt>
      <trkpt lat="41.75429" lon="9.08352">
        <ele>903</ele>
        <time>2021-06-03T12:37:20Z</time>
      </trkpt>
      <trkpt lat="41.75428" lon="9.08354">
        <ele>904</ele>
        <time>2021-06-03T12:37:21Z</time>
      </trkpt>
      <trkpt lat="41.75426" lon="9.08356">
        <ele>903.6</ele>
        <time>2021-06-03T12:37:22Z</time>
      </trkpt>
      <trkpt lat="41.75425" lon="9.08358">
        <ele>903.6</ele>
        <time>2021-06-03T12:37:23Z</time>
      </trkpt>
      <trkpt lat="41.75423" lon="9.08359">
        <ele>903.6</ele>
        <time>2021-06-03T12:37:24Z</time>
      </trkpt>
      <trkpt lat="41.75422" lon="9.08361">
        <ele>903.6</ele>
        <time>2021-06-03T12:37:25Z</time>
      </trkpt>
      <trkpt lat="41.75421" lon="9.08363">
        <ele>905.2</ele>
        <time>2021-06-03T12:37:26Z</time>
      </trkpt>
      <trkpt lat="41.75419" lon="9.08365">
        <ele>905.2</ele>
        <time>2021-06-03T12:37:27Z</time>
      </trkpt>
      <trkpt lat="41.75418" lon="9.08367">
        <ele>905.2</ele>
        <time>2021-06-03T12:37:28Z</time>
      </trkpt>
      <trkpt lat="41.75416" lon="9.08369">
        <ele>905.2</ele>
        <time>2021-06-03T12:37:29Z</time>
      </trkpt>
      <trkpt lat="41.75415" lon="9.08371">
        <ele>905.2</ele>
        <time>2021-06-03T12:37:30Z</time>
      </trkpt>
      <trkpt lat="41.75413" lon="9.08373">
        <ele>905.6</ele>
        <time>2021-06-03T12:37:31Z</time>
      </trkpt>
      <trkpt lat="41.75412" lon="9.08375">
        <ele>905.6</ele>
        <time>2021-06-03T12:37:32Z</time>
      </trkpt>
      <trkpt lat="41.7541" lon="9.08377">
        <ele>905.6</ele>
        <time>2021-06-03T12:37:33Z</time>
      </trkpt>
      <trkpt lat="41.75409" lon="9.08379">
        <ele>906.2</ele>
        <time>2021-06-03T12:37:34Z</time>
      </trkpt>
      <trkpt lat="41.75408" lon="9.08381">
        <ele>906.2</ele>
        <time>2021-06-03T12:37:35Z</time>
      </trkpt>
      <trkpt lat="41.75406" lon="9.08383">
        <ele>906.2</ele>
        <time>2021-06-03T12:37:36Z</time>
      </trkpt>
      <trkpt lat="41.75405" lon="9.08385">
        <ele>906.8</ele>
        <time>2021-06-03T12:37:37Z</time>
      </trkpt>
      <trkpt lat="41.75403" lon="9.08388">
        <ele>907</ele>
        <time>2021-06-03T12:37:38Z</time>
      </trkpt>
      <trkpt lat="41.75402" lon="9.0839">
        <ele>907</ele>
        <time>2021-06-03T12:37:39Z</time>
      </trkpt>
      <trkpt lat="41.75401" lon="9.08392">
        <ele>907</ele>
        <time>2021-06-03T12:37:40Z</time>
      </trkpt>
      <trkpt lat="41.75399" lon="9.08395">
        <ele>907</ele>
        <time>2021-06-03T12:37:41Z</time>
      </trkpt>
      <trkpt lat="41.75398" lon="9.08397">
        <ele>907.4</ele>
        <time>2021-06-03T12:37:42Z</time>
      </trkpt>
      <trkpt lat="41.75397" lon="9.084">
        <ele>907.4</ele>
        <time>2021-06-03T12:37:43Z</time>
      </trkpt>
      <trkpt lat="41.75396" lon="9.08402">
        <ele>907.4</ele>
        <time>2021-06-03T12:37:44Z</time>
      </trkpt>
      <trkpt lat="41.75395" lon="9.08405">
        <ele>907.4</ele>
        <time>2021-06-03T12:37:45Z</time>
      </trkpt>
      <trkpt lat="41.75394" lon="9.08407">
        <ele>907.2</ele>
        <time>2021-06-03T12:37:46Z</time>
      </trkpt>
      <trkpt lat="41.75393" lon="9.0841">
        <ele>907.2</ele>
        <time>2021-06-03T12:37:47Z</time>
      </trkpt>
      <trkpt lat="41.75392" lon="9.08413">
        <ele>907.2</ele>
        <time>2021-06-03T12:37:48Z</time>
      </trkpt>
      <trkpt lat="41.75392" lon="9.08416">
        <ele>907.4</ele>
        <time>2021-06-03T12:37:49Z</time>
      </trkpt>
      <trkpt lat="41.75392" lon="9.08418">
        <ele>907.4</ele>
        <time>2021-06-03T12:37:50Z</time>
      </trkpt>
      <trkpt lat="41.75391" lon="9.08421">
        <ele>907.6</ele>
        <time>2021-06-03T12:37:51Z</time>
      </trkpt>
      <trkpt lat="41.75391" lon="9.08424">
        <ele>907.6</ele>
        <time>2021-06-03T12:37:52Z</time>
      </trkpt>
      <trkpt lat="41.75391" lon="9.08427">
        <ele>908.6</ele>
        <time>2021-06-03T12:37:53Z</time>
      </trkpt>
      <trkpt lat="41.75392" lon="9.0843">
        <ele>908.4</ele>
        <time>2021-06-03T12:37:54Z</time>
      </trkpt>
      <trkpt lat="41.75392" lon="9.08433">
        <ele>908.4</ele>
        <time>2021-06-03T12:37:55Z</time>
      </trkpt>
      <trkpt lat="41.75392" lon="9.08436">
        <ele>908.4</ele>
        <time>2021-06-03T12:37:56Z</time>
      </trkpt>
      <trkpt lat="41.75393" lon="9.08439">
        <ele>908.4</ele>
        <time>2021-06-03T12:37:57Z</time>
      </trkpt>
      <trkpt lat="41.75393" lon="9.08442">
        <ele>908.8</ele>
        <time>2021-06-03T12:37:58Z</time>
      </trkpt>
      <trkpt lat="41.75394" lon="9.08445">
        <ele>908.8</ele>
        <time>2021-06-03T12:37:59Z</time>
      </trkpt>
      <trkpt lat="41.75394" lon="9.08448">
        <ele>908.8</ele>
        <time>2021-06-03T12:38:00Z</time>
      </trkpt>
      <trkpt lat="41.75395" lon="9.08451">
        <ele>908.8</ele>
        <time>2021-06-03T12:38:01Z</time>
      </trkpt>
      <trkpt lat="41.75396" lon="9.08454">
        <ele>909</ele>
        <time>2021-06-03T12:38:02Z</time>
      </trkpt>
      <trkpt lat="41.75397" lon="9.08456">
        <ele>909</ele>
        <time>2021-06-03T12:38:03Z</time>
      </trkpt>
      <trkpt lat="41.75397" lon="9.08459">
        <ele>909</ele>
        <time>2021-06-03T12:38:04Z</time>
      </trkpt>
      <trkpt lat="41.75398" lon="9.08462">
        <ele>909</ele>
        <time>2021-06-03T12:38:05Z</time>
      </trkpt>
      <trkpt lat="41.75399" lon="9.08464">
        <ele>909.4</ele>
        <time>2021-06-03T12:38:06Z</time>
      </trkpt>
      <trkpt lat="41.754" lon="9.08467">
        <ele>909.4</ele>
        <time>2021-06-03T12:38:07Z</time>
      </trkpt>
      <trkpt lat="41.75401" lon="9.08469">
        <ele>909.4</ele>
        <time>2021-06-03T12:38:08Z</time>
      </trkpt>
      <trkpt lat="41.75402" lon="9.08472">
        <ele>909.2</ele>
        <time>2021-06-03T12:38:09Z</time>
      </trkpt>
      <trkpt lat="41.75402" lon="9.08475">
        <ele>909.2</ele>
        <time>2021-06-03T12:38:10Z</time>
      </trkpt>
      <trkpt lat="41.75403" lon="9.08477">
        <ele>909.4</ele>
        <time>2021-06-03T12:38:11Z</time>
      </trkpt>
      <trkpt lat="41.75404" lon="9.08479">
        <ele>909.4</ele>
        <time>2021-06-03T12:38:12Z</time>
      </trkpt>
      <trkpt lat="41.75405" lon="9.08482">
        <ele>909.4</ele>
        <time>2021-06-03T12:38:13Z</time>
      </trkpt>
      <trkpt lat="41.75406" lon="9.08484">
        <ele>908.8</ele>
        <time>2021-06-03T12:38:14Z</time>
      </trkpt>
      <trkpt lat="41.75407" lon="9.08487">
        <ele>908.8</ele>
        <time>2021-06-03T12:38:15Z</time>
      </trkpt>
      <trkpt lat="41.75408" lon="9.08489">
        <ele>908.8</ele>
        <time>2021-06-03T12:38:16Z</time>
      </trkpt>
      <trkpt lat="41.75409" lon="9.08491">
        <ele>909.8</ele>
        <time>2021-06-03T12:38:17Z</time>
      </trkpt>
      <trkpt lat="41.75411" lon="9.08493">
        <ele>911</ele>
        <time>2021-06-03T12:38:18Z</time>
      </trkpt>
      <trkpt lat="41.75412" lon="9.08495">
        <ele>911</ele>
        <time>2021-06-03T12:38:19Z</time>
      </trkpt>
      <trkpt lat="41.75413" lon="9.08498">
        <ele>911</ele>
        <time>2021-06-03T12:38:20Z</time>
      </trkpt>
      <trkpt lat="41.75414" lon="9.085">
        <ele>911.4</ele>
        <time>2021-06-03T12:38:21Z</time>
      </trkpt>
      <trkpt lat="41.75415" lon="9.08502">
        <ele>911.2</ele>
        <time>2021-06-03T12:38:22Z</time>
      </trkpt>
      <trkpt lat="41.75416" lon="9.08504">
        <ele>911.2</ele>
        <time>2021-06-03T12:38:23Z</time>
      </trkpt>
      <trkpt lat="41.75418" lon="9.08506">
        <ele>911.2</ele>
        <time>2021-06-03T12:38:24Z</time>
      </trkpt>
      <trkpt lat="41.75419" lon="9.08508">
        <ele>911.2</ele>
        <time>2021-06-03T12:38:25Z</time>
      </trkpt>
      <trkpt lat="41.75421" lon="9.0851">
        <ele>911.6</ele>
        <time>2021-06-03T12:38:26Z</time>
      </trkpt>
      <trkpt lat="41.75423" lon="9.08512">
        <ele>911.6</ele>
        <time>2021-06-03T12:38:27Z</time>
      </trkpt>
      <trkpt lat="41.75424" lon="9.08514">
        <ele>911.6</ele>
        <time>2021-06-03T12:38:28Z</time>
      </trkpt>
      <trkpt lat="41.75426" lon="9.08516">
        <ele>912</ele>
        <time>2021-06-03T12:38:29Z</time>
      </trkpt>
      <trkpt lat="41.75428" lon="9.08518">
        <ele>912.2</ele>
        <time>2021-06-03T12:38:30Z</time>
      </trkpt>
      <trkpt lat="41.75429" lon="9.08521">
        <ele>912.2</ele>
        <time>2021-06-03T12:38:31Z</time>
      </trkpt>
      <trkpt lat="41.75431" lon="9.08523">
        <ele>912.2</ele>
        <time>2021-06-03T12:38:32Z</time>
      </trkpt>
      <trkpt lat="41.75432" lon="9.08525">
        <ele>912</ele>
        <time>2021-06-03T12:38:33Z</time>
      </trkpt>
      <trkpt lat="41.75434" lon="9.08528">
        <ele>912</ele>
        <time>2021-06-03T12:38:34Z</time>
      </trkpt>
      <trkpt lat="41.75436" lon="9.0853">
        <ele>912</ele>
        <time>2021-06-03T12:38:35Z</time>
      </trkpt>
      <trkpt lat="41.75437" lon="9.08533">
        <ele>912</ele>
        <time>2021-06-03T12:38:36Z</time>
      </trkpt>
      <trkpt lat="41.75439" lon="9.08536">
        <ele>912</ele>
        <time>2021-06-03T12:38:37Z</time>
      </trkpt>
      <trkpt lat="41.7544" lon="9.08538">
        <ele>912.6</ele>
        <time>2021-06-03T12:38:38Z</time>
      </trkpt>
      <trkpt lat="41.75441" lon="9.08541">
        <ele>912.6</ele>
        <time>2021-06-03T12:38:39Z</time>
      </trkpt>
      <trkpt lat="41.75442" lon="9.08544">
        <ele>912.6</ele>
        <time>2021-06-03T12:38:40Z</time>
      </trkpt>
      <trkpt lat="41.75443" lon="9.08547">
        <ele>913.2</ele>
        <time>2021-06-03T12:38:41Z</time>
      </trkpt>
      <trkpt lat="41.75443" lon="9.0855">
        <ele>913.2</ele>
        <time>2021-06-03T12:38:42Z</time>
      </trkpt>
      <trkpt lat="41.75444" lon="9.08553">
        <ele>913.2</ele>
        <time>2021-06-03T12:38:43Z</time>
      </trkpt>
      <trkpt lat="41.75444" lon="9.08555">
        <ele>913.2</ele>
        <time>2021-06-03T12:38:44Z</time>
      </trkpt>
      <trkpt lat="41.75445" lon="9.08558">
        <ele>913.2</ele>
        <time>2021-06-03T12:38:45Z</time>
      </trkpt>
      <trkpt lat="41.75445" lon="9.08561">
        <ele>913.6</ele>
        <time>2021-06-03T12:38:46Z</time>
      </trkpt>
      <trkpt lat="41.75446" lon="9.08564">
        <ele>913.6</ele>
        <time>2021-06-03T12:38:47Z</time>
      </trkpt>
      <trkpt lat="41.75446" lon="9.08567">
        <ele>913.6</ele>
        <time>2021-06-03T12:38:48Z</time>
      </trkpt>
      <trkpt lat="41.75446" lon="9.08569">
        <ele>913.6</ele>
        <time>2021-06-03T12:38:49Z</time>
      </trkpt>
      <trkpt lat="41.75446" lon="9.08572">
        <ele>913.6</ele>
        <time>2021-06-03T12:38:50Z</time>
      </trkpt>
      <trkpt lat="41.75447" lon="9.08575">
        <ele>914.8</ele>
        <time>2021-06-03T12:38:51Z</time>
      </trkpt>
      <trkpt lat="41.75447" lon="9.08578">
        <ele>914.8</ele>
        <time>2021-06-03T12:38:52Z</time>
      </trkpt>
      <trkpt lat="41.75447" lon="9.08581">
        <ele>914</ele>
        <time>2021-06-03T12:38:53Z</time>
      </trkpt>
      <trkpt lat="41.75447" lon="9.08584">
        <ele>914.4</ele>
        <time>2021-06-03T12:38:54Z</time>
      </trkpt>
      <trkpt lat="41.75447" lon="9.08586">
        <ele>914.4</ele>
        <time>2021-06-03T12:38:55Z</time>
      </trkpt>
      <trkpt lat="41.75447" lon="9.08589">
        <ele>914.4</ele>
        <time>2021-06-03T12:38:56Z</time>
      </trkpt>
      <trkpt lat="41.75446" lon="9.08592">
        <ele>914.4</ele>
        <time>2021-06-03T12:38:57Z</time>
      </trkpt>
      <trkpt lat="41.75446" lon="9.08595">
        <ele>915</ele>
        <time>2021-06-03T12:38:58Z</time>
      </trkpt>
      <trkpt lat="41.75446" lon="9.08598">
        <ele>915</ele>
        <time>2021-06-03T12:38:59Z</time>
      </trkpt>
      <trkpt lat="41.75446" lon="9.08601">
        <ele>915</ele>
        <time>2021-06-03T12:39:00Z</time>
      </trkpt>
      <trkpt lat="41.75446" lon="9.08603">
        <ele>915</ele>
        <time>2021-06-03T12:39:01Z</time>
      </trkpt>
      <trkpt lat="41.75446" lon="9.08606">
        <ele>914.6</ele>
        <time>2021-06-03T12:39:02Z</time>
      </trkpt>
      <trkpt lat="41.75446" lon="9.08609">
        <ele>914.6</ele>
        <time>2021-06-03T12:39:03Z</time>
      </trkpt>
      <trkpt lat="41.75446" lon="9.08612">
        <ele>914.6</ele>
        <time>2021-06-03T12:39:04Z</time>
      </trkpt>
      <trkpt lat="41.75446" lon="9.08615">
        <ele>914.6</ele>
        <time>2021-06-03T12:39:05Z</time>
      </trkpt>
      <trkpt lat="41.75446" lon="9.08617">
        <ele>914.4</ele>
        <time>2021-06-03T12:39:06Z</time>
      </trkpt>
      <trkpt lat="41.75445" lon="9.0862">
        <ele>914.4</ele>
        <time>2021-06-03T12:39:07Z</time>
      </trkpt>
      <trkpt lat="41.75445" lon="9.08623">
        <ele>914.4</ele>
        <time>2021-06-03T12:39:08Z</time>
      </trkpt>
      <trkpt lat="41.75445" lon="9.08625">
        <ele>914.4</ele>
        <time>2021-06-03T12:39:09Z</time>
      </trkpt>
      <trkpt lat="41.75445" lon="9.08628">
        <ele>914.4</ele>
        <time>2021-06-03T12:39:10Z</time>
      </trkpt>
      <trkpt lat="41.75445" lon="9.08631">
        <ele>914</ele>
        <time>2021-06-03T12:39:11Z</time>
      </trkpt>
      <trkpt lat="41.75445" lon="9.08634">
        <ele>914</ele>
        <time>2021-06-03T12:39:12Z</time>
      </trkpt>
      <trkpt lat="41.75445" lon="9.08637">
        <ele>915</ele>
        <time>2021-06-03T12:39:13Z</time>
      </trkpt>
      <trkpt lat="41.75445" lon="9.0864">
        <ele>916.4</ele>
        <time>2021-06-03T12:39:14Z</time>
      </trkpt>
      <trkpt lat="41.75445" lon="9.08643">
        <ele>916.4</ele>
        <time>2021-06-03T12:39:15Z</time>
      </trkpt>
      <trkpt lat="41.75445" lon="9.08646">
        <ele>916.4</ele>
        <time>2021-06-03T12:39:16Z</time>
      </trkpt>
      <trkpt lat="41.75445" lon="9.08649">
        <ele>917.4</ele>
        <time>2021-06-03T12:39:17Z</time>
      </trkpt>
      <trkpt lat="41.75445" lon="9.08652">
        <ele>917.2</ele>
        <time>2021-06-03T12:39:18Z</time>
      </trkpt>
      <trkpt lat="41.75445" lon="9.08655">
        <ele>917.2</ele>
        <time>2021-06-03T12:39:19Z</time>
      </trkpt>
      <trkpt lat="41.75445" lon="9.08657">
        <ele>917.2</ele>
        <time>2021-06-03T12:39:20Z</time>
      </trkpt>
      <trkpt lat="41.75446" lon="9.0866">
        <ele>917.2</ele>
        <time>2021-06-03T12:39:21Z</time>
      </trkpt>
      <trkpt lat="41.75445" lon="9.08663">
        <ele>917.2</ele>
        <time>2021-06-03T12:39:22Z</time>
      </trkpt>
      <trkpt lat="41.75445" lon="9.08666">
        <ele>917.2</ele>
        <time>2021-06-03T12:39:23Z</time>
      </trkpt>
      <trkpt lat="41.75445" lon="9.08669">
        <ele>917.2</ele>
        <time>2021-06-03T12:39:24Z</time>
      </trkpt>
      <trkpt lat="41.75446" lon="9.08672">
        <ele>917.2</ele>
        <time>2021-06-03T12:39:25Z</time>
      </trkpt>
      <trkpt lat="41.75446" lon="9.08674">
        <ele>917</ele>
        <time>2021-06-03T12:39:26Z</time>
      </trkpt>
      <trkpt lat="41.75445" lon="9.08677">
        <ele>917</ele>
        <time>2021-06-03T12:39:27Z</time>
      </trkpt>
      <trkpt lat="41.75445" lon="9.0868">
        <ele>917</ele>
        <time>2021-06-03T12:39:28Z</time>
      </trkpt>
      <trkpt lat="41.75445" lon="9.08683">
        <ele>917.4</ele>
        <time>2021-06-03T12:39:29Z</time>
      </trkpt>
      <trkpt lat="41.75446" lon="9.08686">
        <ele>917.4</ele>
        <time>2021-06-03T12:39:30Z</time>
      </trkpt>
      <trkpt lat="41.75446" lon="9.08689">
        <ele>917.8</ele>
        <time>2021-06-03T12:39:31Z</time>
      </trkpt>
      <trkpt lat="41.75446" lon="9.08692">
        <ele>917.8</ele>
        <time>2021-06-03T12:39:32Z</time>
      </trkpt>
      <trkpt lat="41.75446" lon="9.08694">
        <ele>917.6</ele>
        <time>2021-06-03T12:39:33Z</time>
      </trkpt>
      <trkpt lat="41.75446" lon="9.08697">
        <ele>917.8</ele>
        <time>2021-06-03T12:39:34Z</time>
      </trkpt>
      <trkpt lat="41.75445" lon="9.087">
        <ele>917.8</ele>
        <time>2021-06-03T12:39:35Z</time>
      </trkpt>
      <trkpt lat="41.75445" lon="9.08703">
        <ele>917.8</ele>
        <time>2021-06-03T12:39:36Z</time>
      </trkpt>
      <trkpt lat="41.75445" lon="9.08706">
        <ele>917.8</ele>
        <time>2021-06-03T12:39:37Z</time>
      </trkpt>
      <trkpt lat="41.75445" lon="9.08709">
        <ele>917.2</ele>
        <time>2021-06-03T12:39:38Z</time>
      </trkpt>
      <trkpt lat="41.75446" lon="9.08712">
        <ele>917.2</ele>
        <time>2021-06-03T12:39:39Z</time>
      </trkpt>
      <trkpt lat="41.75446" lon="9.08716">
        <ele>917.2</ele>
        <time>2021-06-03T12:39:40Z</time>
      </trkpt>
      <trkpt lat="41.75446" lon="9.08719">
        <ele>918.2</ele>
        <time>2021-06-03T12:39:41Z</time>
      </trkpt>
      <trkpt lat="41.75446" lon="9.08723">
        <ele>918.8</ele>
        <time>2021-06-03T12:39:42Z</time>
      </trkpt>
      <trkpt lat="41.75447" lon="9.08726">
        <ele>918.8</ele>
        <time>2021-06-03T12:39:43Z</time>
      </trkpt>
      <trkpt lat="41.75448" lon="9.08731">
        <ele>918.8</ele>
        <time>2021-06-03T12:39:44Z</time>
      </trkpt>
      <trkpt lat="41.75448" lon="9.08736">
        <ele>918.8</ele>
        <time>2021-06-03T12:39:45Z</time>
      </trkpt>
      <trkpt lat="41.75449" lon="9.08741">
        <ele>916.2</ele>
        <time>2021-06-03T12:39:46Z</time>
      </trkpt>
      <trkpt lat="41.7545" lon="9.08746">
        <ele>916.2</ele>
        <time>2021-06-03T12:39:47Z</time>
      </trkpt>
      <trkpt lat="41.75451" lon="9.08752">
        <ele>916.2</ele>
        <time>2021-06-03T12:39:48Z</time>
      </trkpt>
      <trkpt lat="41.75452" lon="9.08758">
        <ele>916.2</ele>
        <time>2021-06-03T12:39:49Z</time>
      </trkpt>
      <trkpt lat="41.75454" lon="9.08764">
        <ele>916.2</ele>
        <time>2021-06-03T12:39:50Z</time>
      </trkpt>
      <trkpt lat="41.75456" lon="9.08771">
        <ele>915.6</ele>
        <time>2021-06-03T12:39:51Z</time>
      </trkpt>
      <trkpt lat="41.75458" lon="9.08777">
        <ele>915.6</ele>
        <time>2021-06-03T12:39:52Z</time>
      </trkpt>
      <trkpt lat="41.75461" lon="9.08784">
        <ele>915.4</ele>
        <time>2021-06-03T12:39:53Z</time>
      </trkpt>
      <trkpt lat="41.75463" lon="9.08791">
        <ele>915.4</ele>
        <time>2021-06-03T12:39:54Z</time>
      </trkpt>
      <trkpt lat="41.75466" lon="9.08799">
        <ele>915.4</ele>
        <time>2021-06-03T12:39:55Z</time>
      </trkpt>
      <trkpt lat="41.75468" lon="9.08807">
        <ele>915.4</ele>
        <time>2021-06-03T12:39:56Z</time>
      </trkpt>
      <trkpt lat="41.7547" lon="9.08815">
        <ele>914.4</ele>
        <time>2021-06-03T12:39:57Z</time>
      </trkpt>
      <trkpt lat="41.75471" lon="9.08824">
        <ele>913.4</ele>
        <time>2021-06-03T12:39:58Z</time>
      </trkpt>
      <trkpt lat="41.75472" lon="9.08834">
        <ele>913.4</ele>
        <time>2021-06-03T12:39:59Z</time>
      </trkpt>
      <trkpt lat="41.75473" lon="9.08844">
        <ele>913.4</ele>
        <time>2021-06-03T12:40:00Z</time>
      </trkpt>
      <trkpt lat="41.75474" lon="9.08854">
        <ele>912.4</ele>
        <time>2021-06-03T12:40:01Z</time>
      </trkpt>
      <trkpt lat="41.75475" lon="9.08864">
        <ele>910.6</ele>
        <time>2021-06-03T12:40:02Z</time>
      </trkpt>
      <trkpt lat="41.75475" lon="9.08875">
        <ele>910.6</ele>
        <time>2021-06-03T12:40:03Z</time>
      </trkpt>
      <trkpt lat="41.75473" lon="9.08886">
        <ele>910.6</ele>
        <time>2021-06-03T12:40:04Z</time>
      </trkpt>
      <trkpt lat="41.75471" lon="9.08897">
        <ele>910.6</ele>
        <time>2021-06-03T12:40:05Z</time>
      </trkpt>
      <trkpt lat="41.75467" lon="9.08908">
        <ele>909.4</ele>
        <time>2021-06-03T12:40:06Z</time>
      </trkpt>
      <trkpt lat="41.75462" lon="9.08918">
        <ele>909.4</ele>
        <time>2021-06-03T12:40:07Z</time>
      </trkpt>
      <trkpt lat="41.75456" lon="9.08928">
        <ele>909.4</ele>
        <time>2021-06-03T12:40:08Z</time>
      </trkpt>
      <trkpt lat="41.75449" lon="9.08937">
        <ele>908.4</ele>
        <time>2021-06-03T12:40:09Z</time>
      </trkpt>
      <trkpt lat="41.75443" lon="9.08946">
        <ele>908.4</ele>
        <time>2021-06-03T12:40:10Z</time>
      </trkpt>
      <trkpt lat="41.75437" lon="9.08955">
        <ele>905.6</ele>
        <time>2021-06-03T12:40:11Z</time>
      </trkpt>
      <trkpt lat="41.75431" lon="9.08965">
        <ele>905.6</ele>
        <time>2021-06-03T12:40:12Z</time>
      </trkpt>
      <trkpt lat="41.75426" lon="9.08976">
        <ele>904.6</ele>
        <time>2021-06-03T12:40:13Z</time>
      </trkpt>
      <trkpt lat="41.75421" lon="9.08989">
        <ele>902.4</ele>
        <time>2021-06-03T12:40:14Z</time>
      </trkpt>
      <trkpt lat="41.75416" lon="9.09001">
        <ele>902.4</ele>
        <time>2021-06-03T12:40:15Z</time>
      </trkpt>
      <trkpt lat="41.7541" lon="9.09014">
        <ele>902.4</ele>
        <time>2021-06-03T12:40:16Z</time>
      </trkpt>
      <trkpt lat="41.75404" lon="9.09026">
        <ele>901.4</ele>
        <time>2021-06-03T12:40:17Z</time>
      </trkpt>
      <trkpt lat="41.75398" lon="9.09038">
        <ele>901.4</ele>
        <time>2021-06-03T12:40:18Z</time>
      </trkpt>
      <trkpt lat="41.75392" lon="9.0905">
        <ele>897</ele>
        <time>2021-06-03T12:40:19Z</time>
      </trkpt>
      <trkpt lat="41.75386" lon="9.09062">
        <ele>897</ele>
        <time>2021-06-03T12:40:20Z</time>
      </trkpt>
      <trkpt lat="41.75381" lon="9.09074">
        <ele>897</ele>
        <time>2021-06-03T12:40:21Z</time>
      </trkpt>
      <trkpt lat="41.75379" lon="9.09087">
        <ele>895</ele>
        <time>2021-06-03T12:40:22Z</time>
      </trkpt>
      <trkpt lat="41.75379" lon="9.09102">
        <ele>895</ele>
        <time>2021-06-03T12:40:23Z</time>
      </trkpt>
      <trkpt lat="41.75381" lon="9.09115">
        <ele>895</ele>
        <time>2021-06-03T12:40:24Z</time>
      </trkpt>
      <trkpt lat="41.75386" lon="9.09128">
        <ele>894</ele>
        <time>2021-06-03T12:40:25Z</time>
      </trkpt>
      <trkpt lat="41.75392" lon="9.0914">
        <ele>894.4</ele>
        <time>2021-06-03T12:40:26Z</time>
      </trkpt>
      <trkpt lat="41.754" lon="9.0915">
        <ele>894.4</ele>
        <time>2021-06-03T12:40:27Z</time>
      </trkpt>
      <trkpt lat="41.75409" lon="9.0916">
        <ele>894.4</ele>
        <time>2021-06-03T12:40:28Z</time>
      </trkpt>
      <trkpt lat="41.75416" lon="9.09172">
        <ele>893.4</ele>
        <time>2021-06-03T12:40:29Z</time>
      </trkpt>
      <trkpt lat="41.75424" lon="9.09183">
        <ele>891.4</ele>
        <time>2021-06-03T12:40:30Z</time>
      </trkpt>
      <trkpt lat="41.75431" lon="9.09195">
        <ele>891.4</ele>
        <time>2021-06-03T12:40:31Z</time>
      </trkpt>
      <trkpt lat="41.75439" lon="9.09206">
        <ele>891.4</ele>
        <time>2021-06-03T12:40:32Z</time>
      </trkpt>
      <trkpt lat="41.75445" lon="9.09216">
        <ele>891.4</ele>
        <time>2021-06-03T12:40:33Z</time>
      </trkpt>
      <trkpt lat="41.75449" lon="9.09225">
        <ele>890.2</ele>
        <time>2021-06-03T12:40:34Z</time>
      </trkpt>
      <trkpt lat="41.75453" lon="9.09235">
        <ele>890.2</ele>
        <time>2021-06-03T12:40:35Z</time>
      </trkpt>
      <trkpt lat="41.75453" lon="9.09246">
        <ele>890.2</ele>
        <time>2021-06-03T12:40:36Z</time>
      </trkpt>
      <trkpt lat="41.7545" lon="9.09255">
        <ele>890.4</ele>
        <time>2021-06-03T12:40:37Z</time>
      </trkpt>
      <trkpt lat="41.75447" lon="9.09265">
        <ele>890</ele>
        <time>2021-06-03T12:40:38Z</time>
      </trkpt>
      <trkpt lat="41.75444" lon="9.09275">
        <ele>890</ele>
        <time>2021-06-03T12:40:39Z</time>
      </trkpt>
      <trkpt lat="41.7544" lon="9.09285">
        <ele>890</ele>
        <time>2021-06-03T12:40:40Z</time>
      </trkpt>
      <trkpt lat="41.75437" lon="9.09295">
        <ele>890</ele>
        <time>2021-06-03T12:40:41Z</time>
      </trkpt>
      <trkpt lat="41.75433" lon="9.09306">
        <ele>886.6</ele>
        <time>2021-06-03T12:40:42Z</time>
      </trkpt>
      <trkpt lat="41.75428" lon="9.09316">
        <ele>886.6</ele>
        <time>2021-06-03T12:40:43Z</time>
      </trkpt>
      <trkpt lat="41.75424" lon="9.09327">
        <ele>886.6</ele>
        <time>2021-06-03T12:40:44Z</time>
      </trkpt>
      <trkpt lat="41.75419" lon="9.09337">
        <ele>885.6</ele>
        <time>2021-06-03T12:40:45Z</time>
      </trkpt>
      <trkpt lat="41.75415" lon="9.09348">
        <ele>885.6</ele>
        <time>2021-06-03T12:40:46Z</time>
      </trkpt>
      <trkpt lat="41.7541" lon="9.0936">
        <ele>883.6</ele>
        <time>2021-06-03T12:40:47Z</time>
      </trkpt>
      <trkpt lat="41.75408" lon="9.09373">
        <ele>883.6</ele>
        <time>2021-06-03T12:40:48Z</time>
      </trkpt>
      <trkpt lat="41.75408" lon="9.09386">
        <ele>882.6</ele>
        <time>2021-06-03T12:40:49Z</time>
      </trkpt>
      <trkpt lat="41.75408" lon="9.094">
        <ele>880.4</ele>
        <time>2021-06-03T12:40:50Z</time>
      </trkpt>
      <trkpt lat="41.75407" lon="9.09414">
        <ele>880.4</ele>
        <time>2021-06-03T12:40:51Z</time>
      </trkpt>
      <trkpt lat="41.75407" lon="9.09429">
        <ele>880.4</ele>
        <time>2021-06-03T12:40:52Z</time>
      </trkpt>
      <trkpt lat="41.75407" lon="9.09443">
        <ele>879.4</ele>
        <time>2021-06-03T12:40:53Z</time>
      </trkpt>
      <trkpt lat="41.75407" lon="9.09455">
        <ele>878.8</ele>
        <time>2021-06-03T12:40:54Z</time>
      </trkpt>
      <trkpt lat="41.75409" lon="9.09467">
        <ele>878.8</ele>
        <time>2021-06-03T12:40:55Z</time>
      </trkpt>
      <trkpt lat="41.75413" lon="9.09478">
        <ele>878.8</ele>
        <time>2021-06-03T12:40:56Z</time>
      </trkpt>
      <trkpt lat="41.75416" lon="9.09489">
        <ele>878.8</ele>
        <time>2021-06-03T12:40:57Z</time>
      </trkpt>
      <trkpt lat="41.75419" lon="9.09502">
        <ele>876.4</ele>
        <time>2021-06-03T12:40:58Z</time>
      </trkpt>
      <trkpt lat="41.7542" lon="9.09516">
        <ele>876.4</ele>
        <time>2021-06-03T12:40:59Z</time>
      </trkpt>
      <trkpt lat="41.7542" lon="9.09529">
        <ele>876.4</ele>
        <time>2021-06-03T12:41:00Z</time>
      </trkpt>
      <trkpt lat="41.7542" lon="9.09544">
        <ele>875.4</ele>
        <time>2021-06-03T12:41:01Z</time>
      </trkpt>
      <trkpt lat="41.75421" lon="9.09558">
        <ele>874.4</ele>
        <time>2021-06-03T12:41:02Z</time>
      </trkpt>
      <trkpt lat="41.75421" lon="9.09571">
        <ele>874.4</ele>
        <time>2021-06-03T12:41:03Z</time>
      </trkpt>
      <trkpt lat="41.75419" lon="9.09581">
        <ele>874.4</ele>
        <time>2021-06-03T12:41:04Z</time>
      </trkpt>
      <trkpt lat="41.75413" lon="9.09591">
        <ele>873.4</ele>
        <time>2021-06-03T12:41:05Z</time>
      </trkpt>
      <trkpt lat="41.75405" lon="9.09598">
        <ele>871.6</ele>
        <time>2021-06-03T12:41:06Z</time>
      </trkpt>
      <trkpt lat="41.75397" lon="9.09603">
        <ele>871.6</ele>
        <time>2021-06-03T12:41:07Z</time>
      </trkpt>
      <trkpt lat="41.75388" lon="9.09609">
        <ele>871.6</ele>
        <time>2021-06-03T12:41:08Z</time>
      </trkpt>
      <trkpt lat="41.75379" lon="9.09617">
        <ele>870.6</ele>
        <time>2021-06-03T12:41:09Z</time>
      </trkpt>
      <trkpt lat="41.75371" lon="9.09626">
        <ele>865.2</ele>
        <time>2021-06-03T12:41:10Z</time>
      </trkpt>
      <trkpt lat="41.75366" lon="9.09637">
        <ele>865.2</ele>
        <time>2021-06-03T12:41:11Z</time>
      </trkpt>
      <trkpt lat="41.75361" lon="9.0965">
        <ele>865.2</ele>
        <time>2021-06-03T12:41:12Z</time>
      </trkpt>
      <trkpt lat="41.75359" lon="9.09664">
        <ele>865.2</ele>
        <time>2021-06-03T12:41:13Z</time>
      </trkpt>
      <trkpt lat="41.75357" lon="9.09677">
        <ele>864.2</ele>
        <time>2021-06-03T12:41:14Z</time>
      </trkpt>
      <trkpt lat="41.75356" lon="9.09691">
        <ele>864.2</ele>
        <time>2021-06-03T12:41:15Z</time>
      </trkpt>
      <trkpt lat="41.75354" lon="9.09706">
        <ele>864.2</ele>
        <time>2021-06-03T12:41:16Z</time>
      </trkpt>
      <trkpt lat="41.75353" lon="9.0972">
        <ele>863.2</ele>
        <time>2021-06-03T12:41:17Z</time>
      </trkpt>
      <trkpt lat="41.75352" lon="9.09734">
        <ele>862</ele>
        <time>2021-06-03T12:41:18Z</time>
      </trkpt>
      <trkpt lat="41.7535" lon="9.09749">
        <ele>862</ele>
        <time>2021-06-03T12:41:19Z</time>
      </trkpt>
      <trkpt lat="41.75348" lon="9.09763">
        <ele>862</ele>
        <time>2021-06-03T12:41:20Z</time>
      </trkpt>
      <trkpt lat="41.75348" lon="9.09778">
        <ele>861</ele>
        <time>2021-06-03T12:41:21Z</time>
      </trkpt>
      <trkpt lat="41.75349" lon="9.09792">
        <ele>858.2</ele>
        <time>2021-06-03T12:41:22Z</time>
      </trkpt>
      <trkpt lat="41.75351" lon="9.09806">
        <ele>858.2</ele>
        <time>2021-06-03T12:41:23Z</time>
      </trkpt>
      <trkpt lat="41.75353" lon="9.0982">
        <ele>858.2</ele>
        <time>2021-06-03T12:41:24Z</time>
      </trkpt>
      <trkpt lat="41.75355" lon="9.09835">
        <ele>858.8</ele>
        <time>2021-06-03T12:41:25Z</time>
      </trkpt>
      <trkpt lat="41.75356" lon="9.09849">
        <ele>858.2</ele>
        <time>2021-06-03T12:41:26Z</time>
      </trkpt>
      <trkpt lat="41.75355" lon="9.09864">
        <ele>858.2</ele>
        <time>2021-06-03T12:41:27Z</time>
      </trkpt>
      <trkpt lat="41.75355" lon="9.09878">
        <ele>858.2</ele>
        <time>2021-06-03T12:41:28Z</time>
      </trkpt>
      <trkpt lat="41.75355" lon="9.09892">
        <ele>857.2</ele>
        <time>2021-06-03T12:41:29Z</time>
      </trkpt>
      <trkpt lat="41.75356" lon="9.09907">
        <ele>856.2</ele>
        <time>2021-06-03T12:41:30Z</time>
      </trkpt>
      <trkpt lat="41.75357" lon="9.0992">
        <ele>856.2</ele>
        <time>2021-06-03T12:41:31Z</time>
      </trkpt>
      <trkpt lat="41.75358" lon="9.09934">
        <ele>856.2</ele>
        <time>2021-06-03T12:41:32Z</time>
      </trkpt>
      <trkpt lat="41.7536" lon="9.09947">
        <ele>855.2</ele>
        <time>2021-06-03T12:41:33Z</time>
      </trkpt>
      <trkpt lat="41.75361" lon="9.09961">
        <ele>853.2</ele>
        <time>2021-06-03T12:41:34Z</time>
      </trkpt>
      <trkpt lat="41.75363" lon="9.09974">
        <ele>853.2</ele>
        <time>2021-06-03T12:41:35Z</time>
      </trkpt>
      <trkpt lat="41.75365" lon="9.09987">
        <ele>853.2</ele>
        <time>2021-06-03T12:41:36Z</time>
      </trkpt>
      <trkpt lat="41.75366" lon="9.09998">
        <ele>853.2</ele>
        <time>2021-06-03T12:41:37Z</time>
      </trkpt>
      <trkpt lat="41.75368" lon="9.10009">
        <ele>854</ele>
        <time>2021-06-03T12:41:38Z</time>
      </trkpt>
      <trkpt lat="41.7537" lon="9.10018">
        <ele>854</ele>
        <time>2021-06-03T12:41:39Z</time>
      </trkpt>
      <trkpt lat="41.75372" lon="9.10028">
        <ele>854</ele>
        <time>2021-06-03T12:41:40Z</time>
      </trkpt>
      <trkpt lat="41.75375" lon="9.10036">
        <ele>854</ele>
        <time>2021-06-03T12:41:41Z</time>
      </trkpt>
      <trkpt lat="41.75378" lon="9.10046">
        <ele>853.2</ele>
        <time>2021-06-03T12:41:42Z</time>
      </trkpt>
      <trkpt lat="41.75382" lon="9.10055">
        <ele>853.2</ele>
        <time>2021-06-03T12:41:43Z</time>
      </trkpt>
      <trkpt lat="41.75386" lon="9.10064">
        <ele>853.2</ele>
        <time>2021-06-03T12:41:44Z</time>
      </trkpt>
      <trkpt lat="41.75391" lon="9.10074">
        <ele>853.2</ele>
        <time>2021-06-03T12:41:45Z</time>
      </trkpt>
      <trkpt lat="41.75397" lon="9.10082">
        <ele>850.4</ele>
        <time>2021-06-03T12:41:46Z</time>
      </trkpt>
      <trkpt lat="41.75403" lon="9.10089">
        <ele>850.4</ele>
        <time>2021-06-03T12:41:47Z</time>
      </trkpt>
      <trkpt lat="41.7541" lon="9.10097">
        <ele>850.4</ele>
        <time>2021-06-03T12:41:48Z</time>
      </trkpt>
      <trkpt lat="41.75417" lon="9.10104">
        <ele>850.4</ele>
        <time>2021-06-03T12:41:49Z</time>
      </trkpt>
      <trkpt lat="41.75425" lon="9.10112">
        <ele>851</ele>
        <time>2021-06-03T12:41:50Z</time>
      </trkpt>
      <trkpt lat="41.75433" lon="9.10119">
        <ele>851</ele>
        <time>2021-06-03T12:41:51Z</time>
      </trkpt>
      <trkpt lat="41.75441" lon="9.10125">
        <ele>851</ele>
        <time>2021-06-03T12:41:52Z</time>
      </trkpt>
      <trkpt lat="41.75451" lon="9.1013">
        <ele>850</ele>
        <time>2021-06-03T12:41:53Z</time>
      </trkpt>
      <trkpt lat="41.75461" lon="9.10134">
        <ele>846.6</ele>
        <time>2021-06-03T12:41:54Z</time>
      </trkpt>
      <trkpt lat="41.75471" lon="9.10136">
        <ele>846.6</ele>
        <time>2021-06-03T12:41:55Z</time>
      </trkpt>
      <trkpt lat="41.75482" lon="9.10139">
        <ele>846.6</ele>
        <time>2021-06-03T12:41:56Z</time>
      </trkpt>
      <trkpt lat="41.75492" lon="9.10142">
        <ele>845.6</ele>
        <time>2021-06-03T12:41:57Z</time>
      </trkpt>
      <trkpt lat="41.75503" lon="9.10147">
        <ele>843</ele>
        <time>2021-06-03T12:41:58Z</time>
      </trkpt>
      <trkpt lat="41.75513" lon="9.10153">
        <ele>843</ele>
        <time>2021-06-03T12:41:59Z</time>
      </trkpt>
      <trkpt lat="41.75523" lon="9.10159">
        <ele>843</ele>
        <time>2021-06-03T12:42:00Z</time>
      </trkpt>
      <trkpt lat="41.75533" lon="9.10166">
        <ele>842</ele>
        <time>2021-06-03T12:42:01Z</time>
      </trkpt>
      <trkpt lat="41.75542" lon="9.10175">
        <ele>838.6</ele>
        <time>2021-06-03T12:42:02Z</time>
      </trkpt>
      <trkpt lat="41.7555" lon="9.10185">
        <ele>838.6</ele>
        <time>2021-06-03T12:42:03Z</time>
      </trkpt>
      <trkpt lat="41.75557" lon="9.10196">
        <ele>838.6</ele>
        <time>2021-06-03T12:42:04Z</time>
      </trkpt>
      <trkpt lat="41.75564" lon="9.10205">
        <ele>839.6</ele>
        <time>2021-06-03T12:42:05Z</time>
      </trkpt>
      <trkpt lat="41.75571" lon="9.10212">
        <ele>841.6</ele>
        <time>2021-06-03T12:42:06Z</time>
      </trkpt>
      <trkpt lat="41.7558" lon="9.10215">
        <ele>841.6</ele>
        <time>2021-06-03T12:42:07Z</time>
      </trkpt>
      <trkpt lat="41.75589" lon="9.10215">
        <ele>841.6</ele>
        <time>2021-06-03T12:42:08Z</time>
      </trkpt>
      <trkpt lat="41.75598" lon="9.10216">
        <ele>841.6</ele>
        <time>2021-06-03T12:42:09Z</time>
      </trkpt>
      <trkpt lat="41.75607" lon="9.10215">
        <ele>840.6</ele>
        <time>2021-06-03T12:42:10Z</time>
      </trkpt>
      <trkpt lat="41.75617" lon="9.10214">
        <ele>840.6</ele>
        <time>2021-06-03T12:42:11Z</time>
      </trkpt>
      <trkpt lat="41.75627" lon="9.10214">
        <ele>840.6</ele>
        <time>2021-06-03T12:42:12Z</time>
      </trkpt>
      <trkpt lat="41.75636" lon="9.10214">
        <ele>839.6</ele>
        <time>2021-06-03T12:42:13Z</time>
      </trkpt>
      <trkpt lat="41.75646" lon="9.10213">
        <ele>834.4</ele>
        <time>2021-06-03T12:42:14Z</time>
      </trkpt>
      <trkpt lat="41.75656" lon="9.10213">
        <ele>834.4</ele>
        <time>2021-06-03T12:42:15Z</time>
      </trkpt>
      <trkpt lat="41.75665" lon="9.10213">
        <ele>834.4</ele>
        <time>2021-06-03T12:42:16Z</time>
      </trkpt>
      <trkpt lat="41.75672" lon="9.10215">
        <ele>834.4</ele>
        <time>2021-06-03T12:42:17Z</time>
      </trkpt>
      <trkpt lat="41.75677" lon="9.10219">
        <ele>836.4</ele>
        <time>2021-06-03T12:42:18Z</time>
      </trkpt>
      <trkpt lat="41.7568" lon="9.10227">
        <ele>836.4</ele>
        <time>2021-06-03T12:42:19Z</time>
      </trkpt>
      <trkpt lat="41.7568" lon="9.10236">
        <ele>836.4</ele>
        <time>2021-06-03T12:42:20Z</time>
      </trkpt>
      <trkpt lat="41.75676" lon="9.10244">
        <ele>836.4</ele>
        <time>2021-06-03T12:42:21Z</time>
      </trkpt>
      <trkpt lat="41.75671" lon="9.10251">
        <ele>834</ele>
        <time>2021-06-03T12:42:22Z</time>
      </trkpt>
      <trkpt lat="41.75666" lon="9.10258">
        <ele>834</ele>
        <time>2021-06-03T12:42:23Z</time>
      </trkpt>
      <trkpt lat="41.7566" lon="9.10265">
        <ele>834</ele>
        <time>2021-06-03T12:42:24Z</time>
      </trkpt>
      <trkpt lat="41.75654" lon="9.10273">
        <ele>833</ele>
        <time>2021-06-03T12:42:25Z</time>
      </trkpt>
      <trkpt lat="41.75648" lon="9.10281">
        <ele>831</ele>
        <time>2021-06-03T12:42:26Z</time>
      </trkpt>
      <trkpt lat="41.75642" lon="9.10289">
        <ele>831</ele>
        <time>2021-06-03T12:42:27Z</time>
      </trkpt>
      <trkpt lat="41.75636" lon="9.10298">
        <ele>831</ele>
        <time>2021-06-03T12:42:28Z</time>
      </trkpt>
      <trkpt lat="41.75629" lon="9.10307">
        <ele>831</ele>
        <time>2021-06-03T12:42:29Z</time>
      </trkpt>
      <trkpt lat="41.75622" lon="9.10316">
        <ele>829.6</ele>
        <time>2021-06-03T12:42:30Z</time>
      </trkpt>
      <trkpt lat="41.75613" lon="9.10323">
        <ele>829.6</ele>
        <time>2021-06-03T12:42:31Z</time>
      </trkpt>
      <trkpt lat="41.75604" lon="9.10329">
        <ele>829.6</ele>
        <time>2021-06-03T12:42:32Z</time>
      </trkpt>
      <trkpt lat="41.75595" lon="9.10333">
        <ele>828.6</ele>
        <time>2021-06-03T12:42:33Z</time>
      </trkpt>
      <trkpt lat="41.75584" lon="9.10334">
        <ele>825.6</ele>
        <time>2021-06-03T12:42:34Z</time>
      </trkpt>
      <trkpt lat="41.75574" lon="9.10332">
        <ele>825.6</ele>
        <time>2021-06-03T12:42:35Z</time>
      </trkpt>
      <trkpt lat="41.75564" lon="9.10327">
        <ele>825.6</ele>
        <time>2021-06-03T12:42:36Z</time>
      </trkpt>
      <trkpt lat="41.75554" lon="9.1032">
        <ele>824.6</ele>
        <time>2021-06-03T12:42:37Z</time>
      </trkpt>
      <trkpt lat="41.75545" lon="9.10314">
        <ele>820.4</ele>
        <time>2021-06-03T12:42:38Z</time>
      </trkpt>
      <trkpt lat="41.75535" lon="9.10307">
        <ele>820.4</ele>
        <time>2021-06-03T12:42:39Z</time>
      </trkpt>
      <trkpt lat="41.75525" lon="9.10301">
        <ele>820.4</ele>
        <time>2021-06-03T12:42:40Z</time>
      </trkpt>
      <trkpt lat="41.75516" lon="9.10296">
        <ele>819.4</ele>
        <time>2021-06-03T12:42:41Z</time>
      </trkpt>
      <trkpt lat="41.75508" lon="9.10291">
        <ele>817.8</ele>
        <time>2021-06-03T12:42:42Z</time>
      </trkpt>
      <trkpt lat="41.755" lon="9.10288">
        <ele>817.8</ele>
        <time>2021-06-03T12:42:43Z</time>
      </trkpt>
      <trkpt lat="41.75492" lon="9.10289">
        <ele>817.8</ele>
        <time>2021-06-03T12:42:44Z</time>
      </trkpt>
      <trkpt lat="41.75485" lon="9.10294">
        <ele>818.6</ele>
        <time>2021-06-03T12:42:45Z</time>
      </trkpt>
      <trkpt lat="41.7548" lon="9.10303">
        <ele>818.6</ele>
        <time>2021-06-03T12:42:46Z</time>
      </trkpt>
      <trkpt lat="41.75477" lon="9.10314">
        <ele>816.8</ele>
        <time>2021-06-03T12:42:47Z</time>
      </trkpt>
      <trkpt lat="41.75475" lon="9.10325">
        <ele>816.8</ele>
        <time>2021-06-03T12:42:48Z</time>
      </trkpt>
      <trkpt lat="41.75473" lon="9.10338">
        <ele>816.8</ele>
        <time>2021-06-03T12:42:49Z</time>
      </trkpt>
      <trkpt lat="41.75472" lon="9.1035">
        <ele>814</ele>
        <time>2021-06-03T12:42:50Z</time>
      </trkpt>
      <trkpt lat="41.75473" lon="9.10362">
        <ele>814</ele>
        <time>2021-06-03T12:42:51Z</time>
      </trkpt>
      <trkpt lat="41.75475" lon="9.10374">
        <ele>814</ele>
        <time>2021-06-03T12:42:52Z</time>
      </trkpt>
      <trkpt lat="41.75477" lon="9.10386">
        <ele>814</ele>
        <time>2021-06-03T12:42:53Z</time>
      </trkpt>
      <trkpt lat="41.75479" lon="9.10398">
        <ele>812.6</ele>
        <time>2021-06-03T12:42:54Z</time>
      </trkpt>
      <trkpt lat="41.75481" lon="9.10411">
        <ele>812.6</ele>
        <time>2021-06-03T12:42:55Z</time>
      </trkpt>
      <trkpt lat="41.75484" lon="9.10423">
        <ele>812.6</ele>
        <time>2021-06-03T12:42:56Z</time>
      </trkpt>
      <trkpt lat="41.75487" lon="9.10437">
        <ele>812.6</ele>
        <time>2021-06-03T12:42:57Z</time>
      </trkpt>
      <trkpt lat="41.7549" lon="9.1045">
        <ele>809.2</ele>
        <time>2021-06-03T12:42:58Z</time>
      </trkpt>
      <trkpt lat="41.75493" lon="9.10464">
        <ele>809.2</ele>
        <time>2021-06-03T12:42:59Z</time>
      </trkpt>
      <trkpt lat="41.75493" lon="9.1048">
        <ele>809.2</ele>
        <time>2021-06-03T12:43:00Z</time>
      </trkpt>
      <trkpt lat="41.75492" lon="9.10495">
        <ele>808.2</ele>
        <time>2021-06-03T12:43:01Z</time>
      </trkpt>
      <trkpt lat="41.75492" lon="9.10511">
        <ele>804.6</ele>
        <time>2021-06-03T12:43:02Z</time>
      </trkpt>
      <trkpt lat="41.75494" lon="9.10526">
        <ele>804.6</ele>
        <time>2021-06-03T12:43:03Z</time>
      </trkpt>
      <trkpt lat="41.75499" lon="9.1054">
        <ele>804.6</ele>
        <time>2021-06-03T12:43:04Z</time>
      </trkpt>
      <trkpt lat="41.75508" lon="9.10549">
        <ele>803.6</ele>
        <time>2021-06-03T12:43:05Z</time>
      </trkpt>
      <trkpt lat="41.75518" lon="9.10557">
        <ele>801.4</ele>
        <time>2021-06-03T12:43:06Z</time>
      </trkpt>
      <trkpt lat="41.75529" lon="9.10562">
        <ele>801.4</ele>
        <time>2021-06-03T12:43:07Z</time>
      </trkpt>
      <trkpt lat="41.75539" lon="9.10568">
        <ele>801.4</ele>
        <time>2021-06-03T12:43:08Z</time>
      </trkpt>
      <trkpt lat="41.7555" lon="9.10575">
        <ele>800.4</ele>
        <time>2021-06-03T12:43:09Z</time>
      </trkpt>
      <trkpt lat="41.7556" lon="9.10583">
        <ele>798</ele>
        <time>2021-06-03T12:43:10Z</time>
      </trkpt>
      <trkpt lat="41.75569" lon="9.10592">
        <ele>798</ele>
        <time>2021-06-03T12:43:11Z</time>
      </trkpt>
      <trkpt lat="41.7558" lon="9.106">
        <ele>798</ele>
        <time>2021-06-03T12:43:12Z</time>
      </trkpt>
      <trkpt lat="41.75589" lon="9.10605">
        <ele>797</ele>
        <time>2021-06-03T12:43:13Z</time>
      </trkpt>
      <trkpt lat="41.75601" lon="9.10611">
        <ele>793.6</ele>
        <time>2021-06-03T12:43:14Z</time>
      </trkpt>
      <trkpt lat="41.75613" lon="9.10615">
        <ele>793.6</ele>
        <time>2021-06-03T12:43:15Z</time>
      </trkpt>
      <trkpt lat="41.75625" lon="9.10619">
        <ele>793.6</ele>
        <time>2021-06-03T12:43:16Z</time>
      </trkpt>
      <trkpt lat="41.75637" lon="9.10621">
        <ele>793.6</ele>
        <time>2021-06-03T12:43:17Z</time>
      </trkpt>
      <trkpt lat="41.7565" lon="9.10622">
        <ele>791.2</ele>
        <time>2021-06-03T12:43:18Z</time>
      </trkpt>
      <trkpt lat="41.75663" lon="9.10622">
        <ele>791.2</ele>
        <time>2021-06-03T12:43:19Z</time>
      </trkpt>
      <trkpt lat="41.75676" lon="9.10625">
        <ele>791.2</ele>
        <time>2021-06-03T12:43:20Z</time>
      </trkpt>
      <trkpt lat="41.75688" lon="9.10629">
        <ele>790.2</ele>
        <time>2021-06-03T12:43:21Z</time>
      </trkpt>
      <trkpt lat="41.75701" lon="9.10633">
        <ele>787.6</ele>
        <time>2021-06-03T12:43:22Z</time>
      </trkpt>
      <trkpt lat="41.75714" lon="9.10636">
        <ele>787.6</ele>
        <time>2021-06-03T12:43:23Z</time>
      </trkpt>
      <trkpt lat="41.75725" lon="9.10636">
        <ele>787.6</ele>
        <time>2021-06-03T12:43:24Z</time>
      </trkpt>
      <trkpt lat="41.75735" lon="9.10636">
        <ele>787.6</ele>
        <time>2021-06-03T12:43:25Z</time>
      </trkpt>
      <trkpt lat="41.75744" lon="9.10636">
        <ele>788</ele>
        <time>2021-06-03T12:43:26Z</time>
      </trkpt>
      <trkpt lat="41.75752" lon="9.10637">
        <ele>788</ele>
        <time>2021-06-03T12:43:27Z</time>
      </trkpt>
      <trkpt lat="41.75759" lon="9.10642">
        <ele>788</ele>
        <time>2021-06-03T12:43:28Z</time>
      </trkpt>
      <trkpt lat="41.75765" lon="9.10652">
        <ele>788</ele>
        <time>2021-06-03T12:43:29Z</time>
      </trkpt>
      <trkpt lat="41.75766" lon="9.10664">
        <ele>782.6</ele>
        <time>2021-06-03T12:43:30Z</time>
      </trkpt>
      <trkpt lat="41.75764" lon="9.10674">
        <ele>782.6</ele>
        <time>2021-06-03T12:43:31Z</time>
      </trkpt>
      <trkpt lat="41.75759" lon="9.10683">
        <ele>782.6</ele>
        <time>2021-06-03T12:43:32Z</time>
      </trkpt>
      <trkpt lat="41.75754" lon="9.10691">
        <ele>783.4</ele>
        <time>2021-06-03T12:43:33Z</time>
      </trkpt>
      <trkpt lat="41.75748" lon="9.10698">
        <ele>781.8</ele>
        <time>2021-06-03T12:43:34Z</time>
      </trkpt>
      <trkpt lat="41.75742" lon="9.10706">
        <ele>781.8</ele>
        <time>2021-06-03T12:43:35Z</time>
      </trkpt>
      <trkpt lat="41.75735" lon="9.10713">
        <ele>781.8</ele>
        <time>2021-06-03T12:43:36Z</time>
      </trkpt>
      <trkpt lat="41.75728" lon="9.1072">
        <ele>781.8</ele>
        <time>2021-06-03T12:43:37Z</time>
      </trkpt>
      <trkpt lat="41.75721" lon="9.10727">
        <ele>782.6</ele>
        <time>2021-06-03T12:43:38Z</time>
      </trkpt>
      <trkpt lat="41.75713" lon="9.10735">
        <ele>782.6</ele>
        <time>2021-06-03T12:43:39Z</time>
      </trkpt>
      <trkpt lat="41.75707" lon="9.10743">
        <ele>782.6</ele>
        <time>2021-06-03T12:43:40Z</time>
      </trkpt>
      <trkpt lat="41.75702" lon="9.10753">
        <ele>782.6</ele>
        <time>2021-06-03T12:43:41Z</time>
      </trkpt>
      <trkpt lat="41.75702" lon="9.10765">
        <ele>778.6</ele>
        <time>2021-06-03T12:43:42Z</time>
      </trkpt>
      <trkpt lat="41.75705" lon="9.10777">
        <ele>778.6</ele>
        <time>2021-06-03T12:43:43Z</time>
      </trkpt>
      <trkpt lat="41.75711" lon="9.10787">
        <ele>778.6</ele>
        <time>2021-06-03T12:43:44Z</time>
      </trkpt>
      <trkpt lat="41.75717" lon="9.10798">
        <ele>778.6</ele>
        <time>2021-06-03T12:43:45Z</time>
      </trkpt>
      <trkpt lat="41.75722" lon="9.1081">
        <ele>778.6</ele>
        <time>2021-06-03T12:43:46Z</time>
      </trkpt>
      <trkpt lat="41.75726" lon="9.10823">
        <ele>774.8</ele>
        <time>2021-06-03T12:43:47Z</time>
      </trkpt>
      <trkpt lat="41.75731" lon="9.10836">
        <ele>774.8</ele>
        <time>2021-06-03T12:43:48Z</time>
      </trkpt>
      <trkpt lat="41.75734" lon="9.1085">
        <ele>773.8</ele>
        <time>2021-06-03T12:43:49Z</time>
      </trkpt>
      <trkpt lat="41.75735" lon="9.10864">
        <ele>770.6</ele>
        <time>2021-06-03T12:43:50Z</time>
      </trkpt>
      <trkpt lat="41.75733" lon="9.10879">
        <ele>770.6</ele>
        <time>2021-06-03T12:43:51Z</time>
      </trkpt>
      <trkpt lat="41.75728" lon="9.10893">
        <ele>770.6</ele>
        <time>2021-06-03T12:43:52Z</time>
      </trkpt>
      <trkpt lat="41.7572" lon="9.10905">
        <ele>770.6</ele>
        <time>2021-06-03T12:43:53Z</time>
      </trkpt>
      <trkpt lat="41.7571" lon="9.10913">
        <ele>765.6</ele>
        <time>2021-06-03T12:43:54Z</time>
      </trkpt>
      <trkpt lat="41.757" lon="9.10917">
        <ele>765.6</ele>
        <time>2021-06-03T12:43:55Z</time>
      </trkpt>
      <trkpt lat="41.75688" lon="9.10919">
        <ele>765.6</ele>
        <time>2021-06-03T12:43:56Z</time>
      </trkpt>
      <trkpt lat="41.75677" lon="9.10921">
        <ele>765.6</ele>
        <time>2021-06-03T12:43:57Z</time>
      </trkpt>
      <trkpt lat="41.75665" lon="9.10923">
        <ele>763.4</ele>
        <time>2021-06-03T12:43:58Z</time>
      </trkpt>
      <trkpt lat="41.75653" lon="9.10925">
        <ele>763.4</ele>
        <time>2021-06-03T12:43:59Z</time>
      </trkpt>
      <trkpt lat="41.75641" lon="9.10929">
        <ele>763.4</ele>
        <time>2021-06-03T12:44:00Z</time>
      </trkpt>
      <trkpt lat="41.75629" lon="9.10932">
        <ele>762.4</ele>
        <time>2021-06-03T12:44:01Z</time>
      </trkpt>
      <trkpt lat="41.75616" lon="9.10937">
        <ele>760.2</ele>
        <time>2021-06-03T12:44:02Z</time>
      </trkpt>
      <trkpt lat="41.75604" lon="9.10942">
        <ele>760.2</ele>
        <time>2021-06-03T12:44:03Z</time>
      </trkpt>
      <trkpt lat="41.75592" lon="9.10946">
        <ele>760.2</ele>
        <time>2021-06-03T12:44:04Z</time>
      </trkpt>
      <trkpt lat="41.75579" lon="9.10947">
        <ele>759.6</ele>
        <time>2021-06-03T12:44:05Z</time>
      </trkpt>
      <trkpt lat="41.75566" lon="9.10948">
        <ele>757.6</ele>
        <time>2021-06-03T12:44:06Z</time>
      </trkpt>
      <trkpt lat="41.75553" lon="9.10947">
        <ele>757.6</ele>
        <time>2021-06-03T12:44:07Z</time>
      </trkpt>
      <trkpt lat="41.7554" lon="9.10947">
        <ele>757.6</ele>
        <time>2021-06-03T12:44:08Z</time>
      </trkpt>
      <trkpt lat="41.75526" lon="9.10946">
        <ele>756.6</ele>
        <time>2021-06-03T12:44:09Z</time>
      </trkpt>
      <trkpt lat="41.75513" lon="9.10946">
        <ele>751.6</ele>
        <time>2021-06-03T12:44:10Z</time>
      </trkpt>
      <trkpt lat="41.75499" lon="9.10946">
        <ele>751.6</ele>
        <time>2021-06-03T12:44:11Z</time>
      </trkpt>
      <trkpt lat="41.75486" lon="9.10944">
        <ele>751.6</ele>
        <time>2021-06-03T12:44:12Z</time>
      </trkpt>
      <trkpt lat="41.75473" lon="9.1094">
        <ele>750.6</ele>
        <time>2021-06-03T12:44:13Z</time>
      </trkpt>
      <trkpt lat="41.75459" lon="9.10936">
        <ele>746.2</ele>
        <time>2021-06-03T12:44:14Z</time>
      </trkpt>
      <trkpt lat="41.75446" lon="9.10931">
        <ele>746.2</ele>
        <time>2021-06-03T12:44:15Z</time>
      </trkpt>
      <trkpt lat="41.75433" lon="9.10927">
        <ele>746.2</ele>
        <time>2021-06-03T12:44:16Z</time>
      </trkpt>
      <trkpt lat="41.7542" lon="9.10922">
        <ele>745.2</ele>
        <time>2021-06-03T12:44:17Z</time>
      </trkpt>
      <trkpt lat="41.75407" lon="9.10917">
        <ele>742</ele>
        <time>2021-06-03T12:44:18Z</time>
      </trkpt>
      <trkpt lat="41.75393" lon="9.10913">
        <ele>742</ele>
        <time>2021-06-03T12:44:19Z</time>
      </trkpt>
      <trkpt lat="41.7538" lon="9.1091">
        <ele>742</ele>
        <time>2021-06-03T12:44:20Z</time>
      </trkpt>
      <trkpt lat="41.75367" lon="9.10906">
        <ele>741</ele>
        <time>2021-06-03T12:44:21Z</time>
      </trkpt>
      <trkpt lat="41.75353" lon="9.10904">
        <ele>739.4</ele>
        <time>2021-06-03T12:44:22Z</time>
      </trkpt>
      <trkpt lat="41.75341" lon="9.10902">
        <ele>739.4</ele>
        <time>2021-06-03T12:44:23Z</time>
      </trkpt>
      <trkpt lat="41.75329" lon="9.10902">
        <ele>739.4</ele>
        <time>2021-06-03T12:44:24Z</time>
      </trkpt>
      <trkpt lat="41.75317" lon="9.10905">
        <ele>738.4</ele>
        <time>2021-06-03T12:44:25Z</time>
      </trkpt>
      <trkpt lat="41.75306" lon="9.10911">
        <ele>735</ele>
        <time>2021-06-03T12:44:26Z</time>
      </trkpt>
      <trkpt lat="41.75295" lon="9.1092">
        <ele>735</ele>
        <time>2021-06-03T12:44:27Z</time>
      </trkpt>
      <trkpt lat="41.75287" lon="9.10932">
        <ele>735</ele>
        <time>2021-06-03T12:44:28Z</time>
      </trkpt>
      <trkpt lat="41.7528" lon="9.10944">
        <ele>736</ele>
        <time>2021-06-03T12:44:29Z</time>
      </trkpt>
      <trkpt lat="41.75275" lon="9.10958">
        <ele>733.6</ele>
        <time>2021-06-03T12:44:30Z</time>
      </trkpt>
      <trkpt lat="41.75271" lon="9.10973">
        <ele>733.6</ele>
        <time>2021-06-03T12:44:31Z</time>
      </trkpt>
      <trkpt lat="41.75266" lon="9.10987">
        <ele>733.6</ele>
        <time>2021-06-03T12:44:32Z</time>
      </trkpt>
      <trkpt lat="41.75264" lon="9.11002">
        <ele>733.6</ele>
        <time>2021-06-03T12:44:33Z</time>
      </trkpt>
      <trkpt lat="41.75262" lon="9.11018">
        <ele>730</ele>
        <time>2021-06-03T12:44:34Z</time>
      </trkpt>
      <trkpt lat="41.75262" lon="9.11033">
        <ele>730</ele>
        <time>2021-06-03T12:44:35Z</time>
      </trkpt>
      <trkpt lat="41.75263" lon="9.11049">
        <ele>730</ele>
        <time>2021-06-03T12:44:36Z</time>
      </trkpt>
      <trkpt lat="41.75264" lon="9.11065">
        <ele>730</ele>
        <time>2021-06-03T12:44:37Z</time>
      </trkpt>
      <trkpt lat="41.75267" lon="9.1108">
        <ele>727.8</ele>
        <time>2021-06-03T12:44:38Z</time>
      </trkpt>
      <trkpt lat="41.75271" lon="9.11095">
        <ele>727.8</ele>
        <time>2021-06-03T12:44:39Z</time>
      </trkpt>
      <trkpt lat="41.75276" lon="9.11109">
        <ele>727.8</ele>
        <time>2021-06-03T12:44:40Z</time>
      </trkpt>
      <trkpt lat="41.75281" lon="9.11124">
        <ele>726.8</ele>
        <time>2021-06-03T12:44:41Z</time>
      </trkpt>
      <trkpt lat="41.75285" lon="9.11139">
        <ele>725.2</ele>
        <time>2021-06-03T12:44:42Z</time>
      </trkpt>
      <trkpt lat="41.75289" lon="9.11154">
        <ele>725.2</ele>
        <time>2021-06-03T12:44:43Z</time>
      </trkpt>
      <trkpt lat="41.75293" lon="9.11169">
        <ele>725.2</ele>
        <time>2021-06-03T12:44:44Z</time>
      </trkpt>
      <trkpt lat="41.75298" lon="9.11184">
        <ele>724.2</ele>
        <time>2021-06-03T12:44:45Z</time>
      </trkpt>
      <trkpt lat="41.75302" lon="9.11199">
        <ele>718.6</ele>
        <time>2021-06-03T12:44:46Z</time>
      </trkpt>
      <trkpt lat="41.75308" lon="9.11214">
        <ele>718.6</ele>
        <time>2021-06-03T12:44:47Z</time>
      </trkpt>
      <trkpt lat="41.75313" lon="9.11228">
        <ele>718.6</ele>
        <time>2021-06-03T12:44:48Z</time>
      </trkpt>
      <trkpt lat="41.7532" lon="9.11243">
        <ele>719.6</ele>
        <time>2021-06-03T12:44:49Z</time>
      </trkpt>
      <trkpt lat="41.75325" lon="9.11258">
        <ele>720.8</ele>
        <time>2021-06-03T12:44:50Z</time>
      </trkpt>
      <trkpt lat="41.75329" lon="9.11273">
        <ele>720.8</ele>
        <time>2021-06-03T12:44:51Z</time>
      </trkpt>
      <trkpt lat="41.75331" lon="9.11289">
        <ele>720.8</ele>
        <time>2021-06-03T12:44:52Z</time>
      </trkpt>
      <trkpt lat="41.7533" lon="9.11304">
        <ele>719.8</ele>
        <time>2021-06-03T12:44:53Z</time>
      </trkpt>
      <trkpt lat="41.75327" lon="9.1132">
        <ele>719.8</ele>
        <time>2021-06-03T12:44:54Z</time>
      </trkpt>
      <trkpt lat="41.75321" lon="9.11334">
        <ele>717</ele>
        <time>2021-06-03T12:44:55Z</time>
      </trkpt>
      <trkpt lat="41.75314" lon="9.11347">
        <ele>717</ele>
        <time>2021-06-03T12:44:56Z</time>
      </trkpt>
      <trkpt lat="41.75307" lon="9.1136">
        <ele>716</ele>
        <time>2021-06-03T12:44:57Z</time>
      </trkpt>
      <trkpt lat="41.75301" lon="9.11375">
        <ele>712</ele>
        <time>2021-06-03T12:44:58Z</time>
      </trkpt>
      <trkpt lat="41.75297" lon="9.1139">
        <ele>712</ele>
        <time>2021-06-03T12:44:59Z</time>
      </trkpt>
      <trkpt lat="41.75294" lon="9.11406">
        <ele>712</ele>
        <time>2021-06-03T12:45:00Z</time>
      </trkpt>
      <trkpt lat="41.7529" lon="9.11422">
        <ele>711</ele>
        <time>2021-06-03T12:45:01Z</time>
      </trkpt>
      <trkpt lat="41.75285" lon="9.11437">
        <ele>709</ele>
        <time>2021-06-03T12:45:02Z</time>
      </trkpt>
      <trkpt lat="41.7528" lon="9.11451">
        <ele>709</ele>
        <time>2021-06-03T12:45:03Z</time>
      </trkpt>
      <trkpt lat="41.75274" lon="9.11466">
        <ele>709</ele>
        <time>2021-06-03T12:45:04Z</time>
      </trkpt>
      <trkpt lat="41.7527" lon="9.11482">
        <ele>708</ele>
        <time>2021-06-03T12:45:05Z</time>
      </trkpt>
      <trkpt lat="41.75267" lon="9.11498">
        <ele>704.2</ele>
        <time>2021-06-03T12:45:06Z</time>
      </trkpt>
      <trkpt lat="41.75266" lon="9.11514">
        <ele>704.2</ele>
        <time>2021-06-03T12:45:07Z</time>
      </trkpt>
      <trkpt lat="41.75265" lon="9.1153">
        <ele>704.2</ele>
        <time>2021-06-03T12:45:08Z</time>
      </trkpt>
      <trkpt lat="41.75265" lon="9.11546">
        <ele>703.2</ele>
        <time>2021-06-03T12:45:09Z</time>
      </trkpt>
      <trkpt lat="41.75265" lon="9.11563">
        <ele>701.2</ele>
        <time>2021-06-03T12:45:10Z</time>
      </trkpt>
      <trkpt lat="41.75264" lon="9.11579">
        <ele>701.2</ele>
        <time>2021-06-03T12:45:11Z</time>
      </trkpt>
      <trkpt lat="41.75263" lon="9.11595">
        <ele>701.2</ele>
        <time>2021-06-03T12:45:12Z</time>
      </trkpt>
      <trkpt lat="41.75259" lon="9.11611">
        <ele>701.2</ele>
        <time>2021-06-03T12:45:13Z</time>
      </trkpt>
      <trkpt lat="41.75252" lon="9.11625">
        <ele>699.6</ele>
        <time>2021-06-03T12:45:14Z</time>
      </trkpt>
      <trkpt lat="41.75245" lon="9.11638">
        <ele>699.6</ele>
        <time>2021-06-03T12:45:15Z</time>
      </trkpt>
      <trkpt lat="41.75238" lon="9.11651">
        <ele>699.6</ele>
        <time>2021-06-03T12:45:16Z</time>
      </trkpt>
      <trkpt lat="41.75233" lon="9.11662">
        <ele>699.6</ele>
        <time>2021-06-03T12:45:17Z</time>
      </trkpt>
      <trkpt lat="41.75229" lon="9.11672">
        <ele>702.2</ele>
        <time>2021-06-03T12:45:18Z</time>
      </trkpt>
      <trkpt lat="41.75226" lon="9.11681">
        <ele>702.2</ele>
        <time>2021-06-03T12:45:19Z</time>
      </trkpt>
      <trkpt lat="41.75225" lon="9.11689">
        <ele>702.2</ele>
        <time>2021-06-03T12:45:20Z</time>
      </trkpt>
      <trkpt lat="41.75227" lon="9.11697">
        <ele>703.2</ele>
        <time>2021-06-03T12:45:21Z</time>
      </trkpt>
      <trkpt lat="41.7523" lon="9.11703">
        <ele>703.4</ele>
        <time>2021-06-03T12:45:22Z</time>
      </trkpt>
      <trkpt lat="41.75233" lon="9.11708">
        <ele>703.4</ele>
        <time>2021-06-03T12:45:23Z</time>
      </trkpt>
      <trkpt lat="41.75238" lon="9.11712">
        <ele>703.4</ele>
        <time>2021-06-03T12:45:24Z</time>
      </trkpt>
      <trkpt lat="41.75242" lon="9.11716">
        <ele>704.4</ele>
        <time>2021-06-03T12:45:25Z</time>
      </trkpt>
      <trkpt lat="41.75246" lon="9.11719">
        <ele>706</ele>
        <time>2021-06-03T12:45:26Z</time>
      </trkpt>
      <trkpt lat="41.7525" lon="9.11722">
        <ele>706</ele>
        <time>2021-06-03T12:45:27Z</time>
      </trkpt>
      <trkpt lat="41.75253" lon="9.11725">
        <ele>706</ele>
        <time>2021-06-03T12:45:28Z</time>
      </trkpt>
      <trkpt lat="41.75257" lon="9.11729">
        <ele>707</ele>
        <time>2021-06-03T12:45:29Z</time>
      </trkpt>
      <trkpt lat="41.75261" lon="9.11732">
        <ele>707.8</ele>
        <time>2021-06-03T12:45:30Z</time>
      </trkpt>
      <trkpt lat="41.75264" lon="9.11735">
        <ele>707.8</ele>
        <time>2021-06-03T12:45:31Z</time>
      </trkpt>
      <trkpt lat="41.75267" lon="9.11739">
        <ele>707.8</ele>
        <time>2021-06-03T12:45:32Z</time>
      </trkpt>
      <trkpt lat="41.7527" lon="9.11742">
        <ele>707.8</ele>
        <time>2021-06-03T12:45:33Z</time>
      </trkpt>
      <trkpt lat="41.75274" lon="9.11745">
        <ele>707.6</ele>
        <time>2021-06-03T12:45:34Z</time>
      </trkpt>
      <trkpt lat="41.75277" lon="9.11748">
        <ele>707.6</ele>
        <time>2021-06-03T12:45:35Z</time>
      </trkpt>
      <trkpt lat="41.7528" lon="9.1175">
        <ele>707.6</ele>
        <time>2021-06-03T12:45:36Z</time>
      </trkpt>
      <trkpt lat="41.75283" lon="9.11753">
        <ele>708.2</ele>
        <time>2021-06-03T12:45:37Z</time>
      </trkpt>
      <trkpt lat="41.75286" lon="9.11755">
        <ele>709</ele>
        <time>2021-06-03T12:45:38Z</time>
      </trkpt>
      <trkpt lat="41.75289" lon="9.11758">
        <ele>709</ele>
        <time>2021-06-03T12:45:39Z</time>
      </trkpt>
      <trkpt lat="41.75292" lon="9.1176">
        <ele>709</ele>
        <time>2021-06-03T12:45:40Z</time>
      </trkpt>
      <trkpt lat="41.75295" lon="9.11762">
        <ele>709</ele>
        <time>2021-06-03T12:45:41Z</time>
      </trkpt>
      <trkpt lat="41.75299" lon="9.11764">
        <ele>708.8</ele>
        <time>2021-06-03T12:45:42Z</time>
      </trkpt>
      <trkpt lat="41.75302" lon="9.11764">
        <ele>708.8</ele>
        <time>2021-06-03T12:45:43Z</time>
      </trkpt>
      <trkpt lat="41.75305" lon="9.11765">
        <ele>708.8</ele>
        <time>2021-06-03T12:45:44Z</time>
      </trkpt>
      <trkpt lat="41.75308" lon="9.11765">
        <ele>709.6</ele>
        <time>2021-06-03T12:45:45Z</time>
      </trkpt>
      <trkpt lat="41.75311" lon="9.11765">
        <ele>709.8</ele>
        <time>2021-06-03T12:45:46Z</time>
      </trkpt>
      <trkpt lat="41.75314" lon="9.11765">
        <ele>709.8</ele>
        <time>2021-06-03T12:45:47Z</time>
      </trkpt>
      <trkpt lat="41.75317" lon="9.11765">
        <ele>709.8</ele>
        <time>2021-06-03T12:45:48Z</time>
      </trkpt>
      <trkpt lat="41.75319" lon="9.11764">
        <ele>710.8</ele>
        <time>2021-06-03T12:45:49Z</time>
      </trkpt>
      <trkpt lat="41.75323" lon="9.11763">
        <ele>710.2</ele>
        <time>2021-06-03T12:45:50Z</time>
      </trkpt>
      <trkpt lat="41.75326" lon="9.11763">
        <ele>710.2</ele>
        <time>2021-06-03T12:45:51Z</time>
      </trkpt>
      <trkpt lat="41.75328" lon="9.11762">
        <ele>710.2</ele>
        <time>2021-06-03T12:45:52Z</time>
      </trkpt>
      <trkpt lat="41.75332" lon="9.11761">
        <ele>710.6</ele>
        <time>2021-06-03T12:45:53Z</time>
      </trkpt>
      <trkpt lat="41.75334" lon="9.1176">
        <ele>710.6</ele>
        <time>2021-06-03T12:45:54Z</time>
      </trkpt>
      <trkpt lat="41.75337" lon="9.1176">
        <ele>710.6</ele>
        <time>2021-06-03T12:45:55Z</time>
      </trkpt>
      <trkpt lat="41.7534" lon="9.1176">
        <ele>710.6</ele>
        <time>2021-06-03T12:45:56Z</time>
      </trkpt>
      <trkpt lat="41.75343" lon="9.11759">
        <ele>710.8</ele>
        <time>2021-06-03T12:45:57Z</time>
      </trkpt>
      <trkpt lat="41.75346" lon="9.11759">
        <ele>710.8</ele>
        <time>2021-06-03T12:45:58Z</time>
      </trkpt>
      <trkpt lat="41.75349" lon="9.11759">
        <ele>710.6</ele>
        <time>2021-06-03T12:45:59Z</time>
      </trkpt>
      <trkpt lat="41.75352" lon="9.11759">
        <ele>710.6</ele>
        <time>2021-06-03T12:46:00Z</time>
      </trkpt>
      <trkpt lat="41.75355" lon="9.1176">
        <ele>711</ele>
        <time>2021-06-03T12:46:01Z</time>
      </trkpt>
      <trkpt lat="41.75358" lon="9.1176">
        <ele>711.2</ele>
        <time>2021-06-03T12:46:02Z</time>
      </trkpt>
      <trkpt lat="41.75361" lon="9.11761">
        <ele>711.2</ele>
        <time>2021-06-03T12:46:03Z</time>
      </trkpt>
      <trkpt lat="41.75364" lon="9.11762">
        <ele>711.2</ele>
        <time>2021-06-03T12:46:04Z</time>
      </trkpt>
      <trkpt lat="41.75367" lon="9.11763">
        <ele>711.2</ele>
        <time>2021-06-03T12:46:05Z</time>
      </trkpt>
      <trkpt lat="41.7537" lon="9.11765">
        <ele>711.2</ele>
        <time>2021-06-03T12:46:06Z</time>
      </trkpt>
      <trkpt lat="41.75372" lon="9.11767">
        <ele>711.2</ele>
        <time>2021-06-03T12:46:07Z</time>
      </trkpt>
      <trkpt lat="41.75375" lon="9.11768">
        <ele>711.2</ele>
        <time>2021-06-03T12:46:08Z</time>
      </trkpt>
      <trkpt lat="41.75377" lon="9.1177">
        <ele>711.2</ele>
        <time>2021-06-03T12:46:09Z</time>
      </trkpt>
      <trkpt lat="41.7538" lon="9.11772">
        <ele>711.6</ele>
        <time>2021-06-03T12:46:10Z</time>
      </trkpt>
      <trkpt lat="41.75383" lon="9.11775">
        <ele>711.6</ele>
        <time>2021-06-03T12:46:11Z</time>
      </trkpt>
      <trkpt lat="41.75385" lon="9.11777">
        <ele>711.6</ele>
        <time>2021-06-03T12:46:12Z</time>
      </trkpt>
      <trkpt lat="41.75387" lon="9.11779">
        <ele>711.8</ele>
        <time>2021-06-03T12:46:13Z</time>
      </trkpt>
      <trkpt lat="41.7539" lon="9.11781">
        <ele>712</ele>
        <time>2021-06-03T12:46:14Z</time>
      </trkpt>
      <trkpt lat="41.75392" lon="9.11783">
        <ele>712</ele>
        <time>2021-06-03T12:46:15Z</time>
      </trkpt>
      <trkpt lat="41.75394" lon="9.11786">
        <ele>712</ele>
        <time>2021-06-03T12:46:16Z</time>
      </trkpt>
      <trkpt lat="41.75396" lon="9.11788">
        <ele>712</ele>
        <time>2021-06-03T12:46:17Z</time>
      </trkpt>
      <trkpt lat="41.75398" lon="9.11791">
        <ele>711.8</ele>
        <time>2021-06-03T12:46:18Z</time>
      </trkpt>
      <trkpt lat="41.75401" lon="9.11793">
        <ele>711.8</ele>
        <time>2021-06-03T12:46:19Z</time>
      </trkpt>
      <trkpt lat="41.75403" lon="9.11795">
        <ele>711.8</ele>
        <time>2021-06-03T12:46:20Z</time>
      </trkpt>
      <trkpt lat="41.75405" lon="9.11797">
        <ele>711.8</ele>
        <time>2021-06-03T12:46:21Z</time>
      </trkpt>
      <trkpt lat="41.75408" lon="9.11799">
        <ele>712</ele>
        <time>2021-06-03T12:46:22Z</time>
      </trkpt>
      <trkpt lat="41.75411" lon="9.11801">
        <ele>712</ele>
        <time>2021-06-03T12:46:23Z</time>
      </trkpt>
      <trkpt lat="41.75413" lon="9.11803">
        <ele>712</ele>
        <time>2021-06-03T12:46:24Z</time>
      </trkpt>
      <trkpt lat="41.75416" lon="9.11805">
        <ele>711.8</ele>
        <time>2021-06-03T12:46:25Z</time>
      </trkpt>
      <trkpt lat="41.75418" lon="9.11808">
        <ele>711.8</ele>
        <time>2021-06-03T12:46:26Z</time>
      </trkpt>
      <trkpt lat="41.75421" lon="9.11809">
        <ele>711.8</ele>
        <time>2021-06-03T12:46:27Z</time>
      </trkpt>
      <trkpt lat="41.75423" lon="9.11811">
        <ele>711.8</ele>
        <time>2021-06-03T12:46:28Z</time>
      </trkpt>
      <trkpt lat="41.75425" lon="9.11813">
        <ele>711.8</ele>
        <time>2021-06-03T12:46:29Z</time>
      </trkpt>
      <trkpt lat="41.75428" lon="9.11815">
        <ele>712.2</ele>
        <time>2021-06-03T12:46:30Z</time>
      </trkpt>
      <trkpt lat="41.7543" lon="9.11818">
        <ele>712.2</ele>
        <time>2021-06-03T12:46:31Z</time>
      </trkpt>
      <trkpt lat="41.75432" lon="9.1182">
        <ele>712.2</ele>
        <time>2021-06-03T12:46:32Z</time>
      </trkpt>
      <trkpt lat="41.75434" lon="9.11823">
        <ele>712.2</ele>
        <time>2021-06-03T12:46:33Z</time>
      </trkpt>
      <trkpt lat="41.75436" lon="9.11826">
        <ele>712.2</ele>
        <time>2021-06-03T12:46:34Z</time>
      </trkpt>
      <trkpt lat="41.75438" lon="9.11829">
        <ele>712.2</ele>
        <time>2021-06-03T12:46:35Z</time>
      </trkpt>
      <trkpt lat="41.7544" lon="9.11832">
        <ele>712.2</ele>
        <time>2021-06-03T12:46:36Z</time>
      </trkpt>
      <trkpt lat="41.75441" lon="9.11835">
        <ele>712.6</ele>
        <time>2021-06-03T12:46:37Z</time>
      </trkpt>
      <trkpt lat="41.75443" lon="9.11839">
        <ele>712.8</ele>
        <time>2021-06-03T12:46:38Z</time>
      </trkpt>
      <trkpt lat="41.75444" lon="9.11842">
        <ele>712.8</ele>
        <time>2021-06-03T12:46:39Z</time>
      </trkpt>
      <trkpt lat="41.75445" lon="9.11846">
        <ele>712.8</ele>
        <time>2021-06-03T12:46:40Z</time>
      </trkpt>
      <trkpt lat="41.75446" lon="9.1185">
        <ele>712.2</ele>
        <time>2021-06-03T12:46:41Z</time>
      </trkpt>
      <trkpt lat="41.75445" lon="9.11854">
        <ele>712.4</ele>
        <time>2021-06-03T12:46:42Z</time>
      </trkpt>
      <trkpt lat="41.75445" lon="9.11857">
        <ele>712.4</ele>
        <time>2021-06-03T12:46:43Z</time>
      </trkpt>
      <trkpt lat="41.75445" lon="9.11861">
        <ele>712.4</ele>
        <time>2021-06-03T12:46:44Z</time>
      </trkpt>
      <trkpt lat="41.75444" lon="9.11864">
        <ele>712.8</ele>
        <time>2021-06-03T12:46:45Z</time>
      </trkpt>
      <trkpt lat="41.75443" lon="9.11867">
        <ele>712.8</ele>
        <time>2021-06-03T12:46:46Z</time>
      </trkpt>
      <trkpt lat="41.75442" lon="9.11871">
        <ele>713</ele>
        <time>2021-06-03T12:46:47Z</time>
      </trkpt>
      <trkpt lat="41.75441" lon="9.11874">
        <ele>713</ele>
        <time>2021-06-03T12:46:48Z</time>
      </trkpt>
      <trkpt lat="41.7544" lon="9.11877">
        <ele>713.6</ele>
        <time>2021-06-03T12:46:49Z</time>
      </trkpt>
      <trkpt lat="41.75439" lon="9.1188">
        <ele>713.8</ele>
        <time>2021-06-03T12:46:50Z</time>
      </trkpt>
      <trkpt lat="41.75437" lon="9.11883">
        <ele>713.8</ele>
        <time>2021-06-03T12:46:51Z</time>
      </trkpt>
      <trkpt lat="41.75436" lon="9.11886">
        <ele>713.8</ele>
        <time>2021-06-03T12:46:52Z</time>
      </trkpt>
      <trkpt lat="41.75434" lon="9.11889">
        <ele>713.8</ele>
        <time>2021-06-03T12:46:53Z</time>
      </trkpt>
      <trkpt lat="41.75432" lon="9.11892">
        <ele>714.2</ele>
        <time>2021-06-03T12:46:54Z</time>
      </trkpt>
      <trkpt lat="41.75431" lon="9.11895">
        <ele>714.2</ele>
        <time>2021-06-03T12:46:55Z</time>
      </trkpt>
      <trkpt lat="41.75429" lon="9.11897">
        <ele>714.2</ele>
        <time>2021-06-03T12:46:56Z</time>
      </trkpt>
      <trkpt lat="41.75427" lon="9.11899">
        <ele>714.2</ele>
        <time>2021-06-03T12:46:57Z</time>
      </trkpt>
      <trkpt lat="41.75425" lon="9.11901">
        <ele>714.6</ele>
        <time>2021-06-03T12:46:58Z</time>
      </trkpt>
      <trkpt lat="41.75423" lon="9.11903">
        <ele>714.6</ele>
        <time>2021-06-03T12:46:59Z</time>
      </trkpt>
      <trkpt lat="41.75421" lon="9.11905">
        <ele>714.6</ele>
        <time>2021-06-03T12:47:00Z</time>
      </trkpt>
      <trkpt lat="41.75419" lon="9.11907">
        <ele>714.6</ele>
        <time>2021-06-03T12:47:01Z</time>
      </trkpt>
      <trkpt lat="41.75417" lon="9.11909">
        <ele>714.6</ele>
        <time>2021-06-03T12:47:02Z</time>
      </trkpt>
      <trkpt lat="41.75415" lon="9.1191">
        <ele>714.6</ele>
        <time>2021-06-03T12:47:03Z</time>
      </trkpt>
      <trkpt lat="41.75413" lon="9.11912">
        <ele>714.6</ele>
        <time>2021-06-03T12:47:04Z</time>
      </trkpt>
      <trkpt lat="41.75411" lon="9.11913">
        <ele>715</ele>
        <time>2021-06-03T12:47:05Z</time>
      </trkpt>
      <trkpt lat="41.75409" lon="9.11915">
        <ele>715</ele>
        <time>2021-06-03T12:47:06Z</time>
      </trkpt>
      <trkpt lat="41.75407" lon="9.11917">
        <ele>715</ele>
        <time>2021-06-03T12:47:07Z</time>
      </trkpt>
      <trkpt lat="41.75405" lon="9.11919">
        <ele>715</ele>
        <time>2021-06-03T12:47:08Z</time>
      </trkpt>
      <trkpt lat="41.75403" lon="9.11921">
        <ele>715</ele>
        <time>2021-06-03T12:47:09Z</time>
      </trkpt>
      <trkpt lat="41.75401" lon="9.11923">
        <ele>715.2</ele>
        <time>2021-06-03T12:47:10Z</time>
      </trkpt>
      <trkpt lat="41.754" lon="9.11926">
        <ele>715.2</ele>
        <time>2021-06-03T12:47:11Z</time>
      </trkpt>
      <trkpt lat="41.75398" lon="9.11928">
        <ele>715.2</ele>
        <time>2021-06-03T12:47:12Z</time>
      </trkpt>
      <trkpt lat="41.75396" lon="9.11931">
        <ele>716</ele>
        <time>2021-06-03T12:47:13Z</time>
      </trkpt>
      <trkpt lat="41.75395" lon="9.11934">
        <ele>716</ele>
        <time>2021-06-03T12:47:14Z</time>
      </trkpt>
      <trkpt lat="41.75393" lon="9.11938">
        <ele>716</ele>
        <time>2021-06-03T12:47:15Z</time>
      </trkpt>
      <trkpt lat="41.75392" lon="9.11941">
        <ele>716</ele>
        <time>2021-06-03T12:47:16Z</time>
      </trkpt>
      <trkpt lat="41.75391" lon="9.11945">
        <ele>716</ele>
        <time>2021-06-03T12:47:17Z</time>
      </trkpt>
      <trkpt lat="41.7539" lon="9.11949">
        <ele>716.2</ele>
        <time>2021-06-03T12:47:18Z</time>
      </trkpt>
      <trkpt lat="41.75389" lon="9.11953">
        <ele>716.2</ele>
        <time>2021-06-03T12:47:19Z</time>
      </trkpt>
      <trkpt lat="41.75388" lon="9.11956">
        <ele>716.2</ele>
        <time>2021-06-03T12:47:20Z</time>
      </trkpt>
      <trkpt lat="41.75388" lon="9.1196">
        <ele>716.2</ele>
        <time>2021-06-03T12:47:21Z</time>
      </trkpt>
      <trkpt lat="41.75387" lon="9.11964">
        <ele>716.4</ele>
        <time>2021-06-03T12:47:22Z</time>
      </trkpt>
      <trkpt lat="41.75387" lon="9.11968">
        <ele>716.4</ele>
        <time>2021-06-03T12:47:23Z</time>
      </trkpt>
      <trkpt lat="41.75387" lon="9.11972">
        <ele>716.4</ele>
        <time>2021-06-03T12:47:24Z</time>
      </trkpt>
      <trkpt lat="41.75387" lon="9.11976">
        <ele>716</ele>
        <time>2021-06-03T12:47:25Z</time>
      </trkpt>
      <trkpt lat="41.75387" lon="9.1198">
        <ele>716.2</ele>
        <time>2021-06-03T12:47:26Z</time>
      </trkpt>
      <trkpt lat="41.75387" lon="9.11983">
        <ele>716.2</ele>
        <time>2021-06-03T12:47:27Z</time>
      </trkpt>
      <trkpt lat="41.75388" lon="9.11987">
        <ele>716.2</ele>
        <time>2021-06-03T12:47:28Z</time>
      </trkpt>
      <trkpt lat="41.75389" lon="9.11991">
        <ele>716.2</ele>
        <time>2021-06-03T12:47:29Z</time>
      </trkpt>
      <trkpt lat="41.7539" lon="9.11995">
        <ele>716</ele>
        <time>2021-06-03T12:47:30Z</time>
      </trkpt>
      <trkpt lat="41.75391" lon="9.11998">
        <ele>716</ele>
        <time>2021-06-03T12:47:31Z</time>
      </trkpt>
      <trkpt lat="41.75392" lon="9.12002">
        <ele>716</ele>
        <time>2021-06-03T12:47:32Z</time>
      </trkpt>
      <trkpt lat="41.75394" lon="9.12005">
        <ele>716</ele>
        <time>2021-06-03T12:47:33Z</time>
      </trkpt>
      <trkpt lat="41.75396" lon="9.12008">
        <ele>716</ele>
        <time>2021-06-03T12:47:34Z</time>
      </trkpt>
      <trkpt lat="41.75397" lon="9.12011">
        <ele>716</ele>
        <time>2021-06-03T12:47:35Z</time>
      </trkpt>
      <trkpt lat="41.75399" lon="9.12013">
        <ele>716</ele>
        <time>2021-06-03T12:47:36Z</time>
      </trkpt>
      <trkpt lat="41.75401" lon="9.12016">
        <ele>716</ele>
        <time>2021-06-03T12:47:37Z</time>
      </trkpt>
      <trkpt lat="41.75403" lon="9.12019">
        <ele>715.8</ele>
        <time>2021-06-03T12:47:38Z</time>
      </trkpt>
      <trkpt lat="41.75405" lon="9.12021">
        <ele>715.8</ele>
        <time>2021-06-03T12:47:39Z</time>
      </trkpt>
      <trkpt lat="41.75407" lon="9.12024">
        <ele>715.8</ele>
        <time>2021-06-03T12:47:40Z</time>
      </trkpt>
      <trkpt lat="41.75409" lon="9.12027">
        <ele>716.4</ele>
        <time>2021-06-03T12:47:41Z</time>
      </trkpt>
      <trkpt lat="41.75411" lon="9.12029">
        <ele>716.2</ele>
        <time>2021-06-03T12:47:42Z</time>
      </trkpt>
      <trkpt lat="41.75413" lon="9.12032">
        <ele>716.2</ele>
        <time>2021-06-03T12:47:43Z</time>
      </trkpt>
      <trkpt lat="41.75415" lon="9.12035">
        <ele>716.2</ele>
        <time>2021-06-03T12:47:44Z</time>
      </trkpt>
      <trkpt lat="41.75417" lon="9.12037">
        <ele>716.6</ele>
        <time>2021-06-03T12:47:45Z</time>
      </trkpt>
      <trkpt lat="41.75419" lon="9.1204">
        <ele>716.6</ele>
        <time>2021-06-03T12:47:46Z</time>
      </trkpt>
      <trkpt lat="41.75421" lon="9.12043">
        <ele>716.8</ele>
        <time>2021-06-03T12:47:47Z</time>
      </trkpt>
      <trkpt lat="41.75423" lon="9.12045">
        <ele>716.8</ele>
        <time>2021-06-03T12:47:48Z</time>
      </trkpt>
      <trkpt lat="41.75425" lon="9.12048">
        <ele>717.2</ele>
        <time>2021-06-03T12:47:49Z</time>
      </trkpt>
      <trkpt lat="41.75427" lon="9.1205">
        <ele>716.8</ele>
        <time>2021-06-03T12:47:50Z</time>
      </trkpt>
      <trkpt lat="41.75429" lon="9.12053">
        <ele>716.8</ele>
        <time>2021-06-03T12:47:51Z</time>
      </trkpt>
      <trkpt lat="41.75431" lon="9.12056">
        <ele>716.8</ele>
        <time>2021-06-03T12:47:52Z</time>
      </trkpt>
      <trkpt lat="41.75433" lon="9.12059">
        <ele>717.4</ele>
        <time>2021-06-03T12:47:53Z</time>
      </trkpt>
      <trkpt lat="41.75435" lon="9.12061">
        <ele>717.4</ele>
        <time>2021-06-03T12:47:54Z</time>
      </trkpt>
      <trkpt lat="41.75437" lon="9.12064">
        <ele>717.4</ele>
        <time>2021-06-03T12:47:55Z</time>
      </trkpt>
      <trkpt lat="41.75439" lon="9.12066">
        <ele>717.4</ele>
        <time>2021-06-03T12:47:56Z</time>
      </trkpt>
      <trkpt lat="41.7544" lon="9.12069">
        <ele>717.8</ele>
        <time>2021-06-03T12:47:57Z</time>
      </trkpt>
      <trkpt lat="41.75442" lon="9.12072">
        <ele>717.2</ele>
        <time>2021-06-03T12:47:58Z</time>
      </trkpt>
      <trkpt lat="41.75443" lon="9.12074">
        <ele>717.2</ele>
        <time>2021-06-03T12:47:59Z</time>
      </trkpt>
      <trkpt lat="41.75445" lon="9.12076">
        <ele>717.2</ele>
        <time>2021-06-03T12:48:00Z</time>
      </trkpt>
      <trkpt lat="41.75447" lon="9.12079">
        <ele>717.4</ele>
        <time>2021-06-03T12:48:01Z</time>
      </trkpt>
      <trkpt lat="41.75449" lon="9.12082">
        <ele>717.8</ele>
        <time>2021-06-03T12:48:02Z</time>
      </trkpt>
      <trkpt lat="41.75451" lon="9.12085">
        <ele>717.8</ele>
        <time>2021-06-03T12:48:03Z</time>
      </trkpt>
      <trkpt lat="41.75453" lon="9.12088">
        <ele>717.8</ele>
        <time>2021-06-03T12:48:04Z</time>
      </trkpt>
      <trkpt lat="41.75454" lon="9.12091">
        <ele>717.8</ele>
        <time>2021-06-03T12:48:05Z</time>
      </trkpt>
      <trkpt lat="41.75457" lon="9.12093">
        <ele>718.6</ele>
        <time>2021-06-03T12:48:06Z</time>
      </trkpt>
      <trkpt lat="41.75458" lon="9.12096">
        <ele>718.6</ele>
        <time>2021-06-03T12:48:07Z</time>
      </trkpt>
      <trkpt lat="41.7546" lon="9.12099">
        <ele>718.6</ele>
        <time>2021-06-03T12:48:08Z</time>
      </trkpt>
      <trkpt lat="41.7546" lon="9.12102">
        <ele>718</ele>
        <time>2021-06-03T12:48:09Z</time>
      </trkpt>
      <trkpt lat="41.75462" lon="9.12105">
        <ele>717.6</ele>
        <time>2021-06-03T12:48:10Z</time>
      </trkpt>
      <trkpt lat="41.75463" lon="9.12107">
        <ele>717.6</ele>
        <time>2021-06-03T12:48:11Z</time>
      </trkpt>
      <trkpt lat="41.75464" lon="9.1211">
        <ele>717.6</ele>
        <time>2021-06-03T12:48:12Z</time>
      </trkpt>
      <trkpt lat="41.75464" lon="9.12113">
        <ele>718.4</ele>
        <time>2021-06-03T12:48:13Z</time>
      </trkpt>
      <trkpt lat="41.75465" lon="9.12116">
        <ele>718.8</ele>
        <time>2021-06-03T12:48:14Z</time>
      </trkpt>
      <trkpt lat="41.75467" lon="9.12119">
        <ele>718.8</ele>
        <time>2021-06-03T12:48:15Z</time>
      </trkpt>
      <trkpt lat="41.75468" lon="9.12122">
        <ele>718.8</ele>
        <time>2021-06-03T12:48:16Z</time>
      </trkpt>
      <trkpt lat="41.75469" lon="9.12125">
        <ele>718.8</ele>
        <time>2021-06-03T12:48:17Z</time>
      </trkpt>
      <trkpt lat="41.7547" lon="9.12129">
        <ele>718.8</ele>
        <time>2021-06-03T12:48:18Z</time>
      </trkpt>
      <trkpt lat="41.75472" lon="9.12132">
        <ele>718.8</ele>
        <time>2021-06-03T12:48:19Z</time>
      </trkpt>
      <trkpt lat="41.75474" lon="9.12135">
        <ele>718.8</ele>
        <time>2021-06-03T12:48:20Z</time>
      </trkpt>
      <trkpt lat="41.75476" lon="9.12138">
        <ele>719.6</ele>
        <time>2021-06-03T12:48:21Z</time>
      </trkpt>
      <trkpt lat="41.75478" lon="9.12141">
        <ele>719.2</ele>
        <time>2021-06-03T12:48:22Z</time>
      </trkpt>
      <trkpt lat="41.7548" lon="9.12144">
        <ele>719.2</ele>
        <time>2021-06-03T12:48:23Z</time>
      </trkpt>
      <trkpt lat="41.75482" lon="9.12147">
        <ele>719.2</ele>
        <time>2021-06-03T12:48:24Z</time>
      </trkpt>
      <trkpt lat="41.75485" lon="9.1215">
        <ele>719.4</ele>
        <time>2021-06-03T12:48:25Z</time>
      </trkpt>
      <trkpt lat="41.75487" lon="9.12152">
        <ele>720</ele>
        <time>2021-06-03T12:48:26Z</time>
      </trkpt>
      <trkpt lat="41.7549" lon="9.12155">
        <ele>720</ele>
        <time>2021-06-03T12:48:27Z</time>
      </trkpt>
      <trkpt lat="41.75493" lon="9.12157">
        <ele>720</ele>
        <time>2021-06-03T12:48:28Z</time>
      </trkpt>
      <trkpt lat="41.75496" lon="9.12159">
        <ele>719.6</ele>
        <time>2021-06-03T12:48:29Z</time>
      </trkpt>
      <trkpt lat="41.75498" lon="9.12162">
        <ele>720</ele>
        <time>2021-06-03T12:48:30Z</time>
      </trkpt>
      <trkpt lat="41.75501" lon="9.12164">
        <ele>720</ele>
        <time>2021-06-03T12:48:31Z</time>
      </trkpt>
      <trkpt lat="41.75505" lon="9.12165">
        <ele>720</ele>
        <time>2021-06-03T12:48:32Z</time>
      </trkpt>
      <trkpt lat="41.75508" lon="9.12167">
        <ele>719.8</ele>
        <time>2021-06-03T12:48:33Z</time>
      </trkpt>
      <trkpt lat="41.75511" lon="9.12169">
        <ele>720</ele>
        <time>2021-06-03T12:48:34Z</time>
      </trkpt>
      <trkpt lat="41.75514" lon="9.12171">
        <ele>720</ele>
        <time>2021-06-03T12:48:35Z</time>
      </trkpt>
      <trkpt lat="41.75517" lon="9.12174">
        <ele>720</ele>
        <time>2021-06-03T12:48:36Z</time>
      </trkpt>
      <trkpt lat="41.75519" lon="9.12176">
        <ele>720.4</ele>
        <time>2021-06-03T12:48:37Z</time>
      </trkpt>
      <trkpt lat="41.75522" lon="9.12178">
        <ele>720.4</ele>
        <time>2021-06-03T12:48:38Z</time>
      </trkpt>
      <trkpt lat="41.75525" lon="9.1218">
        <ele>720.4</ele>
        <time>2021-06-03T12:48:39Z</time>
      </trkpt>
      <trkpt lat="41.75528" lon="9.12182">
        <ele>720.4</ele>
        <time>2021-06-03T12:48:40Z</time>
      </trkpt>
      <trkpt lat="41.75531" lon="9.12185">
        <ele>720.4</ele>
        <time>2021-06-03T12:48:41Z</time>
      </trkpt>
      <trkpt lat="41.75533" lon="9.12187">
        <ele>720.8</ele>
        <time>2021-06-03T12:48:42Z</time>
      </trkpt>
      <trkpt lat="41.75536" lon="9.1219">
        <ele>720.8</ele>
        <time>2021-06-03T12:48:43Z</time>
      </trkpt>
      <trkpt lat="41.75538" lon="9.12194">
        <ele>720.8</ele>
        <time>2021-06-03T12:48:44Z</time>
      </trkpt>
      <trkpt lat="41.75541" lon="9.12196">
        <ele>720.8</ele>
        <time>2021-06-03T12:48:45Z</time>
      </trkpt>
      <trkpt lat="41.75543" lon="9.12199">
        <ele>721.4</ele>
        <time>2021-06-03T12:48:46Z</time>
      </trkpt>
      <trkpt lat="41.75546" lon="9.12201">
        <ele>721.4</ele>
        <time>2021-06-03T12:48:47Z</time>
      </trkpt>
      <trkpt lat="41.75548" lon="9.12204">
        <ele>721.4</ele>
        <time>2021-06-03T12:48:48Z</time>
      </trkpt>
      <trkpt lat="41.75551" lon="9.12206">
        <ele>721.4</ele>
        <time>2021-06-03T12:48:49Z</time>
      </trkpt>
      <trkpt lat="41.75554" lon="9.12208">
        <ele>721.2</ele>
        <time>2021-06-03T12:48:50Z</time>
      </trkpt>
      <trkpt lat="41.75557" lon="9.1221">
        <ele>721.2</ele>
        <time>2021-06-03T12:48:51Z</time>
      </trkpt>
      <trkpt lat="41.7556" lon="9.12211">
        <ele>721.2</ele>
        <time>2021-06-03T12:48:52Z</time>
      </trkpt>
      <trkpt lat="41.75564" lon="9.12213">
        <ele>721.6</ele>
        <time>2021-06-03T12:48:53Z</time>
      </trkpt>
      <trkpt lat="41.75567" lon="9.12213">
        <ele>721.8</ele>
        <time>2021-06-03T12:48:54Z</time>
      </trkpt>
      <trkpt lat="41.75571" lon="9.12213">
        <ele>721.8</ele>
        <time>2021-06-03T12:48:55Z</time>
      </trkpt>
      <trkpt lat="41.75574" lon="9.12213">
        <ele>721.8</ele>
        <time>2021-06-03T12:48:56Z</time>
      </trkpt>
      <trkpt lat="41.75577" lon="9.12212">
        <ele>721.8</ele>
        <time>2021-06-03T12:48:57Z</time>
      </trkpt>
      <trkpt lat="41.7558" lon="9.12212">
        <ele>721.8</ele>
        <time>2021-06-03T12:48:58Z</time>
      </trkpt>
      <trkpt lat="41.75583" lon="9.12211">
        <ele>721.8</ele>
        <time>2021-06-03T12:48:59Z</time>
      </trkpt>
      <trkpt lat="41.75586" lon="9.12209">
        <ele>721.8</ele>
        <time>2021-06-03T12:49:00Z</time>
      </trkpt>
      <trkpt lat="41.75589" lon="9.12207">
        <ele>722</ele>
        <time>2021-06-03T12:49:01Z</time>
      </trkpt>
      <trkpt lat="41.75592" lon="9.12205">
        <ele>722</ele>
        <time>2021-06-03T12:49:02Z</time>
      </trkpt>
      <trkpt lat="41.75595" lon="9.12203">
        <ele>722</ele>
        <time>2021-06-03T12:49:03Z</time>
      </trkpt>
      <trkpt lat="41.75598" lon="9.12201">
        <ele>722</ele>
        <time>2021-06-03T12:49:04Z</time>
      </trkpt>
      <trkpt lat="41.75601" lon="9.12198">
        <ele>721.8</ele>
        <time>2021-06-03T12:49:05Z</time>
      </trkpt>
      <trkpt lat="41.75604" lon="9.12197">
        <ele>722.2</ele>
        <time>2021-06-03T12:49:06Z</time>
      </trkpt>
      <trkpt lat="41.75607" lon="9.12195">
        <ele>722.2</ele>
        <time>2021-06-03T12:49:07Z</time>
      </trkpt>
      <trkpt lat="41.75609" lon="9.12193">
        <ele>722.2</ele>
        <time>2021-06-03T12:49:08Z</time>
      </trkpt>
      <trkpt lat="41.75612" lon="9.12192">
        <ele>722.2</ele>
        <time>2021-06-03T12:49:09Z</time>
      </trkpt>
      <trkpt lat="41.75615" lon="9.12191">
        <ele>722</ele>
        <time>2021-06-03T12:49:10Z</time>
      </trkpt>
      <trkpt lat="41.75618" lon="9.12192">
        <ele>722</ele>
        <time>2021-06-03T12:49:11Z</time>
      </trkpt>
      <trkpt lat="41.7562" lon="9.12191">
        <ele>722</ele>
        <time>2021-06-03T12:49:12Z</time>
      </trkpt>
      <trkpt lat="41.75623" lon="9.1219">
        <ele>722.4</ele>
        <time>2021-06-03T12:49:13Z</time>
      </trkpt>
      <trkpt lat="41.75626" lon="9.12188">
        <ele>722.6</ele>
        <time>2021-06-03T12:49:14Z</time>
      </trkpt>
      <trkpt lat="41.75628" lon="9.12186">
        <ele>722.6</ele>
        <time>2021-06-03T12:49:15Z</time>
      </trkpt>
      <trkpt lat="41.75631" lon="9.12185">
        <ele>722.6</ele>
        <time>2021-06-03T12:49:16Z</time>
      </trkpt>
      <trkpt lat="41.75634" lon="9.12185">
        <ele>722.6</ele>
        <time>2021-06-03T12:49:17Z</time>
      </trkpt>
      <trkpt lat="41.75637" lon="9.12185">
        <ele>722.6</ele>
        <time>2021-06-03T12:49:18Z</time>
      </trkpt>
      <trkpt lat="41.75641" lon="9.12185">
        <ele>722.6</ele>
        <time>2021-06-03T12:49:19Z</time>
      </trkpt>
      <trkpt lat="41.75644" lon="9.12186">
        <ele>722.6</ele>
        <time>2021-06-03T12:49:20Z</time>
      </trkpt>
      <trkpt lat="41.75647" lon="9.12188">
        <ele>722.6</ele>
        <time>2021-06-03T12:49:21Z</time>
      </trkpt>
      <trkpt lat="41.75651" lon="9.12191">
        <ele>722.2</ele>
        <time>2021-06-03T12:49:22Z</time>
      </trkpt>
      <trkpt lat="41.75653" lon="9.12194">
        <ele>722.2</ele>
        <time>2021-06-03T12:49:23Z</time>
      </trkpt>
      <trkpt lat="41.75655" lon="9.12198">
        <ele>722.2</ele>
        <time>2021-06-03T12:49:24Z</time>
      </trkpt>
      <trkpt lat="41.75657" lon="9.12202">
        <ele>722.2</ele>
        <time>2021-06-03T12:49:25Z</time>
      </trkpt>
      <trkpt lat="41.75658" lon="9.12207">
        <ele>722.2</ele>
        <time>2021-06-03T12:49:26Z</time>
      </trkpt>
      <trkpt lat="41.75659" lon="9.12212">
        <ele>722.2</ele>
        <time>2021-06-03T12:49:27Z</time>
      </trkpt>
      <trkpt lat="41.75659" lon="9.12217">
        <ele>722.2</ele>
        <time>2021-06-03T12:49:28Z</time>
      </trkpt>
      <trkpt lat="41.75659" lon="9.12221">
        <ele>722.2</ele>
        <time>2021-06-03T12:49:29Z</time>
      </trkpt>
      <trkpt lat="41.75659" lon="9.12226">
        <ele>722.2</ele>
        <time>2021-06-03T12:49:30Z</time>
      </trkpt>
      <trkpt lat="41.75659" lon="9.1223">
        <ele>722.2</ele>
        <time>2021-06-03T12:49:31Z</time>
      </trkpt>
      <trkpt lat="41.75659" lon="9.12235">
        <ele>722.2</ele>
        <time>2021-06-03T12:49:32Z</time>
      </trkpt>
      <trkpt lat="41.75659" lon="9.12239">
        <ele>722.8</ele>
        <time>2021-06-03T12:49:33Z</time>
      </trkpt>
      <trkpt lat="41.75659" lon="9.12243">
        <ele>723</ele>
        <time>2021-06-03T12:49:34Z</time>
      </trkpt>
      <trkpt lat="41.75659" lon="9.12247">
        <ele>723</ele>
        <time>2021-06-03T12:49:35Z</time>
      </trkpt>
      <trkpt lat="41.75659" lon="9.12251">
        <ele>723</ele>
        <time>2021-06-03T12:49:36Z</time>
      </trkpt>
      <trkpt lat="41.75658" lon="9.12255">
        <ele>723</ele>
        <time>2021-06-03T12:49:37Z</time>
      </trkpt>
      <trkpt lat="41.75658" lon="9.12259">
        <ele>723.6</ele>
        <time>2021-06-03T12:49:38Z</time>
      </trkpt>
      <trkpt lat="41.75658" lon="9.12263">
        <ele>723.6</ele>
        <time>2021-06-03T12:49:39Z</time>
      </trkpt>
      <trkpt lat="41.75658" lon="9.12267">
        <ele>723.6</ele>
        <time>2021-06-03T12:49:40Z</time>
      </trkpt>
      <trkpt lat="41.75658" lon="9.12272">
        <ele>724.4</ele>
        <time>2021-06-03T12:49:41Z</time>
      </trkpt>
      <trkpt lat="41.75658" lon="9.12276">
        <ele>723.6</ele>
        <time>2021-06-03T12:49:42Z</time>
      </trkpt>
      <trkpt lat="41.75658" lon="9.1228">
        <ele>723.6</ele>
        <time>2021-06-03T12:49:43Z</time>
      </trkpt>
      <trkpt lat="41.75658" lon="9.12284">
        <ele>723.6</ele>
        <time>2021-06-03T12:49:44Z</time>
      </trkpt>
      <trkpt lat="41.75659" lon="9.12288">
        <ele>724.6</ele>
        <time>2021-06-03T12:49:45Z</time>
      </trkpt>
      <trkpt lat="41.75659" lon="9.12292">
        <ele>724.8</ele>
        <time>2021-06-03T12:49:46Z</time>
      </trkpt>
      <trkpt lat="41.75659" lon="9.12296">
        <ele>724.8</ele>
        <time>2021-06-03T12:49:47Z</time>
      </trkpt>
      <trkpt lat="41.75659" lon="9.123">
        <ele>724.8</ele>
        <time>2021-06-03T12:49:48Z</time>
      </trkpt>
      <trkpt lat="41.7566" lon="9.12304">
        <ele>724.8</ele>
        <time>2021-06-03T12:49:49Z</time>
      </trkpt>
      <trkpt lat="41.7566" lon="9.12308">
        <ele>724.6</ele>
        <time>2021-06-03T12:49:50Z</time>
      </trkpt>
      <trkpt lat="41.7566" lon="9.12312">
        <ele>724.6</ele>
        <time>2021-06-03T12:49:51Z</time>
      </trkpt>
      <trkpt lat="41.7566" lon="9.12316">
        <ele>724.6</ele>
        <time>2021-06-03T12:49:52Z</time>
      </trkpt>
      <trkpt lat="41.7566" lon="9.12321">
        <ele>724.6</ele>
        <time>2021-06-03T12:49:53Z</time>
      </trkpt>
      <trkpt lat="41.7566" lon="9.12325">
        <ele>724.6</ele>
        <time>2021-06-03T12:49:54Z</time>
      </trkpt>
      <trkpt lat="41.7566" lon="9.12329">
        <ele>724.6</ele>
        <time>2021-06-03T12:49:55Z</time>
      </trkpt>
      <trkpt lat="41.7566" lon="9.12333">
        <ele>724.6</ele>
        <time>2021-06-03T12:49:56Z</time>
      </trkpt>
      <trkpt lat="41.75659" lon="9.12338">
        <ele>724.8</ele>
        <time>2021-06-03T12:49:57Z</time>
      </trkpt>
      <trkpt lat="41.75659" lon="9.12341">
        <ele>724.8</ele>
        <time>2021-06-03T12:49:58Z</time>
      </trkpt>
      <trkpt lat="41.75659" lon="9.12346">
        <ele>724.8</ele>
        <time>2021-06-03T12:49:59Z</time>
      </trkpt>
      <trkpt lat="41.75658" lon="9.1235">
        <ele>724.8</ele>
        <time>2021-06-03T12:50:00Z</time>
      </trkpt>
      <trkpt lat="41.75658" lon="9.12353">
        <ele>725.4</ele>
        <time>2021-06-03T12:50:01Z</time>
      </trkpt>
      <trkpt lat="41.75658" lon="9.12357">
        <ele>725</ele>
        <time>2021-06-03T12:50:02Z</time>
      </trkpt>
      <trkpt lat="41.75657" lon="9.12361">
        <ele>725</ele>
        <time>2021-06-03T12:50:03Z</time>
      </trkpt>
      <trkpt lat="41.75657" lon="9.12365">
        <ele>725</ele>
        <time>2021-06-03T12:50:04Z</time>
      </trkpt>
      <trkpt lat="41.75657" lon="9.12369">
        <ele>725</ele>
        <time>2021-06-03T12:50:05Z</time>
      </trkpt>
      <trkpt lat="41.75657" lon="9.12373">
        <ele>725.6</ele>
        <time>2021-06-03T12:50:06Z</time>
      </trkpt>
      <trkpt lat="41.75657" lon="9.12378">
        <ele>725.6</ele>
        <time>2021-06-03T12:50:07Z</time>
      </trkpt>
      <trkpt lat="41.75656" lon="9.12382">
        <ele>725.6</ele>
        <time>2021-06-03T12:50:08Z</time>
      </trkpt>
      <trkpt lat="41.75656" lon="9.12386">
        <ele>725.6</ele>
        <time>2021-06-03T12:50:09Z</time>
      </trkpt>
      <trkpt lat="41.75656" lon="9.12391">
        <ele>725.6</ele>
        <time>2021-06-03T12:50:10Z</time>
      </trkpt>
      <trkpt lat="41.75656" lon="9.12395">
        <ele>725.6</ele>
        <time>2021-06-03T12:50:11Z</time>
      </trkpt>
      <trkpt lat="41.75656" lon="9.124">
        <ele>725.6</ele>
        <time>2021-06-03T12:50:12Z</time>
      </trkpt>
      <trkpt lat="41.75657" lon="9.12404">
        <ele>725.6</ele>
        <time>2021-06-03T12:50:13Z</time>
      </trkpt>
      <trkpt lat="41.75657" lon="9.12409">
        <ele>726</ele>
        <time>2021-06-03T12:50:14Z</time>
      </trkpt>
      <trkpt lat="41.75657" lon="9.12413">
        <ele>726</ele>
        <time>2021-06-03T12:50:15Z</time>
      </trkpt>
      <trkpt lat="41.75658" lon="9.12418">
        <ele>726</ele>
        <time>2021-06-03T12:50:16Z</time>
      </trkpt>
      <trkpt lat="41.75658" lon="9.12422">
        <ele>726</ele>
        <time>2021-06-03T12:50:17Z</time>
      </trkpt>
      <trkpt lat="41.75659" lon="9.12427">
        <ele>726.4</ele>
        <time>2021-06-03T12:50:18Z</time>
      </trkpt>
      <trkpt lat="41.7566" lon="9.1243">
        <ele>726.4</ele>
        <time>2021-06-03T12:50:19Z</time>
      </trkpt>
      <trkpt lat="41.75661" lon="9.12434">
        <ele>726.4</ele>
        <time>2021-06-03T12:50:20Z</time>
      </trkpt>
      <trkpt lat="41.75662" lon="9.12438">
        <ele>726.4</ele>
        <time>2021-06-03T12:50:21Z</time>
      </trkpt>
      <trkpt lat="41.75664" lon="9.12442">
        <ele>726</ele>
        <time>2021-06-03T12:50:22Z</time>
      </trkpt>
      <trkpt lat="41.75665" lon="9.12446">
        <ele>726</ele>
        <time>2021-06-03T12:50:23Z</time>
      </trkpt>
      <trkpt lat="41.75667" lon="9.1245">
        <ele>726</ele>
        <time>2021-06-03T12:50:24Z</time>
      </trkpt>
      <trkpt lat="41.75669" lon="9.12453">
        <ele>726</ele>
        <time>2021-06-03T12:50:25Z</time>
      </trkpt>
      <trkpt lat="41.75671" lon="9.12456">
        <ele>726.6</ele>
        <time>2021-06-03T12:50:26Z</time>
      </trkpt>
      <trkpt lat="41.75673" lon="9.1246">
        <ele>726.6</ele>
        <time>2021-06-03T12:50:27Z</time>
      </trkpt>
      <trkpt lat="41.75675" lon="9.12463">
        <ele>726.6</ele>
        <time>2021-06-03T12:50:28Z</time>
      </trkpt>
      <trkpt lat="41.75676" lon="9.12466">
        <ele>726.6</ele>
        <time>2021-06-03T12:50:29Z</time>
      </trkpt>
      <trkpt lat="41.75678" lon="9.1247">
        <ele>727</ele>
        <time>2021-06-03T12:50:30Z</time>
      </trkpt>
      <trkpt lat="41.7568" lon="9.12473">
        <ele>727</ele>
        <time>2021-06-03T12:50:31Z</time>
      </trkpt>
      <trkpt lat="41.75682" lon="9.12477">
        <ele>727</ele>
        <time>2021-06-03T12:50:32Z</time>
      </trkpt>
      <trkpt lat="41.75684" lon="9.1248">
        <ele>727.4</ele>
        <time>2021-06-03T12:50:33Z</time>
      </trkpt>
      <trkpt lat="41.75685" lon="9.12484">
        <ele>727.4</ele>
        <time>2021-06-03T12:50:34Z</time>
      </trkpt>
      <trkpt lat="41.75687" lon="9.12487">
        <ele>727.4</ele>
        <time>2021-06-03T12:50:35Z</time>
      </trkpt>
      <trkpt lat="41.75689" lon="9.12491">
        <ele>727.4</ele>
        <time>2021-06-03T12:50:36Z</time>
      </trkpt>
      <trkpt lat="41.75691" lon="9.12494">
        <ele>727.4</ele>
        <time>2021-06-03T12:50:37Z</time>
      </trkpt>
      <trkpt lat="41.75692" lon="9.12498">
        <ele>727.4</ele>
        <time>2021-06-03T12:50:38Z</time>
      </trkpt>
      <trkpt lat="41.75694" lon="9.12502">
        <ele>727.4</ele>
        <time>2021-06-03T12:50:39Z</time>
      </trkpt>
      <trkpt lat="41.75695" lon="9.12505">
        <ele>727.4</ele>
        <time>2021-06-03T12:50:40Z</time>
      </trkpt>
      <trkpt lat="41.75697" lon="9.12509">
        <ele>727.6</ele>
        <time>2021-06-03T12:50:41Z</time>
      </trkpt>
      <trkpt lat="41.75699" lon="9.12514">
        <ele>728</ele>
        <time>2021-06-03T12:50:42Z</time>
      </trkpt>
      <trkpt lat="41.757" lon="9.12518">
        <ele>728</ele>
        <time>2021-06-03T12:50:43Z</time>
      </trkpt>
      <trkpt lat="41.75701" lon="9.12522">
        <ele>728</ele>
        <time>2021-06-03T12:50:44Z</time>
      </trkpt>
      <trkpt lat="41.75703" lon="9.12526">
        <ele>728</ele>
        <time>2021-06-03T12:50:45Z</time>
      </trkpt>
      <trkpt lat="41.75704" lon="9.1253">
        <ele>727.8</ele>
        <time>2021-06-03T12:50:46Z</time>
      </trkpt>
      <trkpt lat="41.75704" lon="9.12534">
        <ele>727.8</ele>
        <time>2021-06-03T12:50:47Z</time>
      </trkpt>
      <trkpt lat="41.75705" lon="9.12538">
        <ele>727.8</ele>
        <time>2021-06-03T12:50:48Z</time>
      </trkpt>
      <trkpt lat="41.75705" lon="9.12543">
        <ele>728.4</ele>
        <time>2021-06-03T12:50:49Z</time>
      </trkpt>
      <trkpt lat="41.75706" lon="9.12546">
        <ele>728</ele>
        <time>2021-06-03T12:50:50Z</time>
      </trkpt>
      <trkpt lat="41.75706" lon="9.1255">
        <ele>728</ele>
        <time>2021-06-03T12:50:51Z</time>
      </trkpt>
      <trkpt lat="41.75706" lon="9.12554">
        <ele>728</ele>
        <time>2021-06-03T12:50:52Z</time>
      </trkpt>
      <trkpt lat="41.75706" lon="9.12558">
        <ele>728.8</ele>
        <time>2021-06-03T12:50:53Z</time>
      </trkpt>
      <trkpt lat="41.75707" lon="9.12562">
        <ele>728.8</ele>
        <time>2021-06-03T12:50:54Z</time>
      </trkpt>
      <trkpt lat="41.75708" lon="9.12566">
        <ele>728.8</ele>
        <time>2021-06-03T12:50:55Z</time>
      </trkpt>
      <trkpt lat="41.75709" lon="9.12569">
        <ele>728.8</ele>
        <time>2021-06-03T12:50:56Z</time>
      </trkpt>
      <trkpt lat="41.75709" lon="9.12573">
        <ele>728.8</ele>
        <time>2021-06-03T12:50:57Z</time>
      </trkpt>
      <trkpt lat="41.7571" lon="9.12577">
        <ele>729.2</ele>
        <time>2021-06-03T12:50:58Z</time>
      </trkpt>
      <trkpt lat="41.75711" lon="9.12581">
        <ele>729.2</ele>
        <time>2021-06-03T12:50:59Z</time>
      </trkpt>
      <trkpt lat="41.75711" lon="9.12586">
        <ele>729.2</ele>
        <time>2021-06-03T12:51:00Z</time>
      </trkpt>
      <trkpt lat="41.75712" lon="9.1259">
        <ele>729.2</ele>
        <time>2021-06-03T12:51:01Z</time>
      </trkpt>
      <trkpt lat="41.75714" lon="9.12594">
        <ele>729.2</ele>
        <time>2021-06-03T12:51:02Z</time>
      </trkpt>
      <trkpt lat="41.75715" lon="9.12598">
        <ele>729.2</ele>
        <time>2021-06-03T12:51:03Z</time>
      </trkpt>
      <trkpt lat="41.75716" lon="9.12602">
        <ele>729.2</ele>
        <time>2021-06-03T12:51:04Z</time>
      </trkpt>
      <trkpt lat="41.75718" lon="9.12606">
        <ele>729.2</ele>
        <time>2021-06-03T12:51:05Z</time>
      </trkpt>
      <trkpt lat="41.75719" lon="9.1261">
        <ele>729.4</ele>
        <time>2021-06-03T12:51:06Z</time>
      </trkpt>
      <trkpt lat="41.75721" lon="9.12614">
        <ele>729.4</ele>
        <time>2021-06-03T12:51:07Z</time>
      </trkpt>
      <trkpt lat="41.75722" lon="9.12617">
        <ele>729.4</ele>
        <time>2021-06-03T12:51:08Z</time>
      </trkpt>
      <trkpt lat="41.75724" lon="9.12621">
        <ele>730</ele>
        <time>2021-06-03T12:51:09Z</time>
      </trkpt>
      <trkpt lat="41.75726" lon="9.12624">
        <ele>730.4</ele>
        <time>2021-06-03T12:51:10Z</time>
      </trkpt>
      <trkpt lat="41.75728" lon="9.12628">
        <ele>730.4</ele>
        <time>2021-06-03T12:51:11Z</time>
      </trkpt>
      <trkpt lat="41.75731" lon="9.12631">
        <ele>730.4</ele>
        <time>2021-06-03T12:51:12Z</time>
      </trkpt>
      <trkpt lat="41.75733" lon="9.12634">
        <ele>730.4</ele>
        <time>2021-06-03T12:51:13Z</time>
      </trkpt>
      <trkpt lat="41.75736" lon="9.12637">
        <ele>730.4</ele>
        <time>2021-06-03T12:51:14Z</time>
      </trkpt>
      <trkpt lat="41.75738" lon="9.1264">
        <ele>730.4</ele>
        <time>2021-06-03T12:51:15Z</time>
      </trkpt>
      <trkpt lat="41.7574" lon="9.12643">
        <ele>730.4</ele>
        <time>2021-06-03T12:51:16Z</time>
      </trkpt>
      <trkpt lat="41.75742" lon="9.12646">
        <ele>730.8</ele>
        <time>2021-06-03T12:51:17Z</time>
      </trkpt>
      <trkpt lat="41.75745" lon="9.12649">
        <ele>730.8</ele>
        <time>2021-06-03T12:51:18Z</time>
      </trkpt>
      <trkpt lat="41.75748" lon="9.12651">
        <ele>730.8</ele>
        <time>2021-06-03T12:51:19Z</time>
      </trkpt>
      <trkpt lat="41.7575" lon="9.12654">
        <ele>730.8</ele>
        <time>2021-06-03T12:51:20Z</time>
      </trkpt>
      <trkpt lat="41.75753" lon="9.12656">
        <ele>730.8</ele>
        <time>2021-06-03T12:51:21Z</time>
      </trkpt>
      <trkpt lat="41.75755" lon="9.12659">
        <ele>731.2</ele>
        <time>2021-06-03T12:51:22Z</time>
      </trkpt>
      <trkpt lat="41.75758" lon="9.12661">
        <ele>731.2</ele>
        <time>2021-06-03T12:51:23Z</time>
      </trkpt>
      <trkpt lat="41.75761" lon="9.12663">
        <ele>731.2</ele>
        <time>2021-06-03T12:51:24Z</time>
      </trkpt>
      <trkpt lat="41.75763" lon="9.12666">
        <ele>731.2</ele>
        <time>2021-06-03T12:51:25Z</time>
      </trkpt>
      <trkpt lat="41.75766" lon="9.12668">
        <ele>731.2</ele>
        <time>2021-06-03T12:51:26Z</time>
      </trkpt>
      <trkpt lat="41.75769" lon="9.12671">
        <ele>731.2</ele>
        <time>2021-06-03T12:51:27Z</time>
      </trkpt>
      <trkpt lat="41.75771" lon="9.12673">
        <ele>731.2</ele>
        <time>2021-06-03T12:51:28Z</time>
      </trkpt>
      <trkpt lat="41.75774" lon="9.12675">
        <ele>731.4</ele>
        <time>2021-06-03T12:51:29Z</time>
      </trkpt>
      <trkpt lat="41.75777" lon="9.12677">
        <ele>732</ele>
        <time>2021-06-03T12:51:30Z</time>
      </trkpt>
      <trkpt lat="41.7578" lon="9.12679">
        <ele>732</ele>
        <time>2021-06-03T12:51:31Z</time>
      </trkpt>
      <trkpt lat="41.75783" lon="9.12682">
        <ele>732</ele>
        <time>2021-06-03T12:51:32Z</time>
      </trkpt>
      <trkpt lat="41.75786" lon="9.12684">
        <ele>731.8</ele>
        <time>2021-06-03T12:51:33Z</time>
      </trkpt>
      <trkpt lat="41.75789" lon="9.12686">
        <ele>731.6</ele>
        <time>2021-06-03T12:51:34Z</time>
      </trkpt>
      <trkpt lat="41.75792" lon="9.12689">
        <ele>731.6</ele>
        <time>2021-06-03T12:51:35Z</time>
      </trkpt>
      <trkpt lat="41.75795" lon="9.12691">
        <ele>731.6</ele>
        <time>2021-06-03T12:51:36Z</time>
      </trkpt>
      <trkpt lat="41.75798" lon="9.12693">
        <ele>731.8</ele>
        <time>2021-06-03T12:51:37Z</time>
      </trkpt>
      <trkpt lat="41.75801" lon="9.12696">
        <ele>731.8</ele>
        <time>2021-06-03T12:51:38Z</time>
      </trkpt>
      <trkpt lat="41.75803" lon="9.12698">
        <ele>732.2</ele>
        <time>2021-06-03T12:51:39Z</time>
      </trkpt>
      <trkpt lat="41.75806" lon="9.127">
        <ele>732.2</ele>
        <time>2021-06-03T12:51:40Z</time>
      </trkpt>
      <trkpt lat="41.75809" lon="9.12703">
        <ele>732.2</ele>
        <time>2021-06-03T12:51:41Z</time>
      </trkpt>
      <trkpt lat="41.75812" lon="9.12705">
        <ele>732.2</ele>
        <time>2021-06-03T12:51:42Z</time>
      </trkpt>
      <trkpt lat="41.75815" lon="9.12707">
        <ele>732.2</ele>
        <time>2021-06-03T12:51:43Z</time>
      </trkpt>
      <trkpt lat="41.75817" lon="9.12709">
        <ele>732.2</ele>
        <time>2021-06-03T12:51:44Z</time>
      </trkpt>
      <trkpt lat="41.7582" lon="9.12712">
        <ele>732.2</ele>
        <time>2021-06-03T12:51:45Z</time>
      </trkpt>
      <trkpt lat="41.75823" lon="9.12714">
        <ele>732.2</ele>
        <time>2021-06-03T12:51:46Z</time>
      </trkpt>
      <trkpt lat="41.75826" lon="9.12716">
        <ele>732.2</ele>
        <time>2021-06-03T12:51:47Z</time>
      </trkpt>
      <trkpt lat="41.75829" lon="9.12718">
        <ele>732.2</ele>
        <time>2021-06-03T12:51:48Z</time>
      </trkpt>
      <trkpt lat="41.75832" lon="9.1272">
        <ele>732.2</ele>
        <time>2021-06-03T12:51:49Z</time>
      </trkpt>
      <trkpt lat="41.75835" lon="9.12722">
        <ele>732.8</ele>
        <time>2021-06-03T12:51:50Z</time>
      </trkpt>
      <trkpt lat="41.75838" lon="9.12725">
        <ele>732.8</ele>
        <time>2021-06-03T12:51:51Z</time>
      </trkpt>
      <trkpt lat="41.75841" lon="9.12727">
        <ele>732.8</ele>
        <time>2021-06-03T12:51:52Z</time>
      </trkpt>
      <trkpt lat="41.75844" lon="9.12729">
        <ele>732.8</ele>
        <time>2021-06-03T12:51:53Z</time>
      </trkpt>
      <trkpt lat="41.75847" lon="9.12731">
        <ele>732.4</ele>
        <time>2021-06-03T12:51:54Z</time>
      </trkpt>
      <trkpt lat="41.7585" lon="9.12733">
        <ele>732.4</ele>
        <time>2021-06-03T12:51:55Z</time>
      </trkpt>
      <trkpt lat="41.75853" lon="9.12736">
        <ele>732.4</ele>
        <time>2021-06-03T12:51:56Z</time>
      </trkpt>
      <trkpt lat="41.75855" lon="9.12738">
        <ele>732.8</ele>
        <time>2021-06-03T12:51:57Z</time>
      </trkpt>
      <trkpt lat="41.75858" lon="9.1274">
        <ele>733</ele>
        <time>2021-06-03T12:51:58Z</time>
      </trkpt>
      <trkpt lat="41.75861" lon="9.12743">
        <ele>733</ele>
        <time>2021-06-03T12:51:59Z</time>
      </trkpt>
      <trkpt lat="41.75863" lon="9.12745">
        <ele>733</ele>
        <time>2021-06-03T12:52:00Z</time>
      </trkpt>
      <trkpt lat="41.75866" lon="9.12747">
        <ele>733</ele>
        <time>2021-06-03T12:52:01Z</time>
      </trkpt>
      <trkpt lat="41.75869" lon="9.12749">
        <ele>733</ele>
        <time>2021-06-03T12:52:02Z</time>
      </trkpt>
      <trkpt lat="41.75872" lon="9.12751">
        <ele>733</ele>
        <time>2021-06-03T12:52:03Z</time>
      </trkpt>
      <trkpt lat="41.75875" lon="9.12753">
        <ele>733</ele>
        <time>2021-06-03T12:52:04Z</time>
      </trkpt>
      <trkpt lat="41.75878" lon="9.12755">
        <ele>733</ele>
        <time>2021-06-03T12:52:05Z</time>
      </trkpt>
      <trkpt lat="41.75881" lon="9.12757">
        <ele>733</ele>
        <time>2021-06-03T12:52:06Z</time>
      </trkpt>
      <trkpt lat="41.75884" lon="9.12759">
        <ele>733</ele>
        <time>2021-06-03T12:52:07Z</time>
      </trkpt>
      <trkpt lat="41.75886" lon="9.12762">
        <ele>733</ele>
        <time>2021-06-03T12:52:08Z</time>
      </trkpt>
      <trkpt lat="41.75889" lon="9.12763">
        <ele>733.6</ele>
        <time>2021-06-03T12:52:09Z</time>
      </trkpt>
      <trkpt lat="41.75892" lon="9.12765">
        <ele>733.4</ele>
        <time>2021-06-03T12:52:10Z</time>
      </trkpt>
      <trkpt lat="41.75895" lon="9.12767">
        <ele>733.4</ele>
        <time>2021-06-03T12:52:11Z</time>
      </trkpt>
      <trkpt lat="41.75897" lon="9.12769">
        <ele>733.4</ele>
        <time>2021-06-03T12:52:12Z</time>
      </trkpt>
      <trkpt lat="41.759" lon="9.12771">
        <ele>733.6</ele>
        <time>2021-06-03T12:52:13Z</time>
      </trkpt>
      <trkpt lat="41.75903" lon="9.12772">
        <ele>733.6</ele>
        <time>2021-06-03T12:52:14Z</time>
      </trkpt>
      <trkpt lat="41.75906" lon="9.12774">
        <ele>733.6</ele>
        <time>2021-06-03T12:52:15Z</time>
      </trkpt>
      <trkpt lat="41.75909" lon="9.12775">
        <ele>733.6</ele>
        <time>2021-06-03T12:52:16Z</time>
      </trkpt>
      <trkpt lat="41.75912" lon="9.12777">
        <ele>733.6</ele>
        <time>2021-06-03T12:52:17Z</time>
      </trkpt>
      <trkpt lat="41.75915" lon="9.12779">
        <ele>733.8</ele>
        <time>2021-06-03T12:52:18Z</time>
      </trkpt>
      <trkpt lat="41.75918" lon="9.12781">
        <ele>733.8</ele>
        <time>2021-06-03T12:52:19Z</time>
      </trkpt>
      <trkpt lat="41.75922" lon="9.12782">
        <ele>733.8</ele>
        <time>2021-06-03T12:52:20Z</time>
      </trkpt>
      <trkpt lat="41.75925" lon="9.12784">
        <ele>733.4</ele>
        <time>2021-06-03T12:52:21Z</time>
      </trkpt>
      <trkpt lat="41.75928" lon="9.12786">
        <ele>733.4</ele>
        <time>2021-06-03T12:52:22Z</time>
      </trkpt>
      <trkpt lat="41.75931" lon="9.12788">
        <ele>733.4</ele>
        <time>2021-06-03T12:52:23Z</time>
      </trkpt>
      <trkpt lat="41.75933" lon="9.1279">
        <ele>733.4</ele>
        <time>2021-06-03T12:52:24Z</time>
      </trkpt>
      <trkpt lat="41.75937" lon="9.12791">
        <ele>733.8</ele>
        <time>2021-06-03T12:52:25Z</time>
      </trkpt>
      <trkpt lat="41.7594" lon="9.12793">
        <ele>733.8</ele>
        <time>2021-06-03T12:52:26Z</time>
      </trkpt>
      <trkpt lat="41.75943" lon="9.12795">
        <ele>733.8</ele>
        <time>2021-06-03T12:52:27Z</time>
      </trkpt>
      <trkpt lat="41.75946" lon="9.12797">
        <ele>733.8</ele>
        <time>2021-06-03T12:52:28Z</time>
      </trkpt>
      <trkpt lat="41.75949" lon="9.12798">
        <ele>733.8</ele>
        <time>2021-06-03T12:52:29Z</time>
      </trkpt>
      <trkpt lat="41.75952" lon="9.128">
        <ele>734</ele>
        <time>2021-06-03T12:52:30Z</time>
      </trkpt>
      <trkpt lat="41.75955" lon="9.12802">
        <ele>734</ele>
        <time>2021-06-03T12:52:31Z</time>
      </trkpt>
      <trkpt lat="41.75958" lon="9.12803">
        <ele>734</ele>
        <time>2021-06-03T12:52:32Z</time>
      </trkpt>
      <trkpt lat="41.75961" lon="9.12805">
        <ele>734</ele>
        <time>2021-06-03T12:52:33Z</time>
      </trkpt>
      <trkpt lat="41.75964" lon="9.12806">
        <ele>734.4</ele>
        <time>2021-06-03T12:52:34Z</time>
      </trkpt>
      <trkpt lat="41.75967" lon="9.12808">
        <ele>734.4</ele>
        <time>2021-06-03T12:52:35Z</time>
      </trkpt>
      <trkpt lat="41.7597" lon="9.12809">
        <ele>734.4</ele>
        <time>2021-06-03T12:52:36Z</time>
      </trkpt>
      <trkpt lat="41.75973" lon="9.12811">
        <ele>734.4</ele>
        <time>2021-06-03T12:52:37Z</time>
      </trkpt>
      <trkpt lat="41.75976" lon="9.12812">
        <ele>734.6</ele>
        <time>2021-06-03T12:52:38Z</time>
      </trkpt>
      <trkpt lat="41.75979" lon="9.12814">
        <ele>734.6</ele>
        <time>2021-06-03T12:52:39Z</time>
      </trkpt>
      <trkpt lat="41.75982" lon="9.12815">
        <ele>734.6</ele>
        <time>2021-06-03T12:52:40Z</time>
      </trkpt>
      <trkpt lat="41.75985" lon="9.12816">
        <ele>734.6</ele>
        <time>2021-06-03T12:52:41Z</time>
      </trkpt>
      <trkpt lat="41.75989" lon="9.12817">
        <ele>735</ele>
        <time>2021-06-03T12:52:42Z</time>
      </trkpt>
      <trkpt lat="41.75992" lon="9.12818">
        <ele>735</ele>
        <time>2021-06-03T12:52:43Z</time>
      </trkpt>
      <trkpt lat="41.75995" lon="9.12819">
        <ele>735</ele>
        <time>2021-06-03T12:52:44Z</time>
      </trkpt>
      <trkpt lat="41.75998" lon="9.1282">
        <ele>735</ele>
        <time>2021-06-03T12:52:45Z</time>
      </trkpt>
      <trkpt lat="41.76002" lon="9.12821">
        <ele>734.6</ele>
        <time>2021-06-03T12:52:46Z</time>
      </trkpt>
      <trkpt lat="41.76005" lon="9.12822">
        <ele>734.6</ele>
        <time>2021-06-03T12:52:47Z</time>
      </trkpt>
      <trkpt lat="41.76008" lon="9.12822">
        <ele>734.6</ele>
        <time>2021-06-03T12:52:48Z</time>
      </trkpt>
      <trkpt lat="41.76012" lon="9.12823">
        <ele>735</ele>
        <time>2021-06-03T12:52:49Z</time>
      </trkpt>
      <trkpt lat="41.76015" lon="9.12824">
        <ele>735.2</ele>
        <time>2021-06-03T12:52:50Z</time>
      </trkpt>
      <trkpt lat="41.76019" lon="9.12826">
        <ele>735.2</ele>
        <time>2021-06-03T12:52:51Z</time>
      </trkpt>
      <trkpt lat="41.76022" lon="9.12827">
        <ele>735.2</ele>
        <time>2021-06-03T12:52:52Z</time>
      </trkpt>
      <trkpt lat="41.76025" lon="9.12828">
        <ele>735.2</ele>
        <time>2021-06-03T12:52:53Z</time>
      </trkpt>
      <trkpt lat="41.76028" lon="9.1283">
        <ele>735</ele>
        <time>2021-06-03T12:52:54Z</time>
      </trkpt>
      <trkpt lat="41.76031" lon="9.12832">
        <ele>735</ele>
        <time>2021-06-03T12:52:55Z</time>
      </trkpt>
      <trkpt lat="41.76034" lon="9.12834">
        <ele>735</ele>
        <time>2021-06-03T12:52:56Z</time>
      </trkpt>
      <trkpt lat="41.76036" lon="9.12836">
        <ele>735.6</ele>
        <time>2021-06-03T12:52:57Z</time>
      </trkpt>
      <trkpt lat="41.76039" lon="9.12839">
        <ele>735</ele>
        <time>2021-06-03T12:52:58Z</time>
      </trkpt>
      <trkpt lat="41.76041" lon="9.12841">
        <ele>735</ele>
        <time>2021-06-03T12:52:59Z</time>
      </trkpt>
      <trkpt lat="41.76044" lon="9.12843">
        <ele>735</ele>
        <time>2021-06-03T12:53:00Z</time>
      </trkpt>
      <trkpt lat="41.76046" lon="9.12845">
        <ele>735.2</ele>
        <time>2021-06-03T12:53:01Z</time>
      </trkpt>
      <trkpt lat="41.76049" lon="9.12848">
        <ele>735.6</ele>
        <time>2021-06-03T12:53:02Z</time>
      </trkpt>
      <trkpt lat="41.76051" lon="9.1285">
        <ele>735.6</ele>
        <time>2021-06-03T12:53:03Z</time>
      </trkpt>
      <trkpt lat="41.76053" lon="9.12853">
        <ele>735.6</ele>
        <time>2021-06-03T12:53:04Z</time>
      </trkpt>
      <trkpt lat="41.76056" lon="9.12855">
        <ele>736.6</ele>
        <time>2021-06-03T12:53:05Z</time>
      </trkpt>
      <trkpt lat="41.76058" lon="9.12858">
        <ele>735.8</ele>
        <time>2021-06-03T12:53:06Z</time>
      </trkpt>
      <trkpt lat="41.76061" lon="9.1286">
        <ele>735.8</ele>
        <time>2021-06-03T12:53:07Z</time>
      </trkpt>
      <trkpt lat="41.76063" lon="9.12863">
        <ele>735.8</ele>
        <time>2021-06-03T12:53:08Z</time>
      </trkpt>
      <trkpt lat="41.76065" lon="9.12866">
        <ele>735.8</ele>
        <time>2021-06-03T12:53:09Z</time>
      </trkpt>
      <trkpt lat="41.76068" lon="9.12868">
        <ele>736.2</ele>
        <time>2021-06-03T12:53:10Z</time>
      </trkpt>
      <trkpt lat="41.76071" lon="9.12871">
        <ele>736.2</ele>
        <time>2021-06-03T12:53:11Z</time>
      </trkpt>
      <trkpt lat="41.76073" lon="9.12873">
        <ele>736.2</ele>
        <time>2021-06-03T12:53:12Z</time>
      </trkpt>
      <trkpt lat="41.76076" lon="9.12875">
        <ele>737</ele>
        <time>2021-06-03T12:53:13Z</time>
      </trkpt>
      <trkpt lat="41.76079" lon="9.12878">
        <ele>737.2</ele>
        <time>2021-06-03T12:53:14Z</time>
      </trkpt>
      <trkpt lat="41.76082" lon="9.1288">
        <ele>737.2</ele>
        <time>2021-06-03T12:53:15Z</time>
      </trkpt>
      <trkpt lat="41.76084" lon="9.12882">
        <ele>737.2</ele>
        <time>2021-06-03T12:53:16Z</time>
      </trkpt>
      <trkpt lat="41.76087" lon="9.12884">
        <ele>737.2</ele>
        <time>2021-06-03T12:53:17Z</time>
      </trkpt>
      <trkpt lat="41.76091" lon="9.12885">
        <ele>737.6</ele>
        <time>2021-06-03T12:53:18Z</time>
      </trkpt>
      <trkpt lat="41.76094" lon="9.12887">
        <ele>737.6</ele>
        <time>2021-06-03T12:53:19Z</time>
      </trkpt>
      <trkpt lat="41.76097" lon="9.12888">
        <ele>737.6</ele>
        <time>2021-06-03T12:53:20Z</time>
      </trkpt>
      <trkpt lat="41.76101" lon="9.12889">
        <ele>737.6</ele>
        <time>2021-06-03T12:53:21Z</time>
      </trkpt>
      <trkpt lat="41.76104" lon="9.1289">
        <ele>737.6</ele>
        <time>2021-06-03T12:53:22Z</time>
      </trkpt>
      <trkpt lat="41.76108" lon="9.12891">
        <ele>737.6</ele>
        <time>2021-06-03T12:53:23Z</time>
      </trkpt>
      <trkpt lat="41.76112" lon="9.12891">
        <ele>737.6</ele>
        <time>2021-06-03T12:53:24Z</time>
      </trkpt>
      <trkpt lat="41.76116" lon="9.12891">
        <ele>737.6</ele>
        <time>2021-06-03T12:53:25Z</time>
      </trkpt>
      <trkpt lat="41.7612" lon="9.12891">
        <ele>737.4</ele>
        <time>2021-06-03T12:53:26Z</time>
      </trkpt>
      <trkpt lat="41.76124" lon="9.1289">
        <ele>737.4</ele>
        <time>2021-06-03T12:53:27Z</time>
      </trkpt>
      <trkpt lat="41.76129" lon="9.12888">
        <ele>737.4</ele>
        <time>2021-06-03T12:53:28Z</time>
      </trkpt>
      <trkpt lat="41.76133" lon="9.12887">
        <ele>736.4</ele>
        <time>2021-06-03T12:53:29Z</time>
      </trkpt>
      <trkpt lat="41.76137" lon="9.12885">
        <ele>736</ele>
        <time>2021-06-03T12:53:30Z</time>
      </trkpt>
      <trkpt lat="41.76142" lon="9.12883">
        <ele>736</ele>
        <time>2021-06-03T12:53:31Z</time>
      </trkpt>
      <trkpt lat="41.76146" lon="9.12882">
        <ele>736</ele>
        <time>2021-06-03T12:53:32Z</time>
      </trkpt>
      <trkpt lat="41.76151" lon="9.1288">
        <ele>736</ele>
        <time>2021-06-03T12:53:33Z</time>
      </trkpt>
      <trkpt lat="41.76157" lon="9.12878">
        <ele>734.4</ele>
        <time>2021-06-03T12:53:34Z</time>
      </trkpt>
      <trkpt lat="41.76163" lon="9.12876">
        <ele>734.4</ele>
        <time>2021-06-03T12:53:35Z</time>
      </trkpt>
      <trkpt lat="41.76169" lon="9.12875">
        <ele>734.4</ele>
        <time>2021-06-03T12:53:36Z</time>
      </trkpt>
      <trkpt lat="41.76176" lon="9.12876">
        <ele>733.4</ele>
        <time>2021-06-03T12:53:37Z</time>
      </trkpt>
      <trkpt lat="41.76183" lon="9.12879">
        <ele>733.4</ele>
        <time>2021-06-03T12:53:38Z</time>
      </trkpt>
      <trkpt lat="41.76189" lon="9.12884">
        <ele>730.6</ele>
        <time>2021-06-03T12:53:39Z</time>
      </trkpt>
      <trkpt lat="41.76195" lon="9.12889">
        <ele>730.6</ele>
        <time>2021-06-03T12:53:40Z</time>
      </trkpt>
      <trkpt lat="41.76202" lon="9.12895">
        <ele>729.6</ele>
        <time>2021-06-03T12:53:41Z</time>
      </trkpt>
      <trkpt lat="41.76209" lon="9.12901">
        <ele>729.4</ele>
        <time>2021-06-03T12:53:42Z</time>
      </trkpt>
      <trkpt lat="41.76217" lon="9.12906">
        <ele>729.4</ele>
        <time>2021-06-03T12:53:43Z</time>
      </trkpt>
      <trkpt lat="41.76226" lon="9.1291">
        <ele>729.4</ele>
        <time>2021-06-03T12:53:44Z</time>
      </trkpt>
      <trkpt lat="41.76236" lon="9.12911">
        <ele>728.4</ele>
        <time>2021-06-03T12:53:45Z</time>
      </trkpt>
      <trkpt lat="41.76246" lon="9.12908">
        <ele>724.8</ele>
        <time>2021-06-03T12:53:46Z</time>
      </trkpt>
      <trkpt lat="41.76255" lon="9.12902">
        <ele>724.8</ele>
        <time>2021-06-03T12:53:47Z</time>
      </trkpt>
      <trkpt lat="41.76263" lon="9.12893">
        <ele>724.8</ele>
        <time>2021-06-03T12:53:48Z</time>
      </trkpt>
      <trkpt lat="41.76268" lon="9.12881">
        <ele>723.8</ele>
        <time>2021-06-03T12:53:49Z</time>
      </trkpt>
      <trkpt lat="41.76271" lon="9.12868">
        <ele>720.8</ele>
        <time>2021-06-03T12:53:50Z</time>
      </trkpt>
      <trkpt lat="41.76275" lon="9.12855">
        <ele>720.8</ele>
        <time>2021-06-03T12:53:51Z</time>
      </trkpt>
      <trkpt lat="41.76281" lon="9.12844">
        <ele>720.8</ele>
        <time>2021-06-03T12:53:52Z</time>
      </trkpt>
      <trkpt lat="41.76287" lon="9.12835">
        <ele>720.8</ele>
        <time>2021-06-03T12:53:53Z</time>
      </trkpt>
      <trkpt lat="41.76293" lon="9.12828">
        <ele>722.4</ele>
        <time>2021-06-03T12:53:54Z</time>
      </trkpt>
      <trkpt lat="41.76299" lon="9.12824">
        <ele>722.4</ele>
        <time>2021-06-03T12:53:55Z</time>
      </trkpt>
      <trkpt lat="41.76307" lon="9.12825">
        <ele>722.4</ele>
        <time>2021-06-03T12:53:56Z</time>
      </trkpt>
      <trkpt lat="41.76312" lon="9.12831">
        <ele>722.4</ele>
        <time>2021-06-03T12:53:57Z</time>
      </trkpt>
      <trkpt lat="41.76316" lon="9.12838">
        <ele>722.4</ele>
        <time>2021-06-03T12:53:58Z</time>
      </trkpt>
      <trkpt lat="41.76319" lon="9.12845">
        <ele>723.8</ele>
        <time>2021-06-03T12:53:59Z</time>
      </trkpt>
      <trkpt lat="41.76321" lon="9.12853">
        <ele>723.8</ele>
        <time>2021-06-03T12:54:00Z</time>
      </trkpt>
      <trkpt lat="41.7632" lon="9.12861">
        <ele>723.8</ele>
        <time>2021-06-03T12:54:01Z</time>
      </trkpt>
      <trkpt lat="41.76318" lon="9.12868">
        <ele>723.2</ele>
        <time>2021-06-03T12:54:02Z</time>
      </trkpt>
      <trkpt lat="41.76316" lon="9.12875">
        <ele>723.2</ele>
        <time>2021-06-03T12:54:03Z</time>
      </trkpt>
      <trkpt lat="41.76314" lon="9.12881">
        <ele>723.2</ele>
        <time>2021-06-03T12:54:04Z</time>
      </trkpt>
      <trkpt lat="41.76311" lon="9.12888">
        <ele>724.2</ele>
        <time>2021-06-03T12:54:05Z</time>
      </trkpt>
      <trkpt lat="41.7631" lon="9.12894">
        <ele>724.4</ele>
        <time>2021-06-03T12:54:06Z</time>
      </trkpt>
      <trkpt lat="41.76308" lon="9.129">
        <ele>724.4</ele>
        <time>2021-06-03T12:54:07Z</time>
      </trkpt>
      <trkpt lat="41.76306" lon="9.12906">
        <ele>724.4</ele>
        <time>2021-06-03T12:54:08Z</time>
      </trkpt>
      <trkpt lat="41.76304" lon="9.12911">
        <ele>725.2</ele>
        <time>2021-06-03T12:54:09Z</time>
      </trkpt>
      <trkpt lat="41.76302" lon="9.12916">
        <ele>725.6</ele>
        <time>2021-06-03T12:54:10Z</time>
      </trkpt>
      <trkpt lat="41.763" lon="9.12921">
        <ele>725.6</ele>
        <time>2021-06-03T12:54:11Z</time>
      </trkpt>
      <trkpt lat="41.76299" lon="9.12925">
        <ele>725.6</ele>
        <time>2021-06-03T12:54:12Z</time>
      </trkpt>
      <trkpt lat="41.76297" lon="9.12929">
        <ele>725.6</ele>
        <time>2021-06-03T12:54:13Z</time>
      </trkpt>
      <trkpt lat="41.76295" lon="9.12933">
        <ele>725.8</ele>
        <time>2021-06-03T12:54:14Z</time>
      </trkpt>
      <trkpt lat="41.76294" lon="9.12937">
        <ele>725.8</ele>
        <time>2021-06-03T12:54:15Z</time>
      </trkpt>
      <trkpt lat="41.76293" lon="9.12941">
        <ele>725.8</ele>
        <time>2021-06-03T12:54:16Z</time>
      </trkpt>
      <trkpt lat="41.76291" lon="9.12944">
        <ele>726.8</ele>
        <time>2021-06-03T12:54:17Z</time>
      </trkpt>
      <trkpt lat="41.7629" lon="9.12947">
        <ele>726.8</ele>
        <time>2021-06-03T12:54:18Z</time>
      </trkpt>
      <trkpt lat="41.76289" lon="9.12951">
        <ele>726.8</ele>
        <time>2021-06-03T12:54:19Z</time>
      </trkpt>
      <trkpt lat="41.76288" lon="9.12954">
        <ele>726.8</ele>
        <time>2021-06-03T12:54:20Z</time>
      </trkpt>
      <trkpt lat="41.76287" lon="9.12957">
        <ele>727.8</ele>
        <time>2021-06-03T12:54:21Z</time>
      </trkpt>
      <trkpt lat="41.76285" lon="9.1296">
        <ele>728.6</ele>
        <time>2021-06-03T12:54:22Z</time>
      </trkpt>
      <trkpt lat="41.76284" lon="9.12963">
        <ele>728.6</ele>
        <time>2021-06-03T12:54:23Z</time>
      </trkpt>
      <trkpt lat="41.76282" lon="9.12965">
        <ele>728.6</ele>
        <time>2021-06-03T12:54:24Z</time>
      </trkpt>
      <trkpt lat="41.76281" lon="9.12968">
        <ele>728.6</ele>
        <time>2021-06-03T12:54:25Z</time>
      </trkpt>
      <trkpt lat="41.7628" lon="9.12971">
        <ele>729.4</ele>
        <time>2021-06-03T12:54:26Z</time>
      </trkpt>
      <trkpt lat="41.76279" lon="9.12973">
        <ele>729.4</ele>
        <time>2021-06-03T12:54:27Z</time>
      </trkpt>
      <trkpt lat="41.76277" lon="9.12976">
        <ele>729.4</ele>
        <time>2021-06-03T12:54:28Z</time>
      </trkpt>
      <trkpt lat="41.76276" lon="9.12978">
        <ele>729.8</ele>
        <time>2021-06-03T12:54:29Z</time>
      </trkpt>
      <trkpt lat="41.76275" lon="9.12981">
        <ele>730</ele>
        <time>2021-06-03T12:54:30Z</time>
      </trkpt>
      <trkpt lat="41.76274" lon="9.12983">
        <ele>730</ele>
        <time>2021-06-03T12:54:31Z</time>
      </trkpt>
      <trkpt lat="41.76272" lon="9.12985">
        <ele>730</ele>
        <time>2021-06-03T12:54:32Z</time>
      </trkpt>
      <trkpt lat="41.76271" lon="9.12987">
        <ele>730.2</ele>
        <time>2021-06-03T12:54:33Z</time>
      </trkpt>
      <trkpt lat="41.7627" lon="9.1299">
        <ele>730.8</ele>
        <time>2021-06-03T12:54:34Z</time>
      </trkpt>
      <trkpt lat="41.76268" lon="9.12992">
        <ele>730.8</ele>
        <time>2021-06-03T12:54:35Z</time>
      </trkpt>
      <trkpt lat="41.76267" lon="9.12994">
        <ele>730.8</ele>
        <time>2021-06-03T12:54:36Z</time>
      </trkpt>
      <trkpt lat="41.76266" lon="9.12996">
        <ele>730.8</ele>
        <time>2021-06-03T12:54:37Z</time>
      </trkpt>
      <trkpt lat="41.76264" lon="9.12999">
        <ele>731.2</ele>
        <time>2021-06-03T12:54:38Z</time>
      </trkpt>
      <trkpt lat="41.76263" lon="9.13001">
        <ele>731.2</ele>
        <time>2021-06-03T12:54:39Z</time>
      </trkpt>
      <trkpt lat="41.76262" lon="9.13003">
        <ele>731.2</ele>
        <time>2021-06-03T12:54:40Z</time>
      </trkpt>
      <trkpt lat="41.7626" lon="9.13006">
        <ele>732</ele>
        <time>2021-06-03T12:54:41Z</time>
      </trkpt>
      <trkpt lat="41.76259" lon="9.13008">
        <ele>731.6</ele>
        <time>2021-06-03T12:54:42Z</time>
      </trkpt>
      <trkpt lat="41.76257" lon="9.1301">
        <ele>731.6</ele>
        <time>2021-06-03T12:54:43Z</time>
      </trkpt>
      <trkpt lat="41.76256" lon="9.13013">
        <ele>731.6</ele>
        <time>2021-06-03T12:54:44Z</time>
      </trkpt>
      <trkpt lat="41.76254" lon="9.13015">
        <ele>732.6</ele>
        <time>2021-06-03T12:54:45Z</time>
      </trkpt>
      <trkpt lat="41.76253" lon="9.13017">
        <ele>732.6</ele>
        <time>2021-06-03T12:54:46Z</time>
      </trkpt>
      <trkpt lat="41.76252" lon="9.13019">
        <ele>732.6</ele>
        <time>2021-06-03T12:54:47Z</time>
      </trkpt>
      <trkpt lat="41.7625" lon="9.13022">
        <ele>732.6</ele>
        <time>2021-06-03T12:54:48Z</time>
      </trkpt>
      <trkpt lat="41.76249" lon="9.13025">
        <ele>732.6</ele>
        <time>2021-06-03T12:54:49Z</time>
      </trkpt>
      <trkpt lat="41.76248" lon="9.13027">
        <ele>733.6</ele>
        <time>2021-06-03T12:54:50Z</time>
      </trkpt>
      <trkpt lat="41.76246" lon="9.13029">
        <ele>733.6</ele>
        <time>2021-06-03T12:54:51Z</time>
      </trkpt>
      <trkpt lat="41.76245" lon="9.13032">
        <ele>733.6</ele>
        <time>2021-06-03T12:54:52Z</time>
      </trkpt>
      <trkpt lat="41.76244" lon="9.13034">
        <ele>733.6</ele>
        <time>2021-06-03T12:54:53Z</time>
      </trkpt>
      <trkpt lat="41.76242" lon="9.13037">
        <ele>733.6</ele>
        <time>2021-06-03T12:54:54Z</time>
      </trkpt>
      <trkpt lat="41.76241" lon="9.13038">
        <ele>733.6</ele>
        <time>2021-06-03T12:54:55Z</time>
      </trkpt>
      <trkpt lat="41.76239" lon="9.1304">
        <ele>733.6</ele>
        <time>2021-06-03T12:54:56Z</time>
      </trkpt>
      <trkpt lat="41.76237" lon="9.13041">
        <ele>734</ele>
        <time>2021-06-03T12:54:57Z</time>
      </trkpt>
      <trkpt lat="41.76235" lon="9.13043">
        <ele>733.8</ele>
        <time>2021-06-03T12:54:58Z</time>
      </trkpt>
      <trkpt lat="41.76233" lon="9.13044">
        <ele>733.8</ele>
        <time>2021-06-03T12:54:59Z</time>
      </trkpt>
      <trkpt lat="41.76231" lon="9.13045">
        <ele>733.8</ele>
        <time>2021-06-03T12:55:00Z</time>
      </trkpt>
      <trkpt lat="41.76229" lon="9.13045">
        <ele>733.8</ele>
        <time>2021-06-03T12:55:01Z</time>
      </trkpt>
      <trkpt lat="41.76227" lon="9.13046">
        <ele>734.6</ele>
        <time>2021-06-03T12:55:02Z</time>
      </trkpt>
      <trkpt lat="41.76225" lon="9.13046">
        <ele>734.6</ele>
        <time>2021-06-03T12:55:03Z</time>
      </trkpt>
      <trkpt lat="41.76223" lon="9.13045">
        <ele>734.6</ele>
        <time>2021-06-03T12:55:04Z</time>
      </trkpt>
      <trkpt lat="41.76221" lon="9.13045">
        <ele>734.6</ele>
        <time>2021-06-03T12:55:05Z</time>
      </trkpt>
      <trkpt lat="41.76219" lon="9.13045">
        <ele>735</ele>
        <time>2021-06-03T12:55:06Z</time>
      </trkpt>
      <trkpt lat="41.76217" lon="9.13045">
        <ele>735</ele>
        <time>2021-06-03T12:55:07Z</time>
      </trkpt>
      <trkpt lat="41.76215" lon="9.13044">
        <ele>735</ele>
        <time>2021-06-03T12:55:08Z</time>
      </trkpt>
      <trkpt lat="41.76213" lon="9.13044">
        <ele>735.4</ele>
        <time>2021-06-03T12:55:09Z</time>
      </trkpt>
      <trkpt lat="41.76211" lon="9.13044">
        <ele>735</ele>
        <time>2021-06-03T12:55:10Z</time>
      </trkpt>
      <trkpt lat="41.76209" lon="9.13042">
        <ele>735</ele>
        <time>2021-06-03T12:55:11Z</time>
      </trkpt>
      <trkpt lat="41.76207" lon="9.13042">
        <ele>735</ele>
        <time>2021-06-03T12:55:12Z</time>
      </trkpt>
      <trkpt lat="41.76205" lon="9.13041">
        <ele>735.6</ele>
        <time>2021-06-03T12:55:13Z</time>
      </trkpt>
      <trkpt lat="41.76203" lon="9.1304">
        <ele>735.4</ele>
        <time>2021-06-03T12:55:14Z</time>
      </trkpt>
      <trkpt lat="41.76201" lon="9.13039">
        <ele>735.4</ele>
        <time>2021-06-03T12:55:15Z</time>
      </trkpt>
      <trkpt lat="41.76199" lon="9.13039">
        <ele>735.4</ele>
        <time>2021-06-03T12:55:16Z</time>
      </trkpt>
      <trkpt lat="41.76197" lon="9.13038">
        <ele>736.4</ele>
        <time>2021-06-03T12:55:17Z</time>
      </trkpt>
      <trkpt lat="41.76195" lon="9.13037">
        <ele>736.6</ele>
        <time>2021-06-03T12:55:18Z</time>
      </trkpt>
      <trkpt lat="41.76194" lon="9.13037">
        <ele>736.6</ele>
        <time>2021-06-03T12:55:19Z</time>
      </trkpt>
      <trkpt lat="41.76192" lon="9.13036">
        <ele>736.6</ele>
        <time>2021-06-03T12:55:20Z</time>
      </trkpt>
      <trkpt lat="41.76191" lon="9.13036">
        <ele>737.2</ele>
        <time>2021-06-03T12:55:21Z</time>
      </trkpt>
      <trkpt lat="41.76189" lon="9.13036">
        <ele>737</ele>
        <time>2021-06-03T12:55:22Z</time>
      </trkpt>
      <trkpt lat="41.76187" lon="9.13036">
        <ele>737</ele>
        <time>2021-06-03T12:55:23Z</time>
      </trkpt>
      <trkpt lat="41.76185" lon="9.13036">
        <ele>737</ele>
        <time>2021-06-03T12:55:24Z</time>
      </trkpt>
      <trkpt lat="41.76183" lon="9.13036">
        <ele>737.6</ele>
        <time>2021-06-03T12:55:25Z</time>
      </trkpt>
      <trkpt lat="41.76182" lon="9.13036">
        <ele>738.2</ele>
        <time>2021-06-03T12:55:26Z</time>
      </trkpt>
      <trkpt lat="41.7618" lon="9.13037">
        <ele>738.2</ele>
        <time>2021-06-03T12:55:27Z</time>
      </trkpt>
      <trkpt lat="41.76178" lon="9.13037">
        <ele>738.2</ele>
        <time>2021-06-03T12:55:28Z</time>
      </trkpt>
      <trkpt lat="41.76177" lon="9.13038">
        <ele>738.2</ele>
        <time>2021-06-03T12:55:29Z</time>
      </trkpt>
      <trkpt lat="41.76175" lon="9.13039">
        <ele>738.6</ele>
        <time>2021-06-03T12:55:30Z</time>
      </trkpt>
      <trkpt lat="41.76174" lon="9.1304">
        <ele>738.6</ele>
        <time>2021-06-03T12:55:31Z</time>
      </trkpt>
      <trkpt lat="41.76172" lon="9.13041">
        <ele>738.6</ele>
        <time>2021-06-03T12:55:32Z</time>
      </trkpt>
      <trkpt lat="41.76171" lon="9.13042">
        <ele>738.6</ele>
        <time>2021-06-03T12:55:33Z</time>
      </trkpt>
      <trkpt lat="41.7617" lon="9.13043">
        <ele>739</ele>
        <time>2021-06-03T12:55:34Z</time>
      </trkpt>
      <trkpt lat="41.76168" lon="9.13045">
        <ele>739</ele>
        <time>2021-06-03T12:55:35Z</time>
      </trkpt>
      <trkpt lat="41.76167" lon="9.13047">
        <ele>739</ele>
        <time>2021-06-03T12:55:36Z</time>
      </trkpt>
      <trkpt lat="41.76166" lon="9.13048">
        <ele>739</ele>
        <time>2021-06-03T12:55:37Z</time>
      </trkpt>
      <trkpt lat="41.76165" lon="9.1305">
        <ele>739.6</ele>
        <time>2021-06-03T12:55:38Z</time>
      </trkpt>
      <trkpt lat="41.76163" lon="9.13051">
        <ele>739.6</ele>
        <time>2021-06-03T12:55:39Z</time>
      </trkpt>
      <trkpt lat="41.76162" lon="9.13053">
        <ele>739.6</ele>
        <time>2021-06-03T12:55:40Z</time>
      </trkpt>
      <trkpt lat="41.76161" lon="9.13055">
        <ele>739.8</ele>
        <time>2021-06-03T12:55:41Z</time>
      </trkpt>
      <trkpt lat="41.7616" lon="9.13057">
        <ele>739.4</ele>
        <time>2021-06-03T12:55:42Z</time>
      </trkpt>
      <trkpt lat="41.76159" lon="9.13059">
        <ele>739.4</ele>
        <time>2021-06-03T12:55:43Z</time>
      </trkpt>
      <trkpt lat="41.76158" lon="9.1306">
        <ele>739.4</ele>
        <time>2021-06-03T12:55:44Z</time>
      </trkpt>
      <trkpt lat="41.76157" lon="9.13062">
        <ele>740.2</ele>
        <time>2021-06-03T12:55:45Z</time>
      </trkpt>
      <trkpt lat="41.76155" lon="9.13064">
        <ele>739.8</ele>
        <time>2021-06-03T12:55:46Z</time>
      </trkpt>
      <trkpt lat="41.76154" lon="9.13065">
        <ele>739.8</ele>
        <time>2021-06-03T12:55:47Z</time>
      </trkpt>
      <trkpt lat="41.76153" lon="9.13067">
        <ele>739.8</ele>
        <time>2021-06-03T12:55:48Z</time>
      </trkpt>
      <trkpt lat="41.76151" lon="9.13069">
        <ele>739.8</ele>
        <time>2021-06-03T12:55:49Z</time>
      </trkpt>
      <trkpt lat="41.7615" lon="9.13071">
        <ele>740.6</ele>
        <time>2021-06-03T12:55:50Z</time>
      </trkpt>
      <trkpt lat="41.76149" lon="9.13072">
        <ele>740.6</ele>
        <time>2021-06-03T12:55:51Z</time>
      </trkpt>
      <trkpt lat="41.76147" lon="9.13073">
        <ele>740.6</ele>
        <time>2021-06-03T12:55:52Z</time>
      </trkpt>
      <trkpt lat="41.76146" lon="9.13074">
        <ele>740.6</ele>
        <time>2021-06-03T12:55:53Z</time>
      </trkpt>
      <trkpt lat="41.76144" lon="9.13075">
        <ele>740</ele>
        <time>2021-06-03T12:55:54Z</time>
      </trkpt>
      <trkpt lat="41.76142" lon="9.13076">
        <ele>740</ele>
        <time>2021-06-03T12:55:55Z</time>
      </trkpt>
      <trkpt lat="41.76141" lon="9.13077">
        <ele>740</ele>
        <time>2021-06-03T12:55:56Z</time>
      </trkpt>
      <trkpt lat="41.76139" lon="9.13077">
        <ele>740.8</ele>
        <time>2021-06-03T12:55:57Z</time>
      </trkpt>
      <trkpt lat="41.76137" lon="9.13078">
        <ele>741</ele>
        <time>2021-06-03T12:55:58Z</time>
      </trkpt>
      <trkpt lat="41.76136" lon="9.13079">
        <ele>741</ele>
        <time>2021-06-03T12:55:59Z</time>
      </trkpt>
      <trkpt lat="41.76134" lon="9.13079">
        <ele>741</ele>
        <time>2021-06-03T12:56:00Z</time>
      </trkpt>
      <trkpt lat="41.76132" lon="9.1308">
        <ele>741.4</ele>
        <time>2021-06-03T12:56:01Z</time>
      </trkpt>
      <trkpt lat="41.76131" lon="9.13081">
        <ele>740.8</ele>
        <time>2021-06-03T12:56:02Z</time>
      </trkpt>
      <trkpt lat="41.76129" lon="9.13082">
        <ele>740.8</ele>
        <time>2021-06-03T12:56:03Z</time>
      </trkpt>
      <trkpt lat="41.76127" lon="9.13082">
        <ele>740.8</ele>
        <time>2021-06-03T12:56:04Z</time>
      </trkpt>
      <trkpt lat="41.76125" lon="9.13083">
        <ele>741.4</ele>
        <time>2021-06-03T12:56:05Z</time>
      </trkpt>
      <trkpt lat="41.76123" lon="9.13083">
        <ele>741.6</ele>
        <time>2021-06-03T12:56:06Z</time>
      </trkpt>
      <trkpt lat="41.76122" lon="9.13083">
        <ele>741.6</ele>
        <time>2021-06-03T12:56:07Z</time>
      </trkpt>
      <trkpt lat="41.7612" lon="9.13084">
        <ele>741.6</ele>
        <time>2021-06-03T12:56:08Z</time>
      </trkpt>
      <trkpt lat="41.76118" lon="9.13084">
        <ele>741.6</ele>
        <time>2021-06-03T12:56:09Z</time>
      </trkpt>
      <trkpt lat="41.76116" lon="9.13084">
        <ele>741.8</ele>
        <time>2021-06-03T12:56:10Z</time>
      </trkpt>
      <trkpt lat="41.76114" lon="9.13085">
        <ele>741.8</ele>
        <time>2021-06-03T12:56:11Z</time>
      </trkpt>
      <trkpt lat="41.76112" lon="9.13085">
        <ele>741.8</ele>
        <time>2021-06-03T12:56:12Z</time>
      </trkpt>
      <trkpt lat="41.76111" lon="9.13085">
        <ele>742.2</ele>
        <time>2021-06-03T12:56:13Z</time>
      </trkpt>
      <trkpt lat="41.76109" lon="9.13086">
        <ele>742.8</ele>
        <time>2021-06-03T12:56:14Z</time>
      </trkpt>
      <trkpt lat="41.76107" lon="9.13086">
        <ele>742.8</ele>
        <time>2021-06-03T12:56:15Z</time>
      </trkpt>
      <trkpt lat="41.76105" lon="9.13086">
        <ele>742.8</ele>
        <time>2021-06-03T12:56:16Z</time>
      </trkpt>
      <trkpt lat="41.76104" lon="9.13086">
        <ele>742.8</ele>
        <time>2021-06-03T12:56:17Z</time>
      </trkpt>
      <trkpt lat="41.76102" lon="9.13086">
        <ele>742.8</ele>
        <time>2021-06-03T12:56:18Z</time>
      </trkpt>
      <trkpt lat="41.761" lon="9.13086">
        <ele>742.8</ele>
        <time>2021-06-03T12:56:19Z</time>
      </trkpt>
      <trkpt lat="41.76099" lon="9.13086">
        <ele>742.8</ele>
        <time>2021-06-03T12:56:20Z</time>
      </trkpt>
      <trkpt lat="41.76097" lon="9.13086">
        <ele>742.8</ele>
        <time>2021-06-03T12:56:21Z</time>
      </trkpt>
      <trkpt lat="41.76096" lon="9.13086">
        <ele>743.2</ele>
        <time>2021-06-03T12:56:22Z</time>
      </trkpt>
      <trkpt lat="41.76094" lon="9.13087">
        <ele>743.2</ele>
        <time>2021-06-03T12:56:23Z</time>
      </trkpt>
      <trkpt lat="41.76092" lon="9.13087">
        <ele>743.2</ele>
        <time>2021-06-03T12:56:24Z</time>
      </trkpt>
      <trkpt lat="41.7609" lon="9.13087">
        <ele>743.8</ele>
        <time>2021-06-03T12:56:25Z</time>
      </trkpt>
      <trkpt lat="41.76089" lon="9.13088">
        <ele>743.8</ele>
        <time>2021-06-03T12:56:26Z</time>
      </trkpt>
      <trkpt lat="41.76087" lon="9.13088">
        <ele>743.8</ele>
        <time>2021-06-03T12:56:27Z</time>
      </trkpt>
      <trkpt lat="41.76085" lon="9.13088">
        <ele>743.8</ele>
        <time>2021-06-03T12:56:28Z</time>
      </trkpt>
      <trkpt lat="41.76083" lon="9.13089">
        <ele>744.6</ele>
        <time>2021-06-03T12:56:29Z</time>
      </trkpt>
      <trkpt lat="41.76082" lon="9.1309">
        <ele>744.4</ele>
        <time>2021-06-03T12:56:30Z</time>
      </trkpt>
      <trkpt lat="41.7608" lon="9.13091">
        <ele>744.4</ele>
        <time>2021-06-03T12:56:31Z</time>
      </trkpt>
      <trkpt lat="41.76078" lon="9.13091">
        <ele>744.4</ele>
        <time>2021-06-03T12:56:32Z</time>
      </trkpt>
      <trkpt lat="41.76077" lon="9.13092">
        <ele>744.8</ele>
        <time>2021-06-03T12:56:33Z</time>
      </trkpt>
      <trkpt lat="41.76075" lon="9.13093">
        <ele>744.6</ele>
        <time>2021-06-03T12:56:34Z</time>
      </trkpt>
      <trkpt lat="41.76074" lon="9.13095">
        <ele>744.6</ele>
        <time>2021-06-03T12:56:35Z</time>
      </trkpt>
      <trkpt lat="41.76073" lon="9.13096">
        <ele>744.6</ele>
        <time>2021-06-03T12:56:36Z</time>
      </trkpt>
      <trkpt lat="41.76072" lon="9.13098">
        <ele>745.4</ele>
        <time>2021-06-03T12:56:37Z</time>
      </trkpt>
      <trkpt lat="41.76071" lon="9.13099">
        <ele>745.8</ele>
        <time>2021-06-03T12:56:38Z</time>
      </trkpt>
      <trkpt lat="41.7607" lon="9.13101">
        <ele>745.8</ele>
        <time>2021-06-03T12:56:39Z</time>
      </trkpt>
      <trkpt lat="41.76069" lon="9.13103">
        <ele>745.8</ele>
        <time>2021-06-03T12:56:40Z</time>
      </trkpt>
      <trkpt lat="41.76069" lon="9.13106">
        <ele>745.8</ele>
        <time>2021-06-03T12:56:41Z</time>
      </trkpt>
      <trkpt lat="41.76069" lon="9.13108">
        <ele>746.2</ele>
        <time>2021-06-03T12:56:42Z</time>
      </trkpt>
      <trkpt lat="41.76069" lon="9.1311">
        <ele>746.2</ele>
        <time>2021-06-03T12:56:43Z</time>
      </trkpt>
      <trkpt lat="41.76069" lon="9.13112">
        <ele>746.2</ele>
        <time>2021-06-03T12:56:44Z</time>
      </trkpt>
      <trkpt lat="41.76069" lon="9.13115">
        <ele>746.6</ele>
        <time>2021-06-03T12:56:45Z</time>
      </trkpt>
      <trkpt lat="41.76069" lon="9.13117">
        <ele>746.6</ele>
        <time>2021-06-03T12:56:46Z</time>
      </trkpt>
      <trkpt lat="41.76069" lon="9.13119">
        <ele>746.6</ele>
        <time>2021-06-03T12:56:47Z</time>
      </trkpt>
      <trkpt lat="41.76069" lon="9.13122">
        <ele>746.6</ele>
        <time>2021-06-03T12:56:48Z</time>
      </trkpt>
      <trkpt lat="41.76069" lon="9.13124">
        <ele>746.8</ele>
        <time>2021-06-03T12:56:49Z</time>
      </trkpt>
      <trkpt lat="41.7607" lon="9.13126">
        <ele>747.2</ele>
        <time>2021-06-03T12:56:50Z</time>
      </trkpt>
      <trkpt lat="41.7607" lon="9.13128">
        <ele>747.2</ele>
        <time>2021-06-03T12:56:51Z</time>
      </trkpt>
      <trkpt lat="41.76071" lon="9.13131">
        <ele>747.2</ele>
        <time>2021-06-03T12:56:52Z</time>
      </trkpt>
      <trkpt lat="41.76072" lon="9.13133">
        <ele>747.2</ele>
        <time>2021-06-03T12:56:53Z</time>
      </trkpt>
      <trkpt lat="41.76073" lon="9.13134">
        <ele>748</ele>
        <time>2021-06-03T12:56:54Z</time>
      </trkpt>
      <trkpt lat="41.76073" lon="9.13136">
        <ele>748</ele>
        <time>2021-06-03T12:56:55Z</time>
      </trkpt>
      <trkpt lat="41.76074" lon="9.13138">
        <ele>748</ele>
        <time>2021-06-03T12:56:56Z</time>
      </trkpt>
      <trkpt lat="41.76075" lon="9.13139">
        <ele>748</ele>
        <time>2021-06-03T12:56:57Z</time>
      </trkpt>
      <trkpt lat="41.76076" lon="9.13141">
        <ele>748</ele>
        <time>2021-06-03T12:56:58Z</time>
      </trkpt>
      <trkpt lat="41.76077" lon="9.13142">
        <ele>748</ele>
        <time>2021-06-03T12:56:59Z</time>
      </trkpt>
      <trkpt lat="41.76078" lon="9.13143">
        <ele>748</ele>
        <time>2021-06-03T12:57:00Z</time>
      </trkpt>
      <trkpt lat="41.76079" lon="9.13145">
        <ele>748.4</ele>
        <time>2021-06-03T12:57:01Z</time>
      </trkpt>
      <trkpt lat="41.7608" lon="9.13146">
        <ele>748</ele>
        <time>2021-06-03T12:57:02Z</time>
      </trkpt>
      <trkpt lat="41.76081" lon="9.13148">
        <ele>748</ele>
        <time>2021-06-03T12:57:03Z</time>
      </trkpt>
      <trkpt lat="41.76082" lon="9.13149">
        <ele>748</ele>
        <time>2021-06-03T12:57:04Z</time>
      </trkpt>
      <trkpt lat="41.76083" lon="9.1315">
        <ele>748</ele>
        <time>2021-06-03T12:57:05Z</time>
      </trkpt>
      <trkpt lat="41.76084" lon="9.13152">
        <ele>748.8</ele>
        <time>2021-06-03T12:57:06Z</time>
      </trkpt>
      <trkpt lat="41.76085" lon="9.13153">
        <ele>748.8</ele>
        <time>2021-06-03T12:57:07Z</time>
      </trkpt>
      <trkpt lat="41.76086" lon="9.13154">
        <ele>748.8</ele>
        <time>2021-06-03T12:57:08Z</time>
      </trkpt>
      <trkpt lat="41.76087" lon="9.13155">
        <ele>748.8</ele>
        <time>2021-06-03T12:57:09Z</time>
      </trkpt>
      <trkpt lat="41.76089" lon="9.13156">
        <ele>749.4</ele>
        <time>2021-06-03T12:57:10Z</time>
      </trkpt>
      <trkpt lat="41.7609" lon="9.13157">
        <ele>749.4</ele>
        <time>2021-06-03T12:57:11Z</time>
      </trkpt>
      <trkpt lat="41.7609" lon="9.13158">
        <ele>749.4</ele>
        <time>2021-06-03T12:57:12Z</time>
      </trkpt>
      <trkpt lat="41.76091" lon="9.13159">
        <ele>749.4</ele>
        <time>2021-06-03T12:57:13Z</time>
      </trkpt>
      <trkpt lat="41.76092" lon="9.13159">
        <ele>749.4</ele>
        <time>2021-06-03T12:57:14Z</time>
      </trkpt>
      <trkpt lat="41.76094" lon="9.13161">
        <ele>749.4</ele>
        <time>2021-06-03T12:57:15Z</time>
      </trkpt>
      <trkpt lat="41.76095" lon="9.13162">
        <ele>749.4</ele>
        <time>2021-06-03T12:57:16Z</time>
      </trkpt>
      <trkpt lat="41.76096" lon="9.13163">
        <ele>750</ele>
        <time>2021-06-03T12:57:17Z</time>
      </trkpt>
      <trkpt lat="41.76098" lon="9.13164">
        <ele>750</ele>
        <time>2021-06-03T12:57:18Z</time>
      </trkpt>
      <trkpt lat="41.76099" lon="9.13166">
        <ele>750</ele>
        <time>2021-06-03T12:57:19Z</time>
      </trkpt>
      <trkpt lat="41.76101" lon="9.13167">
        <ele>750</ele>
        <time>2021-06-03T12:57:20Z</time>
      </trkpt>
      <trkpt lat="41.76102" lon="9.13168">
        <ele>750</ele>
        <time>2021-06-03T12:57:21Z</time>
      </trkpt>
      <trkpt lat="41.76104" lon="9.1317">
        <ele>750.4</ele>
        <time>2021-06-03T12:57:22Z</time>
      </trkpt>
      <trkpt lat="41.76106" lon="9.13171">
        <ele>750.4</ele>
        <time>2021-06-03T12:57:23Z</time>
      </trkpt>
      <trkpt lat="41.76108" lon="9.13172">
        <ele>750.4</ele>
        <time>2021-06-03T12:57:24Z</time>
      </trkpt>
      <trkpt lat="41.76109" lon="9.13173">
        <ele>750.4</ele>
        <time>2021-06-03T12:57:25Z</time>
      </trkpt>
      <trkpt lat="41.76111" lon="9.13175">
        <ele>750.8</ele>
        <time>2021-06-03T12:57:26Z</time>
      </trkpt>
      <trkpt lat="41.76112" lon="9.13176">
        <ele>750.8</ele>
        <time>2021-06-03T12:57:27Z</time>
      </trkpt>
      <trkpt lat="41.76114" lon="9.13178">
        <ele>750.8</ele>
        <time>2021-06-03T12:57:28Z</time>
      </trkpt>
      <trkpt lat="41.76115" lon="9.13179">
        <ele>750.8</ele>
        <time>2021-06-03T12:57:29Z</time>
      </trkpt>
      <trkpt lat="41.76116" lon="9.1318">
        <ele>751.2</ele>
        <time>2021-06-03T12:57:30Z</time>
      </trkpt>
      <trkpt lat="41.76117" lon="9.13182">
        <ele>751.2</ele>
        <time>2021-06-03T12:57:31Z</time>
      </trkpt>
      <trkpt lat="41.76119" lon="9.13183">
        <ele>751.2</ele>
        <time>2021-06-03T12:57:32Z</time>
      </trkpt>
      <trkpt lat="41.7612" lon="9.13185">
        <ele>751.6</ele>
        <time>2021-06-03T12:57:33Z</time>
      </trkpt>
      <trkpt lat="41.76122" lon="9.13187">
        <ele>751.8</ele>
        <time>2021-06-03T12:57:34Z</time>
      </trkpt>
      <trkpt lat="41.76123" lon="9.13189">
        <ele>751.8</ele>
        <time>2021-06-03T12:57:35Z</time>
      </trkpt>
      <trkpt lat="41.76124" lon="9.1319">
        <ele>751.8</ele>
        <time>2021-06-03T12:57:36Z</time>
      </trkpt>
      <trkpt lat="41.76125" lon="9.13193">
        <ele>751.8</ele>
        <time>2021-06-03T12:57:37Z</time>
      </trkpt>
      <trkpt lat="41.76126" lon="9.13195">
        <ele>751.8</ele>
        <time>2021-06-03T12:57:38Z</time>
      </trkpt>
      <trkpt lat="41.76126" lon="9.13197">
        <ele>751.8</ele>
        <time>2021-06-03T12:57:39Z</time>
      </trkpt>
      <trkpt lat="41.76127" lon="9.13199">
        <ele>751.8</ele>
        <time>2021-06-03T12:57:40Z</time>
      </trkpt>
      <trkpt lat="41.76128" lon="9.13202">
        <ele>752</ele>
        <time>2021-06-03T12:57:41Z</time>
      </trkpt>
      <trkpt lat="41.76128" lon="9.13204">
        <ele>752.6</ele>
        <time>2021-06-03T12:57:42Z</time>
      </trkpt>
      <trkpt lat="41.76128" lon="9.13206">
        <ele>752.6</ele>
        <time>2021-06-03T12:57:43Z</time>
      </trkpt>
      <trkpt lat="41.76128" lon="9.13209">
        <ele>752.6</ele>
        <time>2021-06-03T12:57:44Z</time>
      </trkpt>
      <trkpt lat="41.76128" lon="9.13211">
        <ele>752.6</ele>
        <time>2021-06-03T12:57:45Z</time>
      </trkpt>
      <trkpt lat="41.76128" lon="9.13213">
        <ele>753</ele>
        <time>2021-06-03T12:57:46Z</time>
      </trkpt>
      <trkpt lat="41.76128" lon="9.13215">
        <ele>753</ele>
        <time>2021-06-03T12:57:47Z</time>
      </trkpt>
      <trkpt lat="41.76128" lon="9.13217">
        <ele>753</ele>
        <time>2021-06-03T12:57:48Z</time>
      </trkpt>
      <trkpt lat="41.76128" lon="9.13219">
        <ele>753</ele>
        <time>2021-06-03T12:57:49Z</time>
      </trkpt>
      <trkpt lat="41.76128" lon="9.13222">
        <ele>753.4</ele>
        <time>2021-06-03T12:57:50Z</time>
      </trkpt>
      <trkpt lat="41.76128" lon="9.13224">
        <ele>753.4</ele>
        <time>2021-06-03T12:57:51Z</time>
      </trkpt>
      <trkpt lat="41.76128" lon="9.13226">
        <ele>753.4</ele>
        <time>2021-06-03T12:57:52Z</time>
      </trkpt>
      <trkpt lat="41.76129" lon="9.13228">
        <ele>753.8</ele>
        <time>2021-06-03T12:57:53Z</time>
      </trkpt>
      <trkpt lat="41.76129" lon="9.1323">
        <ele>753.6</ele>
        <time>2021-06-03T12:57:54Z</time>
      </trkpt>
      <trkpt lat="41.76129" lon="9.13232">
        <ele>753.6</ele>
        <time>2021-06-03T12:57:55Z</time>
      </trkpt>
      <trkpt lat="41.76129" lon="9.13235">
        <ele>753.6</ele>
        <time>2021-06-03T12:57:56Z</time>
      </trkpt>
      <trkpt lat="41.76129" lon="9.13237">
        <ele>754.2</ele>
        <time>2021-06-03T12:57:57Z</time>
      </trkpt>
      <trkpt lat="41.76129" lon="9.13239">
        <ele>754.4</ele>
        <time>2021-06-03T12:57:58Z</time>
      </trkpt>
      <trkpt lat="41.7613" lon="9.13241">
        <ele>754.4</ele>
        <time>2021-06-03T12:57:59Z</time>
      </trkpt>
      <trkpt lat="41.7613" lon="9.13243">
        <ele>754.4</ele>
        <time>2021-06-03T12:58:00Z</time>
      </trkpt>
      <trkpt lat="41.76131" lon="9.13245">
        <ele>754.4</ele>
        <time>2021-06-03T12:58:01Z</time>
      </trkpt>
      <trkpt lat="41.76131" lon="9.13248">
        <ele>755</ele>
        <time>2021-06-03T12:58:02Z</time>
      </trkpt>
      <trkpt lat="41.76131" lon="9.1325">
        <ele>755</ele>
        <time>2021-06-03T12:58:03Z</time>
      </trkpt>
      <trkpt lat="41.76132" lon="9.13252">
        <ele>755</ele>
        <time>2021-06-03T12:58:04Z</time>
      </trkpt>
      <trkpt lat="41.76133" lon="9.13254">
        <ele>756</ele>
        <time>2021-06-03T12:58:05Z</time>
      </trkpt>
      <trkpt lat="41.76133" lon="9.13256">
        <ele>756.2</ele>
        <time>2021-06-03T12:58:06Z</time>
      </trkpt>
      <trkpt lat="41.76134" lon="9.13258">
        <ele>756.2</ele>
        <time>2021-06-03T12:58:07Z</time>
      </trkpt>
      <trkpt lat="41.76135" lon="9.1326">
        <ele>756.2</ele>
        <time>2021-06-03T12:58:08Z</time>
      </trkpt>
      <trkpt lat="41.76136" lon="9.13262">
        <ele>756.8</ele>
        <time>2021-06-03T12:58:09Z</time>
      </trkpt>
      <trkpt lat="41.76136" lon="9.13263">
        <ele>756.8</ele>
        <time>2021-06-03T12:58:10Z</time>
      </trkpt>
      <trkpt lat="41.76137" lon="9.13265">
        <ele>756.8</ele>
        <time>2021-06-03T12:58:11Z</time>
      </trkpt>
      <trkpt lat="41.76138" lon="9.13267">
        <ele>756.8</ele>
        <time>2021-06-03T12:58:12Z</time>
      </trkpt>
      <trkpt lat="41.76139" lon="9.13268">
        <ele>756.8</ele>
        <time>2021-06-03T12:58:13Z</time>
      </trkpt>
      <trkpt lat="41.7614" lon="9.1327">
        <ele>757.4</ele>
        <time>2021-06-03T12:58:14Z</time>
      </trkpt>
      <trkpt lat="41.76142" lon="9.13272">
        <ele>757.4</ele>
        <time>2021-06-03T12:58:15Z</time>
      </trkpt>
      <trkpt lat="41.76143" lon="9.13273">
        <ele>757.4</ele>
        <time>2021-06-03T12:58:16Z</time>
      </trkpt>
      <trkpt lat="41.76144" lon="9.13275">
        <ele>757.4</ele>
        <time>2021-06-03T12:58:17Z</time>
      </trkpt>
      <trkpt lat="41.76145" lon="9.13277">
        <ele>758</ele>
        <time>2021-06-03T12:58:18Z</time>
      </trkpt>
      <trkpt lat="41.76145" lon="9.13279">
        <ele>758</ele>
        <time>2021-06-03T12:58:19Z</time>
      </trkpt>
      <trkpt lat="41.76146" lon="9.1328">
        <ele>758</ele>
        <time>2021-06-03T12:58:20Z</time>
      </trkpt>
      <trkpt lat="41.76147" lon="9.13282">
        <ele>758</ele>
        <time>2021-06-03T12:58:21Z</time>
      </trkpt>
      <trkpt lat="41.76148" lon="9.13283">
        <ele>757.8</ele>
        <time>2021-06-03T12:58:22Z</time>
      </trkpt>
      <trkpt lat="41.76149" lon="9.13285">
        <ele>757.8</ele>
        <time>2021-06-03T12:58:23Z</time>
      </trkpt>
      <trkpt lat="41.7615" lon="9.13286">
        <ele>757.8</ele>
        <time>2021-06-03T12:58:24Z</time>
      </trkpt>
      <trkpt lat="41.76151" lon="9.13287">
        <ele>758.4</ele>
        <time>2021-06-03T12:58:25Z</time>
      </trkpt>
      <trkpt lat="41.76152" lon="9.13288">
        <ele>758.8</ele>
        <time>2021-06-03T12:58:26Z</time>
      </trkpt>
      <trkpt lat="41.76153" lon="9.1329">
        <ele>758.8</ele>
        <time>2021-06-03T12:58:27Z</time>
      </trkpt>
      <trkpt lat="41.76155" lon="9.13291">
        <ele>758.8</ele>
        <time>2021-06-03T12:58:28Z</time>
      </trkpt>
      <trkpt lat="41.76155" lon="9.13292">
        <ele>758.8</ele>
        <time>2021-06-03T12:58:29Z</time>
      </trkpt>
      <trkpt lat="41.76157" lon="9.13293">
        <ele>759</ele>
        <time>2021-06-03T12:58:30Z</time>
      </trkpt>
      <trkpt lat="41.76158" lon="9.13295">
        <ele>759</ele>
        <time>2021-06-03T12:58:31Z</time>
      </trkpt>
      <trkpt lat="41.76159" lon="9.13296">
        <ele>759</ele>
        <time>2021-06-03T12:58:32Z</time>
      </trkpt>
      <trkpt lat="41.7616" lon="9.13298">
        <ele>759.8</ele>
        <time>2021-06-03T12:58:33Z</time>
      </trkpt>
      <trkpt lat="41.76162" lon="9.133">
        <ele>759.2</ele>
        <time>2021-06-03T12:58:34Z</time>
      </trkpt>
      <trkpt lat="41.76163" lon="9.13301">
        <ele>759.2</ele>
        <time>2021-06-03T12:58:35Z</time>
      </trkpt>
      <trkpt lat="41.76163" lon="9.13303">
        <ele>759.2</ele>
        <time>2021-06-03T12:58:36Z</time>
      </trkpt>
      <trkpt lat="41.76164" lon="9.13305">
        <ele>760</ele>
        <time>2021-06-03T12:58:37Z</time>
      </trkpt>
      <trkpt lat="41.76165" lon="9.13306">
        <ele>760.4</ele>
        <time>2021-06-03T12:58:38Z</time>
      </trkpt>
      <trkpt lat="41.76166" lon="9.13308">
        <ele>760.4</ele>
        <time>2021-06-03T12:58:39Z</time>
      </trkpt>
      <trkpt lat="41.76167" lon="9.1331">
        <ele>760.4</ele>
        <time>2021-06-03T12:58:40Z</time>
      </trkpt>
      <trkpt lat="41.76168" lon="9.13311">
        <ele>760.4</ele>
        <time>2021-06-03T12:58:41Z</time>
      </trkpt>
      <trkpt lat="41.7617" lon="9.13313">
        <ele>761</ele>
        <time>2021-06-03T12:58:42Z</time>
      </trkpt>
      <trkpt lat="41.76171" lon="9.13314">
        <ele>761</ele>
        <time>2021-06-03T12:58:43Z</time>
      </trkpt>
      <trkpt lat="41.76173" lon="9.13316">
        <ele>761</ele>
        <time>2021-06-03T12:58:44Z</time>
      </trkpt>
      <trkpt lat="41.76174" lon="9.13317">
        <ele>760.6</ele>
        <time>2021-06-03T12:58:45Z</time>
      </trkpt>
      <trkpt lat="41.76175" lon="9.13318">
        <ele>760.8</ele>
        <time>2021-06-03T12:58:46Z</time>
      </trkpt>
      <trkpt lat="41.76177" lon="9.1332">
        <ele>760.8</ele>
        <time>2021-06-03T12:58:47Z</time>
      </trkpt>
      <trkpt lat="41.76178" lon="9.13321">
        <ele>760.8</ele>
        <time>2021-06-03T12:58:48Z</time>
      </trkpt>
      <trkpt lat="41.76179" lon="9.13322">
        <ele>761.4</ele>
        <time>2021-06-03T12:58:49Z</time>
      </trkpt>
      <trkpt lat="41.7618" lon="9.13323">
        <ele>761.6</ele>
        <time>2021-06-03T12:58:50Z</time>
      </trkpt>
      <trkpt lat="41.76181" lon="9.13324">
        <ele>761.6</ele>
        <time>2021-06-03T12:58:51Z</time>
      </trkpt>
      <trkpt lat="41.76183" lon="9.13326">
        <ele>761.6</ele>
        <time>2021-06-03T12:58:52Z</time>
      </trkpt>
      <trkpt lat="41.76184" lon="9.13327">
        <ele>761.6</ele>
        <time>2021-06-03T12:58:53Z</time>
      </trkpt>
      <trkpt lat="41.76186" lon="9.13328">
        <ele>761.8</ele>
        <time>2021-06-03T12:58:54Z</time>
      </trkpt>
      <trkpt lat="41.76187" lon="9.13329">
        <ele>761.8</ele>
        <time>2021-06-03T12:58:55Z</time>
      </trkpt>
      <trkpt lat="41.76189" lon="9.1333">
        <ele>761.8</ele>
        <time>2021-06-03T12:58:56Z</time>
      </trkpt>
      <trkpt lat="41.7619" lon="9.13331">
        <ele>761.8</ele>
        <time>2021-06-03T12:58:57Z</time>
      </trkpt>
      <trkpt lat="41.76192" lon="9.13332">
        <ele>761.8</ele>
        <time>2021-06-03T12:58:58Z</time>
      </trkpt>
      <trkpt lat="41.76193" lon="9.13333">
        <ele>761.8</ele>
        <time>2021-06-03T12:58:59Z</time>
      </trkpt>
      <trkpt lat="41.76195" lon="9.13334">
        <ele>761.8</ele>
        <time>2021-06-03T12:59:00Z</time>
      </trkpt>
      <trkpt lat="41.76197" lon="9.13336">
        <ele>762.2</ele>
        <time>2021-06-03T12:59:01Z</time>
      </trkpt>
      <trkpt lat="41.76199" lon="9.13336">
        <ele>762.4</ele>
        <time>2021-06-03T12:59:02Z</time>
      </trkpt>
      <trkpt lat="41.762" lon="9.13338">
        <ele>762.4</ele>
        <time>2021-06-03T12:59:03Z</time>
      </trkpt>
      <trkpt lat="41.76202" lon="9.13339">
        <ele>762.4</ele>
        <time>2021-06-03T12:59:04Z</time>
      </trkpt>
      <trkpt lat="41.76204" lon="9.13339">
        <ele>762.4</ele>
        <time>2021-06-03T12:59:05Z</time>
      </trkpt>
      <trkpt lat="41.76206" lon="9.1334">
        <ele>762.4</ele>
        <time>2021-06-03T12:59:06Z</time>
      </trkpt>
      <trkpt lat="41.76207" lon="9.1334">
        <ele>762.4</ele>
        <time>2021-06-03T12:59:07Z</time>
      </trkpt>
      <trkpt lat="41.76209" lon="9.1334">
        <ele>762.4</ele>
        <time>2021-06-03T12:59:08Z</time>
      </trkpt>
      <trkpt lat="41.76211" lon="9.13341">
        <ele>763.2</ele>
        <time>2021-06-03T12:59:09Z</time>
      </trkpt>
      <trkpt lat="41.76213" lon="9.13342">
        <ele>763.2</ele>
        <time>2021-06-03T12:59:10Z</time>
      </trkpt>
      <trkpt lat="41.76215" lon="9.13342">
        <ele>763.2</ele>
        <time>2021-06-03T12:59:11Z</time>
      </trkpt>
      <trkpt lat="41.76217" lon="9.13343">
        <ele>763.2</ele>
        <time>2021-06-03T12:59:12Z</time>
      </trkpt>
      <trkpt lat="41.76219" lon="9.13344">
        <ele>763.2</ele>
        <time>2021-06-03T12:59:13Z</time>
      </trkpt>
      <trkpt lat="41.76221" lon="9.13345">
        <ele>763.2</ele>
        <time>2021-06-03T12:59:14Z</time>
      </trkpt>
      <trkpt lat="41.76223" lon="9.13346">
        <ele>763.2</ele>
        <time>2021-06-03T12:59:15Z</time>
      </trkpt>
      <trkpt lat="41.76225" lon="9.13346">
        <ele>763.2</ele>
        <time>2021-06-03T12:59:16Z</time>
      </trkpt>
      <trkpt lat="41.76227" lon="9.13346">
        <ele>763.2</ele>
        <time>2021-06-03T12:59:17Z</time>
      </trkpt>
      <trkpt lat="41.76229" lon="9.13347">
        <ele>764</ele>
        <time>2021-06-03T12:59:18Z</time>
      </trkpt>
      <trkpt lat="41.76231" lon="9.13348">
        <ele>764</ele>
        <time>2021-06-03T12:59:19Z</time>
      </trkpt>
      <trkpt lat="41.76233" lon="9.13349">
        <ele>764</ele>
        <time>2021-06-03T12:59:20Z</time>
      </trkpt>
      <trkpt lat="41.76235" lon="9.1335">
        <ele>764</ele>
        <time>2021-06-03T12:59:21Z</time>
      </trkpt>
      <trkpt lat="41.76237" lon="9.13351">
        <ele>763.8</ele>
        <time>2021-06-03T12:59:22Z</time>
      </trkpt>
      <trkpt lat="41.76238" lon="9.13352">
        <ele>763.8</ele>
        <time>2021-06-03T12:59:23Z</time>
      </trkpt>
      <trkpt lat="41.7624" lon="9.13353">
        <ele>763.8</ele>
        <time>2021-06-03T12:59:24Z</time>
      </trkpt>
      <trkpt lat="41.76242" lon="9.13354">
        <ele>764.8</ele>
        <time>2021-06-03T12:59:25Z</time>
      </trkpt>
      <trkpt lat="41.76243" lon="9.13355">
        <ele>764.8</ele>
        <time>2021-06-03T12:59:26Z</time>
      </trkpt>
      <trkpt lat="41.76245" lon="9.13356">
        <ele>764.8</ele>
        <time>2021-06-03T12:59:27Z</time>
      </trkpt>
      <trkpt lat="41.76247" lon="9.13357">
        <ele>764.8</ele>
        <time>2021-06-03T12:59:28Z</time>
      </trkpt>
      <trkpt lat="41.76249" lon="9.13358">
        <ele>764.8</ele>
        <time>2021-06-03T12:59:29Z</time>
      </trkpt>
      <trkpt lat="41.7625" lon="9.13359">
        <ele>765.2</ele>
        <time>2021-06-03T12:59:30Z</time>
      </trkpt>
      <trkpt lat="41.76252" lon="9.1336">
        <ele>765.2</ele>
        <time>2021-06-03T12:59:31Z</time>
      </trkpt>
      <trkpt lat="41.76253" lon="9.13361">
        <ele>765.2</ele>
        <time>2021-06-03T12:59:32Z</time>
      </trkpt>
      <trkpt lat="41.76254" lon="9.13362">
        <ele>765.4</ele>
        <time>2021-06-03T12:59:33Z</time>
      </trkpt>
      <trkpt lat="41.76256" lon="9.13363">
        <ele>765.4</ele>
        <time>2021-06-03T12:59:34Z</time>
      </trkpt>
      <trkpt lat="41.76257" lon="9.13364">
        <ele>765.4</ele>
        <time>2021-06-03T12:59:35Z</time>
      </trkpt>
      <trkpt lat="41.76259" lon="9.13364">
        <ele>765.4</ele>
        <time>2021-06-03T12:59:36Z</time>
      </trkpt>
      <trkpt lat="41.7626" lon="9.13365">
        <ele>765.4</ele>
        <time>2021-06-03T12:59:37Z</time>
      </trkpt>
      <trkpt lat="41.76261" lon="9.13366">
        <ele>765.6</ele>
        <time>2021-06-03T12:59:38Z</time>
      </trkpt>
      <trkpt lat="41.76263" lon="9.13368">
        <ele>765.6</ele>
        <time>2021-06-03T12:59:39Z</time>
      </trkpt>
      <trkpt lat="41.76264" lon="9.13369">
        <ele>765.6</ele>
        <time>2021-06-03T12:59:40Z</time>
      </trkpt>
      <trkpt lat="41.76265" lon="9.1337">
        <ele>765.6</ele>
        <time>2021-06-03T12:59:41Z</time>
      </trkpt>
      <trkpt lat="41.76267" lon="9.13371">
        <ele>766.2</ele>
        <time>2021-06-03T12:59:42Z</time>
      </trkpt>
      <trkpt lat="41.76268" lon="9.13373">
        <ele>766.2</ele>
        <time>2021-06-03T12:59:43Z</time>
      </trkpt>
      <trkpt lat="41.76269" lon="9.13373">
        <ele>766.2</ele>
        <time>2021-06-03T12:59:44Z</time>
      </trkpt>
      <trkpt lat="41.7627" lon="9.13375">
        <ele>766.2</ele>
        <time>2021-06-03T12:59:45Z</time>
      </trkpt>
      <trkpt lat="41.76271" lon="9.13376">
        <ele>766.4</ele>
        <time>2021-06-03T12:59:46Z</time>
      </trkpt>
      <trkpt lat="41.76272" lon="9.13377">
        <ele>766.4</ele>
        <time>2021-06-03T12:59:47Z</time>
      </trkpt>
      <trkpt lat="41.76274" lon="9.13378">
        <ele>766.4</ele>
        <time>2021-06-03T12:59:48Z</time>
      </trkpt>
      <trkpt lat="41.76275" lon="9.1338">
        <ele>766.4</ele>
        <time>2021-06-03T12:59:49Z</time>
      </trkpt>
      <trkpt lat="41.76276" lon="9.13381">
        <ele>766.8</ele>
        <time>2021-06-03T12:59:50Z</time>
      </trkpt>
      <trkpt lat="41.76278" lon="9.13382">
        <ele>766.8</ele>
        <time>2021-06-03T12:59:51Z</time>
      </trkpt>
      <trkpt lat="41.76279" lon="9.13383">
        <ele>766.8</ele>
        <time>2021-06-03T12:59:52Z</time>
      </trkpt>
      <trkpt lat="41.76281" lon="9.13384">
        <ele>766.8</ele>
        <time>2021-06-03T12:59:53Z</time>
      </trkpt>
      <trkpt lat="41.76282" lon="9.13385">
        <ele>767.8</ele>
        <time>2021-06-03T12:59:54Z</time>
      </trkpt>
      <trkpt lat="41.76283" lon="9.13387">
        <ele>767.8</ele>
        <time>2021-06-03T12:59:55Z</time>
      </trkpt>
      <trkpt lat="41.76285" lon="9.13388">
        <ele>767.8</ele>
        <time>2021-06-03T12:59:56Z</time>
      </trkpt>
      <trkpt lat="41.76286" lon="9.13389">
        <ele>767.8</ele>
        <time>2021-06-03T12:59:57Z</time>
      </trkpt>
      <trkpt lat="41.76288" lon="9.13391">
        <ele>768.2</ele>
        <time>2021-06-03T12:59:58Z</time>
      </trkpt>
      <trkpt lat="41.7629" lon="9.13392">
        <ele>768.2</ele>
        <time>2021-06-03T12:59:59Z</time>
      </trkpt>
      <trkpt lat="41.76291" lon="9.13393">
        <ele>768.2</ele>
        <time>2021-06-03T13:00:00Z</time>
      </trkpt>
      <trkpt lat="41.76292" lon="9.13394">
        <ele>768.6</ele>
        <time>2021-06-03T13:00:01Z</time>
      </trkpt>
      <trkpt lat="41.76294" lon="9.13395">
        <ele>768.4</ele>
        <time>2021-06-03T13:00:02Z</time>
      </trkpt>
      <trkpt lat="41.76296" lon="9.13396">
        <ele>768.4</ele>
        <time>2021-06-03T13:00:03Z</time>
      </trkpt>
      <trkpt lat="41.76297" lon="9.13397">
        <ele>768.4</ele>
        <time>2021-06-03T13:00:04Z</time>
      </trkpt>
      <trkpt lat="41.763" lon="9.13398">
        <ele>768.4</ele>
        <time>2021-06-03T13:00:05Z</time>
      </trkpt>
      <trkpt lat="41.76302" lon="9.13399">
        <ele>768</ele>
        <time>2021-06-03T13:00:06Z</time>
      </trkpt>
      <trkpt lat="41.76304" lon="9.134">
        <ele>768</ele>
        <time>2021-06-03T13:00:07Z</time>
      </trkpt>
      <trkpt lat="41.76305" lon="9.13401">
        <ele>768</ele>
        <time>2021-06-03T13:00:08Z</time>
      </trkpt>
      <trkpt lat="41.76307" lon="9.13402">
        <ele>768.8</ele>
        <time>2021-06-03T13:00:09Z</time>
      </trkpt>
      <trkpt lat="41.76308" lon="9.13403">
        <ele>768.6</ele>
        <time>2021-06-03T13:00:10Z</time>
      </trkpt>
      <trkpt lat="41.7631" lon="9.13404">
        <ele>768.6</ele>
        <time>2021-06-03T13:00:11Z</time>
      </trkpt>
      <trkpt lat="41.76312" lon="9.13405">
        <ele>768.6</ele>
        <time>2021-06-03T13:00:12Z</time>
      </trkpt>
      <trkpt lat="41.76314" lon="9.13406">
        <ele>769</ele>
        <time>2021-06-03T13:00:13Z</time>
      </trkpt>
      <trkpt lat="41.76316" lon="9.13407">
        <ele>769</ele>
        <time>2021-06-03T13:00:14Z</time>
      </trkpt>
      <trkpt lat="41.76318" lon="9.13408">
        <ele>769</ele>
        <time>2021-06-03T13:00:15Z</time>
      </trkpt>
      <trkpt lat="41.76319" lon="9.13409">
        <ele>769</ele>
        <time>2021-06-03T13:00:16Z</time>
      </trkpt>
      <trkpt lat="41.76321" lon="9.1341">
        <ele>769.2</ele>
        <time>2021-06-03T13:00:17Z</time>
      </trkpt>
      <trkpt lat="41.76323" lon="9.13411">
        <ele>769.6</ele>
        <time>2021-06-03T13:00:18Z</time>
      </trkpt>
      <trkpt lat="41.76325" lon="9.13413">
        <ele>769.6</ele>
        <time>2021-06-03T13:00:19Z</time>
      </trkpt>
      <trkpt lat="41.76327" lon="9.13414">
        <ele>769.6</ele>
        <time>2021-06-03T13:00:20Z</time>
      </trkpt>
      <trkpt lat="41.76328" lon="9.13415">
        <ele>769.6</ele>
        <time>2021-06-03T13:00:21Z</time>
      </trkpt>
      <trkpt lat="41.7633" lon="9.13417">
        <ele>770</ele>
        <time>2021-06-03T13:00:22Z</time>
      </trkpt>
      <trkpt lat="41.76332" lon="9.13418">
        <ele>770</ele>
        <time>2021-06-03T13:00:23Z</time>
      </trkpt>
      <trkpt lat="41.76334" lon="9.13419">
        <ele>770</ele>
        <time>2021-06-03T13:00:24Z</time>
      </trkpt>
      <trkpt lat="41.76335" lon="9.13421">
        <ele>770</ele>
        <time>2021-06-03T13:00:25Z</time>
      </trkpt>
      <trkpt lat="41.76337" lon="9.13422">
        <ele>770.2</ele>
        <time>2021-06-03T13:00:26Z</time>
      </trkpt>
      <trkpt lat="41.76338" lon="9.13424">
        <ele>770.2</ele>
        <time>2021-06-03T13:00:27Z</time>
      </trkpt>
      <trkpt lat="41.7634" lon="9.13425">
        <ele>770.2</ele>
        <time>2021-06-03T13:00:28Z</time>
      </trkpt>
      <trkpt lat="41.76341" lon="9.13427">
        <ele>770.2</ele>
        <time>2021-06-03T13:00:29Z</time>
      </trkpt>
      <trkpt lat="41.76343" lon="9.13427">
        <ele>770.2</ele>
        <time>2021-06-03T13:00:30Z</time>
      </trkpt>
      <trkpt lat="41.76344" lon="9.13429">
        <ele>770.2</ele>
        <time>2021-06-03T13:00:31Z</time>
      </trkpt>
      <trkpt lat="41.76346" lon="9.1343">
        <ele>770.2</ele>
        <time>2021-06-03T13:00:32Z</time>
      </trkpt>
      <trkpt lat="41.76347" lon="9.13432">
        <ele>771</ele>
        <time>2021-06-03T13:00:33Z</time>
      </trkpt>
      <trkpt lat="41.76348" lon="9.13433">
        <ele>770.4</ele>
        <time>2021-06-03T13:00:34Z</time>
      </trkpt>
      <trkpt lat="41.7635" lon="9.13434">
        <ele>770.4</ele>
        <time>2021-06-03T13:00:35Z</time>
      </trkpt>
      <trkpt lat="41.76351" lon="9.13436">
        <ele>770.4</ele>
        <time>2021-06-03T13:00:36Z</time>
      </trkpt>
      <trkpt lat="41.76352" lon="9.13437">
        <ele>770.8</ele>
        <time>2021-06-03T13:00:37Z</time>
      </trkpt>
      <trkpt lat="41.76354" lon="9.13439">
        <ele>771.2</ele>
        <time>2021-06-03T13:00:38Z</time>
      </trkpt>
      <trkpt lat="41.76355" lon="9.1344">
        <ele>771.2</ele>
        <time>2021-06-03T13:00:39Z</time>
      </trkpt>
      <trkpt lat="41.76357" lon="9.13441">
        <ele>771.2</ele>
        <time>2021-06-03T13:00:40Z</time>
      </trkpt>
      <trkpt lat="41.76358" lon="9.13443">
        <ele>771.6</ele>
        <time>2021-06-03T13:00:41Z</time>
      </trkpt>
      <trkpt lat="41.76359" lon="9.13444">
        <ele>772</ele>
        <time>2021-06-03T13:00:42Z</time>
      </trkpt>
      <trkpt lat="41.76361" lon="9.13445">
        <ele>772</ele>
        <time>2021-06-03T13:00:43Z</time>
      </trkpt>
      <trkpt lat="41.76362" lon="9.13447">
        <ele>772</ele>
        <time>2021-06-03T13:00:44Z</time>
      </trkpt>
      <trkpt lat="41.76363" lon="9.13449">
        <ele>772.8</ele>
        <time>2021-06-03T13:00:45Z</time>
      </trkpt>
      <trkpt lat="41.76365" lon="9.1345">
        <ele>773.2</ele>
        <time>2021-06-03T13:00:46Z</time>
      </trkpt>
      <trkpt lat="41.76366" lon="9.13451">
        <ele>773.2</ele>
        <time>2021-06-03T13:00:47Z</time>
      </trkpt>
      <trkpt lat="41.76368" lon="9.13452">
        <ele>773.2</ele>
        <time>2021-06-03T13:00:48Z</time>
      </trkpt>
      <trkpt lat="41.76369" lon="9.13453">
        <ele>773.2</ele>
        <time>2021-06-03T13:00:49Z</time>
      </trkpt>
      <trkpt lat="41.76371" lon="9.13455">
        <ele>773.6</ele>
        <time>2021-06-03T13:00:50Z</time>
      </trkpt>
      <trkpt lat="41.76372" lon="9.13456">
        <ele>773.6</ele>
        <time>2021-06-03T13:00:51Z</time>
      </trkpt>
      <trkpt lat="41.76374" lon="9.13457">
        <ele>773.6</ele>
        <time>2021-06-03T13:00:52Z</time>
      </trkpt>
      <trkpt lat="41.76375" lon="9.13458">
        <ele>773.8</ele>
        <time>2021-06-03T13:00:53Z</time>
      </trkpt>
      <trkpt lat="41.76377" lon="9.1346">
        <ele>774</ele>
        <time>2021-06-03T13:00:54Z</time>
      </trkpt>
      <trkpt lat="41.76378" lon="9.13461">
        <ele>774</ele>
        <time>2021-06-03T13:00:55Z</time>
      </trkpt>
      <trkpt lat="41.76379" lon="9.13463">
        <ele>774</ele>
        <time>2021-06-03T13:00:56Z</time>
      </trkpt>
      <trkpt lat="41.76381" lon="9.13464">
        <ele>774.6</ele>
        <time>2021-06-03T13:00:57Z</time>
      </trkpt>
      <trkpt lat="41.76382" lon="9.13465">
        <ele>775.2</ele>
        <time>2021-06-03T13:00:58Z</time>
      </trkpt>
      <trkpt lat="41.76383" lon="9.13467">
        <ele>775.2</ele>
        <time>2021-06-03T13:00:59Z</time>
      </trkpt>
      <trkpt lat="41.76385" lon="9.13469">
        <ele>775.2</ele>
        <time>2021-06-03T13:01:00Z</time>
      </trkpt>
      <trkpt lat="41.76386" lon="9.1347">
        <ele>774.8</ele>
        <time>2021-06-03T13:01:01Z</time>
      </trkpt>
      <trkpt lat="41.76387" lon="9.13472">
        <ele>774.2</ele>
        <time>2021-06-03T13:01:02Z</time>
      </trkpt>
      <trkpt lat="41.76389" lon="9.13474">
        <ele>774.2</ele>
        <time>2021-06-03T13:01:03Z</time>
      </trkpt>
      <trkpt lat="41.7639" lon="9.13476">
        <ele>774.2</ele>
        <time>2021-06-03T13:01:04Z</time>
      </trkpt>
      <trkpt lat="41.76391" lon="9.13477">
        <ele>775</ele>
        <time>2021-06-03T13:01:05Z</time>
      </trkpt>
      <trkpt lat="41.76393" lon="9.13479">
        <ele>775</ele>
        <time>2021-06-03T13:01:06Z</time>
      </trkpt>
      <trkpt lat="41.76394" lon="9.13481">
        <ele>775</ele>
        <time>2021-06-03T13:01:07Z</time>
      </trkpt>
      <trkpt lat="41.76395" lon="9.13482">
        <ele>775</ele>
        <time>2021-06-03T13:01:08Z</time>
      </trkpt>
      <trkpt lat="41.76396" lon="9.13484">
        <ele>775</ele>
        <time>2021-06-03T13:01:09Z</time>
      </trkpt>
      <trkpt lat="41.76398" lon="9.13485">
        <ele>775</ele>
        <time>2021-06-03T13:01:10Z</time>
      </trkpt>
      <trkpt lat="41.76399" lon="9.13487">
        <ele>775</ele>
        <time>2021-06-03T13:01:11Z</time>
      </trkpt>
      <trkpt lat="41.764" lon="9.13489">
        <ele>775</ele>
        <time>2021-06-03T13:01:12Z</time>
      </trkpt>
      <trkpt lat="41.76401" lon="9.1349">
        <ele>775.2</ele>
        <time>2021-06-03T13:01:13Z</time>
      </trkpt>
      <trkpt lat="41.76402" lon="9.13492">
        <ele>775.6</ele>
        <time>2021-06-03T13:01:14Z</time>
      </trkpt>
      <trkpt lat="41.76403" lon="9.13493">
        <ele>775.6</ele>
        <time>2021-06-03T13:01:15Z</time>
      </trkpt>
      <trkpt lat="41.76404" lon="9.13495">
        <ele>775.6</ele>
        <time>2021-06-03T13:01:16Z</time>
      </trkpt>
      <trkpt lat="41.76405" lon="9.13497">
        <ele>775.6</ele>
        <time>2021-06-03T13:01:17Z</time>
      </trkpt>
      <trkpt lat="41.76406" lon="9.13499">
        <ele>776.4</ele>
        <time>2021-06-03T13:01:18Z</time>
      </trkpt>
      <trkpt lat="41.76407" lon="9.135">
        <ele>776.4</ele>
        <time>2021-06-03T13:01:19Z</time>
      </trkpt>
      <trkpt lat="41.76408" lon="9.13502">
        <ele>776.4</ele>
        <time>2021-06-03T13:01:20Z</time>
      </trkpt>
      <trkpt lat="41.76409" lon="9.13504">
        <ele>777.2</ele>
        <time>2021-06-03T13:01:21Z</time>
      </trkpt>
      <trkpt lat="41.7641" lon="9.13505">
        <ele>777.2</ele>
        <time>2021-06-03T13:01:22Z</time>
      </trkpt>
      <trkpt lat="41.76411" lon="9.13507">
        <ele>777.2</ele>
        <time>2021-06-03T13:01:23Z</time>
      </trkpt>
      <trkpt lat="41.76412" lon="9.13508">
        <ele>777.2</ele>
        <time>2021-06-03T13:01:24Z</time>
      </trkpt>
      <trkpt lat="41.76413" lon="9.1351">
        <ele>777.2</ele>
        <time>2021-06-03T13:01:25Z</time>
      </trkpt>
      <trkpt lat="41.76414" lon="9.13512">
        <ele>777.2</ele>
        <time>2021-06-03T13:01:26Z</time>
      </trkpt>
      <trkpt lat="41.76415" lon="9.13514">
        <ele>777.2</ele>
        <time>2021-06-03T13:01:27Z</time>
      </trkpt>
      <trkpt lat="41.76416" lon="9.13516">
        <ele>777.2</ele>
        <time>2021-06-03T13:01:28Z</time>
      </trkpt>
      <trkpt lat="41.76417" lon="9.13518">
        <ele>777.2</ele>
        <time>2021-06-03T13:01:29Z</time>
      </trkpt>
      <trkpt lat="41.76419" lon="9.1352">
        <ele>777.8</ele>
        <time>2021-06-03T13:01:30Z</time>
      </trkpt>
      <trkpt lat="41.7642" lon="9.13522">
        <ele>777.8</ele>
        <time>2021-06-03T13:01:31Z</time>
      </trkpt>
      <trkpt lat="41.76422" lon="9.13524">
        <ele>777.8</ele>
        <time>2021-06-03T13:01:32Z</time>
      </trkpt>
      <trkpt lat="41.76423" lon="9.13526">
        <ele>778</ele>
        <time>2021-06-03T13:01:33Z</time>
      </trkpt>
      <trkpt lat="41.76424" lon="9.13528">
        <ele>777.8</ele>
        <time>2021-06-03T13:01:34Z</time>
      </trkpt>
      <trkpt lat="41.76425" lon="9.1353">
        <ele>777.8</ele>
        <time>2021-06-03T13:01:35Z</time>
      </trkpt>
      <trkpt lat="41.76427" lon="9.13533">
        <ele>777.8</ele>
        <time>2021-06-03T13:01:36Z</time>
      </trkpt>
      <trkpt lat="41.76428" lon="9.13535">
        <ele>777.8</ele>
        <time>2021-06-03T13:01:37Z</time>
      </trkpt>
      <trkpt lat="41.76429" lon="9.13537">
        <ele>777.6</ele>
        <time>2021-06-03T13:01:38Z</time>
      </trkpt>
      <trkpt lat="41.7643" lon="9.13539">
        <ele>777.6</ele>
        <time>2021-06-03T13:01:39Z</time>
      </trkpt>
      <trkpt lat="41.76431" lon="9.13541">
        <ele>777.6</ele>
        <time>2021-06-03T13:01:40Z</time>
      </trkpt>
      <trkpt lat="41.76432" lon="9.13543">
        <ele>778.4</ele>
        <time>2021-06-03T13:01:41Z</time>
      </trkpt>
      <trkpt lat="41.76433" lon="9.13545">
        <ele>778.4</ele>
        <time>2021-06-03T13:01:42Z</time>
      </trkpt>
      <trkpt lat="41.76435" lon="9.13547">
        <ele>778.6</ele>
        <time>2021-06-03T13:01:43Z</time>
      </trkpt>
      <trkpt lat="41.76436" lon="9.13549">
        <ele>778.6</ele>
        <time>2021-06-03T13:01:44Z</time>
      </trkpt>
      <trkpt lat="41.76437" lon="9.13551">
        <ele>778.6</ele>
        <time>2021-06-03T13:01:45Z</time>
      </trkpt>
      <trkpt lat="41.76438" lon="9.13553">
        <ele>779</ele>
        <time>2021-06-03T13:01:46Z</time>
      </trkpt>
      <trkpt lat="41.76439" lon="9.13555">
        <ele>779</ele>
        <time>2021-06-03T13:01:47Z</time>
      </trkpt>
      <trkpt lat="41.7644" lon="9.13557">
        <ele>779</ele>
        <time>2021-06-03T13:01:48Z</time>
      </trkpt>
      <trkpt lat="41.76442" lon="9.13558">
        <ele>780</ele>
        <time>2021-06-03T13:01:49Z</time>
      </trkpt>
      <trkpt lat="41.76443" lon="9.1356">
        <ele>779.8</ele>
        <time>2021-06-03T13:01:50Z</time>
      </trkpt>
      <trkpt lat="41.76444" lon="9.13563">
        <ele>779.8</ele>
        <time>2021-06-03T13:01:51Z</time>
      </trkpt>
      <trkpt lat="41.76445" lon="9.13565">
        <ele>779.8</ele>
        <time>2021-06-03T13:01:52Z</time>
      </trkpt>
      <trkpt lat="41.76446" lon="9.13567">
        <ele>779.8</ele>
        <time>2021-06-03T13:01:53Z</time>
      </trkpt>
      <trkpt lat="41.76447" lon="9.13569">
        <ele>779.8</ele>
        <time>2021-06-03T13:01:54Z</time>
      </trkpt>
      <trkpt lat="41.76448" lon="9.13571">
        <ele>779.8</ele>
        <time>2021-06-03T13:01:55Z</time>
      </trkpt>
      <trkpt lat="41.76449" lon="9.13573">
        <ele>779.8</ele>
        <time>2021-06-03T13:01:56Z</time>
      </trkpt>
      <trkpt lat="41.7645" lon="9.13575">
        <ele>780.4</ele>
        <time>2021-06-03T13:01:57Z</time>
      </trkpt>
      <trkpt lat="41.76451" lon="9.13577">
        <ele>780.4</ele>
        <time>2021-06-03T13:01:58Z</time>
      </trkpt>
      <trkpt lat="41.76452" lon="9.13579">
        <ele>780.4</ele>
        <time>2021-06-03T13:01:59Z</time>
      </trkpt>
      <trkpt lat="41.76453" lon="9.13581">
        <ele>780.4</ele>
        <time>2021-06-03T13:02:00Z</time>
      </trkpt>
      <trkpt lat="41.76454" lon="9.13582">
        <ele>780.8</ele>
        <time>2021-06-03T13:02:01Z</time>
      </trkpt>
      <trkpt lat="41.76456" lon="9.13584">
        <ele>780.6</ele>
        <time>2021-06-03T13:02:02Z</time>
      </trkpt>
      <trkpt lat="41.76456" lon="9.13586">
        <ele>780.6</ele>
        <time>2021-06-03T13:02:03Z</time>
      </trkpt>
      <trkpt lat="41.76457" lon="9.13588">
        <ele>780.6</ele>
        <time>2021-06-03T13:02:04Z</time>
      </trkpt>
      <trkpt lat="41.76458" lon="9.1359">
        <ele>781.6</ele>
        <time>2021-06-03T13:02:05Z</time>
      </trkpt>
      <trkpt lat="41.76459" lon="9.13592">
        <ele>781.2</ele>
        <time>2021-06-03T13:02:06Z</time>
      </trkpt>
      <trkpt lat="41.76461" lon="9.13593">
        <ele>781.2</ele>
        <time>2021-06-03T13:02:07Z</time>
      </trkpt>
      <trkpt lat="41.76462" lon="9.13595">
        <ele>781.2</ele>
        <time>2021-06-03T13:02:08Z</time>
      </trkpt>
      <trkpt lat="41.76463" lon="9.13597">
        <ele>781.8</ele>
        <time>2021-06-03T13:02:09Z</time>
      </trkpt>
      <trkpt lat="41.76464" lon="9.13599">
        <ele>781.8</ele>
        <time>2021-06-03T13:02:10Z</time>
      </trkpt>
      <trkpt lat="41.76465" lon="9.13601">
        <ele>781.8</ele>
        <time>2021-06-03T13:02:11Z</time>
      </trkpt>
      <trkpt lat="41.76466" lon="9.13603">
        <ele>781.8</ele>
        <time>2021-06-03T13:02:12Z</time>
      </trkpt>
      <trkpt lat="41.76467" lon="9.13605">
        <ele>782</ele>
        <time>2021-06-03T13:02:13Z</time>
      </trkpt>
      <trkpt lat="41.76468" lon="9.13606">
        <ele>782.4</ele>
        <time>2021-06-03T13:02:14Z</time>
      </trkpt>
      <trkpt lat="41.76469" lon="9.13608">
        <ele>782.4</ele>
        <time>2021-06-03T13:02:15Z</time>
      </trkpt>
      <trkpt lat="41.76471" lon="9.1361">
        <ele>782.4</ele>
        <time>2021-06-03T13:02:16Z</time>
      </trkpt>
      <trkpt lat="41.76472" lon="9.13611">
        <ele>782.4</ele>
        <time>2021-06-03T13:02:17Z</time>
      </trkpt>
      <trkpt lat="41.76473" lon="9.13613">
        <ele>782.4</ele>
        <time>2021-06-03T13:02:18Z</time>
      </trkpt>
      <trkpt lat="41.76474" lon="9.13615">
        <ele>782.4</ele>
        <time>2021-06-03T13:02:19Z</time>
      </trkpt>
      <trkpt lat="41.76475" lon="9.13616">
        <ele>782.4</ele>
        <time>2021-06-03T13:02:20Z</time>
      </trkpt>
      <trkpt lat="41.76476" lon="9.13618">
        <ele>782.6</ele>
        <time>2021-06-03T13:02:21Z</time>
      </trkpt>
      <trkpt lat="41.76477" lon="9.1362">
        <ele>782.6</ele>
        <time>2021-06-03T13:02:22Z</time>
      </trkpt>
      <trkpt lat="41.76478" lon="9.13622">
        <ele>782.6</ele>
        <time>2021-06-03T13:02:23Z</time>
      </trkpt>
      <trkpt lat="41.76479" lon="9.13624">
        <ele>782.6</ele>
        <time>2021-06-03T13:02:24Z</time>
      </trkpt>
      <trkpt lat="41.7648" lon="9.13625">
        <ele>783.4</ele>
        <time>2021-06-03T13:02:25Z</time>
      </trkpt>
      <trkpt lat="41.76481" lon="9.13627">
        <ele>783.4</ele>
        <time>2021-06-03T13:02:26Z</time>
      </trkpt>
      <trkpt lat="41.76482" lon="9.13629">
        <ele>783.4</ele>
        <time>2021-06-03T13:02:27Z</time>
      </trkpt>
      <trkpt lat="41.76483" lon="9.13631">
        <ele>783.4</ele>
        <time>2021-06-03T13:02:28Z</time>
      </trkpt>
      <trkpt lat="41.76483" lon="9.13633">
        <ele>783.4</ele>
        <time>2021-06-03T13:02:29Z</time>
      </trkpt>
      <trkpt lat="41.76484" lon="9.13635">
        <ele>784.4</ele>
        <time>2021-06-03T13:02:30Z</time>
      </trkpt>
      <trkpt lat="41.76485" lon="9.13638">
        <ele>784.4</ele>
        <time>2021-06-03T13:02:31Z</time>
      </trkpt>
      <trkpt lat="41.76486" lon="9.1364">
        <ele>784.4</ele>
        <time>2021-06-03T13:02:32Z</time>
      </trkpt>
      <trkpt lat="41.76487" lon="9.13642">
        <ele>784.2</ele>
        <time>2021-06-03T13:02:33Z</time>
      </trkpt>
      <trkpt lat="41.76488" lon="9.13645">
        <ele>784.2</ele>
        <time>2021-06-03T13:02:34Z</time>
      </trkpt>
      <trkpt lat="41.76488" lon="9.13647">
        <ele>784.2</ele>
        <time>2021-06-03T13:02:35Z</time>
      </trkpt>
      <trkpt lat="41.76489" lon="9.13649">
        <ele>784.2</ele>
        <time>2021-06-03T13:02:36Z</time>
      </trkpt>
      <trkpt lat="41.7649" lon="9.13652">
        <ele>784.2</ele>
        <time>2021-06-03T13:02:37Z</time>
      </trkpt>
      <trkpt lat="41.76491" lon="9.13654">
        <ele>784.2</ele>
        <time>2021-06-03T13:02:38Z</time>
      </trkpt>
      <trkpt lat="41.76491" lon="9.13656">
        <ele>784.2</ele>
        <time>2021-06-03T13:02:39Z</time>
      </trkpt>
      <trkpt lat="41.76492" lon="9.13658">
        <ele>784.2</ele>
        <time>2021-06-03T13:02:40Z</time>
      </trkpt>
      <trkpt lat="41.76493" lon="9.1366">
        <ele>784.6</ele>
        <time>2021-06-03T13:02:41Z</time>
      </trkpt>
      <trkpt lat="41.76494" lon="9.13663">
        <ele>784.8</ele>
        <time>2021-06-03T13:02:42Z</time>
      </trkpt>
      <trkpt lat="41.76495" lon="9.13665">
        <ele>784.8</ele>
        <time>2021-06-03T13:02:43Z</time>
      </trkpt>
      <trkpt lat="41.76496" lon="9.13667">
        <ele>784.8</ele>
        <time>2021-06-03T13:02:44Z</time>
      </trkpt>
      <trkpt lat="41.76497" lon="9.13669">
        <ele>784.8</ele>
        <time>2021-06-03T13:02:45Z</time>
      </trkpt>
      <trkpt lat="41.76498" lon="9.13671">
        <ele>785</ele>
        <time>2021-06-03T13:02:46Z</time>
      </trkpt>
      <trkpt lat="41.76499" lon="9.13673">
        <ele>785</ele>
        <time>2021-06-03T13:02:47Z</time>
      </trkpt>
      <trkpt lat="41.765" lon="9.13674">
        <ele>785</ele>
        <time>2021-06-03T13:02:48Z</time>
      </trkpt>
      <trkpt lat="41.76501" lon="9.13676">
        <ele>785</ele>
        <time>2021-06-03T13:02:49Z</time>
      </trkpt>
      <trkpt lat="41.76503" lon="9.13678">
        <ele>785.2</ele>
        <time>2021-06-03T13:02:50Z</time>
      </trkpt>
      <trkpt lat="41.76504" lon="9.1368">
        <ele>785.2</ele>
        <time>2021-06-03T13:02:51Z</time>
      </trkpt>
      <trkpt lat="41.76506" lon="9.13682">
        <ele>785.2</ele>
        <time>2021-06-03T13:02:52Z</time>
      </trkpt>
      <trkpt lat="41.76507" lon="9.13684">
        <ele>785.4</ele>
        <time>2021-06-03T13:02:53Z</time>
      </trkpt>
      <trkpt lat="41.76508" lon="9.13686">
        <ele>785.6</ele>
        <time>2021-06-03T13:02:54Z</time>
      </trkpt>
      <trkpt lat="41.7651" lon="9.13688">
        <ele>785.6</ele>
        <time>2021-06-03T13:02:55Z</time>
      </trkpt>
      <trkpt lat="41.76511" lon="9.13689">
        <ele>785.6</ele>
        <time>2021-06-03T13:02:56Z</time>
      </trkpt>
      <trkpt lat="41.76513" lon="9.13691">
        <ele>786</ele>
        <time>2021-06-03T13:02:57Z</time>
      </trkpt>
      <trkpt lat="41.76514" lon="9.13693">
        <ele>786.2</ele>
        <time>2021-06-03T13:02:58Z</time>
      </trkpt>
      <trkpt lat="41.76516" lon="9.13694">
        <ele>786.2</ele>
        <time>2021-06-03T13:02:59Z</time>
      </trkpt>
      <trkpt lat="41.76517" lon="9.13696">
        <ele>786.2</ele>
        <time>2021-06-03T13:03:00Z</time>
      </trkpt>
      <trkpt lat="41.76519" lon="9.13697">
        <ele>785.8</ele>
        <time>2021-06-03T13:03:01Z</time>
      </trkpt>
      <trkpt lat="41.7652" lon="9.13699">
        <ele>786.4</ele>
        <time>2021-06-03T13:03:02Z</time>
      </trkpt>
      <trkpt lat="41.76522" lon="9.137">
        <ele>786.4</ele>
        <time>2021-06-03T13:03:03Z</time>
      </trkpt>
      <trkpt lat="41.76523" lon="9.13702">
        <ele>786.4</ele>
        <time>2021-06-03T13:03:04Z</time>
      </trkpt>
      <trkpt lat="41.76524" lon="9.13704">
        <ele>786.4</ele>
        <time>2021-06-03T13:03:05Z</time>
      </trkpt>
      <trkpt lat="41.76526" lon="9.13705">
        <ele>786.4</ele>
        <time>2021-06-03T13:03:06Z</time>
      </trkpt>
      <trkpt lat="41.76527" lon="9.13707">
        <ele>786.2</ele>
        <time>2021-06-03T13:03:07Z</time>
      </trkpt>
      <trkpt lat="41.76528" lon="9.13709">
        <ele>786.2</ele>
        <time>2021-06-03T13:03:08Z</time>
      </trkpt>
      <trkpt lat="41.7653" lon="9.13711">
        <ele>786.8</ele>
        <time>2021-06-03T13:03:09Z</time>
      </trkpt>
      <trkpt lat="41.76531" lon="9.13712">
        <ele>786.8</ele>
        <time>2021-06-03T13:03:10Z</time>
      </trkpt>
      <trkpt lat="41.76532" lon="9.13714">
        <ele>786.8</ele>
        <time>2021-06-03T13:03:11Z</time>
      </trkpt>
      <trkpt lat="41.76534" lon="9.13715">
        <ele>786.8</ele>
        <time>2021-06-03T13:03:12Z</time>
      </trkpt>
      <trkpt lat="41.76535" lon="9.13717">
        <ele>787.4</ele>
        <time>2021-06-03T13:03:13Z</time>
      </trkpt>
      <trkpt lat="41.76536" lon="9.13719">
        <ele>787.4</ele>
        <time>2021-06-03T13:03:14Z</time>
      </trkpt>
      <trkpt lat="41.76537" lon="9.13721">
        <ele>787.4</ele>
        <time>2021-06-03T13:03:15Z</time>
      </trkpt>
      <trkpt lat="41.76538" lon="9.13722">
        <ele>787.4</ele>
        <time>2021-06-03T13:03:16Z</time>
      </trkpt>
      <trkpt lat="41.76539" lon="9.13724">
        <ele>787.4</ele>
        <time>2021-06-03T13:03:17Z</time>
      </trkpt>
      <trkpt lat="41.76541" lon="9.13726">
        <ele>787.6</ele>
        <time>2021-06-03T13:03:18Z</time>
      </trkpt>
      <trkpt lat="41.76542" lon="9.13728">
        <ele>787.6</ele>
        <time>2021-06-03T13:03:19Z</time>
      </trkpt>
      <trkpt lat="41.76543" lon="9.1373">
        <ele>787.6</ele>
        <time>2021-06-03T13:03:20Z</time>
      </trkpt>
      <trkpt lat="41.76544" lon="9.13732">
        <ele>787.6</ele>
        <time>2021-06-03T13:03:21Z</time>
      </trkpt>
      <trkpt lat="41.76545" lon="9.13734">
        <ele>787.6</ele>
        <time>2021-06-03T13:03:22Z</time>
      </trkpt>
      <trkpt lat="41.76546" lon="9.13736">
        <ele>787.6</ele>
        <time>2021-06-03T13:03:23Z</time>
      </trkpt>
      <trkpt lat="41.76547" lon="9.13738">
        <ele>787.6</ele>
        <time>2021-06-03T13:03:24Z</time>
      </trkpt>
      <trkpt lat="41.76548" lon="9.1374">
        <ele>788.4</ele>
        <time>2021-06-03T13:03:25Z</time>
      </trkpt>
      <trkpt lat="41.76549" lon="9.13742">
        <ele>788.8</ele>
        <time>2021-06-03T13:03:26Z</time>
      </trkpt>
      <trkpt lat="41.76549" lon="9.13744">
        <ele>788.8</ele>
        <time>2021-06-03T13:03:27Z</time>
      </trkpt>
      <trkpt lat="41.7655" lon="9.13747">
        <ele>788.8</ele>
        <time>2021-06-03T13:03:28Z</time>
      </trkpt>
      <trkpt lat="41.76551" lon="9.13749">
        <ele>788.8</ele>
        <time>2021-06-03T13:03:29Z</time>
      </trkpt>
      <trkpt lat="41.76552" lon="9.13751">
        <ele>788.4</ele>
        <time>2021-06-03T13:03:30Z</time>
      </trkpt>
      <trkpt lat="41.76553" lon="9.13753">
        <ele>788.4</ele>
        <time>2021-06-03T13:03:31Z</time>
      </trkpt>
      <trkpt lat="41.76553" lon="9.13755">
        <ele>788.4</ele>
        <time>2021-06-03T13:03:32Z</time>
      </trkpt>
      <trkpt lat="41.76554" lon="9.13757">
        <ele>788.4</ele>
        <time>2021-06-03T13:03:33Z</time>
      </trkpt>
      <trkpt lat="41.76555" lon="9.13759">
        <ele>789</ele>
        <time>2021-06-03T13:03:34Z</time>
      </trkpt>
      <trkpt lat="41.76556" lon="9.13761">
        <ele>789</ele>
        <time>2021-06-03T13:03:35Z</time>
      </trkpt>
      <trkpt lat="41.76556" lon="9.13763">
        <ele>789</ele>
        <time>2021-06-03T13:03:36Z</time>
      </trkpt>
      <trkpt lat="41.76556" lon="9.13766">
        <ele>789</ele>
        <time>2021-06-03T13:03:37Z</time>
      </trkpt>
      <trkpt lat="41.76556" lon="9.13767">
        <ele>789.2</ele>
        <time>2021-06-03T13:03:38Z</time>
      </trkpt>
      <trkpt lat="41.76556" lon="9.13769">
        <ele>789.2</ele>
        <time>2021-06-03T13:03:39Z</time>
      </trkpt>
      <trkpt lat="41.76555" lon="9.13771">
        <ele>789.2</ele>
        <time>2021-06-03T13:03:40Z</time>
      </trkpt>
      <trkpt lat="41.76555" lon="9.13772">
        <ele>789</ele>
        <time>2021-06-03T13:03:41Z</time>
      </trkpt>
      <trkpt lat="41.76555" lon="9.13772">
        <ele>789</ele>
        <time>2021-06-03T13:03:42Z</time>
      </trkpt>
    </trkseg>
  </trk>
</gpx>